<?xml version="1.0" encoding="UTF-8" standalone="no" ?>
<gpx xmlns="http://www.topografix.com/GPX/1/1" xmlns:xsi="http://www.w3.org/2001/XMLSchema-instance" xsi:schemaLocation="http://www.topografix.com/GPX/1/1 http://www.topografix.com/GPX/1/1/gpx.xsd" version="1.1" creator="VisuGPX - https://www.visugpx.com">
  <metadata>
    <name>Jour 2</name>
  </metadata>
  <trk>
    <name><![CDATA[J2]]></name>
    <extensions>
      <line xmlns="http://www.topografix.com/GPX/gpx_style/0/2">
        <color>0000FF</color>
        <width>4</width>
      </line>
    </extensions>
    <trkseg>
      <trkpt lat="42.27139" lon="2.52884">
        <ele>414.15</ele>
        <time>2021-07-31T08:16:59Z</time>
      </trkpt>
      <trkpt lat="42.27139" lon="2.52884">
        <ele>414.13</ele>
        <time>2021-07-31T08:17:00Z</time>
      </trkpt>
      <trkpt lat="42.27139" lon="2.5288">
        <ele>414.59</ele>
        <time>2021-07-31T08:17:46Z</time>
      </trkpt>
      <trkpt lat="42.27139" lon="2.52881">
        <ele>415.01</ele>
        <time>2021-07-31T08:18:26Z</time>
      </trkpt>
      <trkpt lat="42.27138" lon="2.52891">
        <ele>415.72</ele>
        <time>2021-07-31T08:19:11Z</time>
      </trkpt>
      <trkpt lat="42.27136" lon="2.52893">
        <ele>415.74</ele>
        <time>2021-07-31T08:19:12Z</time>
      </trkpt>
      <trkpt lat="42.27118" lon="2.52886">
        <ele>415.69</ele>
        <time>2021-07-31T08:19:18Z</time>
      </trkpt>
      <trkpt lat="42.27108" lon="2.5286">
        <ele>415.43</ele>
        <time>2021-07-31T08:19:22Z</time>
      </trkpt>
      <trkpt lat="42.27091" lon="2.52872">
        <ele>413.14</ele>
        <time>2021-07-31T08:19:30Z</time>
      </trkpt>
      <trkpt lat="42.27095" lon="2.52886">
        <ele>412.73</ele>
        <time>2021-07-31T08:19:32Z</time>
      </trkpt>
      <trkpt lat="42.2712" lon="2.52967">
        <ele>412.6</ele>
        <time>2021-07-31T08:19:41Z</time>
      </trkpt>
      <trkpt lat="42.27147" lon="2.53017">
        <ele>413.35</ele>
        <time>2021-07-31T08:19:45Z</time>
      </trkpt>
      <trkpt lat="42.27215" lon="2.53082">
        <ele>416.33</ele>
        <time>2021-07-31T08:19:52Z</time>
      </trkpt>
      <trkpt lat="42.27253" lon="2.53151">
        <ele>420.33</ele>
        <time>2021-07-31T08:19:58Z</time>
      </trkpt>
      <trkpt lat="42.27263" lon="2.53187">
        <ele>421.59</ele>
        <time>2021-07-31T08:20:01Z</time>
      </trkpt>
      <trkpt lat="42.27319" lon="2.53337">
        <ele>421.19</ele>
        <time>2021-07-31T08:20:14Z</time>
      </trkpt>
      <trkpt lat="42.27349" lon="2.53407">
        <ele>418.99</ele>
        <time>2021-07-31T08:20:20Z</time>
      </trkpt>
      <trkpt lat="42.27349" lon="2.53476">
        <ele>416.97</ele>
        <time>2021-07-31T08:20:25Z</time>
      </trkpt>
      <trkpt lat="42.27371" lon="2.53527">
        <ele>416.51</ele>
        <time>2021-07-31T08:20:29Z</time>
      </trkpt>
      <trkpt lat="42.27456" lon="2.53666">
        <ele>417.97</ele>
        <time>2021-07-31T08:20:42Z</time>
      </trkpt>
      <trkpt lat="42.2754" lon="2.53753">
        <ele>421.12</ele>
        <time>2021-07-31T08:20:51Z</time>
      </trkpt>
      <trkpt lat="42.27558" lon="2.53773">
        <ele>422.49</ele>
        <time>2021-07-31T08:20:53Z</time>
      </trkpt>
      <trkpt lat="42.27566" lon="2.53786">
        <ele>423.14</ele>
        <time>2021-07-31T08:20:54Z</time>
      </trkpt>
      <trkpt lat="42.27575" lon="2.53796">
        <ele>423.9</ele>
        <time>2021-07-31T08:20:55Z</time>
      </trkpt>
      <trkpt lat="42.27605" lon="2.53853">
        <ele>427.38</ele>
        <time>2021-07-31T08:20:59Z</time>
      </trkpt>
      <trkpt lat="42.27624" lon="2.53886">
        <ele>430.04</ele>
        <time>2021-07-31T08:21:02Z</time>
      </trkpt>
      <trkpt lat="42.27631" lon="2.53894">
        <ele>430.73</ele>
        <time>2021-07-31T08:21:03Z</time>
      </trkpt>
      <trkpt lat="42.27638" lon="2.53898">
        <ele>431.45</ele>
        <time>2021-07-31T08:21:04Z</time>
      </trkpt>
      <trkpt lat="42.27646" lon="2.53897">
        <ele>432.16</ele>
        <time>2021-07-31T08:21:05Z</time>
      </trkpt>
      <trkpt lat="42.27653" lon="2.53892">
        <ele>432.86</ele>
        <time>2021-07-31T08:21:06Z</time>
      </trkpt>
      <trkpt lat="42.27661" lon="2.53848">
        <ele>435.83</ele>
        <time>2021-07-31T08:21:11Z</time>
      </trkpt>
      <trkpt lat="42.27646" lon="2.53819">
        <ele>437.2</ele>
        <time>2021-07-31T08:21:13Z</time>
      </trkpt>
      <trkpt lat="42.27592" lon="2.53709">
        <ele>441.6</ele>
        <time>2021-07-31T08:21:19Z</time>
      </trkpt>
      <trkpt lat="42.27554" lon="2.53598">
        <ele>444.88</ele>
        <time>2021-07-31T08:21:24Z</time>
      </trkpt>
      <trkpt lat="42.27535" lon="2.53518">
        <ele>448.04</ele>
        <time>2021-07-31T08:21:28Z</time>
      </trkpt>
      <trkpt lat="42.2752" lon="2.53452">
        <ele>451.51</ele>
        <time>2021-07-31T08:21:32Z</time>
      </trkpt>
      <trkpt lat="42.27529" lon="2.53408">
        <ele>455.44</ele>
        <time>2021-07-31T08:21:37Z</time>
      </trkpt>
      <trkpt lat="42.27563" lon="2.53468">
        <ele>460.27</ele>
        <time>2021-07-31T08:21:43Z</time>
      </trkpt>
      <trkpt lat="42.27602" lon="2.53532">
        <ele>463.96</ele>
        <time>2021-07-31T08:21:47Z</time>
      </trkpt>
      <trkpt lat="42.27635" lon="2.53582">
        <ele>467.42</ele>
        <time>2021-07-31T08:21:50Z</time>
      </trkpt>
      <trkpt lat="42.27668" lon="2.53632">
        <ele>471.26</ele>
        <time>2021-07-31T08:21:53Z</time>
      </trkpt>
      <trkpt lat="42.277" lon="2.53678">
        <ele>475.62</ele>
        <time>2021-07-31T08:21:56Z</time>
      </trkpt>
      <trkpt lat="42.27723" lon="2.53703">
        <ele>478.69</ele>
        <time>2021-07-31T08:21:58Z</time>
      </trkpt>
      <trkpt lat="42.27762" lon="2.53719">
        <ele>483.25</ele>
        <time>2021-07-31T08:22:01Z</time>
      </trkpt>
      <trkpt lat="42.2779" lon="2.53714">
        <ele>486.3</ele>
        <time>2021-07-31T08:22:03Z</time>
      </trkpt>
      <trkpt lat="42.2783" lon="2.53705">
        <ele>490.63</ele>
        <time>2021-07-31T08:22:06Z</time>
      </trkpt>
      <trkpt lat="42.27861" lon="2.53727">
        <ele>494.71</ele>
        <time>2021-07-31T08:22:09Z</time>
      </trkpt>
      <trkpt lat="42.2787" lon="2.53767">
        <ele>498.6</ele>
        <time>2021-07-31T08:22:12Z</time>
      </trkpt>
      <trkpt lat="42.2788" lon="2.53836">
        <ele>503.64</ele>
        <time>2021-07-31T08:22:16Z</time>
      </trkpt>
      <trkpt lat="42.27885" lon="2.53883">
        <ele>507.75</ele>
        <time>2021-07-31T08:22:19Z</time>
      </trkpt>
      <trkpt lat="42.279" lon="2.53912">
        <ele>512.36</ele>
        <time>2021-07-31T08:22:22Z</time>
      </trkpt>
      <trkpt lat="42.27922" lon="2.53909">
        <ele>515.92</ele>
        <time>2021-07-31T08:22:25Z</time>
      </trkpt>
      <trkpt lat="42.27925" lon="2.53875">
        <ele>519</ele>
        <time>2021-07-31T08:22:28Z</time>
      </trkpt>
      <trkpt lat="42.27924" lon="2.53861">
        <ele>519.85</ele>
        <time>2021-07-31T08:22:29Z</time>
      </trkpt>
      <trkpt lat="42.2792" lon="2.53798">
        <ele>524.71</ele>
        <time>2021-07-31T08:22:33Z</time>
      </trkpt>
      <trkpt lat="42.27917" lon="2.53741">
        <ele>528.5</ele>
        <time>2021-07-31T08:22:36Z</time>
      </trkpt>
      <trkpt lat="42.27913" lon="2.5368">
        <ele>532.93</ele>
        <time>2021-07-31T08:22:39Z</time>
      </trkpt>
      <trkpt lat="42.27896" lon="2.53628">
        <ele>537.62</ele>
        <time>2021-07-31T08:22:42Z</time>
      </trkpt>
      <trkpt lat="42.27861" lon="2.53595">
        <ele>542</ele>
        <time>2021-07-31T08:22:45Z</time>
      </trkpt>
      <trkpt lat="42.27848" lon="2.53589">
        <ele>543.4</ele>
        <time>2021-07-31T08:22:46Z</time>
      </trkpt>
      <trkpt lat="42.27822" lon="2.53579">
        <ele>545.91</ele>
        <time>2021-07-31T08:22:48Z</time>
      </trkpt>
      <trkpt lat="42.27787" lon="2.53538">
        <ele>551.06</ele>
        <time>2021-07-31T08:22:52Z</time>
      </trkpt>
      <trkpt lat="42.2778" lon="2.53506">
        <ele>555.99</ele>
        <time>2021-07-31T08:22:57Z</time>
      </trkpt>
      <trkpt lat="42.27778" lon="2.53487">
        <ele>559.33</ele>
        <time>2021-07-31T08:23:04Z</time>
      </trkpt>
      <trkpt lat="42.27778" lon="2.53483">
        <ele>559.66</ele>
        <time>2021-07-31T08:23:05Z</time>
      </trkpt>
      <trkpt lat="42.27817" lon="2.53445">
        <ele>563.21</ele>
        <time>2021-07-31T08:23:13Z</time>
      </trkpt>
      <trkpt lat="42.27848" lon="2.53437">
        <ele>565.26</ele>
        <time>2021-07-31T08:23:16Z</time>
      </trkpt>
      <trkpt lat="42.27903" lon="2.53389">
        <ele>569.39</ele>
        <time>2021-07-31T08:23:21Z</time>
      </trkpt>
      <trkpt lat="42.27924" lon="2.53364">
        <ele>571.62</ele>
        <time>2021-07-31T08:23:23Z</time>
      </trkpt>
      <trkpt lat="42.27945" lon="2.53308">
        <ele>576.35</ele>
        <time>2021-07-31T08:23:27Z</time>
      </trkpt>
      <trkpt lat="42.27936" lon="2.5327">
        <ele>579.98</ele>
        <time>2021-07-31T08:23:30Z</time>
      </trkpt>
      <trkpt lat="42.27927" lon="2.53262">
        <ele>581.19</ele>
        <time>2021-07-31T08:23:31Z</time>
      </trkpt>
      <trkpt lat="42.27895" lon="2.53197">
        <ele>586.44</ele>
        <time>2021-07-31T08:23:36Z</time>
      </trkpt>
      <trkpt lat="42.27893" lon="2.5318">
        <ele>587.51</ele>
        <time>2021-07-31T08:23:37Z</time>
      </trkpt>
      <trkpt lat="42.27885" lon="2.53118">
        <ele>591.91</ele>
        <time>2021-07-31T08:23:41Z</time>
      </trkpt>
      <trkpt lat="42.27885" lon="2.53103">
        <ele>593.1</ele>
        <time>2021-07-31T08:23:42Z</time>
      </trkpt>
      <trkpt lat="42.279" lon="2.53043">
        <ele>597.73</ele>
        <time>2021-07-31T08:23:46Z</time>
      </trkpt>
      <trkpt lat="42.27927" lon="2.53009">
        <ele>601.19</ele>
        <time>2021-07-31T08:23:49Z</time>
      </trkpt>
      <trkpt lat="42.27972" lon="2.5296">
        <ele>606.16</ele>
        <time>2021-07-31T08:23:53Z</time>
      </trkpt>
      <trkpt lat="42.28005" lon="2.52918">
        <ele>610.24</ele>
        <time>2021-07-31T08:23:56Z</time>
      </trkpt>
      <trkpt lat="42.28039" lon="2.52879">
        <ele>614.63</ele>
        <time>2021-07-31T08:23:59Z</time>
      </trkpt>
      <trkpt lat="42.28051" lon="2.52866">
        <ele>616.14</ele>
        <time>2021-07-31T08:24:00Z</time>
      </trkpt>
      <trkpt lat="42.28079" lon="2.52826">
        <ele>620.68</ele>
        <time>2021-07-31T08:24:03Z</time>
      </trkpt>
      <trkpt lat="42.28096" lon="2.52765">
        <ele>626.4</ele>
        <time>2021-07-31T08:24:07Z</time>
      </trkpt>
      <trkpt lat="42.28094" lon="2.52732">
        <ele>630.54</ele>
        <time>2021-07-31T08:24:09Z</time>
      </trkpt>
      <trkpt lat="42.28091" lon="2.52715">
        <ele>630.54</ele>
        <time>2021-07-31T08:24:10Z</time>
      </trkpt>
      <trkpt lat="42.2808" lon="2.52686">
        <ele>634.25</ele>
        <time>2021-07-31T08:24:12Z</time>
      </trkpt>
      <trkpt lat="42.28073" lon="2.52672">
        <ele>635.57</ele>
        <time>2021-07-31T08:24:13Z</time>
      </trkpt>
      <trkpt lat="42.28052" lon="2.52632">
        <ele>639.5</ele>
        <time>2021-07-31T08:24:16Z</time>
      </trkpt>
      <trkpt lat="42.28045" lon="2.52572">
        <ele>644.31</ele>
        <time>2021-07-31T08:24:20Z</time>
      </trkpt>
      <trkpt lat="42.28054" lon="2.52523">
        <ele>647.91</ele>
        <time>2021-07-31T08:24:23Z</time>
      </trkpt>
      <trkpt lat="42.28044" lon="2.52473">
        <ele>651.57</ele>
        <time>2021-07-31T08:24:26Z</time>
      </trkpt>
      <trkpt lat="42.28037" lon="2.52457">
        <ele>652.87</ele>
        <time>2021-07-31T08:24:27Z</time>
      </trkpt>
      <trkpt lat="42.28007" lon="2.52393">
        <ele>657.9</ele>
        <time>2021-07-31T08:24:31Z</time>
      </trkpt>
      <trkpt lat="42.27986" lon="2.52355">
        <ele>661.65</ele>
        <time>2021-07-31T08:24:34Z</time>
      </trkpt>
      <trkpt lat="42.2798" lon="2.52343">
        <ele>662.93</ele>
        <time>2021-07-31T08:24:35Z</time>
      </trkpt>
      <trkpt lat="42.2797" lon="2.52285">
        <ele>667.55</ele>
        <time>2021-07-31T08:24:39Z</time>
      </trkpt>
      <trkpt lat="42.27986" lon="2.52258">
        <ele>669.75</ele>
        <time>2021-07-31T08:24:41Z</time>
      </trkpt>
      <trkpt lat="42.28023" lon="2.522">
        <ele>674.64</ele>
        <time>2021-07-31T08:24:45Z</time>
      </trkpt>
      <trkpt lat="42.2804" lon="2.5217">
        <ele>677.32</ele>
        <time>2021-07-31T08:24:47Z</time>
      </trkpt>
      <trkpt lat="42.28061" lon="2.52096">
        <ele>682.94</ele>
        <time>2021-07-31T08:24:51Z</time>
      </trkpt>
      <trkpt lat="42.28071" lon="2.52037">
        <ele>687.01</ele>
        <time>2021-07-31T08:24:54Z</time>
      </trkpt>
      <trkpt lat="42.28076" lon="2.52018">
        <ele>688.39</ele>
        <time>2021-07-31T08:24:55Z</time>
      </trkpt>
      <trkpt lat="42.28112" lon="2.51957">
        <ele>694.08</ele>
        <time>2021-07-31T08:24:59Z</time>
      </trkpt>
      <trkpt lat="42.28146" lon="2.51915">
        <ele>698.32</ele>
        <time>2021-07-31T08:25:02Z</time>
      </trkpt>
      <trkpt lat="42.28178" lon="2.51878">
        <ele>702.65</ele>
        <time>2021-07-31T08:25:05Z</time>
      </trkpt>
      <trkpt lat="42.28212" lon="2.51845">
        <ele>706.71</ele>
        <time>2021-07-31T08:25:08Z</time>
      </trkpt>
      <trkpt lat="42.28224" lon="2.51835">
        <ele>708.12</ele>
        <time>2021-07-31T08:25:09Z</time>
      </trkpt>
      <trkpt lat="42.2828" lon="2.51815">
        <ele>713.7</ele>
        <time>2021-07-31T08:25:13Z</time>
      </trkpt>
      <trkpt lat="42.28322" lon="2.51804">
        <ele>718</ele>
        <time>2021-07-31T08:25:16Z</time>
      </trkpt>
      <trkpt lat="42.28353" lon="2.5179">
        <ele>722.37</ele>
        <time>2021-07-31T08:25:19Z</time>
      </trkpt>
      <trkpt lat="42.28367" lon="2.51781">
        <ele>724.99</ele>
        <time>2021-07-31T08:25:21Z</time>
      </trkpt>
      <trkpt lat="42.28378" lon="2.51764">
        <ele>729.23</ele>
        <time>2021-07-31T08:25:25Z</time>
      </trkpt>
      <trkpt lat="42.28379" lon="2.5176">
        <ele>730.14</ele>
        <time>2021-07-31T08:25:26Z</time>
      </trkpt>
      <trkpt lat="42.28392" lon="2.51712">
        <ele>734.75</ele>
        <time>2021-07-31T08:25:34Z</time>
      </trkpt>
      <trkpt lat="42.28395" lon="2.51701">
        <ele>735.26</ele>
        <time>2021-07-31T08:25:35Z</time>
      </trkpt>
      <trkpt lat="42.28425" lon="2.51665">
        <ele>737.31</ele>
        <time>2021-07-31T08:25:39Z</time>
      </trkpt>
      <trkpt lat="42.28444" lon="2.51653">
        <ele>738.77</ele>
        <time>2021-07-31T08:25:41Z</time>
      </trkpt>
      <trkpt lat="42.28471" lon="2.51601">
        <ele>743.19</ele>
        <time>2021-07-31T08:25:46Z</time>
      </trkpt>
      <trkpt lat="42.2846" lon="2.51563">
        <ele>747.23</ele>
        <time>2021-07-31T08:25:50Z</time>
      </trkpt>
      <trkpt lat="42.28438" lon="2.51527">
        <ele>751.27</ele>
        <time>2021-07-31T08:25:56Z</time>
      </trkpt>
      <trkpt lat="42.28407" lon="2.51473">
        <ele>754.67</ele>
        <time>2021-07-31T08:26:01Z</time>
      </trkpt>
      <trkpt lat="42.28394" lon="2.51449">
        <ele>756.2</ele>
        <time>2021-07-31T08:26:03Z</time>
      </trkpt>
      <trkpt lat="42.28386" lon="2.51393">
        <ele>760.58</ele>
        <time>2021-07-31T08:26:08Z</time>
      </trkpt>
      <trkpt lat="42.28443" lon="2.51405">
        <ele>764.09</ele>
        <time>2021-07-31T08:26:13Z</time>
      </trkpt>
      <trkpt lat="42.28516" lon="2.51373">
        <ele>766.87</ele>
        <time>2021-07-31T08:26:18Z</time>
      </trkpt>
      <trkpt lat="42.28606" lon="2.51287">
        <ele>769.25</ele>
        <time>2021-07-31T08:26:24Z</time>
      </trkpt>
      <trkpt lat="42.28662" lon="2.51189">
        <ele>770.68</ele>
        <time>2021-07-31T08:26:30Z</time>
      </trkpt>
      <trkpt lat="42.28663" lon="2.51072">
        <ele>771.59</ele>
        <time>2021-07-31T08:26:36Z</time>
      </trkpt>
      <trkpt lat="42.2863" lon="2.50995">
        <ele>772.34</ele>
        <time>2021-07-31T08:26:40Z</time>
      </trkpt>
      <trkpt lat="42.28532" lon="2.50871">
        <ele>774.29</ele>
        <time>2021-07-31T08:26:48Z</time>
      </trkpt>
      <trkpt lat="42.28469" lon="2.5085">
        <ele>774.64</ele>
        <time>2021-07-31T08:26:52Z</time>
      </trkpt>
      <trkpt lat="42.28319" lon="2.50831">
        <ele>775.46</ele>
        <time>2021-07-31T08:27:01Z</time>
      </trkpt>
      <trkpt lat="42.28291" lon="2.50774">
        <ele>775.3</ele>
        <time>2021-07-31T08:27:06Z</time>
      </trkpt>
      <trkpt lat="42.28328" lon="2.50718">
        <ele>774.97</ele>
        <time>2021-07-31T08:27:10Z</time>
      </trkpt>
      <trkpt lat="42.28339" lon="2.50706">
        <ele>774.96</ele>
        <time>2021-07-31T08:27:11Z</time>
      </trkpt>
      <trkpt lat="42.28383" lon="2.5066">
        <ele>775.34</ele>
        <time>2021-07-31T08:27:15Z</time>
      </trkpt>
      <trkpt lat="42.28427" lon="2.50647">
        <ele>775.67</ele>
        <time>2021-07-31T08:27:19Z</time>
      </trkpt>
      <trkpt lat="42.28451" lon="2.50644">
        <ele>775.87</ele>
        <time>2021-07-31T08:27:21Z</time>
      </trkpt>
      <trkpt lat="42.28526" lon="2.50612">
        <ele>776.9</ele>
        <time>2021-07-31T08:27:27Z</time>
      </trkpt>
      <trkpt lat="42.28571" lon="2.50537">
        <ele>777.92</ele>
        <time>2021-07-31T08:27:33Z</time>
      </trkpt>
      <trkpt lat="42.28572" lon="2.5052">
        <ele>778.04</ele>
        <time>2021-07-31T08:27:34Z</time>
      </trkpt>
      <trkpt lat="42.28576" lon="2.50353">
        <ele>779.57</ele>
        <time>2021-07-31T08:27:42Z</time>
      </trkpt>
      <trkpt lat="42.28531" lon="2.50213">
        <ele>780.62</ele>
        <time>2021-07-31T08:27:49Z</time>
      </trkpt>
      <trkpt lat="42.28492" lon="2.50155">
        <ele>780.67</ele>
        <time>2021-07-31T08:27:53Z</time>
      </trkpt>
      <trkpt lat="42.285" lon="2.50095">
        <ele>780.39</ele>
        <time>2021-07-31T08:27:58Z</time>
      </trkpt>
      <trkpt lat="42.28508" lon="2.50084">
        <ele>780.34</ele>
        <time>2021-07-31T08:27:59Z</time>
      </trkpt>
      <trkpt lat="42.28547" lon="2.50022">
        <ele>780.24</ele>
        <time>2021-07-31T08:28:04Z</time>
      </trkpt>
      <trkpt lat="42.28563" lon="2.49931">
        <ele>780.3</ele>
        <time>2021-07-31T08:28:10Z</time>
      </trkpt>
      <trkpt lat="42.28594" lon="2.49873">
        <ele>780.43</ele>
        <time>2021-07-31T08:28:14Z</time>
      </trkpt>
      <trkpt lat="42.28729" lon="2.49741">
        <ele>782.66</ele>
        <time>2021-07-31T08:28:24Z</time>
      </trkpt>
      <trkpt lat="42.28782" lon="2.49696">
        <ele>783.54</ele>
        <time>2021-07-31T08:28:28Z</time>
      </trkpt>
      <trkpt lat="42.2879" lon="2.49633">
        <ele>784.07</ele>
        <time>2021-07-31T08:28:33Z</time>
      </trkpt>
      <trkpt lat="42.28729" lon="2.49594">
        <ele>784.95</ele>
        <time>2021-07-31T08:28:38Z</time>
      </trkpt>
      <trkpt lat="42.28714" lon="2.49592">
        <ele>785.14</ele>
        <time>2021-07-31T08:28:39Z</time>
      </trkpt>
      <trkpt lat="42.28659" lon="2.49585">
        <ele>786.18</ele>
        <time>2021-07-31T08:28:43Z</time>
      </trkpt>
      <trkpt lat="42.28627" lon="2.49547">
        <ele>786.74</ele>
        <time>2021-07-31T08:28:48Z</time>
      </trkpt>
      <trkpt lat="42.28645" lon="2.49489">
        <ele>787.35</ele>
        <time>2021-07-31T08:28:53Z</time>
      </trkpt>
      <trkpt lat="42.28638" lon="2.49453">
        <ele>787.89</ele>
        <time>2021-07-31T08:28:56Z</time>
      </trkpt>
      <trkpt lat="42.28613" lon="2.49395">
        <ele>788.77</ele>
        <time>2021-07-31T08:29:01Z</time>
      </trkpt>
      <trkpt lat="42.28622" lon="2.49314">
        <ele>790.38</ele>
        <time>2021-07-31T08:29:08Z</time>
      </trkpt>
      <trkpt lat="42.28656" lon="2.4927">
        <ele>791.06</ele>
        <time>2021-07-31T08:29:12Z</time>
      </trkpt>
      <trkpt lat="42.28706" lon="2.49231">
        <ele>791.37</ele>
        <time>2021-07-31T08:29:16Z</time>
      </trkpt>
      <trkpt lat="42.28765" lon="2.49245">
        <ele>790.64</ele>
        <time>2021-07-31T08:29:22Z</time>
      </trkpt>
      <trkpt lat="42.2876" lon="2.4931">
        <ele>789.6</ele>
        <time>2021-07-31T08:29:26Z</time>
      </trkpt>
      <trkpt lat="42.28784" lon="2.49352">
        <ele>788.89</ele>
        <time>2021-07-31T08:29:30Z</time>
      </trkpt>
      <trkpt lat="42.28837" lon="2.49328">
        <ele>787.45</ele>
        <time>2021-07-31T08:29:35Z</time>
      </trkpt>
      <trkpt lat="42.28869" lon="2.49284">
        <ele>786.57</ele>
        <time>2021-07-31T08:29:38Z</time>
      </trkpt>
      <trkpt lat="42.28917" lon="2.49177">
        <ele>784.7</ele>
        <time>2021-07-31T08:29:44Z</time>
      </trkpt>
      <trkpt lat="42.29002" lon="2.49051">
        <ele>782.12</ele>
        <time>2021-07-31T08:29:52Z</time>
      </trkpt>
      <trkpt lat="42.29034" lon="2.4899">
        <ele>781.41</ele>
        <time>2021-07-31T08:29:56Z</time>
      </trkpt>
      <trkpt lat="42.29073" lon="2.48824">
        <ele>780.02</ele>
        <time>2021-07-31T08:30:04Z</time>
      </trkpt>
      <trkpt lat="42.29083" lon="2.48768">
        <ele>779.18</ele>
        <time>2021-07-31T08:30:07Z</time>
      </trkpt>
      <trkpt lat="42.29055" lon="2.48683">
        <ele>776.26</ele>
        <time>2021-07-31T08:30:13Z</time>
      </trkpt>
      <trkpt lat="42.29042" lon="2.4868">
        <ele>775.52</ele>
        <time>2021-07-31T08:30:14Z</time>
      </trkpt>
      <trkpt lat="42.29007" lon="2.48628">
        <ele>770.42</ele>
        <time>2021-07-31T08:30:20Z</time>
      </trkpt>
      <trkpt lat="42.29016" lon="2.48601">
        <ele>768.94</ele>
        <time>2021-07-31T08:30:22Z</time>
      </trkpt>
      <trkpt lat="42.29028" lon="2.48574">
        <ele>767.75</ele>
        <time>2021-07-31T08:30:24Z</time>
      </trkpt>
      <trkpt lat="42.29074" lon="2.48504">
        <ele>764.68</ele>
        <time>2021-07-31T08:30:31Z</time>
      </trkpt>
      <trkpt lat="42.29067" lon="2.48466">
        <ele>762.93</ele>
        <time>2021-07-31T08:30:36Z</time>
      </trkpt>
      <trkpt lat="42.29052" lon="2.48446">
        <ele>762.16</ele>
        <time>2021-07-31T08:30:38Z</time>
      </trkpt>
      <trkpt lat="42.29028" lon="2.48383">
        <ele>760.46</ele>
        <time>2021-07-31T08:30:42Z</time>
      </trkpt>
      <trkpt lat="42.28996" lon="2.48265">
        <ele>756.79</ele>
        <time>2021-07-31T08:30:48Z</time>
      </trkpt>
      <trkpt lat="42.2898" lon="2.48211">
        <ele>753.28</ele>
        <time>2021-07-31T08:30:51Z</time>
      </trkpt>
      <trkpt lat="42.28946" lon="2.48173">
        <ele>749.21</ele>
        <time>2021-07-31T08:30:55Z</time>
      </trkpt>
      <trkpt lat="42.28909" lon="2.48177">
        <ele>746.51</ele>
        <time>2021-07-31T08:30:58Z</time>
      </trkpt>
      <trkpt lat="42.28849" lon="2.48148">
        <ele>741.25</ele>
        <time>2021-07-31T08:31:04Z</time>
      </trkpt>
      <trkpt lat="42.28835" lon="2.48068">
        <ele>738.48</ele>
        <time>2021-07-31T08:31:10Z</time>
      </trkpt>
      <trkpt lat="42.28853" lon="2.48027">
        <ele>738.27</ele>
        <time>2021-07-31T08:31:13Z</time>
      </trkpt>
      <trkpt lat="42.28867" lon="2.47999">
        <ele>738.46</ele>
        <time>2021-07-31T08:31:15Z</time>
      </trkpt>
      <trkpt lat="42.28926" lon="2.47922">
        <ele>740.93</ele>
        <time>2021-07-31T08:31:23Z</time>
      </trkpt>
      <trkpt lat="42.28926" lon="2.47906">
        <ele>741.39</ele>
        <time>2021-07-31T08:31:24Z</time>
      </trkpt>
      <trkpt lat="42.28923" lon="2.47794">
        <ele>745.37</ele>
        <time>2021-07-31T08:31:31Z</time>
      </trkpt>
      <trkpt lat="42.28923" lon="2.47756">
        <ele>746.92</ele>
        <time>2021-07-31T08:31:34Z</time>
      </trkpt>
      <trkpt lat="42.28962" lon="2.47683">
        <ele>749.86</ele>
        <time>2021-07-31T08:31:42Z</time>
      </trkpt>
      <trkpt lat="42.28942" lon="2.47649">
        <ele>751.12</ele>
        <time>2021-07-31T08:31:47Z</time>
      </trkpt>
      <trkpt lat="42.28931" lon="2.47649">
        <ele>751.33</ele>
        <time>2021-07-31T08:31:48Z</time>
      </trkpt>
      <trkpt lat="42.2887" lon="2.47631">
        <ele>751.29</ele>
        <time>2021-07-31T08:31:53Z</time>
      </trkpt>
      <trkpt lat="42.28783" lon="2.47625">
        <ele>747.63</ele>
        <time>2021-07-31T08:32:00Z</time>
      </trkpt>
      <trkpt lat="42.28745" lon="2.4759">
        <ele>743.97</ele>
        <time>2021-07-31T08:32:04Z</time>
      </trkpt>
      <trkpt lat="42.28721" lon="2.47572">
        <ele>742.38</ele>
        <time>2021-07-31T08:32:06Z</time>
      </trkpt>
      <trkpt lat="42.28672" lon="2.47536">
        <ele>737.57</ele>
        <time>2021-07-31T08:32:11Z</time>
      </trkpt>
      <trkpt lat="42.28698" lon="2.47482">
        <ele>732.69</ele>
        <time>2021-07-31T08:32:16Z</time>
      </trkpt>
      <trkpt lat="42.28721" lon="2.47477">
        <ele>731.08</ele>
        <time>2021-07-31T08:32:18Z</time>
      </trkpt>
      <trkpt lat="42.28744" lon="2.47477">
        <ele>729.79</ele>
        <time>2021-07-31T08:32:20Z</time>
      </trkpt>
      <trkpt lat="42.2879" lon="2.47456">
        <ele>727.58</ele>
        <time>2021-07-31T08:32:24Z</time>
      </trkpt>
      <trkpt lat="42.28835" lon="2.47417">
        <ele>725.22</ele>
        <time>2021-07-31T08:32:28Z</time>
      </trkpt>
      <trkpt lat="42.28845" lon="2.47393">
        <ele>722.36</ele>
        <time>2021-07-31T08:32:33Z</time>
      </trkpt>
      <trkpt lat="42.28849" lon="2.47355">
        <ele>720.3</ele>
        <time>2021-07-31T08:32:46Z</time>
      </trkpt>
      <trkpt lat="42.28866" lon="2.47321">
        <ele>723.66</ele>
        <time>2021-07-31T08:32:56Z</time>
      </trkpt>
      <trkpt lat="42.28869" lon="2.47293">
        <ele>726.87</ele>
        <time>2021-07-31T08:33:03Z</time>
      </trkpt>
      <trkpt lat="42.28869" lon="2.47267">
        <ele>730.17</ele>
        <time>2021-07-31T08:33:11Z</time>
      </trkpt>
      <trkpt lat="42.28867" lon="2.47248">
        <ele>733.18</ele>
        <time>2021-07-31T08:33:19Z</time>
      </trkpt>
      <trkpt lat="42.28858" lon="2.47217">
        <ele>736.34</ele>
        <time>2021-07-31T08:33:29Z</time>
      </trkpt>
      <trkpt lat="42.2886" lon="2.47189">
        <ele>739.68</ele>
        <time>2021-07-31T08:33:38Z</time>
      </trkpt>
      <trkpt lat="42.28854" lon="2.47171">
        <ele>742.77</ele>
        <time>2021-07-31T08:33:46Z</time>
      </trkpt>
      <trkpt lat="42.28843" lon="2.47163">
        <ele>744.49</ele>
        <time>2021-07-31T08:33:51Z</time>
      </trkpt>
      <trkpt lat="42.2884" lon="2.47175">
        <ele>746.71</ele>
        <time>2021-07-31T08:33:58Z</time>
      </trkpt>
      <trkpt lat="42.28839" lon="2.47203">
        <ele>749.73</ele>
        <time>2021-07-31T08:34:09Z</time>
      </trkpt>
      <trkpt lat="42.28835" lon="2.47214">
        <ele>751.26</ele>
        <time>2021-07-31T08:34:13Z</time>
      </trkpt>
      <trkpt lat="42.28824" lon="2.47207">
        <ele>753.41</ele>
        <time>2021-07-31T08:34:19Z</time>
      </trkpt>
      <trkpt lat="42.28807" lon="2.47186">
        <ele>756.78</ele>
        <time>2021-07-31T08:34:28Z</time>
      </trkpt>
      <trkpt lat="42.28792" lon="2.47183">
        <ele>758.94</ele>
        <time>2021-07-31T08:34:33Z</time>
      </trkpt>
      <trkpt lat="42.28767" lon="2.47169">
        <ele>762.84</ele>
        <time>2021-07-31T08:34:42Z</time>
      </trkpt>
      <trkpt lat="42.28748" lon="2.47156">
        <ele>766.03</ele>
        <time>2021-07-31T08:34:48Z</time>
      </trkpt>
      <trkpt lat="42.2873" lon="2.4714">
        <ele>769.25</ele>
        <time>2021-07-31T08:34:54Z</time>
      </trkpt>
      <trkpt lat="42.28707" lon="2.47119">
        <ele>772.71</ele>
        <time>2021-07-31T08:35:00Z</time>
      </trkpt>
      <trkpt lat="42.28691" lon="2.47112">
        <ele>775.85</ele>
        <time>2021-07-31T08:35:05Z</time>
      </trkpt>
      <trkpt lat="42.28674" lon="2.47111">
        <ele>779.12</ele>
        <time>2021-07-31T08:35:11Z</time>
      </trkpt>
      <trkpt lat="42.28658" lon="2.47115">
        <ele>782.38</ele>
        <time>2021-07-31T08:35:18Z</time>
      </trkpt>
      <trkpt lat="42.28653" lon="2.47115">
        <ele>783.17</ele>
        <time>2021-07-31T08:35:20Z</time>
      </trkpt>
      <trkpt lat="42.28646" lon="2.47105">
        <ele>784.35</ele>
        <time>2021-07-31T08:35:24Z</time>
      </trkpt>
      <trkpt lat="42.28633" lon="2.47063">
        <ele>787.58</ele>
        <time>2021-07-31T08:35:36Z</time>
      </trkpt>
      <trkpt lat="42.28616" lon="2.47025">
        <ele>790.6</ele>
        <time>2021-07-31T08:35:46Z</time>
      </trkpt>
      <trkpt lat="42.28599" lon="2.46979">
        <ele>793.65</ele>
        <time>2021-07-31T08:35:57Z</time>
      </trkpt>
      <trkpt lat="42.28589" lon="2.46923">
        <ele>796.79</ele>
        <time>2021-07-31T08:36:07Z</time>
      </trkpt>
      <trkpt lat="42.28596" lon="2.46886">
        <ele>799.63</ele>
        <time>2021-07-31T08:36:18Z</time>
      </trkpt>
      <trkpt lat="42.28605" lon="2.46858">
        <ele>802.34</ele>
        <time>2021-07-31T08:36:31Z</time>
      </trkpt>
      <trkpt lat="42.2862" lon="2.46828">
        <ele>805.47</ele>
        <time>2021-07-31T08:36:42Z</time>
      </trkpt>
      <trkpt lat="42.28622" lon="2.46819">
        <ele>808.49</ele>
        <time>2021-07-31T08:36:56Z</time>
      </trkpt>
      <trkpt lat="42.28624" lon="2.46793">
        <ele>811.22</ele>
        <time>2021-07-31T08:37:20Z</time>
      </trkpt>
      <trkpt lat="42.28626" lon="2.46771">
        <ele>814.28</ele>
        <time>2021-07-31T08:37:32Z</time>
      </trkpt>
      <trkpt lat="42.28624" lon="2.46748">
        <ele>817.34</ele>
        <time>2021-07-31T08:37:45Z</time>
      </trkpt>
      <trkpt lat="42.28623" lon="2.46725">
        <ele>820.44</ele>
        <time>2021-07-31T08:37:59Z</time>
      </trkpt>
      <trkpt lat="42.28614" lon="2.467">
        <ele>823.56</ele>
        <time>2021-07-31T08:38:13Z</time>
      </trkpt>
      <trkpt lat="42.28596" lon="2.46679">
        <ele>826.72</ele>
        <time>2021-07-31T08:38:27Z</time>
      </trkpt>
      <trkpt lat="42.28575" lon="2.46652">
        <ele>829.97</ele>
        <time>2021-07-31T08:38:37Z</time>
      </trkpt>
      <trkpt lat="42.28555" lon="2.46623">
        <ele>833.19</ele>
        <time>2021-07-31T08:38:46Z</time>
      </trkpt>
      <trkpt lat="42.28543" lon="2.46596">
        <ele>835.58</ele>
        <time>2021-07-31T08:38:51Z</time>
      </trkpt>
      <trkpt lat="42.28534" lon="2.46561">
        <ele>839.11</ele>
        <time>2021-07-31T08:38:57Z</time>
      </trkpt>
      <trkpt lat="42.28527" lon="2.46528">
        <ele>843.06</ele>
        <time>2021-07-31T08:39:03Z</time>
      </trkpt>
      <trkpt lat="42.28523" lon="2.46502">
        <ele>846.35</ele>
        <time>2021-07-31T08:39:08Z</time>
      </trkpt>
      <trkpt lat="42.28534" lon="2.46474">
        <ele>849.84</ele>
        <time>2021-07-31T08:39:14Z</time>
      </trkpt>
      <trkpt lat="42.28548" lon="2.46443">
        <ele>853</ele>
        <time>2021-07-31T08:39:20Z</time>
      </trkpt>
      <trkpt lat="42.28556" lon="2.46414">
        <ele>856.3</ele>
        <time>2021-07-31T08:39:27Z</time>
      </trkpt>
      <trkpt lat="42.28561" lon="2.46381">
        <ele>859.37</ele>
        <time>2021-07-31T08:39:36Z</time>
      </trkpt>
      <trkpt lat="42.28563" lon="2.46339">
        <ele>862.51</ele>
        <time>2021-07-31T08:39:47Z</time>
      </trkpt>
      <trkpt lat="42.28566" lon="2.463">
        <ele>865.61</ele>
        <time>2021-07-31T08:39:56Z</time>
      </trkpt>
      <trkpt lat="42.28571" lon="2.46267">
        <ele>868.79</ele>
        <time>2021-07-31T08:40:04Z</time>
      </trkpt>
      <trkpt lat="42.28575" lon="2.46242">
        <ele>871.8</ele>
        <time>2021-07-31T08:40:11Z</time>
      </trkpt>
      <trkpt lat="42.2858" lon="2.46214">
        <ele>875.01</ele>
        <time>2021-07-31T08:40:18Z</time>
      </trkpt>
      <trkpt lat="42.28589" lon="2.4618">
        <ele>878.27</ele>
        <time>2021-07-31T08:40:26Z</time>
      </trkpt>
      <trkpt lat="42.28597" lon="2.4617">
        <ele>879.54</ele>
        <time>2021-07-31T08:40:29Z</time>
      </trkpt>
      <trkpt lat="42.28615" lon="2.46178">
        <ele>881.68</ele>
        <time>2021-07-31T08:40:34Z</time>
      </trkpt>
      <trkpt lat="42.28639" lon="2.46187">
        <ele>885</ele>
        <time>2021-07-31T08:40:45Z</time>
      </trkpt>
      <trkpt lat="42.28655" lon="2.46196">
        <ele>888.07</ele>
        <time>2021-07-31T08:41:03Z</time>
      </trkpt>
      <trkpt lat="42.28679" lon="2.46219">
        <ele>891.06</ele>
        <time>2021-07-31T08:41:20Z</time>
      </trkpt>
      <trkpt lat="42.2869" lon="2.46229">
        <ele>893.78</ele>
        <time>2021-07-31T08:41:35Z</time>
      </trkpt>
      <trkpt lat="42.28704" lon="2.46239">
        <ele>895.44</ele>
        <time>2021-07-31T08:41:57Z</time>
      </trkpt>
      <trkpt lat="42.28719" lon="2.46251">
        <ele>897.89</ele>
        <time>2021-07-31T08:42:10Z</time>
      </trkpt>
      <trkpt lat="42.28739" lon="2.46245">
        <ele>900.85</ele>
        <time>2021-07-31T08:42:27Z</time>
      </trkpt>
      <trkpt lat="42.28753" lon="2.46216">
        <ele>903.33</ele>
        <time>2021-07-31T08:42:41Z</time>
      </trkpt>
      <trkpt lat="42.28765" lon="2.4619">
        <ele>906.36</ele>
        <time>2021-07-31T08:42:54Z</time>
      </trkpt>
      <trkpt lat="42.28766" lon="2.46157">
        <ele>909.47</ele>
        <time>2021-07-31T08:43:09Z</time>
      </trkpt>
      <trkpt lat="42.28766" lon="2.46132">
        <ele>912</ele>
        <time>2021-07-31T08:43:23Z</time>
      </trkpt>
      <trkpt lat="42.28757" lon="2.46097">
        <ele>914.66</ele>
        <time>2021-07-31T08:43:40Z</time>
      </trkpt>
      <trkpt lat="42.28746" lon="2.4606">
        <ele>917.57</ele>
        <time>2021-07-31T08:43:54Z</time>
      </trkpt>
      <trkpt lat="42.28752" lon="2.46024">
        <ele>920.58</ele>
        <time>2021-07-31T08:44:07Z</time>
      </trkpt>
      <trkpt lat="42.2876" lon="2.45984">
        <ele>923.34</ele>
        <time>2021-07-31T08:44:20Z</time>
      </trkpt>
      <trkpt lat="42.28752" lon="2.45956">
        <ele>923.46</ele>
        <time>2021-07-31T08:44:36Z</time>
      </trkpt>
      <trkpt lat="42.28741" lon="2.45937">
        <ele>922.19</ele>
        <time>2021-07-31T08:44:49Z</time>
      </trkpt>
      <trkpt lat="42.2872" lon="2.45905">
        <ele>920.78</ele>
        <time>2021-07-31T08:45:04Z</time>
      </trkpt>
      <trkpt lat="42.28693" lon="2.4586">
        <ele>920.25</ele>
        <time>2021-07-31T08:45:17Z</time>
      </trkpt>
      <trkpt lat="42.28669" lon="2.45812">
        <ele>919.96</ele>
        <time>2021-07-31T08:45:29Z</time>
      </trkpt>
      <trkpt lat="42.28662" lon="2.45779">
        <ele>920.15</ele>
        <time>2021-07-31T08:45:39Z</time>
      </trkpt>
      <trkpt lat="42.28652" lon="2.45753">
        <ele>920.79</ele>
        <time>2021-07-31T08:45:50Z</time>
      </trkpt>
      <trkpt lat="42.28652" lon="2.45753">
        <ele>920.93</ele>
        <time>2021-07-31T08:46:11Z</time>
      </trkpt>
      <trkpt lat="42.28645" lon="2.45733">
        <ele>921.18</ele>
        <time>2021-07-31T08:46:54Z</time>
      </trkpt>
      <trkpt lat="42.28643" lon="2.45731">
        <ele>921.23</ele>
        <time>2021-07-31T08:47:12Z</time>
      </trkpt>
      <trkpt lat="42.28634" lon="2.45701">
        <ele>921.5</ele>
        <time>2021-07-31T08:47:30Z</time>
      </trkpt>
      <trkpt lat="42.28621" lon="2.45658">
        <ele>923.32</ele>
        <time>2021-07-31T08:47:45Z</time>
      </trkpt>
      <trkpt lat="42.28605" lon="2.45612">
        <ele>926.17</ele>
        <time>2021-07-31T08:47:59Z</time>
      </trkpt>
      <trkpt lat="42.28592" lon="2.4557">
        <ele>929.11</ele>
        <time>2021-07-31T08:48:11Z</time>
      </trkpt>
      <trkpt lat="42.28578" lon="2.45517">
        <ele>932.36</ele>
        <time>2021-07-31T08:48:23Z</time>
      </trkpt>
      <trkpt lat="42.28574" lon="2.45471">
        <ele>935.47</ele>
        <time>2021-07-31T08:48:32Z</time>
      </trkpt>
      <trkpt lat="42.28579" lon="2.45435">
        <ele>938.66</ele>
        <time>2021-07-31T08:48:40Z</time>
      </trkpt>
      <trkpt lat="42.28593" lon="2.45402">
        <ele>941.9</ele>
        <time>2021-07-31T08:48:49Z</time>
      </trkpt>
      <trkpt lat="42.28618" lon="2.45373">
        <ele>945.18</ele>
        <time>2021-07-31T08:48:58Z</time>
      </trkpt>
      <trkpt lat="42.28648" lon="2.45309">
        <ele>948.07</ele>
        <time>2021-07-31T08:49:08Z</time>
      </trkpt>
      <trkpt lat="42.28657" lon="2.45289">
        <ele>947.78</ele>
        <time>2021-07-31T08:49:16Z</time>
      </trkpt>
      <trkpt lat="42.28667" lon="2.45281">
        <ele>947.23</ele>
        <time>2021-07-31T08:50:10Z</time>
      </trkpt>
      <trkpt lat="42.28668" lon="2.45281">
        <ele>947.19</ele>
        <time>2021-07-31T08:50:11Z</time>
      </trkpt>
      <trkpt lat="42.28673" lon="2.45283">
        <ele>947.1</ele>
        <time>2021-07-31T08:50:16Z</time>
      </trkpt>
      <trkpt lat="42.28676" lon="2.45286">
        <ele>947.31</ele>
        <time>2021-07-31T08:50:23Z</time>
      </trkpt>
      <trkpt lat="42.28679" lon="2.45298">
        <ele>947.44</ele>
        <time>2021-07-31T08:50:27Z</time>
      </trkpt>
      <trkpt lat="42.28692" lon="2.45332">
        <ele>948.81</ele>
        <time>2021-07-31T08:50:38Z</time>
      </trkpt>
      <trkpt lat="42.28698" lon="2.45327">
        <ele>950.29</ele>
        <time>2021-07-31T08:50:58Z</time>
      </trkpt>
      <trkpt lat="42.28692" lon="2.45276">
        <ele>953.6</ele>
        <time>2021-07-31T08:51:13Z</time>
      </trkpt>
      <trkpt lat="42.2868" lon="2.45234">
        <ele>956.64</ele>
        <time>2021-07-31T08:51:24Z</time>
      </trkpt>
      <trkpt lat="42.28691" lon="2.45236">
        <ele>958.9</ele>
        <time>2021-07-31T08:51:32Z</time>
      </trkpt>
      <trkpt lat="42.28709" lon="2.45287">
        <ele>962.3</ele>
        <time>2021-07-31T08:51:46Z</time>
      </trkpt>
      <trkpt lat="42.28722" lon="2.45337">
        <ele>965.4</ele>
        <time>2021-07-31T08:51:58Z</time>
      </trkpt>
      <trkpt lat="42.28726" lon="2.45374">
        <ele>968.47</ele>
        <time>2021-07-31T08:52:11Z</time>
      </trkpt>
      <trkpt lat="42.28732" lon="2.45397">
        <ele>970.23</ele>
        <time>2021-07-31T08:52:26Z</time>
      </trkpt>
      <trkpt lat="42.28733" lon="2.45407">
        <ele>971.2</ele>
        <time>2021-07-31T08:52:40Z</time>
      </trkpt>
      <trkpt lat="42.28732" lon="2.45413">
        <ele>971.4</ele>
        <time>2021-07-31T08:52:44Z</time>
      </trkpt>
      <trkpt lat="42.28736" lon="2.45416">
        <ele>971.65</ele>
        <time>2021-07-31T08:52:47Z</time>
      </trkpt>
      <trkpt lat="42.28747" lon="2.4544">
        <ele>973.74</ele>
        <time>2021-07-31T08:53:02Z</time>
      </trkpt>
      <trkpt lat="42.28771" lon="2.45458">
        <ele>975.53</ele>
        <time>2021-07-31T08:53:14Z</time>
      </trkpt>
      <trkpt lat="42.28793" lon="2.45497">
        <ele>977.79</ele>
        <time>2021-07-31T08:53:26Z</time>
      </trkpt>
      <trkpt lat="42.28825" lon="2.45517">
        <ele>979.08</ele>
        <time>2021-07-31T08:53:38Z</time>
      </trkpt>
      <trkpt lat="42.28845" lon="2.45533">
        <ele>979.55</ele>
        <time>2021-07-31T08:53:48Z</time>
      </trkpt>
      <trkpt lat="42.2887" lon="2.45542">
        <ele>980.14</ele>
        <time>2021-07-31T08:53:53Z</time>
      </trkpt>
      <trkpt lat="42.2892" lon="2.45536">
        <ele>981.55</ele>
        <time>2021-07-31T08:54:08Z</time>
      </trkpt>
      <trkpt lat="42.28961" lon="2.45519">
        <ele>983.54</ele>
        <time>2021-07-31T08:54:22Z</time>
      </trkpt>
      <trkpt lat="42.28987" lon="2.45491">
        <ele>985.67</ele>
        <time>2021-07-31T08:54:33Z</time>
      </trkpt>
      <trkpt lat="42.29021" lon="2.45459">
        <ele>988.75</ele>
        <time>2021-07-31T08:54:48Z</time>
      </trkpt>
      <trkpt lat="42.29051" lon="2.45426">
        <ele>991.33</ele>
        <time>2021-07-31T08:55:00Z</time>
      </trkpt>
      <trkpt lat="42.29086" lon="2.45392">
        <ele>994.45</ele>
        <time>2021-07-31T08:55:12Z</time>
      </trkpt>
      <trkpt lat="42.29122" lon="2.4537">
        <ele>996.35</ele>
        <time>2021-07-31T08:55:20Z</time>
      </trkpt>
      <trkpt lat="42.29166" lon="2.45325">
        <ele>999.62</ele>
        <time>2021-07-31T08:55:30Z</time>
      </trkpt>
      <trkpt lat="42.29189" lon="2.45282">
        <ele>1002.43</ele>
        <time>2021-07-31T08:55:42Z</time>
      </trkpt>
      <trkpt lat="42.29216" lon="2.45245">
        <ele>1005.02</ele>
        <time>2021-07-31T08:55:53Z</time>
      </trkpt>
      <trkpt lat="42.29222" lon="2.45206">
        <ele>1007.5</ele>
        <time>2021-07-31T08:56:05Z</time>
      </trkpt>
      <trkpt lat="42.29251" lon="2.45179">
        <ele>1009.78</ele>
        <time>2021-07-31T08:56:16Z</time>
      </trkpt>
      <trkpt lat="42.29276" lon="2.45125">
        <ele>1012.73</ele>
        <time>2021-07-31T08:56:28Z</time>
      </trkpt>
      <trkpt lat="42.29295" lon="2.45068">
        <ele>1015.42</ele>
        <time>2021-07-31T08:56:39Z</time>
      </trkpt>
      <trkpt lat="42.29296" lon="2.44998">
        <ele>1018.73</ele>
        <time>2021-07-31T08:56:52Z</time>
      </trkpt>
      <trkpt lat="42.29275" lon="2.44945">
        <ele>1021.46</ele>
        <time>2021-07-31T08:57:04Z</time>
      </trkpt>
      <trkpt lat="42.29246" lon="2.44901">
        <ele>1024.64</ele>
        <time>2021-07-31T08:57:16Z</time>
      </trkpt>
      <trkpt lat="42.29206" lon="2.44885">
        <ele>1027.71</ele>
        <time>2021-07-31T08:57:27Z</time>
      </trkpt>
      <trkpt lat="42.29167" lon="2.44873">
        <ele>1030.72</ele>
        <time>2021-07-31T08:57:38Z</time>
      </trkpt>
      <trkpt lat="42.29109" lon="2.44872">
        <ele>1033.57</ele>
        <time>2021-07-31T08:57:51Z</time>
      </trkpt>
      <trkpt lat="42.29059" lon="2.44876">
        <ele>1036.71</ele>
        <time>2021-07-31T08:58:03Z</time>
      </trkpt>
      <trkpt lat="42.29018" lon="2.44895">
        <ele>1039.8</ele>
        <time>2021-07-31T08:58:14Z</time>
      </trkpt>
      <trkpt lat="42.2897" lon="2.4491">
        <ele>1042.99</ele>
        <time>2021-07-31T08:58:26Z</time>
      </trkpt>
      <trkpt lat="42.28916" lon="2.44917">
        <ele>1046.1</ele>
        <time>2021-07-31T08:58:37Z</time>
      </trkpt>
      <trkpt lat="42.28898" lon="2.44917">
        <ele>1046.64</ele>
        <time>2021-07-31T08:58:39Z</time>
      </trkpt>
      <trkpt lat="42.28853" lon="2.44903">
        <ele>1048.9</ele>
        <time>2021-07-31T08:58:45Z</time>
      </trkpt>
      <trkpt lat="42.2881" lon="2.44893">
        <ele>1051.16</ele>
        <time>2021-07-31T08:58:51Z</time>
      </trkpt>
      <trkpt lat="42.2877" lon="2.44899">
        <ele>1053.78</ele>
        <time>2021-07-31T08:58:58Z</time>
      </trkpt>
      <trkpt lat="42.28749" lon="2.4489">
        <ele>1055.63</ele>
        <time>2021-07-31T08:59:02Z</time>
      </trkpt>
      <trkpt lat="42.28726" lon="2.4488">
        <ele>1059.5</ele>
        <time>2021-07-31T08:59:09Z</time>
      </trkpt>
      <trkpt lat="42.28698" lon="2.44874">
        <ele>1062.76</ele>
        <time>2021-07-31T08:59:16Z</time>
      </trkpt>
      <trkpt lat="42.28676" lon="2.44873">
        <ele>1066.09</ele>
        <time>2021-07-31T08:59:23Z</time>
      </trkpt>
      <trkpt lat="42.28666" lon="2.44872">
        <ele>1069.15</ele>
        <time>2021-07-31T08:59:32Z</time>
      </trkpt>
      <trkpt lat="42.2866" lon="2.44869">
        <ele>1071.51</ele>
        <time>2021-07-31T08:59:54Z</time>
      </trkpt>
      <trkpt lat="42.28656" lon="2.44866">
        <ele>1071.81</ele>
        <time>2021-07-31T09:00:03Z</time>
      </trkpt>
      <trkpt lat="42.28632" lon="2.44836">
        <ele>1074.77</ele>
        <time>2021-07-31T09:00:19Z</time>
      </trkpt>
      <trkpt lat="42.28605" lon="2.44808">
        <ele>1077.97</ele>
        <time>2021-07-31T09:00:30Z</time>
      </trkpt>
      <trkpt lat="42.28585" lon="2.44788">
        <ele>1081.06</ele>
        <time>2021-07-31T09:00:39Z</time>
      </trkpt>
      <trkpt lat="42.28569" lon="2.44775">
        <ele>1084.08</ele>
        <time>2021-07-31T09:00:47Z</time>
      </trkpt>
      <trkpt lat="42.28565" lon="2.44768">
        <ele>1085.5</ele>
        <time>2021-07-31T09:00:50Z</time>
      </trkpt>
      <trkpt lat="42.28543" lon="2.44733">
        <ele>1088.73</ele>
        <time>2021-07-31T09:01:03Z</time>
      </trkpt>
      <trkpt lat="42.28515" lon="2.44718">
        <ele>1090.83</ele>
        <time>2021-07-31T09:01:14Z</time>
      </trkpt>
      <trkpt lat="42.28495" lon="2.44712">
        <ele>1092.39</ele>
        <time>2021-07-31T09:01:49Z</time>
      </trkpt>
      <trkpt lat="42.28457" lon="2.44696">
        <ele>1093.71</ele>
        <time>2021-07-31T09:02:02Z</time>
      </trkpt>
      <trkpt lat="42.28444" lon="2.44692">
        <ele>1095.45</ele>
        <time>2021-07-31T09:02:14Z</time>
      </trkpt>
      <trkpt lat="42.28441" lon="2.44686">
        <ele>1095.75</ele>
        <time>2021-07-31T09:02:20Z</time>
      </trkpt>
      <trkpt lat="42.28447" lon="2.44644">
        <ele>1098.03</ele>
        <time>2021-07-31T09:02:34Z</time>
      </trkpt>
      <trkpt lat="42.28441" lon="2.44592">
        <ele>1100.78</ele>
        <time>2021-07-31T09:02:47Z</time>
      </trkpt>
      <trkpt lat="42.28437" lon="2.44571">
        <ele>1101.3</ele>
        <time>2021-07-31T09:02:50Z</time>
      </trkpt>
      <trkpt lat="42.28425" lon="2.44554">
        <ele>1101.66</ele>
        <time>2021-07-31T09:02:54Z</time>
      </trkpt>
      <trkpt lat="42.28395" lon="2.44516">
        <ele>1101.14</ele>
        <time>2021-07-31T09:03:05Z</time>
      </trkpt>
      <trkpt lat="42.28376" lon="2.44475">
        <ele>1101.43</ele>
        <time>2021-07-31T09:03:18Z</time>
      </trkpt>
      <trkpt lat="42.28361" lon="2.44413">
        <ele>1103.02</ele>
        <time>2021-07-31T09:03:30Z</time>
      </trkpt>
      <trkpt lat="42.28348" lon="2.44362">
        <ele>1104.65</ele>
        <time>2021-07-31T09:03:40Z</time>
      </trkpt>
      <trkpt lat="42.28335" lon="2.44314">
        <ele>1106.32</ele>
        <time>2021-07-31T09:03:49Z</time>
      </trkpt>
      <trkpt lat="42.2834" lon="2.44264">
        <ele>1107.27</ele>
        <time>2021-07-31T09:03:58Z</time>
      </trkpt>
      <trkpt lat="42.28345" lon="2.44241">
        <ele>1107.51</ele>
        <time>2021-07-31T09:04:02Z</time>
      </trkpt>
      <trkpt lat="42.28342" lon="2.44187">
        <ele>1106.88</ele>
        <time>2021-07-31T09:04:13Z</time>
      </trkpt>
      <trkpt lat="42.28341" lon="2.44138">
        <ele>1104.62</ele>
        <time>2021-07-31T09:04:23Z</time>
      </trkpt>
      <trkpt lat="42.28343" lon="2.44086">
        <ele>1101.43</ele>
        <time>2021-07-31T09:04:35Z</time>
      </trkpt>
      <trkpt lat="42.28347" lon="2.44033">
        <ele>1098.28</ele>
        <time>2021-07-31T09:04:46Z</time>
      </trkpt>
      <trkpt lat="42.28347" lon="2.43987">
        <ele>1095.77</ele>
        <time>2021-07-31T09:04:59Z</time>
      </trkpt>
      <trkpt lat="42.28359" lon="2.4395">
        <ele>1093.65</ele>
        <time>2021-07-31T09:05:09Z</time>
      </trkpt>
      <trkpt lat="42.28377" lon="2.43881">
        <ele>1091.14</ele>
        <time>2021-07-31T09:05:21Z</time>
      </trkpt>
      <trkpt lat="42.2838" lon="2.43874">
        <ele>1090.96</ele>
        <time>2021-07-31T09:05:22Z</time>
      </trkpt>
      <trkpt lat="42.28393" lon="2.43857">
        <ele>1090.54</ele>
        <time>2021-07-31T09:05:26Z</time>
      </trkpt>
      <trkpt lat="42.2841" lon="2.43801">
        <ele>1089.11</ele>
        <time>2021-07-31T09:05:39Z</time>
      </trkpt>
      <trkpt lat="42.28412" lon="2.43795">
        <ele>1089.08</ele>
        <time>2021-07-31T09:05:40Z</time>
      </trkpt>
      <trkpt lat="42.28422" lon="2.43776">
        <ele>1089.05</ele>
        <time>2021-07-31T09:05:43Z</time>
      </trkpt>
      <trkpt lat="42.28456" lon="2.43711">
        <ele>1091.06</ele>
        <time>2021-07-31T09:05:57Z</time>
      </trkpt>
      <trkpt lat="42.28464" lon="2.43692">
        <ele>1092.08</ele>
        <time>2021-07-31T09:06:01Z</time>
      </trkpt>
      <trkpt lat="42.28472" lon="2.43639">
        <ele>1095.63</ele>
        <time>2021-07-31T09:06:11Z</time>
      </trkpt>
      <trkpt lat="42.28472" lon="2.43597">
        <ele>1098.51</ele>
        <time>2021-07-31T09:06:23Z</time>
      </trkpt>
      <trkpt lat="42.28472" lon="2.43577">
        <ele>1098.62</ele>
        <time>2021-07-31T09:06:39Z</time>
      </trkpt>
      <trkpt lat="42.28471" lon="2.43579">
        <ele>1098.59</ele>
        <time>2021-07-31T09:06:40Z</time>
      </trkpt>
      <trkpt lat="42.2847" lon="2.43582">
        <ele>1098.56</ele>
        <time>2021-07-31T09:06:55Z</time>
      </trkpt>
      <trkpt lat="42.28472" lon="2.43561">
        <ele>1098.65</ele>
        <time>2021-07-31T09:07:01Z</time>
      </trkpt>
      <trkpt lat="42.28487" lon="2.43499">
        <ele>1097.99</ele>
        <time>2021-07-31T09:07:14Z</time>
      </trkpt>
      <trkpt lat="42.28497" lon="2.43465">
        <ele>1098.23</ele>
        <time>2021-07-31T09:07:25Z</time>
      </trkpt>
      <trkpt lat="42.28512" lon="2.43445">
        <ele>1099.12</ele>
        <time>2021-07-31T09:07:36Z</time>
      </trkpt>
      <trkpt lat="42.28515" lon="2.43438">
        <ele>1100.54</ele>
        <time>2021-07-31T09:07:46Z</time>
      </trkpt>
      <trkpt lat="42.2853" lon="2.43414">
        <ele>1101.41</ele>
        <time>2021-07-31T09:09:25Z</time>
      </trkpt>
      <trkpt lat="42.28565" lon="2.43376">
        <ele>1104.53</ele>
        <time>2021-07-31T09:09:36Z</time>
      </trkpt>
      <trkpt lat="42.28589" lon="2.43349">
        <ele>1107.62</ele>
        <time>2021-07-31T09:09:44Z</time>
      </trkpt>
      <trkpt lat="42.28606" lon="2.43335">
        <ele>1109.28</ele>
        <time>2021-07-31T09:09:49Z</time>
      </trkpt>
      <trkpt lat="42.28636" lon="2.43316">
        <ele>1112.84</ele>
        <time>2021-07-31T09:09:58Z</time>
      </trkpt>
      <trkpt lat="42.28662" lon="2.43307">
        <ele>1115.26</ele>
        <time>2021-07-31T09:10:05Z</time>
      </trkpt>
      <trkpt lat="42.28693" lon="2.43314">
        <ele>1118.66</ele>
        <time>2021-07-31T09:10:13Z</time>
      </trkpt>
      <trkpt lat="42.28711" lon="2.43297">
        <ele>1121.78</ele>
        <time>2021-07-31T09:10:22Z</time>
      </trkpt>
      <trkpt lat="42.28717" lon="2.43292">
        <ele>1124.04</ele>
        <time>2021-07-31T09:10:39Z</time>
      </trkpt>
      <trkpt lat="42.28722" lon="2.43286">
        <ele>1125.07</ele>
        <time>2021-07-31T09:10:57Z</time>
      </trkpt>
      <trkpt lat="42.28738" lon="2.43272">
        <ele>1125.98</ele>
        <time>2021-07-31T09:11:18Z</time>
      </trkpt>
      <trkpt lat="42.28756" lon="2.4325">
        <ele>1126.57</ele>
        <time>2021-07-31T09:11:24Z</time>
      </trkpt>
      <trkpt lat="42.28793" lon="2.43224">
        <ele>1125.67</ele>
        <time>2021-07-31T09:11:33Z</time>
      </trkpt>
      <trkpt lat="42.28812" lon="2.43195">
        <ele>1124.82</ele>
        <time>2021-07-31T09:11:38Z</time>
      </trkpt>
      <trkpt lat="42.28837" lon="2.43178">
        <ele>1123.48</ele>
        <time>2021-07-31T09:11:43Z</time>
      </trkpt>
      <trkpt lat="42.28863" lon="2.4317">
        <ele>1121.94</ele>
        <time>2021-07-31T09:11:48Z</time>
      </trkpt>
      <trkpt lat="42.28881" lon="2.43158">
        <ele>1120.59</ele>
        <time>2021-07-31T09:11:52Z</time>
      </trkpt>
      <trkpt lat="42.28915" lon="2.43109">
        <ele>1117.85</ele>
        <time>2021-07-31T09:12:00Z</time>
      </trkpt>
      <trkpt lat="42.28931" lon="2.43084">
        <ele>1116.57</ele>
        <time>2021-07-31T09:12:04Z</time>
      </trkpt>
      <trkpt lat="42.28938" lon="2.4307">
        <ele>1116.27</ele>
        <time>2021-07-31T09:12:06Z</time>
      </trkpt>
      <trkpt lat="42.28977" lon="2.4303">
        <ele>1114.64</ele>
        <time>2021-07-31T09:12:15Z</time>
      </trkpt>
      <trkpt lat="42.29006" lon="2.43005">
        <ele>1114.84</ele>
        <time>2021-07-31T09:12:26Z</time>
      </trkpt>
      <trkpt lat="42.29004" lon="2.42983">
        <ele>1115.08</ele>
        <time>2021-07-31T09:12:29Z</time>
      </trkpt>
      <trkpt lat="42.28967" lon="2.42904">
        <ele>1115.37</ele>
        <time>2021-07-31T09:12:39Z</time>
      </trkpt>
      <trkpt lat="42.28963" lon="2.42897">
        <ele>1115.37</ele>
        <time>2021-07-31T09:12:40Z</time>
      </trkpt>
      <trkpt lat="42.28946" lon="2.42877">
        <ele>1115.35</ele>
        <time>2021-07-31T09:12:44Z</time>
      </trkpt>
      <trkpt lat="42.28936" lon="2.42869">
        <ele>1115.3</ele>
        <time>2021-07-31T09:12:46Z</time>
      </trkpt>
      <trkpt lat="42.28914" lon="2.42838">
        <ele>1115.3</ele>
        <time>2021-07-31T09:12:51Z</time>
      </trkpt>
      <trkpt lat="42.28895" lon="2.42816">
        <ele>1115.3</ele>
        <time>2021-07-31T09:12:55Z</time>
      </trkpt>
      <trkpt lat="42.28883" lon="2.42795">
        <ele>1114.92</ele>
        <time>2021-07-31T09:12:59Z</time>
      </trkpt>
      <trkpt lat="42.28871" lon="2.42782">
        <ele>1114.53</ele>
        <time>2021-07-31T09:13:03Z</time>
      </trkpt>
      <trkpt lat="42.28863" lon="2.42773">
        <ele>1114.26</ele>
        <time>2021-07-31T09:13:06Z</time>
      </trkpt>
      <trkpt lat="42.28854" lon="2.42732">
        <ele>1113.88</ele>
        <time>2021-07-31T09:13:12Z</time>
      </trkpt>
      <trkpt lat="42.28849" lon="2.42716">
        <ele>1113.85</ele>
        <time>2021-07-31T09:13:14Z</time>
      </trkpt>
      <trkpt lat="42.28823" lon="2.42692">
        <ele>1113.58</ele>
        <time>2021-07-31T09:13:20Z</time>
      </trkpt>
      <trkpt lat="42.28806" lon="2.42689">
        <ele>1113.58</ele>
        <time>2021-07-31T09:13:23Z</time>
      </trkpt>
      <trkpt lat="42.28791" lon="2.42684">
        <ele>1113.64</ele>
        <time>2021-07-31T09:13:26Z</time>
      </trkpt>
      <trkpt lat="42.28743" lon="2.42657">
        <ele>1113.76</ele>
        <time>2021-07-31T09:13:38Z</time>
      </trkpt>
      <trkpt lat="42.2874" lon="2.42654">
        <ele>1113.73</ele>
        <time>2021-07-31T09:13:39Z</time>
      </trkpt>
      <trkpt lat="42.2874" lon="2.42625">
        <ele>1113.59</ele>
        <time>2021-07-31T09:13:44Z</time>
      </trkpt>
      <trkpt lat="42.2874" lon="2.42598">
        <ele>1113.6</ele>
        <time>2021-07-31T09:13:48Z</time>
      </trkpt>
      <trkpt lat="42.28737" lon="2.42544">
        <ele>1113.57</ele>
        <time>2021-07-31T09:14:00Z</time>
      </trkpt>
      <trkpt lat="42.2873" lon="2.42513">
        <ele>1113.52</ele>
        <time>2021-07-31T09:14:12Z</time>
      </trkpt>
      <trkpt lat="42.28738" lon="2.42465">
        <ele>1113.55</ele>
        <time>2021-07-31T09:14:25Z</time>
      </trkpt>
      <trkpt lat="42.28746" lon="2.42426">
        <ele>1113.77</ele>
        <time>2021-07-31T09:14:36Z</time>
      </trkpt>
      <trkpt lat="42.28751" lon="2.42374">
        <ele>1113.87</ele>
        <time>2021-07-31T09:14:47Z</time>
      </trkpt>
      <trkpt lat="42.28767" lon="2.42297">
        <ele>1114.11</ele>
        <time>2021-07-31T09:14:59Z</time>
      </trkpt>
      <trkpt lat="42.28767" lon="2.42291">
        <ele>1114.11</ele>
        <time>2021-07-31T09:15:00Z</time>
      </trkpt>
      <trkpt lat="42.28752" lon="2.42181">
        <ele>1114.11</ele>
        <time>2021-07-31T09:15:16Z</time>
      </trkpt>
      <trkpt lat="42.28738" lon="2.42133">
        <ele>1113.78</ele>
        <time>2021-07-31T09:15:28Z</time>
      </trkpt>
      <trkpt lat="42.28734" lon="2.42106">
        <ele>1113.87</ele>
        <time>2021-07-31T09:15:35Z</time>
      </trkpt>
      <trkpt lat="42.28712" lon="2.42062">
        <ele>1114.07</ele>
        <time>2021-07-31T09:15:45Z</time>
      </trkpt>
      <trkpt lat="42.28706" lon="2.41978">
        <ele>1114</ele>
        <time>2021-07-31T09:15:58Z</time>
      </trkpt>
      <trkpt lat="42.28706" lon="2.41931">
        <ele>1114.26</ele>
        <time>2021-07-31T09:16:06Z</time>
      </trkpt>
      <trkpt lat="42.28696" lon="2.41887">
        <ele>1115.29</ele>
        <time>2021-07-31T09:16:16Z</time>
      </trkpt>
      <trkpt lat="42.2866" lon="2.4184">
        <ele>1114.76</ele>
        <time>2021-07-31T09:16:27Z</time>
      </trkpt>
      <trkpt lat="42.28632" lon="2.41807">
        <ele>1113.84</ele>
        <time>2021-07-31T09:16:38Z</time>
      </trkpt>
      <trkpt lat="42.28605" lon="2.41787">
        <ele>1113.11</ele>
        <time>2021-07-31T09:17:03Z</time>
      </trkpt>
      <trkpt lat="42.28563" lon="2.41782">
        <ele>1111.44</ele>
        <time>2021-07-31T09:17:15Z</time>
      </trkpt>
      <trkpt lat="42.2852" lon="2.41781">
        <ele>1108.17</ele>
        <time>2021-07-31T09:17:28Z</time>
      </trkpt>
      <trkpt lat="42.28481" lon="2.4177">
        <ele>1105.21</ele>
        <time>2021-07-31T09:17:38Z</time>
      </trkpt>
      <trkpt lat="42.28449" lon="2.41763">
        <ele>1101.88</ele>
        <time>2021-07-31T09:17:46Z</time>
      </trkpt>
      <trkpt lat="42.28426" lon="2.41748">
        <ele>1099.05</ele>
        <time>2021-07-31T09:17:52Z</time>
      </trkpt>
      <trkpt lat="42.28419" lon="2.4174">
        <ele>1098.1</ele>
        <time>2021-07-31T09:17:54Z</time>
      </trkpt>
      <trkpt lat="42.28403" lon="2.41688">
        <ele>1094.38</ele>
        <time>2021-07-31T09:18:01Z</time>
      </trkpt>
      <trkpt lat="42.28403" lon="2.41674">
        <ele>1093.34</ele>
        <time>2021-07-31T09:18:03Z</time>
      </trkpt>
      <trkpt lat="42.2841" lon="2.41635">
        <ele>1090.82</ele>
        <time>2021-07-31T09:18:09Z</time>
      </trkpt>
      <trkpt lat="42.28408" lon="2.41605">
        <ele>1089.31</ele>
        <time>2021-07-31T09:18:13Z</time>
      </trkpt>
      <trkpt lat="42.28402" lon="2.41585">
        <ele>1088.49</ele>
        <time>2021-07-31T09:18:16Z</time>
      </trkpt>
      <trkpt lat="42.28388" lon="2.41515">
        <ele>1085.32</ele>
        <time>2021-07-31T09:18:27Z</time>
      </trkpt>
      <trkpt lat="42.28381" lon="2.41496">
        <ele>1083.97</ele>
        <time>2021-07-31T09:18:30Z</time>
      </trkpt>
      <trkpt lat="42.2837" lon="2.41444">
        <ele>1080.22</ele>
        <time>2021-07-31T09:18:37Z</time>
      </trkpt>
      <trkpt lat="42.28366" lon="2.41429">
        <ele>1079.15</ele>
        <time>2021-07-31T09:18:39Z</time>
      </trkpt>
      <trkpt lat="42.28373" lon="2.41397">
        <ele>1076.09</ele>
        <time>2021-07-31T09:18:45Z</time>
      </trkpt>
      <trkpt lat="42.28388" lon="2.41378">
        <ele>1074.27</ele>
        <time>2021-07-31T09:18:49Z</time>
      </trkpt>
      <trkpt lat="42.28424" lon="2.41354">
        <ele>1072.65</ele>
        <time>2021-07-31T09:18:55Z</time>
      </trkpt>
      <trkpt lat="42.28435" lon="2.41333">
        <ele>1072.04</ele>
        <time>2021-07-31T09:18:59Z</time>
      </trkpt>
      <trkpt lat="42.28437" lon="2.41239">
        <ele>1069.94</ele>
        <time>2021-07-31T09:19:12Z</time>
      </trkpt>
      <trkpt lat="42.28433" lon="2.41163">
        <ele>1069.39</ele>
        <time>2021-07-31T09:19:22Z</time>
      </trkpt>
      <trkpt lat="42.28451" lon="2.4107">
        <ele>1067.63</ele>
        <time>2021-07-31T09:19:34Z</time>
      </trkpt>
      <trkpt lat="42.28456" lon="2.41063">
        <ele>1067.27</ele>
        <time>2021-07-31T09:19:36Z</time>
      </trkpt>
      <trkpt lat="42.28495" lon="2.41066">
        <ele>1065.77</ele>
        <time>2021-07-31T09:19:47Z</time>
      </trkpt>
      <trkpt lat="42.28555" lon="2.4107">
        <ele>1065.95</ele>
        <time>2021-07-31T09:20:00Z</time>
      </trkpt>
      <trkpt lat="42.28567" lon="2.41073">
        <ele>1065.95</ele>
        <time>2021-07-31T09:20:03Z</time>
      </trkpt>
      <trkpt lat="42.28619" lon="2.41109">
        <ele>1064.69</ele>
        <time>2021-07-31T09:20:17Z</time>
      </trkpt>
      <trkpt lat="42.28646" lon="2.41119">
        <ele>1061.33</ele>
        <time>2021-07-31T09:20:26Z</time>
      </trkpt>
      <trkpt lat="42.2869" lon="2.41126">
        <ele>1058.34</ele>
        <time>2021-07-31T09:20:36Z</time>
      </trkpt>
      <trkpt lat="42.28738" lon="2.41139">
        <ele>1057.39</ele>
        <time>2021-07-31T09:20:47Z</time>
      </trkpt>
      <trkpt lat="42.28748" lon="2.4114">
        <ele>1057.42</ele>
        <time>2021-07-31T09:20:49Z</time>
      </trkpt>
      <trkpt lat="42.28798" lon="2.41137">
        <ele>1056.94</ele>
        <time>2021-07-31T09:21:00Z</time>
      </trkpt>
      <trkpt lat="42.28816" lon="2.41142">
        <ele>1056.02</ele>
        <time>2021-07-31T09:21:06Z</time>
      </trkpt>
      <trkpt lat="42.28858" lon="2.41123">
        <ele>1052.94</ele>
        <time>2021-07-31T09:21:17Z</time>
      </trkpt>
      <trkpt lat="42.28884" lon="2.41118">
        <ele>1049.68</ele>
        <time>2021-07-31T09:21:25Z</time>
      </trkpt>
      <trkpt lat="42.28906" lon="2.41114">
        <ele>1046.39</ele>
        <time>2021-07-31T09:21:32Z</time>
      </trkpt>
      <trkpt lat="42.2893" lon="2.41114">
        <ele>1043.31</ele>
        <time>2021-07-31T09:21:38Z</time>
      </trkpt>
      <trkpt lat="42.28966" lon="2.41113">
        <ele>1041.1</ele>
        <time>2021-07-31T09:21:44Z</time>
      </trkpt>
      <trkpt lat="42.29002" lon="2.411">
        <ele>1038.92</ele>
        <time>2021-07-31T09:21:51Z</time>
      </trkpt>
      <trkpt lat="42.29002" lon="2.41094">
        <ele>1038.78</ele>
        <time>2021-07-31T09:21:52Z</time>
      </trkpt>
      <trkpt lat="42.29002" lon="2.41082">
        <ele>1038.53</ele>
        <time>2021-07-31T09:21:54Z</time>
      </trkpt>
      <trkpt lat="42.29003" lon="2.41059">
        <ele>1038.06</ele>
        <time>2021-07-31T09:22:03Z</time>
      </trkpt>
      <trkpt lat="42.29006" lon="2.41005">
        <ele>1038.82</ele>
        <time>2021-07-31T09:22:15Z</time>
      </trkpt>
      <trkpt lat="42.29006" lon="2.40952">
        <ele>1040.39</ele>
        <time>2021-07-31T09:22:22Z</time>
      </trkpt>
      <trkpt lat="42.29008" lon="2.40917">
        <ele>1041.48</ele>
        <time>2021-07-31T09:22:26Z</time>
      </trkpt>
      <trkpt lat="42.29013" lon="2.40894">
        <ele>1042.76</ele>
        <time>2021-07-31T09:22:29Z</time>
      </trkpt>
      <trkpt lat="42.29024" lon="2.40858">
        <ele>1044.02</ele>
        <time>2021-07-31T09:22:34Z</time>
      </trkpt>
      <trkpt lat="42.29033" lon="2.40843">
        <ele>1044.66</ele>
        <time>2021-07-31T09:22:37Z</time>
      </trkpt>
      <trkpt lat="42.29039" lon="2.40824">
        <ele>1045.41</ele>
        <time>2021-07-31T09:22:41Z</time>
      </trkpt>
      <trkpt lat="42.2904" lon="2.40812">
        <ele>1045.83</ele>
        <time>2021-07-31T09:22:43Z</time>
      </trkpt>
      <trkpt lat="42.29049" lon="2.40781">
        <ele>1047.09</ele>
        <time>2021-07-31T09:22:48Z</time>
      </trkpt>
      <trkpt lat="42.29067" lon="2.40755">
        <ele>1047.99</ele>
        <time>2021-07-31T09:22:53Z</time>
      </trkpt>
      <trkpt lat="42.29078" lon="2.40735">
        <ele>1048.5</ele>
        <time>2021-07-31T09:22:56Z</time>
      </trkpt>
      <trkpt lat="42.29113" lon="2.40689">
        <ele>1050.3</ele>
        <time>2021-07-31T09:23:05Z</time>
      </trkpt>
      <trkpt lat="42.29131" lon="2.40648">
        <ele>1051.68</ele>
        <time>2021-07-31T09:23:10Z</time>
      </trkpt>
      <trkpt lat="42.29137" lon="2.40619">
        <ele>1052.65</ele>
        <time>2021-07-31T09:23:14Z</time>
      </trkpt>
      <trkpt lat="42.29136" lon="2.40589">
        <ele>1053.3</ele>
        <time>2021-07-31T09:23:18Z</time>
      </trkpt>
      <trkpt lat="42.29129" lon="2.40553">
        <ele>1054.34</ele>
        <time>2021-07-31T09:23:22Z</time>
      </trkpt>
      <trkpt lat="42.29114" lon="2.40514">
        <ele>1055.28</ele>
        <time>2021-07-31T09:23:27Z</time>
      </trkpt>
      <trkpt lat="42.29108" lon="2.40488">
        <ele>1055.83</ele>
        <time>2021-07-31T09:23:30Z</time>
      </trkpt>
      <trkpt lat="42.29092" lon="2.40426">
        <ele>1058.1</ele>
        <time>2021-07-31T09:23:38Z</time>
      </trkpt>
      <trkpt lat="42.29039" lon="2.40359">
        <ele>1060.23</ele>
        <time>2021-07-31T09:23:51Z</time>
      </trkpt>
      <trkpt lat="42.28991" lon="2.40307">
        <ele>1061.4</ele>
        <time>2021-07-31T09:24:01Z</time>
      </trkpt>
      <trkpt lat="42.28961" lon="2.40274">
        <ele>1061.91</ele>
        <time>2021-07-31T09:24:07Z</time>
      </trkpt>
      <trkpt lat="42.28951" lon="2.40253">
        <ele>1061.94</ele>
        <time>2021-07-31T09:24:10Z</time>
      </trkpt>
      <trkpt lat="42.2892" lon="2.40205">
        <ele>1061.59</ele>
        <time>2021-07-31T09:24:18Z</time>
      </trkpt>
      <trkpt lat="42.28888" lon="2.40185">
        <ele>1059.54</ele>
        <time>2021-07-31T09:24:28Z</time>
      </trkpt>
      <trkpt lat="42.28883" lon="2.40186">
        <ele>1059.45</ele>
        <time>2021-07-31T09:24:29Z</time>
      </trkpt>
      <trkpt lat="42.2885" lon="2.40184">
        <ele>1059.11</ele>
        <time>2021-07-31T09:24:35Z</time>
      </trkpt>
      <trkpt lat="42.28798" lon="2.40163">
        <ele>1058.76</ele>
        <time>2021-07-31T09:24:47Z</time>
      </trkpt>
      <trkpt lat="42.28782" lon="2.40152">
        <ele>1058.81</ele>
        <time>2021-07-31T09:24:52Z</time>
      </trkpt>
      <trkpt lat="42.2875" lon="2.4011">
        <ele>1059.38</ele>
        <time>2021-07-31T09:25:04Z</time>
      </trkpt>
      <trkpt lat="42.28737" lon="2.40095">
        <ele>1059.5</ele>
        <time>2021-07-31T09:25:08Z</time>
      </trkpt>
      <trkpt lat="42.28715" lon="2.40077">
        <ele>1060.01</ele>
        <time>2021-07-31T09:25:15Z</time>
      </trkpt>
      <trkpt lat="42.28678" lon="2.40032">
        <ele>1060.33</ele>
        <time>2021-07-31T09:25:27Z</time>
      </trkpt>
      <trkpt lat="42.28662" lon="2.39987">
        <ele>1061.4</ele>
        <time>2021-07-31T09:25:37Z</time>
      </trkpt>
      <trkpt lat="42.2863" lon="2.39981">
        <ele>1062.05</ele>
        <time>2021-07-31T09:25:46Z</time>
      </trkpt>
      <trkpt lat="42.28612" lon="2.39976">
        <ele>1062.12</ele>
        <time>2021-07-31T09:25:50Z</time>
      </trkpt>
      <trkpt lat="42.28581" lon="2.39959">
        <ele>1061.58</ele>
        <time>2021-07-31T09:26:00Z</time>
      </trkpt>
      <trkpt lat="42.28577" lon="2.39944">
        <ele>1060.81</ele>
        <time>2021-07-31T09:26:04Z</time>
      </trkpt>
      <trkpt lat="42.28571" lon="2.39884">
        <ele>1058.98</ele>
        <time>2021-07-31T09:26:11Z</time>
      </trkpt>
      <trkpt lat="42.28566" lon="2.398">
        <ele>1057.37</ele>
        <time>2021-07-31T09:26:21Z</time>
      </trkpt>
      <trkpt lat="42.28575" lon="2.39775">
        <ele>1057.43</ele>
        <time>2021-07-31T09:26:25Z</time>
      </trkpt>
      <trkpt lat="42.28592" lon="2.39734">
        <ele>1058.95</ele>
        <time>2021-07-31T09:26:34Z</time>
      </trkpt>
      <trkpt lat="42.2859" lon="2.397">
        <ele>1060.53</ele>
        <time>2021-07-31T09:26:40Z</time>
      </trkpt>
      <trkpt lat="42.28596" lon="2.3968">
        <ele>1061.3</ele>
        <time>2021-07-31T09:26:44Z</time>
      </trkpt>
      <trkpt lat="42.28608" lon="2.39634">
        <ele>1061.72</ele>
        <time>2021-07-31T09:26:54Z</time>
      </trkpt>
      <trkpt lat="42.28598" lon="2.39616">
        <ele>1061.76</ele>
        <time>2021-07-31T09:26:57Z</time>
      </trkpt>
      <trkpt lat="42.28585" lon="2.39587">
        <ele>1061.6</ele>
        <time>2021-07-31T09:27:01Z</time>
      </trkpt>
      <trkpt lat="42.28558" lon="2.39559">
        <ele>1061.47</ele>
        <time>2021-07-31T09:27:06Z</time>
      </trkpt>
      <trkpt lat="42.28524" lon="2.39493">
        <ele>1061.6</ele>
        <time>2021-07-31T09:27:17Z</time>
      </trkpt>
      <trkpt lat="42.28524" lon="2.39485">
        <ele>1061.6</ele>
        <time>2021-07-31T09:27:18Z</time>
      </trkpt>
      <trkpt lat="42.28526" lon="2.39469">
        <ele>1061.34</ele>
        <time>2021-07-31T09:27:20Z</time>
      </trkpt>
      <trkpt lat="42.28526" lon="2.39442">
        <ele>1058.84</ele>
        <time>2021-07-31T09:27:26Z</time>
      </trkpt>
      <trkpt lat="42.28526" lon="2.39413">
        <ele>1055.47</ele>
        <time>2021-07-31T09:27:32Z</time>
      </trkpt>
      <trkpt lat="42.28525" lon="2.39382">
        <ele>1052.46</ele>
        <time>2021-07-31T09:27:39Z</time>
      </trkpt>
      <trkpt lat="42.28525" lon="2.39378">
        <ele>1052.16</ele>
        <time>2021-07-31T09:27:40Z</time>
      </trkpt>
      <trkpt lat="42.2852" lon="2.39333">
        <ele>1048.9</ele>
        <time>2021-07-31T09:27:49Z</time>
      </trkpt>
      <trkpt lat="42.28514" lon="2.39295">
        <ele>1045.74</ele>
        <time>2021-07-31T09:27:56Z</time>
      </trkpt>
      <trkpt lat="42.28504" lon="2.39264">
        <ele>1042.73</ele>
        <time>2021-07-31T09:28:03Z</time>
      </trkpt>
      <trkpt lat="42.28498" lon="2.3923">
        <ele>1039.41</ele>
        <time>2021-07-31T09:28:11Z</time>
      </trkpt>
      <trkpt lat="42.28487" lon="2.39199">
        <ele>1036.28</ele>
        <time>2021-07-31T09:28:21Z</time>
      </trkpt>
      <trkpt lat="42.28484" lon="2.39189">
        <ele>1035.77</ele>
        <time>2021-07-31T09:28:23Z</time>
      </trkpt>
      <trkpt lat="42.2848" lon="2.39167">
        <ele>1034.7</ele>
        <time>2021-07-31T09:28:27Z</time>
      </trkpt>
      <trkpt lat="42.28466" lon="2.39091">
        <ele>1031.19</ele>
        <time>2021-07-31T09:28:39Z</time>
      </trkpt>
      <trkpt lat="42.28458" lon="2.39056">
        <ele>1029.96</ele>
        <time>2021-07-31T09:28:43Z</time>
      </trkpt>
      <trkpt lat="42.28458" lon="2.3905">
        <ele>1029.56</ele>
        <time>2021-07-31T09:28:44Z</time>
      </trkpt>
      <trkpt lat="42.28458" lon="2.39045">
        <ele>1029.1</ele>
        <time>2021-07-31T09:28:45Z</time>
      </trkpt>
      <trkpt lat="42.28459" lon="2.3904">
        <ele>1028.59</ele>
        <time>2021-07-31T09:28:46Z</time>
      </trkpt>
      <trkpt lat="42.2846" lon="2.39034">
        <ele>1028.05</ele>
        <time>2021-07-31T09:28:47Z</time>
      </trkpt>
      <trkpt lat="42.28462" lon="2.39027">
        <ele>1027.57</ele>
        <time>2021-07-31T09:28:48Z</time>
      </trkpt>
      <trkpt lat="42.28465" lon="2.39017">
        <ele>1027.11</ele>
        <time>2021-07-31T09:28:49Z</time>
      </trkpt>
      <trkpt lat="42.2847" lon="2.38995">
        <ele>1026.33</ele>
        <time>2021-07-31T09:28:51Z</time>
      </trkpt>
      <trkpt lat="42.28477" lon="2.38931">
        <ele>1023.98</ele>
        <time>2021-07-31T09:28:56Z</time>
      </trkpt>
      <trkpt lat="42.28475" lon="2.38879">
        <ele>1020.21</ele>
        <time>2021-07-31T09:29:01Z</time>
      </trkpt>
      <trkpt lat="42.28475" lon="2.38847">
        <ele>1016.25</ele>
        <time>2021-07-31T09:29:04Z</time>
      </trkpt>
      <trkpt lat="42.28476" lon="2.38837">
        <ele>1015.16</ele>
        <time>2021-07-31T09:29:05Z</time>
      </trkpt>
      <trkpt lat="42.28485" lon="2.38799">
        <ele>1010.84</ele>
        <time>2021-07-31T09:29:09Z</time>
      </trkpt>
      <trkpt lat="42.28494" lon="2.38758">
        <ele>1007.01</ele>
        <time>2021-07-31T09:29:13Z</time>
      </trkpt>
      <trkpt lat="42.28496" lon="2.38748">
        <ele>1006.18</ele>
        <time>2021-07-31T09:29:14Z</time>
      </trkpt>
      <trkpt lat="42.28499" lon="2.38713">
        <ele>1003.64</ele>
        <time>2021-07-31T09:29:17Z</time>
      </trkpt>
      <trkpt lat="42.28506" lon="2.38679">
        <ele>1001.51</ele>
        <time>2021-07-31T09:29:20Z</time>
      </trkpt>
      <trkpt lat="42.28536" lon="2.38603">
        <ele>997.35</ele>
        <time>2021-07-31T09:29:27Z</time>
      </trkpt>
      <trkpt lat="42.28543" lon="2.38583">
        <ele>996.14</ele>
        <time>2021-07-31T09:29:29Z</time>
      </trkpt>
      <trkpt lat="42.28552" lon="2.3852">
        <ele>991.82</ele>
        <time>2021-07-31T09:29:35Z</time>
      </trkpt>
      <trkpt lat="42.28553" lon="2.38505">
        <ele>988.82</ele>
        <time>2021-07-31T09:29:38Z</time>
      </trkpt>
      <trkpt lat="42.28564" lon="2.38506">
        <ele>983.87</ele>
        <time>2021-07-31T09:29:43Z</time>
      </trkpt>
      <trkpt lat="42.28569" lon="2.38526">
        <ele>980.75</ele>
        <time>2021-07-31T09:29:47Z</time>
      </trkpt>
      <trkpt lat="42.28572" lon="2.38538">
        <ele>979.61</ele>
        <time>2021-07-31T09:29:49Z</time>
      </trkpt>
      <trkpt lat="42.28573" lon="2.38551">
        <ele>978.41</ele>
        <time>2021-07-31T09:29:51Z</time>
      </trkpt>
      <trkpt lat="42.28569" lon="2.38585">
        <ele>974.46</ele>
        <time>2021-07-31T09:29:58Z</time>
      </trkpt>
      <trkpt lat="42.28568" lon="2.38589">
        <ele>973.79</ele>
        <time>2021-07-31T09:29:59Z</time>
      </trkpt>
      <trkpt lat="42.28585" lon="2.38582">
        <ele>970.59</ele>
        <time>2021-07-31T09:30:06Z</time>
      </trkpt>
      <trkpt lat="42.28588" lon="2.38575">
        <ele>970.4</ele>
        <time>2021-07-31T09:30:07Z</time>
      </trkpt>
      <trkpt lat="42.28593" lon="2.38558">
        <ele>970.06</ele>
        <time>2021-07-31T09:30:09Z</time>
      </trkpt>
      <trkpt lat="42.286" lon="2.38481">
        <ele>967.41</ele>
        <time>2021-07-31T09:30:17Z</time>
      </trkpt>
      <trkpt lat="42.28594" lon="2.3844">
        <ele>964.49</ele>
        <time>2021-07-31T09:30:23Z</time>
      </trkpt>
      <trkpt lat="42.28598" lon="2.38363">
        <ele>961.16</ele>
        <time>2021-07-31T09:30:31Z</time>
      </trkpt>
      <trkpt lat="42.28604" lon="2.38346">
        <ele>960.09</ele>
        <time>2021-07-31T09:30:33Z</time>
      </trkpt>
      <trkpt lat="42.28605" lon="2.38292">
        <ele>957.63</ele>
        <time>2021-07-31T09:30:37Z</time>
      </trkpt>
      <trkpt lat="42.28607" lon="2.38261">
        <ele>956.5</ele>
        <time>2021-07-31T09:30:39Z</time>
      </trkpt>
      <trkpt lat="42.28596" lon="2.38185">
        <ele>952.34</ele>
        <time>2021-07-31T09:30:44Z</time>
      </trkpt>
      <trkpt lat="42.28584" lon="2.38141">
        <ele>948.63</ele>
        <time>2021-07-31T09:30:47Z</time>
      </trkpt>
      <trkpt lat="42.28567" lon="2.38099">
        <ele>945.35</ele>
        <time>2021-07-31T09:30:50Z</time>
      </trkpt>
      <trkpt lat="42.28546" lon="2.38065">
        <ele>941.84</ele>
        <time>2021-07-31T09:30:53Z</time>
      </trkpt>
      <trkpt lat="42.28525" lon="2.38036">
        <ele>937.67</ele>
        <time>2021-07-31T09:30:56Z</time>
      </trkpt>
      <trkpt lat="42.28515" lon="2.38018">
        <ele>934.89</ele>
        <time>2021-07-31T09:30:58Z</time>
      </trkpt>
      <trkpt lat="42.28512" lon="2.37981">
        <ele>929.69</ele>
        <time>2021-07-31T09:31:02Z</time>
      </trkpt>
      <trkpt lat="42.28514" lon="2.3793">
        <ele>925.33</ele>
        <time>2021-07-31T09:31:07Z</time>
      </trkpt>
      <trkpt lat="42.28514" lon="2.37908">
        <ele>924.4</ele>
        <time>2021-07-31T09:31:09Z</time>
      </trkpt>
      <trkpt lat="42.28484" lon="2.37806">
        <ele>920.65</ele>
        <time>2021-07-31T09:31:17Z</time>
      </trkpt>
      <trkpt lat="42.28469" lon="2.37763">
        <ele>919.12</ele>
        <time>2021-07-31T09:31:20Z</time>
      </trkpt>
      <trkpt lat="42.28434" lon="2.37664">
        <ele>915.39</ele>
        <time>2021-07-31T09:31:27Z</time>
      </trkpt>
      <trkpt lat="42.2843" lon="2.37651">
        <ele>914.87</ele>
        <time>2021-07-31T09:31:28Z</time>
      </trkpt>
      <trkpt lat="42.28413" lon="2.37618">
        <ele>913.12</ele>
        <time>2021-07-31T09:31:31Z</time>
      </trkpt>
      <trkpt lat="42.28392" lon="2.37543">
        <ele>909.24</ele>
        <time>2021-07-31T09:31:37Z</time>
      </trkpt>
      <trkpt lat="42.28378" lon="2.37488">
        <ele>905.78</ele>
        <time>2021-07-31T09:31:42Z</time>
      </trkpt>
      <trkpt lat="42.28372" lon="2.3746">
        <ele>902.04</ele>
        <time>2021-07-31T09:31:47Z</time>
      </trkpt>
      <trkpt lat="42.28387" lon="2.37462">
        <ele>898.1</ele>
        <time>2021-07-31T09:31:53Z</time>
      </trkpt>
      <trkpt lat="42.28388" lon="2.37468">
        <ele>897.59</ele>
        <time>2021-07-31T09:31:54Z</time>
      </trkpt>
      <trkpt lat="42.28409" lon="2.37487">
        <ele>894.41</ele>
        <time>2021-07-31T09:32:03Z</time>
      </trkpt>
      <trkpt lat="42.28416" lon="2.37471">
        <ele>894.2</ele>
        <time>2021-07-31T09:32:05Z</time>
      </trkpt>
      <trkpt lat="42.28424" lon="2.37452">
        <ele>894.17</ele>
        <time>2021-07-31T09:32:07Z</time>
      </trkpt>
      <trkpt lat="42.28427" lon="2.37373">
        <ele>895.48</ele>
        <time>2021-07-31T09:32:14Z</time>
      </trkpt>
      <trkpt lat="42.28443" lon="2.37298">
        <ele>895.97</ele>
        <time>2021-07-31T09:32:21Z</time>
      </trkpt>
      <trkpt lat="42.28484" lon="2.37238">
        <ele>894.44</ele>
        <time>2021-07-31T09:32:27Z</time>
      </trkpt>
      <trkpt lat="42.28553" lon="2.37174">
        <ele>890.92</ele>
        <time>2021-07-31T09:32:34Z</time>
      </trkpt>
      <trkpt lat="42.28579" lon="2.37149">
        <ele>888.58</ele>
        <time>2021-07-31T09:32:37Z</time>
      </trkpt>
      <trkpt lat="42.28598" lon="2.37121">
        <ele>885.74</ele>
        <time>2021-07-31T09:32:40Z</time>
      </trkpt>
      <trkpt lat="42.28622" lon="2.37042">
        <ele>881.57</ele>
        <time>2021-07-31T09:32:47Z</time>
      </trkpt>
      <trkpt lat="42.28635" lon="2.37023">
        <ele>881.33</ele>
        <time>2021-07-31T09:32:49Z</time>
      </trkpt>
      <trkpt lat="42.28663" lon="2.36979">
        <ele>881.65</ele>
        <time>2021-07-31T09:32:57Z</time>
      </trkpt>
      <trkpt lat="42.28677" lon="2.36955">
        <ele>881.62</ele>
        <time>2021-07-31T09:33:02Z</time>
      </trkpt>
      <trkpt lat="42.28692" lon="2.36911">
        <ele>879.78</ele>
        <time>2021-07-31T09:33:10Z</time>
      </trkpt>
      <trkpt lat="42.28718" lon="2.36884">
        <ele>876.33</ele>
        <time>2021-07-31T09:33:18Z</time>
      </trkpt>
      <trkpt lat="42.28714" lon="2.36861">
        <ele>873.27</ele>
        <time>2021-07-31T09:33:24Z</time>
      </trkpt>
      <trkpt lat="42.28713" lon="2.36858">
        <ele>872.83</ele>
        <time>2021-07-31T09:33:25Z</time>
      </trkpt>
      <trkpt lat="42.28707" lon="2.36828">
        <ele>870.15</ele>
        <time>2021-07-31T09:33:36Z</time>
      </trkpt>
      <trkpt lat="42.28724" lon="2.36795">
        <ele>870.45</ele>
        <time>2021-07-31T09:33:43Z</time>
      </trkpt>
      <trkpt lat="42.28727" lon="2.36774">
        <ele>871.54</ele>
        <time>2021-07-31T09:33:46Z</time>
      </trkpt>
      <trkpt lat="42.28737" lon="2.36745">
        <ele>873.11</ele>
        <time>2021-07-31T09:33:50Z</time>
      </trkpt>
      <trkpt lat="42.28773" lon="2.36675">
        <ele>876.56</ele>
        <time>2021-07-31T09:33:59Z</time>
      </trkpt>
      <trkpt lat="42.28788" lon="2.36646">
        <ele>877.54</ele>
        <time>2021-07-31T09:34:04Z</time>
      </trkpt>
      <trkpt lat="42.28832" lon="2.36568">
        <ele>879.58</ele>
        <time>2021-07-31T09:34:16Z</time>
      </trkpt>
      <trkpt lat="42.28873" lon="2.36494">
        <ele>881.76</ele>
        <time>2021-07-31T09:34:29Z</time>
      </trkpt>
      <trkpt lat="42.28899" lon="2.36454">
        <ele>882.54</ele>
        <time>2021-07-31T09:34:39Z</time>
      </trkpt>
      <trkpt lat="42.28907" lon="2.36439">
        <ele>882.8</ele>
        <time>2021-07-31T09:34:50Z</time>
      </trkpt>
      <trkpt lat="42.28926" lon="2.36415">
        <ele>883.34</ele>
        <time>2021-07-31T09:35:23Z</time>
      </trkpt>
      <trkpt lat="42.28965" lon="2.36368">
        <ele>883.73</ele>
        <time>2021-07-31T09:35:35Z</time>
      </trkpt>
      <trkpt lat="42.2903" lon="2.36322">
        <ele>884.17</ele>
        <time>2021-07-31T09:35:48Z</time>
      </trkpt>
      <trkpt lat="42.29097" lon="2.36286">
        <ele>885.11</ele>
        <time>2021-07-31T09:35:58Z</time>
      </trkpt>
      <trkpt lat="42.29187" lon="2.36234">
        <ele>886.78</ele>
        <time>2021-07-31T09:36:09Z</time>
      </trkpt>
      <trkpt lat="42.29227" lon="2.36224">
        <ele>887.79</ele>
        <time>2021-07-31T09:36:14Z</time>
      </trkpt>
      <trkpt lat="42.29261" lon="2.3622">
        <ele>888.58</ele>
        <time>2021-07-31T09:36:20Z</time>
      </trkpt>
      <trkpt lat="42.29281" lon="2.36208">
        <ele>888.87</ele>
        <time>2021-07-31T09:36:23Z</time>
      </trkpt>
      <trkpt lat="42.29298" lon="2.36199">
        <ele>889.32</ele>
        <time>2021-07-31T09:36:26Z</time>
      </trkpt>
      <trkpt lat="42.29343" lon="2.36163">
        <ele>891.25</ele>
        <time>2021-07-31T09:36:36Z</time>
      </trkpt>
      <trkpt lat="42.29375" lon="2.36135">
        <ele>890.67</ele>
        <time>2021-07-31T09:36:48Z</time>
      </trkpt>
      <trkpt lat="42.2938" lon="2.3613">
        <ele>890.65</ele>
        <time>2021-07-31T09:36:50Z</time>
      </trkpt>
      <trkpt lat="42.29422" lon="2.36093">
        <ele>890.84</ele>
        <time>2021-07-31T09:36:58Z</time>
      </trkpt>
      <trkpt lat="42.29451" lon="2.36072">
        <ele>891.51</ele>
        <time>2021-07-31T09:37:05Z</time>
      </trkpt>
      <trkpt lat="42.29515" lon="2.36027">
        <ele>892.47</ele>
        <time>2021-07-31T09:37:14Z</time>
      </trkpt>
      <trkpt lat="42.29603" lon="2.36014">
        <ele>895.52</ele>
        <time>2021-07-31T09:37:23Z</time>
      </trkpt>
      <trkpt lat="42.29695" lon="2.36013">
        <ele>896.81</ele>
        <time>2021-07-31T09:37:35Z</time>
      </trkpt>
      <trkpt lat="42.29752" lon="2.36013">
        <ele>895.23</ele>
        <time>2021-07-31T09:37:46Z</time>
      </trkpt>
      <trkpt lat="42.29813" lon="2.36">
        <ele>895.53</ele>
        <time>2021-07-31T09:37:58Z</time>
      </trkpt>
      <trkpt lat="42.29825" lon="2.36006">
        <ele>895.19</ele>
        <time>2021-07-31T09:38:04Z</time>
      </trkpt>
      <trkpt lat="42.29835" lon="2.35996">
        <ele>894.93</ele>
        <time>2021-07-31T09:38:08Z</time>
      </trkpt>
      <trkpt lat="42.29841" lon="2.35987">
        <ele>894.81</ele>
        <time>2021-07-31T09:38:11Z</time>
      </trkpt>
      <trkpt lat="42.29895" lon="2.35948">
        <ele>896.05</ele>
        <time>2021-07-31T09:38:23Z</time>
      </trkpt>
      <trkpt lat="42.29935" lon="2.35925">
        <ele>897.03</ele>
        <time>2021-07-31T09:38:30Z</time>
      </trkpt>
      <trkpt lat="42.3001" lon="2.35863">
        <ele>899.75</ele>
        <time>2021-07-31T09:38:43Z</time>
      </trkpt>
      <trkpt lat="42.30043" lon="2.35836">
        <ele>900.83</ele>
        <time>2021-07-31T09:38:50Z</time>
      </trkpt>
      <trkpt lat="42.30078" lon="2.35799">
        <ele>902.63</ele>
        <time>2021-07-31T09:38:57Z</time>
      </trkpt>
      <trkpt lat="42.30098" lon="2.35787">
        <ele>903.41</ele>
        <time>2021-07-31T09:39:00Z</time>
      </trkpt>
      <trkpt lat="42.30111" lon="2.35784">
        <ele>903.88</ele>
        <time>2021-07-31T09:39:02Z</time>
      </trkpt>
      <trkpt lat="42.30137" lon="2.3579">
        <ele>905.29</ele>
        <time>2021-07-31T09:39:06Z</time>
      </trkpt>
      <trkpt lat="42.30155" lon="2.35805">
        <ele>906.6</ele>
        <time>2021-07-31T09:39:09Z</time>
      </trkpt>
      <trkpt lat="42.3018" lon="2.35846">
        <ele>907.98</ele>
        <time>2021-07-31T09:39:14Z</time>
      </trkpt>
      <trkpt lat="42.30202" lon="2.35846">
        <ele>908.71</ele>
        <time>2021-07-31T09:39:21Z</time>
      </trkpt>
      <trkpt lat="42.30205" lon="2.35845">
        <ele>908.36</ele>
        <time>2021-07-31T09:39:31Z</time>
      </trkpt>
      <trkpt lat="42.30225" lon="2.35856">
        <ele>908.37</ele>
        <time>2021-07-31T09:39:35Z</time>
      </trkpt>
      <trkpt lat="42.30344" lon="2.35902">
        <ele>909.68</ele>
        <time>2021-07-31T09:39:44Z</time>
      </trkpt>
      <trkpt lat="42.30508" lon="2.35957">
        <ele>912.72</ele>
        <time>2021-07-31T09:39:53Z</time>
      </trkpt>
      <trkpt lat="42.3062" lon="2.36048">
        <ele>913.82</ele>
        <time>2021-07-31T09:40:01Z</time>
      </trkpt>
      <trkpt lat="42.30695" lon="2.3611">
        <ele>913.95</ele>
        <time>2021-07-31T09:40:08Z</time>
      </trkpt>
      <trkpt lat="42.30728" lon="2.36151">
        <ele>913.8</ele>
        <time>2021-07-31T09:40:13Z</time>
      </trkpt>
      <trkpt lat="42.30756" lon="2.36169">
        <ele>914.09</ele>
        <time>2021-07-31T09:40:17Z</time>
      </trkpt>
      <trkpt lat="42.3077" lon="2.36205">
        <ele>914.69</ele>
        <time>2021-07-31T09:40:21Z</time>
      </trkpt>
      <trkpt lat="42.30798" lon="2.36216">
        <ele>915.83</ele>
        <time>2021-07-31T09:40:27Z</time>
      </trkpt>
      <trkpt lat="42.30799" lon="2.36213">
        <ele>915.89</ele>
        <time>2021-07-31T09:40:28Z</time>
      </trkpt>
      <trkpt lat="42.308" lon="2.36208">
        <ele>915.89</ele>
        <time>2021-07-31T09:40:29Z</time>
      </trkpt>
      <trkpt lat="42.30801" lon="2.36203">
        <ele>915.88</ele>
        <time>2021-07-31T09:40:30Z</time>
      </trkpt>
      <trkpt lat="42.308" lon="2.36197">
        <ele>915.86</ele>
        <time>2021-07-31T09:40:31Z</time>
      </trkpt>
      <trkpt lat="42.308" lon="2.36191">
        <ele>915.85</ele>
        <time>2021-07-31T09:40:32Z</time>
      </trkpt>
      <trkpt lat="42.308" lon="2.36184">
        <ele>915.82</ele>
        <time>2021-07-31T09:40:33Z</time>
      </trkpt>
      <trkpt lat="42.308" lon="2.36176">
        <ele>915.78</ele>
        <time>2021-07-31T09:40:34Z</time>
      </trkpt>
      <trkpt lat="42.30801" lon="2.36168">
        <ele>915.74</ele>
        <time>2021-07-31T09:40:35Z</time>
      </trkpt>
      <trkpt lat="42.30804" lon="2.3616">
        <ele>915.71</ele>
        <time>2021-07-31T09:40:36Z</time>
      </trkpt>
      <trkpt lat="42.30808" lon="2.36151">
        <ele>915.7</ele>
        <time>2021-07-31T09:40:37Z</time>
      </trkpt>
      <trkpt lat="42.30813" lon="2.36142">
        <ele>915.7</ele>
        <time>2021-07-31T09:40:38Z</time>
      </trkpt>
      <trkpt lat="42.30818" lon="2.36133">
        <ele>915.7</ele>
        <time>2021-07-31T09:40:39Z</time>
      </trkpt>
      <trkpt lat="42.30825" lon="2.36126">
        <ele>915.75</ele>
        <time>2021-07-31T09:40:40Z</time>
      </trkpt>
      <trkpt lat="42.30832" lon="2.36121">
        <ele>915.87</ele>
        <time>2021-07-31T09:40:41Z</time>
      </trkpt>
      <trkpt lat="42.30839" lon="2.36116">
        <ele>916.01</ele>
        <time>2021-07-31T09:40:42Z</time>
      </trkpt>
      <trkpt lat="42.30848" lon="2.36111">
        <ele>916.22</ele>
        <time>2021-07-31T09:40:43Z</time>
      </trkpt>
      <trkpt lat="42.30876" lon="2.36098">
        <ele>917.76</ele>
        <time>2021-07-31T09:40:46Z</time>
      </trkpt>
      <trkpt lat="42.30964" lon="2.36113">
        <ele>921.3</ele>
        <time>2021-07-31T09:40:53Z</time>
      </trkpt>
      <trkpt lat="42.31006" lon="2.36165">
        <ele>922.74</ele>
        <time>2021-07-31T09:40:57Z</time>
      </trkpt>
      <trkpt lat="42.31043" lon="2.36225">
        <ele>923.29</ele>
        <time>2021-07-31T09:41:01Z</time>
      </trkpt>
      <trkpt lat="42.31133" lon="2.3628">
        <ele>924.09</ele>
        <time>2021-07-31T09:41:08Z</time>
      </trkpt>
      <trkpt lat="42.31149" lon="2.36282">
        <ele>924.4</ele>
        <time>2021-07-31T09:41:09Z</time>
      </trkpt>
      <trkpt lat="42.31255" lon="2.36288">
        <ele>928.04</ele>
        <time>2021-07-31T09:41:16Z</time>
      </trkpt>
      <trkpt lat="42.31285" lon="2.3629">
        <ele>929.07</ele>
        <time>2021-07-31T09:41:18Z</time>
      </trkpt>
      <trkpt lat="42.31295" lon="2.36221">
        <ele>929.62</ele>
        <time>2021-07-31T09:41:21Z</time>
      </trkpt>
      <trkpt lat="42.31329" lon="2.36224">
        <ele>929.93</ele>
        <time>2021-07-31T09:41:26Z</time>
      </trkpt>
      <trkpt lat="42.31346" lon="2.36231">
        <ele>929.89</ele>
        <time>2021-07-31T09:41:29Z</time>
      </trkpt>
      <trkpt lat="42.31383" lon="2.36218">
        <ele>929.99</ele>
        <time>2021-07-31T09:41:35Z</time>
      </trkpt>
      <trkpt lat="42.31433" lon="2.36213">
        <ele>930.33</ele>
        <time>2021-07-31T09:41:42Z</time>
      </trkpt>
      <trkpt lat="42.31439" lon="2.3621">
        <ele>930.34</ele>
        <time>2021-07-31T09:41:51Z</time>
      </trkpt>
      <trkpt lat="42.31491" lon="2.36208">
        <ele>930.54</ele>
        <time>2021-07-31T09:42:01Z</time>
      </trkpt>
      <trkpt lat="42.31554" lon="2.36201">
        <ele>931.7</ele>
        <time>2021-07-31T09:42:12Z</time>
      </trkpt>
      <trkpt lat="42.31566" lon="2.362">
        <ele>931.91</ele>
        <time>2021-07-31T09:42:14Z</time>
      </trkpt>
      <trkpt lat="42.31589" lon="2.36181">
        <ele>932.56</ele>
        <time>2021-07-31T09:42:18Z</time>
      </trkpt>
      <trkpt lat="42.3167" lon="2.3607">
        <ele>935.84</ele>
        <time>2021-07-31T09:42:29Z</time>
      </trkpt>
      <trkpt lat="42.31691" lon="2.3604">
        <ele>937.23</ele>
        <time>2021-07-31T09:42:32Z</time>
      </trkpt>
      <trkpt lat="42.31728" lon="2.35923">
        <ele>941.05</ele>
        <time>2021-07-31T09:42:40Z</time>
      </trkpt>
      <trkpt lat="42.31751" lon="2.35854">
        <ele>942.57</ele>
        <time>2021-07-31T09:42:45Z</time>
      </trkpt>
      <trkpt lat="42.31754" lon="2.35713">
        <ele>945.59</ele>
        <time>2021-07-31T09:42:55Z</time>
      </trkpt>
      <trkpt lat="42.31777" lon="2.35556">
        <ele>947.52</ele>
        <time>2021-07-31T09:43:06Z</time>
      </trkpt>
      <trkpt lat="42.31778" lon="2.35525">
        <ele>946.91</ele>
        <time>2021-07-31T09:43:12Z</time>
      </trkpt>
      <trkpt lat="42.31788" lon="2.35453">
        <ele>946.78</ele>
        <time>2021-07-31T09:43:21Z</time>
      </trkpt>
      <trkpt lat="42.31803" lon="2.35351">
        <ele>947.45</ele>
        <time>2021-07-31T09:43:28Z</time>
      </trkpt>
      <trkpt lat="42.31849" lon="2.35208">
        <ele>950.17</ele>
        <time>2021-07-31T09:43:36Z</time>
      </trkpt>
      <trkpt lat="42.31923" lon="2.35028">
        <ele>953.24</ele>
        <time>2021-07-31T09:43:47Z</time>
      </trkpt>
      <trkpt lat="42.31934" lon="2.34996">
        <ele>953.75</ele>
        <time>2021-07-31T09:43:49Z</time>
      </trkpt>
      <trkpt lat="42.31938" lon="2.34979">
        <ele>953.98</ele>
        <time>2021-07-31T09:43:50Z</time>
      </trkpt>
      <trkpt lat="42.31975" lon="2.34822">
        <ele>956.88</ele>
        <time>2021-07-31T09:44:00Z</time>
      </trkpt>
      <trkpt lat="42.3202" lon="2.34712">
        <ele>959.98</ele>
        <time>2021-07-31T09:44:07Z</time>
      </trkpt>
      <trkpt lat="42.32088" lon="2.34586">
        <ele>962.87</ele>
        <time>2021-07-31T09:44:17Z</time>
      </trkpt>
      <trkpt lat="42.32087" lon="2.34542">
        <ele>963.66</ele>
        <time>2021-07-31T09:44:22Z</time>
      </trkpt>
      <trkpt lat="42.32075" lon="2.34503">
        <ele>964.04</ele>
        <time>2021-07-31T09:44:27Z</time>
      </trkpt>
      <trkpt lat="42.32052" lon="2.34463">
        <ele>964.66</ele>
        <time>2021-07-31T09:44:33Z</time>
      </trkpt>
      <trkpt lat="42.32033" lon="2.34439">
        <ele>964.87</ele>
        <time>2021-07-31T09:44:37Z</time>
      </trkpt>
      <trkpt lat="42.32033" lon="2.34396">
        <ele>965.46</ele>
        <time>2021-07-31T09:44:43Z</time>
      </trkpt>
      <trkpt lat="42.32036" lon="2.34364">
        <ele>966.2</ele>
        <time>2021-07-31T09:44:48Z</time>
      </trkpt>
      <trkpt lat="42.32026" lon="2.34306">
        <ele>968.81</ele>
        <time>2021-07-31T09:44:57Z</time>
      </trkpt>
      <trkpt lat="42.32013" lon="2.34237">
        <ele>970.72</ele>
        <time>2021-07-31T09:45:03Z</time>
      </trkpt>
      <trkpt lat="42.32035" lon="2.34165">
        <ele>972.71</ele>
        <time>2021-07-31T09:45:10Z</time>
      </trkpt>
      <trkpt lat="42.32046" lon="2.34136">
        <ele>973.49</ele>
        <time>2021-07-31T09:45:13Z</time>
      </trkpt>
      <trkpt lat="42.32071" lon="2.33996">
        <ele>975.68</ele>
        <time>2021-07-31T09:45:23Z</time>
      </trkpt>
      <trkpt lat="42.32119" lon="2.33915">
        <ele>977.36</ele>
        <time>2021-07-31T09:45:29Z</time>
      </trkpt>
      <trkpt lat="42.32176" lon="2.33856">
        <ele>979.78</ele>
        <time>2021-07-31T09:45:35Z</time>
      </trkpt>
      <trkpt lat="42.32199" lon="2.33806">
        <ele>980.72</ele>
        <time>2021-07-31T09:45:39Z</time>
      </trkpt>
      <trkpt lat="42.32245" lon="2.33734">
        <ele>981.65</ele>
        <time>2021-07-31T09:45:45Z</time>
      </trkpt>
      <trkpt lat="42.32285" lon="2.33612">
        <ele>983.36</ele>
        <time>2021-07-31T09:45:54Z</time>
      </trkpt>
      <trkpt lat="42.32323" lon="2.33471">
        <ele>985.75</ele>
        <time>2021-07-31T09:46:02Z</time>
      </trkpt>
      <trkpt lat="42.32409" lon="2.33315">
        <ele>989.04</ele>
        <time>2021-07-31T09:46:11Z</time>
      </trkpt>
      <trkpt lat="42.32437" lon="2.33259">
        <ele>990.43</ele>
        <time>2021-07-31T09:46:14Z</time>
      </trkpt>
      <trkpt lat="42.32449" lon="2.33194">
        <ele>991.68</ele>
        <time>2021-07-31T09:46:17Z</time>
      </trkpt>
      <trkpt lat="42.32448" lon="2.33171">
        <ele>991.91</ele>
        <time>2021-07-31T09:46:18Z</time>
      </trkpt>
      <trkpt lat="42.32462" lon="2.33068">
        <ele>993.2</ele>
        <time>2021-07-31T09:46:23Z</time>
      </trkpt>
      <trkpt lat="42.32489" lon="2.3302">
        <ele>994.05</ele>
        <time>2021-07-31T09:46:26Z</time>
      </trkpt>
      <trkpt lat="42.32547" lon="2.32866">
        <ele>996.21</ele>
        <time>2021-07-31T09:46:34Z</time>
      </trkpt>
      <trkpt lat="42.32554" lon="2.3285">
        <ele>996.48</ele>
        <time>2021-07-31T09:46:35Z</time>
      </trkpt>
      <trkpt lat="42.32565" lon="2.32766">
        <ele>997.65</ele>
        <time>2021-07-31T09:46:40Z</time>
      </trkpt>
      <trkpt lat="42.32562" lon="2.32715">
        <ele>998.43</ele>
        <time>2021-07-31T09:46:43Z</time>
      </trkpt>
      <trkpt lat="42.32588" lon="2.32554">
        <ele>1000.5</ele>
        <time>2021-07-31T09:46:52Z</time>
      </trkpt>
      <trkpt lat="42.32626" lon="2.32347">
        <ele>1003.76</ele>
        <time>2021-07-31T09:47:02Z</time>
      </trkpt>
      <trkpt lat="42.32652" lon="2.32201">
        <ele>1006.89</ele>
        <time>2021-07-31T09:47:09Z</time>
      </trkpt>
      <trkpt lat="42.32676" lon="2.32084">
        <ele>1010.01</ele>
        <time>2021-07-31T09:47:15Z</time>
      </trkpt>
      <trkpt lat="42.32712" lon="2.31977">
        <ele>1013.17</ele>
        <time>2021-07-31T09:47:21Z</time>
      </trkpt>
      <trkpt lat="42.32761" lon="2.31837">
        <ele>1015.75</ele>
        <time>2021-07-31T09:47:29Z</time>
      </trkpt>
      <trkpt lat="42.32852" lon="2.31659">
        <ele>1018.79</ele>
        <time>2021-07-31T09:47:40Z</time>
      </trkpt>
      <trkpt lat="42.32865" lon="2.31586">
        <ele>1020.8</ele>
        <time>2021-07-31T09:47:44Z</time>
      </trkpt>
      <trkpt lat="42.32893" lon="2.31439">
        <ele>1024.51</ele>
        <time>2021-07-31T09:47:52Z</time>
      </trkpt>
      <trkpt lat="42.32932" lon="2.31314">
        <ele>1027.17</ele>
        <time>2021-07-31T09:48:00Z</time>
      </trkpt>
      <trkpt lat="42.32958" lon="2.31216">
        <ele>1029.52</ele>
        <time>2021-07-31T09:48:09Z</time>
      </trkpt>
      <trkpt lat="42.32989" lon="2.31138">
        <ele>1030.74</ele>
        <time>2021-07-31T09:48:17Z</time>
      </trkpt>
      <trkpt lat="42.33034" lon="2.31102">
        <ele>1031.65</ele>
        <time>2021-07-31T09:48:22Z</time>
      </trkpt>
      <trkpt lat="42.33092" lon="2.31084">
        <ele>1034.83</ele>
        <time>2021-07-31T09:48:30Z</time>
      </trkpt>
      <trkpt lat="42.33103" lon="2.31077">
        <ele>1035.98</ele>
        <time>2021-07-31T09:48:33Z</time>
      </trkpt>
      <trkpt lat="42.33158" lon="2.31004">
        <ele>1039.42</ele>
        <time>2021-07-31T09:48:45Z</time>
      </trkpt>
      <trkpt lat="42.33223" lon="2.30917">
        <ele>1042.76</ele>
        <time>2021-07-31T09:48:55Z</time>
      </trkpt>
      <trkpt lat="42.33307" lon="2.30835">
        <ele>1045.36</ele>
        <time>2021-07-31T09:49:03Z</time>
      </trkpt>
      <trkpt lat="42.33343" lon="2.30791">
        <ele>1047.27</ele>
        <time>2021-07-31T09:49:07Z</time>
      </trkpt>
      <trkpt lat="42.33359" lon="2.30773">
        <ele>1047.94</ele>
        <time>2021-07-31T09:49:09Z</time>
      </trkpt>
      <trkpt lat="42.33406" lon="2.30731">
        <ele>1048.8</ele>
        <time>2021-07-31T09:49:17Z</time>
      </trkpt>
      <trkpt lat="42.33486" lon="2.30659">
        <ele>1051.16</ele>
        <time>2021-07-31T09:49:26Z</time>
      </trkpt>
      <trkpt lat="42.33564" lon="2.30591">
        <ele>1054.17</ele>
        <time>2021-07-31T09:49:35Z</time>
      </trkpt>
      <trkpt lat="42.33657" lon="2.30544">
        <ele>1057.49</ele>
        <time>2021-07-31T09:49:43Z</time>
      </trkpt>
      <trkpt lat="42.33724" lon="2.30491">
        <ele>1061.03</ele>
        <time>2021-07-31T09:49:48Z</time>
      </trkpt>
      <trkpt lat="42.33738" lon="2.30482">
        <ele>1061.62</ele>
        <time>2021-07-31T09:49:49Z</time>
      </trkpt>
      <trkpt lat="42.33819" lon="2.30473">
        <ele>1063.77</ele>
        <time>2021-07-31T09:49:55Z</time>
      </trkpt>
      <trkpt lat="42.33886" lon="2.3043">
        <ele>1065.99</ele>
        <time>2021-07-31T09:50:01Z</time>
      </trkpt>
      <trkpt lat="42.33904" lon="2.30402">
        <ele>1066.85</ele>
        <time>2021-07-31T09:50:03Z</time>
      </trkpt>
      <trkpt lat="42.33988" lon="2.30347">
        <ele>1069.12</ele>
        <time>2021-07-31T09:50:10Z</time>
      </trkpt>
      <trkpt lat="42.33998" lon="2.3034">
        <ele>1069.39</ele>
        <time>2021-07-31T09:50:11Z</time>
      </trkpt>
      <trkpt lat="42.34037" lon="2.30244">
        <ele>1071.66</ele>
        <time>2021-07-31T09:50:18Z</time>
      </trkpt>
      <trkpt lat="42.34093" lon="2.3011">
        <ele>1074.5</ele>
        <time>2021-07-31T09:50:26Z</time>
      </trkpt>
      <trkpt lat="42.34171" lon="2.3001">
        <ele>1077</ele>
        <time>2021-07-31T09:50:33Z</time>
      </trkpt>
      <trkpt lat="42.34214" lon="2.29912">
        <ele>1079.41</ele>
        <time>2021-07-31T09:50:39Z</time>
      </trkpt>
      <trkpt lat="42.34229" lon="2.29852">
        <ele>1081.16</ele>
        <time>2021-07-31T09:50:43Z</time>
      </trkpt>
      <trkpt lat="42.34235" lon="2.29836">
        <ele>1081.83</ele>
        <time>2021-07-31T09:50:45Z</time>
      </trkpt>
      <trkpt lat="42.34219" lon="2.298">
        <ele>1084.02</ele>
        <time>2021-07-31T09:50:51Z</time>
      </trkpt>
      <trkpt lat="42.34215" lon="2.2979">
        <ele>1084.28</ele>
        <time>2021-07-31T09:50:52Z</time>
      </trkpt>
      <trkpt lat="42.34194" lon="2.29744">
        <ele>1085.42</ele>
        <time>2021-07-31T09:50:56Z</time>
      </trkpt>
      <trkpt lat="42.34177" lon="2.29723">
        <ele>1086.05</ele>
        <time>2021-07-31T09:50:58Z</time>
      </trkpt>
      <trkpt lat="42.34156" lon="2.29698">
        <ele>1086.61</ele>
        <time>2021-07-31T09:51:00Z</time>
      </trkpt>
      <trkpt lat="42.34125" lon="2.29604">
        <ele>1088.39</ele>
        <time>2021-07-31T09:51:05Z</time>
      </trkpt>
      <trkpt lat="42.34116" lon="2.29564">
        <ele>1089.56</ele>
        <time>2021-07-31T09:51:07Z</time>
      </trkpt>
      <trkpt lat="42.34064" lon="2.29445">
        <ele>1093.5</ele>
        <time>2021-07-31T09:51:13Z</time>
      </trkpt>
      <trkpt lat="42.34034" lon="2.29361">
        <ele>1096.96</ele>
        <time>2021-07-31T09:51:17Z</time>
      </trkpt>
      <trkpt lat="42.34008" lon="2.29272">
        <ele>1100.91</ele>
        <time>2021-07-31T09:51:21Z</time>
      </trkpt>
      <trkpt lat="42.34" lon="2.29252">
        <ele>1101.97</ele>
        <time>2021-07-31T09:51:22Z</time>
      </trkpt>
      <trkpt lat="42.3395" lon="2.29158">
        <ele>1106.59</ele>
        <time>2021-07-31T09:51:27Z</time>
      </trkpt>
      <trkpt lat="42.33922" lon="2.29111">
        <ele>1109.26</ele>
        <time>2021-07-31T09:51:30Z</time>
      </trkpt>
      <trkpt lat="42.33861" lon="2.29045">
        <ele>1114.15</ele>
        <time>2021-07-31T09:51:35Z</time>
      </trkpt>
      <trkpt lat="42.33826" lon="2.29009">
        <ele>1117.34</ele>
        <time>2021-07-31T09:51:38Z</time>
      </trkpt>
      <trkpt lat="42.33788" lon="2.28956">
        <ele>1121.53</ele>
        <time>2021-07-31T09:51:42Z</time>
      </trkpt>
      <trkpt lat="42.33744" lon="2.28912">
        <ele>1125.93</ele>
        <time>2021-07-31T09:51:46Z</time>
      </trkpt>
      <trkpt lat="42.33718" lon="2.28885">
        <ele>1129</ele>
        <time>2021-07-31T09:51:49Z</time>
      </trkpt>
      <trkpt lat="42.33722" lon="2.28845">
        <ele>1132.68</ele>
        <time>2021-07-31T09:51:54Z</time>
      </trkpt>
      <trkpt lat="42.33749" lon="2.28872">
        <ele>1135.14</ele>
        <time>2021-07-31T09:51:58Z</time>
      </trkpt>
      <trkpt lat="42.33769" lon="2.28906">
        <ele>1137.32</ele>
        <time>2021-07-31T09:52:01Z</time>
      </trkpt>
      <trkpt lat="42.33821" lon="2.28946">
        <ele>1141.18</ele>
        <time>2021-07-31T09:52:06Z</time>
      </trkpt>
      <trkpt lat="42.33853" lon="2.28973">
        <ele>1144.55</ele>
        <time>2021-07-31T09:52:10Z</time>
      </trkpt>
      <trkpt lat="42.33906" lon="2.28974">
        <ele>1148.44</ele>
        <time>2021-07-31T09:52:16Z</time>
      </trkpt>
      <trkpt lat="42.33943" lon="2.28978">
        <ele>1151.51</ele>
        <time>2021-07-31T09:52:21Z</time>
      </trkpt>
      <trkpt lat="42.33963" lon="2.29021">
        <ele>1154.56</ele>
        <time>2021-07-31T09:52:26Z</time>
      </trkpt>
      <trkpt lat="42.33968" lon="2.29023">
        <ele>1154.84</ele>
        <time>2021-07-31T09:52:27Z</time>
      </trkpt>
      <trkpt lat="42.33982" lon="2.29023">
        <ele>1155.56</ele>
        <time>2021-07-31T09:52:30Z</time>
      </trkpt>
      <trkpt lat="42.34004" lon="2.29049">
        <ele>1156.63</ele>
        <time>2021-07-31T09:52:36Z</time>
      </trkpt>
      <trkpt lat="42.34025" lon="2.2912">
        <ele>1157.92</ele>
        <time>2021-07-31T09:52:42Z</time>
      </trkpt>
      <trkpt lat="42.34057" lon="2.2917">
        <ele>1159.74</ele>
        <time>2021-07-31T09:52:47Z</time>
      </trkpt>
      <trkpt lat="42.34119" lon="2.29166">
        <ele>1163.1</ele>
        <time>2021-07-31T09:52:54Z</time>
      </trkpt>
      <trkpt lat="42.34163" lon="2.29199">
        <ele>1167.5</ele>
        <time>2021-07-31T09:53:01Z</time>
      </trkpt>
      <trkpt lat="42.34157" lon="2.29228">
        <ele>1168.8</ele>
        <time>2021-07-31T09:53:03Z</time>
      </trkpt>
      <trkpt lat="42.34182" lon="2.29327">
        <ele>1172.61</ele>
        <time>2021-07-31T09:53:10Z</time>
      </trkpt>
      <trkpt lat="42.34215" lon="2.29397">
        <ele>1176.36</ele>
        <time>2021-07-31T09:53:15Z</time>
      </trkpt>
      <trkpt lat="42.34233" lon="2.29436">
        <ele>1179.67</ele>
        <time>2021-07-31T09:53:19Z</time>
      </trkpt>
      <trkpt lat="42.34242" lon="2.29436">
        <ele>1183.95</ele>
        <time>2021-07-31T09:53:25Z</time>
      </trkpt>
      <trkpt lat="42.34221" lon="2.29405">
        <ele>1185.88</ele>
        <time>2021-07-31T09:53:28Z</time>
      </trkpt>
      <trkpt lat="42.342" lon="2.29326">
        <ele>1188.92</ele>
        <time>2021-07-31T09:53:33Z</time>
      </trkpt>
      <trkpt lat="42.34188" lon="2.29258">
        <ele>1192.21</ele>
        <time>2021-07-31T09:53:37Z</time>
      </trkpt>
      <trkpt lat="42.34197" lon="2.29212">
        <ele>1195.22</ele>
        <time>2021-07-31T09:53:41Z</time>
      </trkpt>
      <trkpt lat="42.34203" lon="2.29163">
        <ele>1198.67</ele>
        <time>2021-07-31T09:53:46Z</time>
      </trkpt>
      <trkpt lat="42.34197" lon="2.29141">
        <ele>1200.06</ele>
        <time>2021-07-31T09:53:48Z</time>
      </trkpt>
      <trkpt lat="42.34195" lon="2.29093">
        <ele>1202.32</ele>
        <time>2021-07-31T09:53:52Z</time>
      </trkpt>
      <trkpt lat="42.34155" lon="2.29078">
        <ele>1206.04</ele>
        <time>2021-07-31T09:53:58Z</time>
      </trkpt>
      <trkpt lat="42.34123" lon="2.29087">
        <ele>1207.63</ele>
        <time>2021-07-31T09:54:01Z</time>
      </trkpt>
      <trkpt lat="42.34086" lon="2.29041">
        <ele>1211.3</ele>
        <time>2021-07-31T09:54:07Z</time>
      </trkpt>
      <trkpt lat="42.34085" lon="2.29029">
        <ele>1211.73</ele>
        <time>2021-07-31T09:54:08Z</time>
      </trkpt>
      <trkpt lat="42.34082" lon="2.28994">
        <ele>1214.92</ele>
        <time>2021-07-31T09:54:15Z</time>
      </trkpt>
      <trkpt lat="42.34081" lon="2.28979">
        <ele>1216.84</ele>
        <time>2021-07-31T09:54:25Z</time>
      </trkpt>
      <trkpt lat="42.3408" lon="2.28974">
        <ele>1217</ele>
        <time>2021-07-31T09:54:26Z</time>
      </trkpt>
      <trkpt lat="42.34081" lon="2.28952">
        <ele>1217.5</ele>
        <time>2021-07-31T09:54:29Z</time>
      </trkpt>
      <trkpt lat="42.34085" lon="2.28925">
        <ele>1218.02</ele>
        <time>2021-07-31T09:54:32Z</time>
      </trkpt>
      <trkpt lat="42.3407" lon="2.28887">
        <ele>1219.74</ele>
        <time>2021-07-31T09:54:37Z</time>
      </trkpt>
      <trkpt lat="42.34059" lon="2.2887">
        <ele>1220.46</ele>
        <time>2021-07-31T09:54:39Z</time>
      </trkpt>
      <trkpt lat="42.34045" lon="2.28767">
        <ele>1223.87</ele>
        <time>2021-07-31T09:54:47Z</time>
      </trkpt>
      <trkpt lat="42.34007" lon="2.28714">
        <ele>1227.37</ele>
        <time>2021-07-31T09:54:52Z</time>
      </trkpt>
      <trkpt lat="42.33983" lon="2.28715">
        <ele>1229.73</ele>
        <time>2021-07-31T09:54:55Z</time>
      </trkpt>
      <trkpt lat="42.33945" lon="2.28693">
        <ele>1234.09</ele>
        <time>2021-07-31T09:55:01Z</time>
      </trkpt>
      <trkpt lat="42.33902" lon="2.28643">
        <ele>1238.17</ele>
        <time>2021-07-31T09:55:07Z</time>
      </trkpt>
      <trkpt lat="42.33882" lon="2.286">
        <ele>1241.15</ele>
        <time>2021-07-31T09:55:11Z</time>
      </trkpt>
      <trkpt lat="42.33869" lon="2.28522">
        <ele>1245.75</ele>
        <time>2021-07-31T09:55:16Z</time>
      </trkpt>
      <trkpt lat="42.33867" lon="2.28446">
        <ele>1249.91</ele>
        <time>2021-07-31T09:55:20Z</time>
      </trkpt>
      <trkpt lat="42.33863" lon="2.2839">
        <ele>1253.43</ele>
        <time>2021-07-31T09:55:23Z</time>
      </trkpt>
      <trkpt lat="42.33863" lon="2.28371">
        <ele>1254.53</ele>
        <time>2021-07-31T09:55:24Z</time>
      </trkpt>
      <trkpt lat="42.33875" lon="2.2831">
        <ele>1258.63</ele>
        <time>2021-07-31T09:55:28Z</time>
      </trkpt>
      <trkpt lat="42.33896" lon="2.28268">
        <ele>1261.4</ele>
        <time>2021-07-31T09:55:31Z</time>
      </trkpt>
      <trkpt lat="42.33938" lon="2.28219">
        <ele>1266.36</ele>
        <time>2021-07-31T09:55:36Z</time>
      </trkpt>
      <trkpt lat="42.33934" lon="2.28188">
        <ele>1269.08</ele>
        <time>2021-07-31T09:55:39Z</time>
      </trkpt>
      <trkpt lat="42.33942" lon="2.28124">
        <ele>1274.04</ele>
        <time>2021-07-31T09:55:45Z</time>
      </trkpt>
      <trkpt lat="42.33959" lon="2.2809">
        <ele>1277.81</ele>
        <time>2021-07-31T09:55:52Z</time>
      </trkpt>
      <trkpt lat="42.33971" lon="2.28052">
        <ele>1281.12</ele>
        <time>2021-07-31T09:56:00Z</time>
      </trkpt>
      <trkpt lat="42.33985" lon="2.27967">
        <ele>1284.2</ele>
        <time>2021-07-31T09:56:07Z</time>
      </trkpt>
      <trkpt lat="42.33989" lon="2.27918">
        <ele>1286.61</ele>
        <time>2021-07-31T09:56:11Z</time>
      </trkpt>
      <trkpt lat="42.33998" lon="2.27909">
        <ele>1287.84</ele>
        <time>2021-07-31T09:56:14Z</time>
      </trkpt>
      <trkpt lat="42.34001" lon="2.27941">
        <ele>1289.09</ele>
        <time>2021-07-31T09:56:18Z</time>
      </trkpt>
      <trkpt lat="42.33991" lon="2.28044">
        <ele>1292.63</ele>
        <time>2021-07-31T09:56:25Z</time>
      </trkpt>
      <trkpt lat="42.3399" lon="2.28059">
        <ele>1293.26</ele>
        <time>2021-07-31T09:56:26Z</time>
      </trkpt>
      <trkpt lat="42.33986" lon="2.28085">
        <ele>1294.35</ele>
        <time>2021-07-31T09:56:28Z</time>
      </trkpt>
      <trkpt lat="42.33993" lon="2.28156">
        <ele>1297.62</ele>
        <time>2021-07-31T09:56:34Z</time>
      </trkpt>
      <trkpt lat="42.34017" lon="2.28204">
        <ele>1299.61</ele>
        <time>2021-07-31T09:56:38Z</time>
      </trkpt>
      <trkpt lat="42.34025" lon="2.2824">
        <ele>1301.28</ele>
        <time>2021-07-31T09:56:41Z</time>
      </trkpt>
      <trkpt lat="42.34005" lon="2.28312">
        <ele>1305.38</ele>
        <time>2021-07-31T09:56:48Z</time>
      </trkpt>
      <trkpt lat="42.33998" lon="2.28321">
        <ele>1305.96</ele>
        <time>2021-07-31T09:56:49Z</time>
      </trkpt>
      <trkpt lat="42.33972" lon="2.28351">
        <ele>1308.03</ele>
        <time>2021-07-31T09:56:53Z</time>
      </trkpt>
      <trkpt lat="42.33975" lon="2.28411">
        <ele>1310.77</ele>
        <time>2021-07-31T09:56:59Z</time>
      </trkpt>
      <trkpt lat="42.3398" lon="2.28421">
        <ele>1311.26</ele>
        <time>2021-07-31T09:57:00Z</time>
      </trkpt>
      <trkpt lat="42.34036" lon="2.28501">
        <ele>1315.09</ele>
        <time>2021-07-31T09:57:09Z</time>
      </trkpt>
      <trkpt lat="42.34044" lon="2.2851">
        <ele>1315.54</ele>
        <time>2021-07-31T09:57:10Z</time>
      </trkpt>
      <trkpt lat="42.34103" lon="2.28552">
        <ele>1319.09</ele>
        <time>2021-07-31T09:57:16Z</time>
      </trkpt>
      <trkpt lat="42.34141" lon="2.28583">
        <ele>1322.12</ele>
        <time>2021-07-31T09:57:20Z</time>
      </trkpt>
      <trkpt lat="42.34166" lon="2.28607">
        <ele>1325.58</ele>
        <time>2021-07-31T09:57:23Z</time>
      </trkpt>
      <trkpt lat="42.34191" lon="2.2865">
        <ele>1329.73</ele>
        <time>2021-07-31T09:57:28Z</time>
      </trkpt>
      <trkpt lat="42.34192" lon="2.28656">
        <ele>1330.3</ele>
        <time>2021-07-31T09:57:29Z</time>
      </trkpt>
      <trkpt lat="42.34195" lon="2.28665">
        <ele>1331.04</ele>
        <time>2021-07-31T09:57:31Z</time>
      </trkpt>
      <trkpt lat="42.34207" lon="2.28686">
        <ele>1332.09</ele>
        <time>2021-07-31T09:57:35Z</time>
      </trkpt>
      <trkpt lat="42.34216" lon="2.2872">
        <ele>1333.08</ele>
        <time>2021-07-31T09:57:39Z</time>
      </trkpt>
      <trkpt lat="42.34245" lon="2.28771">
        <ele>1334.03</ele>
        <time>2021-07-31T09:57:45Z</time>
      </trkpt>
      <trkpt lat="42.34323" lon="2.28821">
        <ele>1336.2</ele>
        <time>2021-07-31T09:57:54Z</time>
      </trkpt>
      <trkpt lat="42.34347" lon="2.28845">
        <ele>1337.29</ele>
        <time>2021-07-31T09:57:58Z</time>
      </trkpt>
      <trkpt lat="42.34366" lon="2.28867">
        <ele>1338.38</ele>
        <time>2021-07-31T09:58:01Z</time>
      </trkpt>
      <trkpt lat="42.34414" lon="2.28968">
        <ele>1342.19</ele>
        <time>2021-07-31T09:58:10Z</time>
      </trkpt>
      <trkpt lat="42.34421" lon="2.28958">
        <ele>1345.35</ele>
        <time>2021-07-31T09:58:16Z</time>
      </trkpt>
      <trkpt lat="42.34416" lon="2.28941">
        <ele>1346.19</ele>
        <time>2021-07-31T09:58:18Z</time>
      </trkpt>
      <trkpt lat="42.34397" lon="2.28857">
        <ele>1349.74</ele>
        <time>2021-07-31T09:58:25Z</time>
      </trkpt>
      <trkpt lat="42.34385" lon="2.28805">
        <ele>1353.06</ele>
        <time>2021-07-31T09:58:32Z</time>
      </trkpt>
      <trkpt lat="42.3438" lon="2.28782">
        <ele>1356.33</ele>
        <time>2021-07-31T09:58:39Z</time>
      </trkpt>
      <trkpt lat="42.34379" lon="2.28783">
        <ele>1359.24</ele>
        <time>2021-07-31T09:58:57Z</time>
      </trkpt>
      <trkpt lat="42.3438" lon="2.2878">
        <ele>1359.56</ele>
        <time>2021-07-31T09:59:29Z</time>
      </trkpt>
      <trkpt lat="42.34391" lon="2.28778">
        <ele>1359.81</ele>
        <time>2021-07-31T09:59:33Z</time>
      </trkpt>
      <trkpt lat="42.34422" lon="2.28798">
        <ele>1362.01</ele>
        <time>2021-07-31T09:59:40Z</time>
      </trkpt>
      <trkpt lat="42.34449" lon="2.28845">
        <ele>1365.61</ele>
        <time>2021-07-31T09:59:47Z</time>
      </trkpt>
      <trkpt lat="42.34456" lon="2.28854">
        <ele>1366.82</ele>
        <time>2021-07-31T09:59:49Z</time>
      </trkpt>
      <trkpt lat="42.34481" lon="2.28875">
        <ele>1369.51</ele>
        <time>2021-07-31T09:59:54Z</time>
      </trkpt>
      <trkpt lat="42.34503" lon="2.28856">
        <ele>1373.48</ele>
        <time>2021-07-31T10:00:00Z</time>
      </trkpt>
      <trkpt lat="42.34496" lon="2.28838">
        <ele>1374.84</ele>
        <time>2021-07-31T10:00:02Z</time>
      </trkpt>
      <trkpt lat="42.34482" lon="2.28807">
        <ele>1376.96</ele>
        <time>2021-07-31T10:00:05Z</time>
      </trkpt>
      <trkpt lat="42.34464" lon="2.28742">
        <ele>1380.91</ele>
        <time>2021-07-31T10:00:10Z</time>
      </trkpt>
      <trkpt lat="42.34444" lon="2.2869">
        <ele>1384.34</ele>
        <time>2021-07-31T10:00:14Z</time>
      </trkpt>
      <trkpt lat="42.34425" lon="2.28637">
        <ele>1388.18</ele>
        <time>2021-07-31T10:00:18Z</time>
      </trkpt>
      <trkpt lat="42.34413" lon="2.28609">
        <ele>1391.25</ele>
        <time>2021-07-31T10:00:21Z</time>
      </trkpt>
      <trkpt lat="42.34408" lon="2.28602">
        <ele>1392.21</ele>
        <time>2021-07-31T10:00:22Z</time>
      </trkpt>
      <trkpt lat="42.34388" lon="2.28584">
        <ele>1396.02</ele>
        <time>2021-07-31T10:00:26Z</time>
      </trkpt>
      <trkpt lat="42.34374" lon="2.28579">
        <ele>1398.12</ele>
        <time>2021-07-31T10:00:29Z</time>
      </trkpt>
      <trkpt lat="42.34351" lon="2.28565">
        <ele>1400.86</ele>
        <time>2021-07-31T10:00:33Z</time>
      </trkpt>
      <trkpt lat="42.34314" lon="2.2851">
        <ele>1405.39</ele>
        <time>2021-07-31T10:00:39Z</time>
      </trkpt>
      <trkpt lat="42.34291" lon="2.28468">
        <ele>1410.25</ele>
        <time>2021-07-31T10:00:43Z</time>
      </trkpt>
      <trkpt lat="42.3427" lon="2.28424">
        <ele>1414.17</ele>
        <time>2021-07-31T10:00:47Z</time>
      </trkpt>
      <trkpt lat="42.34269" lon="2.28368">
        <ele>1418.2</ele>
        <time>2021-07-31T10:00:51Z</time>
      </trkpt>
      <trkpt lat="42.34275" lon="2.28339">
        <ele>1420.42</ele>
        <time>2021-07-31T10:00:53Z</time>
      </trkpt>
      <trkpt lat="42.3429" lon="2.28283">
        <ele>1424.9</ele>
        <time>2021-07-31T10:00:57Z</time>
      </trkpt>
      <trkpt lat="42.34294" lon="2.28271">
        <ele>1426.02</ele>
        <time>2021-07-31T10:00:58Z</time>
      </trkpt>
      <trkpt lat="42.34326" lon="2.28213">
        <ele>1431.03</ele>
        <time>2021-07-31T10:01:03Z</time>
      </trkpt>
      <trkpt lat="42.34347" lon="2.28176">
        <ele>1434.38</ele>
        <time>2021-07-31T10:01:06Z</time>
      </trkpt>
      <trkpt lat="42.34363" lon="2.28144">
        <ele>1437.45</ele>
        <time>2021-07-31T10:01:09Z</time>
      </trkpt>
      <trkpt lat="42.34383" lon="2.28095">
        <ele>1440.79</ele>
        <time>2021-07-31T10:01:13Z</time>
      </trkpt>
      <trkpt lat="42.34406" lon="2.28038">
        <ele>1444.68</ele>
        <time>2021-07-31T10:01:17Z</time>
      </trkpt>
      <trkpt lat="42.34418" lon="2.28011">
        <ele>1446.92</ele>
        <time>2021-07-31T10:01:19Z</time>
      </trkpt>
      <trkpt lat="42.34445" lon="2.28006">
        <ele>1451.64</ele>
        <time>2021-07-31T10:01:24Z</time>
      </trkpt>
      <trkpt lat="42.3444" lon="2.28049">
        <ele>1454.75</ele>
        <time>2021-07-31T10:01:28Z</time>
      </trkpt>
      <trkpt lat="42.3443" lon="2.2814">
        <ele>1460.12</ele>
        <time>2021-07-31T10:01:34Z</time>
      </trkpt>
      <trkpt lat="42.34428" lon="2.28193">
        <ele>1463.64</ele>
        <time>2021-07-31T10:01:37Z</time>
      </trkpt>
      <trkpt lat="42.34426" lon="2.28243">
        <ele>1467.66</ele>
        <time>2021-07-31T10:01:40Z</time>
      </trkpt>
      <trkpt lat="42.34425" lon="2.28256">
        <ele>1468.91</ele>
        <time>2021-07-31T10:01:41Z</time>
      </trkpt>
      <trkpt lat="42.34436" lon="2.28304">
        <ele>1473.15</ele>
        <time>2021-07-31T10:01:45Z</time>
      </trkpt>
      <trkpt lat="42.34453" lon="2.28321">
        <ele>1475.2</ele>
        <time>2021-07-31T10:01:47Z</time>
      </trkpt>
      <trkpt lat="42.34491" lon="2.28356">
        <ele>1478.92</ele>
        <time>2021-07-31T10:01:51Z</time>
      </trkpt>
      <trkpt lat="42.34528" lon="2.28367">
        <ele>1483.27</ele>
        <time>2021-07-31T10:01:55Z</time>
      </trkpt>
      <trkpt lat="42.34548" lon="2.28356">
        <ele>1485.27</ele>
        <time>2021-07-31T10:01:57Z</time>
      </trkpt>
      <trkpt lat="42.34589" lon="2.2833">
        <ele>1489.31</ele>
        <time>2021-07-31T10:02:01Z</time>
      </trkpt>
      <trkpt lat="42.34616" lon="2.28314">
        <ele>1492.38</ele>
        <time>2021-07-31T10:02:04Z</time>
      </trkpt>
      <trkpt lat="42.34653" lon="2.28291">
        <ele>1495.89</ele>
        <time>2021-07-31T10:02:08Z</time>
      </trkpt>
      <trkpt lat="42.34679" lon="2.2827">
        <ele>1498.93</ele>
        <time>2021-07-31T10:02:11Z</time>
      </trkpt>
      <trkpt lat="42.34713" lon="2.28236">
        <ele>1502.49</ele>
        <time>2021-07-31T10:02:15Z</time>
      </trkpt>
      <trkpt lat="42.34739" lon="2.2821">
        <ele>1505.49</ele>
        <time>2021-07-31T10:02:18Z</time>
      </trkpt>
      <trkpt lat="42.34771" lon="2.28178">
        <ele>1509.21</ele>
        <time>2021-07-31T10:02:22Z</time>
      </trkpt>
      <trkpt lat="42.34795" lon="2.28153">
        <ele>1513.09</ele>
        <time>2021-07-31T10:02:25Z</time>
      </trkpt>
      <trkpt lat="42.3482" lon="2.28124">
        <ele>1516.1</ele>
        <time>2021-07-31T10:02:28Z</time>
      </trkpt>
      <trkpt lat="42.34848" lon="2.28096">
        <ele>1519.24</ele>
        <time>2021-07-31T10:02:31Z</time>
      </trkpt>
      <trkpt lat="42.34868" lon="2.2808">
        <ele>1521.51</ele>
        <time>2021-07-31T10:02:33Z</time>
      </trkpt>
      <trkpt lat="42.34909" lon="2.28066">
        <ele>1526.06</ele>
        <time>2021-07-31T10:02:37Z</time>
      </trkpt>
      <trkpt lat="42.34925" lon="2.28063">
        <ele>1528.25</ele>
        <time>2021-07-31T10:02:39Z</time>
      </trkpt>
      <trkpt lat="42.34925" lon="2.28037">
        <ele>1532.39</ele>
        <time>2021-07-31T10:02:44Z</time>
      </trkpt>
      <trkpt lat="42.34908" lon="2.28039">
        <ele>1533.66</ele>
        <time>2021-07-31T10:02:46Z</time>
      </trkpt>
      <trkpt lat="42.34852" lon="2.28059">
        <ele>1538.06</ele>
        <time>2021-07-31T10:02:51Z</time>
      </trkpt>
      <trkpt lat="42.34822" lon="2.28068">
        <ele>1541.17</ele>
        <time>2021-07-31T10:02:54Z</time>
      </trkpt>
      <trkpt lat="42.34792" lon="2.28077">
        <ele>1544.78</ele>
        <time>2021-07-31T10:02:58Z</time>
      </trkpt>
      <trkpt lat="42.34786" lon="2.28079">
        <ele>1545.61</ele>
        <time>2021-07-31T10:02:59Z</time>
      </trkpt>
      <trkpt lat="42.34766" lon="2.28051">
        <ele>1549.48</ele>
        <time>2021-07-31T10:03:05Z</time>
      </trkpt>
      <trkpt lat="42.34769" lon="2.2804">
        <ele>1550.86</ele>
        <time>2021-07-31T10:03:08Z</time>
      </trkpt>
      <trkpt lat="42.34806" lon="2.27972">
        <ele>1554.49</ele>
        <time>2021-07-31T10:03:18Z</time>
      </trkpt>
      <trkpt lat="42.34815" lon="2.27947">
        <ele>1555.71</ele>
        <time>2021-07-31T10:03:21Z</time>
      </trkpt>
      <trkpt lat="42.34824" lon="2.27871">
        <ele>1559.45</ele>
        <time>2021-07-31T10:03:28Z</time>
      </trkpt>
      <trkpt lat="42.34829" lon="2.27801">
        <ele>1562.85</ele>
        <time>2021-07-31T10:03:34Z</time>
      </trkpt>
      <trkpt lat="42.34827" lon="2.27746">
        <ele>1565.2</ele>
        <time>2021-07-31T10:03:38Z</time>
      </trkpt>
      <trkpt lat="42.34852" lon="2.2772">
        <ele>1569.27</ele>
        <time>2021-07-31T10:03:44Z</time>
      </trkpt>
      <trkpt lat="42.34857" lon="2.27763">
        <ele>1571.19</ele>
        <time>2021-07-31T10:03:47Z</time>
      </trkpt>
      <trkpt lat="42.3487" lon="2.27843">
        <ele>1575.13</ele>
        <time>2021-07-31T10:03:53Z</time>
      </trkpt>
      <trkpt lat="42.34879" lon="2.27875">
        <ele>1576.96</ele>
        <time>2021-07-31T10:03:56Z</time>
      </trkpt>
      <trkpt lat="42.34924" lon="2.27903">
        <ele>1581.05</ele>
        <time>2021-07-31T10:04:02Z</time>
      </trkpt>
      <trkpt lat="42.34942" lon="2.27893">
        <ele>1582.54</ele>
        <time>2021-07-31T10:04:04Z</time>
      </trkpt>
      <trkpt lat="42.34958" lon="2.27881">
        <ele>1583.86</ele>
        <time>2021-07-31T10:04:06Z</time>
      </trkpt>
      <trkpt lat="42.35011" lon="2.27883">
        <ele>1587.57</ele>
        <time>2021-07-31T10:04:12Z</time>
      </trkpt>
      <trkpt lat="42.3502" lon="2.27885">
        <ele>1588.18</ele>
        <time>2021-07-31T10:04:13Z</time>
      </trkpt>
      <trkpt lat="42.35066" lon="2.27875">
        <ele>1591.84</ele>
        <time>2021-07-31T10:04:18Z</time>
      </trkpt>
      <trkpt lat="42.35115" lon="2.27852">
        <ele>1596.32</ele>
        <time>2021-07-31T10:04:24Z</time>
      </trkpt>
      <trkpt lat="42.35152" lon="2.27832">
        <ele>1599.39</ele>
        <time>2021-07-31T10:04:28Z</time>
      </trkpt>
      <trkpt lat="42.3519" lon="2.2781">
        <ele>1602.98</ele>
        <time>2021-07-31T10:04:32Z</time>
      </trkpt>
      <trkpt lat="42.35229" lon="2.27792">
        <ele>1606.44</ele>
        <time>2021-07-31T10:04:36Z</time>
      </trkpt>
      <trkpt lat="42.35269" lon="2.27784">
        <ele>1610.11</ele>
        <time>2021-07-31T10:04:40Z</time>
      </trkpt>
      <trkpt lat="42.35307" lon="2.27778">
        <ele>1613.55</ele>
        <time>2021-07-31T10:04:44Z</time>
      </trkpt>
      <trkpt lat="42.35351" lon="2.27752">
        <ele>1618.14</ele>
        <time>2021-07-31T10:04:49Z</time>
      </trkpt>
      <trkpt lat="42.35384" lon="2.27729">
        <ele>1621.73</ele>
        <time>2021-07-31T10:04:53Z</time>
      </trkpt>
      <trkpt lat="42.3541" lon="2.27711">
        <ele>1625.21</ele>
        <time>2021-07-31T10:04:57Z</time>
      </trkpt>
      <trkpt lat="42.35406" lon="2.27679">
        <ele>1629.21</ele>
        <time>2021-07-31T10:05:03Z</time>
      </trkpt>
      <trkpt lat="42.35383" lon="2.27688">
        <ele>1631.2</ele>
        <time>2021-07-31T10:05:06Z</time>
      </trkpt>
      <trkpt lat="42.35358" lon="2.27702">
        <ele>1633.34</ele>
        <time>2021-07-31T10:05:09Z</time>
      </trkpt>
      <trkpt lat="42.35308" lon="2.27698">
        <ele>1637.2</ele>
        <time>2021-07-31T10:05:14Z</time>
      </trkpt>
      <trkpt lat="42.35264" lon="2.2768">
        <ele>1640.74</ele>
        <time>2021-07-31T10:05:18Z</time>
      </trkpt>
      <trkpt lat="42.3521" lon="2.27682">
        <ele>1644.88</ele>
        <time>2021-07-31T10:05:23Z</time>
      </trkpt>
      <trkpt lat="42.3517" lon="2.2769">
        <ele>1648.51</ele>
        <time>2021-07-31T10:05:27Z</time>
      </trkpt>
      <trkpt lat="42.35132" lon="2.27669">
        <ele>1652.89</ele>
        <time>2021-07-31T10:05:32Z</time>
      </trkpt>
      <trkpt lat="42.35107" lon="2.27617">
        <ele>1656.16</ele>
        <time>2021-07-31T10:05:37Z</time>
      </trkpt>
      <trkpt lat="42.3508" lon="2.27592">
        <ele>1658.23</ele>
        <time>2021-07-31T10:05:40Z</time>
      </trkpt>
      <trkpt lat="42.3506" lon="2.27578">
        <ele>1660.48</ele>
        <time>2021-07-31T10:05:42Z</time>
      </trkpt>
      <trkpt lat="42.35031" lon="2.27516">
        <ele>1664.87</ele>
        <time>2021-07-31T10:05:47Z</time>
      </trkpt>
      <trkpt lat="42.35018" lon="2.27452">
        <ele>1669.17</ele>
        <time>2021-07-31T10:05:52Z</time>
      </trkpt>
      <trkpt lat="42.35007" lon="2.27403">
        <ele>1672.19</ele>
        <time>2021-07-31T10:05:56Z</time>
      </trkpt>
      <trkpt lat="42.34993" lon="2.27335">
        <ele>1676</ele>
        <time>2021-07-31T10:06:01Z</time>
      </trkpt>
      <trkpt lat="42.3498" lon="2.27274">
        <ele>1679.52</ele>
        <time>2021-07-31T10:06:05Z</time>
      </trkpt>
      <trkpt lat="42.34966" lon="2.27212">
        <ele>1683.37</ele>
        <time>2021-07-31T10:06:09Z</time>
      </trkpt>
      <trkpt lat="42.34952" lon="2.27165">
        <ele>1686.84</ele>
        <time>2021-07-31T10:06:13Z</time>
      </trkpt>
      <trkpt lat="42.3495" lon="2.27156">
        <ele>1687.61</ele>
        <time>2021-07-31T10:06:14Z</time>
      </trkpt>
      <trkpt lat="42.34961" lon="2.27126">
        <ele>1691.84</ele>
        <time>2021-07-31T10:06:20Z</time>
      </trkpt>
      <trkpt lat="42.3498" lon="2.27161">
        <ele>1694.43</ele>
        <time>2021-07-31T10:06:25Z</time>
      </trkpt>
      <trkpt lat="42.34985" lon="2.27171">
        <ele>1694.91</ele>
        <time>2021-07-31T10:06:26Z</time>
      </trkpt>
      <trkpt lat="42.3502" lon="2.27241">
        <ele>1698.68</ele>
        <time>2021-07-31T10:06:32Z</time>
      </trkpt>
      <trkpt lat="42.35047" lon="2.27298">
        <ele>1702.19</ele>
        <time>2021-07-31T10:06:37Z</time>
      </trkpt>
      <trkpt lat="42.35072" lon="2.27351">
        <ele>1705.39</ele>
        <time>2021-07-31T10:06:42Z</time>
      </trkpt>
      <trkpt lat="42.35094" lon="2.27396">
        <ele>1708.44</ele>
        <time>2021-07-31T10:06:46Z</time>
      </trkpt>
      <trkpt lat="42.3514" lon="2.27424">
        <ele>1712.43</ele>
        <time>2021-07-31T10:06:51Z</time>
      </trkpt>
      <trkpt lat="42.35162" lon="2.27422">
        <ele>1713.82</ele>
        <time>2021-07-31T10:06:53Z</time>
      </trkpt>
      <trkpt lat="42.35222" lon="2.27407">
        <ele>1717.73</ele>
        <time>2021-07-31T10:06:58Z</time>
      </trkpt>
      <trkpt lat="42.35269" lon="2.27392">
        <ele>1721.53</ele>
        <time>2021-07-31T10:07:02Z</time>
      </trkpt>
      <trkpt lat="42.35317" lon="2.27358">
        <ele>1726.23</ele>
        <time>2021-07-31T10:07:07Z</time>
      </trkpt>
      <trkpt lat="42.35329" lon="2.27346">
        <ele>1729.5</ele>
        <time>2021-07-31T10:07:11Z</time>
      </trkpt>
      <trkpt lat="42.35331" lon="2.27344">
        <ele>1732.52</ele>
        <time>2021-07-31T10:07:18Z</time>
      </trkpt>
      <trkpt lat="42.35353" lon="2.27325">
        <ele>1734.35</ele>
        <time>2021-07-31T10:07:33Z</time>
      </trkpt>
      <trkpt lat="42.35401" lon="2.27283">
        <ele>1737.35</ele>
        <time>2021-07-31T10:07:41Z</time>
      </trkpt>
      <trkpt lat="42.35422" lon="2.27259">
        <ele>1739.05</ele>
        <time>2021-07-31T10:07:44Z</time>
      </trkpt>
      <trkpt lat="42.35456" lon="2.27188">
        <ele>1743.04</ele>
        <time>2021-07-31T10:07:50Z</time>
      </trkpt>
      <trkpt lat="42.35478" lon="2.27137">
        <ele>1746.14</ele>
        <time>2021-07-31T10:07:54Z</time>
      </trkpt>
      <trkpt lat="42.35501" lon="2.27086">
        <ele>1749.83</ele>
        <time>2021-07-31T10:07:58Z</time>
      </trkpt>
      <trkpt lat="42.35521" lon="2.27046">
        <ele>1753.26</ele>
        <time>2021-07-31T10:08:02Z</time>
      </trkpt>
      <trkpt lat="42.35511" lon="2.27012">
        <ele>1757.29</ele>
        <time>2021-07-31T10:08:07Z</time>
      </trkpt>
      <trkpt lat="42.35481" lon="2.27032">
        <ele>1759.6</ele>
        <time>2021-07-31T10:08:10Z</time>
      </trkpt>
      <trkpt lat="42.35461" lon="2.27049">
        <ele>1761.58</ele>
        <time>2021-07-31T10:08:12Z</time>
      </trkpt>
      <trkpt lat="42.35405" lon="2.27082">
        <ele>1766.3</ele>
        <time>2021-07-31T10:08:17Z</time>
      </trkpt>
      <trkpt lat="42.35363" lon="2.27119">
        <ele>1770.34</ele>
        <time>2021-07-31T10:08:21Z</time>
      </trkpt>
      <trkpt lat="42.35331" lon="2.27149">
        <ele>1773.55</ele>
        <time>2021-07-31T10:08:24Z</time>
      </trkpt>
      <trkpt lat="42.35319" lon="2.27157">
        <ele>1774.63</ele>
        <time>2021-07-31T10:08:25Z</time>
      </trkpt>
      <trkpt lat="42.35268" lon="2.27175">
        <ele>1779.94</ele>
        <time>2021-07-31T10:08:29Z</time>
      </trkpt>
      <trkpt lat="42.35235" lon="2.27176">
        <ele>1783.69</ele>
        <time>2021-07-31T10:08:32Z</time>
      </trkpt>
      <trkpt lat="42.35217" lon="2.27175">
        <ele>1785.45</ele>
        <time>2021-07-31T10:08:34Z</time>
      </trkpt>
      <trkpt lat="42.35191" lon="2.27142">
        <ele>1789.84</ele>
        <time>2021-07-31T10:08:40Z</time>
      </trkpt>
      <trkpt lat="42.3519" lon="2.27125">
        <ele>1791.09</ele>
        <time>2021-07-31T10:08:42Z</time>
      </trkpt>
      <trkpt lat="42.35189" lon="2.2705">
        <ele>1794.7</ele>
        <time>2021-07-31T10:08:49Z</time>
      </trkpt>
      <trkpt lat="42.35185" lon="2.26992">
        <ele>1798.03</ele>
        <time>2021-07-31T10:08:54Z</time>
      </trkpt>
      <trkpt lat="42.35176" lon="2.26933">
        <ele>1801.25</ele>
        <time>2021-07-31T10:08:59Z</time>
      </trkpt>
      <trkpt lat="42.35167" lon="2.269">
        <ele>1803.66</ele>
        <time>2021-07-31T10:09:02Z</time>
      </trkpt>
      <trkpt lat="42.35143" lon="2.2685">
        <ele>1808.16</ele>
        <time>2021-07-31T10:09:07Z</time>
      </trkpt>
      <trkpt lat="42.35128" lon="2.26822">
        <ele>1811.25</ele>
        <time>2021-07-31T10:09:10Z</time>
      </trkpt>
      <trkpt lat="42.3511" lon="2.26791">
        <ele>1814.62</ele>
        <time>2021-07-31T10:09:14Z</time>
      </trkpt>
      <trkpt lat="42.35098" lon="2.26765">
        <ele>1817.04</ele>
        <time>2021-07-31T10:09:18Z</time>
      </trkpt>
      <trkpt lat="42.35088" lon="2.26745">
        <ele>1820.8</ele>
        <time>2021-07-31T10:09:25Z</time>
      </trkpt>
      <trkpt lat="42.35086" lon="2.26741">
        <ele>1823.36</ele>
        <time>2021-07-31T10:09:41Z</time>
      </trkpt>
      <trkpt lat="42.35086" lon="2.26741">
        <ele>1825.46</ele>
        <time>2021-07-31T10:11:12Z</time>
      </trkpt>
      <trkpt lat="42.35086" lon="2.2674">
        <ele>1824.72</ele>
        <time>2021-07-31T10:12:52Z</time>
      </trkpt>
      <trkpt lat="42.35086" lon="2.2674">
        <ele>1824.72</ele>
        <time>2021-07-31T10:14:42Z</time>
      </trkpt>
      <trkpt lat="42.35087" lon="2.2674">
        <ele>1824.72</ele>
        <time>2021-07-31T10:15:26Z</time>
      </trkpt>
      <trkpt lat="42.35085" lon="2.26729">
        <ele>1824.72</ele>
        <time>2021-07-31T10:15:30Z</time>
      </trkpt>
      <trkpt lat="42.3506" lon="2.26661">
        <ele>1824.36</ele>
        <time>2021-07-31T10:15:39Z</time>
      </trkpt>
      <trkpt lat="42.35036" lon="2.266">
        <ele>1827.43</ele>
        <time>2021-07-31T10:15:45Z</time>
      </trkpt>
      <trkpt lat="42.35021" lon="2.26558">
        <ele>1830</ele>
        <time>2021-07-31T10:15:49Z</time>
      </trkpt>
      <trkpt lat="42.35014" lon="2.26526">
        <ele>1834.67</ele>
        <time>2021-07-31T10:15:54Z</time>
      </trkpt>
      <trkpt lat="42.35014" lon="2.26512">
        <ele>1837.7</ele>
        <time>2021-07-31T10:16:04Z</time>
      </trkpt>
      <trkpt lat="42.35018" lon="2.26451">
        <ele>1839.81</ele>
        <time>2021-07-31T10:16:11Z</time>
      </trkpt>
      <trkpt lat="42.35027" lon="2.26379">
        <ele>1843.12</ele>
        <time>2021-07-31T10:16:16Z</time>
      </trkpt>
      <trkpt lat="42.35032" lon="2.26334">
        <ele>1846.02</ele>
        <time>2021-07-31T10:16:19Z</time>
      </trkpt>
      <trkpt lat="42.35026" lon="2.26258">
        <ele>1851.06</ele>
        <time>2021-07-31T10:16:24Z</time>
      </trkpt>
      <trkpt lat="42.35027" lon="2.26195">
        <ele>1855.77</ele>
        <time>2021-07-31T10:16:28Z</time>
      </trkpt>
      <trkpt lat="42.35028" lon="2.26183">
        <ele>1856.89</ele>
        <time>2021-07-31T10:16:29Z</time>
      </trkpt>
      <trkpt lat="42.35023" lon="2.26136">
        <ele>1861.09</ele>
        <time>2021-07-31T10:16:33Z</time>
      </trkpt>
      <trkpt lat="42.35016" lon="2.26076">
        <ele>1864.93</ele>
        <time>2021-07-31T10:16:37Z</time>
      </trkpt>
      <trkpt lat="42.35016" lon="2.2603">
        <ele>1868.38</ele>
        <time>2021-07-31T10:16:40Z</time>
      </trkpt>
      <trkpt lat="42.35016" lon="2.25981">
        <ele>1872.03</ele>
        <time>2021-07-31T10:16:43Z</time>
      </trkpt>
      <trkpt lat="42.35017" lon="2.2593">
        <ele>1875.67</ele>
        <time>2021-07-31T10:16:46Z</time>
      </trkpt>
      <trkpt lat="42.35019" lon="2.2588">
        <ele>1879.87</ele>
        <time>2021-07-31T10:16:49Z</time>
      </trkpt>
      <trkpt lat="42.35032" lon="2.25834">
        <ele>1884.92</ele>
        <time>2021-07-31T10:16:53Z</time>
      </trkpt>
      <trkpt lat="42.35037" lon="2.25823">
        <ele>1888.34</ele>
        <time>2021-07-31T10:16:57Z</time>
      </trkpt>
      <trkpt lat="42.35037" lon="2.25824">
        <ele>1891.47</ele>
        <time>2021-07-31T10:17:04Z</time>
      </trkpt>
      <trkpt lat="42.35043" lon="2.25809">
        <ele>1894.13</ele>
        <time>2021-07-31T10:17:33Z</time>
      </trkpt>
      <trkpt lat="42.35065" lon="2.25752">
        <ele>1895.68</ele>
        <time>2021-07-31T10:17:42Z</time>
      </trkpt>
      <trkpt lat="42.35096" lon="2.2567">
        <ele>1899.36</ele>
        <time>2021-07-31T10:17:49Z</time>
      </trkpt>
      <trkpt lat="42.35108" lon="2.25616">
        <ele>1902.95</ele>
        <time>2021-07-31T10:17:53Z</time>
      </trkpt>
      <trkpt lat="42.35116" lon="2.2556">
        <ele>1906.51</ele>
        <time>2021-07-31T10:17:57Z</time>
      </trkpt>
      <trkpt lat="42.35125" lon="2.25516">
        <ele>1909.66</ele>
        <time>2021-07-31T10:18:00Z</time>
      </trkpt>
      <trkpt lat="42.35133" lon="2.25477">
        <ele>1912.79</ele>
        <time>2021-07-31T10:18:03Z</time>
      </trkpt>
      <trkpt lat="42.3514" lon="2.25438">
        <ele>1916.32</ele>
        <time>2021-07-31T10:18:07Z</time>
      </trkpt>
      <trkpt lat="42.35146" lon="2.254">
        <ele>1919.53</ele>
        <time>2021-07-31T10:18:11Z</time>
      </trkpt>
      <trkpt lat="42.35148" lon="2.25372">
        <ele>1923.05</ele>
        <time>2021-07-31T10:18:16Z</time>
      </trkpt>
      <trkpt lat="42.35141" lon="2.25319">
        <ele>1926.45</ele>
        <time>2021-07-31T10:18:23Z</time>
      </trkpt>
      <trkpt lat="42.3513" lon="2.25257">
        <ele>1929.65</ele>
        <time>2021-07-31T10:18:28Z</time>
      </trkpt>
      <trkpt lat="42.35127" lon="2.25237">
        <ele>1931.22</ele>
        <time>2021-07-31T10:18:30Z</time>
      </trkpt>
      <trkpt lat="42.35139" lon="2.2519">
        <ele>1935.37</ele>
        <time>2021-07-31T10:18:35Z</time>
      </trkpt>
      <trkpt lat="42.35162" lon="2.25174">
        <ele>1937.47</ele>
        <time>2021-07-31T10:18:38Z</time>
      </trkpt>
      <trkpt lat="42.35207" lon="2.25155">
        <ele>1941.26</ele>
        <time>2021-07-31T10:18:43Z</time>
      </trkpt>
      <trkpt lat="42.35241" lon="2.25153">
        <ele>1944.68</ele>
        <time>2021-07-31T10:18:47Z</time>
      </trkpt>
      <trkpt lat="42.35276" lon="2.25154">
        <ele>1947.9</ele>
        <time>2021-07-31T10:18:51Z</time>
      </trkpt>
      <trkpt lat="42.3531" lon="2.25155">
        <ele>1950.9</ele>
        <time>2021-07-31T10:18:55Z</time>
      </trkpt>
      <trkpt lat="42.35345" lon="2.25147">
        <ele>1954.13</ele>
        <time>2021-07-31T10:18:59Z</time>
      </trkpt>
      <trkpt lat="42.35381" lon="2.25131">
        <ele>1957.51</ele>
        <time>2021-07-31T10:19:03Z</time>
      </trkpt>
      <trkpt lat="42.35416" lon="2.2511">
        <ele>1961.19</ele>
        <time>2021-07-31T10:19:07Z</time>
      </trkpt>
      <trkpt lat="42.35452" lon="2.25085">
        <ele>1964.97</ele>
        <time>2021-07-31T10:19:11Z</time>
      </trkpt>
      <trkpt lat="42.35471" lon="2.25072">
        <ele>1966.96</ele>
        <time>2021-07-31T10:19:13Z</time>
      </trkpt>
      <trkpt lat="42.35509" lon="2.25022">
        <ele>1972.82</ele>
        <time>2021-07-31T10:19:18Z</time>
      </trkpt>
      <trkpt lat="42.35516" lon="2.24996">
        <ele>1974.81</ele>
        <time>2021-07-31T10:19:20Z</time>
      </trkpt>
      <trkpt lat="42.35523" lon="2.24958">
        <ele>1977.32</ele>
        <time>2021-07-31T10:19:23Z</time>
      </trkpt>
      <trkpt lat="42.35513" lon="2.24873">
        <ele>1981.25</ele>
        <time>2021-07-31T10:19:29Z</time>
      </trkpt>
      <trkpt lat="42.35496" lon="2.2478">
        <ele>1984.8</ele>
        <time>2021-07-31T10:19:34Z</time>
      </trkpt>
      <trkpt lat="42.35495" lon="2.2467">
        <ele>1988.38</ele>
        <time>2021-07-31T10:19:39Z</time>
      </trkpt>
      <trkpt lat="42.35494" lon="2.24589">
        <ele>1991.71</ele>
        <time>2021-07-31T10:19:43Z</time>
      </trkpt>
      <trkpt lat="42.35495" lon="2.24555">
        <ele>1993.24</ele>
        <time>2021-07-31T10:19:45Z</time>
      </trkpt>
      <trkpt lat="42.35469" lon="2.24501">
        <ele>1996.62</ele>
        <time>2021-07-31T10:19:50Z</time>
      </trkpt>
      <trkpt lat="42.35452" lon="2.24486">
        <ele>1997.49</ele>
        <time>2021-07-31T10:19:52Z</time>
      </trkpt>
      <trkpt lat="42.3544" lon="2.24434">
        <ele>1998.03</ele>
        <time>2021-07-31T10:19:58Z</time>
      </trkpt>
      <trkpt lat="42.35459" lon="2.24411">
        <ele>1997.84</ele>
        <time>2021-07-31T10:20:01Z</time>
      </trkpt>
      <trkpt lat="42.35575" lon="2.24314">
        <ele>1996.25</ele>
        <time>2021-07-31T10:20:13Z</time>
      </trkpt>
      <trkpt lat="42.35643" lon="2.24315">
        <ele>1994.15</ele>
        <time>2021-07-31T10:20:20Z</time>
      </trkpt>
      <trkpt lat="42.35719" lon="2.24363">
        <ele>1992.14</ele>
        <time>2021-07-31T10:20:27Z</time>
      </trkpt>
      <trkpt lat="42.35836" lon="2.24367">
        <ele>1989.65</ele>
        <time>2021-07-31T10:20:37Z</time>
      </trkpt>
      <trkpt lat="42.35956" lon="2.2432">
        <ele>1987.84</ele>
        <time>2021-07-31T10:20:48Z</time>
      </trkpt>
      <trkpt lat="42.36033" lon="2.24275">
        <ele>1984.76</ele>
        <time>2021-07-31T10:20:57Z</time>
      </trkpt>
      <trkpt lat="42.36049" lon="2.24267">
        <ele>1984.2</ele>
        <time>2021-07-31T10:20:59Z</time>
      </trkpt>
      <trkpt lat="42.36069" lon="2.24241">
        <ele>1982.43</ele>
        <time>2021-07-31T10:21:05Z</time>
      </trkpt>
      <trkpt lat="42.36076" lon="2.24208">
        <ele>1981.52</ele>
        <time>2021-07-31T10:21:09Z</time>
      </trkpt>
      <trkpt lat="42.3614" lon="2.2413">
        <ele>1980.71</ele>
        <time>2021-07-31T10:21:17Z</time>
      </trkpt>
      <trkpt lat="42.36203" lon="2.24076">
        <ele>1976.95</ele>
        <time>2021-07-31T10:21:24Z</time>
      </trkpt>
      <trkpt lat="42.36209" lon="2.24043">
        <ele>1972.74</ele>
        <time>2021-07-31T10:21:30Z</time>
      </trkpt>
      <trkpt lat="42.36173" lon="2.24039">
        <ele>1971.52</ele>
        <time>2021-07-31T10:21:35Z</time>
      </trkpt>
      <trkpt lat="42.36057" lon="2.24064">
        <ele>1974.28</ele>
        <time>2021-07-31T10:21:44Z</time>
      </trkpt>
      <trkpt lat="42.35999" lon="2.24074">
        <ele>1976.17</ele>
        <time>2021-07-31T10:21:50Z</time>
      </trkpt>
      <trkpt lat="42.35968" lon="2.24078">
        <ele>1976.39</ele>
        <time>2021-07-31T10:21:53Z</time>
      </trkpt>
      <trkpt lat="42.35915" lon="2.24061">
        <ele>1976.9</ele>
        <time>2021-07-31T10:21:58Z</time>
      </trkpt>
      <trkpt lat="42.3584" lon="2.24013">
        <ele>1978.77</ele>
        <time>2021-07-31T10:22:05Z</time>
      </trkpt>
      <trkpt lat="42.35814" lon="2.2397">
        <ele>1979.02</ele>
        <time>2021-07-31T10:22:09Z</time>
      </trkpt>
      <trkpt lat="42.35794" lon="2.23911">
        <ele>1978.59</ele>
        <time>2021-07-31T10:22:15Z</time>
      </trkpt>
      <trkpt lat="42.35795" lon="2.23912">
        <ele>1975.15</ele>
        <time>2021-07-31T10:22:21Z</time>
      </trkpt>
      <trkpt lat="42.35795" lon="2.23912">
        <ele>1972.11</ele>
        <time>2021-07-31T10:22:40Z</time>
      </trkpt>
      <trkpt lat="42.35793" lon="2.23905">
        <ele>1971.83</ele>
        <time>2021-07-31T10:22:50Z</time>
      </trkpt>
      <trkpt lat="42.35772" lon="2.23849">
        <ele>1972.06</ele>
        <time>2021-07-31T10:22:57Z</time>
      </trkpt>
      <trkpt lat="42.35727" lon="2.23815">
        <ele>1972.3</ele>
        <time>2021-07-31T10:23:03Z</time>
      </trkpt>
      <trkpt lat="42.35615" lon="2.23793">
        <ele>1975.54</ele>
        <time>2021-07-31T10:23:11Z</time>
      </trkpt>
      <trkpt lat="42.35601" lon="2.23787">
        <ele>1976.17</ele>
        <time>2021-07-31T10:23:12Z</time>
      </trkpt>
      <trkpt lat="42.35502" lon="2.23705">
        <ele>1979.79</ele>
        <time>2021-07-31T10:23:19Z</time>
      </trkpt>
      <trkpt lat="42.35394" lon="2.23599">
        <ele>1981.96</ele>
        <time>2021-07-31T10:23:28Z</time>
      </trkpt>
      <trkpt lat="42.3538" lon="2.23532">
        <ele>1979.91</ele>
        <time>2021-07-31T10:23:34Z</time>
      </trkpt>
      <trkpt lat="42.35398" lon="2.23509">
        <ele>1978.61</ele>
        <time>2021-07-31T10:23:36Z</time>
      </trkpt>
      <trkpt lat="42.35441" lon="2.23465">
        <ele>1976.61</ele>
        <time>2021-07-31T10:23:40Z</time>
      </trkpt>
      <trkpt lat="42.35508" lon="2.2335">
        <ele>1975.86</ele>
        <time>2021-07-31T10:23:48Z</time>
      </trkpt>
      <trkpt lat="42.35538" lon="2.23291">
        <ele>1974.02</ele>
        <time>2021-07-31T10:23:52Z</time>
      </trkpt>
      <trkpt lat="42.35536" lon="2.23237">
        <ele>1972.43</ele>
        <time>2021-07-31T10:23:57Z</time>
      </trkpt>
      <trkpt lat="42.35521" lon="2.23215">
        <ele>1971.12</ele>
        <time>2021-07-31T10:24:00Z</time>
      </trkpt>
      <trkpt lat="42.35525" lon="2.23159">
        <ele>1969.76</ele>
        <time>2021-07-31T10:24:06Z</time>
      </trkpt>
      <trkpt lat="42.35519" lon="2.23116">
        <ele>1968.69</ele>
        <time>2021-07-31T10:24:13Z</time>
      </trkpt>
      <trkpt lat="42.3551" lon="2.23119">
        <ele>1968.55</ele>
        <time>2021-07-31T10:24:14Z</time>
      </trkpt>
      <trkpt lat="42.35462" lon="2.23137">
        <ele>1968.12</ele>
        <time>2021-07-31T10:24:19Z</time>
      </trkpt>
      <trkpt lat="42.35377" lon="2.23121">
        <ele>1965.76</ele>
        <time>2021-07-31T10:24:27Z</time>
      </trkpt>
      <trkpt lat="42.35311" lon="2.231">
        <ele>1962.21</ele>
        <time>2021-07-31T10:24:35Z</time>
      </trkpt>
      <trkpt lat="42.35294" lon="2.23095">
        <ele>1958.45</ele>
        <time>2021-07-31T10:24:41Z</time>
      </trkpt>
      <trkpt lat="42.35284" lon="2.23091">
        <ele>1955.31</ele>
        <time>2021-07-31T10:24:48Z</time>
      </trkpt>
      <trkpt lat="42.35259" lon="2.23101">
        <ele>1953.39</ele>
        <time>2021-07-31T10:25:00Z</time>
      </trkpt>
      <trkpt lat="42.35248" lon="2.23112">
        <ele>1951.73</ele>
        <time>2021-07-31T10:25:09Z</time>
      </trkpt>
      <trkpt lat="42.35227" lon="2.23131">
        <ele>1950.17</ele>
        <time>2021-07-31T10:25:25Z</time>
      </trkpt>
      <trkpt lat="42.35196" lon="2.23157">
        <ele>1949.32</ele>
        <time>2021-07-31T10:25:36Z</time>
      </trkpt>
      <trkpt lat="42.35119" lon="2.23184">
        <ele>1949.4</ele>
        <time>2021-07-31T10:25:43Z</time>
      </trkpt>
      <trkpt lat="42.35046" lon="2.23204">
        <ele>1949.19</ele>
        <time>2021-07-31T10:25:48Z</time>
      </trkpt>
      <trkpt lat="42.34999" lon="2.23195">
        <ele>1945.65</ele>
        <time>2021-07-31T10:25:53Z</time>
      </trkpt>
      <trkpt lat="42.34978" lon="2.23157">
        <ele>1943.7</ele>
        <time>2021-07-31T10:25:56Z</time>
      </trkpt>
      <trkpt lat="42.3495" lon="2.23094">
        <ele>1941.7</ele>
        <time>2021-07-31T10:26:01Z</time>
      </trkpt>
      <trkpt lat="42.34919" lon="2.23085">
        <ele>1937.95</ele>
        <time>2021-07-31T10:26:06Z</time>
      </trkpt>
      <trkpt lat="42.34905" lon="2.231">
        <ele>1936.59</ele>
        <time>2021-07-31T10:26:08Z</time>
      </trkpt>
      <trkpt lat="42.34851" lon="2.2316">
        <ele>1934.73</ele>
        <time>2021-07-31T10:26:14Z</time>
      </trkpt>
      <trkpt lat="42.34764" lon="2.23194">
        <ele>1933.64</ele>
        <time>2021-07-31T10:26:21Z</time>
      </trkpt>
      <trkpt lat="42.34753" lon="2.23199">
        <ele>1933.45</ele>
        <time>2021-07-31T10:26:22Z</time>
      </trkpt>
      <trkpt lat="42.34658" lon="2.23282">
        <ele>1931.56</ele>
        <time>2021-07-31T10:26:32Z</time>
      </trkpt>
      <trkpt lat="42.34564" lon="2.23391">
        <ele>1931.49</ele>
        <time>2021-07-31T10:26:42Z</time>
      </trkpt>
      <trkpt lat="42.3454" lon="2.23422">
        <ele>1931.57</ele>
        <time>2021-07-31T10:26:45Z</time>
      </trkpt>
      <trkpt lat="42.34447" lon="2.23482">
        <ele>1931</ele>
        <time>2021-07-31T10:26:53Z</time>
      </trkpt>
      <trkpt lat="42.34426" lon="2.23494">
        <ele>1931.03</ele>
        <time>2021-07-31T10:26:55Z</time>
      </trkpt>
      <trkpt lat="42.34352" lon="2.23493">
        <ele>1931.22</ele>
        <time>2021-07-31T10:27:02Z</time>
      </trkpt>
      <trkpt lat="42.34329" lon="2.23467">
        <ele>1931.29</ele>
        <time>2021-07-31T10:27:05Z</time>
      </trkpt>
      <trkpt lat="42.34275" lon="2.23393">
        <ele>1928.93</ele>
        <time>2021-07-31T10:27:15Z</time>
      </trkpt>
      <trkpt lat="42.34248" lon="2.23355">
        <ele>1925.87</ele>
        <time>2021-07-31T10:27:27Z</time>
      </trkpt>
      <trkpt lat="42.34207" lon="2.23299">
        <ele>1925.52</ele>
        <time>2021-07-31T10:27:37Z</time>
      </trkpt>
      <trkpt lat="42.3415" lon="2.23224">
        <ele>1925.12</ele>
        <time>2021-07-31T10:27:48Z</time>
      </trkpt>
      <trkpt lat="42.34117" lon="2.23179">
        <ele>1925.16</ele>
        <time>2021-07-31T10:27:53Z</time>
      </trkpt>
      <trkpt lat="42.34103" lon="2.23123">
        <ele>1925.08</ele>
        <time>2021-07-31T10:27:58Z</time>
      </trkpt>
      <trkpt lat="42.34108" lon="2.22981">
        <ele>1925.34</ele>
        <time>2021-07-31T10:28:11Z</time>
      </trkpt>
      <trkpt lat="42.34087" lon="2.22945">
        <ele>1925.6</ele>
        <time>2021-07-31T10:28:18Z</time>
      </trkpt>
      <trkpt lat="42.34079" lon="2.22947">
        <ele>1925.57</ele>
        <time>2021-07-31T10:28:19Z</time>
      </trkpt>
      <trkpt lat="42.34045" lon="2.22956">
        <ele>1925.34</ele>
        <time>2021-07-31T10:28:23Z</time>
      </trkpt>
      <trkpt lat="42.34016" lon="2.22915">
        <ele>1925.34</ele>
        <time>2021-07-31T10:28:29Z</time>
      </trkpt>
      <trkpt lat="42.34003" lon="2.2276">
        <ele>1927.21</ele>
        <time>2021-07-31T10:28:40Z</time>
      </trkpt>
      <trkpt lat="42.34001" lon="2.22751">
        <ele>1927.3</ele>
        <time>2021-07-31T10:28:41Z</time>
      </trkpt>
      <trkpt lat="42.33972" lon="2.22747">
        <ele>1927</ele>
        <time>2021-07-31T10:28:47Z</time>
      </trkpt>
      <trkpt lat="42.33884" lon="2.22836">
        <ele>1925.38</ele>
        <time>2021-07-31T10:28:57Z</time>
      </trkpt>
      <trkpt lat="42.33761" lon="2.22956">
        <ele>1925.3</ele>
        <time>2021-07-31T10:29:09Z</time>
      </trkpt>
      <trkpt lat="42.33702" lon="2.23012">
        <ele>1924.76</ele>
        <time>2021-07-31T10:29:15Z</time>
      </trkpt>
      <trkpt lat="42.33691" lon="2.23071">
        <ele>1923.38</ele>
        <time>2021-07-31T10:29:21Z</time>
      </trkpt>
      <trkpt lat="42.33675" lon="2.23131">
        <ele>1921.89</ele>
        <time>2021-07-31T10:29:27Z</time>
      </trkpt>
      <trkpt lat="42.33666" lon="2.2314">
        <ele>1921.89</ele>
        <time>2021-07-31T10:29:28Z</time>
      </trkpt>
      <trkpt lat="42.33642" lon="2.23166">
        <ele>1922.07</ele>
        <time>2021-07-31T10:29:31Z</time>
      </trkpt>
      <trkpt lat="42.33627" lon="2.2321">
        <ele>1922.03</ele>
        <time>2021-07-31T10:29:35Z</time>
      </trkpt>
      <trkpt lat="42.33621" lon="2.23375">
        <ele>1920.95</ele>
        <time>2021-07-31T10:29:45Z</time>
      </trkpt>
      <trkpt lat="42.33619" lon="2.23436">
        <ele>1920.66</ele>
        <time>2021-07-31T10:29:49Z</time>
      </trkpt>
      <trkpt lat="42.33593" lon="2.23494">
        <ele>1920.26</ele>
        <time>2021-07-31T10:29:54Z</time>
      </trkpt>
      <trkpt lat="42.33459" lon="2.23643">
        <ele>1920.82</ele>
        <time>2021-07-31T10:30:08Z</time>
      </trkpt>
      <trkpt lat="42.33344" lon="2.23767">
        <ele>1920.65</ele>
        <time>2021-07-31T10:30:21Z</time>
      </trkpt>
      <trkpt lat="42.33316" lon="2.23798">
        <ele>1917.24</ele>
        <time>2021-07-31T10:30:28Z</time>
      </trkpt>
      <trkpt lat="42.33315" lon="2.23798">
        <ele>1914.17</ele>
        <time>2021-07-31T10:30:35Z</time>
      </trkpt>
      <trkpt lat="42.33301" lon="2.23818">
        <ele>1911.85</ele>
        <time>2021-07-31T10:30:50Z</time>
      </trkpt>
      <trkpt lat="42.33278" lon="2.2388">
        <ele>1910.03</ele>
        <time>2021-07-31T10:31:01Z</time>
      </trkpt>
      <trkpt lat="42.33266" lon="2.2398">
        <ele>1907.12</ele>
        <time>2021-07-31T10:31:11Z</time>
      </trkpt>
      <trkpt lat="42.33266" lon="2.2399">
        <ele>1906.7</ele>
        <time>2021-07-31T10:31:12Z</time>
      </trkpt>
      <trkpt lat="42.33249" lon="2.2405">
        <ele>1903.75</ele>
        <time>2021-07-31T10:31:18Z</time>
      </trkpt>
      <trkpt lat="42.33225" lon="2.24093">
        <ele>1901.07</ele>
        <time>2021-07-31T10:31:23Z</time>
      </trkpt>
      <trkpt lat="42.33206" lon="2.24177">
        <ele>1897.41</ele>
        <time>2021-07-31T10:31:30Z</time>
      </trkpt>
      <trkpt lat="42.33198" lon="2.24248">
        <ele>1894.21</ele>
        <time>2021-07-31T10:31:36Z</time>
      </trkpt>
      <trkpt lat="42.33208" lon="2.24321">
        <ele>1890.74</ele>
        <time>2021-07-31T10:31:42Z</time>
      </trkpt>
      <trkpt lat="42.33213" lon="2.24344">
        <ele>1889.53</ele>
        <time>2021-07-31T10:31:44Z</time>
      </trkpt>
      <trkpt lat="42.33203" lon="2.24382">
        <ele>1885.77</ele>
        <time>2021-07-31T10:31:49Z</time>
      </trkpt>
      <trkpt lat="42.33187" lon="2.24367">
        <ele>1883.84</ele>
        <time>2021-07-31T10:31:52Z</time>
      </trkpt>
      <trkpt lat="42.33152" lon="2.24259">
        <ele>1879.93</ele>
        <time>2021-07-31T10:32:02Z</time>
      </trkpt>
      <trkpt lat="42.33138" lon="2.2421">
        <ele>1876.74</ele>
        <time>2021-07-31T10:32:07Z</time>
      </trkpt>
      <trkpt lat="42.33129" lon="2.24166">
        <ele>1874.8</ele>
        <time>2021-07-31T10:32:11Z</time>
      </trkpt>
      <trkpt lat="42.33129" lon="2.241">
        <ele>1871.1</ele>
        <time>2021-07-31T10:32:17Z</time>
      </trkpt>
      <trkpt lat="42.33125" lon="2.24034">
        <ele>1867.51</ele>
        <time>2021-07-31T10:32:23Z</time>
      </trkpt>
      <trkpt lat="42.3312" lon="2.23986">
        <ele>1864.13</ele>
        <time>2021-07-31T10:32:28Z</time>
      </trkpt>
      <trkpt lat="42.33115" lon="2.23939">
        <ele>1860.68</ele>
        <time>2021-07-31T10:32:33Z</time>
      </trkpt>
      <trkpt lat="42.33092" lon="2.23891">
        <ele>1856.53</ele>
        <time>2021-07-31T10:32:39Z</time>
      </trkpt>
      <trkpt lat="42.33059" lon="2.23847">
        <ele>1852.62</ele>
        <time>2021-07-31T10:32:46Z</time>
      </trkpt>
      <trkpt lat="42.33017" lon="2.23792">
        <ele>1849.25</ele>
        <time>2021-07-31T10:32:53Z</time>
      </trkpt>
      <trkpt lat="42.32999" lon="2.23769">
        <ele>1847.54</ele>
        <time>2021-07-31T10:32:56Z</time>
      </trkpt>
      <trkpt lat="42.32962" lon="2.23736">
        <ele>1843.65</ele>
        <time>2021-07-31T10:33:02Z</time>
      </trkpt>
      <trkpt lat="42.32932" lon="2.23703">
        <ele>1840.6</ele>
        <time>2021-07-31T10:33:07Z</time>
      </trkpt>
      <trkpt lat="42.32897" lon="2.23663">
        <ele>1837.18</ele>
        <time>2021-07-31T10:33:13Z</time>
      </trkpt>
      <trkpt lat="42.32892" lon="2.23656">
        <ele>1836.56</ele>
        <time>2021-07-31T10:33:14Z</time>
      </trkpt>
      <trkpt lat="42.32882" lon="2.2364">
        <ele>1835.6</ele>
        <time>2021-07-31T10:33:16Z</time>
      </trkpt>
      <trkpt lat="42.32877" lon="2.23553">
        <ele>1831.46</ele>
        <time>2021-07-31T10:33:24Z</time>
      </trkpt>
      <trkpt lat="42.32885" lon="2.23532">
        <ele>1830.4</ele>
        <time>2021-07-31T10:33:26Z</time>
      </trkpt>
      <trkpt lat="42.32867" lon="2.23477">
        <ele>1825.96</ele>
        <time>2021-07-31T10:33:34Z</time>
      </trkpt>
      <trkpt lat="42.3286" lon="2.23476">
        <ele>1825.45</ele>
        <time>2021-07-31T10:33:35Z</time>
      </trkpt>
      <trkpt lat="42.32802" lon="2.23466">
        <ele>1821.8</ele>
        <time>2021-07-31T10:33:43Z</time>
      </trkpt>
      <trkpt lat="42.32751" lon="2.23456">
        <ele>1818.38</ele>
        <time>2021-07-31T10:33:50Z</time>
      </trkpt>
      <trkpt lat="42.327" lon="2.23455">
        <ele>1814.99</ele>
        <time>2021-07-31T10:33:57Z</time>
      </trkpt>
      <trkpt lat="42.32656" lon="2.2346">
        <ele>1811.77</ele>
        <time>2021-07-31T10:34:03Z</time>
      </trkpt>
      <trkpt lat="42.32599" lon="2.23467">
        <ele>1808.38</ele>
        <time>2021-07-31T10:34:10Z</time>
      </trkpt>
      <trkpt lat="42.32552" lon="2.23472">
        <ele>1804.97</ele>
        <time>2021-07-31T10:34:16Z</time>
      </trkpt>
      <trkpt lat="42.32544" lon="2.23472">
        <ele>1804.39</ele>
        <time>2021-07-31T10:34:17Z</time>
      </trkpt>
      <trkpt lat="42.32514" lon="2.23426">
        <ele>1801.69</ele>
        <time>2021-07-31T10:34:23Z</time>
      </trkpt>
      <trkpt lat="42.32515" lon="2.23399">
        <ele>1801.16</ele>
        <time>2021-07-31T10:34:25Z</time>
      </trkpt>
      <trkpt lat="42.32518" lon="2.23265">
        <ele>1797.87</ele>
        <time>2021-07-31T10:34:36Z</time>
      </trkpt>
      <trkpt lat="42.32519" lon="2.23095">
        <ele>1794.87</ele>
        <time>2021-07-31T10:34:49Z</time>
      </trkpt>
      <trkpt lat="42.32508" lon="2.22979">
        <ele>1792.35</ele>
        <time>2021-07-31T10:34:59Z</time>
      </trkpt>
      <trkpt lat="42.32488" lon="2.22882">
        <ele>1791.29</ele>
        <time>2021-07-31T10:35:07Z</time>
      </trkpt>
      <trkpt lat="42.32504" lon="2.22768">
        <ele>1790.45</ele>
        <time>2021-07-31T10:35:16Z</time>
      </trkpt>
      <trkpt lat="42.32511" lon="2.22717">
        <ele>1790.1</ele>
        <time>2021-07-31T10:35:20Z</time>
      </trkpt>
      <trkpt lat="42.32527" lon="2.22624">
        <ele>1788.6</ele>
        <time>2021-07-31T10:35:28Z</time>
      </trkpt>
      <trkpt lat="42.32548" lon="2.22578">
        <ele>1788.32</ele>
        <time>2021-07-31T10:35:32Z</time>
      </trkpt>
      <trkpt lat="42.32647" lon="2.22455">
        <ele>1786.28</ele>
        <time>2021-07-31T10:35:45Z</time>
      </trkpt>
      <trkpt lat="42.32682" lon="2.22433">
        <ele>1784.75</ele>
        <time>2021-07-31T10:35:50Z</time>
      </trkpt>
      <trkpt lat="42.32685" lon="2.22393">
        <ele>1782.73</ele>
        <time>2021-07-31T10:35:55Z</time>
      </trkpt>
      <trkpt lat="42.32681" lon="2.22384">
        <ele>1782.54</ele>
        <time>2021-07-31T10:35:56Z</time>
      </trkpt>
      <trkpt lat="42.32665" lon="2.22345">
        <ele>1781.64</ele>
        <time>2021-07-31T10:36:00Z</time>
      </trkpt>
      <trkpt lat="42.32658" lon="2.22303">
        <ele>1780.08</ele>
        <time>2021-07-31T10:36:04Z</time>
      </trkpt>
      <trkpt lat="42.32655" lon="2.22199">
        <ele>1776.4</ele>
        <time>2021-07-31T10:36:13Z</time>
      </trkpt>
      <trkpt lat="42.32654" lon="2.22122">
        <ele>1773.23</ele>
        <time>2021-07-31T10:36:20Z</time>
      </trkpt>
      <trkpt lat="42.32656" lon="2.221">
        <ele>1772.09</ele>
        <time>2021-07-31T10:36:22Z</time>
      </trkpt>
      <trkpt lat="42.32696" lon="2.22026">
        <ele>1768.36</ele>
        <time>2021-07-31T10:36:30Z</time>
      </trkpt>
      <trkpt lat="42.32716" lon="2.22017">
        <ele>1767.41</ele>
        <time>2021-07-31T10:36:32Z</time>
      </trkpt>
      <trkpt lat="42.32763" lon="2.22006">
        <ele>1763.58</ele>
        <time>2021-07-31T10:36:38Z</time>
      </trkpt>
      <trkpt lat="42.32768" lon="2.21966">
        <ele>1759.11</ele>
        <time>2021-07-31T10:36:44Z</time>
      </trkpt>
      <trkpt lat="42.32736" lon="2.21967">
        <ele>1756.26</ele>
        <time>2021-07-31T10:36:48Z</time>
      </trkpt>
      <trkpt lat="42.32676" lon="2.21985">
        <ele>1752.09</ele>
        <time>2021-07-31T10:36:54Z</time>
      </trkpt>
      <trkpt lat="42.32633" lon="2.21999">
        <ele>1748.52</ele>
        <time>2021-07-31T10:36:59Z</time>
      </trkpt>
      <trkpt lat="42.326" lon="2.22021">
        <ele>1745.49</ele>
        <time>2021-07-31T10:37:03Z</time>
      </trkpt>
      <trkpt lat="42.32569" lon="2.22049">
        <ele>1742.21</ele>
        <time>2021-07-31T10:37:07Z</time>
      </trkpt>
      <trkpt lat="42.32537" lon="2.22078">
        <ele>1739</ele>
        <time>2021-07-31T10:37:11Z</time>
      </trkpt>
      <trkpt lat="42.32516" lon="2.22101">
        <ele>1736.26</ele>
        <time>2021-07-31T10:37:14Z</time>
      </trkpt>
      <trkpt lat="42.32493" lon="2.22156">
        <ele>1731.84</ele>
        <time>2021-07-31T10:37:19Z</time>
      </trkpt>
      <trkpt lat="42.3249" lon="2.22168">
        <ele>1730.95</ele>
        <time>2021-07-31T10:37:20Z</time>
      </trkpt>
      <trkpt lat="42.32486" lon="2.22189">
        <ele>1729.25</ele>
        <time>2021-07-31T10:37:22Z</time>
      </trkpt>
      <trkpt lat="42.3246" lon="2.22204">
        <ele>1724.72</ele>
        <time>2021-07-31T10:37:27Z</time>
      </trkpt>
      <trkpt lat="42.3246" lon="2.22159">
        <ele>1721.48</ele>
        <time>2021-07-31T10:37:31Z</time>
      </trkpt>
      <trkpt lat="42.32477" lon="2.22108">
        <ele>1717.83</ele>
        <time>2021-07-31T10:37:36Z</time>
      </trkpt>
      <trkpt lat="42.32492" lon="2.22057">
        <ele>1714.44</ele>
        <time>2021-07-31T10:37:41Z</time>
      </trkpt>
      <trkpt lat="42.32508" lon="2.22017">
        <ele>1711.36</ele>
        <time>2021-07-31T10:37:45Z</time>
      </trkpt>
      <trkpt lat="42.32528" lon="2.21976">
        <ele>1708.34</ele>
        <time>2021-07-31T10:37:49Z</time>
      </trkpt>
      <trkpt lat="42.32554" lon="2.21928">
        <ele>1705.05</ele>
        <time>2021-07-31T10:37:54Z</time>
      </trkpt>
      <trkpt lat="42.32584" lon="2.21894">
        <ele>1701.95</ele>
        <time>2021-07-31T10:37:58Z</time>
      </trkpt>
      <trkpt lat="42.32626" lon="2.21858">
        <ele>1698.15</ele>
        <time>2021-07-31T10:38:03Z</time>
      </trkpt>
      <trkpt lat="42.32658" lon="2.21832">
        <ele>1694.57</ele>
        <time>2021-07-31T10:38:07Z</time>
      </trkpt>
      <trkpt lat="42.32681" lon="2.21813">
        <ele>1691.77</ele>
        <time>2021-07-31T10:38:10Z</time>
      </trkpt>
      <trkpt lat="42.32709" lon="2.21767">
        <ele>1687.41</ele>
        <time>2021-07-31T10:38:15Z</time>
      </trkpt>
      <trkpt lat="42.32724" lon="2.21746">
        <ele>1684.99</ele>
        <time>2021-07-31T10:38:18Z</time>
      </trkpt>
      <trkpt lat="42.32713" lon="2.21708">
        <ele>1680.9</ele>
        <time>2021-07-31T10:38:25Z</time>
      </trkpt>
      <trkpt lat="42.32692" lon="2.21719">
        <ele>1679.82</ele>
        <time>2021-07-31T10:38:28Z</time>
      </trkpt>
      <trkpt lat="42.32653" lon="2.2174">
        <ele>1678.55</ele>
        <time>2021-07-31T10:38:33Z</time>
      </trkpt>
      <trkpt lat="42.32615" lon="2.21706">
        <ele>1676.61</ele>
        <time>2021-07-31T10:38:39Z</time>
      </trkpt>
      <trkpt lat="42.32607" lon="2.21679">
        <ele>1676.03</ele>
        <time>2021-07-31T10:38:41Z</time>
      </trkpt>
      <trkpt lat="42.32589" lon="2.21582">
        <ele>1672.76</ele>
        <time>2021-07-31T10:38:49Z</time>
      </trkpt>
      <trkpt lat="42.32582" lon="2.21523">
        <ele>1669.48</ele>
        <time>2021-07-31T10:38:54Z</time>
      </trkpt>
      <trkpt lat="42.32572" lon="2.21467">
        <ele>1666.01</ele>
        <time>2021-07-31T10:38:59Z</time>
      </trkpt>
      <trkpt lat="42.32569" lon="2.21409">
        <ele>1662.65</ele>
        <time>2021-07-31T10:39:04Z</time>
      </trkpt>
      <trkpt lat="42.3257" lon="2.2135">
        <ele>1659.4</ele>
        <time>2021-07-31T10:39:09Z</time>
      </trkpt>
      <trkpt lat="42.32571" lon="2.21302">
        <ele>1656.58</ele>
        <time>2021-07-31T10:39:13Z</time>
      </trkpt>
      <trkpt lat="42.32563" lon="2.21255">
        <ele>1652.93</ele>
        <time>2021-07-31T10:39:17Z</time>
      </trkpt>
      <trkpt lat="42.32547" lon="2.21203">
        <ele>1649.72</ele>
        <time>2021-07-31T10:39:22Z</time>
      </trkpt>
      <trkpt lat="42.32548" lon="2.21128">
        <ele>1646.13</ele>
        <time>2021-07-31T10:39:28Z</time>
      </trkpt>
      <trkpt lat="42.32552" lon="2.21115">
        <ele>1645.58</ele>
        <time>2021-07-31T10:39:29Z</time>
      </trkpt>
      <trkpt lat="42.32565" lon="2.21079">
        <ele>1643.74</ele>
        <time>2021-07-31T10:39:32Z</time>
      </trkpt>
      <trkpt lat="42.32598" lon="2.21031">
        <ele>1639.74</ele>
        <time>2021-07-31T10:39:37Z</time>
      </trkpt>
      <trkpt lat="42.32625" lon="2.20995">
        <ele>1636.46</ele>
        <time>2021-07-31T10:39:41Z</time>
      </trkpt>
      <trkpt lat="42.32649" lon="2.20956">
        <ele>1632.92</ele>
        <time>2021-07-31T10:39:45Z</time>
      </trkpt>
      <trkpt lat="42.32663" lon="2.20926">
        <ele>1630.34</ele>
        <time>2021-07-31T10:39:48Z</time>
      </trkpt>
      <trkpt lat="42.32667" lon="2.20869">
        <ele>1626.45</ele>
        <time>2021-07-31T10:39:53Z</time>
      </trkpt>
      <trkpt lat="42.32642" lon="2.20837">
        <ele>1623.46</ele>
        <time>2021-07-31T10:39:57Z</time>
      </trkpt>
      <trkpt lat="42.32594" lon="2.20793">
        <ele>1619.22</ele>
        <time>2021-07-31T10:40:03Z</time>
      </trkpt>
      <trkpt lat="42.32562" lon="2.20764">
        <ele>1616.16</ele>
        <time>2021-07-31T10:40:07Z</time>
      </trkpt>
      <trkpt lat="42.32555" lon="2.20756">
        <ele>1615.34</ele>
        <time>2021-07-31T10:40:08Z</time>
      </trkpt>
      <trkpt lat="42.32529" lon="2.20698">
        <ele>1611.4</ele>
        <time>2021-07-31T10:40:13Z</time>
      </trkpt>
      <trkpt lat="42.32519" lon="2.20679">
        <ele>1609.81</ele>
        <time>2021-07-31T10:40:15Z</time>
      </trkpt>
      <trkpt lat="42.32515" lon="2.20624">
        <ele>1605.47</ele>
        <time>2021-07-31T10:40:20Z</time>
      </trkpt>
      <trkpt lat="42.32537" lon="2.20552">
        <ele>1601.28</ele>
        <time>2021-07-31T10:40:26Z</time>
      </trkpt>
      <trkpt lat="42.32556" lon="2.20492">
        <ele>1597.99</ele>
        <time>2021-07-31T10:40:31Z</time>
      </trkpt>
      <trkpt lat="42.32563" lon="2.20468">
        <ele>1596.42</ele>
        <time>2021-07-31T10:40:33Z</time>
      </trkpt>
      <trkpt lat="42.32548" lon="2.20427">
        <ele>1592.42</ele>
        <time>2021-07-31T10:40:38Z</time>
      </trkpt>
      <trkpt lat="42.32532" lon="2.20417">
        <ele>1590.89</ele>
        <time>2021-07-31T10:40:40Z</time>
      </trkpt>
      <trkpt lat="42.32514" lon="2.20366">
        <ele>1587.19</ele>
        <time>2021-07-31T10:40:45Z</time>
      </trkpt>
      <trkpt lat="42.32511" lon="2.20296">
        <ele>1582.97</ele>
        <time>2021-07-31T10:40:51Z</time>
      </trkpt>
      <trkpt lat="42.32511" lon="2.20269">
        <ele>1579.89</ele>
        <time>2021-07-31T10:40:54Z</time>
      </trkpt>
      <trkpt lat="42.32518" lon="2.20234">
        <ele>1575.75</ele>
        <time>2021-07-31T10:40:59Z</time>
      </trkpt>
      <trkpt lat="42.32533" lon="2.20198">
        <ele>1571.73</ele>
        <time>2021-07-31T10:41:05Z</time>
      </trkpt>
      <trkpt lat="42.32546" lon="2.20177">
        <ele>1568.48</ele>
        <time>2021-07-31T10:41:11Z</time>
      </trkpt>
      <trkpt lat="42.32563" lon="2.20151">
        <ele>1565.22</ele>
        <time>2021-07-31T10:41:19Z</time>
      </trkpt>
      <trkpt lat="42.32596" lon="2.20105">
        <ele>1562.05</ele>
        <time>2021-07-31T10:41:28Z</time>
      </trkpt>
      <trkpt lat="42.3262" lon="2.20076">
        <ele>1559.34</ele>
        <time>2021-07-31T10:41:34Z</time>
      </trkpt>
      <trkpt lat="42.32624" lon="2.20066">
        <ele>1558.31</ele>
        <time>2021-07-31T10:41:36Z</time>
      </trkpt>
      <trkpt lat="42.32632" lon="2.20047">
        <ele>1556.8</ele>
        <time>2021-07-31T10:41:40Z</time>
      </trkpt>
      <trkpt lat="42.32651" lon="2.20002">
        <ele>1553.11</ele>
        <time>2021-07-31T10:41:49Z</time>
      </trkpt>
      <trkpt lat="42.32651" lon="2.19963">
        <ele>1551.15</ele>
        <time>2021-07-31T10:41:54Z</time>
      </trkpt>
      <trkpt lat="42.32645" lon="2.1994">
        <ele>1549.92</ele>
        <time>2021-07-31T10:41:57Z</time>
      </trkpt>
      <trkpt lat="42.3264" lon="2.19902">
        <ele>1547.35</ele>
        <time>2021-07-31T10:42:02Z</time>
      </trkpt>
      <trkpt lat="42.32638" lon="2.19842">
        <ele>1543.49</ele>
        <time>2021-07-31T10:42:09Z</time>
      </trkpt>
      <trkpt lat="42.32632" lon="2.19801">
        <ele>1540.3</ele>
        <time>2021-07-31T10:42:15Z</time>
      </trkpt>
      <trkpt lat="42.32624" lon="2.19748">
        <ele>1536.91</ele>
        <time>2021-07-31T10:42:22Z</time>
      </trkpt>
      <trkpt lat="42.32628" lon="2.1971">
        <ele>1535.38</ele>
        <time>2021-07-31T10:42:26Z</time>
      </trkpt>
      <trkpt lat="42.3264" lon="2.19638">
        <ele>1531.62</ele>
        <time>2021-07-31T10:42:33Z</time>
      </trkpt>
      <trkpt lat="42.32643" lon="2.19582">
        <ele>1528.06</ele>
        <time>2021-07-31T10:42:38Z</time>
      </trkpt>
      <trkpt lat="42.32646" lon="2.19525">
        <ele>1524.82</ele>
        <time>2021-07-31T10:42:43Z</time>
      </trkpt>
      <trkpt lat="42.32646" lon="2.19485">
        <ele>1522.01</ele>
        <time>2021-07-31T10:42:47Z</time>
      </trkpt>
      <trkpt lat="42.32624" lon="2.19427">
        <ele>1518.57</ele>
        <time>2021-07-31T10:42:53Z</time>
      </trkpt>
      <trkpt lat="42.32597" lon="2.19357">
        <ele>1514.29</ele>
        <time>2021-07-31T10:43:00Z</time>
      </trkpt>
      <trkpt lat="42.32595" lon="2.19347">
        <ele>1513.7</ele>
        <time>2021-07-31T10:43:01Z</time>
      </trkpt>
      <trkpt lat="42.32589" lon="2.19264">
        <ele>1509.85</ele>
        <time>2021-07-31T10:43:08Z</time>
      </trkpt>
      <trkpt lat="42.32578" lon="2.19188">
        <ele>1506.52</ele>
        <time>2021-07-31T10:43:14Z</time>
      </trkpt>
      <trkpt lat="42.32568" lon="2.19143">
        <ele>1503.23</ele>
        <time>2021-07-31T10:43:18Z</time>
      </trkpt>
      <trkpt lat="42.32561" lon="2.191">
        <ele>1500.14</ele>
        <time>2021-07-31T10:43:22Z</time>
      </trkpt>
      <trkpt lat="42.32556" lon="2.19068">
        <ele>1497.68</ele>
        <time>2021-07-31T10:43:25Z</time>
      </trkpt>
      <trkpt lat="42.32559" lon="2.18999">
        <ele>1493.7</ele>
        <time>2021-07-31T10:43:31Z</time>
      </trkpt>
      <trkpt lat="42.32568" lon="2.18942">
        <ele>1490.37</ele>
        <time>2021-07-31T10:43:36Z</time>
      </trkpt>
      <trkpt lat="42.32579" lon="2.18884">
        <ele>1486.62</ele>
        <time>2021-07-31T10:43:41Z</time>
      </trkpt>
      <trkpt lat="42.32586" lon="2.18825">
        <ele>1482.89</ele>
        <time>2021-07-31T10:43:46Z</time>
      </trkpt>
      <trkpt lat="42.32598" lon="2.18774">
        <ele>1479.39</ele>
        <time>2021-07-31T10:43:51Z</time>
      </trkpt>
      <trkpt lat="42.32602" lon="2.18703">
        <ele>1475.1</ele>
        <time>2021-07-31T10:43:57Z</time>
      </trkpt>
      <trkpt lat="42.32602" lon="2.18691">
        <ele>1474.46</ele>
        <time>2021-07-31T10:43:58Z</time>
      </trkpt>
      <trkpt lat="42.32594" lon="2.1862">
        <ele>1470.1</ele>
        <time>2021-07-31T10:44:04Z</time>
      </trkpt>
      <trkpt lat="42.32586" lon="2.18543">
        <ele>1465.96</ele>
        <time>2021-07-31T10:44:10Z</time>
      </trkpt>
      <trkpt lat="42.32577" lon="2.18496">
        <ele>1462.26</ele>
        <time>2021-07-31T10:44:14Z</time>
      </trkpt>
      <trkpt lat="42.32568" lon="2.18449">
        <ele>1459.19</ele>
        <time>2021-07-31T10:44:18Z</time>
      </trkpt>
      <trkpt lat="42.32558" lon="2.18401">
        <ele>1456.04</ele>
        <time>2021-07-31T10:44:22Z</time>
      </trkpt>
      <trkpt lat="42.32536" lon="2.18348">
        <ele>1452.22</ele>
        <time>2021-07-31T10:44:27Z</time>
      </trkpt>
      <trkpt lat="42.32533" lon="2.18338">
        <ele>1451.63</ele>
        <time>2021-07-31T10:44:28Z</time>
      </trkpt>
      <trkpt lat="42.32518" lon="2.18269">
        <ele>1447.51</ele>
        <time>2021-07-31T10:44:34Z</time>
      </trkpt>
      <trkpt lat="42.32513" lon="2.18235">
        <ele>1444.4</ele>
        <time>2021-07-31T10:44:38Z</time>
      </trkpt>
      <trkpt lat="42.32511" lon="2.18227">
        <ele>1443.48</ele>
        <time>2021-07-31T10:44:39Z</time>
      </trkpt>
      <trkpt lat="42.32528" lon="2.18176">
        <ele>1439.22</ele>
        <time>2021-07-31T10:44:45Z</time>
      </trkpt>
      <trkpt lat="42.32534" lon="2.1817">
        <ele>1438.68</ele>
        <time>2021-07-31T10:44:46Z</time>
      </trkpt>
      <trkpt lat="42.32545" lon="2.18159">
        <ele>1437.74</ele>
        <time>2021-07-31T10:44:48Z</time>
      </trkpt>
      <trkpt lat="42.3261" lon="2.18158">
        <ele>1434.67</ele>
        <time>2021-07-31T10:44:53Z</time>
      </trkpt>
      <trkpt lat="42.3267" lon="2.1816">
        <ele>1430.97</ele>
        <time>2021-07-31T10:44:58Z</time>
      </trkpt>
      <trkpt lat="42.32714" lon="2.18154">
        <ele>1427.67</ele>
        <time>2021-07-31T10:45:02Z</time>
      </trkpt>
      <trkpt lat="42.32756" lon="2.1814">
        <ele>1424.19</ele>
        <time>2021-07-31T10:45:06Z</time>
      </trkpt>
      <trkpt lat="42.32797" lon="2.18124">
        <ele>1420.54</ele>
        <time>2021-07-31T10:45:10Z</time>
      </trkpt>
      <trkpt lat="42.32818" lon="2.18117">
        <ele>1418.68</ele>
        <time>2021-07-31T10:45:12Z</time>
      </trkpt>
      <trkpt lat="42.32853" lon="2.18117">
        <ele>1415.1</ele>
        <time>2021-07-31T10:45:16Z</time>
      </trkpt>
      <trkpt lat="42.3287" lon="2.18084">
        <ele>1411.01</ele>
        <time>2021-07-31T10:45:21Z</time>
      </trkpt>
      <trkpt lat="42.32837" lon="2.18061">
        <ele>1407.73</ele>
        <time>2021-07-31T10:45:25Z</time>
      </trkpt>
      <trkpt lat="42.32792" lon="2.1806">
        <ele>1404.4</ele>
        <time>2021-07-31T10:45:29Z</time>
      </trkpt>
      <trkpt lat="42.32782" lon="2.18064">
        <ele>1403.64</ele>
        <time>2021-07-31T10:45:30Z</time>
      </trkpt>
      <trkpt lat="42.32732" lon="2.18082">
        <ele>1399.29</ele>
        <time>2021-07-31T10:45:35Z</time>
      </trkpt>
      <trkpt lat="42.32694" lon="2.18085">
        <ele>1395.62</ele>
        <time>2021-07-31T10:45:39Z</time>
      </trkpt>
      <trkpt lat="42.3266" lon="2.18088">
        <ele>1392.06</ele>
        <time>2021-07-31T10:45:43Z</time>
      </trkpt>
      <trkpt lat="42.32646" lon="2.18088">
        <ele>1388.53</ele>
        <time>2021-07-31T10:45:47Z</time>
      </trkpt>
      <trkpt lat="42.32645" lon="2.18088">
        <ele>1384.87</ele>
        <time>2021-07-31T10:45:52Z</time>
      </trkpt>
      <trkpt lat="42.32623" lon="2.18084">
        <ele>1381.91</ele>
        <time>2021-07-31T10:46:01Z</time>
      </trkpt>
      <trkpt lat="42.32535" lon="2.18047">
        <ele>1378.16</ele>
        <time>2021-07-31T10:46:11Z</time>
      </trkpt>
      <trkpt lat="42.32488" lon="2.18022">
        <ele>1375.17</ele>
        <time>2021-07-31T10:46:16Z</time>
      </trkpt>
      <trkpt lat="42.32426" lon="2.18015">
        <ele>1370.74</ele>
        <time>2021-07-31T10:46:22Z</time>
      </trkpt>
      <trkpt lat="42.32385" lon="2.1802">
        <ele>1367.41</ele>
        <time>2021-07-31T10:46:26Z</time>
      </trkpt>
      <trkpt lat="42.32347" lon="2.1803">
        <ele>1363.83</ele>
        <time>2021-07-31T10:46:30Z</time>
      </trkpt>
      <trkpt lat="42.32314" lon="2.18042">
        <ele>1360.62</ele>
        <time>2021-07-31T10:46:34Z</time>
      </trkpt>
      <trkpt lat="42.32288" lon="2.18039">
        <ele>1356.64</ele>
        <time>2021-07-31T10:46:39Z</time>
      </trkpt>
      <trkpt lat="42.32295" lon="2.18011">
        <ele>1353.62</ele>
        <time>2021-07-31T10:46:43Z</time>
      </trkpt>
      <trkpt lat="42.32313" lon="2.18007">
        <ele>1352.39</ele>
        <time>2021-07-31T10:46:45Z</time>
      </trkpt>
      <trkpt lat="42.32374" lon="2.17981">
        <ele>1348.53</ele>
        <time>2021-07-31T10:46:51Z</time>
      </trkpt>
      <trkpt lat="42.3242" lon="2.17962">
        <ele>1345.12</ele>
        <time>2021-07-31T10:46:56Z</time>
      </trkpt>
      <trkpt lat="42.3246" lon="2.17949">
        <ele>1341.47</ele>
        <time>2021-07-31T10:47:01Z</time>
      </trkpt>
      <trkpt lat="42.32507" lon="2.17949">
        <ele>1337.75</ele>
        <time>2021-07-31T10:47:06Z</time>
      </trkpt>
      <trkpt lat="42.32555" lon="2.17944">
        <ele>1334.13</ele>
        <time>2021-07-31T10:47:11Z</time>
      </trkpt>
      <trkpt lat="42.32574" lon="2.17941">
        <ele>1332.53</ele>
        <time>2021-07-31T10:47:13Z</time>
      </trkpt>
      <trkpt lat="42.32617" lon="2.17921">
        <ele>1328.53</ele>
        <time>2021-07-31T10:47:18Z</time>
      </trkpt>
      <trkpt lat="42.32648" lon="2.17906">
        <ele>1325.36</ele>
        <time>2021-07-31T10:47:22Z</time>
      </trkpt>
      <trkpt lat="42.32672" lon="2.17897">
        <ele>1322.1</ele>
        <time>2021-07-31T10:47:26Z</time>
      </trkpt>
      <trkpt lat="42.32719" lon="2.17866">
        <ele>1317.46</ele>
        <time>2021-07-31T10:47:32Z</time>
      </trkpt>
      <trkpt lat="42.32763" lon="2.17825">
        <ele>1313.75</ele>
        <time>2021-07-31T10:47:37Z</time>
      </trkpt>
      <trkpt lat="42.328" lon="2.17776">
        <ele>1309.9</ele>
        <time>2021-07-31T10:47:42Z</time>
      </trkpt>
      <trkpt lat="42.32807" lon="2.17767">
        <ele>1309.03</ele>
        <time>2021-07-31T10:47:43Z</time>
      </trkpt>
      <trkpt lat="42.32848" lon="2.17731">
        <ele>1305.13</ele>
        <time>2021-07-31T10:47:48Z</time>
      </trkpt>
      <trkpt lat="42.32889" lon="2.17713">
        <ele>1301.94</ele>
        <time>2021-07-31T10:47:52Z</time>
      </trkpt>
      <trkpt lat="42.32931" lon="2.17698">
        <ele>1298.87</ele>
        <time>2021-07-31T10:47:56Z</time>
      </trkpt>
      <trkpt lat="42.32975" lon="2.17688">
        <ele>1295.51</ele>
        <time>2021-07-31T10:48:00Z</time>
      </trkpt>
      <trkpt lat="42.33018" lon="2.17688">
        <ele>1292.05</ele>
        <time>2021-07-31T10:48:04Z</time>
      </trkpt>
      <trkpt lat="42.33037" lon="2.17692">
        <ele>1290.22</ele>
        <time>2021-07-31T10:48:06Z</time>
      </trkpt>
      <trkpt lat="42.33065" lon="2.17706">
        <ele>1287.2</ele>
        <time>2021-07-31T10:48:09Z</time>
      </trkpt>
      <trkpt lat="42.33109" lon="2.17747">
        <ele>1282.69</ele>
        <time>2021-07-31T10:48:14Z</time>
      </trkpt>
      <trkpt lat="42.33126" lon="2.17764">
        <ele>1280.86</ele>
        <time>2021-07-31T10:48:16Z</time>
      </trkpt>
      <trkpt lat="42.33172" lon="2.17785">
        <ele>1276.14</ele>
        <time>2021-07-31T10:48:21Z</time>
      </trkpt>
      <trkpt lat="42.33208" lon="2.178">
        <ele>1272.4</ele>
        <time>2021-07-31T10:48:25Z</time>
      </trkpt>
      <trkpt lat="42.33241" lon="2.17822">
        <ele>1268.68</ele>
        <time>2021-07-31T10:48:29Z</time>
      </trkpt>
      <trkpt lat="42.33278" lon="2.17839">
        <ele>1265.22</ele>
        <time>2021-07-31T10:48:33Z</time>
      </trkpt>
      <trkpt lat="42.33319" lon="2.17864">
        <ele>1261.54</ele>
        <time>2021-07-31T10:48:37Z</time>
      </trkpt>
      <trkpt lat="42.33342" lon="2.1788">
        <ele>1258.76</ele>
        <time>2021-07-31T10:48:40Z</time>
      </trkpt>
      <trkpt lat="42.33364" lon="2.17928">
        <ele>1254.62</ele>
        <time>2021-07-31T10:48:45Z</time>
      </trkpt>
      <trkpt lat="42.33378" lon="2.17973">
        <ele>1251.71</ele>
        <time>2021-07-31T10:48:49Z</time>
      </trkpt>
      <trkpt lat="42.33395" lon="2.17988">
        <ele>1247.34</ele>
        <time>2021-07-31T10:48:55Z</time>
      </trkpt>
      <trkpt lat="42.334" lon="2.17959">
        <ele>1244.32</ele>
        <time>2021-07-31T10:49:02Z</time>
      </trkpt>
      <trkpt lat="42.33398" lon="2.1795">
        <ele>1243.93</ele>
        <time>2021-07-31T10:49:03Z</time>
      </trkpt>
      <trkpt lat="42.3341" lon="2.1794">
        <ele>1243.2</ele>
        <time>2021-07-31T10:49:05Z</time>
      </trkpt>
      <trkpt lat="42.33423" lon="2.17905">
        <ele>1241.48</ele>
        <time>2021-07-31T10:49:09Z</time>
      </trkpt>
      <trkpt lat="42.33422" lon="2.17861">
        <ele>1239.14</ele>
        <time>2021-07-31T10:49:14Z</time>
      </trkpt>
      <trkpt lat="42.3342" lon="2.17852">
        <ele>1238.7</ele>
        <time>2021-07-31T10:49:15Z</time>
      </trkpt>
      <trkpt lat="42.33371" lon="2.17772">
        <ele>1234.58</ele>
        <time>2021-07-31T10:49:22Z</time>
      </trkpt>
      <trkpt lat="42.33334" lon="2.17713">
        <ele>1230.94</ele>
        <time>2021-07-31T10:49:27Z</time>
      </trkpt>
      <trkpt lat="42.33296" lon="2.17674">
        <ele>1227.52</ele>
        <time>2021-07-31T10:49:31Z</time>
      </trkpt>
      <trkpt lat="42.33275" lon="2.17661">
        <ele>1225.78</ele>
        <time>2021-07-31T10:49:33Z</time>
      </trkpt>
      <trkpt lat="42.33213" lon="2.17665">
        <ele>1221.63</ele>
        <time>2021-07-31T10:49:38Z</time>
      </trkpt>
      <trkpt lat="42.3316" lon="2.17642">
        <ele>1217.79</ele>
        <time>2021-07-31T10:49:44Z</time>
      </trkpt>
      <trkpt lat="42.33105" lon="2.17562">
        <ele>1213.84</ele>
        <time>2021-07-31T10:49:51Z</time>
      </trkpt>
      <trkpt lat="42.33028" lon="2.17521">
        <ele>1209.64</ele>
        <time>2021-07-31T10:49:58Z</time>
      </trkpt>
      <trkpt lat="42.32975" lon="2.17502">
        <ele>1206.57</ele>
        <time>2021-07-31T10:50:02Z</time>
      </trkpt>
      <trkpt lat="42.32924" lon="2.17482">
        <ele>1203.25</ele>
        <time>2021-07-31T10:50:06Z</time>
      </trkpt>
      <trkpt lat="42.32865" lon="2.17477">
        <ele>1199.51</ele>
        <time>2021-07-31T10:50:10Z</time>
      </trkpt>
      <trkpt lat="42.32801" lon="2.17483">
        <ele>1195.73</ele>
        <time>2021-07-31T10:50:14Z</time>
      </trkpt>
      <trkpt lat="42.32753" lon="2.17488">
        <ele>1192.23</ele>
        <time>2021-07-31T10:50:17Z</time>
      </trkpt>
      <trkpt lat="42.32706" lon="2.1749">
        <ele>1188.67</ele>
        <time>2021-07-31T10:50:20Z</time>
      </trkpt>
      <trkpt lat="42.32661" lon="2.17491">
        <ele>1184.54</ele>
        <time>2021-07-31T10:50:23Z</time>
      </trkpt>
      <trkpt lat="42.32647" lon="2.17492">
        <ele>1183.21</ele>
        <time>2021-07-31T10:50:24Z</time>
      </trkpt>
      <trkpt lat="42.32596" lon="2.1751">
        <ele>1177.85</ele>
        <time>2021-07-31T10:50:28Z</time>
      </trkpt>
      <trkpt lat="42.32584" lon="2.17515">
        <ele>1176.6</ele>
        <time>2021-07-31T10:50:29Z</time>
      </trkpt>
      <trkpt lat="42.32538" lon="2.17507">
        <ele>1171.41</ele>
        <time>2021-07-31T10:50:33Z</time>
      </trkpt>
      <trkpt lat="42.32495" lon="2.17491">
        <ele>1167.35</ele>
        <time>2021-07-31T10:50:37Z</time>
      </trkpt>
      <trkpt lat="42.32451" lon="2.17458">
        <ele>1162.48</ele>
        <time>2021-07-31T10:50:42Z</time>
      </trkpt>
      <trkpt lat="42.32434" lon="2.17442">
        <ele>1160.54</ele>
        <time>2021-07-31T10:50:44Z</time>
      </trkpt>
      <trkpt lat="42.32386" lon="2.17429">
        <ele>1157.27</ele>
        <time>2021-07-31T10:50:48Z</time>
      </trkpt>
      <trkpt lat="42.32336" lon="2.17418">
        <ele>1154.2</ele>
        <time>2021-07-31T10:50:52Z</time>
      </trkpt>
      <trkpt lat="42.32286" lon="2.17426">
        <ele>1150.28</ele>
        <time>2021-07-31T10:50:56Z</time>
      </trkpt>
      <trkpt lat="42.32239" lon="2.17445">
        <ele>1146.79</ele>
        <time>2021-07-31T10:51:00Z</time>
      </trkpt>
      <trkpt lat="42.32191" lon="2.17445">
        <ele>1143.13</ele>
        <time>2021-07-31T10:51:04Z</time>
      </trkpt>
      <trkpt lat="42.3213" lon="2.17462">
        <ele>1138.67</ele>
        <time>2021-07-31T10:51:09Z</time>
      </trkpt>
      <trkpt lat="42.32086" lon="2.17483">
        <ele>1135.01</ele>
        <time>2021-07-31T10:51:13Z</time>
      </trkpt>
      <trkpt lat="42.32036" lon="2.17497">
        <ele>1131.22</ele>
        <time>2021-07-31T10:51:17Z</time>
      </trkpt>
      <trkpt lat="42.3198" lon="2.17504">
        <ele>1127.21</ele>
        <time>2021-07-31T10:51:21Z</time>
      </trkpt>
      <trkpt lat="42.31943" lon="2.17507">
        <ele>1124.2</ele>
        <time>2021-07-31T10:51:24Z</time>
      </trkpt>
      <trkpt lat="42.31906" lon="2.1751">
        <ele>1120.83</ele>
        <time>2021-07-31T10:51:27Z</time>
      </trkpt>
      <trkpt lat="42.31866" lon="2.17513">
        <ele>1117.45</ele>
        <time>2021-07-31T10:51:30Z</time>
      </trkpt>
      <trkpt lat="42.31826" lon="2.17522">
        <ele>1114.26</ele>
        <time>2021-07-31T10:51:33Z</time>
      </trkpt>
      <trkpt lat="42.31788" lon="2.1753">
        <ele>1110.96</ele>
        <time>2021-07-31T10:51:36Z</time>
      </trkpt>
      <trkpt lat="42.31756" lon="2.17534">
        <ele>1107.38</ele>
        <time>2021-07-31T10:51:39Z</time>
      </trkpt>
      <trkpt lat="42.31747" lon="2.17536">
        <ele>1106.19</ele>
        <time>2021-07-31T10:51:40Z</time>
      </trkpt>
      <trkpt lat="42.31716" lon="2.17552">
        <ele>1101.76</ele>
        <time>2021-07-31T10:51:44Z</time>
      </trkpt>
      <trkpt lat="42.31703" lon="2.17583">
        <ele>1098.6</ele>
        <time>2021-07-31T10:51:47Z</time>
      </trkpt>
      <trkpt lat="42.31698" lon="2.1761">
        <ele>1096.92</ele>
        <time>2021-07-31T10:51:49Z</time>
      </trkpt>
      <trkpt lat="42.31696" lon="2.17637">
        <ele>1095.58</ele>
        <time>2021-07-31T10:51:51Z</time>
      </trkpt>
      <trkpt lat="42.31703" lon="2.17777">
        <ele>1093.18</ele>
        <time>2021-07-31T10:52:02Z</time>
      </trkpt>
      <trkpt lat="42.31703" lon="2.17788">
        <ele>1093.13</ele>
        <time>2021-07-31T10:52:03Z</time>
      </trkpt>
      <trkpt lat="42.31713" lon="2.17855">
        <ele>1092.75</ele>
        <time>2021-07-31T10:52:09Z</time>
      </trkpt>
      <trkpt lat="42.31761" lon="2.17915">
        <ele>1092.07</ele>
        <time>2021-07-31T10:52:16Z</time>
      </trkpt>
      <trkpt lat="42.31779" lon="2.17933">
        <ele>1092.1</ele>
        <time>2021-07-31T10:52:18Z</time>
      </trkpt>
      <trkpt lat="42.31813" lon="2.18005">
        <ele>1091.8</ele>
        <time>2021-07-31T10:52:25Z</time>
      </trkpt>
      <trkpt lat="42.31824" lon="2.18021">
        <ele>1091.6</ele>
        <time>2021-07-31T10:52:27Z</time>
      </trkpt>
      <trkpt lat="42.3183" lon="2.18065">
        <ele>1090.87</ele>
        <time>2021-07-31T10:52:31Z</time>
      </trkpt>
      <trkpt lat="42.31843" lon="2.1813">
        <ele>1090.52</ele>
        <time>2021-07-31T10:52:38Z</time>
      </trkpt>
      <trkpt lat="42.31858" lon="2.18162">
        <ele>1091.04</ele>
        <time>2021-07-31T10:52:41Z</time>
      </trkpt>
      <trkpt lat="42.31835" lon="2.18216">
        <ele>1092.7</ele>
        <time>2021-07-31T10:52:48Z</time>
      </trkpt>
      <trkpt lat="42.31813" lon="2.18286">
        <ele>1092.82</ele>
        <time>2021-07-31T10:52:54Z</time>
      </trkpt>
      <trkpt lat="42.31805" lon="2.1831">
        <ele>1092.53</ele>
        <time>2021-07-31T10:52:56Z</time>
      </trkpt>
      <trkpt lat="42.31762" lon="2.1831">
        <ele>1090.64</ele>
        <time>2021-07-31T10:53:03Z</time>
      </trkpt>
      <trkpt lat="42.31738" lon="2.18319">
        <ele>1090.03</ele>
        <time>2021-07-31T10:53:07Z</time>
      </trkpt>
      <trkpt lat="42.31718" lon="2.18354">
        <ele>1089.58</ele>
        <time>2021-07-31T10:53:10Z</time>
      </trkpt>
      <trkpt lat="42.31699" lon="2.18463">
        <ele>1085.57</ele>
        <time>2021-07-31T10:53:17Z</time>
      </trkpt>
      <trkpt lat="42.317" lon="2.18524">
        <ele>1081.66</ele>
        <time>2021-07-31T10:53:21Z</time>
      </trkpt>
      <trkpt lat="42.31682" lon="2.18551">
        <ele>1077.26</ele>
        <time>2021-07-31T10:53:25Z</time>
      </trkpt>
      <trkpt lat="42.31638" lon="2.18613">
        <ele>1072.29</ele>
        <time>2021-07-31T10:53:32Z</time>
      </trkpt>
      <trkpt lat="42.3162" lon="2.1865">
        <ele>1070.6</ele>
        <time>2021-07-31T10:53:35Z</time>
      </trkpt>
      <trkpt lat="42.31612" lon="2.18714">
        <ele>1066.57</ele>
        <time>2021-07-31T10:53:40Z</time>
      </trkpt>
      <trkpt lat="42.31611" lon="2.18766">
        <ele>1062.84</ele>
        <time>2021-07-31T10:53:44Z</time>
      </trkpt>
      <trkpt lat="42.31603" lon="2.18774">
        <ele>1061.95</ele>
        <time>2021-07-31T10:53:45Z</time>
      </trkpt>
      <trkpt lat="42.31596" lon="2.18845">
        <ele>1059.17</ele>
        <time>2021-07-31T10:53:53Z</time>
      </trkpt>
      <trkpt lat="42.3161" lon="2.18876">
        <ele>1059.42</ele>
        <time>2021-07-31T10:53:56Z</time>
      </trkpt>
      <trkpt lat="42.31594" lon="2.18912">
        <ele>1061.04</ele>
        <time>2021-07-31T10:54:01Z</time>
      </trkpt>
      <trkpt lat="42.31581" lon="2.18986">
        <ele>1060.91</ele>
        <time>2021-07-31T10:54:09Z</time>
      </trkpt>
      <trkpt lat="42.31587" lon="2.1904">
        <ele>1057.06</ele>
        <time>2021-07-31T10:54:16Z</time>
      </trkpt>
      <trkpt lat="42.31571" lon="2.19067">
        <ele>1055.92</ele>
        <time>2021-07-31T10:54:19Z</time>
      </trkpt>
      <trkpt lat="42.31559" lon="2.19084">
        <ele>1054.9</ele>
        <time>2021-07-31T10:54:21Z</time>
      </trkpt>
      <trkpt lat="42.31537" lon="2.1917">
        <ele>1051.32</ele>
        <time>2021-07-31T10:54:27Z</time>
      </trkpt>
      <trkpt lat="42.31498" lon="2.19216">
        <ele>1047.41</ele>
        <time>2021-07-31T10:54:31Z</time>
      </trkpt>
      <trkpt lat="42.31473" lon="2.19257">
        <ele>1042.68</ele>
        <time>2021-07-31T10:54:35Z</time>
      </trkpt>
      <trkpt lat="42.31479" lon="2.19294">
        <ele>1039.22</ele>
        <time>2021-07-31T10:54:39Z</time>
      </trkpt>
      <trkpt lat="42.31481" lon="2.19298">
        <ele>1038.36</ele>
        <time>2021-07-31T10:54:40Z</time>
      </trkpt>
      <trkpt lat="42.31485" lon="2.19305">
        <ele>1035.85</ele>
        <time>2021-07-31T10:54:44Z</time>
      </trkpt>
      <trkpt lat="42.31472" lon="2.19295">
        <ele>1032.9</ele>
        <time>2021-07-31T10:54:53Z</time>
      </trkpt>
      <trkpt lat="42.31468" lon="2.19234">
        <ele>1032.13</ele>
        <time>2021-07-31T10:54:57Z</time>
      </trkpt>
      <trkpt lat="42.3146" lon="2.19079">
        <ele>1029.61</ele>
        <time>2021-07-31T10:55:04Z</time>
      </trkpt>
      <trkpt lat="42.31497" lon="2.18977">
        <ele>1026.59</ele>
        <time>2021-07-31T10:55:10Z</time>
      </trkpt>
      <trkpt lat="42.31512" lon="2.18917">
        <ele>1023.72</ele>
        <time>2021-07-31T10:55:14Z</time>
      </trkpt>
      <trkpt lat="42.3152" lon="2.1886">
        <ele>1019.74</ele>
        <time>2021-07-31T10:55:18Z</time>
      </trkpt>
      <trkpt lat="42.31518" lon="2.18791">
        <ele>1014.81</ele>
        <time>2021-07-31T10:55:23Z</time>
      </trkpt>
      <trkpt lat="42.31523" lon="2.1873">
        <ele>1011.31</ele>
        <time>2021-07-31T10:55:27Z</time>
      </trkpt>
      <trkpt lat="42.31508" lon="2.18683">
        <ele>1007.65</ele>
        <time>2021-07-31T10:55:31Z</time>
      </trkpt>
      <trkpt lat="42.31501" lon="2.18654">
        <ele>1005.96</ele>
        <time>2021-07-31T10:55:33Z</time>
      </trkpt>
      <trkpt lat="42.31461" lon="2.18604">
        <ele>1001.22</ele>
        <time>2021-07-31T10:55:39Z</time>
      </trkpt>
      <trkpt lat="42.3144" lon="2.18553">
        <ele>997.32</ele>
        <time>2021-07-31T10:55:43Z</time>
      </trkpt>
      <trkpt lat="42.31422" lon="2.18524">
        <ele>995.54</ele>
        <time>2021-07-31T10:55:45Z</time>
      </trkpt>
      <trkpt lat="42.31391" lon="2.18487">
        <ele>993.29</ele>
        <time>2021-07-31T10:55:48Z</time>
      </trkpt>
      <trkpt lat="42.31342" lon="2.18483">
        <ele>988.48</ele>
        <time>2021-07-31T10:55:52Z</time>
      </trkpt>
      <trkpt lat="42.31276" lon="2.18453">
        <ele>983.8</ele>
        <time>2021-07-31T10:55:57Z</time>
      </trkpt>
      <trkpt lat="42.31262" lon="2.18445">
        <ele>983.09</ele>
        <time>2021-07-31T10:55:58Z</time>
      </trkpt>
      <trkpt lat="42.31231" lon="2.18408">
        <ele>980.73</ele>
        <time>2021-07-31T10:56:01Z</time>
      </trkpt>
      <trkpt lat="42.312" lon="2.1837">
        <ele>978.17</ele>
        <time>2021-07-31T10:56:04Z</time>
      </trkpt>
      <trkpt lat="42.31183" lon="2.18313">
        <ele>974.15</ele>
        <time>2021-07-31T10:56:08Z</time>
      </trkpt>
      <trkpt lat="42.31184" lon="2.18257">
        <ele>970.91</ele>
        <time>2021-07-31T10:56:11Z</time>
      </trkpt>
      <trkpt lat="42.31195" lon="2.18186">
        <ele>966.56</ele>
        <time>2021-07-31T10:56:15Z</time>
      </trkpt>
      <trkpt lat="42.312" lon="2.18121">
        <ele>961.8</ele>
        <time>2021-07-31T10:56:19Z</time>
      </trkpt>
      <trkpt lat="42.31219" lon="2.18076">
        <ele>958.15</ele>
        <time>2021-07-31T10:56:22Z</time>
      </trkpt>
      <trkpt lat="42.31228" lon="2.18064">
        <ele>957.09</ele>
        <time>2021-07-31T10:56:23Z</time>
      </trkpt>
      <trkpt lat="42.31268" lon="2.17995">
        <ele>952.99</ele>
        <time>2021-07-31T10:56:28Z</time>
      </trkpt>
      <trkpt lat="42.31292" lon="2.17927">
        <ele>950.03</ele>
        <time>2021-07-31T10:56:32Z</time>
      </trkpt>
      <trkpt lat="42.313" lon="2.1781">
        <ele>946.37</ele>
        <time>2021-07-31T10:56:38Z</time>
      </trkpt>
      <trkpt lat="42.31309" lon="2.17669">
        <ele>942.53</ele>
        <time>2021-07-31T10:56:45Z</time>
      </trkpt>
      <trkpt lat="42.31295" lon="2.17612">
        <ele>937.97</ele>
        <time>2021-07-31T10:56:49Z</time>
      </trkpt>
      <trkpt lat="42.3128" lon="2.17589">
        <ele>935.89</ele>
        <time>2021-07-31T10:56:51Z</time>
      </trkpt>
      <trkpt lat="42.31245" lon="2.17535">
        <ele>931.1</ele>
        <time>2021-07-31T10:56:56Z</time>
      </trkpt>
      <trkpt lat="42.31225" lon="2.17507">
        <ele>927.85</ele>
        <time>2021-07-31T10:57:00Z</time>
      </trkpt>
      <trkpt lat="42.31185" lon="2.17449">
        <ele>923.89</ele>
        <time>2021-07-31T10:57:07Z</time>
      </trkpt>
      <trkpt lat="42.31167" lon="2.17427">
        <ele>922.88</ele>
        <time>2021-07-31T10:57:10Z</time>
      </trkpt>
      <trkpt lat="42.31137" lon="2.1741">
        <ele>921.62</ele>
        <time>2021-07-31T10:57:14Z</time>
      </trkpt>
      <trkpt lat="42.31091" lon="2.17396">
        <ele>918.71</ele>
        <time>2021-07-31T10:57:23Z</time>
      </trkpt>
      <trkpt lat="42.31055" lon="2.17375">
        <ele>916.03</ele>
        <time>2021-07-31T10:57:32Z</time>
      </trkpt>
      <trkpt lat="42.31017" lon="2.1734">
        <ele>915.52</ele>
        <time>2021-07-31T10:57:37Z</time>
      </trkpt>
      <trkpt lat="42.30995" lon="2.17295">
        <ele>914.53</ele>
        <time>2021-07-31T10:57:42Z</time>
      </trkpt>
      <trkpt lat="42.3098" lon="2.17247">
        <ele>913.47</ele>
        <time>2021-07-31T10:57:47Z</time>
      </trkpt>
      <trkpt lat="42.30943" lon="2.17194">
        <ele>910.95</ele>
        <time>2021-07-31T10:57:57Z</time>
      </trkpt>
      <trkpt lat="42.30925" lon="2.17151">
        <ele>908.42</ele>
        <time>2021-07-31T10:58:09Z</time>
      </trkpt>
      <trkpt lat="42.30896" lon="2.17091">
        <ele>907.39</ele>
        <time>2021-07-31T10:58:20Z</time>
      </trkpt>
      <trkpt lat="42.30876" lon="2.17066">
        <ele>906.49</ele>
        <time>2021-07-31T10:58:32Z</time>
      </trkpt>
      <trkpt lat="42.30866" lon="2.17061">
        <ele>906.34</ele>
        <time>2021-07-31T10:58:35Z</time>
      </trkpt>
      <trkpt lat="42.30855" lon="2.1706">
        <ele>906.27</ele>
        <time>2021-07-31T10:58:37Z</time>
      </trkpt>
      <trkpt lat="42.30832" lon="2.17064">
        <ele>905.5</ele>
        <time>2021-07-31T10:58:44Z</time>
      </trkpt>
      <trkpt lat="42.30829" lon="2.1707">
        <ele>905.33</ele>
        <time>2021-07-31T10:58:45Z</time>
      </trkpt>
      <trkpt lat="42.30826" lon="2.17075">
        <ele>905.2</ele>
        <time>2021-07-31T10:58:46Z</time>
      </trkpt>
      <trkpt lat="42.30821" lon="2.17079">
        <ele>905.1</ele>
        <time>2021-07-31T10:58:47Z</time>
      </trkpt>
      <trkpt lat="42.30818" lon="2.17082">
        <ele>904.99</ele>
        <time>2021-07-31T10:58:48Z</time>
      </trkpt>
      <trkpt lat="42.30815" lon="2.17085">
        <ele>904.84</ele>
        <time>2021-07-31T10:58:49Z</time>
      </trkpt>
      <trkpt lat="42.3081" lon="2.17087">
        <ele>904.68</ele>
        <time>2021-07-31T10:58:50Z</time>
      </trkpt>
      <trkpt lat="42.30804" lon="2.17087">
        <ele>904.55</ele>
        <time>2021-07-31T10:58:51Z</time>
      </trkpt>
      <trkpt lat="42.30799" lon="2.17086">
        <ele>904.47</ele>
        <time>2021-07-31T10:58:52Z</time>
      </trkpt>
      <trkpt lat="42.30794" lon="2.17087">
        <ele>904.39</ele>
        <time>2021-07-31T10:58:53Z</time>
      </trkpt>
      <trkpt lat="42.3075" lon="2.17083">
        <ele>903.07</ele>
        <time>2021-07-31T10:59:06Z</time>
      </trkpt>
      <trkpt lat="42.3074" lon="2.17081">
        <ele>902.23</ele>
        <time>2021-07-31T10:59:16Z</time>
      </trkpt>
      <trkpt lat="42.30728" lon="2.17057">
        <ele>904.2</ele>
        <time>2021-07-31T11:40:31Z</time>
      </trkpt>
      <trkpt lat="42.30731" lon="2.17054">
        <ele>904.23</ele>
        <time>2021-07-31T11:40:32Z</time>
      </trkpt>
      <trkpt lat="42.3075" lon="2.17024">
        <ele>904.29</ele>
        <time>2021-07-31T11:40:40Z</time>
      </trkpt>
      <trkpt lat="42.30762" lon="2.17019">
        <ele>904.23</ele>
        <time>2021-07-31T11:40:44Z</time>
      </trkpt>
      <trkpt lat="42.30815" lon="2.17013">
        <ele>904.86</ele>
        <time>2021-07-31T11:40:58Z</time>
      </trkpt>
      <trkpt lat="42.30867" lon="2.17001">
        <ele>905.88</ele>
        <time>2021-07-31T11:41:06Z</time>
      </trkpt>
      <trkpt lat="42.30943" lon="2.16986">
        <ele>909.11</ele>
        <time>2021-07-31T11:41:15Z</time>
      </trkpt>
      <trkpt lat="42.30989" lon="2.16978">
        <ele>911.9</ele>
        <time>2021-07-31T11:41:20Z</time>
      </trkpt>
      <trkpt lat="42.31047" lon="2.16995">
        <ele>916.02</ele>
        <time>2021-07-31T11:41:26Z</time>
      </trkpt>
      <trkpt lat="42.31095" lon="2.16997">
        <ele>918.91</ele>
        <time>2021-07-31T11:41:31Z</time>
      </trkpt>
      <trkpt lat="42.31183" lon="2.16951">
        <ele>922.52</ele>
        <time>2021-07-31T11:41:40Z</time>
      </trkpt>
      <trkpt lat="42.31252" lon="2.16911">
        <ele>925.53</ele>
        <time>2021-07-31T11:41:46Z</time>
      </trkpt>
      <trkpt lat="42.31273" lon="2.16898">
        <ele>926.28</ele>
        <time>2021-07-31T11:41:48Z</time>
      </trkpt>
      <trkpt lat="42.31322" lon="2.16847">
        <ele>928.02</ele>
        <time>2021-07-31T11:41:53Z</time>
      </trkpt>
      <trkpt lat="42.31406" lon="2.16801">
        <ele>931.97</ele>
        <time>2021-07-31T11:42:00Z</time>
      </trkpt>
      <trkpt lat="42.31461" lon="2.16778">
        <ele>933.29</ele>
        <time>2021-07-31T11:42:05Z</time>
      </trkpt>
      <trkpt lat="42.31585" lon="2.16746">
        <ele>935.46</ele>
        <time>2021-07-31T11:42:14Z</time>
      </trkpt>
      <trkpt lat="42.316" lon="2.16742">
        <ele>935.82</ele>
        <time>2021-07-31T11:42:15Z</time>
      </trkpt>
      <trkpt lat="42.31718" lon="2.16756">
        <ele>939.33</ele>
        <time>2021-07-31T11:42:23Z</time>
      </trkpt>
      <trkpt lat="42.31762" lon="2.1676">
        <ele>940.16</ele>
        <time>2021-07-31T11:42:26Z</time>
      </trkpt>
      <trkpt lat="42.31806" lon="2.16755">
        <ele>941.42</ele>
        <time>2021-07-31T11:42:29Z</time>
      </trkpt>
      <trkpt lat="42.31892" lon="2.16789">
        <ele>944.4</ele>
        <time>2021-07-31T11:42:35Z</time>
      </trkpt>
      <trkpt lat="42.31906" lon="2.168">
        <ele>944.91</ele>
        <time>2021-07-31T11:42:36Z</time>
      </trkpt>
      <trkpt lat="42.31953" lon="2.16851">
        <ele>947.67</ele>
        <time>2021-07-31T11:42:40Z</time>
      </trkpt>
      <trkpt lat="42.32013" lon="2.16891">
        <ele>950.91</ele>
        <time>2021-07-31T11:42:45Z</time>
      </trkpt>
      <trkpt lat="42.3204" lon="2.16921">
        <ele>953.2</ele>
        <time>2021-07-31T11:42:48Z</time>
      </trkpt>
      <trkpt lat="42.32094" lon="2.1694">
        <ele>957.38</ele>
        <time>2021-07-31T11:42:54Z</time>
      </trkpt>
      <trkpt lat="42.32128" lon="2.16945">
        <ele>958.78</ele>
        <time>2021-07-31T11:42:57Z</time>
      </trkpt>
      <trkpt lat="42.32174" lon="2.16924">
        <ele>960.55</ele>
        <time>2021-07-31T11:43:01Z</time>
      </trkpt>
      <trkpt lat="42.32278" lon="2.16904">
        <ele>962.93</ele>
        <time>2021-07-31T11:43:08Z</time>
      </trkpt>
      <trkpt lat="42.32296" lon="2.16905">
        <ele>963.4</ele>
        <time>2021-07-31T11:43:09Z</time>
      </trkpt>
      <trkpt lat="42.32376" lon="2.16938">
        <ele>965.67</ele>
        <time>2021-07-31T11:43:14Z</time>
      </trkpt>
      <trkpt lat="42.32447" lon="2.16931">
        <ele>968.51</ele>
        <time>2021-07-31T11:43:19Z</time>
      </trkpt>
      <trkpt lat="42.32489" lon="2.16939">
        <ele>970.97</ele>
        <time>2021-07-31T11:43:23Z</time>
      </trkpt>
      <trkpt lat="42.32558" lon="2.16937">
        <ele>975.71</ele>
        <time>2021-07-31T11:43:29Z</time>
      </trkpt>
      <trkpt lat="42.32615" lon="2.16944">
        <ele>978.96</ele>
        <time>2021-07-31T11:43:33Z</time>
      </trkpt>
      <trkpt lat="42.32628" lon="2.1695">
        <ele>979.8</ele>
        <time>2021-07-31T11:43:34Z</time>
      </trkpt>
      <trkpt lat="42.32652" lon="2.16962">
        <ele>981.5</ele>
        <time>2021-07-31T11:43:36Z</time>
      </trkpt>
      <trkpt lat="42.32701" lon="2.16964">
        <ele>983.94</ele>
        <time>2021-07-31T11:43:40Z</time>
      </trkpt>
      <trkpt lat="42.32769" lon="2.16952">
        <ele>987.66</ele>
        <time>2021-07-31T11:43:45Z</time>
      </trkpt>
      <trkpt lat="42.32815" lon="2.16948">
        <ele>990.35</ele>
        <time>2021-07-31T11:43:48Z</time>
      </trkpt>
      <trkpt lat="42.32895" lon="2.16937">
        <ele>994.5</ele>
        <time>2021-07-31T11:43:53Z</time>
      </trkpt>
      <trkpt lat="42.32981" lon="2.16947">
        <ele>997.57</ele>
        <time>2021-07-31T11:43:58Z</time>
      </trkpt>
      <trkpt lat="42.33011" lon="2.1695">
        <ele>998.34</ele>
        <time>2021-07-31T11:44:00Z</time>
      </trkpt>
      <trkpt lat="42.33052" lon="2.16935">
        <ele>999.08</ele>
        <time>2021-07-31T11:44:03Z</time>
      </trkpt>
      <trkpt lat="42.33134" lon="2.16962">
        <ele>1000.03</ele>
        <time>2021-07-31T11:44:09Z</time>
      </trkpt>
      <trkpt lat="42.33227" lon="2.17066">
        <ele>1003.64</ele>
        <time>2021-07-31T11:44:17Z</time>
      </trkpt>
      <trkpt lat="42.33236" lon="2.1708">
        <ele>1004.26</ele>
        <time>2021-07-31T11:44:18Z</time>
      </trkpt>
      <trkpt lat="42.33277" lon="2.17102">
        <ele>1007.69</ele>
        <time>2021-07-31T11:44:22Z</time>
      </trkpt>
      <trkpt lat="42.33314" lon="2.17093">
        <ele>1009.84</ele>
        <time>2021-07-31T11:44:25Z</time>
      </trkpt>
      <trkpt lat="42.33374" lon="2.17071">
        <ele>1014.23</ele>
        <time>2021-07-31T11:44:30Z</time>
      </trkpt>
      <trkpt lat="42.33405" lon="2.17095">
        <ele>1016.94</ele>
        <time>2021-07-31T11:44:33Z</time>
      </trkpt>
      <trkpt lat="42.33415" lon="2.17106">
        <ele>1017.7</ele>
        <time>2021-07-31T11:44:34Z</time>
      </trkpt>
      <trkpt lat="42.3347" lon="2.17154">
        <ele>1019.65</ele>
        <time>2021-07-31T11:44:39Z</time>
      </trkpt>
      <trkpt lat="42.3348" lon="2.17158">
        <ele>1019.71</ele>
        <time>2021-07-31T11:44:40Z</time>
      </trkpt>
      <trkpt lat="42.3349" lon="2.17158">
        <ele>1019.66</ele>
        <time>2021-07-31T11:44:41Z</time>
      </trkpt>
      <trkpt lat="42.33499" lon="2.17154">
        <ele>1019.52</ele>
        <time>2021-07-31T11:44:42Z</time>
      </trkpt>
      <trkpt lat="42.33513" lon="2.17144">
        <ele>1018.78</ele>
        <time>2021-07-31T11:44:44Z</time>
      </trkpt>
      <trkpt lat="42.33545" lon="2.17137">
        <ele>1014.61</ele>
        <time>2021-07-31T11:44:51Z</time>
      </trkpt>
      <trkpt lat="42.3355" lon="2.17142">
        <ele>1014.18</ele>
        <time>2021-07-31T11:44:52Z</time>
      </trkpt>
      <trkpt lat="42.33564" lon="2.17153">
        <ele>1013.59</ele>
        <time>2021-07-31T11:44:54Z</time>
      </trkpt>
      <trkpt lat="42.33614" lon="2.17148">
        <ele>1013.38</ele>
        <time>2021-07-31T11:44:59Z</time>
      </trkpt>
      <trkpt lat="42.33685" lon="2.17128">
        <ele>1014.24</ele>
        <time>2021-07-31T11:45:04Z</time>
      </trkpt>
      <trkpt lat="42.33805" lon="2.17142">
        <ele>1017.9</ele>
        <time>2021-07-31T11:45:12Z</time>
      </trkpt>
      <trkpt lat="42.3382" lon="2.17143">
        <ele>1018.56</ele>
        <time>2021-07-31T11:45:13Z</time>
      </trkpt>
      <trkpt lat="42.3391" lon="2.17094">
        <ele>1021.94</ele>
        <time>2021-07-31T11:45:20Z</time>
      </trkpt>
      <trkpt lat="42.33972" lon="2.16994">
        <ele>1024.96</ele>
        <time>2021-07-31T11:45:28Z</time>
      </trkpt>
      <trkpt lat="42.33972" lon="2.16914">
        <ele>1025.81</ele>
        <time>2021-07-31T11:45:33Z</time>
      </trkpt>
      <trkpt lat="42.33993" lon="2.16851">
        <ele>1026.96</ele>
        <time>2021-07-31T11:45:37Z</time>
      </trkpt>
      <trkpt lat="42.34071" lon="2.16755">
        <ele>1030.53</ele>
        <time>2021-07-31T11:45:44Z</time>
      </trkpt>
      <trkpt lat="42.34121" lon="2.167">
        <ele>1033.97</ele>
        <time>2021-07-31T11:45:49Z</time>
      </trkpt>
      <trkpt lat="42.34141" lon="2.16683">
        <ele>1035.44</ele>
        <time>2021-07-31T11:45:52Z</time>
      </trkpt>
      <trkpt lat="42.34157" lon="2.16685">
        <ele>1036.36</ele>
        <time>2021-07-31T11:45:56Z</time>
      </trkpt>
      <trkpt lat="42.3416" lon="2.16679">
        <ele>1037.18</ele>
        <time>2021-07-31T11:46:03Z</time>
      </trkpt>
      <trkpt lat="42.34138" lon="2.16679">
        <ele>1037.72</ele>
        <time>2021-07-31T11:46:09Z</time>
      </trkpt>
      <trkpt lat="42.34097" lon="2.16698">
        <ele>1041.23</ele>
        <time>2021-07-31T11:46:20Z</time>
      </trkpt>
      <trkpt lat="42.34095" lon="2.16698">
        <ele>1041.97</ele>
        <time>2021-07-31T11:46:22Z</time>
      </trkpt>
      <trkpt lat="42.34092" lon="2.16697">
        <ele>1042.73</ele>
        <time>2021-07-31T11:46:24Z</time>
      </trkpt>
      <trkpt lat="42.341" lon="2.16674">
        <ele>1045.42</ele>
        <time>2021-07-31T11:46:33Z</time>
      </trkpt>
      <trkpt lat="42.3409" lon="2.16662">
        <ele>1048.29</ele>
        <time>2021-07-31T11:46:39Z</time>
      </trkpt>
      <trkpt lat="42.34086" lon="2.16667">
        <ele>1048.8</ele>
        <time>2021-07-31T11:46:40Z</time>
      </trkpt>
      <trkpt lat="42.34044" lon="2.16704">
        <ele>1053.09</ele>
        <time>2021-07-31T11:46:46Z</time>
      </trkpt>
      <trkpt lat="42.34031" lon="2.16715">
        <ele>1055.09</ele>
        <time>2021-07-31T11:46:48Z</time>
      </trkpt>
      <trkpt lat="42.34021" lon="2.16712">
        <ele>1059.87</ele>
        <time>2021-07-31T11:46:53Z</time>
      </trkpt>
      <trkpt lat="42.34031" lon="2.16694">
        <ele>1063.48</ele>
        <time>2021-07-31T11:46:57Z</time>
      </trkpt>
      <trkpt lat="42.34047" lon="2.16669">
        <ele>1065.81</ele>
        <time>2021-07-31T11:47:00Z</time>
      </trkpt>
      <trkpt lat="42.34059" lon="2.16648">
        <ele>1067.7</ele>
        <time>2021-07-31T11:47:02Z</time>
      </trkpt>
      <trkpt lat="42.3407" lon="2.16601">
        <ele>1071.9</ele>
        <time>2021-07-31T11:47:06Z</time>
      </trkpt>
      <trkpt lat="42.34074" lon="2.16581">
        <ele>1074.04</ele>
        <time>2021-07-31T11:47:08Z</time>
      </trkpt>
      <trkpt lat="42.34077" lon="2.16563">
        <ele>1076.05</ele>
        <time>2021-07-31T11:47:10Z</time>
      </trkpt>
      <trkpt lat="42.34089" lon="2.16553">
        <ele>1079.36</ele>
        <time>2021-07-31T11:47:13Z</time>
      </trkpt>
      <trkpt lat="42.3412" lon="2.16557">
        <ele>1083.87</ele>
        <time>2021-07-31T11:47:17Z</time>
      </trkpt>
      <trkpt lat="42.34147" lon="2.16557">
        <ele>1086.71</ele>
        <time>2021-07-31T11:47:20Z</time>
      </trkpt>
      <trkpt lat="42.34191" lon="2.1657">
        <ele>1091</ele>
        <time>2021-07-31T11:47:25Z</time>
      </trkpt>
      <trkpt lat="42.34198" lon="2.16572">
        <ele>1091.81</ele>
        <time>2021-07-31T11:47:26Z</time>
      </trkpt>
      <trkpt lat="42.34219" lon="2.16568">
        <ele>1095.77</ele>
        <time>2021-07-31T11:47:31Z</time>
      </trkpt>
      <trkpt lat="42.34202" lon="2.16555">
        <ele>1098.91</ele>
        <time>2021-07-31T11:47:35Z</time>
      </trkpt>
      <trkpt lat="42.34159" lon="2.16525">
        <ele>1104.01</ele>
        <time>2021-07-31T11:47:40Z</time>
      </trkpt>
      <trkpt lat="42.3414" lon="2.16516">
        <ele>1105.97</ele>
        <time>2021-07-31T11:47:42Z</time>
      </trkpt>
      <trkpt lat="42.34125" lon="2.16497">
        <ele>1109.97</ele>
        <time>2021-07-31T11:47:47Z</time>
      </trkpt>
      <trkpt lat="42.3414" lon="2.16498">
        <ele>1112.51</ele>
        <time>2021-07-31T11:47:50Z</time>
      </trkpt>
      <trkpt lat="42.34164" lon="2.16503">
        <ele>1114.69</ele>
        <time>2021-07-31T11:47:53Z</time>
      </trkpt>
      <trkpt lat="42.34212" lon="2.16492">
        <ele>1118.6</ele>
        <time>2021-07-31T11:47:58Z</time>
      </trkpt>
      <trkpt lat="42.34233" lon="2.16481">
        <ele>1120.9</ele>
        <time>2021-07-31T11:48:01Z</time>
      </trkpt>
      <trkpt lat="42.34262" lon="2.16448">
        <ele>1124.81</ele>
        <time>2021-07-31T11:48:07Z</time>
      </trkpt>
      <trkpt lat="42.34258" lon="2.16427">
        <ele>1128.88</ele>
        <time>2021-07-31T11:48:13Z</time>
      </trkpt>
      <trkpt lat="42.34253" lon="2.16429">
        <ele>1129.48</ele>
        <time>2021-07-31T11:48:14Z</time>
      </trkpt>
      <trkpt lat="42.34212" lon="2.16428">
        <ele>1133.36</ele>
        <time>2021-07-31T11:48:19Z</time>
      </trkpt>
      <trkpt lat="42.34171" lon="2.16419">
        <ele>1137.77</ele>
        <time>2021-07-31T11:48:23Z</time>
      </trkpt>
      <trkpt lat="42.34142" lon="2.16414">
        <ele>1141.78</ele>
        <time>2021-07-31T11:48:26Z</time>
      </trkpt>
      <trkpt lat="42.34119" lon="2.16412">
        <ele>1145.95</ele>
        <time>2021-07-31T11:48:29Z</time>
      </trkpt>
      <trkpt lat="42.34095" lon="2.16418">
        <ele>1150.1</ele>
        <time>2021-07-31T11:48:32Z</time>
      </trkpt>
      <trkpt lat="42.34065" lon="2.16403">
        <ele>1155.59</ele>
        <time>2021-07-31T11:48:36Z</time>
      </trkpt>
      <trkpt lat="42.34037" lon="2.16384">
        <ele>1160.06</ele>
        <time>2021-07-31T11:48:39Z</time>
      </trkpt>
      <trkpt lat="42.3402" lon="2.16372">
        <ele>1163.43</ele>
        <time>2021-07-31T11:48:41Z</time>
      </trkpt>
      <trkpt lat="42.34002" lon="2.16362">
        <ele>1166.68</ele>
        <time>2021-07-31T11:48:43Z</time>
      </trkpt>
      <trkpt lat="42.33975" lon="2.16356">
        <ele>1171.38</ele>
        <time>2021-07-31T11:48:46Z</time>
      </trkpt>
      <trkpt lat="42.3395" lon="2.16361">
        <ele>1175.49</ele>
        <time>2021-07-31T11:48:49Z</time>
      </trkpt>
      <trkpt lat="42.33914" lon="2.16356">
        <ele>1182.04</ele>
        <time>2021-07-31T11:48:54Z</time>
      </trkpt>
      <trkpt lat="42.33889" lon="2.16373">
        <ele>1186.38</ele>
        <time>2021-07-31T11:48:58Z</time>
      </trkpt>
      <trkpt lat="42.3389" lon="2.16439">
        <ele>1190.23</ele>
        <time>2021-07-31T11:49:02Z</time>
      </trkpt>
      <trkpt lat="42.33877" lon="2.16503">
        <ele>1195.77</ele>
        <time>2021-07-31T11:49:07Z</time>
      </trkpt>
      <trkpt lat="42.33858" lon="2.16531">
        <ele>1199.72</ele>
        <time>2021-07-31T11:49:10Z</time>
      </trkpt>
      <trkpt lat="42.33827" lon="2.16544">
        <ele>1204.21</ele>
        <time>2021-07-31T11:49:13Z</time>
      </trkpt>
      <trkpt lat="42.33815" lon="2.16545">
        <ele>1205.83</ele>
        <time>2021-07-31T11:49:14Z</time>
      </trkpt>
      <trkpt lat="42.33787" lon="2.16557">
        <ele>1210.85</ele>
        <time>2021-07-31T11:49:17Z</time>
      </trkpt>
      <trkpt lat="42.33768" lon="2.16567">
        <ele>1216.31</ele>
        <time>2021-07-31T11:49:19Z</time>
      </trkpt>
      <trkpt lat="42.33755" lon="2.16585">
        <ele>1220.19</ele>
        <time>2021-07-31T11:49:21Z</time>
      </trkpt>
      <trkpt lat="42.33746" lon="2.16589">
        <ele>1222.08</ele>
        <time>2021-07-31T11:49:22Z</time>
      </trkpt>
      <trkpt lat="42.33732" lon="2.16599">
        <ele>1225.53</ele>
        <time>2021-07-31T11:49:24Z</time>
      </trkpt>
      <trkpt lat="42.33704" lon="2.16589">
        <ele>1230.98</ele>
        <time>2021-07-31T11:49:28Z</time>
      </trkpt>
      <trkpt lat="42.33692" lon="2.16581">
        <ele>1233.29</ele>
        <time>2021-07-31T11:49:30Z</time>
      </trkpt>
      <trkpt lat="42.33688" lon="2.16579">
        <ele>1234.21</ele>
        <time>2021-07-31T11:49:31Z</time>
      </trkpt>
      <trkpt lat="42.33684" lon="2.16578">
        <ele>1235.15</ele>
        <time>2021-07-31T11:49:32Z</time>
      </trkpt>
      <trkpt lat="42.33681" lon="2.16575">
        <ele>1235.96</ele>
        <time>2021-07-31T11:49:33Z</time>
      </trkpt>
      <trkpt lat="42.33678" lon="2.1657">
        <ele>1236.62</ele>
        <time>2021-07-31T11:49:34Z</time>
      </trkpt>
      <trkpt lat="42.33678" lon="2.16564">
        <ele>1237.27</ele>
        <time>2021-07-31T11:49:35Z</time>
      </trkpt>
      <trkpt lat="42.33682" lon="2.16559">
        <ele>1237.93</ele>
        <time>2021-07-31T11:49:36Z</time>
      </trkpt>
      <trkpt lat="42.33687" lon="2.16556">
        <ele>1238.51</ele>
        <time>2021-07-31T11:49:37Z</time>
      </trkpt>
      <trkpt lat="42.33698" lon="2.16554">
        <ele>1239.78</ele>
        <time>2021-07-31T11:49:39Z</time>
      </trkpt>
      <trkpt lat="42.33704" lon="2.16553">
        <ele>1240.35</ele>
        <time>2021-07-31T11:49:40Z</time>
      </trkpt>
      <trkpt lat="42.33709" lon="2.1655">
        <ele>1240.83</ele>
        <time>2021-07-31T11:49:41Z</time>
      </trkpt>
      <trkpt lat="42.33726" lon="2.16528">
        <ele>1242.32</ele>
        <time>2021-07-31T11:49:44Z</time>
      </trkpt>
      <trkpt lat="42.33753" lon="2.16475">
        <ele>1246.16</ele>
        <time>2021-07-31T11:49:50Z</time>
      </trkpt>
      <trkpt lat="42.33763" lon="2.16449">
        <ele>1249.99</ele>
        <time>2021-07-31T11:49:54Z</time>
      </trkpt>
      <trkpt lat="42.33771" lon="2.16429">
        <ele>1252.19</ele>
        <time>2021-07-31T11:49:57Z</time>
      </trkpt>
      <trkpt lat="42.33773" lon="2.16394">
        <ele>1254.66</ele>
        <time>2021-07-31T11:50:01Z</time>
      </trkpt>
      <trkpt lat="42.33766" lon="2.16335">
        <ele>1258.64</ele>
        <time>2021-07-31T11:50:07Z</time>
      </trkpt>
      <trkpt lat="42.33741" lon="2.16316">
        <ele>1263.04</ele>
        <time>2021-07-31T11:50:12Z</time>
      </trkpt>
      <trkpt lat="42.33726" lon="2.16317">
        <ele>1264.93</ele>
        <time>2021-07-31T11:50:14Z</time>
      </trkpt>
      <trkpt lat="42.3372" lon="2.16312">
        <ele>1266</ele>
        <time>2021-07-31T11:50:15Z</time>
      </trkpt>
      <trkpt lat="42.33717" lon="2.16303">
        <ele>1267.08</ele>
        <time>2021-07-31T11:50:16Z</time>
      </trkpt>
      <trkpt lat="42.33731" lon="2.16278">
        <ele>1270.11</ele>
        <time>2021-07-31T11:50:19Z</time>
      </trkpt>
      <trkpt lat="42.33739" lon="2.16269">
        <ele>1271.18</ele>
        <time>2021-07-31T11:50:20Z</time>
      </trkpt>
      <trkpt lat="42.33773" lon="2.16224">
        <ele>1275.61</ele>
        <time>2021-07-31T11:50:24Z</time>
      </trkpt>
      <trkpt lat="42.338" lon="2.16188">
        <ele>1279.33</ele>
        <time>2021-07-31T11:50:27Z</time>
      </trkpt>
      <trkpt lat="42.33814" lon="2.16166">
        <ele>1282.13</ele>
        <time>2021-07-31T11:50:29Z</time>
      </trkpt>
      <trkpt lat="42.33818" lon="2.16155">
        <ele>1283.54</ele>
        <time>2021-07-31T11:50:30Z</time>
      </trkpt>
      <trkpt lat="42.3382" lon="2.16144">
        <ele>1284.94</ele>
        <time>2021-07-31T11:50:31Z</time>
      </trkpt>
      <trkpt lat="42.3382" lon="2.16131">
        <ele>1287.64</ele>
        <time>2021-07-31T11:50:33Z</time>
      </trkpt>
      <trkpt lat="42.33811" lon="2.16127">
        <ele>1291.27</ele>
        <time>2021-07-31T11:50:36Z</time>
      </trkpt>
      <trkpt lat="42.33803" lon="2.16131">
        <ele>1292.35</ele>
        <time>2021-07-31T11:50:37Z</time>
      </trkpt>
      <trkpt lat="42.3375" lon="2.16134">
        <ele>1297.66</ele>
        <time>2021-07-31T11:50:42Z</time>
      </trkpt>
      <trkpt lat="42.33712" lon="2.16133">
        <ele>1301.22</ele>
        <time>2021-07-31T11:50:45Z</time>
      </trkpt>
      <trkpt lat="42.33699" lon="2.16133">
        <ele>1302.45</ele>
        <time>2021-07-31T11:50:46Z</time>
      </trkpt>
      <trkpt lat="42.33657" lon="2.16115">
        <ele>1307.76</ele>
        <time>2021-07-31T11:50:50Z</time>
      </trkpt>
      <trkpt lat="42.3364" lon="2.16096">
        <ele>1310.07</ele>
        <time>2021-07-31T11:50:52Z</time>
      </trkpt>
      <trkpt lat="42.33611" lon="2.16078">
        <ele>1313.67</ele>
        <time>2021-07-31T11:50:55Z</time>
      </trkpt>
      <trkpt lat="42.33588" lon="2.16051">
        <ele>1317.85</ele>
        <time>2021-07-31T11:50:59Z</time>
      </trkpt>
      <trkpt lat="42.33615" lon="2.16053">
        <ele>1320.9</ele>
        <time>2021-07-31T11:51:03Z</time>
      </trkpt>
      <trkpt lat="42.33643" lon="2.16041">
        <ele>1323.05</ele>
        <time>2021-07-31T11:51:06Z</time>
      </trkpt>
      <trkpt lat="42.33698" lon="2.16">
        <ele>1327.8</ele>
        <time>2021-07-31T11:51:11Z</time>
      </trkpt>
      <trkpt lat="42.3373" lon="2.15969">
        <ele>1331.44</ele>
        <time>2021-07-31T11:51:14Z</time>
      </trkpt>
      <trkpt lat="42.33757" lon="2.15945">
        <ele>1335.04</ele>
        <time>2021-07-31T11:51:17Z</time>
      </trkpt>
      <trkpt lat="42.33786" lon="2.15917">
        <ele>1339.02</ele>
        <time>2021-07-31T11:51:20Z</time>
      </trkpt>
      <trkpt lat="42.33816" lon="2.1589">
        <ele>1343.2</ele>
        <time>2021-07-31T11:51:23Z</time>
      </trkpt>
      <trkpt lat="42.3384" lon="2.1587">
        <ele>1347.23</ele>
        <time>2021-07-31T11:51:26Z</time>
      </trkpt>
      <trkpt lat="42.33884" lon="2.15861">
        <ele>1352.16</ele>
        <time>2021-07-31T11:51:31Z</time>
      </trkpt>
      <trkpt lat="42.33945" lon="2.1587">
        <ele>1356.32</ele>
        <time>2021-07-31T11:51:37Z</time>
      </trkpt>
      <trkpt lat="42.33966" lon="2.15873">
        <ele>1357.37</ele>
        <time>2021-07-31T11:51:39Z</time>
      </trkpt>
      <trkpt lat="42.34029" lon="2.15851">
        <ele>1361.07</ele>
        <time>2021-07-31T11:51:46Z</time>
      </trkpt>
      <trkpt lat="42.34034" lon="2.1584">
        <ele>1361.73</ele>
        <time>2021-07-31T11:51:47Z</time>
      </trkpt>
      <trkpt lat="42.34051" lon="2.15807">
        <ele>1363.32</ele>
        <time>2021-07-31T11:51:50Z</time>
      </trkpt>
      <trkpt lat="42.34052" lon="2.15721">
        <ele>1367.51</ele>
        <time>2021-07-31T11:51:56Z</time>
      </trkpt>
      <trkpt lat="42.34046" lon="2.15641">
        <ele>1372.21</ele>
        <time>2021-07-31T11:52:01Z</time>
      </trkpt>
      <trkpt lat="42.34051" lon="2.15596">
        <ele>1376.56</ele>
        <time>2021-07-31T11:52:04Z</time>
      </trkpt>
      <trkpt lat="42.34056" lon="2.15549">
        <ele>1381</ele>
        <time>2021-07-31T11:52:07Z</time>
      </trkpt>
      <trkpt lat="42.3406" lon="2.15503">
        <ele>1385.34</ele>
        <time>2021-07-31T11:52:10Z</time>
      </trkpt>
      <trkpt lat="42.34062" lon="2.15469">
        <ele>1389.12</ele>
        <time>2021-07-31T11:52:13Z</time>
      </trkpt>
      <trkpt lat="42.34069" lon="2.15441">
        <ele>1393.99</ele>
        <time>2021-07-31T11:52:18Z</time>
      </trkpt>
      <trkpt lat="42.34068" lon="2.15436">
        <ele>1395.1</ele>
        <time>2021-07-31T11:52:20Z</time>
      </trkpt>
      <trkpt lat="42.34066" lon="2.15434">
        <ele>1396.03</ele>
        <time>2021-07-31T11:52:22Z</time>
      </trkpt>
      <trkpt lat="42.34061" lon="2.15443">
        <ele>1397.29</ele>
        <time>2021-07-31T11:52:26Z</time>
      </trkpt>
      <trkpt lat="42.34034" lon="2.15501">
        <ele>1399.49</ele>
        <time>2021-07-31T11:52:33Z</time>
      </trkpt>
      <trkpt lat="42.33987" lon="2.15546">
        <ele>1401.92</ele>
        <time>2021-07-31T11:52:39Z</time>
      </trkpt>
      <trkpt lat="42.33868" lon="2.15628">
        <ele>1404.7</ele>
        <time>2021-07-31T11:52:52Z</time>
      </trkpt>
      <trkpt lat="42.33769" lon="2.15669">
        <ele>1405.89</ele>
        <time>2021-07-31T11:53:01Z</time>
      </trkpt>
      <trkpt lat="42.33655" lon="2.15736">
        <ele>1408.52</ele>
        <time>2021-07-31T11:53:10Z</time>
      </trkpt>
      <trkpt lat="42.33629" lon="2.15746">
        <ele>1409.24</ele>
        <time>2021-07-31T11:53:12Z</time>
      </trkpt>
      <trkpt lat="42.33562" lon="2.15755">
        <ele>1411.41</ele>
        <time>2021-07-31T11:53:17Z</time>
      </trkpt>
      <trkpt lat="42.33514" lon="2.15745">
        <ele>1412.49</ele>
        <time>2021-07-31T11:53:21Z</time>
      </trkpt>
      <trkpt lat="42.33465" lon="2.15769">
        <ele>1413.79</ele>
        <time>2021-07-31T11:53:26Z</time>
      </trkpt>
      <trkpt lat="42.33361" lon="2.15866">
        <ele>1417.08</ele>
        <time>2021-07-31T11:53:36Z</time>
      </trkpt>
      <trkpt lat="42.33325" lon="2.15882">
        <ele>1418.53</ele>
        <time>2021-07-31T11:53:40Z</time>
      </trkpt>
      <trkpt lat="42.33298" lon="2.15877">
        <ele>1419.92</ele>
        <time>2021-07-31T11:53:45Z</time>
      </trkpt>
      <trkpt lat="42.33222" lon="2.15817">
        <ele>1421.94</ele>
        <time>2021-07-31T11:53:53Z</time>
      </trkpt>
      <trkpt lat="42.33115" lon="2.15725">
        <ele>1425.17</ele>
        <time>2021-07-31T11:54:03Z</time>
      </trkpt>
      <trkpt lat="42.33058" lon="2.15689">
        <ele>1427.06</ele>
        <time>2021-07-31T11:54:08Z</time>
      </trkpt>
      <trkpt lat="42.32993" lon="2.15707">
        <ele>1430.38</ele>
        <time>2021-07-31T11:54:14Z</time>
      </trkpt>
      <trkpt lat="42.32918" lon="2.15699">
        <ele>1434.13</ele>
        <time>2021-07-31T11:54:21Z</time>
      </trkpt>
      <trkpt lat="42.32844" lon="2.15696">
        <ele>1437.44</ele>
        <time>2021-07-31T11:54:27Z</time>
      </trkpt>
      <trkpt lat="42.32822" lon="2.15691">
        <ele>1438.31</ele>
        <time>2021-07-31T11:54:29Z</time>
      </trkpt>
      <trkpt lat="42.32782" lon="2.15633">
        <ele>1440.8</ele>
        <time>2021-07-31T11:54:35Z</time>
      </trkpt>
      <trkpt lat="42.32772" lon="2.15611">
        <ele>1442.31</ele>
        <time>2021-07-31T11:54:38Z</time>
      </trkpt>
      <trkpt lat="42.32772" lon="2.15594">
        <ele>1445.94</ele>
        <time>2021-07-31T11:54:47Z</time>
      </trkpt>
      <trkpt lat="42.32772" lon="2.15593">
        <ele>1447.58</ele>
        <time>2021-07-31T11:55:22Z</time>
      </trkpt>
      <trkpt lat="42.32769" lon="2.15588">
        <ele>1447.63</ele>
        <time>2021-07-31T11:55:24Z</time>
      </trkpt>
      <trkpt lat="42.32755" lon="2.1555">
        <ele>1448.17</ele>
        <time>2021-07-31T11:55:29Z</time>
      </trkpt>
      <trkpt lat="42.32693" lon="2.15479">
        <ele>1452.05</ele>
        <time>2021-07-31T11:55:38Z</time>
      </trkpt>
      <trkpt lat="42.32677" lon="2.15453">
        <ele>1454.19</ele>
        <time>2021-07-31T11:55:41Z</time>
      </trkpt>
      <trkpt lat="42.32678" lon="2.15386">
        <ele>1458.17</ele>
        <time>2021-07-31T11:55:47Z</time>
      </trkpt>
      <trkpt lat="42.3268" lon="2.15299">
        <ele>1462.39</ele>
        <time>2021-07-31T11:55:54Z</time>
      </trkpt>
      <trkpt lat="42.32681" lon="2.15232">
        <ele>1466.6</ele>
        <time>2021-07-31T11:55:59Z</time>
      </trkpt>
      <trkpt lat="42.32682" lon="2.15167">
        <ele>1470.3</ele>
        <time>2021-07-31T11:56:04Z</time>
      </trkpt>
      <trkpt lat="42.32689" lon="2.15103">
        <ele>1473.98</ele>
        <time>2021-07-31T11:56:09Z</time>
      </trkpt>
      <trkpt lat="42.32701" lon="2.15048">
        <ele>1477.24</ele>
        <time>2021-07-31T11:56:13Z</time>
      </trkpt>
      <trkpt lat="42.32712" lon="2.1499">
        <ele>1480.75</ele>
        <time>2021-07-31T11:56:17Z</time>
      </trkpt>
      <trkpt lat="42.32719" lon="2.14933">
        <ele>1484.52</ele>
        <time>2021-07-31T11:56:21Z</time>
      </trkpt>
      <trkpt lat="42.32726" lon="2.14897">
        <ele>1487.18</ele>
        <time>2021-07-31T11:56:24Z</time>
      </trkpt>
      <trkpt lat="42.32703" lon="2.14872">
        <ele>1490.51</ele>
        <time>2021-07-31T11:56:29Z</time>
      </trkpt>
      <trkpt lat="42.32679" lon="2.14876">
        <ele>1491.43</ele>
        <time>2021-07-31T11:56:31Z</time>
      </trkpt>
      <trkpt lat="42.32614" lon="2.14894">
        <ele>1494.14</ele>
        <time>2021-07-31T11:56:36Z</time>
      </trkpt>
      <trkpt lat="42.32576" lon="2.14892">
        <ele>1496.07</ele>
        <time>2021-07-31T11:56:39Z</time>
      </trkpt>
      <trkpt lat="42.32513" lon="2.14872">
        <ele>1499.82</ele>
        <time>2021-07-31T11:56:44Z</time>
      </trkpt>
      <trkpt lat="42.32489" lon="2.14861">
        <ele>1501.38</ele>
        <time>2021-07-31T11:56:46Z</time>
      </trkpt>
      <trkpt lat="42.32444" lon="2.14807">
        <ele>1505.93</ele>
        <time>2021-07-31T11:56:51Z</time>
      </trkpt>
      <trkpt lat="42.3242" lon="2.14768">
        <ele>1509.02</ele>
        <time>2021-07-31T11:56:54Z</time>
      </trkpt>
      <trkpt lat="42.32399" lon="2.14724">
        <ele>1512.03</ele>
        <time>2021-07-31T11:56:57Z</time>
      </trkpt>
      <trkpt lat="42.32368" lon="2.14675">
        <ele>1516.16</ele>
        <time>2021-07-31T11:57:01Z</time>
      </trkpt>
      <trkpt lat="42.32365" lon="2.14608">
        <ele>1520.83</ele>
        <time>2021-07-31T11:57:06Z</time>
      </trkpt>
      <trkpt lat="42.32371" lon="2.14594">
        <ele>1521.76</ele>
        <time>2021-07-31T11:57:07Z</time>
      </trkpt>
      <trkpt lat="42.32392" lon="2.14534">
        <ele>1526.44</ele>
        <time>2021-07-31T11:57:12Z</time>
      </trkpt>
      <trkpt lat="42.32402" lon="2.14516">
        <ele>1528.1</ele>
        <time>2021-07-31T11:57:14Z</time>
      </trkpt>
      <trkpt lat="42.32431" lon="2.14477">
        <ele>1531.54</ele>
        <time>2021-07-31T11:57:18Z</time>
      </trkpt>
      <trkpt lat="42.32459" lon="2.14407">
        <ele>1535.42</ele>
        <time>2021-07-31T11:57:23Z</time>
      </trkpt>
      <trkpt lat="42.32483" lon="2.14354">
        <ele>1539.03</ele>
        <time>2021-07-31T11:57:27Z</time>
      </trkpt>
      <trkpt lat="42.32494" lon="2.14331">
        <ele>1540.94</ele>
        <time>2021-07-31T11:57:29Z</time>
      </trkpt>
      <trkpt lat="42.325" lon="2.1427">
        <ele>1544.74</ele>
        <time>2021-07-31T11:57:33Z</time>
      </trkpt>
      <trkpt lat="42.32498" lon="2.14183">
        <ele>1548.87</ele>
        <time>2021-07-31T11:57:38Z</time>
      </trkpt>
      <trkpt lat="42.32498" lon="2.14132">
        <ele>1552.66</ele>
        <time>2021-07-31T11:57:41Z</time>
      </trkpt>
      <trkpt lat="42.32498" lon="2.14078">
        <ele>1555.79</ele>
        <time>2021-07-31T11:57:44Z</time>
      </trkpt>
      <trkpt lat="42.3249" lon="2.14009">
        <ele>1559.54</ele>
        <time>2021-07-31T11:57:48Z</time>
      </trkpt>
      <trkpt lat="42.32481" lon="2.1396">
        <ele>1562.72</ele>
        <time>2021-07-31T11:57:51Z</time>
      </trkpt>
      <trkpt lat="42.32472" lon="2.13918">
        <ele>1565.52</ele>
        <time>2021-07-31T11:57:54Z</time>
      </trkpt>
      <trkpt lat="42.32471" lon="2.13853">
        <ele>1570.36</ele>
        <time>2021-07-31T11:57:59Z</time>
      </trkpt>
      <trkpt lat="42.32481" lon="2.13797">
        <ele>1573.81</ele>
        <time>2021-07-31T11:58:03Z</time>
      </trkpt>
      <trkpt lat="42.32492" lon="2.13764">
        <ele>1576.84</ele>
        <time>2021-07-31T11:58:06Z</time>
      </trkpt>
      <trkpt lat="42.32517" lon="2.13733">
        <ele>1580.08</ele>
        <time>2021-07-31T11:58:10Z</time>
      </trkpt>
      <trkpt lat="42.32554" lon="2.13704">
        <ele>1584.11</ele>
        <time>2021-07-31T11:58:15Z</time>
      </trkpt>
      <trkpt lat="42.3259" lon="2.13679">
        <ele>1587.09</ele>
        <time>2021-07-31T11:58:19Z</time>
      </trkpt>
      <trkpt lat="42.32598" lon="2.13632">
        <ele>1590.16</ele>
        <time>2021-07-31T11:58:23Z</time>
      </trkpt>
      <trkpt lat="42.32625" lon="2.13581">
        <ele>1593.01</ele>
        <time>2021-07-31T11:58:28Z</time>
      </trkpt>
      <trkpt lat="42.32683" lon="2.1351">
        <ele>1596.71</ele>
        <time>2021-07-31T11:58:36Z</time>
      </trkpt>
      <trkpt lat="42.32741" lon="2.13403">
        <ele>1599.79</ele>
        <time>2021-07-31T11:58:44Z</time>
      </trkpt>
      <trkpt lat="42.32794" lon="2.13285">
        <ele>1603.22</ele>
        <time>2021-07-31T11:58:52Z</time>
      </trkpt>
      <trkpt lat="42.32846" lon="2.13192">
        <ele>1606.39</ele>
        <time>2021-07-31T11:59:00Z</time>
      </trkpt>
      <trkpt lat="42.32904" lon="2.13076">
        <ele>1609.52</ele>
        <time>2021-07-31T11:59:09Z</time>
      </trkpt>
      <trkpt lat="42.3294" lon="2.13007">
        <ele>1612.5</ele>
        <time>2021-07-31T11:59:16Z</time>
      </trkpt>
      <trkpt lat="42.32925" lon="2.12963">
        <ele>1613.95</ele>
        <time>2021-07-31T11:59:21Z</time>
      </trkpt>
      <trkpt lat="42.32893" lon="2.12844">
        <ele>1616.23</ele>
        <time>2021-07-31T11:59:29Z</time>
      </trkpt>
      <trkpt lat="42.32885" lon="2.12776">
        <ele>1618.16</ele>
        <time>2021-07-31T11:59:33Z</time>
      </trkpt>
      <trkpt lat="42.329" lon="2.1265">
        <ele>1621.72</ele>
        <time>2021-07-31T11:59:40Z</time>
      </trkpt>
      <trkpt lat="42.32907" lon="2.12621">
        <ele>1622.59</ele>
        <time>2021-07-31T11:59:42Z</time>
      </trkpt>
      <trkpt lat="42.32931" lon="2.1257">
        <ele>1623.74</ele>
        <time>2021-07-31T11:59:46Z</time>
      </trkpt>
      <trkpt lat="42.32956" lon="2.1253">
        <ele>1625.17</ele>
        <time>2021-07-31T11:59:51Z</time>
      </trkpt>
      <trkpt lat="42.32963" lon="2.12513">
        <ele>1625.77</ele>
        <time>2021-07-31T11:59:55Z</time>
      </trkpt>
      <trkpt lat="42.32981" lon="2.12467">
        <ele>1626.19</ele>
        <time>2021-07-31T12:00:01Z</time>
      </trkpt>
      <trkpt lat="42.33037" lon="2.12338">
        <ele>1622.92</ele>
        <time>2021-07-31T12:00:11Z</time>
      </trkpt>
      <trkpt lat="42.3306" lon="2.12273">
        <ele>1619.46</ele>
        <time>2021-07-31T12:00:15Z</time>
      </trkpt>
      <trkpt lat="42.33079" lon="2.12209">
        <ele>1615.47</ele>
        <time>2021-07-31T12:00:19Z</time>
      </trkpt>
      <trkpt lat="42.33099" lon="2.12162">
        <ele>1612.24</ele>
        <time>2021-07-31T12:00:22Z</time>
      </trkpt>
      <trkpt lat="42.33124" lon="2.12116">
        <ele>1609.14</ele>
        <time>2021-07-31T12:00:25Z</time>
      </trkpt>
      <trkpt lat="42.33144" lon="2.12075">
        <ele>1605.7</ele>
        <time>2021-07-31T12:00:28Z</time>
      </trkpt>
      <trkpt lat="42.33176" lon="2.1204">
        <ele>1600.98</ele>
        <time>2021-07-31T12:00:32Z</time>
      </trkpt>
      <trkpt lat="42.33184" lon="2.12035">
        <ele>1599.91</ele>
        <time>2021-07-31T12:00:33Z</time>
      </trkpt>
      <trkpt lat="42.33205" lon="2.12017">
        <ele>1596.77</ele>
        <time>2021-07-31T12:00:36Z</time>
      </trkpt>
      <trkpt lat="42.33236" lon="2.11943">
        <ele>1592.24</ele>
        <time>2021-07-31T12:00:41Z</time>
      </trkpt>
      <trkpt lat="42.33273" lon="2.11879">
        <ele>1588.91</ele>
        <time>2021-07-31T12:00:45Z</time>
      </trkpt>
      <trkpt lat="42.33308" lon="2.11836">
        <ele>1584.83</ele>
        <time>2021-07-31T12:00:49Z</time>
      </trkpt>
      <trkpt lat="42.33319" lon="2.11821">
        <ele>1582.53</ele>
        <time>2021-07-31T12:00:51Z</time>
      </trkpt>
      <trkpt lat="42.33309" lon="2.11785">
        <ele>1578.2</ele>
        <time>2021-07-31T12:00:55Z</time>
      </trkpt>
      <trkpt lat="42.33253" lon="2.11763">
        <ele>1574.27</ele>
        <time>2021-07-31T12:00:59Z</time>
      </trkpt>
      <trkpt lat="42.33172" lon="2.1172">
        <ele>1567.26</ele>
        <time>2021-07-31T12:01:05Z</time>
      </trkpt>
      <trkpt lat="42.33137" lon="2.11648">
        <ele>1562.41</ele>
        <time>2021-07-31T12:01:10Z</time>
      </trkpt>
      <trkpt lat="42.33128" lon="2.11634">
        <ele>1561.47</ele>
        <time>2021-07-31T12:01:11Z</time>
      </trkpt>
      <trkpt lat="42.33093" lon="2.11596">
        <ele>1557.27</ele>
        <time>2021-07-31T12:01:15Z</time>
      </trkpt>
      <trkpt lat="42.33082" lon="2.11535">
        <ele>1553</ele>
        <time>2021-07-31T12:01:19Z</time>
      </trkpt>
      <trkpt lat="42.33072" lon="2.11444">
        <ele>1548.18</ele>
        <time>2021-07-31T12:01:24Z</time>
      </trkpt>
      <trkpt lat="42.33066" lon="2.11389">
        <ele>1544.84</ele>
        <time>2021-07-31T12:01:27Z</time>
      </trkpt>
      <trkpt lat="42.33066" lon="2.11332">
        <ele>1541.57</ele>
        <time>2021-07-31T12:01:30Z</time>
      </trkpt>
      <trkpt lat="42.33068" lon="2.11279">
        <ele>1538.15</ele>
        <time>2021-07-31T12:01:33Z</time>
      </trkpt>
      <trkpt lat="42.33065" lon="2.11244">
        <ele>1535.86</ele>
        <time>2021-07-31T12:01:35Z</time>
      </trkpt>
      <trkpt lat="42.33047" lon="2.1118">
        <ele>1531.33</ele>
        <time>2021-07-31T12:01:39Z</time>
      </trkpt>
      <trkpt lat="42.33044" lon="2.11165">
        <ele>1530.13</ele>
        <time>2021-07-31T12:01:40Z</time>
      </trkpt>
      <trkpt lat="42.33036" lon="2.11096">
        <ele>1525.83</ele>
        <time>2021-07-31T12:01:44Z</time>
      </trkpt>
      <trkpt lat="42.33037" lon="2.11046">
        <ele>1522.73</ele>
        <time>2021-07-31T12:01:47Z</time>
      </trkpt>
      <trkpt lat="42.3304" lon="2.11029">
        <ele>1521.62</ele>
        <time>2021-07-31T12:01:48Z</time>
      </trkpt>
      <trkpt lat="42.33055" lon="2.10982">
        <ele>1516.95</ele>
        <time>2021-07-31T12:01:52Z</time>
      </trkpt>
      <trkpt lat="42.33035" lon="2.10954">
        <ele>1511.24</ele>
        <time>2021-07-31T12:01:58Z</time>
      </trkpt>
      <trkpt lat="42.33012" lon="2.10939">
        <ele>1509.71</ele>
        <time>2021-07-31T12:02:00Z</time>
      </trkpt>
      <trkpt lat="42.32965" lon="2.10889">
        <ele>1505.82</ele>
        <time>2021-07-31T12:02:05Z</time>
      </trkpt>
      <trkpt lat="42.32932" lon="2.10836">
        <ele>1502.5</ele>
        <time>2021-07-31T12:02:09Z</time>
      </trkpt>
      <trkpt lat="42.32907" lon="2.10774">
        <ele>1498.8</ele>
        <time>2021-07-31T12:02:13Z</time>
      </trkpt>
      <trkpt lat="42.32905" lon="2.10715">
        <ele>1494.82</ele>
        <time>2021-07-31T12:02:17Z</time>
      </trkpt>
      <trkpt lat="42.32908" lon="2.107">
        <ele>1493.77</ele>
        <time>2021-07-31T12:02:18Z</time>
      </trkpt>
      <trkpt lat="42.32925" lon="2.10643">
        <ele>1489.57</ele>
        <time>2021-07-31T12:02:22Z</time>
      </trkpt>
      <trkpt lat="42.32943" lon="2.10588">
        <ele>1485.85</ele>
        <time>2021-07-31T12:02:26Z</time>
      </trkpt>
      <trkpt lat="42.32971" lon="2.10547">
        <ele>1481.42</ele>
        <time>2021-07-31T12:02:30Z</time>
      </trkpt>
      <trkpt lat="42.33008" lon="2.10508">
        <ele>1477.79</ele>
        <time>2021-07-31T12:02:34Z</time>
      </trkpt>
      <trkpt lat="42.33015" lon="2.10499">
        <ele>1476.77</ele>
        <time>2021-07-31T12:02:35Z</time>
      </trkpt>
      <trkpt lat="42.33014" lon="2.10466">
        <ele>1471.1</ele>
        <time>2021-07-31T12:02:40Z</time>
      </trkpt>
      <trkpt lat="42.32992" lon="2.10477">
        <ele>1468.73</ele>
        <time>2021-07-31T12:02:43Z</time>
      </trkpt>
      <trkpt lat="42.32931" lon="2.10513">
        <ele>1464.24</ele>
        <time>2021-07-31T12:02:49Z</time>
      </trkpt>
      <trkpt lat="42.3288" lon="2.10538">
        <ele>1461.15</ele>
        <time>2021-07-31T12:02:53Z</time>
      </trkpt>
      <trkpt lat="42.32869" lon="2.10544">
        <ele>1460.27</ele>
        <time>2021-07-31T12:02:54Z</time>
      </trkpt>
      <trkpt lat="42.32827" lon="2.10585">
        <ele>1456.47</ele>
        <time>2021-07-31T12:02:58Z</time>
      </trkpt>
      <trkpt lat="42.32808" lon="2.10605">
        <ele>1454.37</ele>
        <time>2021-07-31T12:03:00Z</time>
      </trkpt>
      <trkpt lat="42.3278" lon="2.10683">
        <ele>1449.37</ele>
        <time>2021-07-31T12:03:05Z</time>
      </trkpt>
      <trkpt lat="42.32771" lon="2.10734">
        <ele>1446.13</ele>
        <time>2021-07-31T12:03:08Z</time>
      </trkpt>
      <trkpt lat="42.32781" lon="2.10798">
        <ele>1441.75</ele>
        <time>2021-07-31T12:03:12Z</time>
      </trkpt>
      <trkpt lat="42.32808" lon="2.10869">
        <ele>1437.49</ele>
        <time>2021-07-31T12:03:16Z</time>
      </trkpt>
      <trkpt lat="42.32827" lon="2.10918">
        <ele>1434.32</ele>
        <time>2021-07-31T12:03:19Z</time>
      </trkpt>
      <trkpt lat="42.32846" lon="2.10965">
        <ele>1431.09</ele>
        <time>2021-07-31T12:03:22Z</time>
      </trkpt>
      <trkpt lat="42.32851" lon="2.10976">
        <ele>1430</ele>
        <time>2021-07-31T12:03:23Z</time>
      </trkpt>
      <trkpt lat="42.32845" lon="2.11015">
        <ele>1425</ele>
        <time>2021-07-31T12:03:27Z</time>
      </trkpt>
      <trkpt lat="42.32814" lon="2.11066">
        <ele>1420.69</ele>
        <time>2021-07-31T12:03:31Z</time>
      </trkpt>
      <trkpt lat="42.32784" lon="2.11123">
        <ele>1416.92</ele>
        <time>2021-07-31T12:03:35Z</time>
      </trkpt>
      <trkpt lat="42.32774" lon="2.11187">
        <ele>1412.87</ele>
        <time>2021-07-31T12:03:39Z</time>
      </trkpt>
      <trkpt lat="42.32787" lon="2.11246">
        <ele>1408.87</ele>
        <time>2021-07-31T12:03:43Z</time>
      </trkpt>
      <trkpt lat="42.32801" lon="2.11278">
        <ele>1405.69</ele>
        <time>2021-07-31T12:03:46Z</time>
      </trkpt>
      <trkpt lat="42.32792" lon="2.11314">
        <ele>1402.55</ele>
        <time>2021-07-31T12:03:49Z</time>
      </trkpt>
      <trkpt lat="42.32786" lon="2.11323">
        <ele>1401.51</ele>
        <time>2021-07-31T12:03:50Z</time>
      </trkpt>
      <trkpt lat="42.32767" lon="2.11355">
        <ele>1398.56</ele>
        <time>2021-07-31T12:03:53Z</time>
      </trkpt>
      <trkpt lat="42.32769" lon="2.11417">
        <ele>1394.01</ele>
        <time>2021-07-31T12:03:58Z</time>
      </trkpt>
      <trkpt lat="42.32775" lon="2.1143">
        <ele>1393.23</ele>
        <time>2021-07-31T12:03:59Z</time>
      </trkpt>
      <trkpt lat="42.32813" lon="2.11505">
        <ele>1389.2</ele>
        <time>2021-07-31T12:04:04Z</time>
      </trkpt>
      <trkpt lat="42.32818" lon="2.11518">
        <ele>1388.31</ele>
        <time>2021-07-31T12:04:05Z</time>
      </trkpt>
      <trkpt lat="42.32813" lon="2.11564">
        <ele>1384.32</ele>
        <time>2021-07-31T12:04:09Z</time>
      </trkpt>
      <trkpt lat="42.32765" lon="2.11562">
        <ele>1380.49</ele>
        <time>2021-07-31T12:04:13Z</time>
      </trkpt>
      <trkpt lat="42.32705" lon="2.11563">
        <ele>1376.62</ele>
        <time>2021-07-31T12:04:18Z</time>
      </trkpt>
      <trkpt lat="42.32676" lon="2.11605">
        <ele>1371.45</ele>
        <time>2021-07-31T12:04:23Z</time>
      </trkpt>
      <trkpt lat="42.32665" lon="2.11627">
        <ele>1368.33</ele>
        <time>2021-07-31T12:04:26Z</time>
      </trkpt>
      <trkpt lat="42.32648" lon="2.11601">
        <ele>1365.05</ele>
        <time>2021-07-31T12:04:29Z</time>
      </trkpt>
      <trkpt lat="42.32635" lon="2.11576">
        <ele>1363.49</ele>
        <time>2021-07-31T12:04:31Z</time>
      </trkpt>
      <trkpt lat="42.32639" lon="2.11528">
        <ele>1359.41</ele>
        <time>2021-07-31T12:04:35Z</time>
      </trkpt>
      <trkpt lat="42.32664" lon="2.11502">
        <ele>1356.4</ele>
        <time>2021-07-31T12:04:38Z</time>
      </trkpt>
      <trkpt lat="42.32695" lon="2.11492">
        <ele>1352.99</ele>
        <time>2021-07-31T12:04:41Z</time>
      </trkpt>
      <trkpt lat="42.32718" lon="2.11467">
        <ele>1347.12</ele>
        <time>2021-07-31T12:04:46Z</time>
      </trkpt>
      <trkpt lat="42.32705" lon="2.11443">
        <ele>1343.69</ele>
        <time>2021-07-31T12:04:49Z</time>
      </trkpt>
      <trkpt lat="42.32693" lon="2.11434">
        <ele>1342.58</ele>
        <time>2021-07-31T12:04:50Z</time>
      </trkpt>
      <trkpt lat="42.3265" lon="2.11395">
        <ele>1338.34</ele>
        <time>2021-07-31T12:04:54Z</time>
      </trkpt>
      <trkpt lat="42.32639" lon="2.11349">
        <ele>1333.64</ele>
        <time>2021-07-31T12:04:58Z</time>
      </trkpt>
      <trkpt lat="42.32654" lon="2.11315">
        <ele>1330.26</ele>
        <time>2021-07-31T12:05:01Z</time>
      </trkpt>
      <trkpt lat="42.32649" lon="2.1127">
        <ele>1324.47</ele>
        <time>2021-07-31T12:05:07Z</time>
      </trkpt>
      <trkpt lat="42.32612" lon="2.11231">
        <ele>1321.2</ele>
        <time>2021-07-31T12:05:11Z</time>
      </trkpt>
      <trkpt lat="42.3256" lon="2.11208">
        <ele>1317.82</ele>
        <time>2021-07-31T12:05:15Z</time>
      </trkpt>
      <trkpt lat="42.32526" lon="2.1118">
        <ele>1313.81</ele>
        <time>2021-07-31T12:05:19Z</time>
      </trkpt>
      <trkpt lat="42.32534" lon="2.11143">
        <ele>1310.56</ele>
        <time>2021-07-31T12:05:22Z</time>
      </trkpt>
      <trkpt lat="42.32558" lon="2.11109">
        <ele>1307.65</ele>
        <time>2021-07-31T12:05:25Z</time>
      </trkpt>
      <trkpt lat="42.32571" lon="2.11092">
        <ele>1305.94</ele>
        <time>2021-07-31T12:05:27Z</time>
      </trkpt>
      <trkpt lat="42.32569" lon="2.11059">
        <ele>1301.42</ele>
        <time>2021-07-31T12:05:32Z</time>
      </trkpt>
      <trkpt lat="42.32534" lon="2.11022">
        <ele>1298.25</ele>
        <time>2021-07-31T12:05:36Z</time>
      </trkpt>
      <trkpt lat="42.32519" lon="2.10997">
        <ele>1296.69</ele>
        <time>2021-07-31T12:05:38Z</time>
      </trkpt>
      <trkpt lat="42.32504" lon="2.10972">
        <ele>1295</ele>
        <time>2021-07-31T12:05:40Z</time>
      </trkpt>
      <trkpt lat="42.32464" lon="2.10937">
        <ele>1291.5</ele>
        <time>2021-07-31T12:05:44Z</time>
      </trkpt>
      <trkpt lat="42.32419" lon="2.10915">
        <ele>1287.67</ele>
        <time>2021-07-31T12:05:48Z</time>
      </trkpt>
      <trkpt lat="42.32391" lon="2.10859">
        <ele>1282.81</ele>
        <time>2021-07-31T12:05:53Z</time>
      </trkpt>
      <trkpt lat="42.3239" lon="2.10844">
        <ele>1281.92</ele>
        <time>2021-07-31T12:05:54Z</time>
      </trkpt>
      <trkpt lat="42.32389" lon="2.10814">
        <ele>1280.09</ele>
        <time>2021-07-31T12:05:56Z</time>
      </trkpt>
      <trkpt lat="42.32367" lon="2.10758">
        <ele>1275.73</ele>
        <time>2021-07-31T12:06:00Z</time>
      </trkpt>
      <trkpt lat="42.32337" lon="2.10702">
        <ele>1271.84</ele>
        <time>2021-07-31T12:06:04Z</time>
      </trkpt>
      <trkpt lat="42.32332" lon="2.10689">
        <ele>1270.87</ele>
        <time>2021-07-31T12:06:05Z</time>
      </trkpt>
      <trkpt lat="42.32325" lon="2.10635">
        <ele>1267.04</ele>
        <time>2021-07-31T12:06:09Z</time>
      </trkpt>
      <trkpt lat="42.32318" lon="2.1055">
        <ele>1262.42</ele>
        <time>2021-07-31T12:06:14Z</time>
      </trkpt>
      <trkpt lat="42.32316" lon="2.10503">
        <ele>1259.63</ele>
        <time>2021-07-31T12:06:17Z</time>
      </trkpt>
      <trkpt lat="42.32286" lon="2.10447">
        <ele>1254.81</ele>
        <time>2021-07-31T12:06:22Z</time>
      </trkpt>
      <trkpt lat="42.32259" lon="2.10425">
        <ele>1250.79</ele>
        <time>2021-07-31T12:06:26Z</time>
      </trkpt>
      <trkpt lat="42.32232" lon="2.10404">
        <ele>1247.13</ele>
        <time>2021-07-31T12:06:30Z</time>
      </trkpt>
      <trkpt lat="42.32214" lon="2.10388">
        <ele>1244.73</ele>
        <time>2021-07-31T12:06:33Z</time>
      </trkpt>
      <trkpt lat="42.32193" lon="2.1039">
        <ele>1241.02</ele>
        <time>2021-07-31T12:06:38Z</time>
      </trkpt>
      <trkpt lat="42.32207" lon="2.10421">
        <ele>1238.56</ele>
        <time>2021-07-31T12:06:42Z</time>
      </trkpt>
      <trkpt lat="42.32245" lon="2.10476">
        <ele>1236.23</ele>
        <time>2021-07-31T12:06:47Z</time>
      </trkpt>
      <trkpt lat="42.32242" lon="2.10567">
        <ele>1232.88</ele>
        <time>2021-07-31T12:06:53Z</time>
      </trkpt>
      <trkpt lat="42.3221" lon="2.10623">
        <ele>1229.98</ele>
        <time>2021-07-31T12:06:57Z</time>
      </trkpt>
      <trkpt lat="42.32156" lon="2.10681">
        <ele>1225.59</ele>
        <time>2021-07-31T12:07:02Z</time>
      </trkpt>
      <trkpt lat="42.32111" lon="2.10726">
        <ele>1221.83</ele>
        <time>2021-07-31T12:07:06Z</time>
      </trkpt>
      <trkpt lat="42.32077" lon="2.10752">
        <ele>1218.74</ele>
        <time>2021-07-31T12:07:09Z</time>
      </trkpt>
      <trkpt lat="42.32067" lon="2.10758">
        <ele>1217.7</ele>
        <time>2021-07-31T12:07:10Z</time>
      </trkpt>
      <trkpt lat="42.3203" lon="2.10754">
        <ele>1213.17</ele>
        <time>2021-07-31T12:07:14Z</time>
      </trkpt>
      <trkpt lat="42.32021" lon="2.10745">
        <ele>1212.01</ele>
        <time>2021-07-31T12:07:15Z</time>
      </trkpt>
      <trkpt lat="42.31988" lon="2.1071">
        <ele>1207.94</ele>
        <time>2021-07-31T12:07:19Z</time>
      </trkpt>
      <trkpt lat="42.31981" lon="2.10701">
        <ele>1206.9</ele>
        <time>2021-07-31T12:07:20Z</time>
      </trkpt>
      <trkpt lat="42.31981" lon="2.10653">
        <ele>1202.77</ele>
        <time>2021-07-31T12:07:24Z</time>
      </trkpt>
      <trkpt lat="42.32012" lon="2.10617">
        <ele>1198.9</ele>
        <time>2021-07-31T12:07:28Z</time>
      </trkpt>
      <trkpt lat="42.32035" lon="2.10618">
        <ele>1197.08</ele>
        <time>2021-07-31T12:07:30Z</time>
      </trkpt>
      <trkpt lat="42.32078" lon="2.10617">
        <ele>1193.75</ele>
        <time>2021-07-31T12:07:34Z</time>
      </trkpt>
      <trkpt lat="42.32102" lon="2.10603">
        <ele>1189.05</ele>
        <time>2021-07-31T12:07:38Z</time>
      </trkpt>
      <trkpt lat="42.32092" lon="2.10585">
        <ele>1187.21</ele>
        <time>2021-07-31T12:07:40Z</time>
      </trkpt>
      <trkpt lat="42.32053" lon="2.10524">
        <ele>1183.12</ele>
        <time>2021-07-31T12:07:45Z</time>
      </trkpt>
      <trkpt lat="42.32013" lon="2.1048">
        <ele>1179.69</ele>
        <time>2021-07-31T12:07:49Z</time>
      </trkpt>
      <trkpt lat="42.31995" lon="2.10457">
        <ele>1177.58</ele>
        <time>2021-07-31T12:07:51Z</time>
      </trkpt>
      <trkpt lat="42.31975" lon="2.10398">
        <ele>1173.49</ele>
        <time>2021-07-31T12:07:55Z</time>
      </trkpt>
      <trkpt lat="42.31946" lon="2.10377">
        <ele>1170.37</ele>
        <time>2021-07-31T12:07:58Z</time>
      </trkpt>
      <trkpt lat="42.31922" lon="2.10395">
        <ele>1168.52</ele>
        <time>2021-07-31T12:08:00Z</time>
      </trkpt>
      <trkpt lat="42.31864" lon="2.1043">
        <ele>1163.34</ele>
        <time>2021-07-31T12:08:07Z</time>
      </trkpt>
      <trkpt lat="42.31849" lon="2.10443">
        <ele>1160.11</ele>
        <time>2021-07-31T12:08:13Z</time>
      </trkpt>
      <trkpt lat="42.31814" lon="2.10415">
        <ele>1159.06</ele>
        <time>2021-07-31T12:08:18Z</time>
      </trkpt>
      <trkpt lat="42.31811" lon="2.10386">
        <ele>1159.08</ele>
        <time>2021-07-31T12:08:20Z</time>
      </trkpt>
      <trkpt lat="42.31807" lon="2.10337">
        <ele>1159.7</ele>
        <time>2021-07-31T12:08:23Z</time>
      </trkpt>
      <trkpt lat="42.31831" lon="2.10242">
        <ele>1161.9</ele>
        <time>2021-07-31T12:08:29Z</time>
      </trkpt>
      <trkpt lat="42.31849" lon="2.10219">
        <ele>1179</ele>
      </trkpt>
      <trkpt lat="42.31863" lon="2.10212">
        <ele>1163.8</ele>
        <time>2021-07-31T12:08:32Z</time>
      </trkpt>
      <trkpt lat="42.3193" lon="2.1017">
        <ele>1167.28</ele>
        <time>2021-07-31T12:08:37Z</time>
      </trkpt>
      <trkpt lat="42.31988" lon="2.10092">
        <ele>1171.11</ele>
        <time>2021-07-31T12:08:42Z</time>
      </trkpt>
      <trkpt lat="42.32002" lon="2.10055">
        <ele>1172.83</ele>
        <time>2021-07-31T12:08:44Z</time>
      </trkpt>
      <trkpt lat="42.32073" lon="2.09997">
        <ele>1175.78</ele>
        <time>2021-07-31T12:08:50Z</time>
      </trkpt>
      <trkpt lat="42.32104" lon="2.10003">
        <ele>1176.95</ele>
        <time>2021-07-31T12:08:52Z</time>
      </trkpt>
      <trkpt lat="42.32152" lon="2.10012">
        <ele>1178.4</ele>
        <time>2021-07-31T12:08:55Z</time>
      </trkpt>
      <trkpt lat="42.32208" lon="2.09986">
        <ele>1180.79</ele>
        <time>2021-07-31T12:09:00Z</time>
      </trkpt>
      <trkpt lat="42.32196" lon="2.0991">
        <ele>1181.98</ele>
        <time>2021-07-31T12:09:05Z</time>
      </trkpt>
      <trkpt lat="42.32177" lon="2.09907">
        <ele>1207.5</ele>
      </trkpt>
      <trkpt lat="42.32155" lon="2.09894">
        <ele>1206.5</ele>
      </trkpt>
      <trkpt lat="42.32109" lon="2.09846">
        <ele>1209.1</ele>
      </trkpt>
      <trkpt lat="42.32078" lon="2.09824">
        <ele>1208.2</ele>
      </trkpt>
      <trkpt lat="42.32041" lon="2.09815">
        <ele>1204.1</ele>
      </trkpt>
      <trkpt lat="42.32037" lon="2.0981">
        <ele>1204.2</ele>
      </trkpt>
    </trkseg>
  </trk>
  <trk>
    <name><![CDATA[Jour 2_2]]></name>
    <trkseg>
      <trkpt lat="42.32016" lon="2.09817">
        <ele>1200.5</ele>
      </trkpt>
      <trkpt lat="42.32008" lon="2.09815">
        <ele>1199.7</ele>
      </trkpt>
      <trkpt lat="42.31987" lon="2.09812">
        <ele>1198</ele>
      </trkpt>
      <trkpt lat="42.31978" lon="2.09824">
        <ele>1183.72</ele>
        <time>2021-07-31T12:14:21Z</time>
      </trkpt>
      <trkpt lat="42.3194" lon="2.09835">
        <ele>1179.63</ele>
        <time>2021-07-31T12:14:28Z</time>
      </trkpt>
      <trkpt lat="42.31929" lon="2.09828">
        <ele>1176.31</ele>
        <time>2021-07-31T12:14:34Z</time>
      </trkpt>
      <trkpt lat="42.31928" lon="2.09827">
        <ele>1175.91</ele>
        <time>2021-07-31T12:14:35Z</time>
      </trkpt>
      <trkpt lat="42.31926" lon="2.09808">
        <ele>1174.5</ele>
        <time>2021-07-31T12:14:40Z</time>
      </trkpt>
      <trkpt lat="42.31925" lon="2.09789">
        <ele>1174</ele>
        <time>2021-07-31T12:14:43Z</time>
      </trkpt>
      <trkpt lat="42.31928" lon="2.09722">
        <ele>1173.8</ele>
        <time>2021-07-31T12:14:53Z</time>
      </trkpt>
      <trkpt lat="42.31928" lon="2.09667">
        <ele>1173.95</ele>
        <time>2021-07-31T12:14:59Z</time>
      </trkpt>
      <trkpt lat="42.31937" lon="2.09622">
        <ele>1173.59</ele>
        <time>2021-07-31T12:15:04Z</time>
      </trkpt>
      <trkpt lat="42.31941" lon="2.09615">
        <ele>1173.52</ele>
        <time>2021-07-31T12:15:05Z</time>
      </trkpt>
      <trkpt lat="42.31948" lon="2.09612">
        <ele>1173.38</ele>
        <time>2021-07-31T12:15:06Z</time>
      </trkpt>
      <trkpt lat="42.31956" lon="2.0961">
        <ele>1173.1</ele>
        <time>2021-07-31T12:15:07Z</time>
      </trkpt>
      <trkpt lat="42.31964" lon="2.09611">
        <ele>1172.76</ele>
        <time>2021-07-31T12:15:08Z</time>
      </trkpt>
      <trkpt lat="42.31973" lon="2.09615">
        <ele>1172.42</ele>
        <time>2021-07-31T12:15:09Z</time>
      </trkpt>
      <trkpt lat="42.32028" lon="2.09611">
        <ele>1170.26</ele>
        <time>2021-07-31T12:15:15Z</time>
      </trkpt>
      <trkpt lat="42.3205" lon="2.09597">
        <ele>1168.67</ele>
        <time>2021-07-31T12:15:18Z</time>
      </trkpt>
      <trkpt lat="42.32067" lon="2.09554">
        <ele>1166.35</ele>
        <time>2021-07-31T12:15:23Z</time>
      </trkpt>
      <trkpt lat="42.32086" lon="2.09468">
        <ele>1164.06</ele>
        <time>2021-07-31T12:15:31Z</time>
      </trkpt>
      <trkpt lat="42.32091" lon="2.09432">
        <ele>1163.08</ele>
        <time>2021-07-31T12:15:38Z</time>
      </trkpt>
      <trkpt lat="42.32091" lon="2.09419">
        <ele>1162.98</ele>
        <time>2021-07-31T12:15:39Z</time>
      </trkpt>
      <trkpt lat="42.32098" lon="2.09372">
        <ele>1162.63</ele>
        <time>2021-07-31T12:15:42Z</time>
      </trkpt>
      <trkpt lat="42.32105" lon="2.09355">
        <ele>1162.38</ele>
        <time>2021-07-31T12:15:43Z</time>
      </trkpt>
      <trkpt lat="42.32112" lon="2.09338">
        <ele>1162.14</ele>
        <time>2021-07-31T12:15:44Z</time>
      </trkpt>
      <trkpt lat="42.32143" lon="2.09281">
        <ele>1160.93</ele>
        <time>2021-07-31T12:15:48Z</time>
      </trkpt>
      <trkpt lat="42.32195" lon="2.09284">
        <ele>1157.56</ele>
        <time>2021-07-31T12:15:53Z</time>
      </trkpt>
      <trkpt lat="42.32239" lon="2.09314">
        <ele>1154.87</ele>
        <time>2021-07-31T12:15:57Z</time>
      </trkpt>
      <trkpt lat="42.32274" lon="2.09303">
        <ele>1149.72</ele>
        <time>2021-07-31T12:16:02Z</time>
      </trkpt>
      <trkpt lat="42.32265" lon="2.0925">
        <ele>1146.59</ele>
        <time>2021-07-31T12:16:06Z</time>
      </trkpt>
      <trkpt lat="42.32257" lon="2.09238">
        <ele>1145.89</ele>
        <time>2021-07-31T12:16:07Z</time>
      </trkpt>
      <trkpt lat="42.32217" lon="2.09133">
        <ele>1143.04</ele>
        <time>2021-07-31T12:16:14Z</time>
      </trkpt>
      <trkpt lat="42.32223" lon="2.09039">
        <ele>1142.77</ele>
        <time>2021-07-31T12:16:20Z</time>
      </trkpt>
      <trkpt lat="42.32206" lon="2.09">
        <ele>1142.49</ele>
        <time>2021-07-31T12:16:24Z</time>
      </trkpt>
      <trkpt lat="42.32172" lon="2.08958">
        <ele>1140.51</ele>
        <time>2021-07-31T12:16:29Z</time>
      </trkpt>
      <trkpt lat="42.32171" lon="2.08945">
        <ele>1140.11</ele>
        <time>2021-07-31T12:16:30Z</time>
      </trkpt>
      <trkpt lat="42.32173" lon="2.08929">
        <ele>1139.78</ele>
        <time>2021-07-31T12:16:31Z</time>
      </trkpt>
      <trkpt lat="42.32176" lon="2.08913">
        <ele>1139.49</ele>
        <time>2021-07-31T12:16:32Z</time>
      </trkpt>
      <trkpt lat="42.32181" lon="2.08898">
        <ele>1139.17</ele>
        <time>2021-07-31T12:16:33Z</time>
      </trkpt>
      <trkpt lat="42.32214" lon="2.08792">
        <ele>1137.55</ele>
        <time>2021-07-31T12:16:40Z</time>
      </trkpt>
      <trkpt lat="42.32228" lon="2.08772">
        <ele>1137.15</ele>
        <time>2021-07-31T12:16:42Z</time>
      </trkpt>
      <trkpt lat="42.32232" lon="2.08721">
        <ele>1136.08</ele>
        <time>2021-07-31T12:16:46Z</time>
      </trkpt>
      <trkpt lat="42.32252" lon="2.08628">
        <ele>1133.01</ele>
        <time>2021-07-31T12:16:53Z</time>
      </trkpt>
      <trkpt lat="42.32304" lon="2.08601">
        <ele>1130.42</ele>
        <time>2021-07-31T12:16:58Z</time>
      </trkpt>
      <trkpt lat="42.32318" lon="2.08565">
        <ele>1128.13</ele>
        <time>2021-07-31T12:17:02Z</time>
      </trkpt>
      <trkpt lat="42.32359" lon="2.0848">
        <ele>1123.86</ele>
        <time>2021-07-31T12:17:10Z</time>
      </trkpt>
      <trkpt lat="42.32355" lon="2.08445">
        <ele>1121.25</ele>
        <time>2021-07-31T12:17:15Z</time>
      </trkpt>
      <trkpt lat="42.32322" lon="2.08418">
        <ele>1119.25</ele>
        <time>2021-07-31T12:17:20Z</time>
      </trkpt>
      <trkpt lat="42.32298" lon="2.0834">
        <ele>1118.7</ele>
        <time>2021-07-31T12:17:27Z</time>
      </trkpt>
      <trkpt lat="42.32316" lon="2.08273">
        <ele>1119.29</ele>
        <time>2021-07-31T12:17:31Z</time>
      </trkpt>
      <trkpt lat="42.32362" lon="2.08194">
        <ele>1119.77</ele>
        <time>2021-07-31T12:17:38Z</time>
      </trkpt>
      <trkpt lat="42.32375" lon="2.08101">
        <ele>1119.33</ele>
        <time>2021-07-31T12:17:44Z</time>
      </trkpt>
      <trkpt lat="42.32368" lon="2.07947">
        <ele>1119.93</ele>
        <time>2021-07-31T12:17:51Z</time>
      </trkpt>
      <trkpt lat="42.32349" lon="2.07762">
        <ele>1121.46</ele>
        <time>2021-07-31T12:17:58Z</time>
      </trkpt>
      <trkpt lat="42.32312" lon="2.0763">
        <ele>1123.81</ele>
        <time>2021-07-31T12:18:04Z</time>
      </trkpt>
      <trkpt lat="42.32278" lon="2.07467">
        <ele>1126.41</ele>
        <time>2021-07-31T12:18:12Z</time>
      </trkpt>
      <trkpt lat="42.32271" lon="2.07407">
        <ele>1127.44</ele>
        <time>2021-07-31T12:18:15Z</time>
      </trkpt>
      <trkpt lat="42.32203" lon="2.07233">
        <ele>1131.05</ele>
        <time>2021-07-31T12:18:24Z</time>
      </trkpt>
      <trkpt lat="42.32189" lon="2.07196">
        <ele>1131.58</ele>
        <time>2021-07-31T12:18:26Z</time>
      </trkpt>
      <trkpt lat="42.32155" lon="2.0711">
        <ele>1133</ele>
        <time>2021-07-31T12:18:31Z</time>
      </trkpt>
      <trkpt lat="42.32155" lon="2.07057">
        <ele>1133.84</ele>
        <time>2021-07-31T12:18:35Z</time>
      </trkpt>
      <trkpt lat="42.32159" lon="2.06993">
        <ele>1135.65</ele>
        <time>2021-07-31T12:18:40Z</time>
      </trkpt>
      <trkpt lat="42.32156" lon="2.06966">
        <ele>1136.42</ele>
        <time>2021-07-31T12:18:42Z</time>
      </trkpt>
      <trkpt lat="42.32192" lon="2.06897">
        <ele>1138.18</ele>
        <time>2021-07-31T12:18:48Z</time>
      </trkpt>
      <trkpt lat="42.32227" lon="2.06889">
        <ele>1138.89</ele>
        <time>2021-07-31T12:18:51Z</time>
      </trkpt>
      <trkpt lat="42.32293" lon="2.06877">
        <ele>1141.58</ele>
        <time>2021-07-31T12:18:56Z</time>
      </trkpt>
      <trkpt lat="42.32361" lon="2.06811">
        <ele>1144.17</ele>
        <time>2021-07-31T12:19:02Z</time>
      </trkpt>
      <trkpt lat="42.32366" lon="2.06789">
        <ele>1144.65</ele>
        <time>2021-07-31T12:19:03Z</time>
      </trkpt>
      <trkpt lat="42.32411" lon="2.06621">
        <ele>1148.61</ele>
        <time>2021-07-31T12:19:10Z</time>
      </trkpt>
      <trkpt lat="42.32445" lon="2.06496">
        <ele>1151.84</ele>
        <time>2021-07-31T12:19:15Z</time>
      </trkpt>
      <trkpt lat="42.32462" lon="2.064">
        <ele>1155.11</ele>
        <time>2021-07-31T12:19:19Z</time>
      </trkpt>
      <trkpt lat="42.32487" lon="2.06314">
        <ele>1157.36</ele>
        <time>2021-07-31T12:19:23Z</time>
      </trkpt>
      <trkpt lat="42.32499" lon="2.06177">
        <ele>1161.17</ele>
        <time>2021-07-31T12:19:29Z</time>
      </trkpt>
      <trkpt lat="42.32501" lon="2.06053">
        <ele>1164.73</ele>
        <time>2021-07-31T12:19:34Z</time>
      </trkpt>
      <trkpt lat="42.32499" lon="2.05984">
        <ele>1167.43</ele>
        <time>2021-07-31T12:19:37Z</time>
      </trkpt>
      <trkpt lat="42.32521" lon="2.05874">
        <ele>1171.7</ele>
        <time>2021-07-31T12:19:42Z</time>
      </trkpt>
      <trkpt lat="42.3254" lon="2.05835">
        <ele>1173.3</ele>
        <time>2021-07-31T12:19:44Z</time>
      </trkpt>
      <trkpt lat="42.32595" lon="2.05744">
        <ele>1177.87</ele>
        <time>2021-07-31T12:19:49Z</time>
      </trkpt>
      <trkpt lat="42.3262" lon="2.05687">
        <ele>1180.95</ele>
        <time>2021-07-31T12:19:52Z</time>
      </trkpt>
      <trkpt lat="42.32632" lon="2.05628">
        <ele>1184.12</ele>
        <time>2021-07-31T12:19:55Z</time>
      </trkpt>
      <trkpt lat="42.32631" lon="2.05554">
        <ele>1188.14</ele>
        <time>2021-07-31T12:19:59Z</time>
      </trkpt>
      <trkpt lat="42.3263" lon="2.05536">
        <ele>1189.08</ele>
        <time>2021-07-31T12:20:00Z</time>
      </trkpt>
      <trkpt lat="42.32598" lon="2.05467">
        <ele>1193.05</ele>
        <time>2021-07-31T12:20:05Z</time>
      </trkpt>
      <trkpt lat="42.32587" lon="2.05459">
        <ele>1193.75</ele>
        <time>2021-07-31T12:20:06Z</time>
      </trkpt>
      <trkpt lat="42.32569" lon="2.0544">
        <ele>1195.34</ele>
        <time>2021-07-31T12:20:08Z</time>
      </trkpt>
      <trkpt lat="42.32552" lon="2.05371">
        <ele>1198.74</ele>
        <time>2021-07-31T12:20:13Z</time>
      </trkpt>
      <trkpt lat="42.32555" lon="2.05356">
        <ele>1199.39</ele>
        <time>2021-07-31T12:20:14Z</time>
      </trkpt>
      <trkpt lat="42.32558" lon="2.05268">
        <ele>1204.16</ele>
        <time>2021-07-31T12:20:21Z</time>
      </trkpt>
      <trkpt lat="42.32529" lon="2.05168">
        <ele>1208.25</ele>
        <time>2021-07-31T12:20:29Z</time>
      </trkpt>
      <trkpt lat="42.325" lon="2.05082">
        <ele>1211.32</ele>
        <time>2021-07-31T12:20:34Z</time>
      </trkpt>
      <trkpt lat="42.32469" lon="2.04993">
        <ele>1214.8</ele>
        <time>2021-07-31T12:20:39Z</time>
      </trkpt>
      <trkpt lat="42.3243" lon="2.04915">
        <ele>1218.32</ele>
        <time>2021-07-31T12:20:44Z</time>
      </trkpt>
      <trkpt lat="42.32421" lon="2.04902">
        <ele>1219.12</ele>
        <time>2021-07-31T12:20:45Z</time>
      </trkpt>
      <trkpt lat="42.32374" lon="2.04871">
        <ele>1222.56</ele>
        <time>2021-07-31T12:20:49Z</time>
      </trkpt>
      <trkpt lat="42.32351" lon="2.0486">
        <ele>1224.21</ele>
        <time>2021-07-31T12:20:51Z</time>
      </trkpt>
      <trkpt lat="42.32308" lon="2.04784">
        <ele>1228.02</ele>
        <time>2021-07-31T12:20:57Z</time>
      </trkpt>
      <trkpt lat="42.32296" lon="2.04753">
        <ele>1229.11</ele>
        <time>2021-07-31T12:20:59Z</time>
      </trkpt>
      <trkpt lat="42.3229" lon="2.04738">
        <ele>1229.37</ele>
        <time>2021-07-31T12:21:00Z</time>
      </trkpt>
      <trkpt lat="42.32267" lon="2.04701">
        <ele>1230.41</ele>
        <time>2021-07-31T12:21:03Z</time>
      </trkpt>
      <trkpt lat="42.3225" lon="2.04636">
        <ele>1231.69</ele>
        <time>2021-07-31T12:21:07Z</time>
      </trkpt>
      <trkpt lat="42.32243" lon="2.04582">
        <ele>1232.51</ele>
        <time>2021-07-31T12:21:10Z</time>
      </trkpt>
      <trkpt lat="42.32245" lon="2.04405">
        <ele>1236.36</ele>
        <time>2021-07-31T12:21:19Z</time>
      </trkpt>
      <trkpt lat="42.32244" lon="2.04339">
        <ele>1239.59</ele>
        <time>2021-07-31T12:21:22Z</time>
      </trkpt>
      <trkpt lat="42.32241" lon="2.04274">
        <ele>1242.61</ele>
        <time>2021-07-31T12:21:25Z</time>
      </trkpt>
      <trkpt lat="42.32224" lon="2.04191">
        <ele>1246.43</ele>
        <time>2021-07-31T12:21:29Z</time>
      </trkpt>
      <trkpt lat="42.32214" lon="2.04092">
        <ele>1249.79</ele>
        <time>2021-07-31T12:21:34Z</time>
      </trkpt>
      <trkpt lat="42.32213" lon="2.04072">
        <ele>1250.22</ele>
        <time>2021-07-31T12:21:35Z</time>
      </trkpt>
      <trkpt lat="42.32226" lon="2.03879">
        <ele>1253.87</ele>
        <time>2021-07-31T12:21:44Z</time>
      </trkpt>
      <trkpt lat="42.32218" lon="2.03771">
        <ele>1257.45</ele>
        <time>2021-07-31T12:21:49Z</time>
      </trkpt>
      <trkpt lat="42.32213" lon="2.03708">
        <ele>1259.39</ele>
        <time>2021-07-31T12:21:52Z</time>
      </trkpt>
      <trkpt lat="42.32215" lon="2.03688">
        <ele>1260.06</ele>
        <time>2021-07-31T12:21:53Z</time>
      </trkpt>
      <trkpt lat="42.32218" lon="2.03671">
        <ele>1260.64</ele>
        <time>2021-07-31T12:21:54Z</time>
      </trkpt>
      <trkpt lat="42.32223" lon="2.03656">
        <ele>1261.11</ele>
        <time>2021-07-31T12:21:55Z</time>
      </trkpt>
      <trkpt lat="42.32229" lon="2.03645">
        <ele>1261.58</ele>
        <time>2021-07-31T12:21:56Z</time>
      </trkpt>
      <trkpt lat="42.32257" lon="2.03634">
        <ele>1262.87</ele>
        <time>2021-07-31T12:21:59Z</time>
      </trkpt>
      <trkpt lat="42.32358" lon="2.03586">
        <ele>1266.76</ele>
        <time>2021-07-31T12:22:06Z</time>
      </trkpt>
      <trkpt lat="42.32412" lon="2.03541">
        <ele>1270.39</ele>
        <time>2021-07-31T12:22:10Z</time>
      </trkpt>
      <trkpt lat="42.32432" lon="2.03521">
        <ele>1272.21</ele>
        <time>2021-07-31T12:22:12Z</time>
      </trkpt>
      <trkpt lat="42.32445" lon="2.0348">
        <ele>1276.32</ele>
        <time>2021-07-31T12:22:17Z</time>
      </trkpt>
      <trkpt lat="42.32404" lon="2.0347">
        <ele>1278.06</ele>
        <time>2021-07-31T12:22:23Z</time>
      </trkpt>
      <trkpt lat="42.32377" lon="2.03498">
        <ele>1278.89</ele>
        <time>2021-07-31T12:22:26Z</time>
      </trkpt>
      <trkpt lat="42.32347" lon="2.03531">
        <ele>1280.44</ele>
        <time>2021-07-31T12:22:29Z</time>
      </trkpt>
      <trkpt lat="42.32271" lon="2.03528">
        <ele>1284.63</ele>
        <time>2021-07-31T12:22:36Z</time>
      </trkpt>
      <trkpt lat="42.32266" lon="2.03469">
        <ele>1288.12</ele>
        <time>2021-07-31T12:22:41Z</time>
      </trkpt>
      <trkpt lat="42.32288" lon="2.03381">
        <ele>1292.54</ele>
        <time>2021-07-31T12:22:47Z</time>
      </trkpt>
      <trkpt lat="42.32297" lon="2.03354">
        <ele>1293.9</ele>
        <time>2021-07-31T12:22:49Z</time>
      </trkpt>
      <trkpt lat="42.32302" lon="2.03312">
        <ele>1296.09</ele>
        <time>2021-07-31T12:22:52Z</time>
      </trkpt>
      <trkpt lat="42.32303" lon="2.03297">
        <ele>1296.81</ele>
        <time>2021-07-31T12:22:53Z</time>
      </trkpt>
      <trkpt lat="42.32306" lon="2.03282">
        <ele>1297.45</ele>
        <time>2021-07-31T12:22:54Z</time>
      </trkpt>
      <trkpt lat="42.32309" lon="2.03267">
        <ele>1298.02</ele>
        <time>2021-07-31T12:22:55Z</time>
      </trkpt>
      <trkpt lat="42.32328" lon="2.03181">
        <ele>1301.74</ele>
        <time>2021-07-31T12:23:00Z</time>
      </trkpt>
      <trkpt lat="42.32341" lon="2.03109">
        <ele>1304.99</ele>
        <time>2021-07-31T12:23:04Z</time>
      </trkpt>
      <trkpt lat="42.32346" lon="2.03032">
        <ele>1308.28</ele>
        <time>2021-07-31T12:23:08Z</time>
      </trkpt>
      <trkpt lat="42.32346" lon="2.02954">
        <ele>1311.91</ele>
        <time>2021-07-31T12:23:12Z</time>
      </trkpt>
      <trkpt lat="42.3235" lon="2.02872">
        <ele>1315.64</ele>
        <time>2021-07-31T12:23:16Z</time>
      </trkpt>
      <trkpt lat="42.32354" lon="2.02799">
        <ele>1319.14</ele>
        <time>2021-07-31T12:23:20Z</time>
      </trkpt>
      <trkpt lat="42.32338" lon="2.02718">
        <ele>1321.99</ele>
        <time>2021-07-31T12:23:26Z</time>
      </trkpt>
      <trkpt lat="42.32315" lon="2.02611">
        <ele>1325.81</ele>
        <time>2021-07-31T12:23:32Z</time>
      </trkpt>
      <trkpt lat="42.32311" lon="2.02594">
        <ele>1326.63</ele>
        <time>2021-07-31T12:23:33Z</time>
      </trkpt>
      <trkpt lat="42.32297" lon="2.025">
        <ele>1330.86</ele>
        <time>2021-07-31T12:23:38Z</time>
      </trkpt>
      <trkpt lat="42.32273" lon="2.0243">
        <ele>1334.28</ele>
        <time>2021-07-31T12:23:42Z</time>
      </trkpt>
      <trkpt lat="42.32242" lon="2.02373">
        <ele>1336.82</ele>
        <time>2021-07-31T12:23:46Z</time>
      </trkpt>
      <trkpt lat="42.32203" lon="2.02331">
        <ele>1338.99</ele>
        <time>2021-07-31T12:23:50Z</time>
      </trkpt>
      <trkpt lat="42.32168" lon="2.0225">
        <ele>1342.85</ele>
        <time>2021-07-31T12:23:56Z</time>
      </trkpt>
      <trkpt lat="42.32181" lon="2.0221">
        <ele>1344.62</ele>
        <time>2021-07-31T12:23:59Z</time>
      </trkpt>
      <trkpt lat="42.32193" lon="2.02188">
        <ele>1345.93</ele>
        <time>2021-07-31T12:24:01Z</time>
      </trkpt>
      <trkpt lat="42.32179" lon="2.02124">
        <ele>1349.81</ele>
        <time>2021-07-31T12:24:07Z</time>
      </trkpt>
      <trkpt lat="42.32158" lon="2.02059">
        <ele>1352.52</ele>
        <time>2021-07-31T12:24:12Z</time>
      </trkpt>
      <trkpt lat="42.32162" lon="2.02023">
        <ele>1355.72</ele>
        <time>2021-07-31T12:24:18Z</time>
      </trkpt>
      <trkpt lat="42.32168" lon="2.0195">
        <ele>1358.72</ele>
        <time>2021-07-31T12:24:25Z</time>
      </trkpt>
      <trkpt lat="42.32142" lon="2.01886">
        <ele>1362.06</ele>
        <time>2021-07-31T12:24:30Z</time>
      </trkpt>
      <trkpt lat="42.32115" lon="2.01808">
        <ele>1365.96</ele>
        <time>2021-07-31T12:24:36Z</time>
      </trkpt>
      <trkpt lat="42.3211" lon="2.0178">
        <ele>1367.95</ele>
        <time>2021-07-31T12:24:41Z</time>
      </trkpt>
      <trkpt lat="42.32109" lon="2.01769">
        <ele>1368.58</ele>
        <time>2021-07-31T12:24:43Z</time>
      </trkpt>
      <trkpt lat="42.32112" lon="2.01753">
        <ele>1369.43</ele>
        <time>2021-07-31T12:24:45Z</time>
      </trkpt>
      <trkpt lat="42.32116" lon="2.01674">
        <ele>1372.81</ele>
        <time>2021-07-31T12:24:51Z</time>
      </trkpt>
      <trkpt lat="42.3211" lon="2.0159">
        <ele>1376.96</ele>
        <time>2021-07-31T12:24:56Z</time>
      </trkpt>
      <trkpt lat="42.32104" lon="2.01541">
        <ele>1380.33</ele>
        <time>2021-07-31T12:25:00Z</time>
      </trkpt>
      <trkpt lat="42.32099" lon="2.01519">
        <ele>1381.52</ele>
        <time>2021-07-31T12:25:02Z</time>
      </trkpt>
      <trkpt lat="42.32088" lon="2.0148">
        <ele>1383.28</ele>
        <time>2021-07-31T12:25:06Z</time>
      </trkpt>
      <trkpt lat="42.3208" lon="2.01418">
        <ele>1385.1</ele>
        <time>2021-07-31T12:25:16Z</time>
      </trkpt>
      <trkpt lat="42.32074" lon="2.01398">
        <ele>1385.31</ele>
        <time>2021-07-31T12:25:21Z</time>
      </trkpt>
      <trkpt lat="42.32064" lon="2.01331">
        <ele>1386.63</ele>
        <time>2021-07-31T12:25:27Z</time>
      </trkpt>
      <trkpt lat="42.32058" lon="2.0132">
        <ele>1387.24</ele>
        <time>2021-07-31T12:25:28Z</time>
      </trkpt>
      <trkpt lat="42.32024" lon="2.01277">
        <ele>1391.03</ele>
        <time>2021-07-31T12:25:33Z</time>
      </trkpt>
      <trkpt lat="42.32013" lon="2.01241">
        <ele>1394.09</ele>
        <time>2021-07-31T12:25:36Z</time>
      </trkpt>
      <trkpt lat="42.32002" lon="2.01186">
        <ele>1398.58</ele>
        <time>2021-07-31T12:25:40Z</time>
      </trkpt>
      <trkpt lat="42.31991" lon="2.01144">
        <ele>1402.13</ele>
        <time>2021-07-31T12:25:43Z</time>
      </trkpt>
      <trkpt lat="42.31977" lon="2.01097">
        <ele>1405.76</ele>
        <time>2021-07-31T12:25:46Z</time>
      </trkpt>
      <trkpt lat="42.31962" lon="2.01023">
        <ele>1410.58</ele>
        <time>2021-07-31T12:25:50Z</time>
      </trkpt>
      <trkpt lat="42.31957" lon="2.00983">
        <ele>1413.4</ele>
        <time>2021-07-31T12:25:52Z</time>
      </trkpt>
      <trkpt lat="42.31957" lon="2.00905">
        <ele>1418.19</ele>
        <time>2021-07-31T12:25:56Z</time>
      </trkpt>
      <trkpt lat="42.31957" lon="2.00866">
        <ele>1421.89</ele>
        <time>2021-07-31T12:25:58Z</time>
      </trkpt>
      <trkpt lat="42.31974" lon="2.00787">
        <ele>1427.44</ele>
        <time>2021-07-31T12:26:02Z</time>
      </trkpt>
      <trkpt lat="42.31986" lon="2.00722">
        <ele>1431.95</ele>
        <time>2021-07-31T12:26:05Z</time>
      </trkpt>
      <trkpt lat="42.31992" lon="2.0068">
        <ele>1435.12</ele>
        <time>2021-07-31T12:26:07Z</time>
      </trkpt>
      <trkpt lat="42.31991" lon="2.00628">
        <ele>1439.96</ele>
        <time>2021-07-31T12:26:10Z</time>
      </trkpt>
      <trkpt lat="42.31982" lon="2.00591">
        <ele>1443.02</ele>
        <time>2021-07-31T12:26:12Z</time>
      </trkpt>
      <trkpt lat="42.31977" lon="2.0057">
        <ele>1444.41</ele>
        <time>2021-07-31T12:26:13Z</time>
      </trkpt>
      <trkpt lat="42.31996" lon="2.00477">
        <ele>1448.13</ele>
        <time>2021-07-31T12:26:18Z</time>
      </trkpt>
      <trkpt lat="42.32081" lon="2.00432">
        <ele>1450.02</ele>
        <time>2021-07-31T12:26:24Z</time>
      </trkpt>
      <trkpt lat="42.32097" lon="2.00436">
        <ele>1450.4</ele>
        <time>2021-07-31T12:26:25Z</time>
      </trkpt>
      <trkpt lat="42.32189" lon="2.00479">
        <ele>1454.04</ele>
        <time>2021-07-31T12:26:31Z</time>
      </trkpt>
      <trkpt lat="42.32204" lon="2.00485">
        <ele>1454.98</ele>
        <time>2021-07-31T12:26:32Z</time>
      </trkpt>
      <trkpt lat="42.32271" lon="2.00492">
        <ele>1459.37</ele>
        <time>2021-07-31T12:26:36Z</time>
      </trkpt>
      <trkpt lat="42.32326" lon="2.0051">
        <ele>1464.48</ele>
        <time>2021-07-31T12:26:40Z</time>
      </trkpt>
      <trkpt lat="42.32362" lon="2.00505">
        <ele>1469.86</ele>
        <time>2021-07-31T12:26:44Z</time>
      </trkpt>
      <trkpt lat="42.3238" lon="2.00489">
        <ele>1472.45</ele>
        <time>2021-07-31T12:26:46Z</time>
      </trkpt>
      <trkpt lat="42.32416" lon="2.00455">
        <ele>1477.27</ele>
        <time>2021-07-31T12:26:50Z</time>
      </trkpt>
      <trkpt lat="42.32442" lon="2.00423">
        <ele>1480.86</ele>
        <time>2021-07-31T12:26:53Z</time>
      </trkpt>
      <trkpt lat="42.32452" lon="2.00412">
        <ele>1482.15</ele>
        <time>2021-07-31T12:26:54Z</time>
      </trkpt>
      <trkpt lat="42.32502" lon="2.00385">
        <ele>1487.27</ele>
        <time>2021-07-31T12:26:58Z</time>
      </trkpt>
      <trkpt lat="42.32517" lon="2.00382">
        <ele>1488.55</ele>
        <time>2021-07-31T12:26:59Z</time>
      </trkpt>
      <trkpt lat="42.32565" lon="2.0037">
        <ele>1492.35</ele>
        <time>2021-07-31T12:27:02Z</time>
      </trkpt>
      <trkpt lat="42.32629" lon="2.00334">
        <ele>1497.65</ele>
        <time>2021-07-31T12:27:06Z</time>
      </trkpt>
      <trkpt lat="42.32681" lon="2.00279">
        <ele>1503.2</ele>
        <time>2021-07-31T12:27:10Z</time>
      </trkpt>
      <trkpt lat="42.32692" lon="2.00262">
        <ele>1504.71</ele>
        <time>2021-07-31T12:27:11Z</time>
      </trkpt>
      <trkpt lat="42.32736" lon="2.00193">
        <ele>1510.57</ele>
        <time>2021-07-31T12:27:15Z</time>
      </trkpt>
      <trkpt lat="42.32771" lon="2.00142">
        <ele>1514.94</ele>
        <time>2021-07-31T12:27:18Z</time>
      </trkpt>
      <trkpt lat="42.32783" lon="2.00126">
        <ele>1516.52</ele>
        <time>2021-07-31T12:27:19Z</time>
      </trkpt>
      <trkpt lat="42.32826" lon="2.0009">
        <ele>1521.14</ele>
        <time>2021-07-31T12:27:22Z</time>
      </trkpt>
      <trkpt lat="42.3284" lon="2.0008">
        <ele>1522.63</ele>
        <time>2021-07-31T12:27:23Z</time>
      </trkpt>
      <trkpt lat="42.32884" lon="2.00061">
        <ele>1527.49</ele>
        <time>2021-07-31T12:27:26Z</time>
      </trkpt>
      <trkpt lat="42.32933" lon="2.00054">
        <ele>1532.43</ele>
        <time>2021-07-31T12:27:29Z</time>
      </trkpt>
      <trkpt lat="42.32968" lon="2.0005">
        <ele>1535.59</ele>
        <time>2021-07-31T12:27:31Z</time>
      </trkpt>
      <trkpt lat="42.33004" lon="2.00047">
        <ele>1538.84</ele>
        <time>2021-07-31T12:27:33Z</time>
      </trkpt>
      <trkpt lat="42.33039" lon="2.00039">
        <ele>1542.46</ele>
        <time>2021-07-31T12:27:35Z</time>
      </trkpt>
      <trkpt lat="42.33073" lon="2.00027">
        <ele>1547.92</ele>
        <time>2021-07-31T12:27:37Z</time>
      </trkpt>
      <trkpt lat="42.33104" lon="2.00015">
        <ele>1551.66</ele>
        <time>2021-07-31T12:27:39Z</time>
      </trkpt>
      <trkpt lat="42.33117" lon="2.00009">
        <ele>1553.36</ele>
        <time>2021-07-31T12:27:40Z</time>
      </trkpt>
      <trkpt lat="42.33147" lon="1.99983">
        <ele>1558.28</ele>
        <time>2021-07-31T12:27:43Z</time>
      </trkpt>
      <trkpt lat="42.33164" lon="1.9994">
        <ele>1562.62</ele>
        <time>2021-07-31T12:27:46Z</time>
      </trkpt>
      <trkpt lat="42.33191" lon="1.99904">
        <ele>1566.62</ele>
        <time>2021-07-31T12:27:49Z</time>
      </trkpt>
      <trkpt lat="42.33203" lon="1.99893">
        <ele>1568.1</ele>
        <time>2021-07-31T12:27:50Z</time>
      </trkpt>
      <trkpt lat="42.33227" lon="1.99872">
        <ele>1571.06</ele>
        <time>2021-07-31T12:27:52Z</time>
      </trkpt>
      <trkpt lat="42.33253" lon="1.99819">
        <ele>1576.31</ele>
        <time>2021-07-31T12:27:56Z</time>
      </trkpt>
      <trkpt lat="42.33253" lon="1.99802">
        <ele>1577.67</ele>
        <time>2021-07-31T12:27:57Z</time>
      </trkpt>
      <trkpt lat="42.33253" lon="1.99728">
        <ele>1582.61</ele>
        <time>2021-07-31T12:28:01Z</time>
      </trkpt>
      <trkpt lat="42.33251" lon="1.99695">
        <ele>1585.15</ele>
        <time>2021-07-31T12:28:03Z</time>
      </trkpt>
      <trkpt lat="42.33222" lon="1.99669">
        <ele>1590.43</ele>
        <time>2021-07-31T12:28:07Z</time>
      </trkpt>
      <trkpt lat="42.332" lon="1.99681">
        <ele>1592.82</ele>
        <time>2021-07-31T12:28:09Z</time>
      </trkpt>
      <trkpt lat="42.33166" lon="1.99705">
        <ele>1596.46</ele>
        <time>2021-07-31T12:28:12Z</time>
      </trkpt>
      <trkpt lat="42.33122" lon="1.99712">
        <ele>1601.47</ele>
        <time>2021-07-31T12:28:16Z</time>
      </trkpt>
      <trkpt lat="42.33098" lon="1.99712">
        <ele>1604.34</ele>
        <time>2021-07-31T12:28:18Z</time>
      </trkpt>
      <trkpt lat="42.33048" lon="1.99723">
        <ele>1609.6</ele>
        <time>2021-07-31T12:28:22Z</time>
      </trkpt>
      <trkpt lat="42.32993" lon="1.99713">
        <ele>1615.05</ele>
        <time>2021-07-31T12:28:26Z</time>
      </trkpt>
      <trkpt lat="42.32949" lon="1.99695">
        <ele>1619.26</ele>
        <time>2021-07-31T12:28:29Z</time>
      </trkpt>
      <trkpt lat="42.32907" lon="1.99663">
        <ele>1623.74</ele>
        <time>2021-07-31T12:28:32Z</time>
      </trkpt>
      <trkpt lat="42.32881" lon="1.99645">
        <ele>1626.92</ele>
        <time>2021-07-31T12:28:34Z</time>
      </trkpt>
      <trkpt lat="42.32857" lon="1.99598">
        <ele>1632.82</ele>
        <time>2021-07-31T12:28:38Z</time>
      </trkpt>
      <trkpt lat="42.32863" lon="1.99563">
        <ele>1635.65</ele>
        <time>2021-07-31T12:28:40Z</time>
      </trkpt>
      <trkpt lat="42.32872" lon="1.99491">
        <ele>1641.15</ele>
        <time>2021-07-31T12:28:44Z</time>
      </trkpt>
      <trkpt lat="42.32865" lon="1.99415">
        <ele>1646.67</ele>
        <time>2021-07-31T12:28:48Z</time>
      </trkpt>
      <trkpt lat="42.32864" lon="1.99332">
        <ele>1652.38</ele>
        <time>2021-07-31T12:28:52Z</time>
      </trkpt>
      <trkpt lat="42.32865" lon="1.99288">
        <ele>1655.6</ele>
        <time>2021-07-31T12:28:54Z</time>
      </trkpt>
      <trkpt lat="42.32869" lon="1.99242">
        <ele>1658.84</ele>
        <time>2021-07-31T12:28:56Z</time>
      </trkpt>
      <trkpt lat="42.32876" lon="1.99195">
        <ele>1662.27</ele>
        <time>2021-07-31T12:28:58Z</time>
      </trkpt>
      <trkpt lat="42.32884" lon="1.99148">
        <ele>1665.83</ele>
        <time>2021-07-31T12:29:00Z</time>
      </trkpt>
      <trkpt lat="42.32893" lon="1.991">
        <ele>1669.42</ele>
        <time>2021-07-31T12:29:02Z</time>
      </trkpt>
      <trkpt lat="42.32908" lon="1.99052">
        <ele>1673.02</ele>
        <time>2021-07-31T12:29:04Z</time>
      </trkpt>
      <trkpt lat="42.32925" lon="1.99012">
        <ele>1676.76</ele>
        <time>2021-07-31T12:29:06Z</time>
      </trkpt>
      <trkpt lat="42.32963" lon="1.98962">
        <ele>1682.41</ele>
        <time>2021-07-31T12:29:09Z</time>
      </trkpt>
      <trkpt lat="42.3299" lon="1.98933">
        <ele>1686.1</ele>
        <time>2021-07-31T12:29:11Z</time>
      </trkpt>
      <trkpt lat="42.33001" lon="1.98918">
        <ele>1687.95</ele>
        <time>2021-07-31T12:29:12Z</time>
      </trkpt>
      <trkpt lat="42.33014" lon="1.9887">
        <ele>1693.57</ele>
        <time>2021-07-31T12:29:15Z</time>
      </trkpt>
      <trkpt lat="42.33013" lon="1.98853">
        <ele>1696.8</ele>
        <time>2021-07-31T12:29:16Z</time>
      </trkpt>
      <trkpt lat="42.33017" lon="1.98807">
        <ele>1700.9</ele>
        <time>2021-07-31T12:29:19Z</time>
      </trkpt>
      <trkpt lat="42.33031" lon="1.9878">
        <ele>1703.59</ele>
        <time>2021-07-31T12:29:21Z</time>
      </trkpt>
      <trkpt lat="42.33064" lon="1.98726">
        <ele>1709.07</ele>
        <time>2021-07-31T12:29:25Z</time>
      </trkpt>
      <trkpt lat="42.33082" lon="1.98696">
        <ele>1711.84</ele>
        <time>2021-07-31T12:29:27Z</time>
      </trkpt>
      <trkpt lat="42.3311" lon="1.98624">
        <ele>1717.73</ele>
        <time>2021-07-31T12:29:31Z</time>
      </trkpt>
      <trkpt lat="42.33117" lon="1.98605">
        <ele>1719.27</ele>
        <time>2021-07-31T12:29:32Z</time>
      </trkpt>
      <trkpt lat="42.33128" lon="1.98541">
        <ele>1724.09</ele>
        <time>2021-07-31T12:29:35Z</time>
      </trkpt>
      <trkpt lat="42.33129" lon="1.98521">
        <ele>1725.65</ele>
        <time>2021-07-31T12:29:36Z</time>
      </trkpt>
      <trkpt lat="42.33148" lon="1.98461">
        <ele>1732.32</ele>
        <time>2021-07-31T12:29:41Z</time>
      </trkpt>
      <trkpt lat="42.33149" lon="1.98436">
        <ele>1735.44</ele>
        <time>2021-07-31T12:29:45Z</time>
      </trkpt>
      <trkpt lat="42.33137" lon="1.98359">
        <ele>1737.43</ele>
        <time>2021-07-31T12:29:51Z</time>
      </trkpt>
      <trkpt lat="42.33142" lon="1.98279">
        <ele>1738.85</ele>
        <time>2021-07-31T12:29:55Z</time>
      </trkpt>
      <trkpt lat="42.33157" lon="1.982">
        <ele>1740.24</ele>
        <time>2021-07-31T12:29:59Z</time>
      </trkpt>
      <trkpt lat="42.33153" lon="1.98122">
        <ele>1741.81</ele>
        <time>2021-07-31T12:30:03Z</time>
      </trkpt>
      <trkpt lat="42.33133" lon="1.98048">
        <ele>1742.84</ele>
        <time>2021-07-31T12:30:07Z</time>
      </trkpt>
      <trkpt lat="42.33154" lon="1.97967">
        <ele>1744.09</ele>
        <time>2021-07-31T12:30:12Z</time>
      </trkpt>
      <trkpt lat="42.33186" lon="1.97929">
        <ele>1744.97</ele>
        <time>2021-07-31T12:30:15Z</time>
      </trkpt>
      <trkpt lat="42.33233" lon="1.97821">
        <ele>1747.4</ele>
        <time>2021-07-31T12:30:22Z</time>
      </trkpt>
      <trkpt lat="42.332" lon="1.97752">
        <ele>1748.45</ele>
        <time>2021-07-31T12:30:26Z</time>
      </trkpt>
      <trkpt lat="42.33175" lon="1.9772">
        <ele>1749.18</ele>
        <time>2021-07-31T12:30:28Z</time>
      </trkpt>
      <trkpt lat="42.3311" lon="1.97597">
        <ele>1751.52</ele>
        <time>2021-07-31T12:30:34Z</time>
      </trkpt>
      <trkpt lat="42.33095" lon="1.97447">
        <ele>1753.8</ele>
        <time>2021-07-31T12:30:40Z</time>
      </trkpt>
      <trkpt lat="42.33056" lon="1.97254">
        <ele>1755.98</ele>
        <time>2021-07-31T12:30:48Z</time>
      </trkpt>
      <trkpt lat="42.33019" lon="1.97146">
        <ele>1757.05</ele>
        <time>2021-07-31T12:30:53Z</time>
      </trkpt>
      <trkpt lat="42.33012" lon="1.96973">
        <ele>1758.69</ele>
        <time>2021-07-31T12:31:00Z</time>
      </trkpt>
      <trkpt lat="42.3304" lon="1.96806">
        <ele>1758.86</ele>
        <time>2021-07-31T12:31:06Z</time>
      </trkpt>
      <trkpt lat="42.33043" lon="1.96716">
        <ele>1758.76</ele>
        <time>2021-07-31T12:31:09Z</time>
      </trkpt>
      <trkpt lat="42.3309" lon="1.96563">
        <ele>1758.16</ele>
        <time>2021-07-31T12:31:15Z</time>
      </trkpt>
      <trkpt lat="42.33098" lon="1.9654">
        <ele>1758.19</ele>
        <time>2021-07-31T12:31:16Z</time>
      </trkpt>
      <trkpt lat="42.33101" lon="1.9639">
        <ele>1758.73</ele>
        <time>2021-07-31T12:31:22Z</time>
      </trkpt>
      <trkpt lat="42.33061" lon="1.96251">
        <ele>1760.53</ele>
        <time>2021-07-31T12:31:28Z</time>
      </trkpt>
      <trkpt lat="42.3301" lon="1.96183">
        <ele>1761.96</ele>
        <time>2021-07-31T12:31:32Z</time>
      </trkpt>
      <trkpt lat="42.32893" lon="1.96076">
        <ele>1765.45</ele>
        <time>2021-07-31T12:31:40Z</time>
      </trkpt>
      <trkpt lat="42.32794" lon="1.95987">
        <ele>1768.44</ele>
        <time>2021-07-31T12:31:48Z</time>
      </trkpt>
      <trkpt lat="42.32746" lon="1.95971">
        <ele>1769.54</ele>
        <time>2021-07-31T12:31:52Z</time>
      </trkpt>
      <trkpt lat="42.3268" lon="1.95947">
        <ele>1770.9</ele>
        <time>2021-07-31T12:31:57Z</time>
      </trkpt>
      <trkpt lat="42.32598" lon="1.95957">
        <ele>1774.77</ele>
        <time>2021-07-31T12:32:03Z</time>
      </trkpt>
      <trkpt lat="42.32537" lon="1.95982">
        <ele>1778.76</ele>
        <time>2021-07-31T12:32:08Z</time>
      </trkpt>
      <trkpt lat="42.32509" lon="1.95993">
        <ele>1781.39</ele>
        <time>2021-07-31T12:32:11Z</time>
      </trkpt>
      <trkpt lat="42.32482" lon="1.96012">
        <ele>1783.86</ele>
        <time>2021-07-31T12:32:15Z</time>
      </trkpt>
      <trkpt lat="42.32437" lon="1.96052">
        <ele>1787.02</ele>
        <time>2021-07-31T12:32:24Z</time>
      </trkpt>
      <trkpt lat="42.32367" lon="1.96103">
        <ele>1786.8</ele>
        <time>2021-07-31T12:32:34Z</time>
      </trkpt>
      <trkpt lat="42.32286" lon="1.96166">
        <ele>1787.14</ele>
        <time>2021-07-31T12:32:42Z</time>
      </trkpt>
      <trkpt lat="42.32251" lon="1.96214">
        <ele>1786.83</ele>
        <time>2021-07-31T12:32:46Z</time>
      </trkpt>
      <trkpt lat="42.32174" lon="1.96383">
        <ele>1786.13</ele>
        <time>2021-07-31T12:32:56Z</time>
      </trkpt>
      <trkpt lat="42.32089" lon="1.96575">
        <ele>1782.81</ele>
        <time>2021-07-31T12:33:04Z</time>
      </trkpt>
      <trkpt lat="42.32022" lon="1.96731">
        <ele>1779.28</ele>
        <time>2021-07-31T12:33:10Z</time>
      </trkpt>
      <trkpt lat="42.31966" lon="1.96849">
        <ele>1775.85</ele>
        <time>2021-07-31T12:33:15Z</time>
      </trkpt>
      <trkpt lat="42.31905" lon="1.96922">
        <ele>1772.65</ele>
        <time>2021-07-31T12:33:19Z</time>
      </trkpt>
      <trkpt lat="42.31843" lon="1.96994">
        <ele>1769.37</ele>
        <time>2021-07-31T12:33:23Z</time>
      </trkpt>
      <trkpt lat="42.31778" lon="1.97056">
        <ele>1766.15</ele>
        <time>2021-07-31T12:33:27Z</time>
      </trkpt>
      <trkpt lat="42.31704" lon="1.97068">
        <ele>1762.9</ele>
        <time>2021-07-31T12:33:31Z</time>
      </trkpt>
      <trkpt lat="42.31627" lon="1.97064">
        <ele>1760.96</ele>
        <time>2021-07-31T12:33:35Z</time>
      </trkpt>
      <trkpt lat="42.31536" lon="1.97063">
        <ele>1759.55</ele>
        <time>2021-07-31T12:33:40Z</time>
      </trkpt>
      <trkpt lat="42.31443" lon="1.97115">
        <ele>1755.7</ele>
        <time>2021-07-31T12:33:46Z</time>
      </trkpt>
      <trkpt lat="42.31388" lon="1.97114">
        <ele>1750.95</ele>
        <time>2021-07-31T12:33:51Z</time>
      </trkpt>
      <trkpt lat="42.31392" lon="1.97074">
        <ele>1747.16</ele>
        <time>2021-07-31T12:33:54Z</time>
      </trkpt>
      <trkpt lat="42.31393" lon="1.9701">
        <ele>1742.92</ele>
        <time>2021-07-31T12:33:58Z</time>
      </trkpt>
      <trkpt lat="42.3136" lon="1.97015">
        <ele>1739.33</ele>
        <time>2021-07-31T12:34:02Z</time>
      </trkpt>
      <trkpt lat="42.31331" lon="1.97052">
        <ele>1737.88</ele>
        <time>2021-07-31T12:34:05Z</time>
      </trkpt>
      <trkpt lat="42.31257" lon="1.97148">
        <ele>1738.51</ele>
        <time>2021-07-31T12:34:11Z</time>
      </trkpt>
      <trkpt lat="42.31179" lon="1.97174">
        <ele>1738.12</ele>
        <time>2021-07-31T12:34:16Z</time>
      </trkpt>
      <trkpt lat="42.3112" lon="1.97221">
        <ele>1737.12</ele>
        <time>2021-07-31T12:34:20Z</time>
      </trkpt>
      <trkpt lat="42.3111" lon="1.97242">
        <ele>1736.82</ele>
        <time>2021-07-31T12:34:21Z</time>
      </trkpt>
      <trkpt lat="42.30994" lon="1.97391">
        <ele>1736.49</ele>
        <time>2021-07-31T12:34:29Z</time>
      </trkpt>
      <trkpt lat="42.30889" lon="1.97514">
        <ele>1736.47</ele>
        <time>2021-07-31T12:34:36Z</time>
      </trkpt>
      <trkpt lat="42.30795" lon="1.97534">
        <ele>1734.6</ele>
        <time>2021-07-31T12:34:42Z</time>
      </trkpt>
      <trkpt lat="42.30729" lon="1.97517">
        <ele>1733.24</ele>
        <time>2021-07-31T12:34:46Z</time>
      </trkpt>
      <trkpt lat="42.30618" lon="1.97456">
        <ele>1730.87</ele>
        <time>2021-07-31T12:34:53Z</time>
      </trkpt>
      <trkpt lat="42.30572" lon="1.97467">
        <ele>1727.99</ele>
        <time>2021-07-31T12:34:58Z</time>
      </trkpt>
      <trkpt lat="42.30585" lon="1.97512">
        <ele>1726.33</ele>
        <time>2021-07-31T12:35:01Z</time>
      </trkpt>
      <trkpt lat="42.30657" lon="1.97658">
        <ele>1729.08</ele>
        <time>2021-07-31T12:35:10Z</time>
      </trkpt>
      <trkpt lat="42.30675" lon="1.97726">
        <ele>1732.64</ele>
        <time>2021-07-31T12:35:13Z</time>
      </trkpt>
      <trkpt lat="42.3068" lon="1.97751">
        <ele>1733.96</ele>
        <time>2021-07-31T12:35:14Z</time>
      </trkpt>
      <trkpt lat="42.30683" lon="1.97854">
        <ele>1739.72</ele>
        <time>2021-07-31T12:35:18Z</time>
      </trkpt>
      <trkpt lat="42.3068" lon="1.97907">
        <ele>1743.3</ele>
        <time>2021-07-31T12:35:20Z</time>
      </trkpt>
      <trkpt lat="42.3068" lon="1.97934">
        <ele>1745.19</ele>
        <time>2021-07-31T12:35:21Z</time>
      </trkpt>
      <trkpt lat="42.30692" lon="1.9801">
        <ele>1750.82</ele>
        <time>2021-07-31T12:35:24Z</time>
      </trkpt>
      <trkpt lat="42.30701" lon="1.98032">
        <ele>1752.57</ele>
        <time>2021-07-31T12:35:25Z</time>
      </trkpt>
      <trkpt lat="42.30717" lon="1.98072">
        <ele>1755.94</ele>
        <time>2021-07-31T12:35:27Z</time>
      </trkpt>
      <trkpt lat="42.30726" lon="1.98135">
        <ele>1760.5</ele>
        <time>2021-07-31T12:35:30Z</time>
      </trkpt>
      <trkpt lat="42.30704" lon="1.98198">
        <ele>1764.36</ele>
        <time>2021-07-31T12:35:33Z</time>
      </trkpt>
      <trkpt lat="42.30677" lon="1.98232">
        <ele>1767.89</ele>
        <time>2021-07-31T12:35:35Z</time>
      </trkpt>
      <trkpt lat="42.30641" lon="1.9825">
        <ele>1770.91</ele>
        <time>2021-07-31T12:35:37Z</time>
      </trkpt>
      <trkpt lat="42.30585" lon="1.98278">
        <ele>1775.79</ele>
        <time>2021-07-31T12:35:40Z</time>
      </trkpt>
      <trkpt lat="42.30551" lon="1.98302">
        <ele>1779.18</ele>
        <time>2021-07-31T12:35:42Z</time>
      </trkpt>
      <trkpt lat="42.30522" lon="1.98322">
        <ele>1782.22</ele>
        <time>2021-07-31T12:35:44Z</time>
      </trkpt>
      <trkpt lat="42.30512" lon="1.98389">
        <ele>1786.62</ele>
        <time>2021-07-31T12:35:49Z</time>
      </trkpt>
      <trkpt lat="42.30537" lon="1.98438">
        <ele>1788.66</ele>
        <time>2021-07-31T12:35:52Z</time>
      </trkpt>
      <trkpt lat="42.30563" lon="1.98493">
        <ele>1792.78</ele>
        <time>2021-07-31T12:35:55Z</time>
      </trkpt>
      <trkpt lat="42.30592" lon="1.98552">
        <ele>1796.73</ele>
        <time>2021-07-31T12:35:58Z</time>
      </trkpt>
      <trkpt lat="42.30613" lon="1.98594">
        <ele>1799.8</ele>
        <time>2021-07-31T12:36:00Z</time>
      </trkpt>
      <trkpt lat="42.30646" lon="1.98659">
        <ele>1804.13</ele>
        <time>2021-07-31T12:36:03Z</time>
      </trkpt>
      <trkpt lat="42.30667" lon="1.98703">
        <ele>1807.53</ele>
        <time>2021-07-31T12:36:05Z</time>
      </trkpt>
      <trkpt lat="42.30689" lon="1.98745">
        <ele>1811.34</ele>
        <time>2021-07-31T12:36:07Z</time>
      </trkpt>
      <trkpt lat="42.30701" lon="1.98803">
        <ele>1816.33</ele>
        <time>2021-07-31T12:36:10Z</time>
      </trkpt>
      <trkpt lat="42.30662" lon="1.98844">
        <ele>1820.18</ele>
        <time>2021-07-31T12:36:14Z</time>
      </trkpt>
      <trkpt lat="42.30634" lon="1.98837">
        <ele>1821.79</ele>
        <time>2021-07-31T12:36:16Z</time>
      </trkpt>
      <trkpt lat="42.30555" lon="1.98833">
        <ele>1825.26</ele>
        <time>2021-07-31T12:36:22Z</time>
      </trkpt>
      <trkpt lat="42.30491" lon="1.98873">
        <ele>1829.72</ele>
        <time>2021-07-31T12:36:27Z</time>
      </trkpt>
      <trkpt lat="42.30454" lon="1.98896">
        <ele>1833.28</ele>
        <time>2021-07-31T12:36:30Z</time>
      </trkpt>
      <trkpt lat="42.30414" lon="1.98919">
        <ele>1837.29</ele>
        <time>2021-07-31T12:36:33Z</time>
      </trkpt>
      <trkpt lat="42.30371" lon="1.98942">
        <ele>1841.02</ele>
        <time>2021-07-31T12:36:36Z</time>
      </trkpt>
      <trkpt lat="42.30312" lon="1.98962">
        <ele>1845.11</ele>
        <time>2021-07-31T12:36:40Z</time>
      </trkpt>
      <trkpt lat="42.30253" lon="1.98958">
        <ele>1849.34</ele>
        <time>2021-07-31T12:36:44Z</time>
      </trkpt>
      <trkpt lat="42.30213" lon="1.9897">
        <ele>1854.17</ele>
        <time>2021-07-31T12:36:49Z</time>
      </trkpt>
      <trkpt lat="42.30218" lon="1.99008">
        <ele>1856.54</ele>
        <time>2021-07-31T12:36:52Z</time>
      </trkpt>
      <trkpt lat="42.30218" lon="1.99109">
        <ele>1861.45</ele>
        <time>2021-07-31T12:36:59Z</time>
      </trkpt>
      <trkpt lat="42.30213" lon="1.99124">
        <ele>1862.26</ele>
        <time>2021-07-31T12:37:00Z</time>
      </trkpt>
      <trkpt lat="42.30175" lon="1.99195">
        <ele>1866.91</ele>
        <time>2021-07-31T12:37:05Z</time>
      </trkpt>
      <trkpt lat="42.30158" lon="1.99227">
        <ele>1868.96</ele>
        <time>2021-07-31T12:37:07Z</time>
      </trkpt>
      <trkpt lat="42.30141" lon="1.99293">
        <ele>1873.07</ele>
        <time>2021-07-31T12:37:11Z</time>
      </trkpt>
      <trkpt lat="42.30135" lon="1.99334">
        <ele>1877.31</ele>
        <time>2021-07-31T12:37:18Z</time>
      </trkpt>
      <trkpt lat="42.30133" lon="1.99343">
        <ele>1878.22</ele>
        <time>2021-07-31T12:37:27Z</time>
      </trkpt>
      <trkpt lat="42.30133" lon="1.99342">
        <ele>1878.81</ele>
        <time>2021-07-31T12:39:26Z</time>
      </trkpt>
      <trkpt lat="42.30133" lon="1.99344">
        <ele>1878.75</ele>
        <time>2021-07-31T12:42:53Z</time>
      </trkpt>
      <trkpt lat="42.30138" lon="1.99371">
        <ele>1878.84</ele>
        <time>2021-07-31T12:42:59Z</time>
      </trkpt>
      <trkpt lat="42.30126" lon="1.9948">
        <ele>1879.66</ele>
        <time>2021-07-31T12:43:08Z</time>
      </trkpt>
      <trkpt lat="42.30096" lon="1.99613">
        <ele>1881.05</ele>
        <time>2021-07-31T12:43:15Z</time>
      </trkpt>
      <trkpt lat="42.30072" lon="1.99834">
        <ele>1882.47</ele>
        <time>2021-07-31T12:43:24Z</time>
      </trkpt>
      <trkpt lat="42.30017" lon="1.9997">
        <ele>1881.03</ele>
        <time>2021-07-31T12:43:31Z</time>
      </trkpt>
      <trkpt lat="42.30001" lon="2.00003">
        <ele>1880.44</ele>
        <time>2021-07-31T12:43:33Z</time>
      </trkpt>
      <trkpt lat="42.29987" lon="2.00132">
        <ele>1879.72</ele>
        <time>2021-07-31T12:43:39Z</time>
      </trkpt>
      <trkpt lat="42.2998" lon="2.00247">
        <ele>1879.24</ele>
        <time>2021-07-31T12:43:44Z</time>
      </trkpt>
      <trkpt lat="42.30002" lon="2.00316">
        <ele>1878.34</ele>
        <time>2021-07-31T12:43:48Z</time>
      </trkpt>
      <trkpt lat="42.30017" lon="2.00431">
        <ele>1876.31</ele>
        <time>2021-07-31T12:43:53Z</time>
      </trkpt>
      <trkpt lat="42.30009" lon="2.00479">
        <ele>1875.35</ele>
        <time>2021-07-31T12:43:55Z</time>
      </trkpt>
      <trkpt lat="42.30009" lon="2.00595">
        <ele>1872.88</ele>
        <time>2021-07-31T12:44:00Z</time>
      </trkpt>
      <trkpt lat="42.30047" lon="2.00663">
        <ele>1869.24</ele>
        <time>2021-07-31T12:44:05Z</time>
      </trkpt>
      <trkpt lat="42.30087" lon="2.00695">
        <ele>1866.05</ele>
        <time>2021-07-31T12:44:09Z</time>
      </trkpt>
      <trkpt lat="42.30071" lon="2.00758">
        <ele>1862.32</ele>
        <time>2021-07-31T12:44:14Z</time>
      </trkpt>
      <trkpt lat="42.30028" lon="2.00877">
        <ele>1860.53</ele>
        <time>2021-07-31T12:44:19Z</time>
      </trkpt>
      <trkpt lat="42.30014" lon="2.01003">
        <ele>1857.98</ele>
        <time>2021-07-31T12:44:24Z</time>
      </trkpt>
      <trkpt lat="42.30043" lon="2.01108">
        <ele>1854.68</ele>
        <time>2021-07-31T12:44:29Z</time>
      </trkpt>
      <trkpt lat="42.30076" lon="2.01163">
        <ele>1852.42</ele>
        <time>2021-07-31T12:44:32Z</time>
      </trkpt>
      <trkpt lat="42.3014" lon="2.0121">
        <ele>1848.53</ele>
        <time>2021-07-31T12:44:36Z</time>
      </trkpt>
      <trkpt lat="42.30207" lon="2.01221">
        <ele>1842.91</ele>
        <time>2021-07-31T12:44:41Z</time>
      </trkpt>
      <trkpt lat="42.302" lon="2.01253">
        <ele>1839.04</ele>
        <time>2021-07-31T12:44:44Z</time>
      </trkpt>
      <trkpt lat="42.30178" lon="2.01263">
        <ele>1837.06</ele>
        <time>2021-07-31T12:44:46Z</time>
      </trkpt>
      <trkpt lat="42.30042" lon="2.01281">
        <ele>1833.04</ele>
        <time>2021-07-31T12:44:54Z</time>
      </trkpt>
      <trkpt lat="42.29914" lon="2.01237">
        <ele>1829.51</ele>
        <time>2021-07-31T12:45:01Z</time>
      </trkpt>
      <trkpt lat="42.29858" lon="2.01291">
        <ele>1825.85</ele>
        <time>2021-07-31T12:45:06Z</time>
      </trkpt>
      <trkpt lat="42.29845" lon="2.01333">
        <ele>1824.75</ele>
        <time>2021-07-31T12:45:08Z</time>
      </trkpt>
      <trkpt lat="42.2982" lon="2.01397">
        <ele>1823.6</ele>
        <time>2021-07-31T12:45:11Z</time>
      </trkpt>
      <trkpt lat="42.29791" lon="2.01543">
        <ele>1821.35</ele>
        <time>2021-07-31T12:45:17Z</time>
      </trkpt>
      <trkpt lat="42.29803" lon="2.01657">
        <ele>1818.02</ele>
        <time>2021-07-31T12:45:23Z</time>
      </trkpt>
      <trkpt lat="42.29825" lon="2.01688">
        <ele>1816.89</ele>
        <time>2021-07-31T12:45:25Z</time>
      </trkpt>
      <trkpt lat="42.29919" lon="2.01773">
        <ele>1814.16</ele>
        <time>2021-07-31T12:45:31Z</time>
      </trkpt>
      <trkpt lat="42.29986" lon="2.018">
        <ele>1812.38</ele>
        <time>2021-07-31T12:45:35Z</time>
      </trkpt>
      <trkpt lat="42.30057" lon="2.01801">
        <ele>1810.53</ele>
        <time>2021-07-31T12:45:39Z</time>
      </trkpt>
      <trkpt lat="42.30103" lon="2.01839">
        <ele>1807.22</ele>
        <time>2021-07-31T12:45:44Z</time>
      </trkpt>
      <trkpt lat="42.30059" lon="2.01915">
        <ele>1803.5</ele>
        <time>2021-07-31T12:45:49Z</time>
      </trkpt>
      <trkpt lat="42.30044" lon="2.02">
        <ele>1798.04</ele>
        <time>2021-07-31T12:45:55Z</time>
      </trkpt>
      <trkpt lat="42.30065" lon="2.02043">
        <ele>1794.28</ele>
        <time>2021-07-31T12:45:59Z</time>
      </trkpt>
      <trkpt lat="42.30007" lon="2.02082">
        <ele>1791.69</ele>
        <time>2021-07-31T12:46:04Z</time>
      </trkpt>
      <trkpt lat="42.29911" lon="2.02078">
        <ele>1790.86</ele>
        <time>2021-07-31T12:46:09Z</time>
      </trkpt>
      <trkpt lat="42.29892" lon="2.02068">
        <ele>1790.78</ele>
        <time>2021-07-31T12:46:10Z</time>
      </trkpt>
      <trkpt lat="42.29858" lon="2.0205">
        <ele>1790.69</ele>
        <time>2021-07-31T12:46:12Z</time>
      </trkpt>
      <trkpt lat="42.29781" lon="2.0205">
        <ele>1789.96</ele>
        <time>2021-07-31T12:46:16Z</time>
      </trkpt>
      <trkpt lat="42.29661" lon="2.02033">
        <ele>1786.09</ele>
        <time>2021-07-31T12:46:21Z</time>
      </trkpt>
      <trkpt lat="42.29592" lon="2.02009">
        <ele>1782.86</ele>
        <time>2021-07-31T12:46:24Z</time>
      </trkpt>
      <trkpt lat="42.29532" lon="2.01987">
        <ele>1778.98</ele>
        <time>2021-07-31T12:46:27Z</time>
      </trkpt>
      <trkpt lat="42.29515" lon="2.01984">
        <ele>1777.56</ele>
        <time>2021-07-31T12:46:28Z</time>
      </trkpt>
      <trkpt lat="42.29456" lon="2.01998">
        <ele>1771.62</ele>
        <time>2021-07-31T12:46:32Z</time>
      </trkpt>
      <trkpt lat="42.29433" lon="2.02027">
        <ele>1768.99</ele>
        <time>2021-07-31T12:46:34Z</time>
      </trkpt>
      <trkpt lat="42.29423" lon="2.02046">
        <ele>1767.7</ele>
        <time>2021-07-31T12:46:35Z</time>
      </trkpt>
      <trkpt lat="42.29416" lon="2.02067">
        <ele>1766.28</ele>
        <time>2021-07-31T12:46:36Z</time>
      </trkpt>
      <trkpt lat="42.29413" lon="2.02091">
        <ele>1764.85</ele>
        <time>2021-07-31T12:46:37Z</time>
      </trkpt>
      <trkpt lat="42.29413" lon="2.02114">
        <ele>1763.52</ele>
        <time>2021-07-31T12:46:38Z</time>
      </trkpt>
      <trkpt lat="42.29416" lon="2.02136">
        <ele>1762.25</ele>
        <time>2021-07-31T12:46:39Z</time>
      </trkpt>
      <trkpt lat="42.2942" lon="2.02158">
        <ele>1761.01</ele>
        <time>2021-07-31T12:46:40Z</time>
      </trkpt>
      <trkpt lat="42.29437" lon="2.0222">
        <ele>1756.87</ele>
        <time>2021-07-31T12:46:43Z</time>
      </trkpt>
      <trkpt lat="42.2948" lon="2.02283">
        <ele>1751.79</ele>
        <time>2021-07-31T12:46:47Z</time>
      </trkpt>
      <trkpt lat="42.29513" lon="2.02295">
        <ele>1749.37</ele>
        <time>2021-07-31T12:46:49Z</time>
      </trkpt>
      <trkpt lat="42.29574" lon="2.02311">
        <ele>1744.5</ele>
        <time>2021-07-31T12:46:53Z</time>
      </trkpt>
      <trkpt lat="42.29587" lon="2.02316">
        <ele>1743.2</ele>
        <time>2021-07-31T12:46:54Z</time>
      </trkpt>
      <trkpt lat="42.29616" lon="2.02359">
        <ele>1738.23</ele>
        <time>2021-07-31T12:46:58Z</time>
      </trkpt>
      <trkpt lat="42.29597" lon="2.02391">
        <ele>1735.86</ele>
        <time>2021-07-31T12:47:00Z</time>
      </trkpt>
      <trkpt lat="42.29541" lon="2.02486">
        <ele>1731.26</ele>
        <time>2021-07-31T12:47:05Z</time>
      </trkpt>
      <trkpt lat="42.29498" lon="2.02565">
        <ele>1727.45</ele>
        <time>2021-07-31T12:47:09Z</time>
      </trkpt>
      <trkpt lat="42.2948" lon="2.0265">
        <ele>1722.25</ele>
        <time>2021-07-31T12:47:13Z</time>
      </trkpt>
      <trkpt lat="42.29479" lon="2.02675">
        <ele>1720.74</ele>
        <time>2021-07-31T12:47:14Z</time>
      </trkpt>
      <trkpt lat="42.29472" lon="2.02738">
        <ele>1715.92</ele>
        <time>2021-07-31T12:47:17Z</time>
      </trkpt>
      <trkpt lat="42.29478" lon="2.02768">
        <ele>1712.56</ele>
        <time>2021-07-31T12:47:19Z</time>
      </trkpt>
      <trkpt lat="42.29497" lon="2.02791">
        <ele>1709.26</ele>
        <time>2021-07-31T12:47:21Z</time>
      </trkpt>
      <trkpt lat="42.29542" lon="2.02875">
        <ele>1702.57</ele>
        <time>2021-07-31T12:47:26Z</time>
      </trkpt>
      <trkpt lat="42.29568" lon="2.02959">
        <ele>1697.96</ele>
        <time>2021-07-31T12:47:30Z</time>
      </trkpt>
      <trkpt lat="42.29616" lon="2.03013">
        <ele>1692.41</ele>
        <time>2021-07-31T12:47:34Z</time>
      </trkpt>
      <trkpt lat="42.29698" lon="2.03037">
        <ele>1688.75</ele>
        <time>2021-07-31T12:47:38Z</time>
      </trkpt>
      <trkpt lat="42.29767" lon="2.03065">
        <ele>1684.05</ele>
        <time>2021-07-31T12:47:42Z</time>
      </trkpt>
      <trkpt lat="42.29814" lon="2.0311">
        <ele>1678.1</ele>
        <time>2021-07-31T12:47:46Z</time>
      </trkpt>
      <trkpt lat="42.29819" lon="2.03136">
        <ele>1675.07</ele>
        <time>2021-07-31T12:47:48Z</time>
      </trkpt>
      <trkpt lat="42.29807" lon="2.03159">
        <ele>1672.06</ele>
        <time>2021-07-31T12:47:50Z</time>
      </trkpt>
      <trkpt lat="42.29782" lon="2.03179">
        <ele>1669.51</ele>
        <time>2021-07-31T12:47:52Z</time>
      </trkpt>
      <trkpt lat="42.29752" lon="2.03199">
        <ele>1667.45</ele>
        <time>2021-07-31T12:47:54Z</time>
      </trkpt>
      <trkpt lat="42.29691" lon="2.03234">
        <ele>1662.7</ele>
        <time>2021-07-31T12:47:59Z</time>
      </trkpt>
      <trkpt lat="42.29691" lon="2.03278">
        <ele>1659.46</ele>
        <time>2021-07-31T12:48:02Z</time>
      </trkpt>
      <trkpt lat="42.29696" lon="2.033">
        <ele>1658.44</ele>
        <time>2021-07-31T12:48:03Z</time>
      </trkpt>
      <trkpt lat="42.29691" lon="2.03366">
        <ele>1652.81</ele>
        <time>2021-07-31T12:48:08Z</time>
      </trkpt>
      <trkpt lat="42.29662" lon="2.0336">
        <ele>1649.52</ele>
        <time>2021-07-31T12:48:11Z</time>
      </trkpt>
      <trkpt lat="42.29643" lon="2.03335">
        <ele>1648.65</ele>
        <time>2021-07-31T12:48:12Z</time>
      </trkpt>
      <trkpt lat="42.29552" lon="2.03258">
        <ele>1644.32</ele>
        <time>2021-07-31T12:48:17Z</time>
      </trkpt>
      <trkpt lat="42.29514" lon="2.03234">
        <ele>1642.27</ele>
        <time>2021-07-31T12:48:19Z</time>
      </trkpt>
      <trkpt lat="42.29472" lon="2.03222">
        <ele>1640.01</ele>
        <time>2021-07-31T12:48:21Z</time>
      </trkpt>
      <trkpt lat="42.29402" lon="2.03179">
        <ele>1634.73</ele>
        <time>2021-07-31T12:48:25Z</time>
      </trkpt>
      <trkpt lat="42.29373" lon="2.03155">
        <ele>1631.71</ele>
        <time>2021-07-31T12:48:27Z</time>
      </trkpt>
      <trkpt lat="42.29325" lon="2.03145">
        <ele>1627.08</ele>
        <time>2021-07-31T12:48:30Z</time>
      </trkpt>
      <trkpt lat="42.29288" lon="2.03157">
        <ele>1624.16</ele>
        <time>2021-07-31T12:48:32Z</time>
      </trkpt>
      <trkpt lat="42.29213" lon="2.0316">
        <ele>1617.84</ele>
        <time>2021-07-31T12:48:36Z</time>
      </trkpt>
      <trkpt lat="42.29195" lon="2.03151">
        <ele>1616.23</ele>
        <time>2021-07-31T12:48:37Z</time>
      </trkpt>
      <trkpt lat="42.29115" lon="2.03145">
        <ele>1610.62</ele>
        <time>2021-07-31T12:48:41Z</time>
      </trkpt>
      <trkpt lat="42.29053" lon="2.03143">
        <ele>1606.41</ele>
        <time>2021-07-31T12:48:44Z</time>
      </trkpt>
      <trkpt lat="42.29019" lon="2.03139">
        <ele>1603.57</ele>
        <time>2021-07-31T12:48:46Z</time>
      </trkpt>
      <trkpt lat="42.28965" lon="2.03167">
        <ele>1597.71</ele>
        <time>2021-07-31T12:48:50Z</time>
      </trkpt>
      <trkpt lat="42.28958" lon="2.03231">
        <ele>1593.59</ele>
        <time>2021-07-31T12:48:53Z</time>
      </trkpt>
      <trkpt lat="42.28965" lon="2.03334">
        <ele>1588.61</ele>
        <time>2021-07-31T12:48:58Z</time>
      </trkpt>
      <trkpt lat="42.28936" lon="2.03395">
        <ele>1586.58</ele>
        <time>2021-07-31T12:49:03Z</time>
      </trkpt>
      <trkpt lat="42.28896" lon="2.03358">
        <ele>1586.14</ele>
        <time>2021-07-31T12:49:06Z</time>
      </trkpt>
      <trkpt lat="42.28852" lon="2.03255">
        <ele>1585.5</ele>
        <time>2021-07-31T12:49:11Z</time>
      </trkpt>
      <trkpt lat="42.28796" lon="2.0323">
        <ele>1583.49</ele>
        <time>2021-07-31T12:49:15Z</time>
      </trkpt>
      <trkpt lat="42.28739" lon="2.03282">
        <ele>1580.67</ele>
        <time>2021-07-31T12:49:20Z</time>
      </trkpt>
      <trkpt lat="42.28737" lon="2.03309">
        <ele>1580.06</ele>
        <time>2021-07-31T12:49:21Z</time>
      </trkpt>
      <trkpt lat="42.28714" lon="2.03419">
        <ele>1576.51</ele>
        <time>2021-07-31T12:49:26Z</time>
      </trkpt>
      <trkpt lat="42.28679" lon="2.03479">
        <ele>1572.23</ele>
        <time>2021-07-31T12:49:30Z</time>
      </trkpt>
      <trkpt lat="42.28638" lon="2.03479">
        <ele>1569.16</ele>
        <time>2021-07-31T12:49:33Z</time>
      </trkpt>
      <trkpt lat="42.28614" lon="2.0345">
        <ele>1567</ele>
        <time>2021-07-31T12:49:35Z</time>
      </trkpt>
      <trkpt lat="42.28573" lon="2.03388">
        <ele>1562.91</ele>
        <time>2021-07-31T12:49:39Z</time>
      </trkpt>
      <trkpt lat="42.28544" lon="2.03339">
        <ele>1559.44</ele>
        <time>2021-07-31T12:49:42Z</time>
      </trkpt>
      <trkpt lat="42.28535" lon="2.03324">
        <ele>1558.23</ele>
        <time>2021-07-31T12:49:43Z</time>
      </trkpt>
      <trkpt lat="42.28489" lon="2.03305">
        <ele>1553.3</ele>
        <time>2021-07-31T12:49:47Z</time>
      </trkpt>
      <trkpt lat="42.28475" lon="2.0331">
        <ele>1552.02</ele>
        <time>2021-07-31T12:49:48Z</time>
      </trkpt>
      <trkpt lat="42.28425" lon="2.03327">
        <ele>1547.93</ele>
        <time>2021-07-31T12:49:51Z</time>
      </trkpt>
      <trkpt lat="42.2838" lon="2.03332">
        <ele>1544.26</ele>
        <time>2021-07-31T12:49:54Z</time>
      </trkpt>
      <trkpt lat="42.28339" lon="2.03367">
        <ele>1539.04</ele>
        <time>2021-07-31T12:49:58Z</time>
      </trkpt>
      <trkpt lat="42.28329" lon="2.03386">
        <ele>1537.73</ele>
        <time>2021-07-31T12:49:59Z</time>
      </trkpt>
      <trkpt lat="42.28294" lon="2.03458">
        <ele>1532.84</ele>
        <time>2021-07-31T12:50:03Z</time>
      </trkpt>
      <trkpt lat="42.2828" lon="2.03483">
        <ele>1530.4</ele>
        <time>2021-07-31T12:50:05Z</time>
      </trkpt>
      <trkpt lat="42.28249" lon="2.03471">
        <ele>1524.77</ele>
        <time>2021-07-31T12:50:09Z</time>
      </trkpt>
      <trkpt lat="42.28247" lon="2.03408">
        <ele>1520.99</ele>
        <time>2021-07-31T12:50:12Z</time>
      </trkpt>
      <trkpt lat="42.28269" lon="2.03355">
        <ele>1517.45</ele>
        <time>2021-07-31T12:50:15Z</time>
      </trkpt>
      <trkpt lat="42.28306" lon="2.03338">
        <ele>1513.98</ele>
        <time>2021-07-31T12:50:18Z</time>
      </trkpt>
      <trkpt lat="42.28326" lon="2.03295">
        <ele>1510.91</ele>
        <time>2021-07-31T12:50:21Z</time>
      </trkpt>
      <trkpt lat="42.28356" lon="2.03236">
        <ele>1506.79</ele>
        <time>2021-07-31T12:50:25Z</time>
      </trkpt>
      <trkpt lat="42.28367" lon="2.03177">
        <ele>1503.7</ele>
        <time>2021-07-31T12:50:28Z</time>
      </trkpt>
      <trkpt lat="42.28374" lon="2.03121">
        <ele>1500.72</ele>
        <time>2021-07-31T12:50:31Z</time>
      </trkpt>
      <trkpt lat="42.28367" lon="2.03056">
        <ele>1496.42</ele>
        <time>2021-07-31T12:50:35Z</time>
      </trkpt>
      <trkpt lat="42.28324" lon="2.03026">
        <ele>1492.59</ele>
        <time>2021-07-31T12:50:39Z</time>
      </trkpt>
      <trkpt lat="42.28279" lon="2.0299">
        <ele>1488.69</ele>
        <time>2021-07-31T12:50:43Z</time>
      </trkpt>
      <trkpt lat="42.28281" lon="2.02938">
        <ele>1485.64</ele>
        <time>2021-07-31T12:50:46Z</time>
      </trkpt>
      <trkpt lat="42.28288" lon="2.02922">
        <ele>1484.49</ele>
        <time>2021-07-31T12:50:47Z</time>
      </trkpt>
      <trkpt lat="42.28304" lon="2.02888">
        <ele>1482.41</ele>
        <time>2021-07-31T12:50:49Z</time>
      </trkpt>
      <trkpt lat="42.28315" lon="2.02806">
        <ele>1478.67</ele>
        <time>2021-07-31T12:50:53Z</time>
      </trkpt>
      <trkpt lat="42.28315" lon="2.02741">
        <ele>1474.96</ele>
        <time>2021-07-31T12:50:56Z</time>
      </trkpt>
      <trkpt lat="42.28284" lon="2.02661">
        <ele>1470.28</ele>
        <time>2021-07-31T12:51:01Z</time>
      </trkpt>
      <trkpt lat="42.28216" lon="2.02642">
        <ele>1466.63</ele>
        <time>2021-07-31T12:51:06Z</time>
      </trkpt>
      <trkpt lat="42.28134" lon="2.02618">
        <ele>1462.65</ele>
        <time>2021-07-31T12:51:12Z</time>
      </trkpt>
      <trkpt lat="42.28105" lon="2.02596">
        <ele>1461.7</ele>
        <time>2021-07-31T12:51:14Z</time>
      </trkpt>
      <trkpt lat="42.28037" lon="2.02596">
        <ele>1457.68</ele>
        <time>2021-07-31T12:51:19Z</time>
      </trkpt>
      <trkpt lat="42.28025" lon="2.02612">
        <ele>1456.76</ele>
        <time>2021-07-31T12:51:20Z</time>
      </trkpt>
      <trkpt lat="42.27989" lon="2.0266">
        <ele>1453.72</ele>
        <time>2021-07-31T12:51:23Z</time>
      </trkpt>
      <trkpt lat="42.27941" lon="2.02686">
        <ele>1450.46</ele>
        <time>2021-07-31T12:51:26Z</time>
      </trkpt>
      <trkpt lat="42.27885" lon="2.02752">
        <ele>1445.9</ele>
        <time>2021-07-31T12:51:30Z</time>
      </trkpt>
      <trkpt lat="42.27855" lon="2.02825">
        <ele>1442.46</ele>
        <time>2021-07-31T12:51:33Z</time>
      </trkpt>
      <trkpt lat="42.27831" lon="2.02895">
        <ele>1438.83</ele>
        <time>2021-07-31T12:51:36Z</time>
      </trkpt>
      <trkpt lat="42.27791" lon="2.02944">
        <ele>1433.68</ele>
        <time>2021-07-31T12:51:40Z</time>
      </trkpt>
      <trkpt lat="42.27766" lon="2.02906">
        <ele>1429.61</ele>
        <time>2021-07-31T12:51:43Z</time>
      </trkpt>
      <trkpt lat="42.27765" lon="2.02863">
        <ele>1427.44</ele>
        <time>2021-07-31T12:51:45Z</time>
      </trkpt>
      <trkpt lat="42.27768" lon="2.02741">
        <ele>1423.31</ele>
        <time>2021-07-31T12:51:50Z</time>
      </trkpt>
      <trkpt lat="42.27803" lon="2.02624">
        <ele>1420.17</ele>
        <time>2021-07-31T12:51:55Z</time>
      </trkpt>
      <trkpt lat="42.27851" lon="2.02545">
        <ele>1418.29</ele>
        <time>2021-07-31T12:51:59Z</time>
      </trkpt>
      <trkpt lat="42.27907" lon="2.02502">
        <ele>1416.4</ele>
        <time>2021-07-31T12:52:03Z</time>
      </trkpt>
      <trkpt lat="42.27935" lon="2.02441">
        <ele>1413.84</ele>
        <time>2021-07-31T12:52:09Z</time>
      </trkpt>
      <trkpt lat="42.27939" lon="2.02338">
        <ele>1411.17</ele>
        <time>2021-07-31T12:52:15Z</time>
      </trkpt>
      <trkpt lat="42.27947" lon="2.02249">
        <ele>1408.39</ele>
        <time>2021-07-31T12:52:20Z</time>
      </trkpt>
      <trkpt lat="42.27952" lon="2.02208">
        <ele>1406.96</ele>
        <time>2021-07-31T12:52:22Z</time>
      </trkpt>
      <trkpt lat="42.27981" lon="2.02099">
        <ele>1402.44</ele>
        <time>2021-07-31T12:52:27Z</time>
      </trkpt>
      <trkpt lat="42.27988" lon="2.0208">
        <ele>1401.35</ele>
        <time>2021-07-31T12:52:28Z</time>
      </trkpt>
      <trkpt lat="42.28023" lon="2.02025">
        <ele>1396.75</ele>
        <time>2021-07-31T12:52:32Z</time>
      </trkpt>
      <trkpt lat="42.28035" lon="2.01982">
        <ele>1392.09</ele>
        <time>2021-07-31T12:52:35Z</time>
      </trkpt>
      <trkpt lat="42.28037" lon="2.01966">
        <ele>1391</ele>
        <time>2021-07-31T12:52:36Z</time>
      </trkpt>
      <trkpt lat="42.28035" lon="2.0186">
        <ele>1385.2</ele>
        <time>2021-07-31T12:52:42Z</time>
      </trkpt>
      <trkpt lat="42.28049" lon="2.01827">
        <ele>1383.16</ele>
        <time>2021-07-31T12:52:44Z</time>
      </trkpt>
      <trkpt lat="42.28068" lon="2.01793">
        <ele>1381.32</ele>
        <time>2021-07-31T12:52:46Z</time>
      </trkpt>
      <trkpt lat="42.28083" lon="2.01719">
        <ele>1377.35</ele>
        <time>2021-07-31T12:52:50Z</time>
      </trkpt>
      <trkpt lat="42.28069" lon="2.01667">
        <ele>1374.15</ele>
        <time>2021-07-31T12:52:53Z</time>
      </trkpt>
      <trkpt lat="42.28039" lon="2.01639">
        <ele>1370.71</ele>
        <time>2021-07-31T12:52:56Z</time>
      </trkpt>
      <trkpt lat="42.28031" lon="2.01602">
        <ele>1366.78</ele>
        <time>2021-07-31T12:52:59Z</time>
      </trkpt>
      <trkpt lat="42.28047" lon="2.0157">
        <ele>1363.13</ele>
        <time>2021-07-31T12:53:02Z</time>
      </trkpt>
      <trkpt lat="42.2806" lon="2.01558">
        <ele>1360.97</ele>
        <time>2021-07-31T12:53:04Z</time>
      </trkpt>
      <trkpt lat="42.28083" lon="2.01519">
        <ele>1355.62</ele>
        <time>2021-07-31T12:53:10Z</time>
      </trkpt>
      <trkpt lat="42.28067" lon="2.01495">
        <ele>1353.97</ele>
        <time>2021-07-31T12:53:13Z</time>
      </trkpt>
      <trkpt lat="42.28028" lon="2.01429">
        <ele>1351.22</ele>
        <time>2021-07-31T12:53:18Z</time>
      </trkpt>
      <trkpt lat="42.2802" lon="2.01398">
        <ele>1349.95</ele>
        <time>2021-07-31T12:53:20Z</time>
      </trkpt>
      <trkpt lat="42.27979" lon="2.01377">
        <ele>1346.22</ele>
        <time>2021-07-31T12:53:25Z</time>
      </trkpt>
      <trkpt lat="42.27973" lon="2.01435">
        <ele>1343.62</ele>
        <time>2021-07-31T12:53:29Z</time>
      </trkpt>
      <trkpt lat="42.2798" lon="2.01546">
        <ele>1339.96</ele>
        <time>2021-07-31T12:53:34Z</time>
      </trkpt>
      <trkpt lat="42.27982" lon="2.01568">
        <ele>1339.16</ele>
        <time>2021-07-31T12:53:35Z</time>
      </trkpt>
      <trkpt lat="42.2797" lon="2.01629">
        <ele>1336.31</ele>
        <time>2021-07-31T12:53:38Z</time>
      </trkpt>
      <trkpt lat="42.27964" lon="2.01716">
        <ele>1331.32</ele>
        <time>2021-07-31T12:53:43Z</time>
      </trkpt>
      <trkpt lat="42.2794" lon="2.01754">
        <ele>1327.9</ele>
        <time>2021-07-31T12:53:46Z</time>
      </trkpt>
      <trkpt lat="42.27934" lon="2.01823">
        <ele>1324</ele>
        <time>2021-07-31T12:53:50Z</time>
      </trkpt>
      <trkpt lat="42.27915" lon="2.01931">
        <ele>1318.79</ele>
        <time>2021-07-31T12:53:56Z</time>
      </trkpt>
      <trkpt lat="42.2789" lon="2.01954">
        <ele>1316.67</ele>
        <time>2021-07-31T12:53:58Z</time>
      </trkpt>
      <trkpt lat="42.27866" lon="2.01977">
        <ele>1314.75</ele>
        <time>2021-07-31T12:54:00Z</time>
      </trkpt>
      <trkpt lat="42.27819" lon="2.02066">
        <ele>1310.3</ele>
        <time>2021-07-31T12:54:05Z</time>
      </trkpt>
      <trkpt lat="42.27787" lon="2.02147">
        <ele>1306.93</ele>
        <time>2021-07-31T12:54:09Z</time>
      </trkpt>
      <trkpt lat="42.27763" lon="2.02239">
        <ele>1302.6</ele>
        <time>2021-07-31T12:54:14Z</time>
      </trkpt>
      <trkpt lat="42.27745" lon="2.0226">
        <ele>1299.28</ele>
        <time>2021-07-31T12:54:17Z</time>
      </trkpt>
      <trkpt lat="42.27744" lon="2.02209">
        <ele>1296.77</ele>
        <time>2021-07-31T12:54:21Z</time>
      </trkpt>
      <trkpt lat="42.27751" lon="2.02192">
        <ele>1296.32</ele>
        <time>2021-07-31T12:54:22Z</time>
      </trkpt>
      <trkpt lat="42.27775" lon="2.02134">
        <ele>1294.92</ele>
        <time>2021-07-31T12:54:25Z</time>
      </trkpt>
      <trkpt lat="42.27813" lon="2.01992">
        <ele>1292.23</ele>
        <time>2021-07-31T12:54:31Z</time>
      </trkpt>
      <trkpt lat="42.27821" lon="2.0195">
        <ele>1290.85</ele>
        <time>2021-07-31T12:54:33Z</time>
      </trkpt>
      <trkpt lat="42.27854" lon="2.01893">
        <ele>1286.88</ele>
        <time>2021-07-31T12:54:37Z</time>
      </trkpt>
      <trkpt lat="42.27866" lon="2.01803">
        <ele>1282.18</ele>
        <time>2021-07-31T12:54:42Z</time>
      </trkpt>
      <trkpt lat="42.27868" lon="2.0171">
        <ele>1277.08</ele>
        <time>2021-07-31T12:54:47Z</time>
      </trkpt>
      <trkpt lat="42.27882" lon="2.0164">
        <ele>1273.76</ele>
        <time>2021-07-31T12:54:51Z</time>
      </trkpt>
      <trkpt lat="42.27876" lon="2.01594">
        <ele>1272.3</ele>
        <time>2021-07-31T12:54:53Z</time>
      </trkpt>
      <trkpt lat="42.27877" lon="2.01515">
        <ele>1270.41</ele>
        <time>2021-07-31T12:54:56Z</time>
      </trkpt>
      <trkpt lat="42.27847" lon="2.01375">
        <ele>1265.93</ele>
        <time>2021-07-31T12:55:02Z</time>
      </trkpt>
      <trkpt lat="42.27854" lon="2.01296">
        <ele>1261.31</ele>
        <time>2021-07-31T12:55:06Z</time>
      </trkpt>
      <trkpt lat="42.27855" lon="2.01275">
        <ele>1260.19</ele>
        <time>2021-07-31T12:55:07Z</time>
      </trkpt>
      <trkpt lat="42.27856" lon="2.01208">
        <ele>1257.16</ele>
        <time>2021-07-31T12:55:10Z</time>
      </trkpt>
      <trkpt lat="42.27847" lon="2.0112">
        <ele>1253.51</ele>
        <time>2021-07-31T12:55:14Z</time>
      </trkpt>
      <trkpt lat="42.27847" lon="2.01058">
        <ele>1250.9</ele>
        <time>2021-07-31T12:55:17Z</time>
      </trkpt>
      <trkpt lat="42.27838" lon="2.00978">
        <ele>1247.48</ele>
        <time>2021-07-31T12:55:21Z</time>
      </trkpt>
      <trkpt lat="42.27806" lon="2.00884">
        <ele>1243.03</ele>
        <time>2021-07-31T12:55:27Z</time>
      </trkpt>
      <trkpt lat="42.27799" lon="2.00794">
        <ele>1239.67</ele>
        <time>2021-07-31T12:55:32Z</time>
      </trkpt>
      <trkpt lat="42.27781" lon="2.00687">
        <ele>1235.23</ele>
        <time>2021-07-31T12:55:38Z</time>
      </trkpt>
      <trkpt lat="42.27776" lon="2.00671">
        <ele>1234.27</ele>
        <time>2021-07-31T12:55:39Z</time>
      </trkpt>
      <trkpt lat="42.27768" lon="2.00656">
        <ele>1233.33</ele>
        <time>2021-07-31T12:55:40Z</time>
      </trkpt>
      <trkpt lat="42.27755" lon="2.00645">
        <ele>1232.44</ele>
        <time>2021-07-31T12:55:41Z</time>
      </trkpt>
      <trkpt lat="42.27743" lon="2.00633">
        <ele>1231.56</ele>
        <time>2021-07-31T12:55:42Z</time>
      </trkpt>
      <trkpt lat="42.27703" lon="2.00536">
        <ele>1226.96</ele>
        <time>2021-07-31T12:55:47Z</time>
      </trkpt>
      <trkpt lat="42.27698" lon="2.00456">
        <ele>1223.04</ele>
        <time>2021-07-31T12:55:51Z</time>
      </trkpt>
      <trkpt lat="42.27677" lon="2.00401">
        <ele>1217.7</ele>
        <time>2021-07-31T12:55:55Z</time>
      </trkpt>
      <trkpt lat="42.27693" lon="2.00369">
        <ele>1214.17</ele>
        <time>2021-07-31T12:55:58Z</time>
      </trkpt>
      <trkpt lat="42.27719" lon="2.0038">
        <ele>1211.1</ele>
        <time>2021-07-31T12:56:01Z</time>
      </trkpt>
      <trkpt lat="42.27758" lon="2.00439">
        <ele>1208.54</ele>
        <time>2021-07-31T12:56:04Z</time>
      </trkpt>
      <trkpt lat="42.2778" lon="2.00473">
        <ele>1206.87</ele>
        <time>2021-07-31T12:56:06Z</time>
      </trkpt>
      <trkpt lat="42.27809" lon="2.00495">
        <ele>1204.41</ele>
        <time>2021-07-31T12:56:09Z</time>
      </trkpt>
      <trkpt lat="42.27832" lon="2.00486">
        <ele>1202.75</ele>
        <time>2021-07-31T12:56:11Z</time>
      </trkpt>
      <trkpt lat="42.27875" lon="2.00459">
        <ele>1199.92</ele>
        <time>2021-07-31T12:56:15Z</time>
      </trkpt>
      <trkpt lat="42.27901" lon="2.00389">
        <ele>1196.08</ele>
        <time>2021-07-31T12:56:21Z</time>
      </trkpt>
      <trkpt lat="42.27913" lon="2.00367">
        <ele>1194.94</ele>
        <time>2021-07-31T12:56:23Z</time>
      </trkpt>
      <trkpt lat="42.27908" lon="2.00286">
        <ele>1191.52</ele>
        <time>2021-07-31T12:56:29Z</time>
      </trkpt>
      <trkpt lat="42.27888" lon="2.00203">
        <ele>1186.65</ele>
        <time>2021-07-31T12:56:36Z</time>
      </trkpt>
      <trkpt lat="42.27841" lon="2.00204">
        <ele>1184.5</ele>
        <time>2021-07-31T12:56:39Z</time>
      </trkpt>
      <trkpt lat="42.27821" lon="2.00182">
        <ele>1182.72</ele>
        <time>2021-07-31T12:56:41Z</time>
      </trkpt>
      <trkpt lat="42.27764" lon="2.00171">
        <ele>1178.76</ele>
        <time>2021-07-31T12:56:46Z</time>
      </trkpt>
      <trkpt lat="42.27735" lon="2.00175">
        <ele>1177.26</ele>
        <time>2021-07-31T12:56:48Z</time>
      </trkpt>
      <trkpt lat="42.27679" lon="2.00147">
        <ele>1173.99</ele>
        <time>2021-07-31T12:56:52Z</time>
      </trkpt>
      <trkpt lat="42.27643" lon="2.00113">
        <ele>1171.67</ele>
        <time>2021-07-31T12:56:55Z</time>
      </trkpt>
      <trkpt lat="42.27604" lon="2.00026">
        <ele>1167.23</ele>
        <time>2021-07-31T12:57:00Z</time>
      </trkpt>
      <trkpt lat="42.27607" lon="1.99979">
        <ele>1165.38</ele>
        <time>2021-07-31T12:57:02Z</time>
      </trkpt>
      <trkpt lat="42.27605" lon="1.99917">
        <ele>1162.86</ele>
        <time>2021-07-31T12:57:05Z</time>
      </trkpt>
      <trkpt lat="42.2763" lon="1.99826">
        <ele>1158.88</ele>
        <time>2021-07-31T12:57:10Z</time>
      </trkpt>
      <trkpt lat="42.27634" lon="1.99809">
        <ele>1157.98</ele>
        <time>2021-07-31T12:57:11Z</time>
      </trkpt>
      <trkpt lat="42.27635" lon="1.99777">
        <ele>1156.05</ele>
        <time>2021-07-31T12:57:13Z</time>
      </trkpt>
      <trkpt lat="42.27572" lon="1.99763">
        <ele>1151.56</ele>
        <time>2021-07-31T12:57:18Z</time>
      </trkpt>
      <trkpt lat="42.27546" lon="1.99759">
        <ele>1149.8</ele>
        <time>2021-07-31T12:57:20Z</time>
      </trkpt>
      <trkpt lat="42.27498" lon="1.99736">
        <ele>1144.82</ele>
        <time>2021-07-31T12:57:25Z</time>
      </trkpt>
      <trkpt lat="42.27492" lon="1.99727">
        <ele>1143.8</ele>
        <time>2021-07-31T12:57:26Z</time>
      </trkpt>
      <trkpt lat="42.27502" lon="1.99619">
        <ele>1139.65</ele>
        <time>2021-07-31T12:57:31Z</time>
      </trkpt>
      <trkpt lat="42.27502" lon="1.99597">
        <ele>1138.82</ele>
        <time>2021-07-31T12:57:32Z</time>
      </trkpt>
      <trkpt lat="42.27516" lon="1.99514">
        <ele>1134.1</ele>
        <time>2021-07-31T12:57:36Z</time>
      </trkpt>
      <trkpt lat="42.27517" lon="1.99493">
        <ele>1133.14</ele>
        <time>2021-07-31T12:57:37Z</time>
      </trkpt>
      <trkpt lat="42.27505" lon="1.99422">
        <ele>1129.18</ele>
        <time>2021-07-31T12:57:41Z</time>
      </trkpt>
      <trkpt lat="42.27503" lon="1.99404">
        <ele>1128.16</ele>
        <time>2021-07-31T12:57:42Z</time>
      </trkpt>
      <trkpt lat="42.2751" lon="1.99329">
        <ele>1124.18</ele>
        <time>2021-07-31T12:57:46Z</time>
      </trkpt>
      <trkpt lat="42.27522" lon="1.99271">
        <ele>1121.13</ele>
        <time>2021-07-31T12:57:49Z</time>
      </trkpt>
      <trkpt lat="42.27522" lon="1.9925">
        <ele>1120.21</ele>
        <time>2021-07-31T12:57:50Z</time>
      </trkpt>
      <trkpt lat="42.27514" lon="1.99132">
        <ele>1115.8</ele>
        <time>2021-07-31T12:57:55Z</time>
      </trkpt>
      <trkpt lat="42.27506" lon="1.99032">
        <ele>1112.09</ele>
        <time>2021-07-31T12:57:59Z</time>
      </trkpt>
      <trkpt lat="42.27506" lon="1.99008">
        <ele>1111.06</ele>
        <time>2021-07-31T12:58:00Z</time>
      </trkpt>
      <trkpt lat="42.27519" lon="1.98932">
        <ele>1106.51</ele>
        <time>2021-07-31T12:58:04Z</time>
      </trkpt>
      <trkpt lat="42.27526" lon="1.98918">
        <ele>1105.24</ele>
        <time>2021-07-31T12:58:05Z</time>
      </trkpt>
      <trkpt lat="42.2754" lon="1.98863">
        <ele>1099.81</ele>
        <time>2021-07-31T12:58:10Z</time>
      </trkpt>
      <trkpt lat="42.27522" lon="1.98856">
        <ele>1096.61</ele>
        <time>2021-07-31T12:58:14Z</time>
      </trkpt>
      <trkpt lat="42.27503" lon="1.98898">
        <ele>1094.97</ele>
        <time>2021-07-31T12:58:17Z</time>
      </trkpt>
      <trkpt lat="42.27463" lon="1.99055">
        <ele>1091.27</ele>
        <time>2021-07-31T12:58:24Z</time>
      </trkpt>
      <trkpt lat="42.2745" lon="1.99182">
        <ele>1087.39</ele>
        <time>2021-07-31T12:58:29Z</time>
      </trkpt>
      <trkpt lat="42.27448" lon="1.99227">
        <ele>1085.44</ele>
        <time>2021-07-31T12:58:31Z</time>
      </trkpt>
      <trkpt lat="42.27432" lon="1.9928">
        <ele>1080.36</ele>
        <time>2021-07-31T12:58:35Z</time>
      </trkpt>
      <trkpt lat="42.27426" lon="1.99286">
        <ele>1077.68</ele>
        <time>2021-07-31T12:58:37Z</time>
      </trkpt>
      <trkpt lat="42.27415" lon="1.9923">
        <ele>1073.34</ele>
        <time>2021-07-31T12:58:41Z</time>
      </trkpt>
      <trkpt lat="42.27405" lon="1.99175">
        <ele>1071.16</ele>
        <time>2021-07-31T12:58:44Z</time>
      </trkpt>
      <trkpt lat="42.27391" lon="1.99052">
        <ele>1066.96</ele>
        <time>2021-07-31T12:58:50Z</time>
      </trkpt>
      <trkpt lat="42.27384" lon="1.99013">
        <ele>1065.43</ele>
        <time>2021-07-31T12:58:52Z</time>
      </trkpt>
      <trkpt lat="42.27391" lon="1.98901">
        <ele>1061.19</ele>
        <time>2021-07-31T12:58:57Z</time>
      </trkpt>
      <trkpt lat="42.27389" lon="1.98844">
        <ele>1059.03</ele>
        <time>2021-07-31T12:59:00Z</time>
      </trkpt>
      <trkpt lat="42.27373" lon="1.98796">
        <ele>1054.76</ele>
        <time>2021-07-31T12:59:05Z</time>
      </trkpt>
      <trkpt lat="42.27351" lon="1.98815">
        <ele>1051.63</ele>
        <time>2021-07-31T12:59:11Z</time>
      </trkpt>
      <trkpt lat="42.27351" lon="1.98825">
        <ele>1051.45</ele>
        <time>2021-07-31T12:59:12Z</time>
      </trkpt>
      <trkpt lat="42.27349" lon="1.9886">
        <ele>1051.5</ele>
        <time>2021-07-31T12:59:15Z</time>
      </trkpt>
      <trkpt lat="42.27328" lon="1.98909">
        <ele>1052.16</ele>
        <time>2021-07-31T12:59:19Z</time>
      </trkpt>
      <trkpt lat="42.27269" lon="1.98906">
        <ele>1053.41</ele>
        <time>2021-07-31T12:59:23Z</time>
      </trkpt>
      <trkpt lat="42.27176" lon="1.98827">
        <ele>1056.62</ele>
        <time>2021-07-31T12:59:29Z</time>
      </trkpt>
      <trkpt lat="42.27117" lon="1.9877">
        <ele>1060.27</ele>
        <time>2021-07-31T12:59:33Z</time>
      </trkpt>
      <trkpt lat="42.2704" lon="1.98759">
        <ele>1063.45</ele>
        <time>2021-07-31T12:59:38Z</time>
      </trkpt>
      <trkpt lat="42.27009" lon="1.98775">
        <ele>1064.55</ele>
        <time>2021-07-31T12:59:40Z</time>
      </trkpt>
      <trkpt lat="42.2692" lon="1.98774">
        <ele>1068</ele>
        <time>2021-07-31T12:59:46Z</time>
      </trkpt>
      <trkpt lat="42.26874" lon="1.98696">
        <ele>1067.29</ele>
        <time>2021-07-31T12:59:52Z</time>
      </trkpt>
      <trkpt lat="42.26833" lon="1.98692">
        <ele>1063.87</ele>
        <time>2021-07-31T12:59:58Z</time>
      </trkpt>
      <trkpt lat="42.26809" lon="1.98723">
        <ele>1062.8</ele>
        <time>2021-07-31T13:00:01Z</time>
      </trkpt>
      <trkpt lat="42.26777" lon="1.98698">
        <ele>1062.54</ele>
        <time>2021-07-31T13:00:06Z</time>
      </trkpt>
      <trkpt lat="42.26731" lon="1.98682">
        <ele>1063.07</ele>
        <time>2021-07-31T13:00:12Z</time>
      </trkpt>
      <trkpt lat="42.26708" lon="1.98704">
        <ele>1063.02</ele>
        <time>2021-07-31T13:00:14Z</time>
      </trkpt>
      <trkpt lat="42.26672" lon="1.98738">
        <ele>1062.81</ele>
        <time>2021-07-31T13:00:17Z</time>
      </trkpt>
      <trkpt lat="42.26621" lon="1.98761">
        <ele>1062.16</ele>
        <time>2021-07-31T13:00:21Z</time>
      </trkpt>
      <trkpt lat="42.26512" lon="1.98816">
        <ele>1058.65</ele>
        <time>2021-07-31T13:00:29Z</time>
      </trkpt>
      <trkpt lat="42.26486" lon="1.98821">
        <ele>1056.68</ele>
        <time>2021-07-31T13:00:31Z</time>
      </trkpt>
      <trkpt lat="42.26451" lon="1.98778">
        <ele>1051.83</ele>
        <time>2021-07-31T13:00:36Z</time>
      </trkpt>
      <trkpt lat="42.26447" lon="1.98763">
        <ele>1050.98</ele>
        <time>2021-07-31T13:00:37Z</time>
      </trkpt>
      <trkpt lat="42.26408" lon="1.98626">
        <ele>1046.94</ele>
        <time>2021-07-31T13:00:44Z</time>
      </trkpt>
      <trkpt lat="42.26381" lon="1.98564">
        <ele>1043.5</ele>
        <time>2021-07-31T13:00:48Z</time>
      </trkpt>
      <trkpt lat="42.26368" lon="1.9849">
        <ele>1037.7</ele>
        <time>2021-07-31T13:00:52Z</time>
      </trkpt>
      <trkpt lat="42.2633" lon="1.98456">
        <ele>1033.09</ele>
        <time>2021-07-31T13:00:55Z</time>
      </trkpt>
      <trkpt lat="42.26319" lon="1.9844">
        <ele>1029.65</ele>
        <time>2021-07-31T13:00:56Z</time>
      </trkpt>
      <trkpt lat="42.26302" lon="1.98404">
        <ele>1026.21</ele>
        <time>2021-07-31T13:00:58Z</time>
      </trkpt>
      <trkpt lat="42.26295" lon="1.98369">
        <ele>1022.89</ele>
        <time>2021-07-31T13:01:00Z</time>
      </trkpt>
      <trkpt lat="42.26285" lon="1.98346">
        <ele>1019.63</ele>
        <time>2021-07-31T13:01:02Z</time>
      </trkpt>
      <trkpt lat="42.26271" lon="1.98347">
        <ele>1016.35</ele>
        <time>2021-07-31T13:01:04Z</time>
      </trkpt>
      <trkpt lat="42.26259" lon="1.9836">
        <ele>1012.12</ele>
        <time>2021-07-31T13:01:07Z</time>
      </trkpt>
      <trkpt lat="42.26269" lon="1.98401">
        <ele>1008.85</ele>
        <time>2021-07-31T13:01:10Z</time>
      </trkpt>
      <trkpt lat="42.26273" lon="1.985">
        <ele>1004.25</ele>
        <time>2021-07-31T13:01:15Z</time>
      </trkpt>
      <trkpt lat="42.26283" lon="1.98558">
        <ele>1001.35</ele>
        <time>2021-07-31T13:01:18Z</time>
      </trkpt>
      <trkpt lat="42.26277" lon="1.98639">
        <ele>997.18</ele>
        <time>2021-07-31T13:01:22Z</time>
      </trkpt>
      <trkpt lat="42.26269" lon="1.9869">
        <ele>992.55</ele>
        <time>2021-07-31T13:01:26Z</time>
      </trkpt>
      <trkpt lat="42.26259" lon="1.98699">
        <ele>990.12</ele>
        <time>2021-07-31T13:01:28Z</time>
      </trkpt>
      <trkpt lat="42.26257" lon="1.98698">
        <ele>987.94</ele>
        <time>2021-07-31T13:01:30Z</time>
      </trkpt>
      <trkpt lat="42.2625" lon="1.9862">
        <ele>984.12</ele>
        <time>2021-07-31T13:01:34Z</time>
      </trkpt>
      <trkpt lat="42.26217" lon="1.98498">
        <ele>979.67</ele>
        <time>2021-07-31T13:01:39Z</time>
      </trkpt>
      <trkpt lat="42.26192" lon="1.98431">
        <ele>975.98</ele>
        <time>2021-07-31T13:01:42Z</time>
      </trkpt>
      <trkpt lat="42.26178" lon="1.9839">
        <ele>973.08</ele>
        <time>2021-07-31T13:01:44Z</time>
      </trkpt>
      <trkpt lat="42.26154" lon="1.98362">
        <ele>968.24</ele>
        <time>2021-07-31T13:01:47Z</time>
      </trkpt>
      <trkpt lat="42.26148" lon="1.98346">
        <ele>962.8</ele>
        <time>2021-07-31T13:01:50Z</time>
      </trkpt>
      <trkpt lat="42.26152" lon="1.98338">
        <ele>959.52</ele>
        <time>2021-07-31T13:01:52Z</time>
      </trkpt>
      <trkpt lat="42.26158" lon="1.98319">
        <ele>956.11</ele>
        <time>2021-07-31T13:01:55Z</time>
      </trkpt>
      <trkpt lat="42.26174" lon="1.98239">
        <ele>953.49</ele>
        <time>2021-07-31T13:02:06Z</time>
      </trkpt>
      <trkpt lat="42.26176" lon="1.9823">
        <ele>953.62</ele>
        <time>2021-07-31T13:02:07Z</time>
      </trkpt>
      <trkpt lat="42.26176" lon="1.98212">
        <ele>953.97</ele>
        <time>2021-07-31T13:02:09Z</time>
      </trkpt>
      <trkpt lat="42.26168" lon="1.98117">
        <ele>955.91</ele>
        <time>2021-07-31T13:02:20Z</time>
      </trkpt>
      <trkpt lat="42.26165" lon="1.9806">
        <ele>956.16</ele>
        <time>2021-07-31T13:02:30Z</time>
      </trkpt>
      <trkpt lat="42.26152" lon="1.98006">
        <ele>955.33</ele>
        <time>2021-07-31T13:02:44Z</time>
      </trkpt>
      <trkpt lat="42.26147" lon="1.97996">
        <ele>955.28</ele>
        <time>2021-07-31T13:02:45Z</time>
      </trkpt>
      <trkpt lat="42.26108" lon="1.97957">
        <ele>954.55</ele>
        <time>2021-07-31T13:02:49Z</time>
      </trkpt>
      <trkpt lat="42.26045" lon="1.97913">
        <ele>950.56</ele>
        <time>2021-07-31T13:02:55Z</time>
      </trkpt>
      <trkpt lat="42.26038" lon="1.97905">
        <ele>949.5</ele>
        <time>2021-07-31T13:02:56Z</time>
      </trkpt>
      <trkpt lat="42.26027" lon="1.97885">
        <ele>945.02</ele>
        <time>2021-07-31T13:03:00Z</time>
      </trkpt>
      <trkpt lat="42.26027" lon="1.9788">
        <ele>941.47</ele>
        <time>2021-07-31T13:03:04Z</time>
      </trkpt>
      <trkpt lat="42.26026" lon="1.97875">
        <ele>938.37</ele>
        <time>2021-07-31T13:03:13Z</time>
      </trkpt>
      <trkpt lat="42.26023" lon="1.97867">
        <ele>937.61</ele>
        <time>2021-07-31T13:04:11Z</time>
      </trkpt>
      <trkpt lat="42.26005" lon="1.97771">
        <ele>938.49</ele>
        <time>2021-07-31T13:04:23Z</time>
      </trkpt>
      <trkpt lat="42.25999" lon="1.97732">
        <ele>941.31</ele>
        <time>2021-07-31T13:04:34Z</time>
      </trkpt>
      <trkpt lat="42.25995" lon="1.97705">
        <ele>942.53</ele>
        <time>2021-07-31T13:04:41Z</time>
      </trkpt>
      <trkpt lat="42.25982" lon="1.97619">
        <ele>945.32</ele>
        <time>2021-07-31T13:04:49Z</time>
      </trkpt>
      <trkpt lat="42.25982" lon="1.97545">
        <ele>948.46</ele>
        <time>2021-07-31T13:04:54Z</time>
      </trkpt>
      <trkpt lat="42.25983" lon="1.97528">
        <ele>949.23</ele>
        <time>2021-07-31T13:04:55Z</time>
      </trkpt>
      <trkpt lat="42.25998" lon="1.97464">
        <ele>953.23</ele>
        <time>2021-07-31T13:04:59Z</time>
      </trkpt>
      <trkpt lat="42.26005" lon="1.97451">
        <ele>954.26</ele>
        <time>2021-07-31T13:05:00Z</time>
      </trkpt>
      <trkpt lat="42.26036" lon="1.97389">
        <ele>958.99</ele>
        <time>2021-07-31T13:05:05Z</time>
      </trkpt>
      <trkpt lat="42.26057" lon="1.97316">
        <ele>963.36</ele>
        <time>2021-07-31T13:05:10Z</time>
      </trkpt>
      <trkpt lat="42.26063" lon="1.97276">
        <ele>966.41</ele>
        <time>2021-07-31T13:05:13Z</time>
      </trkpt>
      <trkpt lat="42.26064" lon="1.97264">
        <ele>967.29</ele>
        <time>2021-07-31T13:05:14Z</time>
      </trkpt>
      <trkpt lat="42.26081" lon="1.97236">
        <ele>971.36</ele>
        <time>2021-07-31T13:05:20Z</time>
      </trkpt>
      <trkpt lat="42.2609" lon="1.97221">
        <ele>973.9</ele>
        <time>2021-07-31T13:05:26Z</time>
      </trkpt>
      <trkpt lat="42.26094" lon="1.97173">
        <ele>977.46</ele>
        <time>2021-07-31T13:05:34Z</time>
      </trkpt>
      <trkpt lat="42.26096" lon="1.97158">
        <ele>978.4</ele>
        <time>2021-07-31T13:05:36Z</time>
      </trkpt>
      <trkpt lat="42.26105" lon="1.97112">
        <ele>981.31</ele>
        <time>2021-07-31T13:05:41Z</time>
      </trkpt>
      <trkpt lat="42.26106" lon="1.9706">
        <ele>985.06</ele>
        <time>2021-07-31T13:05:46Z</time>
      </trkpt>
      <trkpt lat="42.26107" lon="1.97033">
        <ele>987.54</ele>
        <time>2021-07-31T13:05:49Z</time>
      </trkpt>
      <trkpt lat="42.26124" lon="1.97015">
        <ele>992.03</ele>
        <time>2021-07-31T13:05:54Z</time>
      </trkpt>
      <trkpt lat="42.26133" lon="1.97022">
        <ele>994.53</ele>
        <time>2021-07-31T13:05:56Z</time>
      </trkpt>
      <trkpt lat="42.26149" lon="1.97034">
        <ele>998.84</ele>
        <time>2021-07-31T13:06:02Z</time>
      </trkpt>
      <trkpt lat="42.26156" lon="1.97029">
        <ele>1000.3</ele>
        <time>2021-07-31T13:06:05Z</time>
      </trkpt>
      <trkpt lat="42.26179" lon="1.96985">
        <ele>1004.18</ele>
        <time>2021-07-31T13:06:12Z</time>
      </trkpt>
      <trkpt lat="42.26207" lon="1.96939">
        <ele>1007.91</ele>
        <time>2021-07-31T13:06:17Z</time>
      </trkpt>
      <trkpt lat="42.26214" lon="1.9693">
        <ele>1008.66</ele>
        <time>2021-07-31T13:06:18Z</time>
      </trkpt>
      <trkpt lat="42.26229" lon="1.96915">
        <ele>1010.34</ele>
        <time>2021-07-31T13:06:20Z</time>
      </trkpt>
      <trkpt lat="42.26271" lon="1.96895">
        <ele>1014.98</ele>
        <time>2021-07-31T13:06:25Z</time>
      </trkpt>
      <trkpt lat="42.26308" lon="1.96889">
        <ele>1018.95</ele>
        <time>2021-07-31T13:06:29Z</time>
      </trkpt>
      <trkpt lat="42.26335" lon="1.96884">
        <ele>1022</ele>
        <time>2021-07-31T13:06:32Z</time>
      </trkpt>
      <trkpt lat="42.26362" lon="1.96874">
        <ele>1025.34</ele>
        <time>2021-07-31T13:06:35Z</time>
      </trkpt>
      <trkpt lat="42.26387" lon="1.96864">
        <ele>1028.55</ele>
        <time>2021-07-31T13:06:38Z</time>
      </trkpt>
      <trkpt lat="42.2641" lon="1.96835">
        <ele>1032.87</ele>
        <time>2021-07-31T13:06:42Z</time>
      </trkpt>
      <trkpt lat="42.2641" lon="1.96802">
        <ele>1036.99</ele>
        <time>2021-07-31T13:06:46Z</time>
      </trkpt>
      <trkpt lat="42.26404" lon="1.96785">
        <ele>1038.73</ele>
        <time>2021-07-31T13:06:48Z</time>
      </trkpt>
      <trkpt lat="42.26402" lon="1.96759">
        <ele>1041.1</ele>
        <time>2021-07-31T13:06:51Z</time>
      </trkpt>
      <trkpt lat="42.26385" lon="1.96742">
        <ele>1045.06</ele>
        <time>2021-07-31T13:06:56Z</time>
      </trkpt>
      <trkpt lat="42.2638" lon="1.96745">
        <ele>1045.81</ele>
        <time>2021-07-31T13:06:57Z</time>
      </trkpt>
      <trkpt lat="42.26364" lon="1.9672">
        <ele>1050.36</ele>
        <time>2021-07-31T13:07:04Z</time>
      </trkpt>
      <trkpt lat="42.26366" lon="1.96714">
        <ele>1051</ele>
        <time>2021-07-31T13:07:05Z</time>
      </trkpt>
      <trkpt lat="42.26379" lon="1.96658">
        <ele>1055.25</ele>
        <time>2021-07-31T13:07:12Z</time>
      </trkpt>
      <trkpt lat="42.26381" lon="1.96648">
        <ele>1055.89</ele>
        <time>2021-07-31T13:07:13Z</time>
      </trkpt>
      <trkpt lat="42.26407" lon="1.96601">
        <ele>1059.61</ele>
        <time>2021-07-31T13:07:18Z</time>
      </trkpt>
      <trkpt lat="42.26428" lon="1.96566">
        <ele>1063.34</ele>
        <time>2021-07-31T13:07:22Z</time>
      </trkpt>
      <trkpt lat="42.26426" lon="1.96531">
        <ele>1066.34</ele>
        <time>2021-07-31T13:07:25Z</time>
      </trkpt>
      <trkpt lat="42.26424" lon="1.96519">
        <ele>1067.35</ele>
        <time>2021-07-31T13:07:26Z</time>
      </trkpt>
      <trkpt lat="42.2642" lon="1.96499">
        <ele>1069.37</ele>
        <time>2021-07-31T13:07:28Z</time>
      </trkpt>
      <trkpt lat="42.26425" lon="1.96447">
        <ele>1074.28</ele>
        <time>2021-07-31T13:07:33Z</time>
      </trkpt>
      <trkpt lat="42.26442" lon="1.96423">
        <ele>1078.49</ele>
        <time>2021-07-31T13:07:36Z</time>
      </trkpt>
      <trkpt lat="42.26453" lon="1.96395">
        <ele>1081.73</ele>
        <time>2021-07-31T13:07:39Z</time>
      </trkpt>
      <trkpt lat="42.26453" lon="1.96383">
        <ele>1082.7</ele>
        <time>2021-07-31T13:07:40Z</time>
      </trkpt>
      <trkpt lat="42.26455" lon="1.9636">
        <ele>1084.77</ele>
        <time>2021-07-31T13:07:42Z</time>
      </trkpt>
      <trkpt lat="42.26467" lon="1.96317">
        <ele>1088.84</ele>
        <time>2021-07-31T13:07:46Z</time>
      </trkpt>
      <trkpt lat="42.26474" lon="1.96298">
        <ele>1090.88</ele>
        <time>2021-07-31T13:07:48Z</time>
      </trkpt>
      <trkpt lat="42.26478" lon="1.96258">
        <ele>1094.89</ele>
        <time>2021-07-31T13:07:52Z</time>
      </trkpt>
      <trkpt lat="42.26481" lon="1.96215">
        <ele>1098.84</ele>
        <time>2021-07-31T13:07:56Z</time>
      </trkpt>
      <trkpt lat="42.26482" lon="1.96205">
        <ele>1099.83</ele>
        <time>2021-07-31T13:07:57Z</time>
      </trkpt>
      <trkpt lat="42.265" lon="1.96174">
        <ele>1103.83</ele>
        <time>2021-07-31T13:08:01Z</time>
      </trkpt>
      <trkpt lat="42.26513" lon="1.96169">
        <ele>1105.78</ele>
        <time>2021-07-31T13:08:03Z</time>
      </trkpt>
      <trkpt lat="42.26538" lon="1.96136">
        <ele>1111.13</ele>
        <time>2021-07-31T13:08:08Z</time>
      </trkpt>
      <trkpt lat="42.26538" lon="1.96101">
        <ele>1114.18</ele>
        <time>2021-07-31T13:08:11Z</time>
      </trkpt>
      <trkpt lat="42.26534" lon="1.9608">
        <ele>1116.25</ele>
        <time>2021-07-31T13:08:13Z</time>
      </trkpt>
      <trkpt lat="42.26538" lon="1.96027">
        <ele>1121.78</ele>
        <time>2021-07-31T13:08:18Z</time>
      </trkpt>
      <trkpt lat="42.26543" lon="1.96017">
        <ele>1122.87</ele>
        <time>2021-07-31T13:08:19Z</time>
      </trkpt>
      <trkpt lat="42.2656" lon="1.95974">
        <ele>1127.84</ele>
        <time>2021-07-31T13:08:23Z</time>
      </trkpt>
      <trkpt lat="42.26564" lon="1.95956">
        <ele>1130.27</ele>
        <time>2021-07-31T13:08:25Z</time>
      </trkpt>
      <trkpt lat="42.26577" lon="1.95951">
        <ele>1134.72</ele>
        <time>2021-07-31T13:08:29Z</time>
      </trkpt>
      <trkpt lat="42.26579" lon="1.95965">
        <ele>1136.91</ele>
        <time>2021-07-31T13:08:31Z</time>
      </trkpt>
      <trkpt lat="42.26581" lon="1.96028">
        <ele>1142.32</ele>
        <time>2021-07-31T13:08:37Z</time>
      </trkpt>
      <trkpt lat="42.26579" lon="1.96048">
        <ele>1144.01</ele>
        <time>2021-07-31T13:08:39Z</time>
      </trkpt>
      <trkpt lat="42.26591" lon="1.96053">
        <ele>1148.69</ele>
        <time>2021-07-31T13:08:44Z</time>
      </trkpt>
      <trkpt lat="42.26596" lon="1.96027">
        <ele>1151.01</ele>
        <time>2021-07-31T13:08:47Z</time>
      </trkpt>
      <trkpt lat="42.26612" lon="1.9599">
        <ele>1154.02</ele>
        <time>2021-07-31T13:08:51Z</time>
      </trkpt>
      <trkpt lat="42.26628" lon="1.95974">
        <ele>1157.33</ele>
        <time>2021-07-31T13:08:55Z</time>
      </trkpt>
      <trkpt lat="42.26645" lon="1.95964">
        <ele>1160.42</ele>
        <time>2021-07-31T13:08:59Z</time>
      </trkpt>
      <trkpt lat="42.26669" lon="1.95948">
        <ele>1162.94</ele>
        <time>2021-07-31T13:09:03Z</time>
      </trkpt>
      <trkpt lat="42.26686" lon="1.95945">
        <ele>1165.02</ele>
        <time>2021-07-31T13:09:06Z</time>
      </trkpt>
      <trkpt lat="42.26709" lon="1.95913">
        <ele>1169.15</ele>
        <time>2021-07-31T13:09:11Z</time>
      </trkpt>
      <trkpt lat="42.2671" lon="1.95876">
        <ele>1173</ele>
        <time>2021-07-31T13:09:15Z</time>
      </trkpt>
      <trkpt lat="42.26721" lon="1.9586">
        <ele>1175.05</ele>
        <time>2021-07-31T13:09:17Z</time>
      </trkpt>
      <trkpt lat="42.26747" lon="1.95827">
        <ele>1178.78</ele>
        <time>2021-07-31T13:09:21Z</time>
      </trkpt>
      <trkpt lat="42.26759" lon="1.95774">
        <ele>1182.9</ele>
        <time>2021-07-31T13:09:25Z</time>
      </trkpt>
      <trkpt lat="42.26759" lon="1.95757">
        <ele>1183.99</ele>
        <time>2021-07-31T13:09:26Z</time>
      </trkpt>
      <trkpt lat="42.26758" lon="1.95673">
        <ele>1188.69</ele>
        <time>2021-07-31T13:09:31Z</time>
      </trkpt>
      <trkpt lat="42.26759" lon="1.95632">
        <ele>1191.78</ele>
        <time>2021-07-31T13:09:35Z</time>
      </trkpt>
      <trkpt lat="42.26779" lon="1.95595">
        <ele>1195.47</ele>
        <time>2021-07-31T13:09:41Z</time>
      </trkpt>
      <trkpt lat="42.268" lon="1.95584">
        <ele>1196.73</ele>
        <time>2021-07-31T13:09:44Z</time>
      </trkpt>
      <trkpt lat="42.26857" lon="1.9556">
        <ele>1200.42</ele>
        <time>2021-07-31T13:09:51Z</time>
      </trkpt>
      <trkpt lat="42.26872" lon="1.95555">
        <ele>1201.79</ele>
        <time>2021-07-31T13:09:53Z</time>
      </trkpt>
      <trkpt lat="42.26901" lon="1.95538">
        <ele>1205.63</ele>
        <time>2021-07-31T13:09:58Z</time>
      </trkpt>
      <trkpt lat="42.26909" lon="1.95535">
        <ele>1206.32</ele>
        <time>2021-07-31T13:09:59Z</time>
      </trkpt>
      <trkpt lat="42.26947" lon="1.95518">
        <ele>1210.24</ele>
        <time>2021-07-31T13:10:04Z</time>
      </trkpt>
      <trkpt lat="42.26969" lon="1.95511">
        <ele>1212.53</ele>
        <time>2021-07-31T13:10:07Z</time>
      </trkpt>
      <trkpt lat="42.26997" lon="1.95511">
        <ele>1217.31</ele>
        <time>2021-07-31T13:10:12Z</time>
      </trkpt>
      <trkpt lat="42.27001" lon="1.95511">
        <ele>1218.25</ele>
        <time>2021-07-31T13:10:13Z</time>
      </trkpt>
      <trkpt lat="42.27021" lon="1.95525">
        <ele>1221.43</ele>
        <time>2021-07-31T13:10:17Z</time>
      </trkpt>
      <trkpt lat="42.2706" lon="1.95533">
        <ele>1225.5</ele>
        <time>2021-07-31T13:10:22Z</time>
      </trkpt>
      <trkpt lat="42.27076" lon="1.95532">
        <ele>1227.13</ele>
        <time>2021-07-31T13:10:24Z</time>
      </trkpt>
      <trkpt lat="42.271" lon="1.95531">
        <ele>1231.11</ele>
        <time>2021-07-31T13:10:29Z</time>
      </trkpt>
      <trkpt lat="42.27096" lon="1.95489">
        <ele>1233.69</ele>
        <time>2021-07-31T13:10:33Z</time>
      </trkpt>
      <trkpt lat="42.27093" lon="1.95476">
        <ele>1234.31</ele>
        <time>2021-07-31T13:10:34Z</time>
      </trkpt>
      <trkpt lat="42.27079" lon="1.95426">
        <ele>1236.62</ele>
        <time>2021-07-31T13:10:38Z</time>
      </trkpt>
      <trkpt lat="42.27092" lon="1.9538">
        <ele>1240.87</ele>
        <time>2021-07-31T13:10:43Z</time>
      </trkpt>
      <trkpt lat="42.27121" lon="1.95371">
        <ele>1244.65</ele>
        <time>2021-07-31T13:10:47Z</time>
      </trkpt>
      <trkpt lat="42.27127" lon="1.95371">
        <ele>1245.7</ele>
        <time>2021-07-31T13:10:48Z</time>
      </trkpt>
      <trkpt lat="42.2714" lon="1.95371">
        <ele>1247.66</ele>
        <time>2021-07-31T13:10:50Z</time>
      </trkpt>
      <trkpt lat="42.27161" lon="1.95388">
        <ele>1252.74</ele>
        <time>2021-07-31T13:10:55Z</time>
      </trkpt>
      <trkpt lat="42.2714" lon="1.95429">
        <ele>1256.51</ele>
        <time>2021-07-31T13:11:00Z</time>
      </trkpt>
      <trkpt lat="42.27145" lon="1.9545">
        <ele>1258.3</ele>
        <time>2021-07-31T13:11:02Z</time>
      </trkpt>
      <trkpt lat="42.27154" lon="1.95479">
        <ele>1260.66</ele>
        <time>2021-07-31T13:11:05Z</time>
      </trkpt>
      <trkpt lat="42.27185" lon="1.95497">
        <ele>1264.67</ele>
        <time>2021-07-31T13:11:10Z</time>
      </trkpt>
      <trkpt lat="42.27195" lon="1.95494">
        <ele>1266.04</ele>
        <time>2021-07-31T13:11:12Z</time>
      </trkpt>
      <trkpt lat="42.27209" lon="1.95493">
        <ele>1268.48</ele>
        <time>2021-07-31T13:11:16Z</time>
      </trkpt>
      <trkpt lat="42.27232" lon="1.95449">
        <ele>1271.7</ele>
        <time>2021-07-31T13:11:25Z</time>
      </trkpt>
      <trkpt lat="42.27231" lon="1.95437">
        <ele>1272.26</ele>
        <time>2021-07-31T13:11:27Z</time>
      </trkpt>
      <trkpt lat="42.27229" lon="1.95386">
        <ele>1275.4</ele>
        <time>2021-07-31T13:11:38Z</time>
      </trkpt>
      <trkpt lat="42.27252" lon="1.95377">
        <ele>1278.62</ele>
        <time>2021-07-31T13:11:47Z</time>
      </trkpt>
      <trkpt lat="42.27285" lon="1.95408">
        <ele>1281.72</ele>
        <time>2021-07-31T13:11:54Z</time>
      </trkpt>
      <trkpt lat="42.27307" lon="1.95434">
        <ele>1284.21</ele>
        <time>2021-07-31T13:11:58Z</time>
      </trkpt>
      <trkpt lat="42.27335" lon="1.95458">
        <ele>1287.67</ele>
        <time>2021-07-31T13:12:03Z</time>
      </trkpt>
      <trkpt lat="42.2737" lon="1.95468">
        <ele>1291.66</ele>
        <time>2021-07-31T13:12:09Z</time>
      </trkpt>
      <trkpt lat="42.27362" lon="1.95448">
        <ele>1295.13</ele>
        <time>2021-07-31T13:12:14Z</time>
      </trkpt>
      <trkpt lat="42.27349" lon="1.95409">
        <ele>1299.44</ele>
        <time>2021-07-31T13:12:21Z</time>
      </trkpt>
      <trkpt lat="42.27373" lon="1.95404">
        <ele>1302.75</ele>
        <time>2021-07-31T13:12:25Z</time>
      </trkpt>
      <trkpt lat="42.27401" lon="1.95409">
        <ele>1306.83</ele>
        <time>2021-07-31T13:12:29Z</time>
      </trkpt>
      <trkpt lat="42.27422" lon="1.95405">
        <ele>1311.34</ele>
        <time>2021-07-31T13:12:33Z</time>
      </trkpt>
      <trkpt lat="42.27427" lon="1.954">
        <ele>1315.44</ele>
        <time>2021-07-31T13:12:36Z</time>
      </trkpt>
      <trkpt lat="42.27433" lon="1.95384">
        <ele>1319.16</ele>
        <time>2021-07-31T13:12:40Z</time>
      </trkpt>
      <trkpt lat="42.27437" lon="1.95373">
        <ele>1321.34</ele>
        <time>2021-07-31T13:12:43Z</time>
      </trkpt>
      <trkpt lat="42.27451" lon="1.9538">
        <ele>1325.57</ele>
        <time>2021-07-31T13:12:49Z</time>
      </trkpt>
      <trkpt lat="42.27466" lon="1.95384">
        <ele>1329.14</ele>
        <time>2021-07-31T13:12:55Z</time>
      </trkpt>
      <trkpt lat="42.27465" lon="1.95352">
        <ele>1331.71</ele>
        <time>2021-07-31T13:12:59Z</time>
      </trkpt>
      <trkpt lat="42.27471" lon="1.95314">
        <ele>1336.22</ele>
        <time>2021-07-31T13:13:05Z</time>
      </trkpt>
      <trkpt lat="42.27472" lon="1.953">
        <ele>1338.25</ele>
        <time>2021-07-31T13:13:08Z</time>
      </trkpt>
      <trkpt lat="42.27468" lon="1.95274">
        <ele>1340.76</ele>
        <time>2021-07-31T13:13:12Z</time>
      </trkpt>
      <trkpt lat="42.27482" lon="1.95252">
        <ele>1344.82</ele>
        <time>2021-07-31T13:13:19Z</time>
      </trkpt>
      <trkpt lat="42.27505" lon="1.9527">
        <ele>1347.9</ele>
        <time>2021-07-31T13:13:23Z</time>
      </trkpt>
      <trkpt lat="42.27519" lon="1.95274">
        <ele>1349.54</ele>
        <time>2021-07-31T13:13:25Z</time>
      </trkpt>
      <trkpt lat="42.27527" lon="1.9526">
        <ele>1354.42</ele>
        <time>2021-07-31T13:13:31Z</time>
      </trkpt>
      <trkpt lat="42.27515" lon="1.95218">
        <ele>1357.92</ele>
        <time>2021-07-31T13:13:36Z</time>
      </trkpt>
      <trkpt lat="42.27512" lon="1.95184">
        <ele>1360.08</ele>
        <time>2021-07-31T13:13:39Z</time>
      </trkpt>
      <trkpt lat="42.27521" lon="1.95143">
        <ele>1364.28</ele>
        <time>2021-07-31T13:13:45Z</time>
      </trkpt>
      <trkpt lat="42.27535" lon="1.9516">
        <ele>1365.81</ele>
        <time>2021-07-31T13:13:47Z</time>
      </trkpt>
      <trkpt lat="42.27558" lon="1.9519">
        <ele>1370.04</ele>
        <time>2021-07-31T13:13:52Z</time>
      </trkpt>
      <trkpt lat="42.27571" lon="1.95176">
        <ele>1373.87</ele>
        <time>2021-07-31T13:13:57Z</time>
      </trkpt>
      <trkpt lat="42.2757" lon="1.95144">
        <ele>1376.73</ele>
        <time>2021-07-31T13:14:01Z</time>
      </trkpt>
      <trkpt lat="42.27578" lon="1.95099">
        <ele>1380.51</ele>
        <time>2021-07-31T13:14:06Z</time>
      </trkpt>
      <trkpt lat="42.27588" lon="1.95084">
        <ele>1383.87</ele>
        <time>2021-07-31T13:14:10Z</time>
      </trkpt>
      <trkpt lat="42.27594" lon="1.95074">
        <ele>1386.29</ele>
        <time>2021-07-31T13:14:13Z</time>
      </trkpt>
      <trkpt lat="42.27607" lon="1.95046">
        <ele>1389.64</ele>
        <time>2021-07-31T13:14:18Z</time>
      </trkpt>
      <trkpt lat="42.27613" lon="1.95019">
        <ele>1390.78</ele>
        <time>2021-07-31T13:14:22Z</time>
      </trkpt>
      <trkpt lat="42.27635" lon="1.94945">
        <ele>1393</ele>
        <time>2021-07-31T13:14:35Z</time>
      </trkpt>
      <trkpt lat="42.27666" lon="1.94883">
        <ele>1394.33</ele>
        <time>2021-07-31T13:14:47Z</time>
      </trkpt>
      <trkpt lat="42.27673" lon="1.94874">
        <ele>1394.4</ele>
        <time>2021-07-31T13:14:55Z</time>
      </trkpt>
      <trkpt lat="42.27679" lon="1.94867">
        <ele>1394.44</ele>
        <time>2021-07-31T13:15:05Z</time>
      </trkpt>
      <trkpt lat="42.27693" lon="1.94853">
        <ele>1394.37</ele>
        <time>2021-07-31T13:15:26Z</time>
      </trkpt>
      <trkpt lat="42.27697" lon="1.94848">
        <ele>1394.38</ele>
        <time>2021-07-31T13:15:27Z</time>
      </trkpt>
      <trkpt lat="42.27723" lon="1.94815">
        <ele>1394.75</ele>
        <time>2021-07-31T13:15:36Z</time>
      </trkpt>
      <trkpt lat="42.27726" lon="1.94785">
        <ele>1394.19</ele>
        <time>2021-07-31T13:15:42Z</time>
      </trkpt>
      <trkpt lat="42.27717" lon="1.94762">
        <ele>1391.14</ele>
        <time>2021-07-31T13:15:54Z</time>
      </trkpt>
      <trkpt lat="42.27702" lon="1.94758">
        <ele>1389.78</ele>
        <time>2021-07-31T13:15:59Z</time>
      </trkpt>
      <trkpt lat="42.27682" lon="1.94738">
        <ele>1386.4</ele>
        <time>2021-07-31T13:16:09Z</time>
      </trkpt>
      <trkpt lat="42.27674" lon="1.94717">
        <ele>1383.72</ele>
        <time>2021-07-31T13:16:19Z</time>
      </trkpt>
      <trkpt lat="42.27674" lon="1.9472">
        <ele>1382.56</ele>
        <time>2021-07-31T13:16:56Z</time>
      </trkpt>
      <trkpt lat="42.27695" lon="1.94724">
        <ele>1383.41</ele>
        <time>2021-07-31T13:24:29Z</time>
      </trkpt>
      <trkpt lat="42.27683" lon="1.94734">
        <ele>1383.41</ele>
        <time>2021-07-31T13:24:30Z</time>
      </trkpt>
      <trkpt lat="42.27682" lon="1.94736">
        <ele>1383.08</ele>
        <time>2021-07-31T13:24:35Z</time>
      </trkpt>
      <trkpt lat="42.27683" lon="1.9474">
        <ele>1382.07</ele>
        <time>2021-07-31T13:24:39Z</time>
      </trkpt>
      <trkpt lat="42.27685" lon="1.94728">
        <ele>1381.46</ele>
        <time>2021-07-31T13:24:51Z</time>
      </trkpt>
      <trkpt lat="42.27678" lon="1.94731">
        <ele>1381.67</ele>
        <time>2021-07-31T13:25:12Z</time>
      </trkpt>
      <trkpt lat="42.27675" lon="1.94724">
        <ele>1383.16</ele>
        <time>2021-07-31T13:25:39Z</time>
      </trkpt>
      <trkpt lat="42.27675" lon="1.94724">
        <ele>1383.38</ele>
        <time>2021-07-31T13:25:49Z</time>
      </trkpt>
      <trkpt lat="42.27676" lon="1.9472">
        <ele>1384.73</ele>
        <time>2021-07-31T13:27:39Z</time>
      </trkpt>
      <trkpt lat="42.27676" lon="1.94721">
        <ele>1384.73</ele>
        <time>2021-07-31T13:27:40Z</time>
      </trkpt>
      <trkpt lat="42.27676" lon="1.94726">
        <ele>1384.73</ele>
        <time>2021-07-31T13:28:47Z</time>
      </trkpt>
      <trkpt lat="42.27676" lon="1.94726">
        <ele>1384.73</ele>
        <time>2021-07-31T13:32:43Z</time>
      </trkpt>
      <trkpt lat="42.27677" lon="1.94727">
        <ele>1384.73</ele>
        <time>2021-07-31T13:37:10Z</time>
      </trkpt>
      <trkpt lat="42.27677" lon="1.94726">
        <ele>1384.73</ele>
        <time>2021-07-31T13:39:42Z</time>
      </trkpt>
      <trkpt lat="42.27677" lon="1.94725">
        <ele>1384.73</ele>
        <time>2021-07-31T13:42:28Z</time>
      </trkpt>
      <trkpt lat="42.27676" lon="1.94722">
        <ele>1384.73</ele>
        <time>2021-07-31T13:44:40Z</time>
      </trkpt>
      <trkpt lat="42.27676" lon="1.94723">
        <ele>1384.73</ele>
        <time>2021-07-31T13:46:43Z</time>
      </trkpt>
      <trkpt lat="42.27676" lon="1.94724">
        <ele>1384.73</ele>
        <time>2021-07-31T13:50:14Z</time>
      </trkpt>
      <trkpt lat="42.27676" lon="1.94726">
        <ele>1384.73</ele>
        <time>2021-07-31T13:53:29Z</time>
      </trkpt>
      <trkpt lat="42.27677" lon="1.94724">
        <ele>1384.73</ele>
        <time>2021-07-31T13:56:54Z</time>
      </trkpt>
      <trkpt lat="42.27676" lon="1.94723">
        <ele>1384.73</ele>
        <time>2021-07-31T14:00:54Z</time>
      </trkpt>
      <trkpt lat="42.27676" lon="1.94723">
        <ele>1384.73</ele>
        <time>2021-07-31T14:01:59Z</time>
      </trkpt>
      <trkpt lat="42.27676" lon="1.94724">
        <ele>1384.73</ele>
        <time>2021-07-31T14:05:11Z</time>
      </trkpt>
      <trkpt lat="42.27677" lon="1.94724">
        <ele>1384.73</ele>
        <time>2021-07-31T14:09:28Z</time>
      </trkpt>
      <trkpt lat="42.27678" lon="1.94724">
        <ele>1384.73</ele>
        <time>2021-07-31T14:11:25Z</time>
      </trkpt>
      <trkpt lat="42.27678" lon="1.94724">
        <ele>1384.73</ele>
        <time>2021-07-31T14:11:29Z</time>
      </trkpt>
      <trkpt lat="42.27689" lon="1.94742">
        <ele>1386.25</ele>
        <time>2021-07-31T14:11:45Z</time>
      </trkpt>
      <trkpt lat="42.27703" lon="1.94759">
        <ele>1387.08</ele>
        <time>2021-07-31T14:11:56Z</time>
      </trkpt>
      <trkpt lat="42.27711" lon="1.94761">
        <ele>1389.45</ele>
        <time>2021-07-31T14:12:06Z</time>
      </trkpt>
      <trkpt lat="42.27703" lon="1.94759">
        <ele>1389.91</ele>
        <time>2021-07-31T14:12:28Z</time>
      </trkpt>
      <trkpt lat="42.2769" lon="1.9474">
        <ele>1388</ele>
        <time>2021-07-31T14:12:41Z</time>
      </trkpt>
      <trkpt lat="42.27686" lon="1.94732">
        <ele>1386.55</ele>
        <time>2021-07-31T14:12:53Z</time>
      </trkpt>
      <trkpt lat="42.27678" lon="1.94727">
        <ele>1386.5</ele>
        <time>2021-07-31T14:12:58Z</time>
      </trkpt>
      <trkpt lat="42.27677" lon="1.94725">
        <ele>1386.44</ele>
        <time>2021-07-31T14:13:00Z</time>
      </trkpt>
      <trkpt lat="42.27695" lon="1.94751">
        <ele>1387.14</ele>
        <time>2021-07-31T14:13:15Z</time>
      </trkpt>
      <trkpt lat="42.27715" lon="1.94764">
        <ele>1389.9</ele>
        <time>2021-07-31T14:13:31Z</time>
      </trkpt>
      <trkpt lat="42.27716" lon="1.94765">
        <ele>1390.83</ele>
        <time>2021-07-31T14:13:36Z</time>
      </trkpt>
      <trkpt lat="42.27727" lon="1.94768">
        <ele>1393.18</ele>
        <time>2021-07-31T14:14:01Z</time>
      </trkpt>
      <trkpt lat="42.27726" lon="1.94768">
        <ele>1393.24</ele>
        <time>2021-07-31T14:14:03Z</time>
      </trkpt>
      <trkpt lat="42.2771" lon="1.94737">
        <ele>1392.9</ele>
        <time>2021-07-31T14:14:11Z</time>
      </trkpt>
      <trkpt lat="42.27713" lon="1.94723">
        <ele>1392.47</ele>
        <time>2021-07-31T14:14:13Z</time>
      </trkpt>
      <trkpt lat="42.27736" lon="1.94691">
        <ele>1389.26</ele>
        <time>2021-07-31T14:14:23Z</time>
      </trkpt>
      <trkpt lat="42.27764" lon="1.94707">
        <ele>1386.1</ele>
        <time>2021-07-31T14:14:33Z</time>
      </trkpt>
      <trkpt lat="42.27792" lon="1.94679">
        <ele>1383.27</ele>
        <time>2021-07-31T14:14:43Z</time>
      </trkpt>
      <trkpt lat="42.27784" lon="1.94615">
        <ele>1379.54</ele>
        <time>2021-07-31T14:14:53Z</time>
      </trkpt>
      <trkpt lat="42.27775" lon="1.94579">
        <ele>1376.49</ele>
        <time>2021-07-31T14:14:58Z</time>
      </trkpt>
      <trkpt lat="42.27768" lon="1.94555">
        <ele>1372.74</ele>
        <time>2021-07-31T14:15:03Z</time>
      </trkpt>
      <trkpt lat="42.27762" lon="1.94513">
        <ele>1369.08</ele>
        <time>2021-07-31T14:15:09Z</time>
      </trkpt>
      <trkpt lat="42.27761" lon="1.94505">
        <ele>1368.37</ele>
        <time>2021-07-31T14:15:10Z</time>
      </trkpt>
      <trkpt lat="42.27751" lon="1.94459">
        <ele>1363.82</ele>
        <time>2021-07-31T14:15:16Z</time>
      </trkpt>
      <trkpt lat="42.27743" lon="1.94431">
        <ele>1360.64</ele>
        <time>2021-07-31T14:15:20Z</time>
      </trkpt>
      <trkpt lat="42.27737" lon="1.94401">
        <ele>1357.38</ele>
        <time>2021-07-31T14:15:24Z</time>
      </trkpt>
      <trkpt lat="42.27736" lon="1.94377">
        <ele>1355.25</ele>
        <time>2021-07-31T14:15:27Z</time>
      </trkpt>
      <trkpt lat="42.27754" lon="1.94334">
        <ele>1351</ele>
        <time>2021-07-31T14:15:33Z</time>
      </trkpt>
      <trkpt lat="42.2777" lon="1.94305">
        <ele>1346.93</ele>
        <time>2021-07-31T14:15:38Z</time>
      </trkpt>
      <trkpt lat="42.27778" lon="1.94271">
        <ele>1342.86</ele>
        <time>2021-07-31T14:15:44Z</time>
      </trkpt>
      <trkpt lat="42.27781" lon="1.94261">
        <ele>1339.74</ele>
        <time>2021-07-31T14:15:50Z</time>
      </trkpt>
      <trkpt lat="42.27781" lon="1.94257">
        <ele>1338.89</ele>
        <time>2021-07-31T14:15:52Z</time>
      </trkpt>
      <trkpt lat="42.27774" lon="1.94247">
        <ele>1337.84</ele>
        <time>2021-07-31T14:15:56Z</time>
      </trkpt>
      <trkpt lat="42.27745" lon="1.94209">
        <ele>1335.94</ele>
        <time>2021-07-31T14:16:06Z</time>
      </trkpt>
      <trkpt lat="42.27741" lon="1.94194">
        <ele>1334.64</ele>
        <time>2021-07-31T14:16:22Z</time>
      </trkpt>
      <trkpt lat="42.27738" lon="1.94191">
        <ele>1334.56</ele>
        <time>2021-07-31T14:16:23Z</time>
      </trkpt>
      <trkpt lat="42.27735" lon="1.94189">
        <ele>1334.52</ele>
        <time>2021-07-31T14:16:24Z</time>
      </trkpt>
      <trkpt lat="42.27731" lon="1.94185">
        <ele>1334.45</ele>
        <time>2021-07-31T14:16:25Z</time>
      </trkpt>
      <trkpt lat="42.27727" lon="1.94181">
        <ele>1334.32</ele>
        <time>2021-07-31T14:16:26Z</time>
      </trkpt>
      <trkpt lat="42.27723" lon="1.94176">
        <ele>1334.15</ele>
        <time>2021-07-31T14:16:27Z</time>
      </trkpt>
      <trkpt lat="42.27703" lon="1.94152">
        <ele>1331.62</ele>
        <time>2021-07-31T14:16:32Z</time>
      </trkpt>
      <trkpt lat="42.2768" lon="1.94126">
        <ele>1327.9</ele>
        <time>2021-07-31T14:16:37Z</time>
      </trkpt>
      <trkpt lat="42.27665" lon="1.9411">
        <ele>1324.51</ele>
        <time>2021-07-31T14:16:41Z</time>
      </trkpt>
      <trkpt lat="42.27657" lon="1.94083">
        <ele>1320.36</ele>
        <time>2021-07-31T14:16:46Z</time>
      </trkpt>
      <trkpt lat="42.27658" lon="1.94077">
        <ele>1319.63</ele>
        <time>2021-07-31T14:16:47Z</time>
      </trkpt>
      <trkpt lat="42.2766" lon="1.94042">
        <ele>1317.69</ele>
        <time>2021-07-31T14:16:51Z</time>
      </trkpt>
      <trkpt lat="42.27679" lon="1.93994">
        <ele>1314.79</ele>
        <time>2021-07-31T14:16:57Z</time>
      </trkpt>
      <trkpt lat="42.27683" lon="1.93941">
        <ele>1311.01</ele>
        <time>2021-07-31T14:17:02Z</time>
      </trkpt>
      <trkpt lat="42.27685" lon="1.93931">
        <ele>1310.06</ele>
        <time>2021-07-31T14:17:03Z</time>
      </trkpt>
      <trkpt lat="42.27692" lon="1.93902">
        <ele>1307.63</ele>
        <time>2021-07-31T14:17:06Z</time>
      </trkpt>
      <trkpt lat="42.27683" lon="1.93831">
        <ele>1303.52</ele>
        <time>2021-07-31T14:17:12Z</time>
      </trkpt>
      <trkpt lat="42.27678" lon="1.93823">
        <ele>1302.9</ele>
        <time>2021-07-31T14:17:13Z</time>
      </trkpt>
      <trkpt lat="42.27673" lon="1.93765">
        <ele>1297.98</ele>
        <time>2021-07-31T14:17:20Z</time>
      </trkpt>
      <trkpt lat="42.27688" lon="1.93746">
        <ele>1295.92</ele>
        <time>2021-07-31T14:17:23Z</time>
      </trkpt>
      <trkpt lat="42.27713" lon="1.93722">
        <ele>1292.48</ele>
        <time>2021-07-31T14:17:29Z</time>
      </trkpt>
      <trkpt lat="42.27724" lon="1.93711">
        <ele>1291.37</ele>
        <time>2021-07-31T14:17:32Z</time>
      </trkpt>
      <trkpt lat="42.27736" lon="1.93701">
        <ele>1290.08</ele>
        <time>2021-07-31T14:17:35Z</time>
      </trkpt>
      <trkpt lat="42.27757" lon="1.93667">
        <ele>1286.3</ele>
        <time>2021-07-31T14:17:41Z</time>
      </trkpt>
      <trkpt lat="42.27776" lon="1.93635">
        <ele>1282.62</ele>
        <time>2021-07-31T14:17:46Z</time>
      </trkpt>
      <trkpt lat="42.27791" lon="1.93576">
        <ele>1278.08</ele>
        <time>2021-07-31T14:17:54Z</time>
      </trkpt>
      <trkpt lat="42.27791" lon="1.93541">
        <ele>1273.81</ele>
        <time>2021-07-31T14:18:01Z</time>
      </trkpt>
      <trkpt lat="42.27795" lon="1.93511">
        <ele>1270.7</ele>
        <time>2021-07-31T14:18:08Z</time>
      </trkpt>
      <trkpt lat="42.27799" lon="1.93494">
        <ele>1269.23</ele>
        <time>2021-07-31T14:18:12Z</time>
      </trkpt>
      <trkpt lat="42.27772" lon="1.93476">
        <ele>1266.38</ele>
        <time>2021-07-31T14:18:19Z</time>
      </trkpt>
      <trkpt lat="42.27757" lon="1.93471">
        <ele>1265.84</ele>
        <time>2021-07-31T14:18:22Z</time>
      </trkpt>
      <trkpt lat="42.27701" lon="1.93429">
        <ele>1266.65</ele>
        <time>2021-07-31T14:18:33Z</time>
      </trkpt>
      <trkpt lat="42.2767" lon="1.93408">
        <ele>1264.65</ele>
        <time>2021-07-31T14:18:42Z</time>
      </trkpt>
      <trkpt lat="42.2766" lon="1.93396">
        <ele>1263.09</ele>
        <time>2021-07-31T14:18:45Z</time>
      </trkpt>
      <trkpt lat="42.27629" lon="1.93374">
        <ele>1259.18</ele>
        <time>2021-07-31T14:18:51Z</time>
      </trkpt>
      <trkpt lat="42.27607" lon="1.93355">
        <ele>1256.15</ele>
        <time>2021-07-31T14:18:55Z</time>
      </trkpt>
      <trkpt lat="42.27591" lon="1.93337">
        <ele>1252.63</ele>
        <time>2021-07-31T14:18:59Z</time>
      </trkpt>
      <trkpt lat="42.27577" lon="1.93316">
        <ele>1249.03</ele>
        <time>2021-07-31T14:19:03Z</time>
      </trkpt>
      <trkpt lat="42.27567" lon="1.93288">
        <ele>1245.74</ele>
        <time>2021-07-31T14:19:07Z</time>
      </trkpt>
      <trkpt lat="42.27565" lon="1.93281">
        <ele>1244.91</ele>
        <time>2021-07-31T14:19:08Z</time>
      </trkpt>
      <trkpt lat="42.27544" lon="1.93253">
        <ele>1240.89</ele>
        <time>2021-07-31T14:19:14Z</time>
      </trkpt>
      <trkpt lat="42.27524" lon="1.93222">
        <ele>1237.89</ele>
        <time>2021-07-31T14:19:19Z</time>
      </trkpt>
      <trkpt lat="42.27516" lon="1.9321">
        <ele>1236.75</ele>
        <time>2021-07-31T14:19:21Z</time>
      </trkpt>
      <trkpt lat="42.27512" lon="1.93203">
        <ele>1236.14</ele>
        <time>2021-07-31T14:19:22Z</time>
      </trkpt>
      <trkpt lat="42.27509" lon="1.93197">
        <ele>1235.5</ele>
        <time>2021-07-31T14:19:23Z</time>
      </trkpt>
      <trkpt lat="42.27507" lon="1.93189">
        <ele>1234.97</ele>
        <time>2021-07-31T14:19:24Z</time>
      </trkpt>
      <trkpt lat="42.27505" lon="1.93182">
        <ele>1234.5</ele>
        <time>2021-07-31T14:19:25Z</time>
      </trkpt>
      <trkpt lat="42.27504" lon="1.93174">
        <ele>1234.13</ele>
        <time>2021-07-31T14:19:26Z</time>
      </trkpt>
      <trkpt lat="42.27503" lon="1.93166">
        <ele>1233.9</ele>
        <time>2021-07-31T14:19:27Z</time>
      </trkpt>
      <trkpt lat="42.27502" lon="1.93158">
        <ele>1233.77</ele>
        <time>2021-07-31T14:19:28Z</time>
      </trkpt>
      <trkpt lat="42.275" lon="1.93125">
        <ele>1233.9</ele>
        <time>2021-07-31T14:19:32Z</time>
      </trkpt>
      <trkpt lat="42.27511" lon="1.93042">
        <ele>1237.36</ele>
        <time>2021-07-31T14:19:42Z</time>
      </trkpt>
      <trkpt lat="42.27514" lon="1.93022">
        <ele>1237.71</ele>
        <time>2021-07-31T14:19:45Z</time>
      </trkpt>
      <trkpt lat="42.27538" lon="1.92963">
        <ele>1238.29</ele>
        <time>2021-07-31T14:19:55Z</time>
      </trkpt>
      <trkpt lat="42.27543" lon="1.92944">
        <ele>1238.82</ele>
        <time>2021-07-31T14:19:58Z</time>
      </trkpt>
      <trkpt lat="42.27544" lon="1.92907">
        <ele>1239.75</ele>
        <time>2021-07-31T14:20:02Z</time>
      </trkpt>
      <trkpt lat="42.27546" lon="1.9287">
        <ele>1241.21</ele>
        <time>2021-07-31T14:20:06Z</time>
      </trkpt>
      <trkpt lat="42.27518" lon="1.92806">
        <ele>1242.96</ele>
        <time>2021-07-31T14:20:14Z</time>
      </trkpt>
      <trkpt lat="42.27509" lon="1.92759">
        <ele>1241.48</ele>
        <time>2021-07-31T14:20:21Z</time>
      </trkpt>
      <trkpt lat="42.27534" lon="1.92731">
        <ele>1238.11</ele>
        <time>2021-07-31T14:20:28Z</time>
      </trkpt>
      <trkpt lat="42.27544" lon="1.92719">
        <ele>1236.46</ele>
        <time>2021-07-31T14:20:31Z</time>
      </trkpt>
      <trkpt lat="42.27549" lon="1.9271">
        <ele>1235.15</ele>
        <time>2021-07-31T14:20:33Z</time>
      </trkpt>
      <trkpt lat="42.27552" lon="1.92686">
        <ele>1232.22</ele>
        <time>2021-07-31T14:20:37Z</time>
      </trkpt>
      <trkpt lat="42.27552" lon="1.92673">
        <ele>1230.78</ele>
        <time>2021-07-31T14:20:39Z</time>
      </trkpt>
      <trkpt lat="42.27558" lon="1.9264">
        <ele>1227.05</ele>
        <time>2021-07-31T14:20:44Z</time>
      </trkpt>
      <trkpt lat="42.27566" lon="1.92612">
        <ele>1223.59</ele>
        <time>2021-07-31T14:20:48Z</time>
      </trkpt>
      <trkpt lat="42.27568" lon="1.92604">
        <ele>1222.74</ele>
        <time>2021-07-31T14:20:49Z</time>
      </trkpt>
      <trkpt lat="42.2757" lon="1.92564">
        <ele>1218.66</ele>
        <time>2021-07-31T14:20:54Z</time>
      </trkpt>
      <trkpt lat="42.27571" lon="1.92532">
        <ele>1214.94</ele>
        <time>2021-07-31T14:20:58Z</time>
      </trkpt>
      <trkpt lat="42.27571" lon="1.92506">
        <ele>1212.18</ele>
        <time>2021-07-31T14:21:01Z</time>
      </trkpt>
      <trkpt lat="42.27579" lon="1.92474">
        <ele>1208.38</ele>
        <time>2021-07-31T14:21:05Z</time>
      </trkpt>
      <trkpt lat="42.27591" lon="1.9244">
        <ele>1204.23</ele>
        <time>2021-07-31T14:21:09Z</time>
      </trkpt>
      <trkpt lat="42.27598" lon="1.92421">
        <ele>1200.81</ele>
        <time>2021-07-31T14:21:12Z</time>
      </trkpt>
      <trkpt lat="42.276" lon="1.92415">
        <ele>1199.64</ele>
        <time>2021-07-31T14:21:13Z</time>
      </trkpt>
      <trkpt lat="42.27604" lon="1.924">
        <ele>1197.23</ele>
        <time>2021-07-31T14:21:15Z</time>
      </trkpt>
      <trkpt lat="42.27608" lon="1.92367">
        <ele>1192.67</ele>
        <time>2021-07-31T14:21:19Z</time>
      </trkpt>
      <trkpt lat="42.27609" lon="1.92359">
        <ele>1191.6</ele>
        <time>2021-07-31T14:21:20Z</time>
      </trkpt>
      <trkpt lat="42.2761" lon="1.92323">
        <ele>1185.86</ele>
        <time>2021-07-31T14:21:24Z</time>
      </trkpt>
      <trkpt lat="42.27611" lon="1.92314">
        <ele>1185.86</ele>
        <time>2021-07-31T14:21:25Z</time>
      </trkpt>
      <trkpt lat="42.27613" lon="1.92304">
        <ele>1184.65</ele>
        <time>2021-07-31T14:21:26Z</time>
      </trkpt>
      <trkpt lat="42.27616" lon="1.9229">
        <ele>1181.17</ele>
        <time>2021-07-31T14:21:28Z</time>
      </trkpt>
      <trkpt lat="42.2762" lon="1.92264">
        <ele>1176.87</ele>
        <time>2021-07-31T14:21:32Z</time>
      </trkpt>
      <trkpt lat="42.2763" lon="1.92233">
        <ele>1172.42</ele>
        <time>2021-07-31T14:21:37Z</time>
      </trkpt>
      <trkpt lat="42.27627" lon="1.92221">
        <ele>1169.29</ele>
        <time>2021-07-31T14:21:41Z</time>
      </trkpt>
      <trkpt lat="42.27614" lon="1.92237">
        <ele>1165.76</ele>
        <time>2021-07-31T14:21:47Z</time>
      </trkpt>
      <trkpt lat="42.27609" lon="1.92247">
        <ele>1164.71</ele>
        <time>2021-07-31T14:21:49Z</time>
      </trkpt>
      <trkpt lat="42.27589" lon="1.92274">
        <ele>1160.59</ele>
        <time>2021-07-31T14:21:55Z</time>
      </trkpt>
      <trkpt lat="42.27569" lon="1.92295">
        <ele>1157.11</ele>
        <time>2021-07-31T14:22:00Z</time>
      </trkpt>
      <trkpt lat="42.27546" lon="1.92308">
        <ele>1153.49</ele>
        <time>2021-07-31T14:22:04Z</time>
      </trkpt>
      <trkpt lat="42.2753" lon="1.92318">
        <ele>1150.54</ele>
        <time>2021-07-31T14:22:07Z</time>
      </trkpt>
      <trkpt lat="42.27505" lon="1.92343">
        <ele>1145.77</ele>
        <time>2021-07-31T14:22:12Z</time>
      </trkpt>
      <trkpt lat="42.27483" lon="1.92375">
        <ele>1142.43</ele>
        <time>2021-07-31T14:22:16Z</time>
      </trkpt>
      <trkpt lat="42.27479" lon="1.92382">
        <ele>1141.38</ele>
        <time>2021-07-31T14:22:17Z</time>
      </trkpt>
      <trkpt lat="42.27458" lon="1.92398">
        <ele>1136.68</ele>
        <time>2021-07-31T14:22:22Z</time>
      </trkpt>
      <trkpt lat="42.27444" lon="1.92416">
        <ele>1133.15</ele>
        <time>2021-07-31T14:22:26Z</time>
      </trkpt>
      <trkpt lat="42.27427" lon="1.92407">
        <ele>1129.75</ele>
        <time>2021-07-31T14:22:30Z</time>
      </trkpt>
      <trkpt lat="42.27414" lon="1.924">
        <ele>1128.22</ele>
        <time>2021-07-31T14:22:32Z</time>
      </trkpt>
      <trkpt lat="42.27375" lon="1.92383">
        <ele>1123.75</ele>
        <time>2021-07-31T14:22:37Z</time>
      </trkpt>
      <trkpt lat="42.27363" lon="1.92376">
        <ele>1121.63</ele>
        <time>2021-07-31T14:22:39Z</time>
      </trkpt>
      <trkpt lat="42.27338" lon="1.9237">
        <ele>1117.98</ele>
        <time>2021-07-31T14:22:43Z</time>
      </trkpt>
      <trkpt lat="42.27312" lon="1.9235">
        <ele>1113.78</ele>
        <time>2021-07-31T14:22:48Z</time>
      </trkpt>
      <trkpt lat="42.27305" lon="1.92341">
        <ele>1112.08</ele>
        <time>2021-07-31T14:22:50Z</time>
      </trkpt>
      <trkpt lat="42.27289" lon="1.92313">
        <ele>1108.83</ele>
        <time>2021-07-31T14:22:54Z</time>
      </trkpt>
      <trkpt lat="42.27271" lon="1.92287">
        <ele>1105.27</ele>
        <time>2021-07-31T14:22:58Z</time>
      </trkpt>
      <trkpt lat="42.27246" lon="1.92264">
        <ele>1101.21</ele>
        <time>2021-07-31T14:23:02Z</time>
      </trkpt>
      <trkpt lat="42.2724" lon="1.92259">
        <ele>1100.29</ele>
        <time>2021-07-31T14:23:03Z</time>
      </trkpt>
      <trkpt lat="42.27213" lon="1.9225">
        <ele>1095.02</ele>
        <time>2021-07-31T14:23:07Z</time>
      </trkpt>
      <trkpt lat="42.27198" lon="1.92255">
        <ele>1091.55</ele>
        <time>2021-07-31T14:23:10Z</time>
      </trkpt>
      <trkpt lat="42.27183" lon="1.92257">
        <ele>1088.43</ele>
        <time>2021-07-31T14:23:13Z</time>
      </trkpt>
      <trkpt lat="42.27161" lon="1.92256">
        <ele>1084.89</ele>
        <time>2021-07-31T14:23:17Z</time>
      </trkpt>
      <trkpt lat="42.27124" lon="1.92268">
        <ele>1080.69</ele>
        <time>2021-07-31T14:23:22Z</time>
      </trkpt>
      <trkpt lat="42.27096" lon="1.92275">
        <ele>1077.45</ele>
        <time>2021-07-31T14:23:25Z</time>
      </trkpt>
      <trkpt lat="42.27069" lon="1.9228">
        <ele>1074.04</ele>
        <time>2021-07-31T14:23:28Z</time>
      </trkpt>
      <trkpt lat="42.27044" lon="1.92286">
        <ele>1070.08</ele>
        <time>2021-07-31T14:23:31Z</time>
      </trkpt>
      <trkpt lat="42.27029" lon="1.92287">
        <ele>1067.06</ele>
        <time>2021-07-31T14:23:33Z</time>
      </trkpt>
      <trkpt lat="42.27016" lon="1.92287">
        <ele>1064.02</ele>
        <time>2021-07-31T14:23:35Z</time>
      </trkpt>
      <trkpt lat="42.26995" lon="1.92285">
        <ele>1060.17</ele>
        <time>2021-07-31T14:23:38Z</time>
      </trkpt>
      <trkpt lat="42.26988" lon="1.92284">
        <ele>1059.09</ele>
        <time>2021-07-31T14:23:39Z</time>
      </trkpt>
      <trkpt lat="42.26959" lon="1.923">
        <ele>1055.02</ele>
        <time>2021-07-31T14:23:43Z</time>
      </trkpt>
      <trkpt lat="42.26936" lon="1.92319">
        <ele>1051.78</ele>
        <time>2021-07-31T14:23:46Z</time>
      </trkpt>
      <trkpt lat="42.24666" lon="1.92297">
        <ele>840.24</ele>
        <time>2021-07-31T14:29:46Z</time>
      </trkpt>
      <trkpt lat="42.24662" lon="1.92299">
        <ele>840.22</ele>
        <time>2021-07-31T14:29:47Z</time>
      </trkpt>
      <trkpt lat="42.24626" lon="1.92298">
        <ele>837.11</ele>
        <time>2021-07-31T14:29:53Z</time>
      </trkpt>
      <trkpt lat="42.246" lon="1.92301">
        <ele>834.09</ele>
        <time>2021-07-31T14:29:58Z</time>
      </trkpt>
      <trkpt lat="42.24569" lon="1.92284">
        <ele>832.15</ele>
        <time>2021-07-31T14:30:02Z</time>
      </trkpt>
      <trkpt lat="42.24484" lon="1.92221">
        <ele>828.42</ele>
        <time>2021-07-31T14:30:10Z</time>
      </trkpt>
      <trkpt lat="42.2441" lon="1.92176">
        <ele>825.05</ele>
        <time>2021-07-31T14:30:16Z</time>
      </trkpt>
      <trkpt lat="42.24362" lon="1.9215">
        <ele>821.8</ele>
        <time>2021-07-31T14:30:21Z</time>
      </trkpt>
      <trkpt lat="42.24321" lon="1.9215">
        <ele>818.55</ele>
        <time>2021-07-31T14:30:26Z</time>
      </trkpt>
      <trkpt lat="42.24275" lon="1.92165">
        <ele>816.87</ele>
        <time>2021-07-31T14:30:30Z</time>
      </trkpt>
      <trkpt lat="42.24207" lon="1.92172">
        <ele>814.62</ele>
        <time>2021-07-31T14:30:36Z</time>
      </trkpt>
      <trkpt lat="42.24148" lon="1.92123">
        <ele>812.29</ele>
        <time>2021-07-31T14:30:43Z</time>
      </trkpt>
      <trkpt lat="42.24128" lon="1.921">
        <ele>811.46</ele>
        <time>2021-07-31T14:30:46Z</time>
      </trkpt>
      <trkpt lat="42.24075" lon="1.92081">
        <ele>809.54</ele>
        <time>2021-07-31T14:30:52Z</time>
      </trkpt>
      <trkpt lat="42.24031" lon="1.92081">
        <ele>807.47</ele>
        <time>2021-07-31T14:30:56Z</time>
      </trkpt>
      <trkpt lat="42.23994" lon="1.92057">
        <ele>805.4</ele>
        <time>2021-07-31T14:31:00Z</time>
      </trkpt>
      <trkpt lat="42.23977" lon="1.9204">
        <ele>804.45</ele>
        <time>2021-07-31T14:31:02Z</time>
      </trkpt>
      <trkpt lat="42.2396" lon="1.92021">
        <ele>803.49</ele>
        <time>2021-07-31T14:31:04Z</time>
      </trkpt>
      <trkpt lat="42.23936" lon="1.91972">
        <ele>801.21</ele>
        <time>2021-07-31T14:31:08Z</time>
      </trkpt>
      <trkpt lat="42.23901" lon="1.91928">
        <ele>799.49</ele>
        <time>2021-07-31T14:31:12Z</time>
      </trkpt>
      <trkpt lat="42.23863" lon="1.91906">
        <ele>796.4</ele>
        <time>2021-07-31T14:31:19Z</time>
      </trkpt>
      <trkpt lat="42.23857" lon="1.91904">
        <ele>795.59</ele>
        <time>2021-07-31T14:31:21Z</time>
      </trkpt>
      <trkpt lat="42.23847" lon="1.91875">
        <ele>794.52</ele>
        <time>2021-07-31T14:31:25Z</time>
      </trkpt>
      <trkpt lat="42.23842" lon="1.91742">
        <ele>794.02</ele>
        <time>2021-07-31T14:31:32Z</time>
      </trkpt>
      <trkpt lat="42.23852" lon="1.91539">
        <ele>793.86</ele>
        <time>2021-07-31T14:31:39Z</time>
      </trkpt>
      <trkpt lat="42.23869" lon="1.91218">
        <ele>791.31</ele>
        <time>2021-07-31T14:31:49Z</time>
      </trkpt>
      <trkpt lat="42.23871" lon="1.91162">
        <ele>790.36</ele>
        <time>2021-07-31T14:31:51Z</time>
      </trkpt>
      <trkpt lat="42.23836" lon="1.90973">
        <ele>786.43</ele>
        <time>2021-07-31T14:31:58Z</time>
      </trkpt>
      <trkpt lat="42.23814" lon="1.9079">
        <ele>783.05</ele>
        <time>2021-07-31T14:32:04Z</time>
      </trkpt>
      <trkpt lat="42.23828" lon="1.90546">
        <ele>779.99</ele>
        <time>2021-07-31T14:32:11Z</time>
      </trkpt>
      <trkpt lat="42.23844" lon="1.90308">
        <ele>776.8</ele>
        <time>2021-07-31T14:32:18Z</time>
      </trkpt>
      <trkpt lat="42.23854" lon="1.90173">
        <ele>773.57</ele>
        <time>2021-07-31T14:32:23Z</time>
      </trkpt>
      <trkpt lat="42.23824" lon="1.9005">
        <ele>770.77</ele>
        <time>2021-07-31T14:32:28Z</time>
      </trkpt>
      <trkpt lat="42.2381" lon="1.90027">
        <ele>770.33</ele>
        <time>2021-07-31T14:32:29Z</time>
      </trkpt>
      <trkpt lat="42.23768" lon="1.89958">
        <ele>769.04</ele>
        <time>2021-07-31T14:32:32Z</time>
      </trkpt>
      <trkpt lat="42.2373" lon="1.898">
        <ele>767.32</ele>
        <time>2021-07-31T14:32:38Z</time>
      </trkpt>
      <trkpt lat="42.23693" lon="1.89557">
        <ele>764.25</ele>
        <time>2021-07-31T14:32:47Z</time>
      </trkpt>
      <trkpt lat="42.23686" lon="1.89518">
        <ele>763.37</ele>
        <time>2021-07-31T14:32:49Z</time>
      </trkpt>
      <trkpt lat="42.23628" lon="1.89433">
        <ele>760.97</ele>
        <time>2021-07-31T14:32:55Z</time>
      </trkpt>
      <trkpt lat="42.23612" lon="1.89427">
        <ele>760.64</ele>
        <time>2021-07-31T14:32:56Z</time>
      </trkpt>
      <trkpt lat="42.23532" lon="1.8939">
        <ele>759.59</ele>
        <time>2021-07-31T14:33:01Z</time>
      </trkpt>
      <trkpt lat="42.23466" lon="1.89279">
        <ele>757.82</ele>
        <time>2021-07-31T14:33:07Z</time>
      </trkpt>
      <trkpt lat="42.23461" lon="1.89227">
        <ele>757.31</ele>
        <time>2021-07-31T14:33:09Z</time>
      </trkpt>
      <trkpt lat="42.2346" lon="1.89175">
        <ele>756.89</ele>
        <time>2021-07-31T14:33:11Z</time>
      </trkpt>
      <trkpt lat="42.23424" lon="1.89062">
        <ele>756.04</ele>
        <time>2021-07-31T14:33:16Z</time>
      </trkpt>
      <trkpt lat="42.2341" lon="1.89042">
        <ele>755.87</ele>
        <time>2021-07-31T14:33:17Z</time>
      </trkpt>
      <trkpt lat="42.23395" lon="1.89023">
        <ele>755.73</ele>
        <time>2021-07-31T14:33:18Z</time>
      </trkpt>
      <trkpt lat="42.23368" lon="1.88979">
        <ele>755.43</ele>
        <time>2021-07-31T14:33:20Z</time>
      </trkpt>
      <trkpt lat="42.23299" lon="1.88778">
        <ele>753.96</ele>
        <time>2021-07-31T14:33:28Z</time>
      </trkpt>
      <trkpt lat="42.23239" lon="1.88611">
        <ele>751.48</ele>
        <time>2021-07-31T14:33:36Z</time>
      </trkpt>
      <trkpt lat="42.23234" lon="1.88596">
        <ele>750.99</ele>
        <time>2021-07-31T14:33:37Z</time>
      </trkpt>
      <trkpt lat="42.23244" lon="1.88539">
        <ele>747.49</ele>
        <time>2021-07-31T14:33:43Z</time>
      </trkpt>
      <trkpt lat="42.23227" lon="1.88524">
        <ele>746.39</ele>
        <time>2021-07-31T14:33:46Z</time>
      </trkpt>
      <trkpt lat="42.23186" lon="1.88463">
        <ele>745.13</ele>
        <time>2021-07-31T14:33:52Z</time>
      </trkpt>
      <trkpt lat="42.23104" lon="1.88354">
        <ele>744.81</ele>
        <time>2021-07-31T14:34:00Z</time>
      </trkpt>
      <trkpt lat="42.2307" lon="1.88307">
        <ele>744.22</ele>
        <time>2021-07-31T14:34:04Z</time>
      </trkpt>
      <trkpt lat="42.23074" lon="1.88266">
        <ele>742.48</ele>
        <time>2021-07-31T14:34:10Z</time>
      </trkpt>
      <trkpt lat="42.23077" lon="1.88231">
        <ele>741.95</ele>
        <time>2021-07-31T14:34:14Z</time>
      </trkpt>
      <trkpt lat="42.23129" lon="1.88086">
        <ele>741.98</ele>
        <time>2021-07-31T14:34:23Z</time>
      </trkpt>
      <trkpt lat="42.23136" lon="1.88073">
        <ele>741.98</ele>
        <time>2021-07-31T14:34:24Z</time>
      </trkpt>
      <trkpt lat="42.23142" lon="1.88063">
        <ele>741.96</ele>
        <time>2021-07-31T14:34:25Z</time>
      </trkpt>
      <trkpt lat="42.23168" lon="1.88043">
        <ele>741.5</ele>
        <time>2021-07-31T14:34:29Z</time>
      </trkpt>
      <trkpt lat="42.23245" lon="1.88012">
        <ele>739.92</ele>
        <time>2021-07-31T14:34:40Z</time>
      </trkpt>
      <trkpt lat="42.23278" lon="1.87994">
        <ele>739.72</ele>
        <time>2021-07-31T14:34:45Z</time>
      </trkpt>
      <trkpt lat="42.23295" lon="1.87971">
        <ele>739.59</ele>
        <time>2021-07-31T14:34:49Z</time>
      </trkpt>
      <trkpt lat="42.23317" lon="1.87947">
        <ele>739.09</ele>
        <time>2021-07-31T14:34:54Z</time>
      </trkpt>
      <trkpt lat="42.23332" lon="1.87944">
        <ele>739.04</ele>
        <time>2021-07-31T14:34:56Z</time>
      </trkpt>
      <trkpt lat="42.23385" lon="1.87889">
        <ele>740.22</ele>
        <time>2021-07-31T14:35:04Z</time>
      </trkpt>
      <trkpt lat="42.23388" lon="1.87875">
        <ele>740.41</ele>
        <time>2021-07-31T14:35:06Z</time>
      </trkpt>
      <trkpt lat="42.23405" lon="1.87789">
        <ele>741.35</ele>
        <time>2021-07-31T14:35:15Z</time>
      </trkpt>
      <trkpt lat="42.23414" lon="1.87752">
        <ele>742.1</ele>
        <time>2021-07-31T14:35:21Z</time>
      </trkpt>
      <trkpt lat="42.23456" lon="1.87683">
        <ele>744.17</ele>
        <time>2021-07-31T14:35:34Z</time>
      </trkpt>
      <trkpt lat="42.2355" lon="1.876">
        <ele>747.22</ele>
        <time>2021-07-31T14:35:46Z</time>
      </trkpt>
      <trkpt lat="42.23612" lon="1.87551">
        <ele>748.12</ele>
        <time>2021-07-31T14:35:54Z</time>
      </trkpt>
      <trkpt lat="42.23669" lon="1.8756">
        <ele>747.92</ele>
        <time>2021-07-31T14:36:01Z</time>
      </trkpt>
      <trkpt lat="42.23713" lon="1.87596">
        <ele>747.83</ele>
        <time>2021-07-31T14:36:07Z</time>
      </trkpt>
      <trkpt lat="42.23735" lon="1.87588">
        <ele>747.81</ele>
        <time>2021-07-31T14:36:11Z</time>
      </trkpt>
      <trkpt lat="42.23824" lon="1.87515">
        <ele>751.17</ele>
        <time>2021-07-31T14:36:20Z</time>
      </trkpt>
      <trkpt lat="42.23878" lon="1.87475">
        <ele>754.37</ele>
        <time>2021-07-31T14:36:24Z</time>
      </trkpt>
      <trkpt lat="42.23945" lon="1.87418">
        <ele>757.85</ele>
        <time>2021-07-31T14:36:29Z</time>
      </trkpt>
      <trkpt lat="42.23972" lon="1.87396">
        <ele>758.84</ele>
        <time>2021-07-31T14:36:31Z</time>
      </trkpt>
      <trkpt lat="42.24034" lon="1.87377">
        <ele>760.57</ele>
        <time>2021-07-31T14:36:35Z</time>
      </trkpt>
      <trkpt lat="42.2413" lon="1.87369">
        <ele>763.15</ele>
        <time>2021-07-31T14:36:41Z</time>
      </trkpt>
      <trkpt lat="42.24201" lon="1.87316">
        <ele>765.29</ele>
        <time>2021-07-31T14:36:46Z</time>
      </trkpt>
      <trkpt lat="42.24323" lon="1.87173">
        <ele>769.04</ele>
        <time>2021-07-31T14:36:55Z</time>
      </trkpt>
      <trkpt lat="42.24448" lon="1.87057">
        <ele>772.14</ele>
        <time>2021-07-31T14:37:04Z</time>
      </trkpt>
      <trkpt lat="42.24578" lon="1.86941">
        <ele>775.43</ele>
        <time>2021-07-31T14:37:14Z</time>
      </trkpt>
      <trkpt lat="42.24635" lon="1.86913">
        <ele>777.03</ele>
        <time>2021-07-31T14:37:20Z</time>
      </trkpt>
      <trkpt lat="42.24641" lon="1.86909">
        <ele>777.34</ele>
        <time>2021-07-31T14:37:21Z</time>
      </trkpt>
      <trkpt lat="42.24646" lon="1.86902">
        <ele>777.7</ele>
        <time>2021-07-31T14:37:22Z</time>
      </trkpt>
      <trkpt lat="42.24649" lon="1.86894">
        <ele>778.01</ele>
        <time>2021-07-31T14:37:23Z</time>
      </trkpt>
      <trkpt lat="42.24656" lon="1.86877">
        <ele>778.78</ele>
        <time>2021-07-31T14:37:26Z</time>
      </trkpt>
      <trkpt lat="42.24659" lon="1.86873">
        <ele>779.03</ele>
        <time>2021-07-31T14:37:27Z</time>
      </trkpt>
      <trkpt lat="42.24663" lon="1.86869">
        <ele>779.26</ele>
        <time>2021-07-31T14:37:28Z</time>
      </trkpt>
      <trkpt lat="42.24668" lon="1.86866">
        <ele>779.43</ele>
        <time>2021-07-31T14:37:29Z</time>
      </trkpt>
      <trkpt lat="42.24674" lon="1.86866">
        <ele>779.58</ele>
        <time>2021-07-31T14:37:30Z</time>
      </trkpt>
      <trkpt lat="42.24681" lon="1.86865">
        <ele>779.71</ele>
        <time>2021-07-31T14:37:31Z</time>
      </trkpt>
      <trkpt lat="42.24687" lon="1.86862">
        <ele>779.85</ele>
        <time>2021-07-31T14:37:32Z</time>
      </trkpt>
      <trkpt lat="42.24693" lon="1.86856">
        <ele>780.03</ele>
        <time>2021-07-31T14:37:33Z</time>
      </trkpt>
      <trkpt lat="42.24724" lon="1.86817">
        <ele>780.53</ele>
        <time>2021-07-31T14:37:38Z</time>
      </trkpt>
      <trkpt lat="42.24849" lon="1.86704">
        <ele>780.93</ele>
        <time>2021-07-31T14:37:53Z</time>
      </trkpt>
      <trkpt lat="42.24965" lon="1.86593">
        <ele>783.2</ele>
        <time>2021-07-31T14:38:08Z</time>
      </trkpt>
      <trkpt lat="42.25015" lon="1.86545">
        <ele>785.22</ele>
        <time>2021-07-31T14:38:17Z</time>
      </trkpt>
      <trkpt lat="42.25056" lon="1.86504">
        <ele>787.46</ele>
        <time>2021-07-31T14:38:27Z</time>
      </trkpt>
      <trkpt lat="42.25101" lon="1.86461">
        <ele>790.09</ele>
        <time>2021-07-31T14:38:35Z</time>
      </trkpt>
      <trkpt lat="42.25122" lon="1.86463">
        <ele>791.23</ele>
        <time>2021-07-31T14:38:39Z</time>
      </trkpt>
      <trkpt lat="42.25136" lon="1.86473">
        <ele>791.89</ele>
        <time>2021-07-31T14:38:41Z</time>
      </trkpt>
      <trkpt lat="42.25192" lon="1.8651">
        <ele>795.6</ele>
        <time>2021-07-31T14:38:48Z</time>
      </trkpt>
      <trkpt lat="42.25199" lon="1.86515">
        <ele>796.29</ele>
        <time>2021-07-31T14:38:49Z</time>
      </trkpt>
      <trkpt lat="42.2521" lon="1.86546">
        <ele>798.82</ele>
        <time>2021-07-31T14:38:53Z</time>
      </trkpt>
      <trkpt lat="42.25227" lon="1.8657">
        <ele>802.46</ele>
        <time>2021-07-31T14:39:00Z</time>
      </trkpt>
      <trkpt lat="42.25227" lon="1.86539">
        <ele>803.59</ele>
        <time>2021-07-31T14:39:03Z</time>
      </trkpt>
      <trkpt lat="42.25229" lon="1.865">
        <ele>804.09</ele>
        <time>2021-07-31T14:39:08Z</time>
      </trkpt>
      <trkpt lat="42.25248" lon="1.86413">
        <ele>806.16</ele>
        <time>2021-07-31T14:39:17Z</time>
      </trkpt>
      <trkpt lat="42.25252" lon="1.86398">
        <ele>806.83</ele>
        <time>2021-07-31T14:39:19Z</time>
      </trkpt>
      <trkpt lat="42.25279" lon="1.86375">
        <ele>808.19</ele>
        <time>2021-07-31T14:39:24Z</time>
      </trkpt>
      <trkpt lat="42.25347" lon="1.86343">
        <ele>810.27</ele>
        <time>2021-07-31T14:39:34Z</time>
      </trkpt>
      <trkpt lat="42.25371" lon="1.86332">
        <ele>810.25</ele>
        <time>2021-07-31T14:39:37Z</time>
      </trkpt>
      <trkpt lat="42.25403" lon="1.86294">
        <ele>809.06</ele>
        <time>2021-07-31T14:39:43Z</time>
      </trkpt>
      <trkpt lat="42.2542" lon="1.86258">
        <ele>806.86</ele>
        <time>2021-07-31T14:39:49Z</time>
      </trkpt>
      <trkpt lat="42.25429" lon="1.86244">
        <ele>806.42</ele>
        <time>2021-07-31T14:39:53Z</time>
      </trkpt>
      <trkpt lat="42.2548" lon="1.86261">
        <ele>808.36</ele>
        <time>2021-07-31T14:40:01Z</time>
      </trkpt>
      <trkpt lat="42.25538" lon="1.86278">
        <ele>811.96</ele>
        <time>2021-07-31T14:40:07Z</time>
      </trkpt>
      <trkpt lat="42.25564" lon="1.86288">
        <ele>813.79</ele>
        <time>2021-07-31T14:40:10Z</time>
      </trkpt>
      <trkpt lat="42.25573" lon="1.86286">
        <ele>814.44</ele>
        <time>2021-07-31T14:40:11Z</time>
      </trkpt>
      <trkpt lat="42.2558" lon="1.86281">
        <ele>815.15</ele>
        <time>2021-07-31T14:40:12Z</time>
      </trkpt>
      <trkpt lat="42.2559" lon="1.86235">
        <ele>818.26</ele>
        <time>2021-07-31T14:40:17Z</time>
      </trkpt>
      <trkpt lat="42.25553" lon="1.86209">
        <ele>820.73</ele>
        <time>2021-07-31T14:40:21Z</time>
      </trkpt>
      <trkpt lat="42.25501" lon="1.86195">
        <ele>822.26</ele>
        <time>2021-07-31T14:40:26Z</time>
      </trkpt>
      <trkpt lat="42.25423" lon="1.86151">
        <ele>823.16</ele>
        <time>2021-07-31T14:40:35Z</time>
      </trkpt>
      <trkpt lat="42.25407" lon="1.86118">
        <ele>824.04</ele>
        <time>2021-07-31T14:40:39Z</time>
      </trkpt>
      <trkpt lat="42.25378" lon="1.85975">
        <ele>826.39</ele>
        <time>2021-07-31T14:40:52Z</time>
      </trkpt>
      <trkpt lat="42.25364" lon="1.85897">
        <ele>823.25</ele>
        <time>2021-07-31T14:40:58Z</time>
      </trkpt>
      <trkpt lat="42.25356" lon="1.85865">
        <ele>819.67</ele>
        <time>2021-07-31T14:41:01Z</time>
      </trkpt>
      <trkpt lat="42.25349" lon="1.85835">
        <ele>816.65</ele>
        <time>2021-07-31T14:41:04Z</time>
      </trkpt>
      <trkpt lat="42.25345" lon="1.85807">
        <ele>813.4</ele>
        <time>2021-07-31T14:41:07Z</time>
      </trkpt>
      <trkpt lat="42.25352" lon="1.85772">
        <ele>810.78</ele>
        <time>2021-07-31T14:41:10Z</time>
      </trkpt>
      <trkpt lat="42.25359" lon="1.85747">
        <ele>809.72</ele>
        <time>2021-07-31T14:41:12Z</time>
      </trkpt>
      <trkpt lat="42.25416" lon="1.85614">
        <ele>810.4</ele>
        <time>2021-07-31T14:41:21Z</time>
      </trkpt>
      <trkpt lat="42.25461" lon="1.85477">
        <ele>813.73</ele>
        <time>2021-07-31T14:41:29Z</time>
      </trkpt>
      <trkpt lat="42.25498" lon="1.85372">
        <ele>815.87</ele>
        <time>2021-07-31T14:41:36Z</time>
      </trkpt>
      <trkpt lat="42.25511" lon="1.85341">
        <ele>816.25</ele>
        <time>2021-07-31T14:41:38Z</time>
      </trkpt>
      <trkpt lat="42.25535" lon="1.85256">
        <ele>817.32</ele>
        <time>2021-07-31T14:41:43Z</time>
      </trkpt>
      <trkpt lat="42.25564" lon="1.85202">
        <ele>818.43</ele>
        <time>2021-07-31T14:41:47Z</time>
      </trkpt>
      <trkpt lat="42.2559" lon="1.851">
        <ele>821.23</ele>
        <time>2021-07-31T14:41:53Z</time>
      </trkpt>
      <trkpt lat="42.25593" lon="1.85047">
        <ele>822.9</ele>
        <time>2021-07-31T14:41:56Z</time>
      </trkpt>
      <trkpt lat="42.2561" lon="1.84977">
        <ele>824.73</ele>
        <time>2021-07-31T14:42:00Z</time>
      </trkpt>
      <trkpt lat="42.2567" lon="1.84824">
        <ele>827.94</ele>
        <time>2021-07-31T14:42:09Z</time>
      </trkpt>
      <trkpt lat="42.25727" lon="1.84749">
        <ele>825.76</ele>
        <time>2021-07-31T14:42:16Z</time>
      </trkpt>
      <trkpt lat="42.25724" lon="1.84752">
        <ele>822.69</ele>
        <time>2021-07-31T14:42:22Z</time>
      </trkpt>
      <trkpt lat="42.25743" lon="1.84735">
        <ele>821.6</ele>
        <time>2021-07-31T14:42:28Z</time>
      </trkpt>
      <trkpt lat="42.2582" lon="1.84698">
        <ele>823.52</ele>
        <time>2021-07-31T14:42:37Z</time>
      </trkpt>
      <trkpt lat="42.25852" lon="1.84677">
        <ele>825.39</ele>
        <time>2021-07-31T14:42:41Z</time>
      </trkpt>
      <trkpt lat="42.2586" lon="1.8467">
        <ele>825.68</ele>
        <time>2021-07-31T14:42:42Z</time>
      </trkpt>
      <trkpt lat="42.25889" lon="1.84628">
        <ele>827.16</ele>
        <time>2021-07-31T14:42:50Z</time>
      </trkpt>
      <trkpt lat="42.25895" lon="1.84617">
        <ele>827.5</ele>
        <time>2021-07-31T14:43:00Z</time>
      </trkpt>
      <trkpt lat="42.25916" lon="1.84585">
        <ele>827.89</ele>
        <time>2021-07-31T14:43:09Z</time>
      </trkpt>
      <trkpt lat="42.25967" lon="1.8453">
        <ele>829.52</ele>
        <time>2021-07-31T14:43:18Z</time>
      </trkpt>
      <trkpt lat="42.25991" lon="1.84513">
        <ele>830.59</ele>
        <time>2021-07-31T14:43:21Z</time>
      </trkpt>
      <trkpt lat="42.26029" lon="1.84435">
        <ele>834.09</ele>
        <time>2021-07-31T14:43:28Z</time>
      </trkpt>
      <trkpt lat="42.26031" lon="1.84423">
        <ele>834.58</ele>
        <time>2021-07-31T14:43:29Z</time>
      </trkpt>
      <trkpt lat="42.2608" lon="1.84322">
        <ele>836.3</ele>
        <time>2021-07-31T14:43:37Z</time>
      </trkpt>
      <trkpt lat="42.26107" lon="1.84281">
        <ele>837.28</ele>
        <time>2021-07-31T14:43:40Z</time>
      </trkpt>
      <trkpt lat="42.26127" lon="1.84199">
        <ele>839.67</ele>
        <time>2021-07-31T14:43:45Z</time>
      </trkpt>
      <trkpt lat="42.26147" lon="1.84083">
        <ele>842.91</ele>
        <time>2021-07-31T14:43:52Z</time>
      </trkpt>
      <trkpt lat="42.26201" lon="1.83997">
        <ele>845.86</ele>
        <time>2021-07-31T14:43:59Z</time>
      </trkpt>
      <trkpt lat="42.26282" lon="1.83922">
        <ele>849.63</ele>
        <time>2021-07-31T14:44:06Z</time>
      </trkpt>
      <trkpt lat="42.26329" lon="1.83868">
        <ele>851.92</ele>
        <time>2021-07-31T14:44:11Z</time>
      </trkpt>
      <trkpt lat="42.26337" lon="1.83835">
        <ele>852.64</ele>
        <time>2021-07-31T14:44:16Z</time>
      </trkpt>
      <trkpt lat="42.26319" lon="1.83762">
        <ele>853.32</ele>
        <time>2021-07-31T14:44:24Z</time>
      </trkpt>
      <trkpt lat="42.26314" lon="1.83742">
        <ele>853.33</ele>
        <time>2021-07-31T14:44:26Z</time>
      </trkpt>
      <trkpt lat="42.26294" lon="1.8372">
        <ele>853.11</ele>
        <time>2021-07-31T14:44:31Z</time>
      </trkpt>
      <trkpt lat="42.26268" lon="1.83726">
        <ele>852.51</ele>
        <time>2021-07-31T14:44:39Z</time>
      </trkpt>
      <trkpt lat="42.26259" lon="1.83744">
        <ele>853.78</ele>
        <time>2021-07-31T14:44:48Z</time>
      </trkpt>
      <trkpt lat="42.26256" lon="1.83758">
        <ele>854.68</ele>
        <time>2021-07-31T14:45:29Z</time>
      </trkpt>
      <trkpt lat="42.26256" lon="1.83812">
        <ele>855.75</ele>
        <time>2021-07-31T14:45:35Z</time>
      </trkpt>
      <trkpt lat="42.26211" lon="1.83851">
        <ele>859.09</ele>
        <time>2021-07-31T14:45:41Z</time>
      </trkpt>
      <trkpt lat="42.2619" lon="1.8385">
        <ele>860.76</ele>
        <time>2021-07-31T14:45:43Z</time>
      </trkpt>
      <trkpt lat="42.26148" lon="1.8384">
        <ele>864.16</ele>
        <time>2021-07-31T14:45:47Z</time>
      </trkpt>
      <trkpt lat="42.26137" lon="1.83812">
        <ele>868.11</ele>
        <time>2021-07-31T14:45:52Z</time>
      </trkpt>
      <trkpt lat="42.26164" lon="1.83804">
        <ele>870.74</ele>
        <time>2021-07-31T14:45:56Z</time>
      </trkpt>
      <trkpt lat="42.26185" lon="1.83801">
        <ele>872.86</ele>
        <time>2021-07-31T14:45:58Z</time>
      </trkpt>
      <trkpt lat="42.26204" lon="1.83752">
        <ele>876.95</ele>
        <time>2021-07-31T14:46:03Z</time>
      </trkpt>
      <trkpt lat="42.26203" lon="1.83737">
        <ele>877.84</ele>
        <time>2021-07-31T14:46:04Z</time>
      </trkpt>
      <trkpt lat="42.262" lon="1.83657">
        <ele>882.33</ele>
        <time>2021-07-31T14:46:09Z</time>
      </trkpt>
      <trkpt lat="42.26198" lon="1.83599">
        <ele>885.9</ele>
        <time>2021-07-31T14:46:12Z</time>
      </trkpt>
      <trkpt lat="42.26199" lon="1.83579">
        <ele>887.06</ele>
        <time>2021-07-31T14:46:13Z</time>
      </trkpt>
      <trkpt lat="42.26185" lon="1.83498">
        <ele>891.96</ele>
        <time>2021-07-31T14:46:17Z</time>
      </trkpt>
      <trkpt lat="42.26194" lon="1.83426">
        <ele>897.09</ele>
        <time>2021-07-31T14:46:21Z</time>
      </trkpt>
      <trkpt lat="42.26212" lon="1.83371">
        <ele>901.15</ele>
        <time>2021-07-31T14:46:24Z</time>
      </trkpt>
      <trkpt lat="42.26224" lon="1.83293">
        <ele>906.56</ele>
        <time>2021-07-31T14:46:28Z</time>
      </trkpt>
      <trkpt lat="42.26243" lon="1.83253">
        <ele>911.19</ele>
        <time>2021-07-31T14:46:32Z</time>
      </trkpt>
      <trkpt lat="42.26256" lon="1.83256">
        <ele>914.9</ele>
        <time>2021-07-31T14:46:36Z</time>
      </trkpt>
      <trkpt lat="42.26255" lon="1.83257">
        <ele>917.97</ele>
        <time>2021-07-31T14:46:42Z</time>
      </trkpt>
      <trkpt lat="42.26283" lon="1.83257">
        <ele>919.48</ele>
        <time>2021-07-31T14:46:49Z</time>
      </trkpt>
      <trkpt lat="42.26298" lon="1.83209">
        <ele>921.19</ele>
        <time>2021-07-31T14:46:54Z</time>
      </trkpt>
      <trkpt lat="42.26316" lon="1.83162">
        <ele>922.51</ele>
        <time>2021-07-31T14:46:58Z</time>
      </trkpt>
      <trkpt lat="42.26308" lon="1.83083">
        <ele>925.11</ele>
        <time>2021-07-31T14:47:03Z</time>
      </trkpt>
      <trkpt lat="42.26298" lon="1.83043">
        <ele>926.36</ele>
        <time>2021-07-31T14:47:05Z</time>
      </trkpt>
      <trkpt lat="42.26304" lon="1.82938">
        <ele>930.12</ele>
        <time>2021-07-31T14:47:10Z</time>
      </trkpt>
      <trkpt lat="42.26307" lon="1.82901">
        <ele>931.84</ele>
        <time>2021-07-31T14:47:12Z</time>
      </trkpt>
      <trkpt lat="42.26284" lon="1.82845">
        <ele>935.33</ele>
        <time>2021-07-31T14:47:17Z</time>
      </trkpt>
      <trkpt lat="42.26217" lon="1.82795">
        <ele>938.23</ele>
        <time>2021-07-31T14:47:23Z</time>
      </trkpt>
      <trkpt lat="42.2619" lon="1.82781">
        <ele>939.47</ele>
        <time>2021-07-31T14:47:25Z</time>
      </trkpt>
      <trkpt lat="42.26172" lon="1.8272">
        <ele>942.25</ele>
        <time>2021-07-31T14:47:30Z</time>
      </trkpt>
      <trkpt lat="42.2619" lon="1.82657">
        <ele>944.55</ele>
        <time>2021-07-31T14:47:34Z</time>
      </trkpt>
      <trkpt lat="42.26173" lon="1.8258">
        <ele>948.67</ele>
        <time>2021-07-31T14:47:39Z</time>
      </trkpt>
      <trkpt lat="42.26196" lon="1.82538">
        <ele>950.52</ele>
        <time>2021-07-31T14:47:43Z</time>
      </trkpt>
      <trkpt lat="42.26206" lon="1.82532">
        <ele>951.03</ele>
        <time>2021-07-31T14:47:44Z</time>
      </trkpt>
      <trkpt lat="42.26246" lon="1.82511">
        <ele>953.01</ele>
        <time>2021-07-31T14:47:47Z</time>
      </trkpt>
      <trkpt lat="42.26299" lon="1.82501">
        <ele>955.53</ele>
        <time>2021-07-31T14:47:51Z</time>
      </trkpt>
      <trkpt lat="42.2631" lon="1.8245">
        <ele>958.35</ele>
        <time>2021-07-31T14:47:56Z</time>
      </trkpt>
      <trkpt lat="42.26308" lon="1.82434">
        <ele>958.83</ele>
        <time>2021-07-31T14:47:57Z</time>
      </trkpt>
      <trkpt lat="42.26291" lon="1.82341">
        <ele>961.35</ele>
        <time>2021-07-31T14:48:02Z</time>
      </trkpt>
      <trkpt lat="42.26317" lon="1.82267">
        <ele>963.29</ele>
        <time>2021-07-31T14:48:07Z</time>
      </trkpt>
      <trkpt lat="42.26327" lon="1.82222">
        <ele>964.3</ele>
        <time>2021-07-31T14:48:10Z</time>
      </trkpt>
      <trkpt lat="42.26327" lon="1.82129">
        <ele>965.79</ele>
        <time>2021-07-31T14:48:15Z</time>
      </trkpt>
      <trkpt lat="42.2635" lon="1.82079">
        <ele>966.51</ele>
        <time>2021-07-31T14:48:20Z</time>
      </trkpt>
      <trkpt lat="42.2636" lon="1.82073">
        <ele>966.78</ele>
        <time>2021-07-31T14:48:22Z</time>
      </trkpt>
      <trkpt lat="42.26364" lon="1.8203">
        <ele>967.34</ele>
        <time>2021-07-31T14:48:27Z</time>
      </trkpt>
      <trkpt lat="42.26348" lon="1.81976">
        <ele>967.96</ele>
        <time>2021-07-31T14:48:31Z</time>
      </trkpt>
      <trkpt lat="42.26355" lon="1.81925">
        <ele>969.14</ele>
        <time>2021-07-31T14:48:35Z</time>
      </trkpt>
      <trkpt lat="42.26357" lon="1.81878">
        <ele>970.59</ele>
        <time>2021-07-31T14:48:39Z</time>
      </trkpt>
      <trkpt lat="42.26354" lon="1.81851">
        <ele>971.81</ele>
        <time>2021-07-31T14:48:42Z</time>
      </trkpt>
      <trkpt lat="42.26355" lon="1.8184">
        <ele>972.99</ele>
        <time>2021-07-31T14:48:45Z</time>
      </trkpt>
      <trkpt lat="42.2638" lon="1.81807">
        <ele>975.57</ele>
        <time>2021-07-31T14:48:55Z</time>
      </trkpt>
      <trkpt lat="42.26398" lon="1.81764">
        <ele>976.69</ele>
        <time>2021-07-31T14:49:02Z</time>
      </trkpt>
      <trkpt lat="42.26389" lon="1.81723">
        <ele>977.84</ele>
        <time>2021-07-31T14:49:07Z</time>
      </trkpt>
      <trkpt lat="42.26368" lon="1.81693">
        <ele>979.24</ele>
        <time>2021-07-31T14:49:11Z</time>
      </trkpt>
      <trkpt lat="42.26345" lon="1.81596">
        <ele>982.53</ele>
        <time>2021-07-31T14:49:20Z</time>
      </trkpt>
      <trkpt lat="42.26344" lon="1.81583">
        <ele>982.94</ele>
        <time>2021-07-31T14:49:21Z</time>
      </trkpt>
      <trkpt lat="42.26323" lon="1.81503">
        <ele>984.92</ele>
        <time>2021-07-31T14:49:27Z</time>
      </trkpt>
      <trkpt lat="42.26338" lon="1.81382">
        <ele>985.24</ele>
        <time>2021-07-31T14:49:36Z</time>
      </trkpt>
      <trkpt lat="42.26372" lon="1.81339">
        <ele>984.56</ele>
        <time>2021-07-31T14:49:42Z</time>
      </trkpt>
      <trkpt lat="42.26394" lon="1.8132">
        <ele>984.07</ele>
        <time>2021-07-31T14:49:45Z</time>
      </trkpt>
      <trkpt lat="42.26398" lon="1.81266">
        <ele>983.64</ele>
        <time>2021-07-31T14:49:52Z</time>
      </trkpt>
      <trkpt lat="42.26378" lon="1.81239">
        <ele>983.09</ele>
        <time>2021-07-31T14:49:56Z</time>
      </trkpt>
      <trkpt lat="42.26381" lon="1.81194">
        <ele>981.86</ele>
        <time>2021-07-31T14:50:01Z</time>
      </trkpt>
      <trkpt lat="42.26382" lon="1.81093">
        <ele>981.48</ele>
        <time>2021-07-31T14:50:10Z</time>
      </trkpt>
      <trkpt lat="42.26383" lon="1.81082">
        <ele>981.29</ele>
        <time>2021-07-31T14:50:11Z</time>
      </trkpt>
      <trkpt lat="42.26383" lon="1.81059">
        <ele>980.85</ele>
        <time>2021-07-31T14:50:13Z</time>
      </trkpt>
      <trkpt lat="42.2638" lon="1.81027">
        <ele>980.04</ele>
        <time>2021-07-31T14:50:16Z</time>
      </trkpt>
      <trkpt lat="42.26392" lon="1.8091">
        <ele>977.08</ele>
        <time>2021-07-31T14:50:26Z</time>
      </trkpt>
      <trkpt lat="42.26391" lon="1.80815">
        <ele>976.5</ele>
        <time>2021-07-31T14:50:33Z</time>
      </trkpt>
      <trkpt lat="42.26374" lon="1.80766">
        <ele>976.38</ele>
        <time>2021-07-31T14:50:37Z</time>
      </trkpt>
      <trkpt lat="42.26347" lon="1.80712">
        <ele>977.12</ele>
        <time>2021-07-31T14:50:42Z</time>
      </trkpt>
      <trkpt lat="42.26333" lon="1.80676">
        <ele>978.4</ele>
        <time>2021-07-31T14:50:45Z</time>
      </trkpt>
      <trkpt lat="42.26327" lon="1.8064">
        <ele>980.27</ele>
        <time>2021-07-31T14:50:49Z</time>
      </trkpt>
      <trkpt lat="42.2635" lon="1.80653">
        <ele>980.57</ele>
        <time>2021-07-31T14:50:54Z</time>
      </trkpt>
      <trkpt lat="42.26393" lon="1.80686">
        <ele>981.57</ele>
        <time>2021-07-31T14:50:59Z</time>
      </trkpt>
      <trkpt lat="42.26441" lon="1.80722">
        <ele>984.15</ele>
        <time>2021-07-31T14:51:07Z</time>
      </trkpt>
      <trkpt lat="42.26452" lon="1.80695">
        <ele>984.6</ele>
        <time>2021-07-31T14:51:12Z</time>
      </trkpt>
      <trkpt lat="42.26434" lon="1.80543">
        <ele>985.48</ele>
        <time>2021-07-31T14:51:23Z</time>
      </trkpt>
      <trkpt lat="42.26422" lon="1.80455">
        <ele>988.77</ele>
        <time>2021-07-31T14:51:30Z</time>
      </trkpt>
      <trkpt lat="42.2642" lon="1.80419">
        <ele>990.22</ele>
        <time>2021-07-31T14:51:33Z</time>
      </trkpt>
      <trkpt lat="42.26411" lon="1.80384">
        <ele>992.08</ele>
        <time>2021-07-31T14:51:37Z</time>
      </trkpt>
      <trkpt lat="42.26406" lon="1.80358">
        <ele>994.92</ele>
        <time>2021-07-31T14:51:43Z</time>
      </trkpt>
      <trkpt lat="42.26384" lon="1.80303">
        <ele>998.88</ele>
        <time>2021-07-31T14:51:50Z</time>
      </trkpt>
      <trkpt lat="42.26375" lon="1.80284">
        <ele>1000.53</ele>
        <time>2021-07-31T14:51:52Z</time>
      </trkpt>
      <trkpt lat="42.26356" lon="1.80231">
        <ele>1004.68</ele>
        <time>2021-07-31T14:51:57Z</time>
      </trkpt>
      <trkpt lat="42.26349" lon="1.80202">
        <ele>1007.81</ele>
        <time>2021-07-31T14:52:00Z</time>
      </trkpt>
      <trkpt lat="42.26343" lon="1.80168">
        <ele>1011.46</ele>
        <time>2021-07-31T14:52:04Z</time>
      </trkpt>
      <trkpt lat="42.26333" lon="1.80129">
        <ele>1014.51</ele>
        <time>2021-07-31T14:52:08Z</time>
      </trkpt>
      <trkpt lat="42.26331" lon="1.80119">
        <ele>1015.24</ele>
        <time>2021-07-31T14:52:09Z</time>
      </trkpt>
      <trkpt lat="42.26337" lon="1.80063">
        <ele>1018.86</ele>
        <time>2021-07-31T14:52:14Z</time>
      </trkpt>
      <trkpt lat="42.26346" lon="1.80019">
        <ele>1021.73</ele>
        <time>2021-07-31T14:52:18Z</time>
      </trkpt>
      <trkpt lat="42.2638" lon="1.80016">
        <ele>1025.29</ele>
        <time>2021-07-31T14:52:24Z</time>
      </trkpt>
      <trkpt lat="42.26396" lon="1.80051">
        <ele>1026.91</ele>
        <time>2021-07-31T14:52:27Z</time>
      </trkpt>
      <trkpt lat="42.26402" lon="1.80071">
        <ele>1028.13</ele>
        <time>2021-07-31T14:52:29Z</time>
      </trkpt>
      <trkpt lat="42.26418" lon="1.8008">
        <ele>1032.17</ele>
        <time>2021-07-31T14:52:34Z</time>
      </trkpt>
      <trkpt lat="42.26415" lon="1.80068">
        <ele>1033.59</ele>
        <time>2021-07-31T14:52:36Z</time>
      </trkpt>
      <trkpt lat="42.2641" lon="1.80031">
        <ele>1037.97</ele>
        <time>2021-07-31T14:52:42Z</time>
      </trkpt>
      <trkpt lat="42.26405" lon="1.80011">
        <ele>1039.56</ele>
        <time>2021-07-31T14:52:44Z</time>
      </trkpt>
      <trkpt lat="42.26406" lon="1.79979">
        <ele>1043.46</ele>
        <time>2021-07-31T14:52:49Z</time>
      </trkpt>
      <trkpt lat="42.26418" lon="1.79941">
        <ele>1047.11</ele>
        <time>2021-07-31T14:52:54Z</time>
      </trkpt>
      <trkpt lat="42.26408" lon="1.79916">
        <ele>1050.41</ele>
        <time>2021-07-31T14:52:59Z</time>
      </trkpt>
      <trkpt lat="42.26397" lon="1.79884">
        <ele>1053.53</ele>
        <time>2021-07-31T14:53:05Z</time>
      </trkpt>
      <trkpt lat="42.2641" lon="1.79813">
        <ele>1057.3</ele>
        <time>2021-07-31T14:53:12Z</time>
      </trkpt>
      <trkpt lat="42.26412" lon="1.79802">
        <ele>1057.95</ele>
        <time>2021-07-31T14:53:13Z</time>
      </trkpt>
      <trkpt lat="42.26414" lon="1.79749">
        <ele>1061.93</ele>
        <time>2021-07-31T14:53:18Z</time>
      </trkpt>
      <trkpt lat="42.26418" lon="1.79702">
        <ele>1064.87</ele>
        <time>2021-07-31T14:53:22Z</time>
      </trkpt>
      <trkpt lat="42.26405" lon="1.79646">
        <ele>1069</ele>
        <time>2021-07-31T14:53:27Z</time>
      </trkpt>
      <trkpt lat="42.26371" lon="1.79615">
        <ele>1072.62</ele>
        <time>2021-07-31T14:53:31Z</time>
      </trkpt>
      <trkpt lat="42.26334" lon="1.79588">
        <ele>1077.1</ele>
        <time>2021-07-31T14:53:36Z</time>
      </trkpt>
      <trkpt lat="42.26329" lon="1.79556">
        <ele>1081.66</ele>
        <time>2021-07-31T14:53:41Z</time>
      </trkpt>
      <trkpt lat="42.26356" lon="1.79544">
        <ele>1084.78</ele>
        <time>2021-07-31T14:53:45Z</time>
      </trkpt>
      <trkpt lat="42.26369" lon="1.79547">
        <ele>1086.12</ele>
        <time>2021-07-31T14:53:47Z</time>
      </trkpt>
      <trkpt lat="42.26391" lon="1.79554">
        <ele>1087.77</ele>
        <time>2021-07-31T14:53:50Z</time>
      </trkpt>
      <trkpt lat="42.2641" lon="1.79564">
        <ele>1089.58</ele>
        <time>2021-07-31T14:53:53Z</time>
      </trkpt>
      <trkpt lat="42.26431" lon="1.79557">
        <ele>1093.61</ele>
        <time>2021-07-31T14:53:59Z</time>
      </trkpt>
      <trkpt lat="42.26412" lon="1.79539">
        <ele>1097.11</ele>
        <time>2021-07-31T14:54:05Z</time>
      </trkpt>
      <trkpt lat="42.26402" lon="1.79529">
        <ele>1098.5</ele>
        <time>2021-07-31T14:54:07Z</time>
      </trkpt>
      <trkpt lat="42.26385" lon="1.79494">
        <ele>1103</ele>
        <time>2021-07-31T14:54:13Z</time>
      </trkpt>
      <trkpt lat="42.2636" lon="1.79442">
        <ele>1107.89</ele>
        <time>2021-07-31T14:54:19Z</time>
      </trkpt>
      <trkpt lat="42.26336" lon="1.79416">
        <ele>1110.25</ele>
        <time>2021-07-31T14:54:22Z</time>
      </trkpt>
      <trkpt lat="42.26299" lon="1.79392">
        <ele>1115.08</ele>
        <time>2021-07-31T14:54:27Z</time>
      </trkpt>
      <trkpt lat="42.26278" lon="1.79371">
        <ele>1117.86</ele>
        <time>2021-07-31T14:54:30Z</time>
      </trkpt>
      <trkpt lat="42.26262" lon="1.79343">
        <ele>1121.82</ele>
        <time>2021-07-31T14:54:35Z</time>
      </trkpt>
      <trkpt lat="42.26259" lon="1.79339">
        <ele>1124.99</ele>
        <time>2021-07-31T14:54:42Z</time>
      </trkpt>
      <trkpt lat="42.26251" lon="1.79325">
        <ele>1126.04</ele>
        <time>2021-07-31T14:54:51Z</time>
      </trkpt>
      <trkpt lat="42.26245" lon="1.79287">
        <ele>1126.3</ele>
        <time>2021-07-31T14:54:56Z</time>
      </trkpt>
      <trkpt lat="42.26264" lon="1.79202">
        <ele>1128.08</ele>
        <time>2021-07-31T14:55:04Z</time>
      </trkpt>
      <trkpt lat="42.26271" lon="1.79144">
        <ele>1131.74</ele>
        <time>2021-07-31T14:55:10Z</time>
      </trkpt>
      <trkpt lat="42.26271" lon="1.79134">
        <ele>1132.62</ele>
        <time>2021-07-31T14:55:11Z</time>
      </trkpt>
      <trkpt lat="42.26247" lon="1.79068">
        <ele>1136.6</ele>
        <time>2021-07-31T14:55:17Z</time>
      </trkpt>
      <trkpt lat="42.26236" lon="1.79045">
        <ele>1137.01</ele>
        <time>2021-07-31T14:55:19Z</time>
      </trkpt>
      <trkpt lat="42.26228" lon="1.79008">
        <ele>1137.08</ele>
        <time>2021-07-31T14:55:22Z</time>
      </trkpt>
      <trkpt lat="42.2621" lon="1.78959">
        <ele>1136.32</ele>
        <time>2021-07-31T14:55:29Z</time>
      </trkpt>
      <trkpt lat="42.26214" lon="1.78929">
        <ele>1136.17</ele>
        <time>2021-07-31T14:55:35Z</time>
      </trkpt>
      <trkpt lat="42.26243" lon="1.78921">
        <ele>1136.12</ele>
        <time>2021-07-31T14:55:39Z</time>
      </trkpt>
      <trkpt lat="42.26289" lon="1.78872">
        <ele>1136.39</ele>
        <time>2021-07-31T14:55:48Z</time>
      </trkpt>
      <trkpt lat="42.26277" lon="1.78847">
        <ele>1136.17</ele>
        <time>2021-07-31T14:55:51Z</time>
      </trkpt>
      <trkpt lat="42.26246" lon="1.78803">
        <ele>1134.53</ele>
        <time>2021-07-31T14:55:58Z</time>
      </trkpt>
      <trkpt lat="42.26247" lon="1.78784">
        <ele>1133.1</ele>
        <time>2021-07-31T14:56:02Z</time>
      </trkpt>
      <trkpt lat="42.26273" lon="1.7875">
        <ele>1132.65</ele>
        <time>2021-07-31T14:56:06Z</time>
      </trkpt>
      <trkpt lat="42.26307" lon="1.7873">
        <ele>1132.81</ele>
        <time>2021-07-31T14:56:10Z</time>
      </trkpt>
      <trkpt lat="42.26343" lon="1.78685">
        <ele>1134.01</ele>
        <time>2021-07-31T14:56:16Z</time>
      </trkpt>
      <trkpt lat="42.26367" lon="1.78652">
        <ele>1136.04</ele>
        <time>2021-07-31T14:56:21Z</time>
      </trkpt>
      <trkpt lat="42.26377" lon="1.78582">
        <ele>1139.34</ele>
        <time>2021-07-31T14:56:29Z</time>
      </trkpt>
      <trkpt lat="42.26372" lon="1.78568">
        <ele>1139.35</ele>
        <time>2021-07-31T14:56:31Z</time>
      </trkpt>
      <trkpt lat="42.26361" lon="1.78504">
        <ele>1139.06</ele>
        <time>2021-07-31T14:56:36Z</time>
      </trkpt>
      <trkpt lat="42.26355" lon="1.78442">
        <ele>1139.5</ele>
        <time>2021-07-31T14:56:41Z</time>
      </trkpt>
      <trkpt lat="42.26364" lon="1.78394">
        <ele>1142.2</ele>
        <time>2021-07-31T14:56:48Z</time>
      </trkpt>
      <trkpt lat="42.26381" lon="1.78399">
        <ele>1143.38</ele>
        <time>2021-07-31T14:56:50Z</time>
      </trkpt>
      <trkpt lat="42.26422" lon="1.78412">
        <ele>1146.37</ele>
        <time>2021-07-31T14:56:55Z</time>
      </trkpt>
      <trkpt lat="42.26451" lon="1.7839">
        <ele>1150.76</ele>
        <time>2021-07-31T14:57:01Z</time>
      </trkpt>
      <trkpt lat="42.26449" lon="1.78341">
        <ele>1154.41</ele>
        <time>2021-07-31T14:57:06Z</time>
      </trkpt>
      <trkpt lat="42.26443" lon="1.78303">
        <ele>1158.97</ele>
        <time>2021-07-31T14:57:12Z</time>
      </trkpt>
      <trkpt lat="42.26457" lon="1.78285">
        <ele>1162.04</ele>
        <time>2021-07-31T14:57:16Z</time>
      </trkpt>
      <trkpt lat="42.26471" lon="1.78259">
        <ele>1164.01</ele>
        <time>2021-07-31T14:57:19Z</time>
      </trkpt>
      <trkpt lat="42.26505" lon="1.7826">
        <ele>1168.26</ele>
        <time>2021-07-31T14:57:24Z</time>
      </trkpt>
      <trkpt lat="42.26513" lon="1.78267">
        <ele>1169.09</ele>
        <time>2021-07-31T14:57:25Z</time>
      </trkpt>
      <trkpt lat="42.26533" lon="1.78283">
        <ele>1170.99</ele>
        <time>2021-07-31T14:57:28Z</time>
      </trkpt>
      <trkpt lat="42.26547" lon="1.78287">
        <ele>1171.68</ele>
        <time>2021-07-31T14:57:30Z</time>
      </trkpt>
      <trkpt lat="42.26562" lon="1.78256">
        <ele>1171.98</ele>
        <time>2021-07-31T14:57:35Z</time>
      </trkpt>
      <trkpt lat="42.26554" lon="1.78199">
        <ele>1172.01</ele>
        <time>2021-07-31T14:57:40Z</time>
      </trkpt>
      <trkpt lat="42.26533" lon="1.78145">
        <ele>1173.39</ele>
        <time>2021-07-31T14:57:46Z</time>
      </trkpt>
      <trkpt lat="42.26541" lon="1.78115">
        <ele>1173.89</ele>
        <time>2021-07-31T14:57:51Z</time>
      </trkpt>
      <trkpt lat="42.26563" lon="1.781">
        <ele>1174.13</ele>
        <time>2021-07-31T14:57:54Z</time>
      </trkpt>
      <trkpt lat="42.26582" lon="1.7809">
        <ele>1174.81</ele>
        <time>2021-07-31T14:57:57Z</time>
      </trkpt>
      <trkpt lat="42.266" lon="1.78051">
        <ele>1178.55</ele>
        <time>2021-07-31T14:58:03Z</time>
      </trkpt>
      <trkpt lat="42.266" lon="1.78029">
        <ele>1180.02</ele>
        <time>2021-07-31T14:58:05Z</time>
      </trkpt>
      <trkpt lat="42.26595" lon="1.77985">
        <ele>1184.15</ele>
        <time>2021-07-31T14:58:10Z</time>
      </trkpt>
      <trkpt lat="42.26586" lon="1.77939">
        <ele>1187.28</ele>
        <time>2021-07-31T14:58:14Z</time>
      </trkpt>
      <trkpt lat="42.26578" lon="1.77914">
        <ele>1189.67</ele>
        <time>2021-07-31T14:58:17Z</time>
      </trkpt>
      <trkpt lat="42.26556" lon="1.77878">
        <ele>1193.67</ele>
        <time>2021-07-31T14:58:22Z</time>
      </trkpt>
      <trkpt lat="42.26551" lon="1.77871">
        <ele>1194.64</ele>
        <time>2021-07-31T14:58:23Z</time>
      </trkpt>
      <trkpt lat="42.26539" lon="1.77847">
        <ele>1196.97</ele>
        <time>2021-07-31T14:58:26Z</time>
      </trkpt>
      <trkpt lat="42.26545" lon="1.77794">
        <ele>1200.58</ele>
        <time>2021-07-31T14:58:31Z</time>
      </trkpt>
      <trkpt lat="42.26554" lon="1.77737">
        <ele>1205.8</ele>
        <time>2021-07-31T14:58:37Z</time>
      </trkpt>
      <trkpt lat="42.26552" lon="1.77688">
        <ele>1209.4</ele>
        <time>2021-07-31T14:58:41Z</time>
      </trkpt>
      <trkpt lat="42.26549" lon="1.77669">
        <ele>1211.33</ele>
        <time>2021-07-31T14:58:43Z</time>
      </trkpt>
      <trkpt lat="42.26525" lon="1.77646">
        <ele>1215.44</ele>
        <time>2021-07-31T14:58:48Z</time>
      </trkpt>
      <trkpt lat="42.26517" lon="1.77644">
        <ele>1215.83</ele>
        <time>2021-07-31T14:58:49Z</time>
      </trkpt>
      <trkpt lat="42.26505" lon="1.77638">
        <ele>1216.19</ele>
        <time>2021-07-31T14:58:51Z</time>
      </trkpt>
      <trkpt lat="42.26471" lon="1.77583">
        <ele>1215.82</ele>
        <time>2021-07-31T14:58:58Z</time>
      </trkpt>
      <trkpt lat="42.26469" lon="1.7754">
        <ele>1214.57</ele>
        <time>2021-07-31T14:59:03Z</time>
      </trkpt>
      <trkpt lat="42.26476" lon="1.77523">
        <ele>1214.43</ele>
        <time>2021-07-31T14:59:05Z</time>
      </trkpt>
      <trkpt lat="42.26485" lon="1.77479">
        <ele>1217.72</ele>
        <time>2021-07-31T14:59:12Z</time>
      </trkpt>
      <trkpt lat="42.26486" lon="1.77468">
        <ele>1219.28</ele>
        <time>2021-07-31T14:59:14Z</time>
      </trkpt>
      <trkpt lat="42.26501" lon="1.77429">
        <ele>1223.86</ele>
        <time>2021-07-31T14:59:20Z</time>
      </trkpt>
      <trkpt lat="42.26509" lon="1.77399">
        <ele>1227.51</ele>
        <time>2021-07-31T14:59:24Z</time>
      </trkpt>
      <trkpt lat="42.26503" lon="1.77371">
        <ele>1230</ele>
        <time>2021-07-31T14:59:27Z</time>
      </trkpt>
      <trkpt lat="42.26499" lon="1.77306">
        <ele>1235.18</ele>
        <time>2021-07-31T14:59:34Z</time>
      </trkpt>
      <trkpt lat="42.26502" lon="1.77294">
        <ele>1236.37</ele>
        <time>2021-07-31T14:59:36Z</time>
      </trkpt>
      <trkpt lat="42.26501" lon="1.77238">
        <ele>1240.5</ele>
        <time>2021-07-31T14:59:42Z</time>
      </trkpt>
      <trkpt lat="42.26496" lon="1.77197">
        <ele>1243.81</ele>
        <time>2021-07-31T14:59:46Z</time>
      </trkpt>
      <trkpt lat="42.26491" lon="1.77148">
        <ele>1246.83</ele>
        <time>2021-07-31T14:59:50Z</time>
      </trkpt>
      <trkpt lat="42.26487" lon="1.7711">
        <ele>1249.12</ele>
        <time>2021-07-31T14:59:54Z</time>
      </trkpt>
      <trkpt lat="42.26494" lon="1.77062">
        <ele>1252.56</ele>
        <time>2021-07-31T15:00:02Z</time>
      </trkpt>
      <trkpt lat="42.26489" lon="1.77061">
        <ele>1253.13</ele>
        <time>2021-07-31T15:00:03Z</time>
      </trkpt>
      <trkpt lat="42.26485" lon="1.77064">
        <ele>1253.71</ele>
        <time>2021-07-31T15:00:04Z</time>
      </trkpt>
      <trkpt lat="42.26482" lon="1.77068">
        <ele>1254.23</ele>
        <time>2021-07-31T15:00:05Z</time>
      </trkpt>
      <trkpt lat="42.26471" lon="1.7708">
        <ele>1255.93</ele>
        <time>2021-07-31T15:00:08Z</time>
      </trkpt>
      <trkpt lat="42.26461" lon="1.77088">
        <ele>1257.14</ele>
        <time>2021-07-31T15:00:10Z</time>
      </trkpt>
      <trkpt lat="42.26455" lon="1.77125">
        <ele>1259.2</ele>
        <time>2021-07-31T15:00:14Z</time>
      </trkpt>
      <trkpt lat="42.26456" lon="1.77183">
        <ele>1262.74</ele>
        <time>2021-07-31T15:00:20Z</time>
      </trkpt>
      <trkpt lat="42.26457" lon="1.77203">
        <ele>1264.07</ele>
        <time>2021-07-31T15:00:22Z</time>
      </trkpt>
      <trkpt lat="42.26456" lon="1.77235">
        <ele>1265.8</ele>
        <time>2021-07-31T15:00:25Z</time>
      </trkpt>
      <trkpt lat="42.26418" lon="1.77297">
        <ele>1269.83</ele>
        <time>2021-07-31T15:00:33Z</time>
      </trkpt>
      <trkpt lat="42.26398" lon="1.77342">
        <ele>1272.38</ele>
        <time>2021-07-31T15:00:39Z</time>
      </trkpt>
      <trkpt lat="42.26387" lon="1.77386">
        <ele>1274.74</ele>
        <time>2021-07-31T15:00:44Z</time>
      </trkpt>
      <trkpt lat="42.2636" lon="1.77436">
        <ele>1278.23</ele>
        <time>2021-07-31T15:00:50Z</time>
      </trkpt>
      <trkpt lat="42.26329" lon="1.7746">
        <ele>1280.79</ele>
        <time>2021-07-31T15:00:55Z</time>
      </trkpt>
      <trkpt lat="42.26314" lon="1.77486">
        <ele>1282.37</ele>
        <time>2021-07-31T15:00:58Z</time>
      </trkpt>
      <trkpt lat="42.26296" lon="1.77507">
        <ele>1284.22</ele>
        <time>2021-07-31T15:01:01Z</time>
      </trkpt>
      <trkpt lat="42.26262" lon="1.77551">
        <ele>1287.89</ele>
        <time>2021-07-31T15:01:08Z</time>
      </trkpt>
      <trkpt lat="42.2626" lon="1.77594">
        <ele>1290.3</ele>
        <time>2021-07-31T15:01:14Z</time>
      </trkpt>
      <trkpt lat="42.26263" lon="1.77602">
        <ele>1290.6</ele>
        <time>2021-07-31T15:01:15Z</time>
      </trkpt>
      <trkpt lat="42.26274" lon="1.77633">
        <ele>1292.11</ele>
        <time>2021-07-31T15:01:19Z</time>
      </trkpt>
      <trkpt lat="42.26277" lon="1.77677">
        <ele>1293.91</ele>
        <time>2021-07-31T15:01:23Z</time>
      </trkpt>
      <trkpt lat="42.26276" lon="1.7771">
        <ele>1295.44</ele>
        <time>2021-07-31T15:01:26Z</time>
      </trkpt>
      <trkpt lat="42.26241" lon="1.77748">
        <ele>1299.29</ele>
        <time>2021-07-31T15:01:34Z</time>
      </trkpt>
      <trkpt lat="42.26187" lon="1.77762">
        <ele>1302.62</ele>
        <time>2021-07-31T15:01:40Z</time>
      </trkpt>
      <trkpt lat="42.26148" lon="1.77781">
        <ele>1304.85</ele>
        <time>2021-07-31T15:01:44Z</time>
      </trkpt>
      <trkpt lat="42.26131" lon="1.77791">
        <ele>1306.13</ele>
        <time>2021-07-31T15:01:46Z</time>
      </trkpt>
      <trkpt lat="42.26111" lon="1.77864">
        <ele>1309.99</ele>
        <time>2021-07-31T15:01:52Z</time>
      </trkpt>
      <trkpt lat="42.26113" lon="1.77892">
        <ele>1311.52</ele>
        <time>2021-07-31T15:01:54Z</time>
      </trkpt>
      <trkpt lat="42.26085" lon="1.77947">
        <ele>1315.87</ele>
        <time>2021-07-31T15:02:00Z</time>
      </trkpt>
      <trkpt lat="42.26076" lon="1.77952">
        <ele>1316.57</ele>
        <time>2021-07-31T15:02:01Z</time>
      </trkpt>
      <trkpt lat="42.26048" lon="1.78025">
        <ele>1320.2</ele>
        <time>2021-07-31T15:02:08Z</time>
      </trkpt>
      <trkpt lat="42.25995" lon="1.7818">
        <ele>1322.42</ele>
        <time>2021-07-31T15:02:18Z</time>
      </trkpt>
      <trkpt lat="42.25981" lon="1.78212">
        <ele>1322.54</ele>
        <time>2021-07-31T15:02:21Z</time>
      </trkpt>
      <trkpt lat="42.25975" lon="1.78217">
        <ele>1322.55</ele>
        <time>2021-07-31T15:02:22Z</time>
      </trkpt>
      <trkpt lat="42.2597" lon="1.7822">
        <ele>1322.56</ele>
        <time>2021-07-31T15:02:23Z</time>
      </trkpt>
      <trkpt lat="42.25969" lon="1.78215">
        <ele>1322.56</ele>
        <time>2021-07-31T15:02:24Z</time>
      </trkpt>
      <trkpt lat="42.2598" lon="1.78183">
        <ele>1322.89</ele>
        <time>2021-07-31T15:02:27Z</time>
      </trkpt>
      <trkpt lat="42.25983" lon="1.7817">
        <ele>1323.31</ele>
        <time>2021-07-31T15:02:28Z</time>
      </trkpt>
      <trkpt lat="42.2601" lon="1.78095">
        <ele>1326.91</ele>
        <time>2021-07-31T15:02:34Z</time>
      </trkpt>
      <trkpt lat="42.26023" lon="1.7804">
        <ele>1329.87</ele>
        <time>2021-07-31T15:02:38Z</time>
      </trkpt>
      <trkpt lat="42.26033" lon="1.77973">
        <ele>1333.73</ele>
        <time>2021-07-31T15:02:43Z</time>
      </trkpt>
      <trkpt lat="42.26034" lon="1.77947">
        <ele>1335.58</ele>
        <time>2021-07-31T15:02:45Z</time>
      </trkpt>
      <trkpt lat="42.26061" lon="1.77911">
        <ele>1339.64</ele>
        <time>2021-07-31T15:02:50Z</time>
      </trkpt>
      <trkpt lat="42.26071" lon="1.77866">
        <ele>1343.14</ele>
        <time>2021-07-31T15:02:55Z</time>
      </trkpt>
      <trkpt lat="42.26072" lon="1.77791">
        <ele>1347.28</ele>
        <time>2021-07-31T15:03:01Z</time>
      </trkpt>
      <trkpt lat="42.26074" lon="1.77777">
        <ele>1348.07</ele>
        <time>2021-07-31T15:03:02Z</time>
      </trkpt>
      <trkpt lat="42.26082" lon="1.7775">
        <ele>1349.58</ele>
        <time>2021-07-31T15:03:04Z</time>
      </trkpt>
      <trkpt lat="42.26124" lon="1.77689">
        <ele>1353.85</ele>
        <time>2021-07-31T15:03:10Z</time>
      </trkpt>
      <trkpt lat="42.26129" lon="1.77681">
        <ele>1354.5</ele>
        <time>2021-07-31T15:03:11Z</time>
      </trkpt>
      <trkpt lat="42.26147" lon="1.77652">
        <ele>1356.81</ele>
        <time>2021-07-31T15:03:15Z</time>
      </trkpt>
      <trkpt lat="42.26147" lon="1.77605">
        <ele>1358.57</ele>
        <time>2021-07-31T15:03:19Z</time>
      </trkpt>
      <trkpt lat="42.26132" lon="1.77528">
        <ele>1361.79</ele>
        <time>2021-07-31T15:03:25Z</time>
      </trkpt>
      <trkpt lat="42.26147" lon="1.77498">
        <ele>1363.95</ele>
        <time>2021-07-31T15:03:29Z</time>
      </trkpt>
      <trkpt lat="42.26161" lon="1.77483">
        <ele>1365.13</ele>
        <time>2021-07-31T15:03:31Z</time>
      </trkpt>
      <trkpt lat="42.26195" lon="1.7743">
        <ele>1368.83</ele>
        <time>2021-07-31T15:03:36Z</time>
      </trkpt>
      <trkpt lat="42.26201" lon="1.7742">
        <ele>1369.31</ele>
        <time>2021-07-31T15:03:37Z</time>
      </trkpt>
      <trkpt lat="42.26216" lon="1.77376">
        <ele>1371.36</ele>
        <time>2021-07-31T15:03:41Z</time>
      </trkpt>
      <trkpt lat="42.26224" lon="1.77353">
        <ele>1372.43</ele>
        <time>2021-07-31T15:03:43Z</time>
      </trkpt>
      <trkpt lat="42.26235" lon="1.77266">
        <ele>1376.35</ele>
        <time>2021-07-31T15:03:50Z</time>
      </trkpt>
      <trkpt lat="42.26233" lon="1.77225">
        <ele>1378.29</ele>
        <time>2021-07-31T15:03:53Z</time>
      </trkpt>
      <trkpt lat="42.2621" lon="1.77163">
        <ele>1381.27</ele>
        <time>2021-07-31T15:03:58Z</time>
      </trkpt>
      <trkpt lat="42.26194" lon="1.77127">
        <ele>1383.08</ele>
        <time>2021-07-31T15:04:01Z</time>
      </trkpt>
      <trkpt lat="42.262" lon="1.77056">
        <ele>1387.72</ele>
        <time>2021-07-31T15:04:07Z</time>
      </trkpt>
      <trkpt lat="42.26205" lon="1.76992">
        <ele>1391.27</ele>
        <time>2021-07-31T15:04:12Z</time>
      </trkpt>
      <trkpt lat="42.26191" lon="1.7692">
        <ele>1394.66</ele>
        <time>2021-07-31T15:04:17Z</time>
      </trkpt>
      <trkpt lat="42.26174" lon="1.76819">
        <ele>1397.81</ele>
        <time>2021-07-31T15:04:24Z</time>
      </trkpt>
      <trkpt lat="42.26158" lon="1.76756">
        <ele>1400.46</ele>
        <time>2021-07-31T15:04:29Z</time>
      </trkpt>
      <trkpt lat="42.26121" lon="1.76687">
        <ele>1404.45</ele>
        <time>2021-07-31T15:04:35Z</time>
      </trkpt>
      <trkpt lat="42.26102" lon="1.76662">
        <ele>1406.41</ele>
        <time>2021-07-31T15:04:38Z</time>
      </trkpt>
      <trkpt lat="42.26067" lon="1.7664">
        <ele>1409.09</ele>
        <time>2021-07-31T15:04:43Z</time>
      </trkpt>
      <trkpt lat="42.26057" lon="1.76626">
        <ele>1410.43</ele>
        <time>2021-07-31T15:04:46Z</time>
      </trkpt>
      <trkpt lat="42.26028" lon="1.76604">
        <ele>1413.65</ele>
        <time>2021-07-31T15:04:57Z</time>
      </trkpt>
      <trkpt lat="42.2603" lon="1.76605">
        <ele>1415.74</ele>
        <time>2021-07-31T15:05:08Z</time>
      </trkpt>
      <trkpt lat="42.26025" lon="1.76594">
        <ele>1415.82</ele>
        <time>2021-07-31T15:05:20Z</time>
      </trkpt>
      <trkpt lat="42.26043" lon="1.76571">
        <ele>1416.17</ele>
        <time>2021-07-31T15:05:24Z</time>
      </trkpt>
      <trkpt lat="42.26082" lon="1.76508">
        <ele>1417.78</ele>
        <time>2021-07-31T15:05:30Z</time>
      </trkpt>
      <trkpt lat="42.26108" lon="1.76476">
        <ele>1419.94</ele>
        <time>2021-07-31T15:05:34Z</time>
      </trkpt>
      <trkpt lat="42.26133" lon="1.76423">
        <ele>1424.16</ele>
        <time>2021-07-31T15:05:39Z</time>
      </trkpt>
      <trkpt lat="42.26141" lon="1.76403">
        <ele>1425.97</ele>
        <time>2021-07-31T15:05:41Z</time>
      </trkpt>
      <trkpt lat="42.26162" lon="1.76367">
        <ele>1429.97</ele>
        <time>2021-07-31T15:05:45Z</time>
      </trkpt>
      <trkpt lat="42.26183" lon="1.76308">
        <ele>1434.79</ele>
        <time>2021-07-31T15:05:50Z</time>
      </trkpt>
      <trkpt lat="42.26206" lon="1.76245">
        <ele>1437.95</ele>
        <time>2021-07-31T15:05:55Z</time>
      </trkpt>
      <trkpt lat="42.26225" lon="1.76213">
        <ele>1439.69</ele>
        <time>2021-07-31T15:05:58Z</time>
      </trkpt>
      <trkpt lat="42.2626" lon="1.76164">
        <ele>1443.4</ele>
        <time>2021-07-31T15:06:04Z</time>
      </trkpt>
      <trkpt lat="42.26291" lon="1.76115">
        <ele>1446.56</ele>
        <time>2021-07-31T15:06:09Z</time>
      </trkpt>
      <trkpt lat="42.26305" lon="1.76097">
        <ele>1448.25</ele>
        <time>2021-07-31T15:06:11Z</time>
      </trkpt>
      <trkpt lat="42.26345" lon="1.76063">
        <ele>1452.96</ele>
        <time>2021-07-31T15:06:17Z</time>
      </trkpt>
      <trkpt lat="42.26365" lon="1.76024">
        <ele>1456.89</ele>
        <time>2021-07-31T15:06:22Z</time>
      </trkpt>
      <trkpt lat="42.26384" lon="1.75986">
        <ele>1460</ele>
        <time>2021-07-31T15:06:26Z</time>
      </trkpt>
      <trkpt lat="42.26402" lon="1.75946">
        <ele>1463.22</ele>
        <time>2021-07-31T15:06:30Z</time>
      </trkpt>
      <trkpt lat="42.26413" lon="1.75918">
        <ele>1465.59</ele>
        <time>2021-07-31T15:06:33Z</time>
      </trkpt>
      <trkpt lat="42.26421" lon="1.75865">
        <ele>1469.78</ele>
        <time>2021-07-31T15:06:38Z</time>
      </trkpt>
      <trkpt lat="42.26425" lon="1.75843">
        <ele>1471.69</ele>
        <time>2021-07-31T15:06:40Z</time>
      </trkpt>
      <trkpt lat="42.26442" lon="1.75807">
        <ele>1475.96</ele>
        <time>2021-07-31T15:06:44Z</time>
      </trkpt>
      <trkpt lat="42.26459" lon="1.75783">
        <ele>1479.06</ele>
        <time>2021-07-31T15:06:47Z</time>
      </trkpt>
      <trkpt lat="42.26471" lon="1.75739">
        <ele>1483.73</ele>
        <time>2021-07-31T15:06:51Z</time>
      </trkpt>
      <trkpt lat="42.26472" lon="1.75726">
        <ele>1484.75</ele>
        <time>2021-07-31T15:06:52Z</time>
      </trkpt>
      <trkpt lat="42.26461" lon="1.75643">
        <ele>1489.93</ele>
        <time>2021-07-31T15:06:58Z</time>
      </trkpt>
      <trkpt lat="42.26456" lon="1.7562">
        <ele>1492.34</ele>
        <time>2021-07-31T15:07:01Z</time>
      </trkpt>
      <trkpt lat="42.26458" lon="1.756">
        <ele>1494.73</ele>
        <time>2021-07-31T15:07:04Z</time>
      </trkpt>
      <trkpt lat="42.26464" lon="1.75557">
        <ele>1498.98</ele>
        <time>2021-07-31T15:07:09Z</time>
      </trkpt>
      <trkpt lat="42.26449" lon="1.75516">
        <ele>1503.79</ele>
        <time>2021-07-31T15:07:14Z</time>
      </trkpt>
      <trkpt lat="42.26438" lon="1.7546">
        <ele>1509.58</ele>
        <time>2021-07-31T15:07:20Z</time>
      </trkpt>
      <trkpt lat="42.26442" lon="1.7545">
        <ele>1511.46</ele>
        <time>2021-07-31T15:07:22Z</time>
      </trkpt>
      <trkpt lat="42.26444" lon="1.75435">
        <ele>1515.44</ele>
        <time>2021-07-31T15:07:26Z</time>
      </trkpt>
      <trkpt lat="42.26444" lon="1.75429">
        <ele>1516.13</ele>
        <time>2021-07-31T15:07:27Z</time>
      </trkpt>
      <trkpt lat="42.26476" lon="1.75396">
        <ele>1519.78</ele>
        <time>2021-07-31T15:07:33Z</time>
      </trkpt>
      <trkpt lat="42.26501" lon="1.7541">
        <ele>1522.55</ele>
        <time>2021-07-31T15:07:38Z</time>
      </trkpt>
      <trkpt lat="42.26533" lon="1.75434">
        <ele>1525.93</ele>
        <time>2021-07-31T15:07:46Z</time>
      </trkpt>
      <trkpt lat="42.26538" lon="1.75429">
        <ele>1526.19</ele>
        <time>2021-07-31T15:08:05Z</time>
      </trkpt>
      <trkpt lat="42.26557" lon="1.75378">
        <ele>1526.18</ele>
        <time>2021-07-31T15:08:12Z</time>
      </trkpt>
      <trkpt lat="42.26572" lon="1.7527">
        <ele>1524.34</ele>
        <time>2021-07-31T15:08:21Z</time>
      </trkpt>
      <trkpt lat="42.26577" lon="1.75218">
        <ele>1522.75</ele>
        <time>2021-07-31T15:08:26Z</time>
      </trkpt>
      <trkpt lat="42.26575" lon="1.75117">
        <ele>1518.78</ele>
        <time>2021-07-31T15:08:34Z</time>
      </trkpt>
      <trkpt lat="42.26572" lon="1.75085">
        <ele>1516.85</ele>
        <time>2021-07-31T15:08:37Z</time>
      </trkpt>
      <trkpt lat="42.26554" lon="1.75011">
        <ele>1512.94</ele>
        <time>2021-07-31T15:08:43Z</time>
      </trkpt>
      <trkpt lat="42.26544" lon="1.74943">
        <ele>1510.93</ele>
        <time>2021-07-31T15:08:47Z</time>
      </trkpt>
      <trkpt lat="42.26557" lon="1.74765">
        <ele>1508.09</ele>
        <time>2021-07-31T15:08:56Z</time>
      </trkpt>
      <trkpt lat="42.26557" lon="1.74748">
        <ele>1508</ele>
        <time>2021-07-31T15:08:57Z</time>
      </trkpt>
      <trkpt lat="42.26534" lon="1.74588">
        <ele>1508.92</ele>
        <time>2021-07-31T15:09:05Z</time>
      </trkpt>
      <trkpt lat="42.26508" lon="1.74474">
        <ele>1512.15</ele>
        <time>2021-07-31T15:09:13Z</time>
      </trkpt>
      <trkpt lat="42.26505" lon="1.74463">
        <ele>1512.73</ele>
        <time>2021-07-31T15:09:14Z</time>
      </trkpt>
      <trkpt lat="42.26492" lon="1.74434">
        <ele>1514.82</ele>
        <time>2021-07-31T15:09:17Z</time>
      </trkpt>
      <trkpt lat="42.26459" lon="1.74388">
        <ele>1518.85</ele>
        <time>2021-07-31T15:09:22Z</time>
      </trkpt>
      <trkpt lat="42.26431" lon="1.74344">
        <ele>1522.18</ele>
        <time>2021-07-31T15:09:26Z</time>
      </trkpt>
      <trkpt lat="42.26426" lon="1.7429">
        <ele>1526.86</ele>
        <time>2021-07-31T15:09:31Z</time>
      </trkpt>
      <trkpt lat="42.26425" lon="1.74278">
        <ele>1527.76</ele>
        <time>2021-07-31T15:09:32Z</time>
      </trkpt>
      <trkpt lat="42.26425" lon="1.74251">
        <ele>1529.7</ele>
        <time>2021-07-31T15:09:34Z</time>
      </trkpt>
      <trkpt lat="42.26438" lon="1.74184">
        <ele>1534.36</ele>
        <time>2021-07-31T15:09:39Z</time>
      </trkpt>
      <trkpt lat="42.26441" lon="1.7417">
        <ele>1535.43</ele>
        <time>2021-07-31T15:09:40Z</time>
      </trkpt>
      <trkpt lat="42.26453" lon="1.74138">
        <ele>1538.42</ele>
        <time>2021-07-31T15:09:43Z</time>
      </trkpt>
      <trkpt lat="42.26485" lon="1.74125">
        <ele>1542.55</ele>
        <time>2021-07-31T15:09:48Z</time>
      </trkpt>
      <trkpt lat="42.26523" lon="1.74153">
        <ele>1545.74</ele>
        <time>2021-07-31T15:09:52Z</time>
      </trkpt>
      <trkpt lat="42.26539" lon="1.74173">
        <ele>1547.56</ele>
        <time>2021-07-31T15:09:54Z</time>
      </trkpt>
      <trkpt lat="42.26573" lon="1.74218">
        <ele>1552.18</ele>
        <time>2021-07-31T15:09:59Z</time>
      </trkpt>
      <trkpt lat="42.26585" lon="1.7423">
        <ele>1554.09</ele>
        <time>2021-07-31T15:10:01Z</time>
      </trkpt>
      <trkpt lat="42.26617" lon="1.74245">
        <ele>1557.32</ele>
        <time>2021-07-31T15:10:05Z</time>
      </trkpt>
      <trkpt lat="42.26651" lon="1.74286">
        <ele>1561.38</ele>
        <time>2021-07-31T15:10:10Z</time>
      </trkpt>
      <trkpt lat="42.26655" lon="1.74297">
        <ele>1562.16</ele>
        <time>2021-07-31T15:10:11Z</time>
      </trkpt>
      <trkpt lat="42.26663" lon="1.74318">
        <ele>1564</ele>
        <time>2021-07-31T15:10:13Z</time>
      </trkpt>
      <trkpt lat="42.26693" lon="1.74343">
        <ele>1568.57</ele>
        <time>2021-07-31T15:10:18Z</time>
      </trkpt>
      <trkpt lat="42.26705" lon="1.74346">
        <ele>1570.52</ele>
        <time>2021-07-31T15:10:20Z</time>
      </trkpt>
      <trkpt lat="42.26721" lon="1.74368">
        <ele>1573.35</ele>
        <time>2021-07-31T15:10:24Z</time>
      </trkpt>
      <trkpt lat="42.26754" lon="1.74398">
        <ele>1577.41</ele>
        <time>2021-07-31T15:10:30Z</time>
      </trkpt>
      <trkpt lat="42.26779" lon="1.74403">
        <ele>1580.51</ele>
        <time>2021-07-31T15:10:35Z</time>
      </trkpt>
      <trkpt lat="42.26768" lon="1.74385">
        <ele>1581.99</ele>
        <time>2021-07-31T15:10:38Z</time>
      </trkpt>
      <trkpt lat="42.26756" lon="1.74367">
        <ele>1583.38</ele>
        <time>2021-07-31T15:10:40Z</time>
      </trkpt>
      <trkpt lat="42.26728" lon="1.74303">
        <ele>1586.83</ele>
        <time>2021-07-31T15:10:45Z</time>
      </trkpt>
      <trkpt lat="42.26721" lon="1.74292">
        <ele>1587.62</ele>
        <time>2021-07-31T15:10:46Z</time>
      </trkpt>
      <trkpt lat="42.26707" lon="1.74267">
        <ele>1589.1</ele>
        <time>2021-07-31T15:10:48Z</time>
      </trkpt>
      <trkpt lat="42.26684" lon="1.74188">
        <ele>1593.08</ele>
        <time>2021-07-31T15:10:53Z</time>
      </trkpt>
      <trkpt lat="42.26677" lon="1.74151">
        <ele>1594.74</ele>
        <time>2021-07-31T15:10:55Z</time>
      </trkpt>
      <trkpt lat="42.26642" lon="1.74076">
        <ele>1599.45</ele>
        <time>2021-07-31T15:11:00Z</time>
      </trkpt>
      <trkpt lat="42.26616" lon="1.74012">
        <ele>1603.05</ele>
        <time>2021-07-31T15:11:04Z</time>
      </trkpt>
      <trkpt lat="42.26614" lon="1.73945">
        <ele>1607</ele>
        <time>2021-07-31T15:11:08Z</time>
      </trkpt>
      <trkpt lat="42.2663" lon="1.73871">
        <ele>1611.19</ele>
        <time>2021-07-31T15:11:12Z</time>
      </trkpt>
      <trkpt lat="42.26643" lon="1.73808">
        <ele>1614.47</ele>
        <time>2021-07-31T15:11:15Z</time>
      </trkpt>
      <trkpt lat="42.26658" lon="1.73751">
        <ele>1617.87</ele>
        <time>2021-07-31T15:11:18Z</time>
      </trkpt>
      <trkpt lat="42.26669" lon="1.73722">
        <ele>1621.38</ele>
        <time>2021-07-31T15:11:21Z</time>
      </trkpt>
      <trkpt lat="42.2667" lon="1.73714">
        <ele>1624.45</ele>
        <time>2021-07-31T15:11:25Z</time>
      </trkpt>
      <trkpt lat="42.26671" lon="1.73715">
        <ele>1627.55</ele>
        <time>2021-07-31T15:11:33Z</time>
      </trkpt>
      <trkpt lat="42.26673" lon="1.73713">
        <ele>1628.73</ele>
        <time>2021-07-31T15:11:47Z</time>
      </trkpt>
      <trkpt lat="42.26673" lon="1.73714">
        <ele>1629.36</ele>
        <time>2021-07-31T15:13:38Z</time>
      </trkpt>
      <trkpt lat="42.26672" lon="1.73714">
        <ele>1629.36</ele>
        <time>2021-07-31T15:15:28Z</time>
      </trkpt>
      <trkpt lat="42.26671" lon="1.73717">
        <ele>1629.36</ele>
        <time>2021-07-31T15:15:57Z</time>
      </trkpt>
      <trkpt lat="42.26672" lon="1.73718">
        <ele>1629.36</ele>
        <time>2021-07-31T15:15:58Z</time>
      </trkpt>
      <trkpt lat="42.26703" lon="1.73719">
        <ele>1630.98</ele>
        <time>2021-07-31T15:16:10Z</time>
      </trkpt>
      <trkpt lat="42.26736" lon="1.73734">
        <ele>1632.58</ele>
        <time>2021-07-31T15:16:18Z</time>
      </trkpt>
      <trkpt lat="42.26774" lon="1.73743">
        <ele>1634.19</ele>
        <time>2021-07-31T15:16:23Z</time>
      </trkpt>
      <trkpt lat="42.26838" lon="1.73753">
        <ele>1637.88</ele>
        <time>2021-07-31T15:16:30Z</time>
      </trkpt>
      <trkpt lat="42.26868" lon="1.73764">
        <ele>1640.1</ele>
        <time>2021-07-31T15:16:33Z</time>
      </trkpt>
      <trkpt lat="42.26894" lon="1.73742">
        <ele>1644.2</ele>
        <time>2021-07-31T15:16:38Z</time>
      </trkpt>
      <trkpt lat="42.26885" lon="1.73706">
        <ele>1646.22</ele>
        <time>2021-07-31T15:16:41Z</time>
      </trkpt>
      <trkpt lat="42.26877" lon="1.73669">
        <ele>1648.32</ele>
        <time>2021-07-31T15:16:44Z</time>
      </trkpt>
      <trkpt lat="42.26875" lon="1.73637">
        <ele>1650.73</ele>
        <time>2021-07-31T15:16:47Z</time>
      </trkpt>
      <trkpt lat="42.2686" lon="1.73595">
        <ele>1653.55</ele>
        <time>2021-07-31T15:16:51Z</time>
      </trkpt>
      <trkpt lat="42.2684" lon="1.73524">
        <ele>1658.39</ele>
        <time>2021-07-31T15:16:58Z</time>
      </trkpt>
      <trkpt lat="42.26846" lon="1.73483">
        <ele>1661.41</ele>
        <time>2021-07-31T15:17:02Z</time>
      </trkpt>
      <trkpt lat="42.26849" lon="1.73473">
        <ele>1662.17</ele>
        <time>2021-07-31T15:17:03Z</time>
      </trkpt>
      <trkpt lat="42.26853" lon="1.73413">
        <ele>1666</ele>
        <time>2021-07-31T15:17:08Z</time>
      </trkpt>
      <trkpt lat="42.2686" lon="1.73358">
        <ele>1669.01</ele>
        <time>2021-07-31T15:17:12Z</time>
      </trkpt>
      <trkpt lat="42.26862" lon="1.733">
        <ele>1673.91</ele>
        <time>2021-07-31T15:17:17Z</time>
      </trkpt>
      <trkpt lat="42.26859" lon="1.73285">
        <ele>1675.95</ele>
        <time>2021-07-31T15:17:19Z</time>
      </trkpt>
      <trkpt lat="42.26854" lon="1.73259">
        <ele>1680.12</ele>
        <time>2021-07-31T15:17:23Z</time>
      </trkpt>
      <trkpt lat="42.2684" lon="1.73234">
        <ele>1682.9</ele>
        <time>2021-07-31T15:17:27Z</time>
      </trkpt>
      <trkpt lat="42.26835" lon="1.73225">
        <ele>1684.21</ele>
        <time>2021-07-31T15:17:29Z</time>
      </trkpt>
      <trkpt lat="42.2682" lon="1.73164">
        <ele>1689.24</ele>
        <time>2021-07-31T15:17:45Z</time>
      </trkpt>
      <trkpt lat="42.26814" lon="1.73148">
        <ele>1692.79</ele>
        <time>2021-07-31T15:17:49Z</time>
      </trkpt>
      <trkpt lat="42.26811" lon="1.73137">
        <ele>1692.14</ele>
        <time>2021-07-31T15:17:51Z</time>
      </trkpt>
      <trkpt lat="42.26816" lon="1.73087">
        <ele>1695.53</ele>
        <time>2021-07-31T15:17:58Z</time>
      </trkpt>
      <trkpt lat="42.26823" lon="1.73032">
        <ele>1698.92</ele>
        <time>2021-07-31T15:18:06Z</time>
      </trkpt>
      <trkpt lat="42.2684" lon="1.72988">
        <ele>1702.51</ele>
        <time>2021-07-31T15:18:14Z</time>
      </trkpt>
      <trkpt lat="42.26854" lon="1.72944">
        <ele>1704.28</ele>
        <time>2021-07-31T15:18:19Z</time>
      </trkpt>
      <trkpt lat="42.26878" lon="1.72867">
        <ele>1708.13</ele>
        <time>2021-07-31T15:18:27Z</time>
      </trkpt>
      <trkpt lat="42.26889" lon="1.72821">
        <ele>1711.17</ele>
        <time>2021-07-31T15:18:31Z</time>
      </trkpt>
      <trkpt lat="42.26903" lon="1.7278">
        <ele>1714.43</ele>
        <time>2021-07-31T15:18:35Z</time>
      </trkpt>
      <trkpt lat="42.26907" lon="1.72769">
        <ele>1715.27</ele>
        <time>2021-07-31T15:18:36Z</time>
      </trkpt>
      <trkpt lat="42.26912" lon="1.72727">
        <ele>1718.34</ele>
        <time>2021-07-31T15:18:40Z</time>
      </trkpt>
      <trkpt lat="42.26926" lon="1.72657">
        <ele>1723.62</ele>
        <time>2021-07-31T15:18:47Z</time>
      </trkpt>
      <trkpt lat="42.26928" lon="1.72648">
        <ele>1724.3</ele>
        <time>2021-07-31T15:18:48Z</time>
      </trkpt>
      <trkpt lat="42.2695" lon="1.72585">
        <ele>1728.96</ele>
        <time>2021-07-31T15:18:55Z</time>
      </trkpt>
      <trkpt lat="42.26951" lon="1.72577">
        <ele>1729.61</ele>
        <time>2021-07-31T15:18:56Z</time>
      </trkpt>
      <trkpt lat="42.2696" lon="1.72505">
        <ele>1733.5</ele>
        <time>2021-07-31T15:19:03Z</time>
      </trkpt>
      <trkpt lat="42.26962" lon="1.72486">
        <ele>1734.77</ele>
        <time>2021-07-31T15:19:05Z</time>
      </trkpt>
      <trkpt lat="42.26965" lon="1.7247">
        <ele>1736.44</ele>
        <time>2021-07-31T15:19:07Z</time>
      </trkpt>
      <trkpt lat="42.2697" lon="1.72435">
        <ele>1738.93</ele>
        <time>2021-07-31T15:19:11Z</time>
      </trkpt>
      <trkpt lat="42.26987" lon="1.72408">
        <ele>1741.19</ele>
        <time>2021-07-31T15:19:15Z</time>
      </trkpt>
      <trkpt lat="42.27008" lon="1.72341">
        <ele>1745.11</ele>
        <time>2021-07-31T15:19:23Z</time>
      </trkpt>
      <trkpt lat="42.26995" lon="1.72321">
        <ele>1746.92</ele>
        <time>2021-07-31T15:19:26Z</time>
      </trkpt>
      <trkpt lat="42.26977" lon="1.72273">
        <ele>1749.71</ele>
        <time>2021-07-31T15:19:32Z</time>
      </trkpt>
      <trkpt lat="42.26976" lon="1.72188">
        <ele>1753.42</ele>
        <time>2021-07-31T15:19:39Z</time>
      </trkpt>
      <trkpt lat="42.26961" lon="1.72139">
        <ele>1756.16</ele>
        <time>2021-07-31T15:19:45Z</time>
      </trkpt>
      <trkpt lat="42.26951" lon="1.72127">
        <ele>1756.8</ele>
        <time>2021-07-31T15:19:47Z</time>
      </trkpt>
      <trkpt lat="42.26929" lon="1.72105">
        <ele>1758.41</ele>
        <time>2021-07-31T15:19:51Z</time>
      </trkpt>
      <trkpt lat="42.2692" lon="1.7206">
        <ele>1760.4</ele>
        <time>2021-07-31T15:19:56Z</time>
      </trkpt>
      <trkpt lat="42.26925" lon="1.72037">
        <ele>1761.46</ele>
        <time>2021-07-31T15:19:58Z</time>
      </trkpt>
      <trkpt lat="42.26917" lon="1.71987">
        <ele>1763.94</ele>
        <time>2021-07-31T15:20:03Z</time>
      </trkpt>
      <trkpt lat="42.26879" lon="1.71937">
        <ele>1767.89</ele>
        <time>2021-07-31T15:20:11Z</time>
      </trkpt>
      <trkpt lat="42.26844" lon="1.71963">
        <ele>1771.35</ele>
        <time>2021-07-31T15:20:16Z</time>
      </trkpt>
      <trkpt lat="42.26831" lon="1.71986">
        <ele>1772.65</ele>
        <time>2021-07-31T15:20:18Z</time>
      </trkpt>
      <trkpt lat="42.26823" lon="1.72006">
        <ele>1773.96</ele>
        <time>2021-07-31T15:20:20Z</time>
      </trkpt>
      <trkpt lat="42.26814" lon="1.71997">
        <ele>1776.72</ele>
        <time>2021-07-31T15:20:25Z</time>
      </trkpt>
      <trkpt lat="42.2683" lon="1.71924">
        <ele>1781.18</ele>
        <time>2021-07-31T15:20:32Z</time>
      </trkpt>
      <trkpt lat="42.26841" lon="1.71863">
        <ele>1784.38</ele>
        <time>2021-07-31T15:20:36Z</time>
      </trkpt>
      <trkpt lat="42.26861" lon="1.71798">
        <ele>1788.34</ele>
        <time>2021-07-31T15:20:40Z</time>
      </trkpt>
      <trkpt lat="42.26869" lon="1.71771">
        <ele>1790.51</ele>
        <time>2021-07-31T15:20:42Z</time>
      </trkpt>
      <trkpt lat="42.26883" lon="1.71751">
        <ele>1796.24</ele>
        <time>2021-07-31T15:20:46Z</time>
      </trkpt>
      <trkpt lat="42.26904" lon="1.71754">
        <ele>1799.62</ele>
        <time>2021-07-31T15:20:50Z</time>
      </trkpt>
      <trkpt lat="42.26923" lon="1.71773">
        <ele>1802.68</ele>
        <time>2021-07-31T15:20:55Z</time>
      </trkpt>
      <trkpt lat="42.26921" lon="1.71753">
        <ele>1805.07</ele>
        <time>2021-07-31T15:21:00Z</time>
      </trkpt>
      <trkpt lat="42.26887" lon="1.71706">
        <ele>1808.78</ele>
        <time>2021-07-31T15:21:08Z</time>
      </trkpt>
      <trkpt lat="42.26857" lon="1.71663">
        <ele>1812.1</ele>
        <time>2021-07-31T15:21:14Z</time>
      </trkpt>
      <trkpt lat="42.26855" lon="1.71655">
        <ele>1812.75</ele>
        <time>2021-07-31T15:21:15Z</time>
      </trkpt>
      <trkpt lat="42.26852" lon="1.71648">
        <ele>1813.39</ele>
        <time>2021-07-31T15:21:16Z</time>
      </trkpt>
      <trkpt lat="42.26849" lon="1.71633">
        <ele>1814.53</ele>
        <time>2021-07-31T15:21:18Z</time>
      </trkpt>
      <trkpt lat="42.26856" lon="1.71578">
        <ele>1818.24</ele>
        <time>2021-07-31T15:21:25Z</time>
      </trkpt>
      <trkpt lat="42.26857" lon="1.71573">
        <ele>1819.97</ele>
        <time>2021-07-31T15:21:36Z</time>
      </trkpt>
      <trkpt lat="42.26864" lon="1.71546">
        <ele>1820.41</ele>
        <time>2021-07-31T15:21:52Z</time>
      </trkpt>
      <trkpt lat="42.26873" lon="1.71514">
        <ele>1821.29</ele>
        <time>2021-07-31T15:21:58Z</time>
      </trkpt>
      <trkpt lat="42.26888" lon="1.71466">
        <ele>1823.96</ele>
        <time>2021-07-31T15:22:09Z</time>
      </trkpt>
      <trkpt lat="42.26888" lon="1.71464">
        <ele>1826.64</ele>
        <time>2021-07-31T15:22:26Z</time>
      </trkpt>
      <trkpt lat="42.2689" lon="1.71444">
        <ele>1827.85</ele>
        <time>2021-07-31T15:22:41Z</time>
      </trkpt>
      <trkpt lat="42.26897" lon="1.71408">
        <ele>1829.26</ele>
        <time>2021-07-31T15:22:57Z</time>
      </trkpt>
      <trkpt lat="42.269" lon="1.71384">
        <ele>1830.03</ele>
        <time>2021-07-31T15:23:05Z</time>
      </trkpt>
      <trkpt lat="42.26914" lon="1.71352">
        <ele>1830.69</ele>
        <time>2021-07-31T15:23:11Z</time>
      </trkpt>
      <trkpt lat="42.26919" lon="1.7134">
        <ele>1830.97</ele>
        <time>2021-07-31T15:23:13Z</time>
      </trkpt>
      <trkpt lat="42.26937" lon="1.71324">
        <ele>1831.54</ele>
        <time>2021-07-31T15:23:17Z</time>
      </trkpt>
      <trkpt lat="42.26946" lon="1.71322">
        <ele>1832.08</ele>
        <time>2021-07-31T15:23:19Z</time>
      </trkpt>
      <trkpt lat="42.26952" lon="1.7129">
        <ele>1833.24</ele>
        <time>2021-07-31T15:23:26Z</time>
      </trkpt>
      <trkpt lat="42.26943" lon="1.71275">
        <ele>1833.71</ele>
        <time>2021-07-31T15:23:29Z</time>
      </trkpt>
      <trkpt lat="42.2694" lon="1.7125">
        <ele>1834.77</ele>
        <time>2021-07-31T15:23:33Z</time>
      </trkpt>
      <trkpt lat="42.26946" lon="1.71223">
        <ele>1835.84</ele>
        <time>2021-07-31T15:23:37Z</time>
      </trkpt>
      <trkpt lat="42.26979" lon="1.71193">
        <ele>1837.41</ele>
        <time>2021-07-31T15:23:45Z</time>
      </trkpt>
      <trkpt lat="42.26983" lon="1.71173">
        <ele>1837.76</ele>
        <time>2021-07-31T15:23:48Z</time>
      </trkpt>
      <trkpt lat="42.26985" lon="1.71117">
        <ele>1839.21</ele>
        <time>2021-07-31T15:23:55Z</time>
      </trkpt>
      <trkpt lat="42.26972" lon="1.71093">
        <ele>1841.16</ele>
        <time>2021-07-31T15:24:00Z</time>
      </trkpt>
      <trkpt lat="42.26962" lon="1.71084">
        <ele>1841.39</ele>
        <time>2021-07-31T15:24:02Z</time>
      </trkpt>
      <trkpt lat="42.26944" lon="1.71039">
        <ele>1843.6</ele>
        <time>2021-07-31T15:24:08Z</time>
      </trkpt>
      <trkpt lat="42.26936" lon="1.70943">
        <ele>1847.26</ele>
        <time>2021-07-31T15:24:19Z</time>
      </trkpt>
      <trkpt lat="42.26936" lon="1.70896">
        <ele>1849.42</ele>
        <time>2021-07-31T15:24:28Z</time>
      </trkpt>
      <trkpt lat="42.26953" lon="1.70851">
        <ele>1851.01</ele>
        <time>2021-07-31T15:24:39Z</time>
      </trkpt>
      <trkpt lat="42.26969" lon="1.70806">
        <ele>1853.21</ele>
        <time>2021-07-31T15:24:51Z</time>
      </trkpt>
      <trkpt lat="42.26972" lon="1.70793">
        <ele>1853.48</ele>
        <time>2021-07-31T15:24:53Z</time>
      </trkpt>
      <trkpt lat="42.26984" lon="1.70767">
        <ele>1854.68</ele>
        <time>2021-07-31T15:24:58Z</time>
      </trkpt>
      <trkpt lat="42.26989" lon="1.70723">
        <ele>1856.39</ele>
        <time>2021-07-31T15:25:05Z</time>
      </trkpt>
      <trkpt lat="42.26984" lon="1.70713">
        <ele>1858.11</ele>
        <time>2021-07-31T15:25:16Z</time>
      </trkpt>
      <trkpt lat="42.26983" lon="1.70713">
        <ele>1858.21</ele>
        <time>2021-07-31T15:25:17Z</time>
      </trkpt>
      <trkpt lat="42.26968" lon="1.70711">
        <ele>1858.77</ele>
        <time>2021-07-31T15:25:22Z</time>
      </trkpt>
      <trkpt lat="42.26949" lon="1.70702">
        <ele>1859.6</ele>
        <time>2021-07-31T15:25:26Z</time>
      </trkpt>
      <trkpt lat="42.26941" lon="1.70695">
        <ele>1860.17</ele>
        <time>2021-07-31T15:25:28Z</time>
      </trkpt>
      <trkpt lat="42.26926" lon="1.70692">
        <ele>1861.07</ele>
        <time>2021-07-31T15:25:31Z</time>
      </trkpt>
      <trkpt lat="42.26891" lon="1.70657">
        <ele>1863.74</ele>
        <time>2021-07-31T15:25:38Z</time>
      </trkpt>
      <trkpt lat="42.26881" lon="1.70657">
        <ele>1864.74</ele>
        <time>2021-07-31T15:25:41Z</time>
      </trkpt>
      <trkpt lat="42.26873" lon="1.70659">
        <ele>1866.11</ele>
        <time>2021-07-31T15:25:56Z</time>
      </trkpt>
      <trkpt lat="42.26856" lon="1.70643">
        <ele>1866.88</ele>
        <time>2021-07-31T15:26:02Z</time>
      </trkpt>
      <trkpt lat="42.26847" lon="1.70624">
        <ele>1867.64</ele>
        <time>2021-07-31T15:26:05Z</time>
      </trkpt>
      <trkpt lat="42.26841" lon="1.70589">
        <ele>1869.15</ele>
        <time>2021-07-31T15:26:09Z</time>
      </trkpt>
      <trkpt lat="42.26827" lon="1.70517">
        <ele>1871.54</ele>
        <time>2021-07-31T15:26:20Z</time>
      </trkpt>
      <trkpt lat="42.26825" lon="1.70509">
        <ele>1872.66</ele>
        <time>2021-07-31T15:26:31Z</time>
      </trkpt>
      <trkpt lat="42.26822" lon="1.70486">
        <ele>1873.31</ele>
        <time>2021-07-31T15:26:53Z</time>
      </trkpt>
      <trkpt lat="42.26817" lon="1.70476">
        <ele>1873.88</ele>
        <time>2021-07-31T15:27:07Z</time>
      </trkpt>
      <trkpt lat="42.26809" lon="1.70462">
        <ele>1873.99</ele>
        <time>2021-07-31T15:27:10Z</time>
      </trkpt>
      <trkpt lat="42.26801" lon="1.70443">
        <ele>1874.32</ele>
        <time>2021-07-31T15:27:13Z</time>
      </trkpt>
      <trkpt lat="42.26799" lon="1.70391">
        <ele>1876.3</ele>
        <time>2021-07-31T15:27:19Z</time>
      </trkpt>
      <trkpt lat="42.26805" lon="1.70358">
        <ele>1877.63</ele>
        <time>2021-07-31T15:27:22Z</time>
      </trkpt>
      <trkpt lat="42.26808" lon="1.70336">
        <ele>1877.76</ele>
        <time>2021-07-31T15:27:24Z</time>
      </trkpt>
      <trkpt lat="42.26809" lon="1.70298">
        <ele>1877.12</ele>
        <time>2021-07-31T15:27:28Z</time>
      </trkpt>
      <trkpt lat="42.26825" lon="1.70213">
        <ele>1875.69</ele>
        <time>2021-07-31T15:27:36Z</time>
      </trkpt>
      <trkpt lat="42.26831" lon="1.70205">
        <ele>1875.47</ele>
        <time>2021-07-31T15:27:37Z</time>
      </trkpt>
      <trkpt lat="42.26849" lon="1.70153">
        <ele>1873.36</ele>
        <time>2021-07-31T15:27:42Z</time>
      </trkpt>
      <trkpt lat="42.26851" lon="1.70128">
        <ele>1872.52</ele>
        <time>2021-07-31T15:27:44Z</time>
      </trkpt>
      <trkpt lat="42.26844" lon="1.70072">
        <ele>1871.41</ele>
        <time>2021-07-31T15:27:48Z</time>
      </trkpt>
      <trkpt lat="42.26842" lon="1.7003">
        <ele>1870.36</ele>
        <time>2021-07-31T15:27:51Z</time>
      </trkpt>
      <trkpt lat="42.26838" lon="1.69992">
        <ele>1869.31</ele>
        <time>2021-07-31T15:27:54Z</time>
      </trkpt>
      <trkpt lat="42.2684" lon="1.69956">
        <ele>1867.69</ele>
        <time>2021-07-31T15:27:57Z</time>
      </trkpt>
      <trkpt lat="42.26825" lon="1.69896">
        <ele>1865</ele>
        <time>2021-07-31T15:28:02Z</time>
      </trkpt>
      <trkpt lat="42.268" lon="1.698">
        <ele>1860.52</ele>
        <time>2021-07-31T15:28:10Z</time>
      </trkpt>
      <trkpt lat="42.26794" lon="1.69766">
        <ele>1859.17</ele>
        <time>2021-07-31T15:28:13Z</time>
      </trkpt>
      <trkpt lat="42.26764" lon="1.69692">
        <ele>1855.52</ele>
        <time>2021-07-31T15:28:21Z</time>
      </trkpt>
      <trkpt lat="42.26753" lon="1.69673">
        <ele>1854.76</ele>
        <time>2021-07-31T15:28:23Z</time>
      </trkpt>
      <trkpt lat="42.26735" lon="1.69651">
        <ele>1853.45</ele>
        <time>2021-07-31T15:28:26Z</time>
      </trkpt>
      <trkpt lat="42.26714" lon="1.69615">
        <ele>1852.01</ele>
        <time>2021-07-31T15:28:30Z</time>
      </trkpt>
      <trkpt lat="42.26673" lon="1.69493">
        <ele>1848.55</ele>
        <time>2021-07-31T15:28:40Z</time>
      </trkpt>
      <trkpt lat="42.26666" lon="1.69465">
        <ele>1847.82</ele>
        <time>2021-07-31T15:28:42Z</time>
      </trkpt>
      <trkpt lat="42.26654" lon="1.69411">
        <ele>1846.34</ele>
        <time>2021-07-31T15:28:46Z</time>
      </trkpt>
      <trkpt lat="42.26622" lon="1.69309">
        <ele>1842.89</ele>
        <time>2021-07-31T15:28:54Z</time>
      </trkpt>
      <trkpt lat="42.26619" lon="1.69299">
        <ele>1842.46</ele>
        <time>2021-07-31T15:28:55Z</time>
      </trkpt>
      <trkpt lat="42.26595" lon="1.69289">
        <ele>1839.55</ele>
        <time>2021-07-31T15:29:01Z</time>
      </trkpt>
      <trkpt lat="42.26592" lon="1.69297">
        <ele>1839.3</ele>
        <time>2021-07-31T15:29:02Z</time>
      </trkpt>
      <trkpt lat="42.26541" lon="1.69363">
        <ele>1838.23</ele>
        <time>2021-07-31T15:29:11Z</time>
      </trkpt>
      <trkpt lat="42.26536" lon="1.69368">
        <ele>1838.2</ele>
        <time>2021-07-31T15:29:12Z</time>
      </trkpt>
      <trkpt lat="42.26514" lon="1.69373">
        <ele>1838.02</ele>
        <time>2021-07-31T15:29:16Z</time>
      </trkpt>
      <trkpt lat="42.26498" lon="1.69371">
        <ele>1837.82</ele>
        <time>2021-07-31T15:29:19Z</time>
      </trkpt>
      <trkpt lat="42.26473" lon="1.69332">
        <ele>1837.44</ele>
        <time>2021-07-31T15:29:26Z</time>
      </trkpt>
      <trkpt lat="42.26462" lon="1.69301">
        <ele>1837.03</ele>
        <time>2021-07-31T15:29:31Z</time>
      </trkpt>
      <trkpt lat="42.26427" lon="1.69255">
        <ele>1836.03</ele>
        <time>2021-07-31T15:29:44Z</time>
      </trkpt>
      <trkpt lat="42.26426" lon="1.69254">
        <ele>1835.66</ele>
        <time>2021-07-31T15:34:52Z</time>
      </trkpt>
      <trkpt lat="42.26411" lon="1.69232">
        <ele>1835.78</ele>
        <time>2021-07-31T15:35:10Z</time>
      </trkpt>
      <trkpt lat="42.26372" lon="1.6916">
        <ele>1837.45</ele>
        <time>2021-07-31T15:35:19Z</time>
      </trkpt>
      <trkpt lat="42.26328" lon="1.69078">
        <ele>1837.12</ele>
        <time>2021-07-31T15:35:30Z</time>
      </trkpt>
      <trkpt lat="42.26323" lon="1.6907">
        <ele>1837.03</ele>
        <time>2021-07-31T15:35:31Z</time>
      </trkpt>
      <trkpt lat="42.26301" lon="1.68979">
        <ele>1836.06</ele>
        <time>2021-07-31T15:35:42Z</time>
      </trkpt>
      <trkpt lat="42.26266" lon="1.68896">
        <ele>1832.79</ele>
        <time>2021-07-31T15:35:53Z</time>
      </trkpt>
      <trkpt lat="42.26232" lon="1.68829">
        <ele>1829.39</ele>
        <time>2021-07-31T15:36:01Z</time>
      </trkpt>
      <trkpt lat="42.26195" lon="1.6875">
        <ele>1826.33</ele>
        <time>2021-07-31T15:36:08Z</time>
      </trkpt>
      <trkpt lat="42.26151" lon="1.68676">
        <ele>1822.88</ele>
        <time>2021-07-31T15:36:15Z</time>
      </trkpt>
      <trkpt lat="42.26113" lon="1.68625">
        <ele>1819.57</ele>
        <time>2021-07-31T15:36:21Z</time>
      </trkpt>
      <trkpt lat="42.26091" lon="1.68604">
        <ele>1817.77</ele>
        <time>2021-07-31T15:36:24Z</time>
      </trkpt>
      <trkpt lat="42.26068" lon="1.68575">
        <ele>1813.7</ele>
        <time>2021-07-31T15:36:31Z</time>
      </trkpt>
      <trkpt lat="42.26056" lon="1.68565">
        <ele>1810.46</ele>
        <time>2021-07-31T15:36:39Z</time>
      </trkpt>
      <trkpt lat="42.26044" lon="1.68561">
        <ele>1808.47</ele>
        <time>2021-07-31T15:36:53Z</time>
      </trkpt>
      <trkpt lat="42.26019" lon="1.6855">
        <ele>1808.3</ele>
        <time>2021-07-31T15:37:00Z</time>
      </trkpt>
      <trkpt lat="42.2599" lon="1.6857">
        <ele>1807.32</ele>
        <time>2021-07-31T15:37:06Z</time>
      </trkpt>
      <trkpt lat="42.25951" lon="1.68593">
        <ele>1803.29</ele>
        <time>2021-07-31T15:37:13Z</time>
      </trkpt>
      <trkpt lat="42.25945" lon="1.68593">
        <ele>1803.29</ele>
        <time>2021-07-31T15:37:14Z</time>
      </trkpt>
      <trkpt lat="42.25936" lon="1.68609">
        <ele>1800.99</ele>
        <time>2021-07-31T15:37:17Z</time>
      </trkpt>
      <trkpt lat="42.25889" lon="1.68661">
        <ele>1797.24</ele>
        <time>2021-07-31T15:37:26Z</time>
      </trkpt>
      <trkpt lat="42.25882" lon="1.68661">
        <ele>1797.02</ele>
        <time>2021-07-31T15:37:27Z</time>
      </trkpt>
      <trkpt lat="42.25859" lon="1.68684">
        <ele>1795.68</ele>
        <time>2021-07-31T15:37:33Z</time>
      </trkpt>
      <trkpt lat="42.25852" lon="1.68706">
        <ele>1794.56</ele>
        <time>2021-07-31T15:37:36Z</time>
      </trkpt>
      <trkpt lat="42.25835" lon="1.68724">
        <ele>1792.86</ele>
        <time>2021-07-31T15:37:40Z</time>
      </trkpt>
      <trkpt lat="42.25814" lon="1.68729">
        <ele>1789.15</ele>
        <time>2021-07-31T15:37:48Z</time>
      </trkpt>
      <trkpt lat="42.25806" lon="1.68727">
        <ele>1786.02</ele>
        <time>2021-07-31T15:38:02Z</time>
      </trkpt>
      <trkpt lat="42.2579" lon="1.68722">
        <ele>1785.06</ele>
        <time>2021-07-31T15:38:08Z</time>
      </trkpt>
      <trkpt lat="42.25779" lon="1.6874">
        <ele>1783.8</ele>
        <time>2021-07-31T15:38:13Z</time>
      </trkpt>
      <trkpt lat="42.25774" lon="1.68763">
        <ele>1783.16</ele>
        <time>2021-07-31T15:38:16Z</time>
      </trkpt>
      <trkpt lat="42.25772" lon="1.68796">
        <ele>1782.47</ele>
        <time>2021-07-31T15:38:21Z</time>
      </trkpt>
      <trkpt lat="42.25775" lon="1.68806">
        <ele>1782.27</ele>
        <time>2021-07-31T15:38:29Z</time>
      </trkpt>
      <trkpt lat="42.25745" lon="1.68868">
        <ele>1782.08</ele>
        <time>2021-07-31T15:38:37Z</time>
      </trkpt>
      <trkpt lat="42.25713" lon="1.6892">
        <ele>1780.68</ele>
        <time>2021-07-31T15:38:43Z</time>
      </trkpt>
      <trkpt lat="42.25696" lon="1.68941">
        <ele>1779.46</ele>
        <time>2021-07-31T15:38:46Z</time>
      </trkpt>
      <trkpt lat="42.25686" lon="1.68958">
        <ele>1778.68</ele>
        <time>2021-07-31T15:38:48Z</time>
      </trkpt>
      <trkpt lat="42.25675" lon="1.68973">
        <ele>1777.97</ele>
        <time>2021-07-31T15:38:50Z</time>
      </trkpt>
      <trkpt lat="42.25659" lon="1.69009">
        <ele>1776.11</ele>
        <time>2021-07-31T15:38:54Z</time>
      </trkpt>
      <trkpt lat="42.25654" lon="1.69018">
        <ele>1775.78</ele>
        <time>2021-07-31T15:38:55Z</time>
      </trkpt>
      <trkpt lat="42.25626" lon="1.69041">
        <ele>1774.24</ele>
        <time>2021-07-31T15:38:59Z</time>
      </trkpt>
      <trkpt lat="42.25589" lon="1.69088">
        <ele>1773.04</ele>
        <time>2021-07-31T15:39:06Z</time>
      </trkpt>
      <trkpt lat="42.25556" lon="1.69127">
        <ele>1772.29</ele>
        <time>2021-07-31T15:39:12Z</time>
      </trkpt>
      <trkpt lat="42.25533" lon="1.69188">
        <ele>1771</ele>
        <time>2021-07-31T15:39:19Z</time>
      </trkpt>
      <trkpt lat="42.25533" lon="1.69265">
        <ele>1767.88</ele>
        <time>2021-07-31T15:39:26Z</time>
      </trkpt>
      <trkpt lat="42.25516" lon="1.69341">
        <ele>1764.15</ele>
        <time>2021-07-31T15:39:33Z</time>
      </trkpt>
      <trkpt lat="42.25488" lon="1.69403">
        <ele>1760.92</ele>
        <time>2021-07-31T15:39:39Z</time>
      </trkpt>
      <trkpt lat="42.25477" lon="1.69422">
        <ele>1759.85</ele>
        <time>2021-07-31T15:39:41Z</time>
      </trkpt>
      <trkpt lat="42.25458" lon="1.69463">
        <ele>1757.74</ele>
        <time>2021-07-31T15:39:46Z</time>
      </trkpt>
      <trkpt lat="42.25423" lon="1.6948">
        <ele>1755.47</ele>
        <time>2021-07-31T15:39:51Z</time>
      </trkpt>
      <trkpt lat="42.25411" lon="1.69491">
        <ele>1754.44</ele>
        <time>2021-07-31T15:39:53Z</time>
      </trkpt>
      <trkpt lat="42.25401" lon="1.69553">
        <ele>1750.6</ele>
        <time>2021-07-31T15:39:59Z</time>
      </trkpt>
      <trkpt lat="42.25408" lon="1.69619">
        <ele>1747.7</ele>
        <time>2021-07-31T15:40:06Z</time>
      </trkpt>
      <trkpt lat="42.25403" lon="1.69661">
        <ele>1746.88</ele>
        <time>2021-07-31T15:40:10Z</time>
      </trkpt>
      <trkpt lat="42.25385" lon="1.69702">
        <ele>1745.38</ele>
        <time>2021-07-31T15:40:14Z</time>
      </trkpt>
      <trkpt lat="42.25362" lon="1.69736">
        <ele>1744.03</ele>
        <time>2021-07-31T15:40:18Z</time>
      </trkpt>
      <trkpt lat="42.25322" lon="1.69778">
        <ele>1743.28</ele>
        <time>2021-07-31T15:40:25Z</time>
      </trkpt>
      <trkpt lat="42.25315" lon="1.69791">
        <ele>1743.22</ele>
        <time>2021-07-31T15:40:27Z</time>
      </trkpt>
      <trkpt lat="42.25309" lon="1.69806">
        <ele>1743.15</ele>
        <time>2021-07-31T15:40:29Z</time>
      </trkpt>
      <trkpt lat="42.25284" lon="1.69815">
        <ele>1741.96</ele>
        <time>2021-07-31T15:40:34Z</time>
      </trkpt>
      <trkpt lat="42.25252" lon="1.69798">
        <ele>1739.16</ele>
        <time>2021-07-31T15:40:39Z</time>
      </trkpt>
      <trkpt lat="42.2523" lon="1.69802">
        <ele>1735.39</ele>
        <time>2021-07-31T15:40:44Z</time>
      </trkpt>
      <trkpt lat="42.25226" lon="1.69802">
        <ele>1734.52</ele>
        <time>2021-07-31T15:40:45Z</time>
      </trkpt>
      <trkpt lat="42.25208" lon="1.69803">
        <ele>1731.8</ele>
        <time>2021-07-31T15:40:49Z</time>
      </trkpt>
      <trkpt lat="42.25173" lon="1.69819">
        <ele>1727.96</ele>
        <time>2021-07-31T15:40:56Z</time>
      </trkpt>
      <trkpt lat="42.25157" lon="1.69825">
        <ele>1726.4</ele>
        <time>2021-07-31T15:40:59Z</time>
      </trkpt>
      <trkpt lat="42.25163" lon="1.69864">
        <ele>1723.2</ele>
        <time>2021-07-31T15:41:06Z</time>
      </trkpt>
      <trkpt lat="42.25174" lon="1.69927">
        <ele>1720.08</ele>
        <time>2021-07-31T15:41:13Z</time>
      </trkpt>
      <trkpt lat="42.25165" lon="1.69979">
        <ele>1717.15</ele>
        <time>2021-07-31T15:41:24Z</time>
      </trkpt>
      <trkpt lat="42.25168" lon="1.69991">
        <ele>1716.97</ele>
        <time>2021-07-31T15:41:27Z</time>
      </trkpt>
      <trkpt lat="42.25173" lon="1.7">
        <ele>1716.92</ele>
        <time>2021-07-31T15:41:29Z</time>
      </trkpt>
      <trkpt lat="42.25185" lon="1.70031">
        <ele>1717.2</ele>
        <time>2021-07-31T15:41:33Z</time>
      </trkpt>
      <trkpt lat="42.25209" lon="1.70073">
        <ele>1718.84</ele>
        <time>2021-07-31T15:41:39Z</time>
      </trkpt>
      <trkpt lat="42.25211" lon="1.70122">
        <ele>1721.05</ele>
        <time>2021-07-31T15:41:44Z</time>
      </trkpt>
      <trkpt lat="42.25205" lon="1.70161">
        <ele>1722.52</ele>
        <time>2021-07-31T15:41:47Z</time>
      </trkpt>
      <trkpt lat="42.25226" lon="1.70219">
        <ele>1724.69</ele>
        <time>2021-07-31T15:41:52Z</time>
      </trkpt>
      <trkpt lat="42.25238" lon="1.70233">
        <ele>1725.59</ele>
        <time>2021-07-31T15:41:54Z</time>
      </trkpt>
      <trkpt lat="42.25246" lon="1.70249">
        <ele>1726.54</ele>
        <time>2021-07-31T15:41:56Z</time>
      </trkpt>
      <trkpt lat="42.25255" lon="1.70263">
        <ele>1727.62</ele>
        <time>2021-07-31T15:41:58Z</time>
      </trkpt>
      <trkpt lat="42.25266" lon="1.70328">
        <ele>1731.4</ele>
        <time>2021-07-31T15:42:04Z</time>
      </trkpt>
      <trkpt lat="42.25264" lon="1.7034">
        <ele>1731.99</ele>
        <time>2021-07-31T15:42:05Z</time>
      </trkpt>
      <trkpt lat="42.25258" lon="1.70372">
        <ele>1733.97</ele>
        <time>2021-07-31T15:42:08Z</time>
      </trkpt>
      <trkpt lat="42.25222" lon="1.70405">
        <ele>1736.78</ele>
        <time>2021-07-31T15:42:14Z</time>
      </trkpt>
      <trkpt lat="42.2517" lon="1.70417">
        <ele>1736.69</ele>
        <time>2021-07-31T15:42:19Z</time>
      </trkpt>
      <trkpt lat="42.2513" lon="1.70443">
        <ele>1734.25</ele>
        <time>2021-07-31T15:42:25Z</time>
      </trkpt>
      <trkpt lat="42.251" lon="1.70456">
        <ele>1732.13</ele>
        <time>2021-07-31T15:42:29Z</time>
      </trkpt>
      <trkpt lat="42.25059" lon="1.7047">
        <ele>1728.21</ele>
        <time>2021-07-31T15:42:35Z</time>
      </trkpt>
      <trkpt lat="42.25028" lon="1.70466">
        <ele>1725.17</ele>
        <time>2021-07-31T15:42:39Z</time>
      </trkpt>
      <trkpt lat="42.25005" lon="1.70475">
        <ele>1722.83</ele>
        <time>2021-07-31T15:42:42Z</time>
      </trkpt>
      <trkpt lat="42.24964" lon="1.70504">
        <ele>1718.73</ele>
        <time>2021-07-31T15:42:47Z</time>
      </trkpt>
      <trkpt lat="42.24956" lon="1.70509">
        <ele>1717.91</ele>
        <time>2021-07-31T15:42:48Z</time>
      </trkpt>
      <trkpt lat="42.24923" lon="1.70523">
        <ele>1714.54</ele>
        <time>2021-07-31T15:42:52Z</time>
      </trkpt>
      <trkpt lat="42.24898" lon="1.70539">
        <ele>1710.5</ele>
        <time>2021-07-31T15:42:57Z</time>
      </trkpt>
      <trkpt lat="42.24887" lon="1.70582">
        <ele>1706.45</ele>
        <time>2021-07-31T15:43:03Z</time>
      </trkpt>
      <trkpt lat="42.24869" lon="1.70657">
        <ele>1701.77</ele>
        <time>2021-07-31T15:43:11Z</time>
      </trkpt>
      <trkpt lat="42.24865" lon="1.70678">
        <ele>1700.49</ele>
        <time>2021-07-31T15:43:13Z</time>
      </trkpt>
      <trkpt lat="42.2486" lon="1.70709">
        <ele>1698.62</ele>
        <time>2021-07-31T15:43:16Z</time>
      </trkpt>
      <trkpt lat="42.24839" lon="1.70746">
        <ele>1694.49</ele>
        <time>2021-07-31T15:43:21Z</time>
      </trkpt>
      <trkpt lat="42.24823" lon="1.70754">
        <ele>1692.99</ele>
        <time>2021-07-31T15:43:23Z</time>
      </trkpt>
      <trkpt lat="42.24782" lon="1.70768">
        <ele>1688.74</ele>
        <time>2021-07-31T15:43:28Z</time>
      </trkpt>
      <trkpt lat="42.24758" lon="1.70774">
        <ele>1685.2</ele>
        <time>2021-07-31T15:43:32Z</time>
      </trkpt>
      <trkpt lat="42.24746" lon="1.70779">
        <ele>1683.49</ele>
        <time>2021-07-31T15:43:34Z</time>
      </trkpt>
      <trkpt lat="42.24723" lon="1.708">
        <ele>1678.89</ele>
        <time>2021-07-31T15:43:40Z</time>
      </trkpt>
      <trkpt lat="42.24713" lon="1.70818">
        <ele>1677.06</ele>
        <time>2021-07-31T15:43:43Z</time>
      </trkpt>
      <trkpt lat="42.24687" lon="1.70845">
        <ele>1673.5</ele>
        <time>2021-07-31T15:43:49Z</time>
      </trkpt>
      <trkpt lat="42.24677" lon="1.70846">
        <ele>1672.2</ele>
        <time>2021-07-31T15:43:51Z</time>
      </trkpt>
      <trkpt lat="42.24666" lon="1.70846">
        <ele>1670.69</ele>
        <time>2021-07-31T15:43:53Z</time>
      </trkpt>
      <trkpt lat="42.24645" lon="1.70856">
        <ele>1667.13</ele>
        <time>2021-07-31T15:43:57Z</time>
      </trkpt>
      <trkpt lat="42.24627" lon="1.70868">
        <ele>1663.2</ele>
        <time>2021-07-31T15:44:03Z</time>
      </trkpt>
      <trkpt lat="42.24597" lon="1.70864">
        <ele>1659.83</ele>
        <time>2021-07-31T15:44:10Z</time>
      </trkpt>
      <trkpt lat="42.24568" lon="1.70852">
        <ele>1658.03</ele>
        <time>2021-07-31T15:44:14Z</time>
      </trkpt>
      <trkpt lat="42.2455" lon="1.70864">
        <ele>1655.27</ele>
        <time>2021-07-31T15:44:19Z</time>
      </trkpt>
      <trkpt lat="42.24545" lon="1.70894">
        <ele>1653.79</ele>
        <time>2021-07-31T15:44:22Z</time>
      </trkpt>
      <trkpt lat="42.24522" lon="1.70941">
        <ele>1649.47</ele>
        <time>2021-07-31T15:44:28Z</time>
      </trkpt>
      <trkpt lat="42.24512" lon="1.70985">
        <ele>1645.85</ele>
        <time>2021-07-31T15:44:33Z</time>
      </trkpt>
      <trkpt lat="42.24511" lon="1.7102">
        <ele>1643.76</ele>
        <time>2021-07-31T15:44:36Z</time>
      </trkpt>
      <trkpt lat="42.24509" lon="1.71044">
        <ele>1642.66</ele>
        <time>2021-07-31T15:44:38Z</time>
      </trkpt>
      <trkpt lat="42.24518" lon="1.71083">
        <ele>1640.44</ele>
        <time>2021-07-31T15:44:42Z</time>
      </trkpt>
      <trkpt lat="42.245" lon="1.71129">
        <ele>1636.8</ele>
        <time>2021-07-31T15:44:48Z</time>
      </trkpt>
      <trkpt lat="42.24502" lon="1.71167">
        <ele>1634.41</ele>
        <time>2021-07-31T15:44:52Z</time>
      </trkpt>
      <trkpt lat="42.24508" lon="1.71216">
        <ele>1631.21</ele>
        <time>2021-07-31T15:44:57Z</time>
      </trkpt>
      <trkpt lat="42.24521" lon="1.71257">
        <ele>1627.27</ele>
        <time>2021-07-31T15:45:04Z</time>
      </trkpt>
      <trkpt lat="42.24528" lon="1.71283">
        <ele>1625.88</ele>
        <time>2021-07-31T15:45:07Z</time>
      </trkpt>
      <trkpt lat="42.2454" lon="1.71316">
        <ele>1623.88</ele>
        <time>2021-07-31T15:45:11Z</time>
      </trkpt>
      <trkpt lat="42.24543" lon="1.71375">
        <ele>1619.82</ele>
        <time>2021-07-31T15:45:18Z</time>
      </trkpt>
      <trkpt lat="42.24547" lon="1.71383">
        <ele>1619.3</ele>
        <time>2021-07-31T15:45:19Z</time>
      </trkpt>
      <trkpt lat="42.24554" lon="1.71428">
        <ele>1616.02</ele>
        <time>2021-07-31T15:45:24Z</time>
      </trkpt>
      <trkpt lat="42.2455" lon="1.71465">
        <ele>1611.54</ele>
        <time>2021-07-31T15:45:30Z</time>
      </trkpt>
      <trkpt lat="42.24551" lon="1.71483">
        <ele>1608.16</ele>
        <time>2021-07-31T15:45:34Z</time>
      </trkpt>
      <trkpt lat="42.2455" lon="1.71498">
        <ele>1606.46</ele>
        <time>2021-07-31T15:45:37Z</time>
      </trkpt>
      <trkpt lat="42.24564" lon="1.71524">
        <ele>1604.78</ele>
        <time>2021-07-31T15:45:41Z</time>
      </trkpt>
      <trkpt lat="42.24614" lon="1.71572">
        <ele>1600.89</ele>
        <time>2021-07-31T15:45:48Z</time>
      </trkpt>
      <trkpt lat="42.24629" lon="1.71586">
        <ele>1599.38</ele>
        <time>2021-07-31T15:45:50Z</time>
      </trkpt>
      <trkpt lat="42.24648" lon="1.71633">
        <ele>1594.72</ele>
        <time>2021-07-31T15:45:55Z</time>
      </trkpt>
      <trkpt lat="42.24644" lon="1.71664">
        <ele>1592.02</ele>
        <time>2021-07-31T15:45:58Z</time>
      </trkpt>
      <trkpt lat="42.2464" lon="1.71725">
        <ele>1587.25</ele>
        <time>2021-07-31T15:46:03Z</time>
      </trkpt>
      <trkpt lat="42.2464" lon="1.71747">
        <ele>1583.98</ele>
        <time>2021-07-31T15:46:06Z</time>
      </trkpt>
      <trkpt lat="42.24644" lon="1.71798">
        <ele>1579.23</ele>
        <time>2021-07-31T15:46:11Z</time>
      </trkpt>
      <trkpt lat="42.24646" lon="1.7184">
        <ele>1575.8</ele>
        <time>2021-07-31T15:46:15Z</time>
      </trkpt>
      <trkpt lat="42.24647" lon="1.71852">
        <ele>1574.87</ele>
        <time>2021-07-31T15:46:16Z</time>
      </trkpt>
      <trkpt lat="42.24684" lon="1.71893">
        <ele>1570.44</ele>
        <time>2021-07-31T15:46:22Z</time>
      </trkpt>
      <trkpt lat="42.24752" lon="1.71894">
        <ele>1566.62</ele>
        <time>2021-07-31T15:46:29Z</time>
      </trkpt>
      <trkpt lat="42.24781" lon="1.71935">
        <ele>1565.18</ele>
        <time>2021-07-31T15:46:35Z</time>
      </trkpt>
      <trkpt lat="42.2478" lon="1.71947">
        <ele>1565.02</ele>
        <time>2021-07-31T15:46:36Z</time>
      </trkpt>
      <trkpt lat="42.24781" lon="1.71991">
        <ele>1564.29</ele>
        <time>2021-07-31T15:46:40Z</time>
      </trkpt>
      <trkpt lat="42.24745" lon="1.72038">
        <ele>1562.32</ele>
        <time>2021-07-31T15:46:46Z</time>
      </trkpt>
      <trkpt lat="42.24728" lon="1.72094">
        <ele>1560.58</ele>
        <time>2021-07-31T15:46:50Z</time>
      </trkpt>
      <trkpt lat="42.24721" lon="1.72144">
        <ele>1559.13</ele>
        <time>2021-07-31T15:46:53Z</time>
      </trkpt>
      <trkpt lat="42.24738" lon="1.72209">
        <ele>1556.26</ele>
        <time>2021-07-31T15:46:59Z</time>
      </trkpt>
      <trkpt lat="42.24741" lon="1.72229">
        <ele>1554.96</ele>
        <time>2021-07-31T15:47:02Z</time>
      </trkpt>
      <trkpt lat="42.24741" lon="1.72245">
        <ele>1554.26</ele>
        <time>2021-07-31T15:47:04Z</time>
      </trkpt>
      <trkpt lat="42.24719" lon="1.7227">
        <ele>1552.96</ele>
        <time>2021-07-31T15:47:10Z</time>
      </trkpt>
      <trkpt lat="42.24702" lon="1.72273">
        <ele>1550.95</ele>
        <time>2021-07-31T15:47:19Z</time>
      </trkpt>
      <trkpt lat="42.24703" lon="1.72273">
        <ele>1550.02</ele>
        <time>2021-07-31T15:47:50Z</time>
      </trkpt>
      <trkpt lat="42.24709" lon="1.72269">
        <ele>1550.88</ele>
        <time>2021-07-31T15:50:26Z</time>
      </trkpt>
      <trkpt lat="42.24707" lon="1.72269">
        <ele>1550.88</ele>
        <time>2021-07-31T15:50:48Z</time>
      </trkpt>
      <trkpt lat="42.2471" lon="1.72266">
        <ele>1550.88</ele>
        <time>2021-07-31T15:50:52Z</time>
      </trkpt>
      <trkpt lat="42.24697" lon="1.72257">
        <ele>1548.97</ele>
        <time>2021-07-31T15:50:56Z</time>
      </trkpt>
      <trkpt lat="42.24642" lon="1.72196">
        <ele>1547.66</ele>
        <time>2021-07-31T15:51:04Z</time>
      </trkpt>
      <trkpt lat="42.24579" lon="1.72164">
        <ele>1544.06</ele>
        <time>2021-07-31T15:51:12Z</time>
      </trkpt>
      <trkpt lat="42.24561" lon="1.72119">
        <ele>1542.19</ele>
        <time>2021-07-31T15:51:16Z</time>
      </trkpt>
      <trkpt lat="42.24515" lon="1.72018">
        <ele>1538.58</ele>
        <time>2021-07-31T15:51:24Z</time>
      </trkpt>
      <trkpt lat="42.2445" lon="1.71983">
        <ele>1534.71</ele>
        <time>2021-07-31T15:51:31Z</time>
      </trkpt>
      <trkpt lat="42.24384" lon="1.72018">
        <ele>1531.75</ele>
        <time>2021-07-31T15:51:36Z</time>
      </trkpt>
      <trkpt lat="42.2432" lon="1.72059">
        <ele>1527.8</ele>
        <time>2021-07-31T15:51:42Z</time>
      </trkpt>
      <trkpt lat="42.24288" lon="1.72109">
        <ele>1525.24</ele>
        <time>2021-07-31T15:51:46Z</time>
      </trkpt>
      <trkpt lat="42.24265" lon="1.72142">
        <ele>1523.21</ele>
        <time>2021-07-31T15:51:49Z</time>
      </trkpt>
      <trkpt lat="42.24212" lon="1.72188">
        <ele>1519.39</ele>
        <time>2021-07-31T15:51:55Z</time>
      </trkpt>
      <trkpt lat="42.24174" lon="1.7222">
        <ele>1516.45</ele>
        <time>2021-07-31T15:51:59Z</time>
      </trkpt>
      <trkpt lat="42.24118" lon="1.72238">
        <ele>1512.45</ele>
        <time>2021-07-31T15:52:04Z</time>
      </trkpt>
      <trkpt lat="42.24069" lon="1.72243">
        <ele>1509.55</ele>
        <time>2021-07-31T15:52:08Z</time>
      </trkpt>
      <trkpt lat="42.2401" lon="1.72271">
        <ele>1505.83</ele>
        <time>2021-07-31T15:52:13Z</time>
      </trkpt>
      <trkpt lat="42.23988" lon="1.72282">
        <ele>1503.98</ele>
        <time>2021-07-31T15:52:15Z</time>
      </trkpt>
      <trkpt lat="42.2394" lon="1.72344">
        <ele>1499.62</ele>
        <time>2021-07-31T15:52:20Z</time>
      </trkpt>
      <trkpt lat="42.23935" lon="1.72362">
        <ele>1498.63</ele>
        <time>2021-07-31T15:52:21Z</time>
      </trkpt>
      <trkpt lat="42.23911" lon="1.72411">
        <ele>1494.88</ele>
        <time>2021-07-31T15:52:25Z</time>
      </trkpt>
      <trkpt lat="42.23879" lon="1.72416">
        <ele>1490.33</ele>
        <time>2021-07-31T15:52:30Z</time>
      </trkpt>
      <trkpt lat="42.23815" lon="1.7238">
        <ele>1486.35</ele>
        <time>2021-07-31T15:52:36Z</time>
      </trkpt>
      <trkpt lat="42.23752" lon="1.72409">
        <ele>1482.58</ele>
        <time>2021-07-31T15:52:41Z</time>
      </trkpt>
      <trkpt lat="42.23741" lon="1.72422">
        <ele>1480.75</ele>
        <time>2021-07-31T15:52:42Z</time>
      </trkpt>
      <trkpt lat="42.2368" lon="1.72489">
        <ele>1476.49</ele>
        <time>2021-07-31T15:52:47Z</time>
      </trkpt>
      <trkpt lat="42.23639" lon="1.72555">
        <ele>1472.82</ele>
        <time>2021-07-31T15:52:51Z</time>
      </trkpt>
      <trkpt lat="42.2359" lon="1.72615">
        <ele>1468.47</ele>
        <time>2021-07-31T15:52:55Z</time>
      </trkpt>
      <trkpt lat="42.23547" lon="1.7266">
        <ele>1465.33</ele>
        <time>2021-07-31T15:52:58Z</time>
      </trkpt>
      <trkpt lat="42.23508" lon="1.72706">
        <ele>1461.71</ele>
        <time>2021-07-31T15:53:01Z</time>
      </trkpt>
      <trkpt lat="42.23486" lon="1.72739">
        <ele>1459.21</ele>
        <time>2021-07-31T15:53:03Z</time>
      </trkpt>
      <trkpt lat="42.23457" lon="1.72823">
        <ele>1453.56</ele>
        <time>2021-07-31T15:53:07Z</time>
      </trkpt>
      <trkpt lat="42.23444" lon="1.72885">
        <ele>1449.23</ele>
        <time>2021-07-31T15:53:10Z</time>
      </trkpt>
      <trkpt lat="42.23438" lon="1.72913">
        <ele>1446.01</ele>
        <time>2021-07-31T15:53:12Z</time>
      </trkpt>
      <trkpt lat="42.23425" lon="1.72937">
        <ele>1440.95</ele>
        <time>2021-07-31T15:53:15Z</time>
      </trkpt>
      <trkpt lat="42.2341" lon="1.72942">
        <ele>1437.88</ele>
        <time>2021-07-31T15:53:17Z</time>
      </trkpt>
      <trkpt lat="42.2337" lon="1.72935">
        <ele>1434.24</ele>
        <time>2021-07-31T15:53:20Z</time>
      </trkpt>
      <trkpt lat="42.23356" lon="1.72937">
        <ele>1433.18</ele>
        <time>2021-07-31T15:53:21Z</time>
      </trkpt>
      <trkpt lat="42.23289" lon="1.7296">
        <ele>1428.32</ele>
        <time>2021-07-31T15:53:26Z</time>
      </trkpt>
      <trkpt lat="42.23267" lon="1.7297">
        <ele>1426.01</ele>
        <time>2021-07-31T15:53:28Z</time>
      </trkpt>
      <trkpt lat="42.23221" lon="1.72974">
        <ele>1421.68</ele>
        <time>2021-07-31T15:53:32Z</time>
      </trkpt>
      <trkpt lat="42.23192" lon="1.72948">
        <ele>1418.47</ele>
        <time>2021-07-31T15:53:35Z</time>
      </trkpt>
      <trkpt lat="42.23168" lon="1.72884">
        <ele>1414.52</ele>
        <time>2021-07-31T15:53:39Z</time>
      </trkpt>
      <trkpt lat="42.23136" lon="1.72827">
        <ele>1410.41</ele>
        <time>2021-07-31T15:53:43Z</time>
      </trkpt>
      <trkpt lat="42.23123" lon="1.72798">
        <ele>1408.15</ele>
        <time>2021-07-31T15:53:45Z</time>
      </trkpt>
      <trkpt lat="42.23104" lon="1.72723">
        <ele>1403.16</ele>
        <time>2021-07-31T15:53:49Z</time>
      </trkpt>
      <trkpt lat="42.23086" lon="1.72649">
        <ele>1398.08</ele>
        <time>2021-07-31T15:53:53Z</time>
      </trkpt>
      <trkpt lat="42.23048" lon="1.72585">
        <ele>1393.24</ele>
        <time>2021-07-31T15:53:57Z</time>
      </trkpt>
      <trkpt lat="42.23038" lon="1.72571">
        <ele>1392.04</ele>
        <time>2021-07-31T15:53:58Z</time>
      </trkpt>
      <trkpt lat="42.22993" lon="1.72525">
        <ele>1387.02</ele>
        <time>2021-07-31T15:54:02Z</time>
      </trkpt>
      <trkpt lat="42.22953" lon="1.72462">
        <ele>1381.49</ele>
        <time>2021-07-31T15:54:06Z</time>
      </trkpt>
      <trkpt lat="42.22944" lon="1.72448">
        <ele>1380.35</ele>
        <time>2021-07-31T15:54:07Z</time>
      </trkpt>
      <trkpt lat="42.22903" lon="1.72425">
        <ele>1375.14</ele>
        <time>2021-07-31T15:54:11Z</time>
      </trkpt>
      <trkpt lat="42.22891" lon="1.72422">
        <ele>1373.81</ele>
        <time>2021-07-31T15:54:12Z</time>
      </trkpt>
      <trkpt lat="42.22841" lon="1.72389">
        <ele>1368.61</ele>
        <time>2021-07-31T15:54:16Z</time>
      </trkpt>
      <trkpt lat="42.22828" lon="1.72379">
        <ele>1367.36</ele>
        <time>2021-07-31T15:54:17Z</time>
      </trkpt>
      <trkpt lat="42.22775" lon="1.72359">
        <ele>1362.63</ele>
        <time>2021-07-31T15:54:21Z</time>
      </trkpt>
      <trkpt lat="42.22749" lon="1.7236">
        <ele>1358.74</ele>
        <time>2021-07-31T15:54:23Z</time>
      </trkpt>
      <trkpt lat="42.22723" lon="1.72368">
        <ele>1356.2</ele>
        <time>2021-07-31T15:54:25Z</time>
      </trkpt>
      <trkpt lat="42.22701" lon="1.72376">
        <ele>1353.56</ele>
        <time>2021-07-31T15:54:27Z</time>
      </trkpt>
      <trkpt lat="42.22656" lon="1.72365">
        <ele>1348.67</ele>
        <time>2021-07-31T15:54:31Z</time>
      </trkpt>
      <trkpt lat="42.22611" lon="1.72338">
        <ele>1344.23</ele>
        <time>2021-07-31T15:54:35Z</time>
      </trkpt>
      <trkpt lat="42.22593" lon="1.72329">
        <ele>1342</ele>
        <time>2021-07-31T15:54:37Z</time>
      </trkpt>
      <trkpt lat="42.22566" lon="1.72335">
        <ele>1337.4</ele>
        <time>2021-07-31T15:54:41Z</time>
      </trkpt>
      <trkpt lat="42.22596" lon="1.72379">
        <ele>1333.47</ele>
        <time>2021-07-31T15:54:45Z</time>
      </trkpt>
      <trkpt lat="42.22606" lon="1.72392">
        <ele>1332.51</ele>
        <time>2021-07-31T15:54:46Z</time>
      </trkpt>
      <trkpt lat="42.22652" lon="1.7248">
        <ele>1328.3</ele>
        <time>2021-07-31T15:54:51Z</time>
      </trkpt>
      <trkpt lat="42.22703" lon="1.72569">
        <ele>1324.58</ele>
        <time>2021-07-31T15:54:56Z</time>
      </trkpt>
      <trkpt lat="42.2273" lon="1.72614">
        <ele>1321.83</ele>
        <time>2021-07-31T15:54:59Z</time>
      </trkpt>
      <trkpt lat="42.2278" lon="1.72652">
        <ele>1318.46</ele>
        <time>2021-07-31T15:55:03Z</time>
      </trkpt>
      <trkpt lat="42.22817" lon="1.72716">
        <ele>1313.97</ele>
        <time>2021-07-31T15:55:08Z</time>
      </trkpt>
      <trkpt lat="42.22816" lon="1.72787">
        <ele>1310.34</ele>
        <time>2021-07-31T15:55:12Z</time>
      </trkpt>
      <trkpt lat="42.22835" lon="1.72827">
        <ele>1307.73</ele>
        <time>2021-07-31T15:55:15Z</time>
      </trkpt>
      <trkpt lat="42.22856" lon="1.72866">
        <ele>1302.85</ele>
        <time>2021-07-31T15:55:20Z</time>
      </trkpt>
      <trkpt lat="42.22824" lon="1.72857">
        <ele>1300.22</ele>
        <time>2021-07-31T15:55:23Z</time>
      </trkpt>
      <trkpt lat="42.2276" lon="1.728">
        <ele>1297.15</ele>
        <time>2021-07-31T15:55:28Z</time>
      </trkpt>
      <trkpt lat="42.22709" lon="1.72798">
        <ele>1293</ele>
        <time>2021-07-31T15:55:33Z</time>
      </trkpt>
      <trkpt lat="42.2266" lon="1.72814">
        <ele>1288.54</ele>
        <time>2021-07-31T15:55:38Z</time>
      </trkpt>
      <trkpt lat="42.22626" lon="1.72806">
        <ele>1285.82</ele>
        <time>2021-07-31T15:55:41Z</time>
      </trkpt>
      <trkpt lat="42.22579" lon="1.72762">
        <ele>1281.77</ele>
        <time>2021-07-31T15:55:46Z</time>
      </trkpt>
      <trkpt lat="42.22553" lon="1.72718">
        <ele>1279.46</ele>
        <time>2021-07-31T15:55:49Z</time>
      </trkpt>
      <trkpt lat="42.22507" lon="1.727">
        <ele>1275.05</ele>
        <time>2021-07-31T15:55:54Z</time>
      </trkpt>
      <trkpt lat="42.22476" lon="1.72688">
        <ele>1270.66</ele>
        <time>2021-07-31T15:55:59Z</time>
      </trkpt>
      <trkpt lat="42.22454" lon="1.72658">
        <ele>1268.2</ele>
        <time>2021-07-31T15:56:02Z</time>
      </trkpt>
      <trkpt lat="42.22391" lon="1.72618">
        <ele>1264.43</ele>
        <time>2021-07-31T15:56:08Z</time>
      </trkpt>
      <trkpt lat="42.22372" lon="1.72604">
        <ele>1262.77</ele>
        <time>2021-07-31T15:56:10Z</time>
      </trkpt>
      <trkpt lat="42.22339" lon="1.72579">
        <ele>1258.38</ele>
        <time>2021-07-31T15:56:15Z</time>
      </trkpt>
      <trkpt lat="42.22325" lon="1.72522">
        <ele>1254.81</ele>
        <time>2021-07-31T15:56:20Z</time>
      </trkpt>
      <trkpt lat="42.22311" lon="1.72477">
        <ele>1251.2</ele>
        <time>2021-07-31T15:56:24Z</time>
      </trkpt>
      <trkpt lat="42.22312" lon="1.72464">
        <ele>1250.2</ele>
        <time>2021-07-31T15:56:25Z</time>
      </trkpt>
      <trkpt lat="42.22309" lon="1.7243">
        <ele>1245.25</ele>
        <time>2021-07-31T15:56:30Z</time>
      </trkpt>
      <trkpt lat="42.22307" lon="1.72431">
        <ele>1240.95</ele>
        <time>2021-07-31T15:56:36Z</time>
      </trkpt>
      <trkpt lat="42.22306" lon="1.7243">
        <ele>1240.25</ele>
        <time>2021-07-31T15:56:38Z</time>
      </trkpt>
      <trkpt lat="42.223" lon="1.72423">
        <ele>1239.5</ele>
        <time>2021-07-31T15:56:41Z</time>
      </trkpt>
      <trkpt lat="42.22303" lon="1.72359">
        <ele>1239</ele>
        <time>2021-07-31T15:56:48Z</time>
      </trkpt>
      <trkpt lat="42.22269" lon="1.72249">
        <ele>1241.92</ele>
        <time>2021-07-31T15:56:55Z</time>
      </trkpt>
      <trkpt lat="42.22246" lon="1.72226">
        <ele>1243.05</ele>
        <time>2021-07-31T15:56:57Z</time>
      </trkpt>
      <trkpt lat="42.22182" lon="1.72184">
        <ele>1246.2</ele>
        <time>2021-07-31T15:57:02Z</time>
      </trkpt>
      <trkpt lat="42.22128" lon="1.72106">
        <ele>1250.27</ele>
        <time>2021-07-31T15:57:08Z</time>
      </trkpt>
      <trkpt lat="42.22128" lon="1.7203">
        <ele>1253.84</ele>
        <time>2021-07-31T15:57:12Z</time>
      </trkpt>
      <trkpt lat="42.22131" lon="1.71918">
        <ele>1259.5</ele>
        <time>2021-07-31T15:57:17Z</time>
      </trkpt>
      <trkpt lat="42.22134" lon="1.71848">
        <ele>1263.21</ele>
        <time>2021-07-31T15:57:20Z</time>
      </trkpt>
      <trkpt lat="42.2211" lon="1.71767">
        <ele>1268.8</ele>
        <time>2021-07-31T15:57:24Z</time>
      </trkpt>
      <trkpt lat="42.22058" lon="1.71747">
        <ele>1273.12</ele>
        <time>2021-07-31T15:57:27Z</time>
      </trkpt>
      <trkpt lat="42.22011" lon="1.71781">
        <ele>1277.34</ele>
        <time>2021-07-31T15:57:30Z</time>
      </trkpt>
      <trkpt lat="42.21958" lon="1.71853">
        <ele>1282.98</ele>
        <time>2021-07-31T15:57:34Z</time>
      </trkpt>
      <trkpt lat="42.21916" lon="1.71908">
        <ele>1287.35</ele>
        <time>2021-07-31T15:57:37Z</time>
      </trkpt>
      <trkpt lat="42.21891" lon="1.71943">
        <ele>1291.94</ele>
        <time>2021-07-31T15:57:39Z</time>
      </trkpt>
      <trkpt lat="42.21879" lon="1.71959">
        <ele>1293.47</ele>
        <time>2021-07-31T15:57:40Z</time>
      </trkpt>
      <trkpt lat="42.2182" lon="1.71991">
        <ele>1299.27</ele>
        <time>2021-07-31T15:57:44Z</time>
      </trkpt>
      <trkpt lat="42.21788" lon="1.71977">
        <ele>1302.17</ele>
        <time>2021-07-31T15:57:46Z</time>
      </trkpt>
      <trkpt lat="42.21724" lon="1.71935">
        <ele>1307.36</ele>
        <time>2021-07-31T15:57:50Z</time>
      </trkpt>
      <trkpt lat="42.21681" lon="1.71905">
        <ele>1310.12</ele>
        <time>2021-07-31T15:57:53Z</time>
      </trkpt>
      <trkpt lat="42.21644" lon="1.71836">
        <ele>1311.86</ele>
        <time>2021-07-31T15:57:57Z</time>
      </trkpt>
      <trkpt lat="42.21589" lon="1.71657">
        <ele>1310.68</ele>
        <time>2021-07-31T15:58:06Z</time>
      </trkpt>
      <trkpt lat="42.21551" lon="1.71579">
        <ele>1307.05</ele>
        <time>2021-07-31T15:58:11Z</time>
      </trkpt>
      <trkpt lat="42.21529" lon="1.71507">
        <ele>1303.51</ele>
        <time>2021-07-31T15:58:15Z</time>
      </trkpt>
      <trkpt lat="42.2151" lon="1.71431">
        <ele>1300.22</ele>
        <time>2021-07-31T15:58:19Z</time>
      </trkpt>
      <trkpt lat="42.21479" lon="1.7134">
        <ele>1297.2</ele>
        <time>2021-07-31T15:58:24Z</time>
      </trkpt>
      <trkpt lat="42.21467" lon="1.71304">
        <ele>1296.68</ele>
        <time>2021-07-31T15:58:26Z</time>
      </trkpt>
      <trkpt lat="42.21418" lon="1.71107">
        <ele>1294.61</ele>
        <time>2021-07-31T15:58:36Z</time>
      </trkpt>
      <trkpt lat="42.21413" lon="1.71086">
        <ele>1294.02</ele>
        <time>2021-07-31T15:58:37Z</time>
      </trkpt>
      <trkpt lat="42.21403" lon="1.70978">
        <ele>1290.28</ele>
        <time>2021-07-31T15:58:42Z</time>
      </trkpt>
      <trkpt lat="42.21403" lon="1.70914">
        <ele>1288.04</ele>
        <time>2021-07-31T15:58:45Z</time>
      </trkpt>
      <trkpt lat="42.21425" lon="1.70813">
        <ele>1285.28</ele>
        <time>2021-07-31T15:58:50Z</time>
      </trkpt>
      <trkpt lat="42.21437" lon="1.7066">
        <ele>1286.74</ele>
        <time>2021-07-31T15:58:57Z</time>
      </trkpt>
      <trkpt lat="42.21437" lon="1.70577">
        <ele>1289.84</ele>
        <time>2021-07-31T15:59:01Z</time>
      </trkpt>
      <trkpt lat="42.21432" lon="1.70497">
        <ele>1293.48</ele>
        <time>2021-07-31T15:59:05Z</time>
      </trkpt>
      <trkpt lat="42.21433" lon="1.70435">
        <ele>1296.42</ele>
        <time>2021-07-31T15:59:08Z</time>
      </trkpt>
      <trkpt lat="42.21426" lon="1.70354">
        <ele>1300.8</ele>
        <time>2021-07-31T15:59:12Z</time>
      </trkpt>
      <trkpt lat="42.21412" lon="1.70295">
        <ele>1304.11</ele>
        <time>2021-07-31T15:59:15Z</time>
      </trkpt>
      <trkpt lat="42.21401" lon="1.70239">
        <ele>1307.6</ele>
        <time>2021-07-31T15:59:18Z</time>
      </trkpt>
      <trkpt lat="42.21405" lon="1.70165">
        <ele>1313.16</ele>
        <time>2021-07-31T15:59:22Z</time>
      </trkpt>
      <trkpt lat="42.21411" lon="1.70113">
        <ele>1316.34</ele>
        <time>2021-07-31T15:59:25Z</time>
      </trkpt>
      <trkpt lat="42.21422" lon="1.70046">
        <ele>1319.98</ele>
        <time>2021-07-31T15:59:29Z</time>
      </trkpt>
      <trkpt lat="42.21475" lon="1.69969">
        <ele>1322.97</ele>
        <time>2021-07-31T15:59:35Z</time>
      </trkpt>
      <trkpt lat="42.21534" lon="1.69974">
        <ele>1324.07</ele>
        <time>2021-07-31T15:59:39Z</time>
      </trkpt>
      <trkpt lat="42.21574" lon="1.70009">
        <ele>1324.83</ele>
        <time>2021-07-31T15:59:42Z</time>
      </trkpt>
      <trkpt lat="42.21643" lon="1.70083">
        <ele>1326.95</ele>
        <time>2021-07-31T15:59:48Z</time>
      </trkpt>
      <trkpt lat="42.21719" lon="1.70101">
        <ele>1327.36</ele>
        <time>2021-07-31T15:59:54Z</time>
      </trkpt>
      <trkpt lat="42.21756" lon="1.70051">
        <ele>1327.28</ele>
        <time>2021-07-31T15:59:58Z</time>
      </trkpt>
      <trkpt lat="42.21793" lon="1.69934">
        <ele>1326.99</ele>
        <time>2021-07-31T16:00:05Z</time>
      </trkpt>
      <trkpt lat="42.21795" lon="1.69916">
        <ele>1326.67</ele>
        <time>2021-07-31T16:00:06Z</time>
      </trkpt>
      <trkpt lat="42.21795" lon="1.69897">
        <ele>1326.26</ele>
        <time>2021-07-31T16:00:07Z</time>
      </trkpt>
      <trkpt lat="42.21795" lon="1.69877">
        <ele>1325.87</ele>
        <time>2021-07-31T16:00:08Z</time>
      </trkpt>
      <trkpt lat="42.21794" lon="1.69857">
        <ele>1325.45</ele>
        <time>2021-07-31T16:00:09Z</time>
      </trkpt>
      <trkpt lat="42.21782" lon="1.69756">
        <ele>1322.41</ele>
        <time>2021-07-31T16:00:14Z</time>
      </trkpt>
      <trkpt lat="42.21782" lon="1.69738">
        <ele>1321.7</ele>
        <time>2021-07-31T16:00:15Z</time>
      </trkpt>
      <trkpt lat="42.21811" lon="1.69664">
        <ele>1319.13</ele>
        <time>2021-07-31T16:00:20Z</time>
      </trkpt>
      <trkpt lat="42.21823" lon="1.69654">
        <ele>1318.98</ele>
        <time>2021-07-31T16:00:21Z</time>
      </trkpt>
      <trkpt lat="42.21847" lon="1.69635">
        <ele>1318.88</ele>
        <time>2021-07-31T16:00:23Z</time>
      </trkpt>
      <trkpt lat="42.21883" lon="1.69544">
        <ele>1321.31</ele>
        <time>2021-07-31T16:00:29Z</time>
      </trkpt>
      <trkpt lat="42.21873" lon="1.69491">
        <ele>1323.67</ele>
        <time>2021-07-31T16:00:32Z</time>
      </trkpt>
      <trkpt lat="42.21865" lon="1.69456">
        <ele>1325.49</ele>
        <time>2021-07-31T16:00:34Z</time>
      </trkpt>
      <trkpt lat="42.21869" lon="1.69389">
        <ele>1329.47</ele>
        <time>2021-07-31T16:00:38Z</time>
      </trkpt>
      <trkpt lat="42.21874" lon="1.69373">
        <ele>1330.45</ele>
        <time>2021-07-31T16:00:39Z</time>
      </trkpt>
      <trkpt lat="42.21885" lon="1.69342">
        <ele>1332.34</ele>
        <time>2021-07-31T16:00:41Z</time>
      </trkpt>
      <trkpt lat="42.21918" lon="1.69292">
        <ele>1336.02</ele>
        <time>2021-07-31T16:00:45Z</time>
      </trkpt>
      <trkpt lat="42.2195" lon="1.69261">
        <ele>1338.26</ele>
        <time>2021-07-31T16:00:48Z</time>
      </trkpt>
      <trkpt lat="42.21981" lon="1.69167">
        <ele>1340.08</ele>
        <time>2021-07-31T16:00:54Z</time>
      </trkpt>
      <trkpt lat="42.21974" lon="1.69131">
        <ele>1339.7</ele>
        <time>2021-07-31T16:00:56Z</time>
      </trkpt>
      <trkpt lat="42.21947" lon="1.6904">
        <ele>1338.45</ele>
        <time>2021-07-31T16:01:01Z</time>
      </trkpt>
      <trkpt lat="42.21957" lon="1.68956">
        <ele>1338.81</ele>
        <time>2021-07-31T16:01:06Z</time>
      </trkpt>
      <trkpt lat="42.21977" lon="1.68932">
        <ele>1339.65</ele>
        <time>2021-07-31T16:01:08Z</time>
      </trkpt>
      <trkpt lat="42.22009" lon="1.68899">
        <ele>1341.42</ele>
        <time>2021-07-31T16:01:11Z</time>
      </trkpt>
      <trkpt lat="42.22042" lon="1.68801">
        <ele>1345.59</ele>
        <time>2021-07-31T16:01:17Z</time>
      </trkpt>
      <trkpt lat="42.22045" lon="1.68744">
        <ele>1347.79</ele>
        <time>2021-07-31T16:01:20Z</time>
      </trkpt>
      <trkpt lat="42.22086" lon="1.68652">
        <ele>1352.31</ele>
        <time>2021-07-31T16:01:26Z</time>
      </trkpt>
      <trkpt lat="42.22107" lon="1.6863">
        <ele>1354.15</ele>
        <time>2021-07-31T16:01:28Z</time>
      </trkpt>
      <trkpt lat="42.22135" lon="1.68574">
        <ele>1357.76</ele>
        <time>2021-07-31T16:01:32Z</time>
      </trkpt>
      <trkpt lat="42.22149" lon="1.68527">
        <ele>1360.27</ele>
        <time>2021-07-31T16:01:35Z</time>
      </trkpt>
      <trkpt lat="42.22224" lon="1.68397">
        <ele>1363.99</ele>
        <time>2021-07-31T16:01:44Z</time>
      </trkpt>
      <trkpt lat="42.22241" lon="1.68367">
        <ele>1364.16</ele>
        <time>2021-07-31T16:01:46Z</time>
      </trkpt>
      <trkpt lat="42.22249" lon="1.68285">
        <ele>1365.23</ele>
        <time>2021-07-31T16:01:51Z</time>
      </trkpt>
      <trkpt lat="42.22245" lon="1.68251">
        <ele>1366.08</ele>
        <time>2021-07-31T16:01:53Z</time>
      </trkpt>
      <trkpt lat="42.22247" lon="1.68219">
        <ele>1367.03</ele>
        <time>2021-07-31T16:01:55Z</time>
      </trkpt>
      <trkpt lat="42.22251" lon="1.68204">
        <ele>1367.58</ele>
        <time>2021-07-31T16:01:56Z</time>
      </trkpt>
      <trkpt lat="42.22258" lon="1.6819">
        <ele>1368.12</ele>
        <time>2021-07-31T16:01:57Z</time>
      </trkpt>
      <trkpt lat="42.22267" lon="1.68176">
        <ele>1368.74</ele>
        <time>2021-07-31T16:01:58Z</time>
      </trkpt>
      <trkpt lat="42.22291" lon="1.68155">
        <ele>1370.11</ele>
        <time>2021-07-31T16:02:00Z</time>
      </trkpt>
      <trkpt lat="42.22368" lon="1.68094">
        <ele>1374.35</ele>
        <time>2021-07-31T16:02:07Z</time>
      </trkpt>
      <trkpt lat="42.2242" lon="1.68052">
        <ele>1377.53</ele>
        <time>2021-07-31T16:02:12Z</time>
      </trkpt>
      <trkpt lat="42.22462" lon="1.6802">
        <ele>1380.6</ele>
        <time>2021-07-31T16:02:16Z</time>
      </trkpt>
      <trkpt lat="42.22503" lon="1.67987">
        <ele>1383.77</ele>
        <time>2021-07-31T16:02:20Z</time>
      </trkpt>
      <trkpt lat="42.22523" lon="1.67971">
        <ele>1385.42</ele>
        <time>2021-07-31T16:02:22Z</time>
      </trkpt>
      <trkpt lat="42.22582" lon="1.6796">
        <ele>1389.27</ele>
        <time>2021-07-31T16:02:27Z</time>
      </trkpt>
      <trkpt lat="42.22595" lon="1.67965">
        <ele>1389.98</ele>
        <time>2021-07-31T16:02:28Z</time>
      </trkpt>
      <trkpt lat="42.2262" lon="1.67974">
        <ele>1391.41</ele>
        <time>2021-07-31T16:02:30Z</time>
      </trkpt>
      <trkpt lat="42.22664" lon="1.67967">
        <ele>1395.19</ele>
        <time>2021-07-31T16:02:34Z</time>
      </trkpt>
      <trkpt lat="42.22704" lon="1.67903">
        <ele>1398.59</ele>
        <time>2021-07-31T16:02:39Z</time>
      </trkpt>
      <trkpt lat="42.22706" lon="1.67885">
        <ele>1399.29</ele>
        <time>2021-07-31T16:02:40Z</time>
      </trkpt>
      <trkpt lat="42.22716" lon="1.67772">
        <ele>1403.31</ele>
        <time>2021-07-31T16:02:46Z</time>
      </trkpt>
      <trkpt lat="42.22725" lon="1.67701">
        <ele>1406.15</ele>
        <time>2021-07-31T16:02:50Z</time>
      </trkpt>
      <trkpt lat="42.22746" lon="1.67634">
        <ele>1409</ele>
        <time>2021-07-31T16:02:54Z</time>
      </trkpt>
      <trkpt lat="42.22809" lon="1.67536">
        <ele>1413.4</ele>
        <time>2021-07-31T16:03:00Z</time>
      </trkpt>
      <trkpt lat="42.22869" lon="1.67453">
        <ele>1416.71</ele>
        <time>2021-07-31T16:03:05Z</time>
      </trkpt>
      <trkpt lat="42.22927" lon="1.67306">
        <ele>1420.52</ele>
        <time>2021-07-31T16:03:12Z</time>
      </trkpt>
      <trkpt lat="42.22995" lon="1.6714">
        <ele>1423.26</ele>
        <time>2021-07-31T16:03:21Z</time>
      </trkpt>
      <trkpt lat="42.23097" lon="1.66944">
        <ele>1422.96</ele>
        <time>2021-07-31T16:03:31Z</time>
      </trkpt>
      <trkpt lat="42.23158" lon="1.6685">
        <ele>1420.36</ele>
        <time>2021-07-31T16:03:38Z</time>
      </trkpt>
      <trkpt lat="42.23222" lon="1.6676">
        <ele>1417.21</ele>
        <time>2021-07-31T16:03:47Z</time>
      </trkpt>
      <trkpt lat="42.23302" lon="1.66635">
        <ele>1414.18</ele>
        <time>2021-07-31T16:03:58Z</time>
      </trkpt>
      <trkpt lat="42.23371" lon="1.66506">
        <ele>1411.13</ele>
        <time>2021-07-31T16:04:08Z</time>
      </trkpt>
      <trkpt lat="42.23415" lon="1.66415">
        <ele>1407.92</ele>
        <time>2021-07-31T16:04:14Z</time>
      </trkpt>
      <trkpt lat="42.23437" lon="1.66367">
        <ele>1404.09</ele>
        <time>2021-07-31T16:04:18Z</time>
      </trkpt>
      <trkpt lat="42.23473" lon="1.66323">
        <ele>1400.12</ele>
        <time>2021-07-31T16:04:25Z</time>
      </trkpt>
      <trkpt lat="42.23474" lon="1.66316">
        <ele>1399.74</ele>
        <time>2021-07-31T16:04:26Z</time>
      </trkpt>
      <trkpt lat="42.23481" lon="1.66286">
        <ele>1398.96</ele>
        <time>2021-07-31T16:04:31Z</time>
      </trkpt>
      <trkpt lat="42.23536" lon="1.66212">
        <ele>1400.12</ele>
        <time>2021-07-31T16:04:41Z</time>
      </trkpt>
      <trkpt lat="42.23592" lon="1.66146">
        <ele>1403.03</ele>
        <time>2021-07-31T16:04:51Z</time>
      </trkpt>
      <trkpt lat="42.2365" lon="1.66089">
        <ele>1404.56</ele>
        <time>2021-07-31T16:05:01Z</time>
      </trkpt>
      <trkpt lat="42.23684" lon="1.66036">
        <ele>1407.05</ele>
        <time>2021-07-31T16:05:11Z</time>
      </trkpt>
      <trkpt lat="42.23699" lon="1.66031">
        <ele>1408.71</ele>
        <time>2021-07-31T16:05:21Z</time>
      </trkpt>
      <trkpt lat="42.23723" lon="1.66009">
        <ele>1408.64</ele>
        <time>2021-07-31T16:05:31Z</time>
      </trkpt>
      <trkpt lat="42.23779" lon="1.65972">
        <ele>1408.55</ele>
        <time>2021-07-31T16:05:46Z</time>
      </trkpt>
      <trkpt lat="42.23843" lon="1.65933">
        <ele>1408.01</ele>
        <time>2021-07-31T16:05:53Z</time>
      </trkpt>
      <trkpt lat="42.23972" lon="1.65875">
        <ele>1410.97</ele>
        <time>2021-07-31T16:06:05Z</time>
      </trkpt>
      <trkpt lat="42.24019" lon="1.6585">
        <ele>1414.35</ele>
        <time>2021-07-31T16:06:09Z</time>
      </trkpt>
      <trkpt lat="42.24066" lon="1.65828">
        <ele>1417.87</ele>
        <time>2021-07-31T16:06:13Z</time>
      </trkpt>
      <trkpt lat="42.24115" lon="1.65808">
        <ele>1421.78</ele>
        <time>2021-07-31T16:06:17Z</time>
      </trkpt>
      <trkpt lat="42.24167" lon="1.65786">
        <ele>1425.75</ele>
        <time>2021-07-31T16:06:21Z</time>
      </trkpt>
      <trkpt lat="42.24207" lon="1.65772">
        <ele>1428.83</ele>
        <time>2021-07-31T16:06:24Z</time>
      </trkpt>
      <trkpt lat="42.24262" lon="1.65774">
        <ele>1432.9</ele>
        <time>2021-07-31T16:06:28Z</time>
      </trkpt>
      <trkpt lat="42.24297" lon="1.65798">
        <ele>1435.95</ele>
        <time>2021-07-31T16:06:31Z</time>
      </trkpt>
      <trkpt lat="42.24312" lon="1.65826">
        <ele>1438.04</ele>
        <time>2021-07-31T16:06:33Z</time>
      </trkpt>
      <trkpt lat="42.2435" lon="1.65893">
        <ele>1443.37</ele>
        <time>2021-07-31T16:06:38Z</time>
      </trkpt>
      <trkpt lat="42.24385" lon="1.6593">
        <ele>1446.46</ele>
        <time>2021-07-31T16:06:41Z</time>
      </trkpt>
      <trkpt lat="42.24428" lon="1.65962">
        <ele>1449.87</ele>
        <time>2021-07-31T16:06:44Z</time>
      </trkpt>
      <trkpt lat="42.2447" lon="1.6599">
        <ele>1453.75</ele>
        <time>2021-07-31T16:06:47Z</time>
      </trkpt>
      <trkpt lat="42.24505" lon="1.66006">
        <ele>1457.78</ele>
        <time>2021-07-31T16:06:50Z</time>
      </trkpt>
      <trkpt lat="42.24518" lon="1.66022">
        <ele>1461.05</ele>
        <time>2021-07-31T16:06:53Z</time>
      </trkpt>
      <trkpt lat="42.24513" lon="1.66023">
        <ele>1462.05</ele>
        <time>2021-07-31T16:06:54Z</time>
      </trkpt>
      <trkpt lat="42.24494" lon="1.66021">
        <ele>1463.75</ele>
        <time>2021-07-31T16:06:56Z</time>
      </trkpt>
      <trkpt lat="42.24471" lon="1.66013">
        <ele>1465.5</ele>
        <time>2021-07-31T16:06:58Z</time>
      </trkpt>
      <trkpt lat="42.24403" lon="1.66005">
        <ele>1469.54</ele>
        <time>2021-07-31T16:07:03Z</time>
      </trkpt>
      <trkpt lat="42.24346" lon="1.65984">
        <ele>1472.7</ele>
        <time>2021-07-31T16:07:07Z</time>
      </trkpt>
      <trkpt lat="42.24311" lon="1.65962">
        <ele>1474.67</ele>
        <time>2021-07-31T16:07:10Z</time>
      </trkpt>
      <trkpt lat="42.24287" lon="1.6597">
        <ele>1476.95</ele>
        <time>2021-07-31T16:07:15Z</time>
      </trkpt>
      <trkpt lat="42.24299" lon="1.65982">
        <ele>1477.53</ele>
        <time>2021-07-31T16:07:17Z</time>
      </trkpt>
      <trkpt lat="42.2438" lon="1.66042">
        <ele>1480.94</ele>
        <time>2021-07-31T16:07:25Z</time>
      </trkpt>
      <trkpt lat="42.24436" lon="1.66075">
        <ele>1484.22</ele>
        <time>2021-07-31T16:07:29Z</time>
      </trkpt>
      <trkpt lat="42.24484" lon="1.66106">
        <ele>1487.33</ele>
        <time>2021-07-31T16:07:32Z</time>
      </trkpt>
      <trkpt lat="42.24527" lon="1.66149">
        <ele>1492.16</ele>
        <time>2021-07-31T16:07:35Z</time>
      </trkpt>
      <trkpt lat="42.24553" lon="1.6618">
        <ele>1494.74</ele>
        <time>2021-07-31T16:07:37Z</time>
      </trkpt>
      <trkpt lat="42.24569" lon="1.66234">
        <ele>1498.44</ele>
        <time>2021-07-31T16:07:40Z</time>
      </trkpt>
      <trkpt lat="42.24588" lon="1.66266">
        <ele>1501.94</ele>
        <time>2021-07-31T16:07:43Z</time>
      </trkpt>
      <trkpt lat="42.24625" lon="1.66212">
        <ele>1506.7</ele>
        <time>2021-07-31T16:07:48Z</time>
      </trkpt>
      <trkpt lat="42.24646" lon="1.6613">
        <ele>1510.07</ele>
        <time>2021-07-31T16:07:52Z</time>
      </trkpt>
      <trkpt lat="42.24651" lon="1.66091">
        <ele>1512.07</ele>
        <time>2021-07-31T16:07:54Z</time>
      </trkpt>
      <trkpt lat="42.24676" lon="1.66016">
        <ele>1516.24</ele>
        <time>2021-07-31T16:07:58Z</time>
      </trkpt>
      <trkpt lat="42.24707" lon="1.65965">
        <ele>1519.52</ele>
        <time>2021-07-31T16:08:01Z</time>
      </trkpt>
      <trkpt lat="42.24752" lon="1.65931">
        <ele>1523.03</ele>
        <time>2021-07-31T16:08:04Z</time>
      </trkpt>
      <trkpt lat="42.24769" lon="1.65924">
        <ele>1524.22</ele>
        <time>2021-07-31T16:08:05Z</time>
      </trkpt>
      <trkpt lat="42.24837" lon="1.65899">
        <ele>1529.44</ele>
        <time>2021-07-31T16:08:09Z</time>
      </trkpt>
      <trkpt lat="42.24871" lon="1.65886">
        <ele>1532.13</ele>
        <time>2021-07-31T16:08:11Z</time>
      </trkpt>
      <trkpt lat="42.24917" lon="1.65849">
        <ele>1536.53</ele>
        <time>2021-07-31T16:08:14Z</time>
      </trkpt>
      <trkpt lat="42.24939" lon="1.65812">
        <ele>1539.42</ele>
        <time>2021-07-31T16:08:16Z</time>
      </trkpt>
      <trkpt lat="42.2499" lon="1.65747">
        <ele>1545.78</ele>
        <time>2021-07-31T16:08:21Z</time>
      </trkpt>
      <trkpt lat="42.25002" lon="1.65742">
        <ele>1546.99</ele>
        <time>2021-07-31T16:08:22Z</time>
      </trkpt>
      <trkpt lat="42.25028" lon="1.65734">
        <ele>1549.36</ele>
        <time>2021-07-31T16:08:24Z</time>
      </trkpt>
      <trkpt lat="42.25054" lon="1.65697">
        <ele>1553.73</ele>
        <time>2021-07-31T16:08:28Z</time>
      </trkpt>
      <trkpt lat="42.25039" lon="1.6566">
        <ele>1556.48</ele>
        <time>2021-07-31T16:08:31Z</time>
      </trkpt>
      <trkpt lat="42.25002" lon="1.65589">
        <ele>1560.26</ele>
        <time>2021-07-31T16:08:36Z</time>
      </trkpt>
      <trkpt lat="42.24982" lon="1.65549">
        <ele>1562.61</ele>
        <time>2021-07-31T16:08:39Z</time>
      </trkpt>
      <trkpt lat="42.24975" lon="1.65495">
        <ele>1565.35</ele>
        <time>2021-07-31T16:08:43Z</time>
      </trkpt>
      <trkpt lat="42.24976" lon="1.65458">
        <ele>1567.6</ele>
        <time>2021-07-31T16:08:46Z</time>
      </trkpt>
      <trkpt lat="42.24968" lon="1.65408">
        <ele>1571.77</ele>
        <time>2021-07-31T16:08:51Z</time>
      </trkpt>
      <trkpt lat="42.24967" lon="1.65399">
        <ele>1572.54</ele>
        <time>2021-07-31T16:08:52Z</time>
      </trkpt>
      <trkpt lat="42.24969" lon="1.65356">
        <ele>1576.88</ele>
        <time>2021-07-31T16:08:58Z</time>
      </trkpt>
      <trkpt lat="42.24967" lon="1.65302">
        <ele>1580.23</ele>
        <time>2021-07-31T16:09:04Z</time>
      </trkpt>
      <trkpt lat="42.24972" lon="1.65246">
        <ele>1583.53</ele>
        <time>2021-07-31T16:09:09Z</time>
      </trkpt>
      <trkpt lat="42.24977" lon="1.65206">
        <ele>1586</ele>
        <time>2021-07-31T16:09:12Z</time>
      </trkpt>
      <trkpt lat="42.24976" lon="1.65162">
        <ele>1590.41</ele>
        <time>2021-07-31T16:09:16Z</time>
      </trkpt>
      <trkpt lat="42.24992" lon="1.651">
        <ele>1594.83</ele>
        <time>2021-07-31T16:09:21Z</time>
      </trkpt>
      <trkpt lat="42.25018" lon="1.65074">
        <ele>1597.99</ele>
        <time>2021-07-31T16:09:24Z</time>
      </trkpt>
      <trkpt lat="42.25041" lon="1.65063">
        <ele>1600.32</ele>
        <time>2021-07-31T16:09:26Z</time>
      </trkpt>
      <trkpt lat="42.25092" lon="1.65048">
        <ele>1604.25</ele>
        <time>2021-07-31T16:09:30Z</time>
      </trkpt>
      <trkpt lat="42.25113" lon="1.65037">
        <ele>1605.12</ele>
        <time>2021-07-31T16:09:32Z</time>
      </trkpt>
      <trkpt lat="42.25138" lon="1.64998">
        <ele>1605.16</ele>
        <time>2021-07-31T16:09:35Z</time>
      </trkpt>
      <trkpt lat="42.25152" lon="1.64964">
        <ele>1604.82</ele>
        <time>2021-07-31T16:09:37Z</time>
      </trkpt>
      <trkpt lat="42.25164" lon="1.64912">
        <ele>1603.49</ele>
        <time>2021-07-31T16:09:40Z</time>
      </trkpt>
      <trkpt lat="42.25195" lon="1.64864">
        <ele>1599.49</ele>
        <time>2021-07-31T16:09:44Z</time>
      </trkpt>
      <trkpt lat="42.25215" lon="1.64837">
        <ele>1597.6</ele>
        <time>2021-07-31T16:09:46Z</time>
      </trkpt>
      <trkpt lat="42.25262" lon="1.64739">
        <ele>1592.96</ele>
        <time>2021-07-31T16:09:51Z</time>
      </trkpt>
      <trkpt lat="42.25314" lon="1.64664">
        <ele>1589</ele>
        <time>2021-07-31T16:09:55Z</time>
      </trkpt>
      <trkpt lat="42.25347" lon="1.64618">
        <ele>1585.48</ele>
        <time>2021-07-31T16:09:58Z</time>
      </trkpt>
      <trkpt lat="42.25353" lon="1.64564">
        <ele>1580.14</ele>
        <time>2021-07-31T16:10:02Z</time>
      </trkpt>
      <trkpt lat="42.25381" lon="1.64523">
        <ele>1573.63</ele>
        <time>2021-07-31T16:10:07Z</time>
      </trkpt>
      <trkpt lat="42.25392" lon="1.64524">
        <ele>1572.55</ele>
        <time>2021-07-31T16:10:08Z</time>
      </trkpt>
      <trkpt lat="42.25431" lon="1.64527">
        <ele>1569.9</ele>
        <time>2021-07-31T16:10:11Z</time>
      </trkpt>
      <trkpt lat="42.25502" lon="1.64493">
        <ele>1565.67</ele>
        <time>2021-07-31T16:10:16Z</time>
      </trkpt>
      <trkpt lat="42.25569" lon="1.64452">
        <ele>1562.57</ele>
        <time>2021-07-31T16:10:20Z</time>
      </trkpt>
      <trkpt lat="42.25611" lon="1.64415">
        <ele>1559.96</ele>
        <time>2021-07-31T16:10:23Z</time>
      </trkpt>
      <trkpt lat="42.25654" lon="1.64323">
        <ele>1555.93</ele>
        <time>2021-07-31T16:10:27Z</time>
      </trkpt>
      <trkpt lat="42.25693" lon="1.64222">
        <ele>1551.94</ele>
        <time>2021-07-31T16:10:31Z</time>
      </trkpt>
      <trkpt lat="42.25701" lon="1.64197">
        <ele>1550.77</ele>
        <time>2021-07-31T16:10:32Z</time>
      </trkpt>
      <trkpt lat="42.25746" lon="1.64119">
        <ele>1545.4</ele>
        <time>2021-07-31T16:10:36Z</time>
      </trkpt>
      <trkpt lat="42.25764" lon="1.64076">
        <ele>1542.27</ele>
        <time>2021-07-31T16:10:38Z</time>
      </trkpt>
      <trkpt lat="42.25791" lon="1.63978">
        <ele>1536.37</ele>
        <time>2021-07-31T16:10:42Z</time>
      </trkpt>
      <trkpt lat="42.25795" lon="1.63951">
        <ele>1535.01</ele>
        <time>2021-07-31T16:10:43Z</time>
      </trkpt>
      <trkpt lat="42.25802" lon="1.63849">
        <ele>1529.66</ele>
        <time>2021-07-31T16:10:47Z</time>
      </trkpt>
      <trkpt lat="42.25803" lon="1.63801">
        <ele>1526.8</ele>
        <time>2021-07-31T16:10:49Z</time>
      </trkpt>
      <trkpt lat="42.25798" lon="1.63737">
        <ele>1520.24</ele>
        <time>2021-07-31T16:10:52Z</time>
      </trkpt>
      <trkpt lat="42.25794" lon="1.63721">
        <ele>1520.24</ele>
        <time>2021-07-31T16:10:53Z</time>
      </trkpt>
      <trkpt lat="42.25799" lon="1.63698">
        <ele>1512.85</ele>
        <time>2021-07-31T16:10:56Z</time>
      </trkpt>
      <trkpt lat="42.25807" lon="1.63709">
        <ele>1509.02</ele>
        <time>2021-07-31T16:10:58Z</time>
      </trkpt>
      <trkpt lat="42.25816" lon="1.63736">
        <ele>1505.71</ele>
        <time>2021-07-31T16:11:00Z</time>
      </trkpt>
      <trkpt lat="42.25823" lon="1.63752">
        <ele>1504.37</ele>
        <time>2021-07-31T16:11:01Z</time>
      </trkpt>
      <trkpt lat="42.25856" lon="1.63836">
        <ele>1499.87</ele>
        <time>2021-07-31T16:11:05Z</time>
      </trkpt>
      <trkpt lat="42.25869" lon="1.63932">
        <ele>1495.43</ele>
        <time>2021-07-31T16:11:09Z</time>
      </trkpt>
      <trkpt lat="42.25864" lon="1.6398">
        <ele>1491.53</ele>
        <time>2021-07-31T16:11:12Z</time>
      </trkpt>
      <trkpt lat="42.25872" lon="1.64">
        <ele>1487.5</ele>
        <time>2021-07-31T16:11:15Z</time>
      </trkpt>
      <trkpt lat="42.25876" lon="1.63986">
        <ele>1483.86</ele>
        <time>2021-07-31T16:11:18Z</time>
      </trkpt>
      <trkpt lat="42.25898" lon="1.63924">
        <ele>1480.79</ele>
        <time>2021-07-31T16:11:21Z</time>
      </trkpt>
      <trkpt lat="42.2591" lon="1.639">
        <ele>1479.9</ele>
        <time>2021-07-31T16:11:22Z</time>
      </trkpt>
      <trkpt lat="42.25925" lon="1.6384">
        <ele>1477.33</ele>
        <time>2021-07-31T16:11:25Z</time>
      </trkpt>
      <trkpt lat="42.25916" lon="1.6375">
        <ele>1473.35</ele>
        <time>2021-07-31T16:11:29Z</time>
      </trkpt>
      <trkpt lat="42.25913" lon="1.63714">
        <ele>1471.01</ele>
        <time>2021-07-31T16:11:31Z</time>
      </trkpt>
      <trkpt lat="42.25931" lon="1.63689">
        <ele>1465.2</ele>
        <time>2021-07-31T16:11:35Z</time>
      </trkpt>
      <trkpt lat="42.25941" lon="1.63715">
        <ele>1462.14</ele>
        <time>2021-07-31T16:11:37Z</time>
      </trkpt>
      <trkpt lat="42.25963" lon="1.63797">
        <ele>1457.37</ele>
        <time>2021-07-31T16:11:41Z</time>
      </trkpt>
      <trkpt lat="42.25987" lon="1.63901">
        <ele>1453.41</ele>
        <time>2021-07-31T16:11:45Z</time>
      </trkpt>
      <trkpt lat="42.25999" lon="1.63985">
        <ele>1450.18</ele>
        <time>2021-07-31T16:11:48Z</time>
      </trkpt>
      <trkpt lat="42.26015" lon="1.64055">
        <ele>1446.14</ele>
        <time>2021-07-31T16:11:51Z</time>
      </trkpt>
      <trkpt lat="42.26015" lon="1.64106">
        <ele>1441.48</ele>
        <time>2021-07-31T16:11:54Z</time>
      </trkpt>
      <trkpt lat="42.25998" lon="1.64131">
        <ele>1438.33</ele>
        <time>2021-07-31T16:11:56Z</time>
      </trkpt>
      <trkpt lat="42.2598" lon="1.64171">
        <ele>1434.23</ele>
        <time>2021-07-31T16:11:59Z</time>
      </trkpt>
      <trkpt lat="42.25988" lon="1.64197">
        <ele>1432.02</ele>
        <time>2021-07-31T16:12:01Z</time>
      </trkpt>
      <trkpt lat="42.25998" lon="1.64208">
        <ele>1430.99</ele>
        <time>2021-07-31T16:12:02Z</time>
      </trkpt>
      <trkpt lat="42.2601" lon="1.64213">
        <ele>1430.07</ele>
        <time>2021-07-31T16:12:03Z</time>
      </trkpt>
      <trkpt lat="42.26055" lon="1.64185">
        <ele>1426.92</ele>
        <time>2021-07-31T16:12:07Z</time>
      </trkpt>
      <trkpt lat="42.26067" lon="1.6417">
        <ele>1426.24</ele>
        <time>2021-07-31T16:12:08Z</time>
      </trkpt>
      <trkpt lat="42.26102" lon="1.64082">
        <ele>1423.87</ele>
        <time>2021-07-31T16:12:13Z</time>
      </trkpt>
      <trkpt lat="42.26103" lon="1.6404">
        <ele>1422.97</ele>
        <time>2021-07-31T16:12:15Z</time>
      </trkpt>
      <trkpt lat="42.26129" lon="1.63957">
        <ele>1421.43</ele>
        <time>2021-07-31T16:12:19Z</time>
      </trkpt>
      <trkpt lat="42.26141" lon="1.63868">
        <ele>1420.07</ele>
        <time>2021-07-31T16:12:23Z</time>
      </trkpt>
      <trkpt lat="42.26141" lon="1.63709">
        <ele>1416.61</ele>
        <time>2021-07-31T16:12:30Z</time>
      </trkpt>
      <trkpt lat="42.26146" lon="1.63604">
        <ele>1413.53</ele>
        <time>2021-07-31T16:12:35Z</time>
      </trkpt>
      <trkpt lat="42.26155" lon="1.63516">
        <ele>1411.9</ele>
        <time>2021-07-31T16:12:39Z</time>
      </trkpt>
      <trkpt lat="42.26149" lon="1.6343">
        <ele>1410.9</ele>
        <time>2021-07-31T16:12:43Z</time>
      </trkpt>
      <trkpt lat="42.26151" lon="1.63388">
        <ele>1410.41</ele>
        <time>2021-07-31T16:12:45Z</time>
      </trkpt>
      <trkpt lat="42.26139" lon="1.63304">
        <ele>1409.43</ele>
        <time>2021-07-31T16:12:49Z</time>
      </trkpt>
      <trkpt lat="42.26099" lon="1.63165">
        <ele>1405.75</ele>
        <time>2021-07-31T16:12:56Z</time>
      </trkpt>
      <trkpt lat="42.26097" lon="1.63147">
        <ele>1405.12</ele>
        <time>2021-07-31T16:12:57Z</time>
      </trkpt>
      <trkpt lat="42.26111" lon="1.63087">
        <ele>1402.14</ele>
        <time>2021-07-31T16:13:01Z</time>
      </trkpt>
      <trkpt lat="42.26103" lon="1.63011">
        <ele>1399.42</ele>
        <time>2021-07-31T16:13:06Z</time>
      </trkpt>
      <trkpt lat="42.26097" lon="1.62941">
        <ele>1397.3</ele>
        <time>2021-07-31T16:13:10Z</time>
      </trkpt>
      <trkpt lat="42.26103" lon="1.62905">
        <ele>1396.26</ele>
        <time>2021-07-31T16:13:12Z</time>
      </trkpt>
      <trkpt lat="42.26125" lon="1.62834">
        <ele>1394.05</ele>
        <time>2021-07-31T16:13:16Z</time>
      </trkpt>
      <trkpt lat="42.26128" lon="1.62816">
        <ele>1393.5</ele>
        <time>2021-07-31T16:13:17Z</time>
      </trkpt>
      <trkpt lat="42.26129" lon="1.62797">
        <ele>1392.83</ele>
        <time>2021-07-31T16:13:18Z</time>
      </trkpt>
      <trkpt lat="42.26128" lon="1.6278">
        <ele>1392.12</ele>
        <time>2021-07-31T16:13:19Z</time>
      </trkpt>
      <trkpt lat="42.26094" lon="1.62729">
        <ele>1389.13</ele>
        <time>2021-07-31T16:13:23Z</time>
      </trkpt>
      <trkpt lat="42.26065" lon="1.62673">
        <ele>1385.74</ele>
        <time>2021-07-31T16:13:27Z</time>
      </trkpt>
      <trkpt lat="42.26062" lon="1.62626">
        <ele>1383.55</ele>
        <time>2021-07-31T16:13:30Z</time>
      </trkpt>
      <trkpt lat="42.26072" lon="1.6255">
        <ele>1381.25</ele>
        <time>2021-07-31T16:13:35Z</time>
      </trkpt>
      <trkpt lat="42.26051" lon="1.62477">
        <ele>1379.29</ele>
        <time>2021-07-31T16:13:40Z</time>
      </trkpt>
      <trkpt lat="42.26034" lon="1.62446">
        <ele>1378.32</ele>
        <time>2021-07-31T16:13:42Z</time>
      </trkpt>
      <trkpt lat="42.26003" lon="1.62303">
        <ele>1374.7</ele>
        <time>2021-07-31T16:13:50Z</time>
      </trkpt>
      <trkpt lat="42.26032" lon="1.6223">
        <ele>1373.1</ele>
        <time>2021-07-31T16:13:55Z</time>
      </trkpt>
      <trkpt lat="42.26079" lon="1.62171">
        <ele>1371.67</ele>
        <time>2021-07-31T16:14:00Z</time>
      </trkpt>
      <trkpt lat="42.26075" lon="1.62109">
        <ele>1369.71</ele>
        <time>2021-07-31T16:14:05Z</time>
      </trkpt>
      <trkpt lat="42.26024" lon="1.62093">
        <ele>1368.37</ele>
        <time>2021-07-31T16:14:09Z</time>
      </trkpt>
      <trkpt lat="42.25998" lon="1.621">
        <ele>1367.88</ele>
        <time>2021-07-31T16:14:11Z</time>
      </trkpt>
      <trkpt lat="42.25937" lon="1.62076">
        <ele>1368.04</ele>
        <time>2021-07-31T16:14:18Z</time>
      </trkpt>
      <trkpt lat="42.25952" lon="1.62021">
        <ele>1369.41</ele>
        <time>2021-07-31T16:14:22Z</time>
      </trkpt>
      <trkpt lat="42.25979" lon="1.61893">
        <ele>1373.46</ele>
        <time>2021-07-31T16:14:29Z</time>
      </trkpt>
      <trkpt lat="42.25978" lon="1.61875">
        <ele>1374.08</ele>
        <time>2021-07-31T16:14:30Z</time>
      </trkpt>
      <trkpt lat="42.25974" lon="1.61811">
        <ele>1376.51</ele>
        <time>2021-07-31T16:14:34Z</time>
      </trkpt>
      <trkpt lat="42.25998" lon="1.6173">
        <ele>1378.74</ele>
        <time>2021-07-31T16:14:41Z</time>
      </trkpt>
      <trkpt lat="42.25973" lon="1.61696">
        <ele>1378.87</ele>
        <time>2021-07-31T16:14:46Z</time>
      </trkpt>
      <trkpt lat="42.25928" lon="1.61688">
        <ele>1379</ele>
        <time>2021-07-31T16:14:50Z</time>
      </trkpt>
      <trkpt lat="42.25888" lon="1.61701">
        <ele>1379.42</ele>
        <time>2021-07-31T16:14:55Z</time>
      </trkpt>
      <trkpt lat="42.25846" lon="1.61744">
        <ele>1380.27</ele>
        <time>2021-07-31T16:15:06Z</time>
      </trkpt>
      <trkpt lat="42.25833" lon="1.61745">
        <ele>1380.79</ele>
        <time>2021-07-31T16:15:13Z</time>
      </trkpt>
      <trkpt lat="42.25821" lon="1.61757">
        <ele>1381.15</ele>
        <time>2021-07-31T16:15:18Z</time>
      </trkpt>
      <trkpt lat="42.25822" lon="1.61759">
        <ele>1381.18</ele>
        <time>2021-07-31T16:15:19Z</time>
      </trkpt>
      <trkpt lat="42.25824" lon="1.61761">
        <ele>1381.23</ele>
        <time>2021-07-31T16:15:20Z</time>
      </trkpt>
      <trkpt lat="42.25825" lon="1.61762">
        <ele>1381.28</ele>
        <time>2021-07-31T16:15:21Z</time>
      </trkpt>
      <trkpt lat="42.25827" lon="1.61762">
        <ele>1381.85</ele>
        <time>2021-07-31T16:15:39Z</time>
      </trkpt>
      <trkpt lat="42.25829" lon="1.61761">
        <ele>1381.87</ele>
        <time>2021-07-31T16:15:46Z</time>
      </trkpt>
      <trkpt lat="42.25858" lon="1.61718">
        <ele>1382.14</ele>
        <time>2021-07-31T16:15:54Z</time>
      </trkpt>
      <trkpt lat="42.25885" lon="1.61678">
        <ele>1383.26</ele>
        <time>2021-07-31T16:16:00Z</time>
      </trkpt>
      <trkpt lat="42.25895" lon="1.6163">
        <ele>1384.72</ele>
        <time>2021-07-31T16:16:06Z</time>
      </trkpt>
      <trkpt lat="42.25885" lon="1.616">
        <ele>1387.1</ele>
        <time>2021-07-31T16:16:11Z</time>
      </trkpt>
      <trkpt lat="42.25849" lon="1.61584">
        <ele>1389.93</ele>
        <time>2021-07-31T16:16:18Z</time>
      </trkpt>
      <trkpt lat="42.25841" lon="1.61564">
        <ele>1392.34</ele>
        <time>2021-07-31T16:16:24Z</time>
      </trkpt>
      <trkpt lat="42.25837" lon="1.61552">
        <ele>1394.37</ele>
        <time>2021-07-31T16:19:27Z</time>
      </trkpt>
      <trkpt lat="42.25833" lon="1.61542">
        <ele>1394.62</ele>
        <time>2021-07-31T16:19:29Z</time>
      </trkpt>
      <trkpt lat="42.2579" lon="1.61486">
        <ele>1397.1</ele>
        <time>2021-07-31T16:19:37Z</time>
      </trkpt>
      <trkpt lat="42.25772" lon="1.61463">
        <ele>1398.26</ele>
        <time>2021-07-31T16:19:40Z</time>
      </trkpt>
      <trkpt lat="42.25748" lon="1.61414">
        <ele>1399.14</ele>
        <time>2021-07-31T16:19:45Z</time>
      </trkpt>
      <trkpt lat="42.25731" lon="1.61286">
        <ele>1401.46</ele>
        <time>2021-07-31T16:19:55Z</time>
      </trkpt>
      <trkpt lat="42.25727" lon="1.6125">
        <ele>1401.89</ele>
        <time>2021-07-31T16:19:58Z</time>
      </trkpt>
      <trkpt lat="42.25705" lon="1.61232">
        <ele>1403.09</ele>
        <time>2021-07-31T16:20:02Z</time>
      </trkpt>
      <trkpt lat="42.25679" lon="1.61233">
        <ele>1404.64</ele>
        <time>2021-07-31T16:20:06Z</time>
      </trkpt>
      <trkpt lat="42.25632" lon="1.61258">
        <ele>1407.59</ele>
        <time>2021-07-31T16:20:13Z</time>
      </trkpt>
      <trkpt lat="42.25592" lon="1.61287">
        <ele>1410.88</ele>
        <time>2021-07-31T16:20:19Z</time>
      </trkpt>
      <trkpt lat="42.25581" lon="1.61296">
        <ele>1412.11</ele>
        <time>2021-07-31T16:20:21Z</time>
      </trkpt>
      <trkpt lat="42.2553" lon="1.61287">
        <ele>1415.96</ele>
        <time>2021-07-31T16:20:28Z</time>
      </trkpt>
      <trkpt lat="42.25477" lon="1.61238">
        <ele>1419.9</ele>
        <time>2021-07-31T16:20:35Z</time>
      </trkpt>
      <trkpt lat="42.25434" lon="1.61191">
        <ele>1423.41</ele>
        <time>2021-07-31T16:20:41Z</time>
      </trkpt>
      <trkpt lat="42.25407" lon="1.61181">
        <ele>1425.64</ele>
        <time>2021-07-31T16:20:45Z</time>
      </trkpt>
      <trkpt lat="42.2539" lon="1.61157">
        <ele>1428.15</ele>
        <time>2021-07-31T16:20:50Z</time>
      </trkpt>
      <trkpt lat="42.25371" lon="1.61077">
        <ele>1431.85</ele>
        <time>2021-07-31T16:20:58Z</time>
      </trkpt>
      <trkpt lat="42.25367" lon="1.61058">
        <ele>1432.77</ele>
        <time>2021-07-31T16:21:00Z</time>
      </trkpt>
      <trkpt lat="42.25377" lon="1.61026">
        <ele>1434.22</ele>
        <time>2021-07-31T16:21:05Z</time>
      </trkpt>
      <trkpt lat="42.25448" lon="1.6099">
        <ele>1435.51</ele>
        <time>2021-07-31T16:21:13Z</time>
      </trkpt>
      <trkpt lat="42.2549" lon="1.60943">
        <ele>1436.13</ele>
        <time>2021-07-31T16:21:20Z</time>
      </trkpt>
      <trkpt lat="42.25514" lon="1.6086">
        <ele>1438.64</ele>
        <time>2021-07-31T16:21:29Z</time>
      </trkpt>
      <trkpt lat="42.25517" lon="1.60844">
        <ele>1439.36</ele>
        <time>2021-07-31T16:21:31Z</time>
      </trkpt>
      <trkpt lat="42.25517" lon="1.60808">
        <ele>1441.16</ele>
        <time>2021-07-31T16:21:35Z</time>
      </trkpt>
      <trkpt lat="42.2549" lon="1.60747">
        <ele>1444.64</ele>
        <time>2021-07-31T16:21:41Z</time>
      </trkpt>
      <trkpt lat="42.25475" lon="1.6073">
        <ele>1445.93</ele>
        <time>2021-07-31T16:21:43Z</time>
      </trkpt>
      <trkpt lat="42.25435" lon="1.60697">
        <ele>1449.32</ele>
        <time>2021-07-31T16:21:48Z</time>
      </trkpt>
      <trkpt lat="42.25419" lon="1.6068">
        <ele>1452.22</ele>
        <time>2021-07-31T16:21:53Z</time>
      </trkpt>
      <trkpt lat="42.25438" lon="1.60691">
        <ele>1454.61</ele>
        <time>2021-07-31T16:21:57Z</time>
      </trkpt>
      <trkpt lat="42.25501" lon="1.60719">
        <ele>1458.5</ele>
        <time>2021-07-31T16:22:04Z</time>
      </trkpt>
      <trkpt lat="42.25535" lon="1.60759">
        <ele>1462.25</ele>
        <time>2021-07-31T16:22:11Z</time>
      </trkpt>
      <trkpt lat="42.25542" lon="1.60765">
        <ele>1462.8</ele>
        <time>2021-07-31T16:22:12Z</time>
      </trkpt>
      <trkpt lat="42.25558" lon="1.60779">
        <ele>1464.22</ele>
        <time>2021-07-31T16:22:15Z</time>
      </trkpt>
      <trkpt lat="42.25577" lon="1.60826">
        <ele>1466.94</ele>
        <time>2021-07-31T16:22:20Z</time>
      </trkpt>
      <trkpt lat="42.25581" lon="1.60863">
        <ele>1468.33</ele>
        <time>2021-07-31T16:22:23Z</time>
      </trkpt>
      <trkpt lat="42.25577" lon="1.60913">
        <ele>1471.42</ele>
        <time>2021-07-31T16:22:28Z</time>
      </trkpt>
      <trkpt lat="42.25559" lon="1.60971">
        <ele>1475.3</ele>
        <time>2021-07-31T16:22:35Z</time>
      </trkpt>
      <trkpt lat="42.25555" lon="1.6099">
        <ele>1476.31</ele>
        <time>2021-07-31T16:22:37Z</time>
      </trkpt>
      <trkpt lat="42.25543" lon="1.61021">
        <ele>1478.04</ele>
        <time>2021-07-31T16:22:41Z</time>
      </trkpt>
      <trkpt lat="42.25561" lon="1.61047">
        <ele>1480.62</ele>
        <time>2021-07-31T16:22:48Z</time>
      </trkpt>
      <trkpt lat="42.25579" lon="1.61037">
        <ele>1481.77</ele>
        <time>2021-07-31T16:22:50Z</time>
      </trkpt>
      <trkpt lat="42.25598" lon="1.60981">
        <ele>1484.95</ele>
        <time>2021-07-31T16:22:56Z</time>
      </trkpt>
      <trkpt lat="42.25594" lon="1.60957">
        <ele>1486</ele>
        <time>2021-07-31T16:22:58Z</time>
      </trkpt>
      <trkpt lat="42.25619" lon="1.6091">
        <ele>1488.77</ele>
        <time>2021-07-31T16:23:05Z</time>
      </trkpt>
      <trkpt lat="42.25625" lon="1.60912">
        <ele>1489.08</ele>
        <time>2021-07-31T16:23:06Z</time>
      </trkpt>
      <trkpt lat="42.25672" lon="1.60926">
        <ele>1491.8</ele>
        <time>2021-07-31T16:23:14Z</time>
      </trkpt>
      <trkpt lat="42.25693" lon="1.60928">
        <ele>1493.41</ele>
        <time>2021-07-31T16:23:18Z</time>
      </trkpt>
      <trkpt lat="42.25714" lon="1.60929">
        <ele>1495.14</ele>
        <time>2021-07-31T16:23:22Z</time>
      </trkpt>
      <trkpt lat="42.25762" lon="1.60938">
        <ele>1499.06</ele>
        <time>2021-07-31T16:23:30Z</time>
      </trkpt>
      <trkpt lat="42.25799" lon="1.60939">
        <ele>1502.53</ele>
        <time>2021-07-31T16:23:37Z</time>
      </trkpt>
      <trkpt lat="42.258" lon="1.60911">
        <ele>1505.04</ele>
        <time>2021-07-31T16:23:43Z</time>
      </trkpt>
      <trkpt lat="42.25757" lon="1.60874">
        <ele>1508.95</ele>
        <time>2021-07-31T16:23:50Z</time>
      </trkpt>
      <trkpt lat="42.25729" lon="1.60861">
        <ele>1511.14</ele>
        <time>2021-07-31T16:23:55Z</time>
      </trkpt>
      <trkpt lat="42.25705" lon="1.60816">
        <ele>1514.36</ele>
        <time>2021-07-31T16:24:03Z</time>
      </trkpt>
      <trkpt lat="42.25705" lon="1.60808">
        <ele>1514.72</ele>
        <time>2021-07-31T16:24:04Z</time>
      </trkpt>
      <trkpt lat="42.25703" lon="1.60784">
        <ele>1516.44</ele>
        <time>2021-07-31T16:24:07Z</time>
      </trkpt>
      <trkpt lat="42.25706" lon="1.60743">
        <ele>1519.85</ele>
        <time>2021-07-31T16:24:14Z</time>
      </trkpt>
      <trkpt lat="42.25716" lon="1.60752">
        <ele>1520.91</ele>
        <time>2021-07-31T16:24:16Z</time>
      </trkpt>
      <trkpt lat="42.25724" lon="1.60766">
        <ele>1522.27</ele>
        <time>2021-07-31T16:24:18Z</time>
      </trkpt>
      <trkpt lat="42.25753" lon="1.60789">
        <ele>1525.19</ele>
        <time>2021-07-31T16:24:23Z</time>
      </trkpt>
      <trkpt lat="42.25795" lon="1.60785">
        <ele>1529.02</ele>
        <time>2021-07-31T16:24:30Z</time>
      </trkpt>
      <trkpt lat="42.25784" lon="1.60766">
        <ele>1531.1</ele>
        <time>2021-07-31T16:24:34Z</time>
      </trkpt>
      <trkpt lat="42.25755" lon="1.60734">
        <ele>1533.96</ele>
        <time>2021-07-31T16:24:39Z</time>
      </trkpt>
      <trkpt lat="42.25723" lon="1.60685">
        <ele>1538.09</ele>
        <time>2021-07-31T16:24:46Z</time>
      </trkpt>
      <trkpt lat="42.25693" lon="1.60632">
        <ele>1541.25</ele>
        <time>2021-07-31T16:24:52Z</time>
      </trkpt>
      <trkpt lat="42.25688" lon="1.60624">
        <ele>1541.69</ele>
        <time>2021-07-31T16:24:53Z</time>
      </trkpt>
      <trkpt lat="42.25675" lon="1.60608">
        <ele>1542.85</ele>
        <time>2021-07-31T16:24:56Z</time>
      </trkpt>
      <trkpt lat="42.25681" lon="1.60591">
        <ele>1544.64</ele>
        <time>2021-07-31T16:25:01Z</time>
      </trkpt>
      <trkpt lat="42.25689" lon="1.60602">
        <ele>1545.49</ele>
        <time>2021-07-31T16:25:03Z</time>
      </trkpt>
      <trkpt lat="42.25715" lon="1.6063">
        <ele>1547.78</ele>
        <time>2021-07-31T16:25:08Z</time>
      </trkpt>
      <trkpt lat="42.25728" lon="1.60642">
        <ele>1548.85</ele>
        <time>2021-07-31T16:25:11Z</time>
      </trkpt>
      <trkpt lat="42.25759" lon="1.60648">
        <ele>1551.19</ele>
        <time>2021-07-31T16:25:16Z</time>
      </trkpt>
      <trkpt lat="42.25799" lon="1.60644">
        <ele>1554.94</ele>
        <time>2021-07-31T16:25:22Z</time>
      </trkpt>
      <trkpt lat="42.25827" lon="1.60641">
        <ele>1557.53</ele>
        <time>2021-07-31T16:25:26Z</time>
      </trkpt>
      <trkpt lat="42.25851" lon="1.60659">
        <ele>1560.04</ele>
        <time>2021-07-31T16:25:30Z</time>
      </trkpt>
      <trkpt lat="42.25883" lon="1.60702">
        <ele>1563.98</ele>
        <time>2021-07-31T16:25:37Z</time>
      </trkpt>
      <trkpt lat="42.25917" lon="1.60728">
        <ele>1567.06</ele>
        <time>2021-07-31T16:25:42Z</time>
      </trkpt>
      <trkpt lat="42.25933" lon="1.60737">
        <ele>1568.46</ele>
        <time>2021-07-31T16:25:44Z</time>
      </trkpt>
      <trkpt lat="42.25956" lon="1.60751">
        <ele>1571.26</ele>
        <time>2021-07-31T16:25:47Z</time>
      </trkpt>
      <trkpt lat="42.25986" lon="1.60762">
        <ele>1574.01</ele>
        <time>2021-07-31T16:25:51Z</time>
      </trkpt>
      <trkpt lat="42.2601" lon="1.608">
        <ele>1577.96</ele>
        <time>2021-07-31T16:25:57Z</time>
      </trkpt>
      <trkpt lat="42.26015" lon="1.60823">
        <ele>1579.52</ele>
        <time>2021-07-31T16:26:00Z</time>
      </trkpt>
      <trkpt lat="42.26023" lon="1.60839">
        <ele>1582.33</ele>
        <time>2021-07-31T16:26:07Z</time>
      </trkpt>
      <trkpt lat="42.26021" lon="1.60839">
        <ele>1584.07</ele>
        <time>2021-07-31T16:31:22Z</time>
      </trkpt>
      <trkpt lat="42.26027" lon="1.60846">
        <ele>1584.07</ele>
        <time>2021-07-31T16:31:45Z</time>
      </trkpt>
      <trkpt lat="42.26061" lon="1.60861">
        <ele>1585.46</ele>
        <time>2021-07-31T16:31:53Z</time>
      </trkpt>
      <trkpt lat="42.26064" lon="1.60867">
        <ele>1586.07</ele>
        <time>2021-07-31T16:31:55Z</time>
      </trkpt>
      <trkpt lat="42.26055" lon="1.6093">
        <ele>1588.7</ele>
        <time>2021-07-31T16:32:03Z</time>
      </trkpt>
      <trkpt lat="42.2604" lon="1.60989">
        <ele>1592.3</ele>
        <time>2021-07-31T16:32:11Z</time>
      </trkpt>
      <trkpt lat="42.26046" lon="1.61008">
        <ele>1593.37</ele>
        <time>2021-07-31T16:32:14Z</time>
      </trkpt>
      <trkpt lat="42.26059" lon="1.61071">
        <ele>1596.92</ele>
        <time>2021-07-31T16:32:21Z</time>
      </trkpt>
      <trkpt lat="42.26088" lon="1.61086">
        <ele>1599.34</ele>
        <time>2021-07-31T16:32:29Z</time>
      </trkpt>
      <trkpt lat="42.26098" lon="1.61082">
        <ele>1599.94</ele>
        <time>2021-07-31T16:32:31Z</time>
      </trkpt>
      <trkpt lat="42.26131" lon="1.61059">
        <ele>1602.5</ele>
        <time>2021-07-31T16:32:38Z</time>
      </trkpt>
      <trkpt lat="42.26173" lon="1.61049">
        <ele>1605.12</ele>
        <time>2021-07-31T16:32:45Z</time>
      </trkpt>
      <trkpt lat="42.26197" lon="1.61034">
        <ele>1606.65</ele>
        <time>2021-07-31T16:32:49Z</time>
      </trkpt>
      <trkpt lat="42.2624" lon="1.60997">
        <ele>1610.06</ele>
        <time>2021-07-31T16:32:56Z</time>
      </trkpt>
      <trkpt lat="42.26274" lon="1.60968">
        <ele>1613</ele>
        <time>2021-07-31T16:33:01Z</time>
      </trkpt>
      <trkpt lat="42.26327" lon="1.60946">
        <ele>1616.58</ele>
        <time>2021-07-31T16:33:07Z</time>
      </trkpt>
      <trkpt lat="42.26368" lon="1.60939">
        <ele>1620.09</ele>
        <time>2021-07-31T16:33:12Z</time>
      </trkpt>
      <trkpt lat="42.26407" lon="1.60932">
        <ele>1623.63</ele>
        <time>2021-07-31T16:33:17Z</time>
      </trkpt>
      <trkpt lat="42.26447" lon="1.60921">
        <ele>1626.9</ele>
        <time>2021-07-31T16:33:22Z</time>
      </trkpt>
      <trkpt lat="42.26479" lon="1.60908">
        <ele>1629.63</ele>
        <time>2021-07-31T16:33:26Z</time>
      </trkpt>
      <trkpt lat="42.26516" lon="1.60869">
        <ele>1633.52</ele>
        <time>2021-07-31T16:33:32Z</time>
      </trkpt>
      <trkpt lat="42.26543" lon="1.60828">
        <ele>1636.94</ele>
        <time>2021-07-31T16:33:37Z</time>
      </trkpt>
      <trkpt lat="42.26552" lon="1.60802">
        <ele>1638.73</ele>
        <time>2021-07-31T16:33:40Z</time>
      </trkpt>
      <trkpt lat="42.26573" lon="1.60778">
        <ele>1641.1</ele>
        <time>2021-07-31T16:33:44Z</time>
      </trkpt>
      <trkpt lat="42.26613" lon="1.60742">
        <ele>1645.15</ele>
        <time>2021-07-31T16:33:51Z</time>
      </trkpt>
      <trkpt lat="42.26625" lon="1.60731">
        <ele>1646.18</ele>
        <time>2021-07-31T16:33:53Z</time>
      </trkpt>
      <trkpt lat="42.26651" lon="1.60699">
        <ele>1649.74</ele>
        <time>2021-07-31T16:33:58Z</time>
      </trkpt>
      <trkpt lat="42.26678" lon="1.60651">
        <ele>1652.91</ele>
        <time>2021-07-31T16:34:03Z</time>
      </trkpt>
      <trkpt lat="42.26693" lon="1.606">
        <ele>1656.02</ele>
        <time>2021-07-31T16:34:07Z</time>
      </trkpt>
      <trkpt lat="42.26708" lon="1.60548">
        <ele>1659.41</ele>
        <time>2021-07-31T16:34:11Z</time>
      </trkpt>
      <trkpt lat="42.26728" lon="1.60496">
        <ele>1663.04</ele>
        <time>2021-07-31T16:34:15Z</time>
      </trkpt>
      <trkpt lat="42.2675" lon="1.60443">
        <ele>1666.36</ele>
        <time>2021-07-31T16:34:19Z</time>
      </trkpt>
      <trkpt lat="42.26805" lon="1.60409">
        <ele>1670.96</ele>
        <time>2021-07-31T16:34:25Z</time>
      </trkpt>
      <trkpt lat="42.26863" lon="1.60375">
        <ele>1674.84</ele>
        <time>2021-07-31T16:34:32Z</time>
      </trkpt>
      <trkpt lat="42.269" lon="1.60326">
        <ele>1678.64</ele>
        <time>2021-07-31T16:34:39Z</time>
      </trkpt>
      <trkpt lat="42.26913" lon="1.603">
        <ele>1679.9</ele>
        <time>2021-07-31T16:34:42Z</time>
      </trkpt>
      <trkpt lat="42.26952" lon="1.60249">
        <ele>1683.49</ele>
        <time>2021-07-31T16:34:49Z</time>
      </trkpt>
      <trkpt lat="42.26977" lon="1.60209">
        <ele>1686.76</ele>
        <time>2021-07-31T16:34:54Z</time>
      </trkpt>
      <trkpt lat="42.26995" lon="1.60157">
        <ele>1690.57</ele>
        <time>2021-07-31T16:34:59Z</time>
      </trkpt>
      <trkpt lat="42.27003" lon="1.60138">
        <ele>1691.97</ele>
        <time>2021-07-31T16:35:01Z</time>
      </trkpt>
      <trkpt lat="42.27006" lon="1.60094">
        <ele>1694.58</ele>
        <time>2021-07-31T16:35:05Z</time>
      </trkpt>
      <trkpt lat="42.27033" lon="1.60088">
        <ele>1696.93</ele>
        <time>2021-07-31T16:35:09Z</time>
      </trkpt>
      <trkpt lat="42.27053" lon="1.60064">
        <ele>1700.19</ele>
        <time>2021-07-31T16:35:14Z</time>
      </trkpt>
      <trkpt lat="42.27082" lon="1.60073">
        <ele>1703.31</ele>
        <time>2021-07-31T16:35:20Z</time>
      </trkpt>
      <trkpt lat="42.27086" lon="1.60081">
        <ele>1703.9</ele>
        <time>2021-07-31T16:35:21Z</time>
      </trkpt>
      <trkpt lat="42.27106" lon="1.60114">
        <ele>1705.82</ele>
        <time>2021-07-31T16:35:25Z</time>
      </trkpt>
      <trkpt lat="42.27115" lon="1.60102">
        <ele>1708.68</ele>
        <time>2021-07-31T16:35:31Z</time>
      </trkpt>
      <trkpt lat="42.27103" lon="1.60078">
        <ele>1709.98</ele>
        <time>2021-07-31T16:35:34Z</time>
      </trkpt>
      <trkpt lat="42.27087" lon="1.60027">
        <ele>1712.88</ele>
        <time>2021-07-31T16:35:39Z</time>
      </trkpt>
      <trkpt lat="42.2706" lon="1.59994">
        <ele>1717.37</ele>
        <time>2021-07-31T16:35:45Z</time>
      </trkpt>
      <trkpt lat="42.27053" lon="1.59998">
        <ele>1718.04</ele>
        <time>2021-07-31T16:35:46Z</time>
      </trkpt>
      <trkpt lat="42.27029" lon="1.59988">
        <ele>1721.58</ele>
        <time>2021-07-31T16:35:52Z</time>
      </trkpt>
      <trkpt lat="42.27047" lon="1.59966">
        <ele>1723.78</ele>
        <time>2021-07-31T16:35:56Z</time>
      </trkpt>
      <trkpt lat="42.27064" lon="1.59941">
        <ele>1725.69</ele>
        <time>2021-07-31T16:35:59Z</time>
      </trkpt>
      <trkpt lat="42.27113" lon="1.59948">
        <ele>1729.31</ele>
        <time>2021-07-31T16:36:04Z</time>
      </trkpt>
      <trkpt lat="42.27125" lon="1.59974">
        <ele>1731</ele>
        <time>2021-07-31T16:36:06Z</time>
      </trkpt>
      <trkpt lat="42.27145" lon="1.60021">
        <ele>1734.41</ele>
        <time>2021-07-31T16:36:10Z</time>
      </trkpt>
      <trkpt lat="42.27163" lon="1.60024">
        <ele>1737.79</ele>
        <time>2021-07-31T16:36:15Z</time>
      </trkpt>
      <trkpt lat="42.2716" lon="1.60014">
        <ele>1739.05</ele>
        <time>2021-07-31T16:36:17Z</time>
      </trkpt>
      <trkpt lat="42.27154" lon="1.59939">
        <ele>1743.44</ele>
        <time>2021-07-31T16:36:24Z</time>
      </trkpt>
      <trkpt lat="42.27142" lon="1.59881">
        <ele>1747.06</ele>
        <time>2021-07-31T16:36:29Z</time>
      </trkpt>
      <trkpt lat="42.27115" lon="1.59844">
        <ele>1749.83</ele>
        <time>2021-07-31T16:36:33Z</time>
      </trkpt>
      <trkpt lat="42.27084" lon="1.59804">
        <ele>1753.51</ele>
        <time>2021-07-31T16:36:38Z</time>
      </trkpt>
      <trkpt lat="42.27075" lon="1.59779">
        <ele>1757.18</ele>
        <time>2021-07-31T16:36:45Z</time>
      </trkpt>
      <trkpt lat="42.27077" lon="1.59755">
        <ele>1760.25</ele>
        <time>2021-07-31T16:36:58Z</time>
      </trkpt>
      <trkpt lat="42.27078" lon="1.59754">
        <ele>1761.16</ele>
        <time>2021-07-31T16:37:19Z</time>
      </trkpt>
      <trkpt lat="42.27078" lon="1.5975">
        <ele>1761.44</ele>
        <time>2021-07-31T16:37:36Z</time>
      </trkpt>
      <trkpt lat="42.27077" lon="1.59739">
        <ele>1761.7</ele>
        <time>2021-07-31T16:37:59Z</time>
      </trkpt>
      <trkpt lat="42.27073" lon="1.59709">
        <ele>1760.81</ele>
        <time>2021-07-31T16:38:14Z</time>
      </trkpt>
      <trkpt lat="42.27063" lon="1.59669">
        <ele>1759.55</ele>
        <time>2021-07-31T16:38:26Z</time>
      </trkpt>
      <trkpt lat="42.27057" lon="1.59652">
        <ele>1759.06</ele>
        <time>2021-07-31T16:38:29Z</time>
      </trkpt>
      <trkpt lat="42.27033" lon="1.59541">
        <ele>1756.59</ele>
        <time>2021-07-31T16:38:40Z</time>
      </trkpt>
      <trkpt lat="42.27031" lon="1.59469">
        <ele>1753.24</ele>
        <time>2021-07-31T16:38:47Z</time>
      </trkpt>
      <trkpt lat="42.27031" lon="1.5946">
        <ele>1752.54</ele>
        <time>2021-07-31T16:38:48Z</time>
      </trkpt>
      <trkpt lat="42.27024" lon="1.59432">
        <ele>1750.2</ele>
        <time>2021-07-31T16:38:52Z</time>
      </trkpt>
      <trkpt lat="42.2702" lon="1.59407">
        <ele>1748.41</ele>
        <time>2021-07-31T16:38:55Z</time>
      </trkpt>
      <trkpt lat="42.27026" lon="1.59337">
        <ele>1744.6</ele>
        <time>2021-07-31T16:39:02Z</time>
      </trkpt>
      <trkpt lat="42.27025" lon="1.59255">
        <ele>1741.22</ele>
        <time>2021-07-31T16:39:09Z</time>
      </trkpt>
      <trkpt lat="42.27017" lon="1.59205">
        <ele>1737.9</ele>
        <time>2021-07-31T16:39:14Z</time>
      </trkpt>
      <trkpt lat="42.27005" lon="1.59156">
        <ele>1734.65</ele>
        <time>2021-07-31T16:39:19Z</time>
      </trkpt>
      <trkpt lat="42.26997" lon="1.5912">
        <ele>1731.93</ele>
        <time>2021-07-31T16:39:23Z</time>
      </trkpt>
      <trkpt lat="42.26996" lon="1.59088">
        <ele>1729.36</ele>
        <time>2021-07-31T16:39:27Z</time>
      </trkpt>
      <trkpt lat="42.27006" lon="1.5902">
        <ele>1725.71</ele>
        <time>2021-07-31T16:39:34Z</time>
      </trkpt>
      <trkpt lat="42.2701" lon="1.58981">
        <ele>1723.5</ele>
        <time>2021-07-31T16:39:38Z</time>
      </trkpt>
      <trkpt lat="42.27001" lon="1.58946">
        <ele>1721.54</ele>
        <time>2021-07-31T16:39:42Z</time>
      </trkpt>
      <trkpt lat="42.26984" lon="1.58879">
        <ele>1717.78</ele>
        <time>2021-07-31T16:39:49Z</time>
      </trkpt>
      <trkpt lat="42.26963" lon="1.58799">
        <ele>1714.2</ele>
        <time>2021-07-31T16:39:56Z</time>
      </trkpt>
      <trkpt lat="42.26945" lon="1.58716">
        <ele>1711.05</ele>
        <time>2021-07-31T16:40:02Z</time>
      </trkpt>
      <trkpt lat="42.26924" lon="1.58651">
        <ele>1707.19</ele>
        <time>2021-07-31T16:40:08Z</time>
      </trkpt>
      <trkpt lat="42.26911" lon="1.58618">
        <ele>1706.02</ele>
        <time>2021-07-31T16:40:11Z</time>
      </trkpt>
      <trkpt lat="42.26876" lon="1.58624">
        <ele>1703.2</ele>
        <time>2021-07-31T16:40:16Z</time>
      </trkpt>
      <trkpt lat="42.26857" lon="1.58624">
        <ele>1702.03</ele>
        <time>2021-07-31T16:40:18Z</time>
      </trkpt>
      <trkpt lat="42.26825" lon="1.58614">
        <ele>1699.47</ele>
        <time>2021-07-31T16:40:23Z</time>
      </trkpt>
      <trkpt lat="42.26802" lon="1.58615">
        <ele>1697.86</ele>
        <time>2021-07-31T16:40:26Z</time>
      </trkpt>
      <trkpt lat="42.26752" lon="1.58612">
        <ele>1694.07</ele>
        <time>2021-07-31T16:40:32Z</time>
      </trkpt>
      <trkpt lat="42.26738" lon="1.58613">
        <ele>1692.64</ele>
        <time>2021-07-31T16:40:34Z</time>
      </trkpt>
      <trkpt lat="42.26708" lon="1.58627">
        <ele>1688.58</ele>
        <time>2021-07-31T16:40:39Z</time>
      </trkpt>
      <trkpt lat="42.26693" lon="1.58636">
        <ele>1687.27</ele>
        <time>2021-07-31T16:40:41Z</time>
      </trkpt>
      <trkpt lat="42.26666" lon="1.58665">
        <ele>1684.05</ele>
        <time>2021-07-31T16:40:46Z</time>
      </trkpt>
      <trkpt lat="42.26627" lon="1.58674">
        <ele>1680.18</ele>
        <time>2021-07-31T16:40:52Z</time>
      </trkpt>
      <trkpt lat="42.26621" lon="1.58669">
        <ele>1679.61</ele>
        <time>2021-07-31T16:40:53Z</time>
      </trkpt>
      <trkpt lat="42.26608" lon="1.58662">
        <ele>1678.53</ele>
        <time>2021-07-31T16:40:55Z</time>
      </trkpt>
      <trkpt lat="42.26591" lon="1.58621">
        <ele>1675.32</ele>
        <time>2021-07-31T16:41:01Z</time>
      </trkpt>
      <trkpt lat="42.26574" lon="1.58559">
        <ele>1672.54</ele>
        <time>2021-07-31T16:41:07Z</time>
      </trkpt>
      <trkpt lat="42.26564" lon="1.5851">
        <ele>1670.38</ele>
        <time>2021-07-31T16:41:11Z</time>
      </trkpt>
      <trkpt lat="42.26559" lon="1.58457">
        <ele>1666.67</ele>
        <time>2021-07-31T16:41:16Z</time>
      </trkpt>
      <trkpt lat="42.26549" lon="1.58413">
        <ele>1663.66</ele>
        <time>2021-07-31T16:41:20Z</time>
      </trkpt>
      <trkpt lat="42.26528" lon="1.58361">
        <ele>1659.14</ele>
        <time>2021-07-31T16:41:26Z</time>
      </trkpt>
      <trkpt lat="42.26509" lon="1.58326">
        <ele>1656.28</ele>
        <time>2021-07-31T16:41:30Z</time>
      </trkpt>
      <trkpt lat="42.26482" lon="1.5831">
        <ele>1653.6</ele>
        <time>2021-07-31T16:41:34Z</time>
      </trkpt>
      <trkpt lat="42.26472" lon="1.58308">
        <ele>1652.33</ele>
        <time>2021-07-31T16:41:36Z</time>
      </trkpt>
      <trkpt lat="42.2644" lon="1.58314">
        <ele>1648.62</ele>
        <time>2021-07-31T16:41:42Z</time>
      </trkpt>
      <trkpt lat="42.26433" lon="1.58317">
        <ele>1648.1</ele>
        <time>2021-07-31T16:41:43Z</time>
      </trkpt>
      <trkpt lat="42.26391" lon="1.58284">
        <ele>1644.07</ele>
        <time>2021-07-31T16:41:50Z</time>
      </trkpt>
      <trkpt lat="42.26388" lon="1.58261">
        <ele>1642.6</ele>
        <time>2021-07-31T16:41:52Z</time>
      </trkpt>
      <trkpt lat="42.26386" lon="1.58207">
        <ele>1638.71</ele>
        <time>2021-07-31T16:41:58Z</time>
      </trkpt>
      <trkpt lat="42.26383" lon="1.5819">
        <ele>1637.44</ele>
        <time>2021-07-31T16:42:00Z</time>
      </trkpt>
      <trkpt lat="42.26354" lon="1.58146">
        <ele>1633.74</ele>
        <time>2021-07-31T16:42:06Z</time>
      </trkpt>
      <trkpt lat="42.26326" lon="1.58135">
        <ele>1630.69</ele>
        <time>2021-07-31T16:42:11Z</time>
      </trkpt>
      <trkpt lat="42.26304" lon="1.58133">
        <ele>1626.48</ele>
        <time>2021-07-31T16:42:16Z</time>
      </trkpt>
      <trkpt lat="42.26292" lon="1.58129">
        <ele>1625.35</ele>
        <time>2021-07-31T16:42:18Z</time>
      </trkpt>
      <trkpt lat="42.26268" lon="1.58102">
        <ele>1623.53</ele>
        <time>2021-07-31T16:42:22Z</time>
      </trkpt>
      <trkpt lat="42.26235" lon="1.58044">
        <ele>1619.53</ele>
        <time>2021-07-31T16:42:29Z</time>
      </trkpt>
      <trkpt lat="42.26207" lon="1.58004">
        <ele>1616.1</ele>
        <time>2021-07-31T16:42:34Z</time>
      </trkpt>
      <trkpt lat="42.26194" lon="1.57983">
        <ele>1613.87</ele>
        <time>2021-07-31T16:42:37Z</time>
      </trkpt>
      <trkpt lat="42.26163" lon="1.57971">
        <ele>1609.93</ele>
        <time>2021-07-31T16:42:43Z</time>
      </trkpt>
      <trkpt lat="42.26126" lon="1.57982">
        <ele>1605.94</ele>
        <time>2021-07-31T16:42:51Z</time>
      </trkpt>
      <trkpt lat="42.26124" lon="1.57983">
        <ele>1603.05</ele>
        <time>2021-07-31T16:43:00Z</time>
      </trkpt>
      <trkpt lat="42.26115" lon="1.57981">
        <ele>1601.2</ele>
        <time>2021-07-31T16:43:37Z</time>
      </trkpt>
      <trkpt lat="42.26118" lon="1.5798">
        <ele>1600.94</ele>
        <time>2021-07-31T16:43:43Z</time>
      </trkpt>
      <trkpt lat="42.2613" lon="1.57971">
        <ele>1600.82</ele>
        <time>2021-07-31T16:43:47Z</time>
      </trkpt>
      <trkpt lat="42.26181" lon="1.57943">
        <ele>1599.58</ele>
        <time>2021-07-31T16:43:55Z</time>
      </trkpt>
      <trkpt lat="42.26211" lon="1.57955">
        <ele>1596.72</ele>
        <time>2021-07-31T16:44:00Z</time>
      </trkpt>
      <trkpt lat="42.2623" lon="1.57965">
        <ele>1594.35</ele>
        <time>2021-07-31T16:44:04Z</time>
      </trkpt>
      <trkpt lat="42.26253" lon="1.5797">
        <ele>1592.19</ele>
        <time>2021-07-31T16:44:08Z</time>
      </trkpt>
      <trkpt lat="42.2628" lon="1.57998">
        <ele>1589.33</ele>
        <time>2021-07-31T16:44:14Z</time>
      </trkpt>
      <trkpt lat="42.26287" lon="1.5801">
        <ele>1588.53</ele>
        <time>2021-07-31T16:44:16Z</time>
      </trkpt>
      <trkpt lat="42.26294" lon="1.58022">
        <ele>1587.82</ele>
        <time>2021-07-31T16:44:18Z</time>
      </trkpt>
      <trkpt lat="42.26337" lon="1.58017">
        <ele>1585.19</ele>
        <time>2021-07-31T16:44:25Z</time>
      </trkpt>
      <trkpt lat="42.26364" lon="1.58001">
        <ele>1583.77</ele>
        <time>2021-07-31T16:44:29Z</time>
      </trkpt>
      <trkpt lat="42.26392" lon="1.58009">
        <ele>1581.56</ele>
        <time>2021-07-31T16:44:34Z</time>
      </trkpt>
      <trkpt lat="42.26401" lon="1.58023">
        <ele>1580.63</ele>
        <time>2021-07-31T16:44:36Z</time>
      </trkpt>
      <trkpt lat="42.26442" lon="1.58067">
        <ele>1576.77</ele>
        <time>2021-07-31T16:44:44Z</time>
      </trkpt>
      <trkpt lat="42.26456" lon="1.58079">
        <ele>1575.17</ele>
        <time>2021-07-31T16:44:47Z</time>
      </trkpt>
      <trkpt lat="42.26472" lon="1.58107">
        <ele>1573.14</ele>
        <time>2021-07-31T16:44:51Z</time>
      </trkpt>
      <trkpt lat="42.26514" lon="1.58127">
        <ele>1568.78</ele>
        <time>2021-07-31T16:45:00Z</time>
      </trkpt>
      <trkpt lat="42.26519" lon="1.58123">
        <ele>1568.31</ele>
        <time>2021-07-31T16:45:01Z</time>
      </trkpt>
      <trkpt lat="42.26551" lon="1.58108">
        <ele>1565.83</ele>
        <time>2021-07-31T16:45:07Z</time>
      </trkpt>
      <trkpt lat="42.26568" lon="1.58109">
        <ele>1564.51</ele>
        <time>2021-07-31T16:45:10Z</time>
      </trkpt>
      <trkpt lat="42.26559" lon="1.58095">
        <ele>1561.64</ele>
        <time>2021-07-31T16:45:17Z</time>
      </trkpt>
      <trkpt lat="42.26536" lon="1.58094">
        <ele>1560.52</ele>
        <time>2021-07-31T16:45:20Z</time>
      </trkpt>
      <trkpt lat="42.26523" lon="1.58094">
        <ele>1560</ele>
        <time>2021-07-31T16:45:22Z</time>
      </trkpt>
      <trkpt lat="42.26488" lon="1.58061">
        <ele>1558.19</ele>
        <time>2021-07-31T16:45:28Z</time>
      </trkpt>
      <trkpt lat="42.26445" lon="1.58005">
        <ele>1554.29</ele>
        <time>2021-07-31T16:45:36Z</time>
      </trkpt>
      <trkpt lat="42.26433" lon="1.57987">
        <ele>1553.38</ele>
        <time>2021-07-31T16:45:38Z</time>
      </trkpt>
      <trkpt lat="42.26421" lon="1.57947">
        <ele>1551.62</ele>
        <time>2021-07-31T16:45:42Z</time>
      </trkpt>
      <trkpt lat="42.26408" lon="1.57874">
        <ele>1547.96</ele>
        <time>2021-07-31T16:45:49Z</time>
      </trkpt>
      <trkpt lat="42.26406" lon="1.57858">
        <ele>1546.99</ele>
        <time>2021-07-31T16:45:51Z</time>
      </trkpt>
      <trkpt lat="42.26378" lon="1.57862">
        <ele>1543.67</ele>
        <time>2021-07-31T16:45:56Z</time>
      </trkpt>
      <trkpt lat="42.26362" lon="1.57873">
        <ele>1541.7</ele>
        <time>2021-07-31T16:45:59Z</time>
      </trkpt>
      <trkpt lat="42.26338" lon="1.57857">
        <ele>1539.15</ele>
        <time>2021-07-31T16:46:04Z</time>
      </trkpt>
      <trkpt lat="42.26328" lon="1.57833">
        <ele>1537.71</ele>
        <time>2021-07-31T16:46:07Z</time>
      </trkpt>
      <trkpt lat="42.26298" lon="1.57827">
        <ele>1535.48</ele>
        <time>2021-07-31T16:46:12Z</time>
      </trkpt>
      <trkpt lat="42.26266" lon="1.57802">
        <ele>1532.52</ele>
        <time>2021-07-31T16:46:19Z</time>
      </trkpt>
      <trkpt lat="42.26282" lon="1.57728">
        <ele>1530.84</ele>
        <time>2021-07-31T16:46:26Z</time>
      </trkpt>
      <trkpt lat="42.26304" lon="1.5762">
        <ele>1529.57</ele>
        <time>2021-07-31T16:46:36Z</time>
      </trkpt>
      <trkpt lat="42.26303" lon="1.57562">
        <ele>1527.88</ele>
        <time>2021-07-31T16:46:41Z</time>
      </trkpt>
      <trkpt lat="42.26308" lon="1.57495">
        <ele>1525.82</ele>
        <time>2021-07-31T16:46:47Z</time>
      </trkpt>
      <trkpt lat="42.26303" lon="1.57452">
        <ele>1524.26</ele>
        <time>2021-07-31T16:46:51Z</time>
      </trkpt>
      <trkpt lat="42.26305" lon="1.57407">
        <ele>1523.14</ele>
        <time>2021-07-31T16:46:55Z</time>
      </trkpt>
      <trkpt lat="42.26328" lon="1.57308">
        <ele>1519.73</ele>
        <time>2021-07-31T16:47:05Z</time>
      </trkpt>
      <trkpt lat="42.26328" lon="1.57253">
        <ele>1517</ele>
        <time>2021-07-31T16:47:10Z</time>
      </trkpt>
      <trkpt lat="42.26306" lon="1.57216">
        <ele>1513.27</ele>
        <time>2021-07-31T16:47:15Z</time>
      </trkpt>
      <trkpt lat="42.26301" lon="1.57212">
        <ele>1512.64</ele>
        <time>2021-07-31T16:47:16Z</time>
      </trkpt>
      <trkpt lat="42.26261" lon="1.57178">
        <ele>1508.84</ele>
        <time>2021-07-31T16:47:22Z</time>
      </trkpt>
      <trkpt lat="42.26246" lon="1.57161">
        <ele>1507.86</ele>
        <time>2021-07-31T16:47:24Z</time>
      </trkpt>
      <trkpt lat="42.26247" lon="1.57094">
        <ele>1504.83</ele>
        <time>2021-07-31T16:47:30Z</time>
      </trkpt>
      <trkpt lat="42.26252" lon="1.57085">
        <ele>1504.3</ele>
        <time>2021-07-31T16:47:31Z</time>
      </trkpt>
      <trkpt lat="42.26256" lon="1.57011">
        <ele>1500.64</ele>
        <time>2021-07-31T16:47:38Z</time>
      </trkpt>
      <trkpt lat="42.26246" lon="1.56978">
        <ele>1499.01</ele>
        <time>2021-07-31T16:47:41Z</time>
      </trkpt>
      <trkpt lat="42.26238" lon="1.56961">
        <ele>1498.05</ele>
        <time>2021-07-31T16:47:43Z</time>
      </trkpt>
      <trkpt lat="42.26236" lon="1.5693">
        <ele>1495.98</ele>
        <time>2021-07-31T16:47:47Z</time>
      </trkpt>
      <trkpt lat="42.26241" lon="1.56873">
        <ele>1493.41</ele>
        <time>2021-07-31T16:47:53Z</time>
      </trkpt>
      <trkpt lat="42.26222" lon="1.56843">
        <ele>1489.78</ele>
        <time>2021-07-31T16:47:58Z</time>
      </trkpt>
      <trkpt lat="42.26207" lon="1.56834">
        <ele>1488.7</ele>
        <time>2021-07-31T16:48:00Z</time>
      </trkpt>
      <trkpt lat="42.26179" lon="1.56817">
        <ele>1485.95</ele>
        <time>2021-07-31T16:48:04Z</time>
      </trkpt>
      <trkpt lat="42.26177" lon="1.56769">
        <ele>1481.97</ele>
        <time>2021-07-31T16:48:10Z</time>
      </trkpt>
      <trkpt lat="42.26192" lon="1.56743">
        <ele>1480.07</ele>
        <time>2021-07-31T16:48:13Z</time>
      </trkpt>
      <trkpt lat="42.26209" lon="1.56703">
        <ele>1477.3</ele>
        <time>2021-07-31T16:48:17Z</time>
      </trkpt>
      <trkpt lat="42.2622" lon="1.56639">
        <ele>1473.17</ele>
        <time>2021-07-31T16:48:23Z</time>
      </trkpt>
      <trkpt lat="42.26217" lon="1.5659">
        <ele>1469.25</ele>
        <time>2021-07-31T16:48:28Z</time>
      </trkpt>
      <trkpt lat="42.26198" lon="1.56529">
        <ele>1464.89</ele>
        <time>2021-07-31T16:48:34Z</time>
      </trkpt>
      <trkpt lat="42.26182" lon="1.56475">
        <ele>1461.74</ele>
        <time>2021-07-31T16:48:39Z</time>
      </trkpt>
      <trkpt lat="42.2618" lon="1.56426">
        <ele>1458.04</ele>
        <time>2021-07-31T16:48:44Z</time>
      </trkpt>
      <trkpt lat="42.26175" lon="1.56405">
        <ele>1456.53</ele>
        <time>2021-07-31T16:48:46Z</time>
      </trkpt>
      <trkpt lat="42.26176" lon="1.56351">
        <ele>1452.3</ele>
        <time>2021-07-31T16:48:51Z</time>
      </trkpt>
      <trkpt lat="42.26187" lon="1.56312">
        <ele>1449.52</ele>
        <time>2021-07-31T16:48:55Z</time>
      </trkpt>
      <trkpt lat="42.26202" lon="1.56263">
        <ele>1445.36</ele>
        <time>2021-07-31T16:49:01Z</time>
      </trkpt>
      <trkpt lat="42.2621" lon="1.56246">
        <ele>1443.87</ele>
        <time>2021-07-31T16:49:03Z</time>
      </trkpt>
      <trkpt lat="42.26206" lon="1.56197">
        <ele>1441.47</ele>
        <time>2021-07-31T16:49:07Z</time>
      </trkpt>
      <trkpt lat="42.26204" lon="1.56146">
        <ele>1437.72</ele>
        <time>2021-07-31T16:49:12Z</time>
      </trkpt>
      <trkpt lat="42.26204" lon="1.56137">
        <ele>1436.84</ele>
        <time>2021-07-31T16:49:13Z</time>
      </trkpt>
      <trkpt lat="42.26191" lon="1.56104">
        <ele>1432.76</ele>
        <time>2021-07-31T16:49:18Z</time>
      </trkpt>
      <trkpt lat="42.26168" lon="1.56092">
        <ele>1430.36</ele>
        <time>2021-07-31T16:49:21Z</time>
      </trkpt>
      <trkpt lat="42.26144" lon="1.56064">
        <ele>1427.7</ele>
        <time>2021-07-31T16:49:25Z</time>
      </trkpt>
      <trkpt lat="42.26133" lon="1.55996">
        <ele>1423.58</ele>
        <time>2021-07-31T16:49:31Z</time>
      </trkpt>
      <trkpt lat="42.26136" lon="1.55983">
        <ele>1422.84</ele>
        <time>2021-07-31T16:49:32Z</time>
      </trkpt>
      <trkpt lat="42.26151" lon="1.55935">
        <ele>1418.76</ele>
        <time>2021-07-31T16:49:37Z</time>
      </trkpt>
      <trkpt lat="42.26156" lon="1.55928">
        <ele>1417.82</ele>
        <time>2021-07-31T16:49:38Z</time>
      </trkpt>
      <trkpt lat="42.2617" lon="1.55941">
        <ele>1413.09</ele>
        <time>2021-07-31T16:49:43Z</time>
      </trkpt>
      <trkpt lat="42.26165" lon="1.55948">
        <ele>1412.27</ele>
        <time>2021-07-31T16:49:44Z</time>
      </trkpt>
      <trkpt lat="42.2616" lon="1.55966">
        <ele>1410.8</ele>
        <time>2021-07-31T16:49:46Z</time>
      </trkpt>
      <trkpt lat="42.26174" lon="1.56027">
        <ele>1406.92</ele>
        <time>2021-07-31T16:49:52Z</time>
      </trkpt>
      <trkpt lat="42.26197" lon="1.56034">
        <ele>1402.24</ele>
        <time>2021-07-31T16:49:58Z</time>
      </trkpt>
      <trkpt lat="42.26194" lon="1.56029">
        <ele>1401.52</ele>
        <time>2021-07-31T16:49:59Z</time>
      </trkpt>
      <trkpt lat="42.26193" lon="1.55985">
        <ele>1398.2</ele>
        <time>2021-07-31T16:50:04Z</time>
      </trkpt>
      <trkpt lat="42.26217" lon="1.55938">
        <ele>1394.51</ele>
        <time>2021-07-31T16:50:10Z</time>
      </trkpt>
      <trkpt lat="42.26207" lon="1.55874">
        <ele>1390.33</ele>
        <time>2021-07-31T16:50:16Z</time>
      </trkpt>
      <trkpt lat="42.26196" lon="1.55845">
        <ele>1388.07</ele>
        <time>2021-07-31T16:50:19Z</time>
      </trkpt>
      <trkpt lat="42.26187" lon="1.55826">
        <ele>1386.44</ele>
        <time>2021-07-31T16:50:21Z</time>
      </trkpt>
      <trkpt lat="42.26173" lon="1.55802">
        <ele>1383.98</ele>
        <time>2021-07-31T16:50:24Z</time>
      </trkpt>
      <trkpt lat="42.2617" lon="1.55759">
        <ele>1380.93</ele>
        <time>2021-07-31T16:50:28Z</time>
      </trkpt>
      <trkpt lat="42.26159" lon="1.55705">
        <ele>1376.51</ele>
        <time>2021-07-31T16:50:33Z</time>
      </trkpt>
      <trkpt lat="42.26149" lon="1.5569">
        <ele>1374.8</ele>
        <time>2021-07-31T16:50:35Z</time>
      </trkpt>
      <trkpt lat="42.2613" lon="1.55657">
        <ele>1371.44</ele>
        <time>2021-07-31T16:50:39Z</time>
      </trkpt>
      <trkpt lat="42.26124" lon="1.5563">
        <ele>1368.99</ele>
        <time>2021-07-31T16:50:42Z</time>
      </trkpt>
      <trkpt lat="42.26105" lon="1.55585">
        <ele>1364.61</ele>
        <time>2021-07-31T16:50:47Z</time>
      </trkpt>
      <trkpt lat="42.26083" lon="1.55547">
        <ele>1360.86</ele>
        <time>2021-07-31T16:50:52Z</time>
      </trkpt>
      <trkpt lat="42.26073" lon="1.55532">
        <ele>1359.33</ele>
        <time>2021-07-31T16:50:54Z</time>
      </trkpt>
      <trkpt lat="42.26071" lon="1.55481">
        <ele>1355.03</ele>
        <time>2021-07-31T16:51:00Z</time>
      </trkpt>
      <trkpt lat="42.26071" lon="1.55451">
        <ele>1352.81</ele>
        <time>2021-07-31T16:51:03Z</time>
      </trkpt>
      <trkpt lat="42.2607" lon="1.55385">
        <ele>1348.47</ele>
        <time>2021-07-31T16:51:09Z</time>
      </trkpt>
      <trkpt lat="42.26079" lon="1.55346">
        <ele>1345.23</ele>
        <time>2021-07-31T16:51:13Z</time>
      </trkpt>
      <trkpt lat="42.26073" lon="1.55293">
        <ele>1341.33</ele>
        <time>2021-07-31T16:51:18Z</time>
      </trkpt>
      <trkpt lat="42.26068" lon="1.55283">
        <ele>1340.56</ele>
        <time>2021-07-31T16:51:19Z</time>
      </trkpt>
      <trkpt lat="42.26046" lon="1.55236">
        <ele>1336.77</ele>
        <time>2021-07-31T16:51:24Z</time>
      </trkpt>
      <trkpt lat="42.26055" lon="1.55217">
        <ele>1332.46</ele>
        <time>2021-07-31T16:51:29Z</time>
      </trkpt>
      <trkpt lat="42.26058" lon="1.55225">
        <ele>1331.64</ele>
        <time>2021-07-31T16:51:30Z</time>
      </trkpt>
      <trkpt lat="42.26064" lon="1.55242">
        <ele>1330.28</ele>
        <time>2021-07-31T16:51:32Z</time>
      </trkpt>
      <trkpt lat="42.26103" lon="1.5529">
        <ele>1327.67</ele>
        <time>2021-07-31T16:51:38Z</time>
      </trkpt>
      <trkpt lat="42.26125" lon="1.55362">
        <ele>1324.22</ele>
        <time>2021-07-31T16:51:45Z</time>
      </trkpt>
      <trkpt lat="42.26135" lon="1.55417">
        <ele>1320.91</ele>
        <time>2021-07-31T16:51:50Z</time>
      </trkpt>
      <trkpt lat="42.26139" lon="1.55439">
        <ele>1318.47</ele>
        <time>2021-07-31T16:51:53Z</time>
      </trkpt>
      <trkpt lat="42.26156" lon="1.55455">
        <ele>1314.38</ele>
        <time>2021-07-31T16:51:58Z</time>
      </trkpt>
      <trkpt lat="42.26172" lon="1.55434">
        <ele>1311.37</ele>
        <time>2021-07-31T16:52:03Z</time>
      </trkpt>
      <trkpt lat="42.26175" lon="1.5541">
        <ele>1310.16</ele>
        <time>2021-07-31T16:52:06Z</time>
      </trkpt>
      <trkpt lat="42.26187" lon="1.55359">
        <ele>1310.28</ele>
        <time>2021-07-31T16:52:10Z</time>
      </trkpt>
      <trkpt lat="42.26192" lon="1.55318">
        <ele>1311.52</ele>
        <time>2021-07-31T16:52:13Z</time>
      </trkpt>
      <trkpt lat="42.26194" lon="1.55267">
        <ele>1314.11</ele>
        <time>2021-07-31T16:52:17Z</time>
      </trkpt>
      <trkpt lat="42.26182" lon="1.5521">
        <ele>1318.03</ele>
        <time>2021-07-31T16:52:23Z</time>
      </trkpt>
      <trkpt lat="42.26174" lon="1.55171">
        <ele>1320.8</ele>
        <time>2021-07-31T16:52:27Z</time>
      </trkpt>
      <trkpt lat="42.26175" lon="1.55106">
        <ele>1324.65</ele>
        <time>2021-07-31T16:52:33Z</time>
      </trkpt>
      <trkpt lat="42.26168" lon="1.5504">
        <ele>1328.1</ele>
        <time>2021-07-31T16:52:38Z</time>
      </trkpt>
      <trkpt lat="42.26168" lon="1.55028">
        <ele>1328.74</ele>
        <time>2021-07-31T16:52:39Z</time>
      </trkpt>
      <trkpt lat="42.2618" lon="1.54966">
        <ele>1332.05</ele>
        <time>2021-07-31T16:52:44Z</time>
      </trkpt>
      <trkpt lat="42.26195" lon="1.54934">
        <ele>1333.73</ele>
        <time>2021-07-31T16:52:47Z</time>
      </trkpt>
      <trkpt lat="42.26189" lon="1.5485">
        <ele>1337.47</ele>
        <time>2021-07-31T16:52:54Z</time>
      </trkpt>
      <trkpt lat="42.26177" lon="1.54801">
        <ele>1338.88</ele>
        <time>2021-07-31T16:52:58Z</time>
      </trkpt>
      <trkpt lat="42.26135" lon="1.54712">
        <ele>1342.65</ele>
        <time>2021-07-31T16:53:07Z</time>
      </trkpt>
      <trkpt lat="42.26112" lon="1.54671">
        <ele>1344.55</ele>
        <time>2021-07-31T16:53:12Z</time>
      </trkpt>
      <trkpt lat="42.26081" lon="1.5464">
        <ele>1346.47</ele>
        <time>2021-07-31T16:53:17Z</time>
      </trkpt>
      <trkpt lat="42.26029" lon="1.5459">
        <ele>1349.64</ele>
        <time>2021-07-31T16:53:25Z</time>
      </trkpt>
      <trkpt lat="42.26" lon="1.54543">
        <ele>1351.9</ele>
        <time>2021-07-31T16:53:31Z</time>
      </trkpt>
      <trkpt lat="42.26001" lon="1.54534">
        <ele>1352.13</ele>
        <time>2021-07-31T16:53:32Z</time>
      </trkpt>
      <trkpt lat="42.26003" lon="1.54511">
        <ele>1352.83</ele>
        <time>2021-07-31T16:53:35Z</time>
      </trkpt>
      <trkpt lat="42.26023" lon="1.54455">
        <ele>1354.41</ele>
        <time>2021-07-31T16:53:45Z</time>
      </trkpt>
      <trkpt lat="42.26056" lon="1.54378">
        <ele>1355.48</ele>
        <time>2021-07-31T16:53:54Z</time>
      </trkpt>
      <trkpt lat="42.26056" lon="1.5428">
        <ele>1355.76</ele>
        <time>2021-07-31T16:54:03Z</time>
      </trkpt>
      <trkpt lat="42.26056" lon="1.54269">
        <ele>1355.76</ele>
        <time>2021-07-31T16:54:04Z</time>
      </trkpt>
      <trkpt lat="42.26062" lon="1.54169">
        <ele>1355.22</ele>
        <time>2021-07-31T16:54:13Z</time>
      </trkpt>
      <trkpt lat="42.26056" lon="1.54108">
        <ele>1353.37</ele>
        <time>2021-07-31T16:54:19Z</time>
      </trkpt>
      <trkpt lat="42.2604" lon="1.54087">
        <ele>1350.72</ele>
        <time>2021-07-31T16:54:25Z</time>
      </trkpt>
      <trkpt lat="42.26016" lon="1.54135">
        <ele>1347.69</ele>
        <time>2021-07-31T16:54:31Z</time>
      </trkpt>
      <trkpt lat="42.25986" lon="1.54145">
        <ele>1345.62</ele>
        <time>2021-07-31T16:54:35Z</time>
      </trkpt>
      <trkpt lat="42.25945" lon="1.54161">
        <ele>1341.16</ele>
        <time>2021-07-31T16:54:42Z</time>
      </trkpt>
      <trkpt lat="42.25944" lon="1.54137">
        <ele>1338.72</ele>
        <time>2021-07-31T16:54:46Z</time>
      </trkpt>
      <trkpt lat="42.2595" lon="1.54131">
        <ele>1338.14</ele>
        <time>2021-07-31T16:54:47Z</time>
      </trkpt>
      <trkpt lat="42.2598" lon="1.54064">
        <ele>1334.52</ele>
        <time>2021-07-31T16:54:54Z</time>
      </trkpt>
      <trkpt lat="42.2598" lon="1.54052">
        <ele>1334</ele>
        <time>2021-07-31T16:54:55Z</time>
      </trkpt>
      <trkpt lat="42.2598" lon="1.5404">
        <ele>1333.43</ele>
        <time>2021-07-31T16:54:56Z</time>
      </trkpt>
      <trkpt lat="42.25981" lon="1.54028">
        <ele>1332.76</ele>
        <time>2021-07-31T16:54:57Z</time>
      </trkpt>
      <trkpt lat="42.25981" lon="1.54017">
        <ele>1332.16</ele>
        <time>2021-07-31T16:54:58Z</time>
      </trkpt>
      <trkpt lat="42.25982" lon="1.54008">
        <ele>1331.59</ele>
        <time>2021-07-31T16:54:59Z</time>
      </trkpt>
      <trkpt lat="42.25982" lon="1.54001">
        <ele>1330.92</ele>
        <time>2021-07-31T16:55:00Z</time>
      </trkpt>
      <trkpt lat="42.2598" lon="1.53996">
        <ele>1330.17</ele>
        <time>2021-07-31T16:55:01Z</time>
      </trkpt>
      <trkpt lat="42.25979" lon="1.53993">
        <ele>1329.43</ele>
        <time>2021-07-31T16:55:02Z</time>
      </trkpt>
      <trkpt lat="42.25977" lon="1.53991">
        <ele>1328.66</ele>
        <time>2021-07-31T16:55:03Z</time>
      </trkpt>
      <trkpt lat="42.25966" lon="1.53996">
        <ele>1325.2</ele>
        <time>2021-07-31T16:55:08Z</time>
      </trkpt>
      <trkpt lat="42.25963" lon="1.54007">
        <ele>1324.17</ele>
        <time>2021-07-31T16:55:10Z</time>
      </trkpt>
      <trkpt lat="42.25947" lon="1.54052">
        <ele>1322.32</ele>
        <time>2021-07-31T16:55:15Z</time>
      </trkpt>
      <trkpt lat="42.25904" lon="1.54099">
        <ele>1320.43</ele>
        <time>2021-07-31T16:55:22Z</time>
      </trkpt>
      <trkpt lat="42.25884" lon="1.54094">
        <ele>1316.57</ele>
        <time>2021-07-31T16:55:29Z</time>
      </trkpt>
      <trkpt lat="42.25874" lon="1.54102">
        <ele>1315.35</ele>
        <time>2021-07-31T16:55:32Z</time>
      </trkpt>
      <trkpt lat="42.25865" lon="1.54115">
        <ele>1314.89</ele>
        <time>2021-07-31T16:55:34Z</time>
      </trkpt>
      <trkpt lat="42.25831" lon="1.54179">
        <ele>1314.55</ele>
        <time>2021-07-31T16:55:41Z</time>
      </trkpt>
      <trkpt lat="42.25834" lon="1.54249">
        <ele>1314.05</ele>
        <time>2021-07-31T16:55:45Z</time>
      </trkpt>
      <trkpt lat="42.25863" lon="1.54329">
        <ele>1312.94</ele>
        <time>2021-07-31T16:55:50Z</time>
      </trkpt>
      <trkpt lat="42.25853" lon="1.5437">
        <ele>1309.55</ele>
        <time>2021-07-31T16:55:55Z</time>
      </trkpt>
      <trkpt lat="42.25837" lon="1.54343">
        <ele>1307.44</ele>
        <time>2021-07-31T16:55:58Z</time>
      </trkpt>
      <trkpt lat="42.2582" lon="1.54299">
        <ele>1306.27</ele>
        <time>2021-07-31T16:56:00Z</time>
      </trkpt>
      <trkpt lat="42.25768" lon="1.54214">
        <ele>1303.89</ele>
        <time>2021-07-31T16:56:05Z</time>
      </trkpt>
      <trkpt lat="42.25753" lon="1.54143">
        <ele>1301.38</ele>
        <time>2021-07-31T16:56:09Z</time>
      </trkpt>
      <trkpt lat="42.25738" lon="1.54031">
        <ele>1296.78</ele>
        <time>2021-07-31T16:56:15Z</time>
      </trkpt>
      <trkpt lat="42.25712" lon="1.53977">
        <ele>1294.68</ele>
        <time>2021-07-31T16:56:18Z</time>
      </trkpt>
      <trkpt lat="42.2571" lon="1.53895">
        <ele>1290.27</ele>
        <time>2021-07-31T16:56:23Z</time>
      </trkpt>
      <trkpt lat="42.25756" lon="1.53822">
        <ele>1285.23</ele>
        <time>2021-07-31T16:56:28Z</time>
      </trkpt>
      <trkpt lat="42.25765" lon="1.53808">
        <ele>1284.15</ele>
        <time>2021-07-31T16:56:29Z</time>
      </trkpt>
      <trkpt lat="42.25786" lon="1.53741">
        <ele>1279.74</ele>
        <time>2021-07-31T16:56:33Z</time>
      </trkpt>
      <trkpt lat="42.25788" lon="1.53703">
        <ele>1277.71</ele>
        <time>2021-07-31T16:56:35Z</time>
      </trkpt>
      <trkpt lat="42.25823" lon="1.53624">
        <ele>1273.7</ele>
        <time>2021-07-31T16:56:40Z</time>
      </trkpt>
      <trkpt lat="42.25896" lon="1.53595">
        <ele>1270.04</ele>
        <time>2021-07-31T16:56:45Z</time>
      </trkpt>
      <trkpt lat="42.2591" lon="1.53582">
        <ele>1269.27</ele>
        <time>2021-07-31T16:56:46Z</time>
      </trkpt>
      <trkpt lat="42.25966" lon="1.53524">
        <ele>1266.26</ele>
        <time>2021-07-31T16:56:50Z</time>
      </trkpt>
      <trkpt lat="42.26009" lon="1.53446">
        <ele>1262.13</ele>
        <time>2021-07-31T16:56:55Z</time>
      </trkpt>
      <trkpt lat="42.25996" lon="1.53397">
        <ele>1257.37</ele>
        <time>2021-07-31T16:56:59Z</time>
      </trkpt>
      <trkpt lat="42.25984" lon="1.5339">
        <ele>1256.19</ele>
        <time>2021-07-31T16:57:00Z</time>
      </trkpt>
      <trkpt lat="42.25947" lon="1.53366">
        <ele>1253.32</ele>
        <time>2021-07-31T16:57:03Z</time>
      </trkpt>
      <trkpt lat="42.25913" lon="1.53368">
        <ele>1248.9</ele>
        <time>2021-07-31T16:57:07Z</time>
      </trkpt>
      <trkpt lat="42.25915" lon="1.53398">
        <ele>1245.74</ele>
        <time>2021-07-31T16:57:10Z</time>
      </trkpt>
      <trkpt lat="42.25935" lon="1.53449">
        <ele>1242.68</ele>
        <time>2021-07-31T16:57:14Z</time>
      </trkpt>
      <trkpt lat="42.25909" lon="1.53485">
        <ele>1240.37</ele>
        <time>2021-07-31T16:57:18Z</time>
      </trkpt>
      <trkpt lat="42.25887" lon="1.53498">
        <ele>1239.54</ele>
        <time>2021-07-31T16:57:20Z</time>
      </trkpt>
      <trkpt lat="42.2581" lon="1.53485">
        <ele>1237.07</ele>
        <time>2021-07-31T16:57:26Z</time>
      </trkpt>
      <trkpt lat="42.25784" lon="1.53482">
        <ele>1236.21</ele>
        <time>2021-07-31T16:57:28Z</time>
      </trkpt>
      <trkpt lat="42.257" lon="1.53495">
        <ele>1232.97</ele>
        <time>2021-07-31T16:57:34Z</time>
      </trkpt>
      <trkpt lat="42.25601" lon="1.53487">
        <ele>1228.66</ele>
        <time>2021-07-31T16:57:41Z</time>
      </trkpt>
      <trkpt lat="42.25588" lon="1.53483">
        <ele>1228.03</ele>
        <time>2021-07-31T16:57:42Z</time>
      </trkpt>
      <trkpt lat="42.25537" lon="1.53512">
        <ele>1223.45</ele>
        <time>2021-07-31T16:57:47Z</time>
      </trkpt>
      <trkpt lat="42.25515" lon="1.53595">
        <ele>1220.47</ele>
        <time>2021-07-31T16:57:51Z</time>
      </trkpt>
      <trkpt lat="42.25483" lon="1.5374">
        <ele>1217.44</ele>
        <time>2021-07-31T16:57:57Z</time>
      </trkpt>
      <trkpt lat="42.25488" lon="1.53824">
        <ele>1214.1</ele>
        <time>2021-07-31T16:58:01Z</time>
      </trkpt>
      <trkpt lat="42.25495" lon="1.53942">
        <ele>1209.09</ele>
        <time>2021-07-31T16:58:06Z</time>
      </trkpt>
      <trkpt lat="42.25498" lon="1.53985">
        <ele>1207.25</ele>
        <time>2021-07-31T16:58:08Z</time>
      </trkpt>
      <trkpt lat="42.25485" lon="1.54061">
        <ele>1202.81</ele>
        <time>2021-07-31T16:58:12Z</time>
      </trkpt>
      <trkpt lat="42.25484" lon="1.5408">
        <ele>1201.8</ele>
        <time>2021-07-31T16:58:13Z</time>
      </trkpt>
      <trkpt lat="42.25482" lon="1.54115">
        <ele>1199.65</ele>
        <time>2021-07-31T16:58:15Z</time>
      </trkpt>
      <trkpt lat="42.25465" lon="1.54147">
        <ele>1194.78</ele>
        <time>2021-07-31T16:58:19Z</time>
      </trkpt>
      <trkpt lat="42.25447" lon="1.54118">
        <ele>1191.32</ele>
        <time>2021-07-31T16:58:22Z</time>
      </trkpt>
      <trkpt lat="42.25438" lon="1.54044">
        <ele>1188.19</ele>
        <time>2021-07-31T16:58:26Z</time>
      </trkpt>
      <trkpt lat="42.25381" lon="1.5394">
        <ele>1183.68</ele>
        <time>2021-07-31T16:58:33Z</time>
      </trkpt>
      <trkpt lat="42.2535" lon="1.53921">
        <ele>1182.8</ele>
        <time>2021-07-31T16:58:35Z</time>
      </trkpt>
      <trkpt lat="42.25295" lon="1.53858">
        <ele>1181.38</ele>
        <time>2021-07-31T16:58:39Z</time>
      </trkpt>
      <trkpt lat="42.25262" lon="1.53802">
        <ele>1179.94</ele>
        <time>2021-07-31T16:58:42Z</time>
      </trkpt>
      <trkpt lat="42.25214" lon="1.53735">
        <ele>1177.14</ele>
        <time>2021-07-31T16:58:46Z</time>
      </trkpt>
      <trkpt lat="42.25198" lon="1.53692">
        <ele>1175.37</ele>
        <time>2021-07-31T16:58:48Z</time>
      </trkpt>
      <trkpt lat="42.25186" lon="1.53575">
        <ele>1169.91</ele>
        <time>2021-07-31T16:58:53Z</time>
      </trkpt>
      <trkpt lat="42.25183" lon="1.53553">
        <ele>1169.23</ele>
        <time>2021-07-31T16:58:54Z</time>
      </trkpt>
      <trkpt lat="42.25198" lon="1.53456">
        <ele>1165.32</ele>
        <time>2021-07-31T16:58:59Z</time>
      </trkpt>
      <trkpt lat="42.25222" lon="1.53364">
        <ele>1162.24</ele>
        <time>2021-07-31T16:59:04Z</time>
      </trkpt>
      <trkpt lat="42.25231" lon="1.53334">
        <ele>1161.04</ele>
        <time>2021-07-31T16:59:06Z</time>
      </trkpt>
      <trkpt lat="42.25219" lon="1.53267">
        <ele>1157.67</ele>
        <time>2021-07-31T16:59:11Z</time>
      </trkpt>
      <trkpt lat="42.25131" lon="1.53139">
        <ele>1154.96</ele>
        <time>2021-07-31T16:59:19Z</time>
      </trkpt>
      <trkpt lat="42.25094" lon="1.53061">
        <ele>1153.69</ele>
        <time>2021-07-31T16:59:23Z</time>
      </trkpt>
      <trkpt lat="42.25039" lon="1.53026">
        <ele>1151.29</ele>
        <time>2021-07-31T16:59:27Z</time>
      </trkpt>
      <trkpt lat="42.25009" lon="1.53018">
        <ele>1149.66</ele>
        <time>2021-07-31T16:59:29Z</time>
      </trkpt>
      <trkpt lat="42.24939" lon="1.52949">
        <ele>1144.99</ele>
        <time>2021-07-31T16:59:34Z</time>
      </trkpt>
      <trkpt lat="42.24929" lon="1.52932">
        <ele>1144.19</ele>
        <time>2021-07-31T16:59:35Z</time>
      </trkpt>
      <trkpt lat="42.24906" lon="1.52882">
        <ele>1141.34</ele>
        <time>2021-07-31T16:59:38Z</time>
      </trkpt>
      <trkpt lat="42.24859" lon="1.52862">
        <ele>1136.61</ele>
        <time>2021-07-31T16:59:42Z</time>
      </trkpt>
      <trkpt lat="42.24816" lon="1.52866">
        <ele>1133.32</ele>
        <time>2021-07-31T16:59:45Z</time>
      </trkpt>
      <trkpt lat="42.24789" lon="1.52851">
        <ele>1131.33</ele>
        <time>2021-07-31T16:59:47Z</time>
      </trkpt>
      <trkpt lat="42.24749" lon="1.52823">
        <ele>1129.06</ele>
        <time>2021-07-31T16:59:50Z</time>
      </trkpt>
      <trkpt lat="42.24674" lon="1.52822">
        <ele>1125.34</ele>
        <time>2021-07-31T16:59:55Z</time>
      </trkpt>
      <trkpt lat="42.24643" lon="1.52835">
        <ele>1123.87</ele>
        <time>2021-07-31T16:59:57Z</time>
      </trkpt>
      <trkpt lat="42.24586" lon="1.52827">
        <ele>1120.75</ele>
        <time>2021-07-31T17:00:01Z</time>
      </trkpt>
      <trkpt lat="42.24552" lon="1.52794">
        <ele>1118.26</ele>
        <time>2021-07-31T17:00:04Z</time>
      </trkpt>
      <trkpt lat="42.24498" lon="1.52806">
        <ele>1113.41</ele>
        <time>2021-07-31T17:00:09Z</time>
      </trkpt>
      <trkpt lat="42.24487" lon="1.5282">
        <ele>1112.47</ele>
        <time>2021-07-31T17:00:10Z</time>
      </trkpt>
      <trkpt lat="42.24405" lon="1.52895">
        <ele>1108.46</ele>
        <time>2021-07-31T17:00:16Z</time>
      </trkpt>
      <trkpt lat="42.24303" lon="1.53035">
        <ele>1104.33</ele>
        <time>2021-07-31T17:00:24Z</time>
      </trkpt>
      <trkpt lat="42.2429" lon="1.53048">
        <ele>1103.55</ele>
        <time>2021-07-31T17:00:25Z</time>
      </trkpt>
      <trkpt lat="42.24247" lon="1.53075">
        <ele>1099.5</ele>
        <time>2021-07-31T17:00:28Z</time>
      </trkpt>
      <trkpt lat="42.24202" lon="1.53127">
        <ele>1095.25</ele>
        <time>2021-07-31T17:00:32Z</time>
      </trkpt>
      <trkpt lat="42.24176" lon="1.53179">
        <ele>1092.23</ele>
        <time>2021-07-31T17:00:35Z</time>
      </trkpt>
      <trkpt lat="42.24163" lon="1.53216">
        <ele>1090.26</ele>
        <time>2021-07-31T17:00:37Z</time>
      </trkpt>
      <trkpt lat="42.24121" lon="1.53266">
        <ele>1086.04</ele>
        <time>2021-07-31T17:00:41Z</time>
      </trkpt>
      <trkpt lat="42.24085" lon="1.53305">
        <ele>1083.61</ele>
        <time>2021-07-31T17:00:44Z</time>
      </trkpt>
      <trkpt lat="42.24051" lon="1.53401">
        <ele>1079.24</ele>
        <time>2021-07-31T17:00:50Z</time>
      </trkpt>
      <trkpt lat="42.24074" lon="1.5348">
        <ele>1076.38</ele>
        <time>2021-07-31T17:00:54Z</time>
      </trkpt>
      <trkpt lat="42.24106" lon="1.53592">
        <ele>1072.04</ele>
        <time>2021-07-31T17:01:00Z</time>
      </trkpt>
      <trkpt lat="42.24091" lon="1.53644">
        <ele>1067.22</ele>
        <time>2021-07-31T17:01:04Z</time>
      </trkpt>
      <trkpt lat="42.24056" lon="1.53643">
        <ele>1063.93</ele>
        <time>2021-07-31T17:01:07Z</time>
      </trkpt>
      <trkpt lat="42.24012" lon="1.53668">
        <ele>1059.87</ele>
        <time>2021-07-31T17:01:11Z</time>
      </trkpt>
      <trkpt lat="42.23998" lon="1.53698">
        <ele>1058.03</ele>
        <time>2021-07-31T17:01:13Z</time>
      </trkpt>
      <trkpt lat="42.23982" lon="1.53749">
        <ele>1052.53</ele>
        <time>2021-07-31T17:01:19Z</time>
      </trkpt>
      <trkpt lat="42.23977" lon="1.53735">
        <ele>1049.46</ele>
        <time>2021-07-31T17:01:22Z</time>
      </trkpt>
      <trkpt lat="42.23979" lon="1.53727">
        <ele>1048.58</ele>
        <time>2021-07-31T17:01:23Z</time>
      </trkpt>
      <trkpt lat="42.24002" lon="1.53606">
        <ele>1045.24</ele>
        <time>2021-07-31T17:01:30Z</time>
      </trkpt>
      <trkpt lat="42.24009" lon="1.53558">
        <ele>1044.89</ele>
        <time>2021-07-31T17:01:32Z</time>
      </trkpt>
      <trkpt lat="42.24" lon="1.53455">
        <ele>1043.9</ele>
        <time>2021-07-31T17:01:36Z</time>
      </trkpt>
      <trkpt lat="42.24" lon="1.53307">
        <ele>1040.43</ele>
        <time>2021-07-31T17:01:42Z</time>
      </trkpt>
      <trkpt lat="42.24008" lon="1.53284">
        <ele>1039.72</ele>
        <time>2021-07-31T17:01:43Z</time>
      </trkpt>
      <trkpt lat="42.24065" lon="1.53148">
        <ele>1035.52</ele>
        <time>2021-07-31T17:01:50Z</time>
      </trkpt>
      <trkpt lat="42.24103" lon="1.53101">
        <ele>1032.41</ele>
        <time>2021-07-31T17:01:54Z</time>
      </trkpt>
      <trkpt lat="42.24156" lon="1.53014">
        <ele>1029.8</ele>
        <time>2021-07-31T17:02:00Z</time>
      </trkpt>
      <trkpt lat="42.24198" lon="1.52941">
        <ele>1028.47</ele>
        <time>2021-07-31T17:02:05Z</time>
      </trkpt>
      <trkpt lat="42.2428" lon="1.52833">
        <ele>1027.83</ele>
        <time>2021-07-31T17:02:12Z</time>
      </trkpt>
      <trkpt lat="42.24347" lon="1.52674">
        <ele>1026.86</ele>
        <time>2021-07-31T17:02:20Z</time>
      </trkpt>
      <trkpt lat="42.24356" lon="1.52658">
        <ele>1026.45</ele>
        <time>2021-07-31T17:02:21Z</time>
      </trkpt>
      <trkpt lat="42.24372" lon="1.5256">
        <ele>1021.95</ele>
        <time>2021-07-31T17:02:27Z</time>
      </trkpt>
      <trkpt lat="42.24375" lon="1.52535">
        <ele>1019.88</ele>
        <time>2021-07-31T17:02:29Z</time>
      </trkpt>
      <trkpt lat="42.24379" lon="1.52514">
        <ele>1015.12</ele>
        <time>2021-07-31T17:02:33Z</time>
      </trkpt>
      <trkpt lat="42.2438" lon="1.52509">
        <ele>1012.1</ele>
        <time>2021-07-31T17:02:36Z</time>
      </trkpt>
      <trkpt lat="42.24389" lon="1.52492">
        <ele>1008.96</ele>
        <time>2021-07-31T17:02:41Z</time>
      </trkpt>
      <trkpt lat="42.24391" lon="1.52487">
        <ele>1008.63</ele>
        <time>2021-07-31T17:02:42Z</time>
      </trkpt>
      <trkpt lat="42.24375" lon="1.52482">
        <ele>1007.06</ele>
        <time>2021-07-31T17:02:48Z</time>
      </trkpt>
      <trkpt lat="42.24347" lon="1.52499">
        <ele>1005.86</ele>
        <time>2021-07-31T17:02:56Z</time>
      </trkpt>
      <trkpt lat="42.24315" lon="1.52531">
        <ele>1004.68</ele>
        <time>2021-07-31T17:03:04Z</time>
      </trkpt>
      <trkpt lat="42.24298" lon="1.5259">
        <ele>1004.97</ele>
        <time>2021-07-31T17:03:12Z</time>
      </trkpt>
      <trkpt lat="42.24282" lon="1.52608">
        <ele>1006.31</ele>
        <time>2021-07-31T17:03:15Z</time>
      </trkpt>
      <trkpt lat="42.2425" lon="1.52622">
        <ele>1010.48</ele>
        <time>2021-07-31T17:03:23Z</time>
      </trkpt>
      <trkpt lat="42.24226" lon="1.52613">
        <ele>1013.54</ele>
        <time>2021-07-31T17:03:28Z</time>
      </trkpt>
      <trkpt lat="42.24196" lon="1.52598">
        <ele>1017.29</ele>
        <time>2021-07-31T17:03:33Z</time>
      </trkpt>
      <trkpt lat="42.24173" lon="1.52584">
        <ele>1020.86</ele>
        <time>2021-07-31T17:03:37Z</time>
      </trkpt>
      <trkpt lat="42.2416" lon="1.52574">
        <ele>1022.32</ele>
        <time>2021-07-31T17:03:39Z</time>
      </trkpt>
      <trkpt lat="42.24114" lon="1.5256">
        <ele>1026.55</ele>
        <time>2021-07-31T17:03:45Z</time>
      </trkpt>
      <trkpt lat="42.24109" lon="1.52596">
        <ele>1030.5</ele>
        <time>2021-07-31T17:03:51Z</time>
      </trkpt>
      <trkpt lat="42.24131" lon="1.52651">
        <ele>1033.97</ele>
        <time>2021-07-31T17:03:58Z</time>
      </trkpt>
      <trkpt lat="42.24137" lon="1.52665">
        <ele>1035.07</ele>
        <time>2021-07-31T17:04:00Z</time>
      </trkpt>
      <trkpt lat="42.24124" lon="1.52719">
        <ele>1038.81</ele>
        <time>2021-07-31T17:04:06Z</time>
      </trkpt>
      <trkpt lat="42.2411" lon="1.52755">
        <ele>1041.91</ele>
        <time>2021-07-31T17:04:11Z</time>
      </trkpt>
      <trkpt lat="42.24097" lon="1.52749">
        <ele>1044.88</ele>
        <time>2021-07-31T17:04:17Z</time>
      </trkpt>
      <trkpt lat="42.24098" lon="1.52742">
        <ele>1045.36</ele>
        <time>2021-07-31T17:04:18Z</time>
      </trkpt>
      <trkpt lat="42.24109" lon="1.52681">
        <ele>1048.58</ele>
        <time>2021-07-31T17:04:25Z</time>
      </trkpt>
      <trkpt lat="42.24104" lon="1.52664">
        <ele>1049.57</ele>
        <time>2021-07-31T17:04:27Z</time>
      </trkpt>
      <trkpt lat="42.24071" lon="1.52626">
        <ele>1053.31</ele>
        <time>2021-07-31T17:04:32Z</time>
      </trkpt>
      <trkpt lat="42.2404" lon="1.52597">
        <ele>1056.87</ele>
        <time>2021-07-31T17:04:36Z</time>
      </trkpt>
      <trkpt lat="42.24019" lon="1.52557">
        <ele>1060.09</ele>
        <time>2021-07-31T17:04:40Z</time>
      </trkpt>
      <trkpt lat="42.23992" lon="1.52529">
        <ele>1063.28</ele>
        <time>2021-07-31T17:04:44Z</time>
      </trkpt>
      <trkpt lat="42.23927" lon="1.52504">
        <ele>1067.86</ele>
        <time>2021-07-31T17:04:50Z</time>
      </trkpt>
      <trkpt lat="42.2389" lon="1.52488">
        <ele>1071.58</ele>
        <time>2021-07-31T17:04:54Z</time>
      </trkpt>
      <trkpt lat="42.23893" lon="1.52485">
        <ele>1072.48</ele>
        <time>2021-07-31T17:04:55Z</time>
      </trkpt>
      <trkpt lat="42.23859" lon="1.5249">
        <ele>1076.6</ele>
        <time>2021-07-31T17:05:00Z</time>
      </trkpt>
      <trkpt lat="42.23811" lon="1.52483">
        <ele>1081.81</ele>
        <time>2021-07-31T17:05:07Z</time>
      </trkpt>
      <trkpt lat="42.2379" lon="1.52495">
        <ele>1083.81</ele>
        <time>2021-07-31T17:05:10Z</time>
      </trkpt>
      <trkpt lat="42.23753" lon="1.5252">
        <ele>1086.78</ele>
        <time>2021-07-31T17:05:15Z</time>
      </trkpt>
      <trkpt lat="42.2373" lon="1.52477">
        <ele>1090.17</ele>
        <time>2021-07-31T17:05:22Z</time>
      </trkpt>
      <trkpt lat="42.23738" lon="1.52436">
        <ele>1091.58</ele>
        <time>2021-07-31T17:05:25Z</time>
      </trkpt>
      <trkpt lat="42.23801" lon="1.52392">
        <ele>1095.57</ele>
        <time>2021-07-31T17:05:30Z</time>
      </trkpt>
      <trkpt lat="42.23823" lon="1.52382">
        <ele>1096.86</ele>
        <time>2021-07-31T17:05:32Z</time>
      </trkpt>
      <trkpt lat="42.23876" lon="1.52359">
        <ele>1100.78</ele>
        <time>2021-07-31T17:05:38Z</time>
      </trkpt>
      <trkpt lat="42.23888" lon="1.52352">
        <ele>1102.2</ele>
        <time>2021-07-31T17:05:40Z</time>
      </trkpt>
      <trkpt lat="42.23925" lon="1.52329">
        <ele>1106.3</ele>
        <time>2021-07-31T17:05:46Z</time>
      </trkpt>
      <trkpt lat="42.23946" lon="1.52312">
        <ele>1108.19</ele>
        <time>2021-07-31T17:05:49Z</time>
      </trkpt>
      <trkpt lat="42.23978" lon="1.52283">
        <ele>1111.42</ele>
        <time>2021-07-31T17:05:54Z</time>
      </trkpt>
      <trkpt lat="42.23996" lon="1.52277">
        <ele>1113.8</ele>
        <time>2021-07-31T17:05:58Z</time>
      </trkpt>
      <trkpt lat="42.23988" lon="1.52257">
        <ele>1116.82</ele>
        <time>2021-07-31T17:06:04Z</time>
      </trkpt>
      <trkpt lat="42.23976" lon="1.52263">
        <ele>1118.25</ele>
        <time>2021-07-31T17:06:06Z</time>
      </trkpt>
      <trkpt lat="42.23928" lon="1.52282">
        <ele>1122.52</ele>
        <time>2021-07-31T17:06:12Z</time>
      </trkpt>
      <trkpt lat="42.23896" lon="1.52297">
        <ele>1125.91</ele>
        <time>2021-07-31T17:06:16Z</time>
      </trkpt>
      <trkpt lat="42.23861" lon="1.52306">
        <ele>1129.08</ele>
        <time>2021-07-31T17:06:20Z</time>
      </trkpt>
      <trkpt lat="42.23829" lon="1.52306">
        <ele>1132.32</ele>
        <time>2021-07-31T17:06:24Z</time>
      </trkpt>
      <trkpt lat="42.2379" lon="1.52299">
        <ele>1135.9</ele>
        <time>2021-07-31T17:06:29Z</time>
      </trkpt>
      <trkpt lat="42.23783" lon="1.52297">
        <ele>1136.65</ele>
        <time>2021-07-31T17:06:30Z</time>
      </trkpt>
      <trkpt lat="42.23747" lon="1.52311">
        <ele>1140.53</ele>
        <time>2021-07-31T17:06:36Z</time>
      </trkpt>
      <trkpt lat="42.23712" lon="1.52347">
        <ele>1144.46</ele>
        <time>2021-07-31T17:06:41Z</time>
      </trkpt>
      <trkpt lat="42.23685" lon="1.52382">
        <ele>1148</ele>
        <time>2021-07-31T17:06:45Z</time>
      </trkpt>
      <trkpt lat="42.23657" lon="1.52414">
        <ele>1151.05</ele>
        <time>2021-07-31T17:06:49Z</time>
      </trkpt>
      <trkpt lat="42.2363" lon="1.52437">
        <ele>1154.32</ele>
        <time>2021-07-31T17:06:53Z</time>
      </trkpt>
      <trkpt lat="42.23615" lon="1.52451">
        <ele>1155.47</ele>
        <time>2021-07-31T17:06:55Z</time>
      </trkpt>
      <trkpt lat="42.2357" lon="1.52476">
        <ele>1159.75</ele>
        <time>2021-07-31T17:07:02Z</time>
      </trkpt>
      <trkpt lat="42.23549" lon="1.52462">
        <ele>1162.23</ele>
        <time>2021-07-31T17:07:05Z</time>
      </trkpt>
      <trkpt lat="42.23536" lon="1.52455">
        <ele>1163.8</ele>
        <time>2021-07-31T17:07:07Z</time>
      </trkpt>
      <trkpt lat="42.23506" lon="1.52457">
        <ele>1167.24</ele>
        <time>2021-07-31T17:07:11Z</time>
      </trkpt>
      <trkpt lat="42.23487" lon="1.52463">
        <ele>1169.1</ele>
        <time>2021-07-31T17:07:14Z</time>
      </trkpt>
      <trkpt lat="42.23458" lon="1.52435">
        <ele>1172.39</ele>
        <time>2021-07-31T17:07:19Z</time>
      </trkpt>
      <trkpt lat="42.23436" lon="1.5241">
        <ele>1175.68</ele>
        <time>2021-07-31T17:07:23Z</time>
      </trkpt>
      <trkpt lat="42.23424" lon="1.52444">
        <ele>1178.97</ele>
        <time>2021-07-31T17:07:29Z</time>
      </trkpt>
      <trkpt lat="42.23416" lon="1.5247">
        <ele>1180.12</ele>
        <time>2021-07-31T17:07:31Z</time>
      </trkpt>
      <trkpt lat="42.23383" lon="1.52508">
        <ele>1183.09</ele>
        <time>2021-07-31T17:07:35Z</time>
      </trkpt>
      <trkpt lat="42.23331" lon="1.52539">
        <ele>1188.61</ele>
        <time>2021-07-31T17:07:41Z</time>
      </trkpt>
      <trkpt lat="42.23326" lon="1.52545">
        <ele>1189.52</ele>
        <time>2021-07-31T17:07:42Z</time>
      </trkpt>
      <trkpt lat="42.23298" lon="1.5258">
        <ele>1193.3</ele>
        <time>2021-07-31T17:07:48Z</time>
      </trkpt>
      <trkpt lat="42.23266" lon="1.52617">
        <ele>1196.36</ele>
        <time>2021-07-31T17:07:53Z</time>
      </trkpt>
      <trkpt lat="42.23254" lon="1.52631">
        <ele>1197.93</ele>
        <time>2021-07-31T17:07:55Z</time>
      </trkpt>
      <trkpt lat="42.23228" lon="1.5268">
        <ele>1201.86</ele>
        <time>2021-07-31T17:08:00Z</time>
      </trkpt>
      <trkpt lat="42.23192" lon="1.52708">
        <ele>1205.19</ele>
        <time>2021-07-31T17:08:05Z</time>
      </trkpt>
      <trkpt lat="42.23183" lon="1.52707">
        <ele>1206.04</ele>
        <time>2021-07-31T17:08:06Z</time>
      </trkpt>
      <trkpt lat="42.23147" lon="1.52709">
        <ele>1208.36</ele>
        <time>2021-07-31T17:08:09Z</time>
      </trkpt>
      <trkpt lat="42.23085" lon="1.52678">
        <ele>1211.36</ele>
        <time>2021-07-31T17:08:14Z</time>
      </trkpt>
      <trkpt lat="42.2302" lon="1.52671">
        <ele>1214.91</ele>
        <time>2021-07-31T17:08:19Z</time>
      </trkpt>
      <trkpt lat="42.23003" lon="1.52673">
        <ele>1216.78</ele>
        <time>2021-07-31T17:08:21Z</time>
      </trkpt>
      <trkpt lat="42.22993" lon="1.5268">
        <ele>1218.42</ele>
        <time>2021-07-31T17:08:23Z</time>
      </trkpt>
      <trkpt lat="42.23011" lon="1.52737">
        <ele>1221.58</ele>
        <time>2021-07-31T17:08:28Z</time>
      </trkpt>
      <trkpt lat="42.23044" lon="1.52773">
        <ele>1224.64</ele>
        <time>2021-07-31T17:08:32Z</time>
      </trkpt>
      <trkpt lat="42.23064" lon="1.52805">
        <ele>1226.78</ele>
        <time>2021-07-31T17:08:35Z</time>
      </trkpt>
      <trkpt lat="42.23098" lon="1.52831">
        <ele>1230.51</ele>
        <time>2021-07-31T17:08:39Z</time>
      </trkpt>
      <trkpt lat="42.23148" lon="1.52846">
        <ele>1235</ele>
        <time>2021-07-31T17:08:44Z</time>
      </trkpt>
      <trkpt lat="42.23169" lon="1.52852">
        <ele>1238.08</ele>
        <time>2021-07-31T17:08:46Z</time>
      </trkpt>
      <trkpt lat="42.23186" lon="1.5286">
        <ele>1239.89</ele>
        <time>2021-07-31T17:08:48Z</time>
      </trkpt>
      <trkpt lat="42.23216" lon="1.52892">
        <ele>1244.19</ele>
        <time>2021-07-31T17:08:53Z</time>
      </trkpt>
      <trkpt lat="42.23225" lon="1.52895">
        <ele>1245.06</ele>
        <time>2021-07-31T17:08:54Z</time>
      </trkpt>
      <trkpt lat="42.2324" lon="1.52901">
        <ele>1246.71</ele>
        <time>2021-07-31T17:08:56Z</time>
      </trkpt>
      <trkpt lat="42.23256" lon="1.52935">
        <ele>1249.77</ele>
        <time>2021-07-31T17:09:00Z</time>
      </trkpt>
      <trkpt lat="42.23259" lon="1.52969">
        <ele>1252.27</ele>
        <time>2021-07-31T17:09:03Z</time>
      </trkpt>
      <trkpt lat="42.23265" lon="1.5299">
        <ele>1254.02</ele>
        <time>2021-07-31T17:09:05Z</time>
      </trkpt>
      <trkpt lat="42.23295" lon="1.53023">
        <ele>1258.5</ele>
        <time>2021-07-31T17:09:10Z</time>
      </trkpt>
      <trkpt lat="42.23317" lon="1.53023">
        <ele>1260.1</ele>
        <time>2021-07-31T17:09:12Z</time>
      </trkpt>
      <trkpt lat="42.23335" lon="1.53026">
        <ele>1261.99</ele>
        <time>2021-07-31T17:09:14Z</time>
      </trkpt>
      <trkpt lat="42.23382" lon="1.53008">
        <ele>1266.26</ele>
        <time>2021-07-31T17:09:19Z</time>
      </trkpt>
      <trkpt lat="42.23398" lon="1.53002">
        <ele>1267.84</ele>
        <time>2021-07-31T17:09:21Z</time>
      </trkpt>
      <trkpt lat="42.23414" lon="1.53017">
        <ele>1271.61</ele>
        <time>2021-07-31T17:09:27Z</time>
      </trkpt>
      <trkpt lat="42.23376" lon="1.53016">
        <ele>1274</ele>
        <time>2021-07-31T17:09:31Z</time>
      </trkpt>
      <trkpt lat="42.23357" lon="1.53023">
        <ele>1275.12</ele>
        <time>2021-07-31T17:09:33Z</time>
      </trkpt>
      <trkpt lat="42.23305" lon="1.53032">
        <ele>1276.83</ele>
        <time>2021-07-31T17:09:38Z</time>
      </trkpt>
      <trkpt lat="42.23262" lon="1.53026">
        <ele>1278.27</ele>
        <time>2021-07-31T17:09:42Z</time>
      </trkpt>
      <trkpt lat="42.23229" lon="1.5299">
        <ele>1279.49</ele>
        <time>2021-07-31T17:09:46Z</time>
      </trkpt>
      <trkpt lat="42.23173" lon="1.52947">
        <ele>1280.44</ele>
        <time>2021-07-31T17:09:53Z</time>
      </trkpt>
      <trkpt lat="42.23147" lon="1.52933">
        <ele>1281.27</ele>
        <time>2021-07-31T17:09:56Z</time>
      </trkpt>
      <trkpt lat="42.23113" lon="1.52932">
        <ele>1283.21</ele>
        <time>2021-07-31T17:10:00Z</time>
      </trkpt>
      <trkpt lat="42.23056" lon="1.5295">
        <ele>1286.97</ele>
        <time>2021-07-31T17:10:07Z</time>
      </trkpt>
      <trkpt lat="42.23018" lon="1.52962">
        <ele>1290.12</ele>
        <time>2021-07-31T17:10:11Z</time>
      </trkpt>
      <trkpt lat="42.23002" lon="1.5297">
        <ele>1291.89</ele>
        <time>2021-07-31T17:10:13Z</time>
      </trkpt>
      <trkpt lat="42.22956" lon="1.5298">
        <ele>1296.19</ele>
        <time>2021-07-31T17:10:18Z</time>
      </trkpt>
      <trkpt lat="42.22948" lon="1.5298">
        <ele>1296.97</ele>
        <time>2021-07-31T17:10:19Z</time>
      </trkpt>
      <trkpt lat="42.22932" lon="1.52975">
        <ele>1298.41</ele>
        <time>2021-07-31T17:10:21Z</time>
      </trkpt>
      <trkpt lat="42.22903" lon="1.52992">
        <ele>1302.51</ele>
        <time>2021-07-31T17:10:26Z</time>
      </trkpt>
      <trkpt lat="42.22871" lon="1.53043">
        <ele>1306.53</ele>
        <time>2021-07-31T17:10:33Z</time>
      </trkpt>
      <trkpt lat="42.22826" lon="1.53099">
        <ele>1310.87</ele>
        <time>2021-07-31T17:10:40Z</time>
      </trkpt>
      <trkpt lat="42.22804" lon="1.53144">
        <ele>1314.9</ele>
        <time>2021-07-31T17:10:46Z</time>
      </trkpt>
      <trkpt lat="42.22801" lon="1.53146">
        <ele>1315.35</ele>
        <time>2021-07-31T17:10:47Z</time>
      </trkpt>
      <trkpt lat="42.22784" lon="1.53106">
        <ele>1318.81</ele>
        <time>2021-07-31T17:10:54Z</time>
      </trkpt>
      <trkpt lat="42.2275" lon="1.53099">
        <ele>1321.63</ele>
        <time>2021-07-31T17:10:59Z</time>
      </trkpt>
      <trkpt lat="42.22733" lon="1.53063">
        <ele>1323.79</ele>
        <time>2021-07-31T17:11:03Z</time>
      </trkpt>
      <trkpt lat="42.22721" lon="1.52997">
        <ele>1327.5</ele>
        <time>2021-07-31T17:11:08Z</time>
      </trkpt>
      <trkpt lat="42.22718" lon="1.52975">
        <ele>1329.1</ele>
        <time>2021-07-31T17:11:10Z</time>
      </trkpt>
      <trkpt lat="42.22731" lon="1.52932">
        <ele>1332.06</ele>
        <time>2021-07-31T17:11:14Z</time>
      </trkpt>
      <trkpt lat="42.22734" lon="1.52864">
        <ele>1337.1</ele>
        <time>2021-07-31T17:11:21Z</time>
      </trkpt>
      <trkpt lat="42.22732" lon="1.5284">
        <ele>1338.62</ele>
        <time>2021-07-31T17:11:23Z</time>
      </trkpt>
      <trkpt lat="42.22721" lon="1.52773">
        <ele>1343</ele>
        <time>2021-07-31T17:11:28Z</time>
      </trkpt>
      <trkpt lat="42.22718" lon="1.52745">
        <ele>1344.73</ele>
        <time>2021-07-31T17:11:30Z</time>
      </trkpt>
      <trkpt lat="42.22724" lon="1.52695">
        <ele>1348.9</ele>
        <time>2021-07-31T17:11:34Z</time>
      </trkpt>
      <trkpt lat="42.22726" lon="1.52684">
        <ele>1349.89</ele>
        <time>2021-07-31T17:11:35Z</time>
      </trkpt>
      <trkpt lat="42.22707" lon="1.52665">
        <ele>1354.32</ele>
        <time>2021-07-31T17:11:40Z</time>
      </trkpt>
      <trkpt lat="42.22674" lon="1.52634">
        <ele>1357.52</ele>
        <time>2021-07-31T17:11:45Z</time>
      </trkpt>
      <trkpt lat="42.2266" lon="1.52615">
        <ele>1358.86</ele>
        <time>2021-07-31T17:11:47Z</time>
      </trkpt>
      <trkpt lat="42.22655" lon="1.5256">
        <ele>1362.11</ele>
        <time>2021-07-31T17:11:52Z</time>
      </trkpt>
      <trkpt lat="42.22654" lon="1.52486">
        <ele>1365.79</ele>
        <time>2021-07-31T17:11:57Z</time>
      </trkpt>
      <trkpt lat="42.2265" lon="1.52442">
        <ele>1368.43</ele>
        <time>2021-07-31T17:12:00Z</time>
      </trkpt>
      <trkpt lat="42.22637" lon="1.52387">
        <ele>1372.46</ele>
        <time>2021-07-31T17:12:05Z</time>
      </trkpt>
      <trkpt lat="42.22652" lon="1.52348">
        <ele>1375.39</ele>
        <time>2021-07-31T17:12:08Z</time>
      </trkpt>
      <trkpt lat="42.22656" lon="1.52295">
        <ele>1379.34</ele>
        <time>2021-07-31T17:12:13Z</time>
      </trkpt>
      <trkpt lat="42.22647" lon="1.52256">
        <ele>1381.76</ele>
        <time>2021-07-31T17:12:16Z</time>
      </trkpt>
      <trkpt lat="42.22621" lon="1.52202">
        <ele>1386.19</ele>
        <time>2021-07-31T17:12:21Z</time>
      </trkpt>
      <trkpt lat="42.22617" lon="1.52156">
        <ele>1389.54</ele>
        <time>2021-07-31T17:12:25Z</time>
      </trkpt>
      <trkpt lat="42.22656" lon="1.52131">
        <ele>1393.14</ele>
        <time>2021-07-31T17:12:29Z</time>
      </trkpt>
      <trkpt lat="42.22673" lon="1.52065">
        <ele>1398.52</ele>
        <time>2021-07-31T17:12:36Z</time>
      </trkpt>
      <trkpt lat="42.22657" lon="1.52028">
        <ele>1401.77</ele>
        <time>2021-07-31T17:12:40Z</time>
      </trkpt>
      <trkpt lat="42.22666" lon="1.51997">
        <ele>1404.68</ele>
        <time>2021-07-31T17:12:44Z</time>
      </trkpt>
      <trkpt lat="42.22685" lon="1.51937">
        <ele>1409.45</ele>
        <time>2021-07-31T17:12:52Z</time>
      </trkpt>
      <trkpt lat="42.22692" lon="1.51926">
        <ele>1410.81</ele>
        <time>2021-07-31T17:12:54Z</time>
      </trkpt>
      <trkpt lat="42.227" lon="1.51915">
        <ele>1412.5</ele>
        <time>2021-07-31T17:12:57Z</time>
      </trkpt>
      <trkpt lat="42.22687" lon="1.51876">
        <ele>1415.78</ele>
        <time>2021-07-31T17:13:05Z</time>
      </trkpt>
      <trkpt lat="42.2265" lon="1.5189">
        <ele>1417.68</ele>
        <time>2021-07-31T17:13:11Z</time>
      </trkpt>
      <trkpt lat="42.22611" lon="1.51877">
        <ele>1420.4</ele>
        <time>2021-07-31T17:13:19Z</time>
      </trkpt>
      <trkpt lat="42.22594" lon="1.51899">
        <ele>1422.51</ele>
        <time>2021-07-31T17:13:24Z</time>
      </trkpt>
      <trkpt lat="42.22581" lon="1.51938">
        <ele>1424.47</ele>
        <time>2021-07-31T17:13:28Z</time>
      </trkpt>
      <trkpt lat="42.22541" lon="1.51977">
        <ele>1428.47</ele>
        <time>2021-07-31T17:13:34Z</time>
      </trkpt>
      <trkpt lat="42.2251" lon="1.51958">
        <ele>1431.65</ele>
        <time>2021-07-31T17:13:38Z</time>
      </trkpt>
      <trkpt lat="42.22474" lon="1.51914">
        <ele>1435.48</ele>
        <time>2021-07-31T17:13:43Z</time>
      </trkpt>
      <trkpt lat="42.22445" lon="1.5189">
        <ele>1439.52</ele>
        <time>2021-07-31T17:13:47Z</time>
      </trkpt>
      <trkpt lat="42.22412" lon="1.51872">
        <ele>1442.58</ele>
        <time>2021-07-31T17:13:51Z</time>
      </trkpt>
      <trkpt lat="42.22404" lon="1.51868">
        <ele>1443.41</ele>
        <time>2021-07-31T17:13:52Z</time>
      </trkpt>
      <trkpt lat="42.22371" lon="1.5184">
        <ele>1446.74</ele>
        <time>2021-07-31T17:13:56Z</time>
      </trkpt>
      <trkpt lat="42.2235" lon="1.51796">
        <ele>1449.99</ele>
        <time>2021-07-31T17:14:00Z</time>
      </trkpt>
      <trkpt lat="42.22323" lon="1.5174">
        <ele>1453.8</ele>
        <time>2021-07-31T17:14:05Z</time>
      </trkpt>
      <trkpt lat="42.22291" lon="1.51705">
        <ele>1457.06</ele>
        <time>2021-07-31T17:14:09Z</time>
      </trkpt>
      <trkpt lat="42.22283" lon="1.51697">
        <ele>1457.9</ele>
        <time>2021-07-31T17:14:10Z</time>
      </trkpt>
      <trkpt lat="42.2226" lon="1.51643">
        <ele>1462.11</ele>
        <time>2021-07-31T17:14:15Z</time>
      </trkpt>
      <trkpt lat="42.22258" lon="1.51635">
        <ele>1462.88</ele>
        <time>2021-07-31T17:14:16Z</time>
      </trkpt>
      <trkpt lat="42.22228" lon="1.51626">
        <ele>1466.61</ele>
        <time>2021-07-31T17:14:22Z</time>
      </trkpt>
      <trkpt lat="42.22217" lon="1.51644">
        <ele>1468.46</ele>
        <time>2021-07-31T17:14:25Z</time>
      </trkpt>
      <trkpt lat="42.22206" lon="1.5166">
        <ele>1469.62</ele>
        <time>2021-07-31T17:14:27Z</time>
      </trkpt>
      <trkpt lat="42.22195" lon="1.51708">
        <ele>1472.31</ele>
        <time>2021-07-31T17:14:31Z</time>
      </trkpt>
      <trkpt lat="42.22181" lon="1.51786">
        <ele>1477.2</ele>
        <time>2021-07-31T17:14:37Z</time>
      </trkpt>
      <trkpt lat="42.22177" lon="1.51797">
        <ele>1478.1</ele>
        <time>2021-07-31T17:14:38Z</time>
      </trkpt>
      <trkpt lat="42.22157" lon="1.51843">
        <ele>1481.63</ele>
        <time>2021-07-31T17:14:42Z</time>
      </trkpt>
      <trkpt lat="42.22121" lon="1.51853">
        <ele>1486.08</ele>
        <time>2021-07-31T17:14:47Z</time>
      </trkpt>
      <trkpt lat="42.22112" lon="1.51835">
        <ele>1487.45</ele>
        <time>2021-07-31T17:14:49Z</time>
      </trkpt>
      <trkpt lat="42.22101" lon="1.51815">
        <ele>1488.85</ele>
        <time>2021-07-31T17:14:51Z</time>
      </trkpt>
      <trkpt lat="42.22072" lon="1.51789">
        <ele>1491.8</ele>
        <time>2021-07-31T17:14:55Z</time>
      </trkpt>
      <trkpt lat="42.22036" lon="1.51754">
        <ele>1496.02</ele>
        <time>2021-07-31T17:15:00Z</time>
      </trkpt>
      <trkpt lat="42.22012" lon="1.51711">
        <ele>1499.7</ele>
        <time>2021-07-31T17:15:04Z</time>
      </trkpt>
      <trkpt lat="42.21988" lon="1.51668">
        <ele>1503.17</ele>
        <time>2021-07-31T17:15:08Z</time>
      </trkpt>
      <trkpt lat="42.21981" lon="1.51648">
        <ele>1504.75</ele>
        <time>2021-07-31T17:15:10Z</time>
      </trkpt>
      <trkpt lat="42.21961" lon="1.51607">
        <ele>1508.55</ele>
        <time>2021-07-31T17:15:15Z</time>
      </trkpt>
      <trkpt lat="42.21956" lon="1.516">
        <ele>1509.24</ele>
        <time>2021-07-31T17:15:16Z</time>
      </trkpt>
      <trkpt lat="42.2194" lon="1.51575">
        <ele>1510.92</ele>
        <time>2021-07-31T17:15:19Z</time>
      </trkpt>
      <trkpt lat="42.21916" lon="1.51527">
        <ele>1513.12</ele>
        <time>2021-07-31T17:15:24Z</time>
      </trkpt>
      <trkpt lat="42.21891" lon="1.51499">
        <ele>1515.1</ele>
        <time>2021-07-31T17:15:28Z</time>
      </trkpt>
      <trkpt lat="42.21883" lon="1.51493">
        <ele>1515.31</ele>
        <time>2021-07-31T17:15:29Z</time>
      </trkpt>
      <trkpt lat="42.21867" lon="1.51481">
        <ele>1515.76</ele>
        <time>2021-07-31T17:15:31Z</time>
      </trkpt>
      <trkpt lat="42.21845" lon="1.5146">
        <ele>1516.03</ele>
        <time>2021-07-31T17:15:34Z</time>
      </trkpt>
      <trkpt lat="42.2182" lon="1.51391">
        <ele>1514.35</ele>
        <time>2021-07-31T17:15:41Z</time>
      </trkpt>
      <trkpt lat="42.21823" lon="1.51351">
        <ele>1510.9</ele>
        <time>2021-07-31T17:15:46Z</time>
      </trkpt>
      <trkpt lat="42.21798" lon="1.51279">
        <ele>1507.3</ele>
        <time>2021-07-31T17:15:55Z</time>
      </trkpt>
      <trkpt lat="42.21771" lon="1.51238">
        <ele>1504.95</ele>
        <time>2021-07-31T17:15:59Z</time>
      </trkpt>
      <trkpt lat="42.21748" lon="1.51186">
        <ele>1500.63</ele>
        <time>2021-07-31T17:16:04Z</time>
      </trkpt>
      <trkpt lat="42.21744" lon="1.51177">
        <ele>1499.61</ele>
        <time>2021-07-31T17:16:05Z</time>
      </trkpt>
      <trkpt lat="42.21721" lon="1.51165">
        <ele>1495.06</ele>
        <time>2021-07-31T17:16:09Z</time>
      </trkpt>
      <trkpt lat="42.21696" lon="1.51165">
        <ele>1491.9</ele>
        <time>2021-07-31T17:16:12Z</time>
      </trkpt>
      <trkpt lat="42.21674" lon="1.51176">
        <ele>1489.54</ele>
        <time>2021-07-31T17:16:15Z</time>
      </trkpt>
      <trkpt lat="42.21654" lon="1.51189">
        <ele>1487.6</ele>
        <time>2021-07-31T17:16:18Z</time>
      </trkpt>
      <trkpt lat="42.21641" lon="1.51151">
        <ele>1484.04</ele>
        <time>2021-07-31T17:16:25Z</time>
      </trkpt>
      <trkpt lat="42.21636" lon="1.51083">
        <ele>1484.22</ele>
        <time>2021-07-31T17:16:32Z</time>
      </trkpt>
      <trkpt lat="42.21623" lon="1.51016">
        <ele>1484.71</ele>
        <time>2021-07-31T17:16:37Z</time>
      </trkpt>
      <trkpt lat="42.21598" lon="1.50973">
        <ele>1483.85</ele>
        <time>2021-07-31T17:16:41Z</time>
      </trkpt>
      <trkpt lat="42.21535" lon="1.50896">
        <ele>1482.27</ele>
        <time>2021-07-31T17:16:50Z</time>
      </trkpt>
      <trkpt lat="42.21501" lon="1.50876">
        <ele>1482.76</ele>
        <time>2021-07-31T17:16:54Z</time>
      </trkpt>
      <trkpt lat="42.21452" lon="1.50871">
        <ele>1486.42</ele>
        <time>2021-07-31T17:17:03Z</time>
      </trkpt>
      <trkpt lat="42.21422" lon="1.50839">
        <ele>1490.11</ele>
        <time>2021-07-31T17:17:08Z</time>
      </trkpt>
      <trkpt lat="42.21393" lon="1.5083">
        <ele>1493.89</ele>
        <time>2021-07-31T17:17:12Z</time>
      </trkpt>
      <trkpt lat="42.2136" lon="1.50833">
        <ele>1498.4</ele>
        <time>2021-07-31T17:17:16Z</time>
      </trkpt>
      <trkpt lat="42.21334" lon="1.50832">
        <ele>1502.53</ele>
        <time>2021-07-31T17:17:19Z</time>
      </trkpt>
      <trkpt lat="42.21324" lon="1.5083">
        <ele>1504.06</ele>
        <time>2021-07-31T17:17:20Z</time>
      </trkpt>
      <trkpt lat="42.21291" lon="1.50814">
        <ele>1509.87</ele>
        <time>2021-07-31T17:17:24Z</time>
      </trkpt>
      <trkpt lat="42.21266" lon="1.50796">
        <ele>1514.01</ele>
        <time>2021-07-31T17:17:27Z</time>
      </trkpt>
      <trkpt lat="42.21249" lon="1.50784">
        <ele>1517.11</ele>
        <time>2021-07-31T17:17:29Z</time>
      </trkpt>
      <trkpt lat="42.21227" lon="1.50767">
        <ele>1521.53</ele>
        <time>2021-07-31T17:17:32Z</time>
      </trkpt>
      <trkpt lat="42.21207" lon="1.50754">
        <ele>1525.86</ele>
        <time>2021-07-31T17:17:35Z</time>
      </trkpt>
      <trkpt lat="42.21183" lon="1.50717">
        <ele>1531.45</ele>
        <time>2021-07-31T17:17:39Z</time>
      </trkpt>
      <trkpt lat="42.21175" lon="1.50687">
        <ele>1535.44</ele>
        <time>2021-07-31T17:17:42Z</time>
      </trkpt>
      <trkpt lat="42.21166" lon="1.50681">
        <ele>1538.72</ele>
        <time>2021-07-31T17:17:45Z</time>
      </trkpt>
      <trkpt lat="42.21123" lon="1.50653">
        <ele>1543.84</ele>
        <time>2021-07-31T17:17:51Z</time>
      </trkpt>
      <trkpt lat="42.21085" lon="1.5063">
        <ele>1547.5</ele>
        <time>2021-07-31T17:17:55Z</time>
      </trkpt>
      <trkpt lat="42.21049" lon="1.50608">
        <ele>1551.24</ele>
        <time>2021-07-31T17:17:59Z</time>
      </trkpt>
      <trkpt lat="42.21012" lon="1.50588">
        <ele>1554.88</ele>
        <time>2021-07-31T17:18:04Z</time>
      </trkpt>
      <trkpt lat="42.20972" lon="1.5057">
        <ele>1558.42</ele>
        <time>2021-07-31T17:18:08Z</time>
      </trkpt>
      <trkpt lat="42.20932" lon="1.50552">
        <ele>1562.33</ele>
        <time>2021-07-31T17:18:12Z</time>
      </trkpt>
      <trkpt lat="42.20894" lon="1.5053">
        <ele>1566.21</ele>
        <time>2021-07-31T17:18:16Z</time>
      </trkpt>
      <trkpt lat="42.20858" lon="1.50513">
        <ele>1570.07</ele>
        <time>2021-07-31T17:18:20Z</time>
      </trkpt>
      <trkpt lat="42.20835" lon="1.50514">
        <ele>1572.7</ele>
        <time>2021-07-31T17:18:23Z</time>
      </trkpt>
      <trkpt lat="42.20798" lon="1.50511">
        <ele>1575.99</ele>
        <time>2021-07-31T17:18:27Z</time>
      </trkpt>
      <trkpt lat="42.20766" lon="1.50482">
        <ele>1579.82</ele>
        <time>2021-07-31T17:18:31Z</time>
      </trkpt>
      <trkpt lat="42.20725" lon="1.50462">
        <ele>1584.4</ele>
        <time>2021-07-31T17:18:36Z</time>
      </trkpt>
      <trkpt lat="42.20688" lon="1.50433">
        <ele>1588.06</ele>
        <time>2021-07-31T17:18:40Z</time>
      </trkpt>
      <trkpt lat="42.20661" lon="1.50408">
        <ele>1591.44</ele>
        <time>2021-07-31T17:18:43Z</time>
      </trkpt>
      <trkpt lat="42.20633" lon="1.50378">
        <ele>1595.87</ele>
        <time>2021-07-31T17:18:46Z</time>
      </trkpt>
      <trkpt lat="42.20606" lon="1.50354">
        <ele>1599.29</ele>
        <time>2021-07-31T17:18:49Z</time>
      </trkpt>
      <trkpt lat="42.20581" lon="1.50341">
        <ele>1602.71</ele>
        <time>2021-07-31T17:18:52Z</time>
      </trkpt>
      <trkpt lat="42.20554" lon="1.50329">
        <ele>1605.81</ele>
        <time>2021-07-31T17:18:55Z</time>
      </trkpt>
      <trkpt lat="42.20535" lon="1.50322">
        <ele>1607.78</ele>
        <time>2021-07-31T17:18:57Z</time>
      </trkpt>
      <trkpt lat="42.20493" lon="1.50292">
        <ele>1612.57</ele>
        <time>2021-07-31T17:19:02Z</time>
      </trkpt>
      <trkpt lat="42.20462" lon="1.50277">
        <ele>1616.38</ele>
        <time>2021-07-31T17:19:06Z</time>
      </trkpt>
      <trkpt lat="42.20429" lon="1.50258">
        <ele>1620.14</ele>
        <time>2021-07-31T17:19:10Z</time>
      </trkpt>
      <trkpt lat="42.20411" lon="1.50251">
        <ele>1621.94</ele>
        <time>2021-07-31T17:19:12Z</time>
      </trkpt>
      <trkpt lat="42.20387" lon="1.50229">
        <ele>1624.89</ele>
        <time>2021-07-31T17:19:15Z</time>
      </trkpt>
      <trkpt lat="42.20355" lon="1.50219">
        <ele>1628.54</ele>
        <time>2021-07-31T17:19:19Z</time>
      </trkpt>
      <trkpt lat="42.20313" lon="1.50185">
        <ele>1633.53</ele>
        <time>2021-07-31T17:19:25Z</time>
      </trkpt>
      <trkpt lat="42.20286" lon="1.50165">
        <ele>1636.87</ele>
        <time>2021-07-31T17:19:29Z</time>
      </trkpt>
      <trkpt lat="42.20274" lon="1.50166">
        <ele>1638.29</ele>
        <time>2021-07-31T17:19:31Z</time>
      </trkpt>
      <trkpt lat="42.20262" lon="1.50169">
        <ele>1639.62</ele>
        <time>2021-07-31T17:19:33Z</time>
      </trkpt>
      <trkpt lat="42.20245" lon="1.50152">
        <ele>1641.53</ele>
        <time>2021-07-31T17:19:37Z</time>
      </trkpt>
      <trkpt lat="42.20229" lon="1.50114">
        <ele>1642.8</ele>
        <time>2021-07-31T17:19:44Z</time>
      </trkpt>
      <trkpt lat="42.20217" lon="1.501">
        <ele>1642.89</ele>
        <time>2021-07-31T17:19:46Z</time>
      </trkpt>
      <trkpt lat="42.20182" lon="1.50068">
        <ele>1643.4</ele>
        <time>2021-07-31T17:19:50Z</time>
      </trkpt>
      <trkpt lat="42.20101" lon="1.49999">
        <ele>1644.29</ele>
        <time>2021-07-31T17:20:00Z</time>
      </trkpt>
      <trkpt lat="42.20079" lon="1.49979">
        <ele>1644.96</ele>
        <time>2021-07-31T17:20:03Z</time>
      </trkpt>
      <trkpt lat="42.20041" lon="1.49965">
        <ele>1646.26</ele>
        <time>2021-07-31T17:20:09Z</time>
      </trkpt>
      <trkpt lat="42.20035" lon="1.49941">
        <ele>1647.05</ele>
        <time>2021-07-31T17:20:14Z</time>
      </trkpt>
      <trkpt lat="42.20026" lon="1.49902">
        <ele>1647.74</ele>
        <time>2021-07-31T17:20:19Z</time>
      </trkpt>
      <trkpt lat="42.20008" lon="1.49867">
        <ele>1648.51</ele>
        <time>2021-07-31T17:20:23Z</time>
      </trkpt>
      <trkpt lat="42.20019" lon="1.49815">
        <ele>1646.46</ele>
        <time>2021-07-31T17:20:31Z</time>
      </trkpt>
      <trkpt lat="42.20032" lon="1.49815">
        <ele>1645.63</ele>
        <time>2021-07-31T17:20:33Z</time>
      </trkpt>
      <trkpt lat="42.20061" lon="1.49817">
        <ele>1643.77</ele>
        <time>2021-07-31T17:20:37Z</time>
      </trkpt>
      <trkpt lat="42.2009" lon="1.49831">
        <ele>1641.16</ele>
        <time>2021-07-31T17:20:41Z</time>
      </trkpt>
      <trkpt lat="42.20111" lon="1.49806">
        <ele>1637.25</ele>
        <time>2021-07-31T17:20:47Z</time>
      </trkpt>
      <trkpt lat="42.20113" lon="1.49786">
        <ele>1636.52</ele>
        <time>2021-07-31T17:20:49Z</time>
      </trkpt>
      <trkpt lat="42.20155" lon="1.49736">
        <ele>1636.77</ele>
        <time>2021-07-31T17:20:56Z</time>
      </trkpt>
      <trkpt lat="42.20166" lon="1.49699">
        <ele>1635.78</ele>
        <time>2021-07-31T17:21:02Z</time>
      </trkpt>
      <trkpt lat="42.20163" lon="1.4969">
        <ele>1635.53</ele>
        <time>2021-07-31T17:21:03Z</time>
      </trkpt>
      <trkpt lat="42.20123" lon="1.49631">
        <ele>1634.43</ele>
        <time>2021-07-31T17:21:09Z</time>
      </trkpt>
      <trkpt lat="42.20059" lon="1.49535">
        <ele>1631.24</ele>
        <time>2021-07-31T17:21:20Z</time>
      </trkpt>
      <trkpt lat="42.20008" lon="1.49432">
        <ele>1628.56</ele>
        <time>2021-07-31T17:21:30Z</time>
      </trkpt>
      <trkpt lat="42.19975" lon="1.4935">
        <ele>1627.08</ele>
        <time>2021-07-31T17:21:37Z</time>
      </trkpt>
      <trkpt lat="42.19945" lon="1.49317">
        <ele>1626.27</ele>
        <time>2021-07-31T17:21:42Z</time>
      </trkpt>
      <trkpt lat="42.19918" lon="1.493">
        <ele>1625.73</ele>
        <time>2021-07-31T17:21:46Z</time>
      </trkpt>
      <trkpt lat="42.19896" lon="1.49297">
        <ele>1625.37</ele>
        <time>2021-07-31T17:21:49Z</time>
      </trkpt>
      <trkpt lat="42.19869" lon="1.49276">
        <ele>1625.05</ele>
        <time>2021-07-31T17:21:54Z</time>
      </trkpt>
      <trkpt lat="42.19851" lon="1.49264">
        <ele>1624.83</ele>
        <time>2021-07-31T17:21:57Z</time>
      </trkpt>
      <trkpt lat="42.19848" lon="1.4922">
        <ele>1624.55</ele>
        <time>2021-07-31T17:22:02Z</time>
      </trkpt>
      <trkpt lat="42.19851" lon="1.49193">
        <ele>1623.44</ele>
        <time>2021-07-31T17:22:05Z</time>
      </trkpt>
      <trkpt lat="42.19832" lon="1.49127">
        <ele>1619.8</ele>
        <time>2021-07-31T17:22:12Z</time>
      </trkpt>
      <trkpt lat="42.19812" lon="1.49078">
        <ele>1616.66</ele>
        <time>2021-07-31T17:22:17Z</time>
      </trkpt>
      <trkpt lat="42.1978" lon="1.49027">
        <ele>1613.04</ele>
        <time>2021-07-31T17:22:23Z</time>
      </trkpt>
      <trkpt lat="42.19742" lon="1.48957">
        <ele>1609.92</ele>
        <time>2021-07-31T17:22:30Z</time>
      </trkpt>
      <trkpt lat="42.19738" lon="1.48945">
        <ele>1609.6</ele>
        <time>2021-07-31T17:22:31Z</time>
      </trkpt>
      <trkpt lat="42.1974" lon="1.48876">
        <ele>1607.31</ele>
        <time>2021-07-31T17:22:38Z</time>
      </trkpt>
      <trkpt lat="42.19745" lon="1.48855">
        <ele>1606.81</ele>
        <time>2021-07-31T17:22:40Z</time>
      </trkpt>
      <trkpt lat="42.19754" lon="1.48801">
        <ele>1605.56</ele>
        <time>2021-07-31T17:22:45Z</time>
      </trkpt>
      <trkpt lat="42.19749" lon="1.48764">
        <ele>1604.4</ele>
        <time>2021-07-31T17:22:49Z</time>
      </trkpt>
      <trkpt lat="42.19757" lon="1.48714">
        <ele>1602.31</ele>
        <time>2021-07-31T17:22:55Z</time>
      </trkpt>
      <trkpt lat="42.19789" lon="1.48689">
        <ele>1600.27</ele>
        <time>2021-07-31T17:23:00Z</time>
      </trkpt>
      <trkpt lat="42.19809" lon="1.48688">
        <ele>1598.4</ele>
        <time>2021-07-31T17:23:03Z</time>
      </trkpt>
      <trkpt lat="42.19828" lon="1.48676">
        <ele>1596.23</ele>
        <time>2021-07-31T17:23:07Z</time>
      </trkpt>
      <trkpt lat="42.19861" lon="1.48675">
        <ele>1593.14</ele>
        <time>2021-07-31T17:23:14Z</time>
      </trkpt>
      <trkpt lat="42.19879" lon="1.48678">
        <ele>1591.48</ele>
        <time>2021-07-31T17:23:18Z</time>
      </trkpt>
      <trkpt lat="42.19895" lon="1.48673">
        <ele>1590.3</ele>
        <time>2021-07-31T17:23:21Z</time>
      </trkpt>
      <trkpt lat="42.19911" lon="1.48673">
        <ele>1588.52</ele>
        <time>2021-07-31T17:23:25Z</time>
      </trkpt>
      <trkpt lat="42.19924" lon="1.48677">
        <ele>1586.95</ele>
        <time>2021-07-31T17:23:28Z</time>
      </trkpt>
      <trkpt lat="42.19963" lon="1.48681">
        <ele>1583.71</ele>
        <time>2021-07-31T17:23:35Z</time>
      </trkpt>
      <trkpt lat="42.19988" lon="1.48665">
        <ele>1580.64</ele>
        <time>2021-07-31T17:23:40Z</time>
      </trkpt>
      <trkpt lat="42.20034" lon="1.48639">
        <ele>1576.7</ele>
        <time>2021-07-31T17:23:47Z</time>
      </trkpt>
      <trkpt lat="42.20067" lon="1.48628">
        <ele>1573.11</ele>
        <time>2021-07-31T17:23:51Z</time>
      </trkpt>
      <trkpt lat="42.20097" lon="1.48615">
        <ele>1569.43</ele>
        <time>2021-07-31T17:23:55Z</time>
      </trkpt>
      <trkpt lat="42.20128" lon="1.48601">
        <ele>1565.97</ele>
        <time>2021-07-31T17:23:59Z</time>
      </trkpt>
      <trkpt lat="42.20165" lon="1.48589">
        <ele>1562.67</ele>
        <time>2021-07-31T17:24:03Z</time>
      </trkpt>
      <trkpt lat="42.20202" lon="1.48587">
        <ele>1559.32</ele>
        <time>2021-07-31T17:24:07Z</time>
      </trkpt>
      <trkpt lat="42.20226" lon="1.48586">
        <ele>1555.53</ele>
        <time>2021-07-31T17:24:11Z</time>
      </trkpt>
      <trkpt lat="42.20236" lon="1.48588">
        <ele>1553.46</ele>
        <time>2021-07-31T17:24:13Z</time>
      </trkpt>
      <trkpt lat="42.20254" lon="1.48595">
        <ele>1549.09</ele>
        <time>2021-07-31T17:24:19Z</time>
      </trkpt>
      <trkpt lat="42.20268" lon="1.48592">
        <ele>1546.75</ele>
        <time>2021-07-31T17:24:23Z</time>
      </trkpt>
      <trkpt lat="42.20336" lon="1.48602">
        <ele>1542.46</ele>
        <time>2021-07-31T17:24:32Z</time>
      </trkpt>
      <trkpt lat="42.20376" lon="1.48612">
        <ele>1539.28</ele>
        <time>2021-07-31T17:24:37Z</time>
      </trkpt>
      <trkpt lat="42.20382" lon="1.48613">
        <ele>1538.54</ele>
        <time>2021-07-31T17:24:38Z</time>
      </trkpt>
      <trkpt lat="42.20416" lon="1.48591">
        <ele>1534.39</ele>
        <time>2021-07-31T17:24:44Z</time>
      </trkpt>
      <trkpt lat="42.20422" lon="1.48543">
        <ele>1531</ele>
        <time>2021-07-31T17:24:49Z</time>
      </trkpt>
      <trkpt lat="42.20418" lon="1.48518">
        <ele>1529.63</ele>
        <time>2021-07-31T17:24:51Z</time>
      </trkpt>
      <trkpt lat="42.2041" lon="1.48467">
        <ele>1525.45</ele>
        <time>2021-07-31T17:24:57Z</time>
      </trkpt>
      <trkpt lat="42.20404" lon="1.48429">
        <ele>1521.94</ele>
        <time>2021-07-31T17:25:02Z</time>
      </trkpt>
      <trkpt lat="42.20396" lon="1.48389">
        <ele>1518.66</ele>
        <time>2021-07-31T17:25:07Z</time>
      </trkpt>
      <trkpt lat="42.20385" lon="1.48329">
        <ele>1515.45</ele>
        <time>2021-07-31T17:25:13Z</time>
      </trkpt>
      <trkpt lat="42.20379" lon="1.48261">
        <ele>1511.81</ele>
        <time>2021-07-31T17:25:19Z</time>
      </trkpt>
      <trkpt lat="42.20375" lon="1.48213">
        <ele>1508.81</ele>
        <time>2021-07-31T17:25:23Z</time>
      </trkpt>
      <trkpt lat="42.20373" lon="1.48167">
        <ele>1505.56</ele>
        <time>2021-07-31T17:25:27Z</time>
      </trkpt>
      <trkpt lat="42.20372" lon="1.48134">
        <ele>1502.76</ele>
        <time>2021-07-31T17:25:31Z</time>
      </trkpt>
      <trkpt lat="42.20373" lon="1.48122">
        <ele>1501.33</ele>
        <time>2021-07-31T17:25:33Z</time>
      </trkpt>
      <trkpt lat="42.2039" lon="1.48134">
        <ele>1497.8</ele>
        <time>2021-07-31T17:25:40Z</time>
      </trkpt>
      <trkpt lat="42.20413" lon="1.4822">
        <ele>1493.97</ele>
        <time>2021-07-31T17:25:48Z</time>
      </trkpt>
      <trkpt lat="42.20428" lon="1.48272">
        <ele>1490.4</ele>
        <time>2021-07-31T17:25:53Z</time>
      </trkpt>
      <trkpt lat="42.20457" lon="1.48322">
        <ele>1487.2</ele>
        <time>2021-07-31T17:25:58Z</time>
      </trkpt>
      <trkpt lat="42.20486" lon="1.48369">
        <ele>1484.14</ele>
        <time>2021-07-31T17:26:03Z</time>
      </trkpt>
      <trkpt lat="42.20527" lon="1.48414">
        <ele>1480.36</ele>
        <time>2021-07-31T17:26:08Z</time>
      </trkpt>
      <trkpt lat="42.20558" lon="1.4844">
        <ele>1477.29</ele>
        <time>2021-07-31T17:26:12Z</time>
      </trkpt>
      <trkpt lat="42.20587" lon="1.48472">
        <ele>1473.68</ele>
        <time>2021-07-31T17:26:16Z</time>
      </trkpt>
      <trkpt lat="42.20605" lon="1.48505">
        <ele>1470.31</ele>
        <time>2021-07-31T17:26:20Z</time>
      </trkpt>
      <trkpt lat="42.20616" lon="1.4854">
        <ele>1466.72</ele>
        <time>2021-07-31T17:26:24Z</time>
      </trkpt>
      <trkpt lat="42.20623" lon="1.48598">
        <ele>1462.08</ele>
        <time>2021-07-31T17:26:30Z</time>
      </trkpt>
      <trkpt lat="42.20638" lon="1.4866">
        <ele>1458.42</ele>
        <time>2021-07-31T17:26:35Z</time>
      </trkpt>
      <trkpt lat="42.20651" lon="1.48696">
        <ele>1455.47</ele>
        <time>2021-07-31T17:26:38Z</time>
      </trkpt>
      <trkpt lat="42.20684" lon="1.48744">
        <ele>1451.45</ele>
        <time>2021-07-31T17:26:43Z</time>
      </trkpt>
      <trkpt lat="42.20722" lon="1.4877">
        <ele>1447.22</ele>
        <time>2021-07-31T17:26:48Z</time>
      </trkpt>
      <trkpt lat="42.20739" lon="1.4877">
        <ele>1445.54</ele>
        <time>2021-07-31T17:26:50Z</time>
      </trkpt>
      <trkpt lat="42.20755" lon="1.4877">
        <ele>1444.1</ele>
        <time>2021-07-31T17:26:52Z</time>
      </trkpt>
      <trkpt lat="42.20786" lon="1.4873">
        <ele>1440.07</ele>
        <time>2021-07-31T17:26:58Z</time>
      </trkpt>
      <trkpt lat="42.20771" lon="1.48687">
        <ele>1438.06</ele>
        <time>2021-07-31T17:27:02Z</time>
      </trkpt>
      <trkpt lat="42.20761" lon="1.48669">
        <ele>1436.43</ele>
        <time>2021-07-31T17:27:04Z</time>
      </trkpt>
      <trkpt lat="42.20756" lon="1.48645">
        <ele>1435.06</ele>
        <time>2021-07-31T17:27:07Z</time>
      </trkpt>
      <trkpt lat="42.2076" lon="1.48615">
        <ele>1433.3</ele>
        <time>2021-07-31T17:27:11Z</time>
      </trkpt>
      <trkpt lat="42.20776" lon="1.48547">
        <ele>1429.52</ele>
        <time>2021-07-31T17:27:18Z</time>
      </trkpt>
      <trkpt lat="42.20786" lon="1.48501">
        <ele>1426.91</ele>
        <time>2021-07-31T17:27:23Z</time>
      </trkpt>
      <trkpt lat="42.20777" lon="1.48453">
        <ele>1423.21</ele>
        <time>2021-07-31T17:27:29Z</time>
      </trkpt>
      <trkpt lat="42.20751" lon="1.48425">
        <ele>1419.99</ele>
        <time>2021-07-31T17:27:35Z</time>
      </trkpt>
      <trkpt lat="42.20765" lon="1.48388">
        <ele>1417.51</ele>
        <time>2021-07-31T17:27:40Z</time>
      </trkpt>
      <trkpt lat="42.20772" lon="1.48375">
        <ele>1416.43</ele>
        <time>2021-07-31T17:27:42Z</time>
      </trkpt>
      <trkpt lat="42.2077" lon="1.48333">
        <ele>1413.34</ele>
        <time>2021-07-31T17:27:48Z</time>
      </trkpt>
      <trkpt lat="42.20752" lon="1.48273">
        <ele>1409.67</ele>
        <time>2021-07-31T17:27:55Z</time>
      </trkpt>
      <trkpt lat="42.20726" lon="1.48227">
        <ele>1406.53</ele>
        <time>2021-07-31T17:28:01Z</time>
      </trkpt>
      <trkpt lat="42.20688" lon="1.48171">
        <ele>1403.26</ele>
        <time>2021-07-31T17:28:07Z</time>
      </trkpt>
      <trkpt lat="42.20667" lon="1.48117">
        <ele>1400.04</ele>
        <time>2021-07-31T17:28:12Z</time>
      </trkpt>
      <trkpt lat="42.20643" lon="1.48065">
        <ele>1396.62</ele>
        <time>2021-07-31T17:28:17Z</time>
      </trkpt>
      <trkpt lat="42.20617" lon="1.48011">
        <ele>1393.24</ele>
        <time>2021-07-31T17:28:22Z</time>
      </trkpt>
      <trkpt lat="42.20609" lon="1.48002">
        <ele>1392.58</ele>
        <time>2021-07-31T17:28:23Z</time>
      </trkpt>
      <trkpt lat="42.20567" lon="1.47957">
        <ele>1388.36</ele>
        <time>2021-07-31T17:28:29Z</time>
      </trkpt>
      <trkpt lat="42.20535" lon="1.47917">
        <ele>1385.01</ele>
        <time>2021-07-31T17:28:34Z</time>
      </trkpt>
      <trkpt lat="42.20502" lon="1.47877">
        <ele>1381.92</ele>
        <time>2021-07-31T17:28:39Z</time>
      </trkpt>
      <trkpt lat="42.20478" lon="1.47846">
        <ele>1378.6</ele>
        <time>2021-07-31T17:28:43Z</time>
      </trkpt>
      <trkpt lat="42.20472" lon="1.47839">
        <ele>1378.6</ele>
        <time>2021-07-31T17:28:44Z</time>
      </trkpt>
      <trkpt lat="42.20441" lon="1.47803">
        <ele>1375.43</ele>
        <time>2021-07-31T17:28:48Z</time>
      </trkpt>
      <trkpt lat="42.20397" lon="1.47747">
        <ele>1371.93</ele>
        <time>2021-07-31T17:28:53Z</time>
      </trkpt>
      <trkpt lat="42.20347" lon="1.47686">
        <ele>1368.57</ele>
        <time>2021-07-31T17:28:58Z</time>
      </trkpt>
      <trkpt lat="42.20317" lon="1.47646">
        <ele>1366.1</ele>
        <time>2021-07-31T17:29:02Z</time>
      </trkpt>
      <trkpt lat="42.20322" lon="1.47603">
        <ele>1362.86</ele>
        <time>2021-07-31T17:29:08Z</time>
      </trkpt>
      <trkpt lat="42.20348" lon="1.4763">
        <ele>1360.9</ele>
        <time>2021-07-31T17:29:13Z</time>
      </trkpt>
      <trkpt lat="42.20355" lon="1.4765">
        <ele>1359.91</ele>
        <time>2021-07-31T17:29:15Z</time>
      </trkpt>
      <trkpt lat="42.20376" lon="1.47686">
        <ele>1357.8</ele>
        <time>2021-07-31T17:29:19Z</time>
      </trkpt>
      <trkpt lat="42.20436" lon="1.47736">
        <ele>1353.59</ele>
        <time>2021-07-31T17:29:26Z</time>
      </trkpt>
      <trkpt lat="42.2048" lon="1.47772">
        <ele>1350.53</ele>
        <time>2021-07-31T17:29:31Z</time>
      </trkpt>
      <trkpt lat="42.20533" lon="1.47809">
        <ele>1347.46</ele>
        <time>2021-07-31T17:29:37Z</time>
      </trkpt>
      <trkpt lat="42.20581" lon="1.47842">
        <ele>1344.2</ele>
        <time>2021-07-31T17:29:42Z</time>
      </trkpt>
      <trkpt lat="42.20627" lon="1.47871">
        <ele>1340.72</ele>
        <time>2021-07-31T17:29:47Z</time>
      </trkpt>
      <trkpt lat="42.20635" lon="1.47875">
        <ele>1340.06</ele>
        <time>2021-07-31T17:29:48Z</time>
      </trkpt>
      <trkpt lat="42.20679" lon="1.47903">
        <ele>1336.46</ele>
        <time>2021-07-31T17:29:53Z</time>
      </trkpt>
      <trkpt lat="42.20695" lon="1.4791">
        <ele>1335.24</ele>
        <time>2021-07-31T17:29:55Z</time>
      </trkpt>
      <trkpt lat="42.20742" lon="1.47949">
        <ele>1330.87</ele>
        <time>2021-07-31T17:30:01Z</time>
      </trkpt>
      <trkpt lat="42.20787" lon="1.47986">
        <ele>1327.53</ele>
        <time>2021-07-31T17:30:06Z</time>
      </trkpt>
      <trkpt lat="42.20804" lon="1.48">
        <ele>1326.16</ele>
        <time>2021-07-31T17:30:08Z</time>
      </trkpt>
      <trkpt lat="42.2082" lon="1.48017">
        <ele>1324.83</ele>
        <time>2021-07-31T17:30:10Z</time>
      </trkpt>
      <trkpt lat="42.20878" lon="1.4805">
        <ele>1320.69</ele>
        <time>2021-07-31T17:30:16Z</time>
      </trkpt>
      <trkpt lat="42.20904" lon="1.48066">
        <ele>1318.8</ele>
        <time>2021-07-31T17:30:19Z</time>
      </trkpt>
      <trkpt lat="42.2094" lon="1.48073">
        <ele>1315.99</ele>
        <time>2021-07-31T17:30:23Z</time>
      </trkpt>
      <trkpt lat="42.20977" lon="1.4809">
        <ele>1312.4</ele>
        <time>2021-07-31T17:30:27Z</time>
      </trkpt>
      <trkpt lat="42.21031" lon="1.48133">
        <ele>1308.16</ele>
        <time>2021-07-31T17:30:33Z</time>
      </trkpt>
      <trkpt lat="42.21044" lon="1.48146">
        <ele>1306.89</ele>
        <time>2021-07-31T17:30:35Z</time>
      </trkpt>
      <trkpt lat="42.21043" lon="1.482">
        <ele>1302.81</ele>
        <time>2021-07-31T17:30:41Z</time>
      </trkpt>
      <trkpt lat="42.2104" lon="1.48236">
        <ele>1300.77</ele>
        <time>2021-07-31T17:30:47Z</time>
      </trkpt>
      <trkpt lat="42.21053" lon="1.48242">
        <ele>1300.36</ele>
        <time>2021-07-31T17:30:49Z</time>
      </trkpt>
      <trkpt lat="42.21085" lon="1.48262">
        <ele>1299.43</ele>
        <time>2021-07-31T17:30:53Z</time>
      </trkpt>
      <trkpt lat="42.21157" lon="1.48343">
        <ele>1296.45</ele>
        <time>2021-07-31T17:31:01Z</time>
      </trkpt>
      <trkpt lat="42.21207" lon="1.48395">
        <ele>1293.05</ele>
        <time>2021-07-31T17:31:06Z</time>
      </trkpt>
      <trkpt lat="42.21247" lon="1.48419">
        <ele>1290.05</ele>
        <time>2021-07-31T17:31:10Z</time>
      </trkpt>
      <trkpt lat="42.21304" lon="1.48405">
        <ele>1286.5</ele>
        <time>2021-07-31T17:31:15Z</time>
      </trkpt>
      <trkpt lat="42.21357" lon="1.48375">
        <ele>1282.83</ele>
        <time>2021-07-31T17:31:20Z</time>
      </trkpt>
      <trkpt lat="42.21425" lon="1.4839">
        <ele>1278.9</ele>
        <time>2021-07-31T17:31:26Z</time>
      </trkpt>
      <trkpt lat="42.21451" lon="1.48408">
        <ele>1277.18</ele>
        <time>2021-07-31T17:31:29Z</time>
      </trkpt>
      <trkpt lat="42.21466" lon="1.48414">
        <ele>1276.23</ele>
        <time>2021-07-31T17:31:31Z</time>
      </trkpt>
      <trkpt lat="42.21494" lon="1.48429">
        <ele>1274.53</ele>
        <time>2021-07-31T17:31:35Z</time>
      </trkpt>
      <trkpt lat="42.21546" lon="1.48449">
        <ele>1270.99</ele>
        <time>2021-07-31T17:31:43Z</time>
      </trkpt>
      <trkpt lat="42.21556" lon="1.48455">
        <ele>1267.96</ele>
        <time>2021-07-31T17:31:48Z</time>
      </trkpt>
      <trkpt lat="42.21574" lon="1.48464">
        <ele>1265.82</ele>
        <time>2021-07-31T17:31:55Z</time>
      </trkpt>
      <trkpt lat="42.21639" lon="1.48477">
        <ele>1263.15</ele>
        <time>2021-07-31T17:32:04Z</time>
      </trkpt>
      <trkpt lat="42.21678" lon="1.48456">
        <ele>1259.55</ele>
        <time>2021-07-31T17:32:11Z</time>
      </trkpt>
      <trkpt lat="42.21686" lon="1.48446">
        <ele>1258.49</ele>
        <time>2021-07-31T17:32:13Z</time>
      </trkpt>
      <trkpt lat="42.217" lon="1.48388">
        <ele>1254.62</ele>
        <time>2021-07-31T17:32:20Z</time>
      </trkpt>
      <trkpt lat="42.21716" lon="1.48346">
        <ele>1251.47</ele>
        <time>2021-07-31T17:32:25Z</time>
      </trkpt>
      <trkpt lat="42.21722" lon="1.48267">
        <ele>1248.06</ele>
        <time>2021-07-31T17:32:32Z</time>
      </trkpt>
      <trkpt lat="42.2174" lon="1.48242">
        <ele>1245.19</ele>
        <time>2021-07-31T17:32:38Z</time>
      </trkpt>
      <trkpt lat="42.21752" lon="1.48156">
        <ele>1244.68</ele>
        <time>2021-07-31T17:32:44Z</time>
      </trkpt>
      <trkpt lat="42.21747" lon="1.481">
        <ele>1245.71</ele>
        <time>2021-07-31T17:32:47Z</time>
      </trkpt>
      <trkpt lat="42.21782" lon="1.48007">
        <ele>1249.22</ele>
        <time>2021-07-31T17:32:53Z</time>
      </trkpt>
      <trkpt lat="42.21826" lon="1.47997">
        <ele>1251.97</ele>
        <time>2021-07-31T17:32:56Z</time>
      </trkpt>
      <trkpt lat="42.21838" lon="1.47994">
        <ele>1252.92</ele>
        <time>2021-07-31T17:32:57Z</time>
      </trkpt>
      <trkpt lat="42.21848" lon="1.47992">
        <ele>1253.83</ele>
        <time>2021-07-31T17:32:58Z</time>
      </trkpt>
      <trkpt lat="42.21854" lon="1.47986">
        <ele>1254.65</ele>
        <time>2021-07-31T17:32:59Z</time>
      </trkpt>
      <trkpt lat="42.21852" lon="1.47929">
        <ele>1257.32</ele>
        <time>2021-07-31T17:33:04Z</time>
      </trkpt>
      <trkpt lat="42.21802" lon="1.47911">
        <ele>1258.3</ele>
        <time>2021-07-31T17:33:08Z</time>
      </trkpt>
      <trkpt lat="42.21763" lon="1.47851">
        <ele>1258.29</ele>
        <time>2021-07-31T17:33:12Z</time>
      </trkpt>
      <trkpt lat="42.21711" lon="1.47822">
        <ele>1254.25</ele>
        <time>2021-07-31T17:33:19Z</time>
      </trkpt>
      <trkpt lat="42.21676" lon="1.47871">
        <ele>1251.87</ele>
        <time>2021-07-31T17:33:22Z</time>
      </trkpt>
      <trkpt lat="42.21644" lon="1.47912">
        <ele>1250.33</ele>
        <time>2021-07-31T17:33:25Z</time>
      </trkpt>
      <trkpt lat="42.21621" lon="1.47913">
        <ele>1246.9</ele>
        <time>2021-07-31T17:33:30Z</time>
      </trkpt>
      <trkpt lat="42.21642" lon="1.47895">
        <ele>1243.93</ele>
        <time>2021-07-31T17:33:33Z</time>
      </trkpt>
      <trkpt lat="42.21701" lon="1.47806">
        <ele>1239.85</ele>
        <time>2021-07-31T17:33:39Z</time>
      </trkpt>
      <trkpt lat="42.21745" lon="1.47758">
        <ele>1235.36</ele>
        <time>2021-07-31T17:33:44Z</time>
      </trkpt>
      <trkpt lat="42.21748" lon="1.47723">
        <ele>1232.29</ele>
        <time>2021-07-31T17:33:47Z</time>
      </trkpt>
      <trkpt lat="42.21776" lon="1.47728">
        <ele>1229.04</ele>
        <time>2021-07-31T17:33:50Z</time>
      </trkpt>
      <trkpt lat="42.21811" lon="1.47749">
        <ele>1226.92</ele>
        <time>2021-07-31T17:33:53Z</time>
      </trkpt>
      <trkpt lat="42.21868" lon="1.47734">
        <ele>1223.91</ele>
        <time>2021-07-31T17:33:58Z</time>
      </trkpt>
      <trkpt lat="42.21888" lon="1.47698">
        <ele>1221.83</ele>
        <time>2021-07-31T17:34:01Z</time>
      </trkpt>
      <trkpt lat="42.21921" lon="1.4767">
        <ele>1216.48</ele>
        <time>2021-07-31T17:34:06Z</time>
      </trkpt>
      <trkpt lat="42.21947" lon="1.47678">
        <ele>1214.66</ele>
        <time>2021-07-31T17:34:08Z</time>
      </trkpt>
      <trkpt lat="42.21991" lon="1.47668">
        <ele>1209.64</ele>
        <time>2021-07-31T17:34:15Z</time>
      </trkpt>
      <trkpt lat="42.2195" lon="1.4765">
        <ele>1207.19</ele>
        <time>2021-07-31T17:34:18Z</time>
      </trkpt>
      <trkpt lat="42.21877" lon="1.4764">
        <ele>1204.52</ele>
        <time>2021-07-31T17:34:23Z</time>
      </trkpt>
      <trkpt lat="42.2183" lon="1.47649">
        <ele>1202.96</ele>
        <time>2021-07-31T17:34:26Z</time>
      </trkpt>
      <trkpt lat="42.21764" lon="1.47631">
        <ele>1198.73</ele>
        <time>2021-07-31T17:34:31Z</time>
      </trkpt>
      <trkpt lat="42.21753" lon="1.47586">
        <ele>1195.17</ele>
        <time>2021-07-31T17:34:34Z</time>
      </trkpt>
      <trkpt lat="42.21765" lon="1.47519">
        <ele>1192.24</ele>
        <time>2021-07-31T17:34:38Z</time>
      </trkpt>
      <trkpt lat="42.21785" lon="1.47393">
        <ele>1193.79</ele>
        <time>2021-07-31T17:34:46Z</time>
      </trkpt>
      <trkpt lat="42.21785" lon="1.47355">
        <ele>1195.26</ele>
        <time>2021-07-31T17:34:49Z</time>
      </trkpt>
      <trkpt lat="42.21779" lon="1.47314">
        <ele>1196.93</ele>
        <time>2021-07-31T17:34:52Z</time>
      </trkpt>
      <trkpt lat="42.21777" lon="1.47238">
        <ele>1201.15</ele>
        <time>2021-07-31T17:34:58Z</time>
      </trkpt>
      <trkpt lat="42.21811" lon="1.47231">
        <ele>1202.72</ele>
        <time>2021-07-31T17:35:01Z</time>
      </trkpt>
      <trkpt lat="42.21838" lon="1.47228">
        <ele>1204</ele>
        <time>2021-07-31T17:35:03Z</time>
      </trkpt>
      <trkpt lat="42.21893" lon="1.47237">
        <ele>1207.52</ele>
        <time>2021-07-31T17:35:07Z</time>
      </trkpt>
      <trkpt lat="42.21918" lon="1.47223">
        <ele>1212</ele>
        <time>2021-07-31T17:35:13Z</time>
      </trkpt>
      <trkpt lat="42.21913" lon="1.47219">
        <ele>1212.42</ele>
        <time>2021-07-31T17:35:14Z</time>
      </trkpt>
      <trkpt lat="42.21865" lon="1.47194">
        <ele>1216.88</ele>
        <time>2021-07-31T17:35:21Z</time>
      </trkpt>
      <trkpt lat="42.21849" lon="1.47186">
        <ele>1218.39</ele>
        <time>2021-07-31T17:35:24Z</time>
      </trkpt>
      <trkpt lat="42.2183" lon="1.47181">
        <ele>1220.04</ele>
        <time>2021-07-31T17:35:28Z</time>
      </trkpt>
      <trkpt lat="42.21826" lon="1.47178">
        <ele>1220.5</ele>
        <time>2021-07-31T17:35:29Z</time>
      </trkpt>
      <trkpt lat="42.21822" lon="1.47175">
        <ele>1220.94</ele>
        <time>2021-07-31T17:35:30Z</time>
      </trkpt>
      <trkpt lat="42.21813" lon="1.47161">
        <ele>1222.68</ele>
        <time>2021-07-31T17:35:34Z</time>
      </trkpt>
      <trkpt lat="42.2181" lon="1.47133">
        <ele>1224.04</ele>
        <time>2021-07-31T17:35:43Z</time>
      </trkpt>
      <trkpt lat="42.21792" lon="1.47111">
        <ele>1223.86</ele>
        <time>2021-07-31T17:35:48Z</time>
      </trkpt>
      <trkpt lat="42.21783" lon="1.47105">
        <ele>1223.33</ele>
        <time>2021-07-31T17:35:50Z</time>
      </trkpt>
      <trkpt lat="42.21762" lon="1.47106">
        <ele>1221.91</ele>
        <time>2021-07-31T17:35:55Z</time>
      </trkpt>
      <trkpt lat="42.21727" lon="1.47108">
        <ele>1220.95</ele>
        <time>2021-07-31T17:36:05Z</time>
      </trkpt>
      <trkpt lat="42.21717" lon="1.47102">
        <ele>1221.11</ele>
        <time>2021-07-31T17:36:07Z</time>
      </trkpt>
      <trkpt lat="42.21702" lon="1.47087">
        <ele>1221.54</ele>
        <time>2021-07-31T17:36:11Z</time>
      </trkpt>
      <trkpt lat="42.21691" lon="1.47065">
        <ele>1221.85</ele>
        <time>2021-07-31T17:36:15Z</time>
      </trkpt>
      <trkpt lat="42.21684" lon="1.47018">
        <ele>1223.16</ele>
        <time>2021-07-31T17:36:24Z</time>
      </trkpt>
      <trkpt lat="42.2166" lon="1.46943">
        <ele>1225.69</ele>
        <time>2021-07-31T17:36:32Z</time>
      </trkpt>
      <trkpt lat="42.21624" lon="1.46878">
        <ele>1226.9</ele>
        <time>2021-07-31T17:36:42Z</time>
      </trkpt>
      <trkpt lat="42.21598" lon="1.46865">
        <ele>1227.1</ele>
        <time>2021-07-31T17:36:47Z</time>
      </trkpt>
      <trkpt lat="42.21588" lon="1.46863">
        <ele>1227.2</ele>
        <time>2021-07-31T17:36:49Z</time>
      </trkpt>
      <trkpt lat="42.21552" lon="1.46816">
        <ele>1228.82</ele>
        <time>2021-07-31T17:36:59Z</time>
      </trkpt>
      <trkpt lat="42.21546" lon="1.46806">
        <ele>1229.45</ele>
        <time>2021-07-31T17:37:01Z</time>
      </trkpt>
      <trkpt lat="42.21524" lon="1.46786">
        <ele>1230.95</ele>
        <time>2021-07-31T17:37:06Z</time>
      </trkpt>
      <trkpt lat="42.21467" lon="1.46748">
        <ele>1234.6</ele>
        <time>2021-07-31T17:37:16Z</time>
      </trkpt>
      <trkpt lat="42.21456" lon="1.46737">
        <ele>1235.49</ele>
        <time>2021-07-31T17:37:18Z</time>
      </trkpt>
      <trkpt lat="42.21462" lon="1.46702">
        <ele>1236.99</ele>
        <time>2021-07-31T17:37:24Z</time>
      </trkpt>
      <trkpt lat="42.21474" lon="1.46705">
        <ele>1237.21</ele>
        <time>2021-07-31T17:37:26Z</time>
      </trkpt>
      <trkpt lat="42.21516" lon="1.46703">
        <ele>1237.98</ele>
        <time>2021-07-31T17:37:33Z</time>
      </trkpt>
      <trkpt lat="42.21529" lon="1.46699">
        <ele>1238.58</ele>
        <time>2021-07-31T17:37:35Z</time>
      </trkpt>
      <trkpt lat="42.21566" lon="1.46701">
        <ele>1240.2</ele>
        <time>2021-07-31T17:37:40Z</time>
      </trkpt>
      <trkpt lat="42.21596" lon="1.46684">
        <ele>1242.18</ele>
        <time>2021-07-31T17:37:45Z</time>
      </trkpt>
      <trkpt lat="42.21605" lon="1.46674">
        <ele>1243.25</ele>
        <time>2021-07-31T17:37:47Z</time>
      </trkpt>
      <trkpt lat="42.21632" lon="1.46661">
        <ele>1246.88</ele>
        <time>2021-07-31T17:37:54Z</time>
      </trkpt>
      <trkpt lat="42.21659" lon="1.46649">
        <ele>1249.93</ele>
        <time>2021-07-31T17:38:01Z</time>
      </trkpt>
      <trkpt lat="42.21683" lon="1.46634">
        <ele>1251.71</ele>
        <time>2021-07-31T17:38:06Z</time>
      </trkpt>
      <trkpt lat="42.21724" lon="1.46636">
        <ele>1255.31</ele>
        <time>2021-07-31T17:38:14Z</time>
      </trkpt>
      <trkpt lat="42.21764" lon="1.46645">
        <ele>1258.99</ele>
        <time>2021-07-31T17:38:22Z</time>
      </trkpt>
      <trkpt lat="42.218" lon="1.4665">
        <ele>1262.15</ele>
        <time>2021-07-31T17:38:28Z</time>
      </trkpt>
      <trkpt lat="42.21806" lon="1.4665">
        <ele>1262.69</ele>
        <time>2021-07-31T17:38:29Z</time>
      </trkpt>
      <trkpt lat="42.21831" lon="1.46658">
        <ele>1264.69</ele>
        <time>2021-07-31T17:38:33Z</time>
      </trkpt>
      <trkpt lat="42.21859" lon="1.46648">
        <ele>1267.98</ele>
        <time>2021-07-31T17:38:39Z</time>
      </trkpt>
      <trkpt lat="42.21887" lon="1.4664">
        <ele>1272.54</ele>
        <time>2021-07-31T17:38:46Z</time>
      </trkpt>
      <trkpt lat="42.21911" lon="1.46631">
        <ele>1275.71</ele>
        <time>2021-07-31T17:38:52Z</time>
      </trkpt>
      <trkpt lat="42.21944" lon="1.46612">
        <ele>1279.22</ele>
        <time>2021-07-31T17:39:00Z</time>
      </trkpt>
      <trkpt lat="42.21969" lon="1.46597">
        <ele>1281.9</ele>
        <time>2021-07-31T17:39:05Z</time>
      </trkpt>
      <trkpt lat="42.22005" lon="1.46589">
        <ele>1284.78</ele>
        <time>2021-07-31T17:39:10Z</time>
      </trkpt>
      <trkpt lat="42.22046" lon="1.4659">
        <ele>1288.77</ele>
        <time>2021-07-31T17:39:18Z</time>
      </trkpt>
      <trkpt lat="42.2207" lon="1.46591">
        <ele>1290.63</ele>
        <time>2021-07-31T17:39:22Z</time>
      </trkpt>
      <trkpt lat="42.2209" lon="1.46585">
        <ele>1292.45</ele>
        <time>2021-07-31T17:39:26Z</time>
      </trkpt>
      <trkpt lat="42.22125" lon="1.46592">
        <ele>1294.67</ele>
        <time>2021-07-31T17:39:31Z</time>
      </trkpt>
      <trkpt lat="42.22175" lon="1.46613">
        <ele>1298.03</ele>
        <time>2021-07-31T17:39:39Z</time>
      </trkpt>
      <trkpt lat="42.22208" lon="1.4662">
        <ele>1300.46</ele>
        <time>2021-07-31T17:39:44Z</time>
      </trkpt>
      <trkpt lat="42.22218" lon="1.46594">
        <ele>1303.17</ele>
        <time>2021-07-31T17:39:50Z</time>
      </trkpt>
      <trkpt lat="42.22212" lon="1.46578">
        <ele>1304.59</ele>
        <time>2021-07-31T17:39:53Z</time>
      </trkpt>
      <trkpt lat="42.22186" lon="1.46536">
        <ele>1307.38</ele>
        <time>2021-07-31T17:39:59Z</time>
      </trkpt>
      <trkpt lat="42.22142" lon="1.46502">
        <ele>1311.4</ele>
        <time>2021-07-31T17:40:05Z</time>
      </trkpt>
      <trkpt lat="42.22122" lon="1.4649">
        <ele>1313.59</ele>
        <time>2021-07-31T17:40:09Z</time>
      </trkpt>
      <trkpt lat="42.22104" lon="1.46425">
        <ele>1315.85</ele>
        <time>2021-07-31T17:40:16Z</time>
      </trkpt>
      <trkpt lat="42.22111" lon="1.46405">
        <ele>1316.88</ele>
        <time>2021-07-31T17:40:18Z</time>
      </trkpt>
      <trkpt lat="42.2212" lon="1.46322">
        <ele>1321.02</ele>
        <time>2021-07-31T17:40:26Z</time>
      </trkpt>
      <trkpt lat="42.22103" lon="1.46265">
        <ele>1324.14</ele>
        <time>2021-07-31T17:40:32Z</time>
      </trkpt>
      <trkpt lat="42.22089" lon="1.46234">
        <ele>1325.77</ele>
        <time>2021-07-31T17:40:35Z</time>
      </trkpt>
      <trkpt lat="42.22069" lon="1.46206">
        <ele>1327.39</ele>
        <time>2021-07-31T17:40:38Z</time>
      </trkpt>
      <trkpt lat="42.22059" lon="1.46186">
        <ele>1328.52</ele>
        <time>2021-07-31T17:40:40Z</time>
      </trkpt>
      <trkpt lat="42.22047" lon="1.46121">
        <ele>1331.9</ele>
        <time>2021-07-31T17:40:46Z</time>
      </trkpt>
      <trkpt lat="42.22024" lon="1.46091">
        <ele>1335.29</ele>
        <time>2021-07-31T17:40:54Z</time>
      </trkpt>
      <trkpt lat="42.22031" lon="1.46111">
        <ele>1336.29</ele>
        <time>2021-07-31T17:40:57Z</time>
      </trkpt>
      <trkpt lat="42.22044" lon="1.46135">
        <ele>1337.14</ele>
        <time>2021-07-31T17:41:00Z</time>
      </trkpt>
      <trkpt lat="42.22045" lon="1.46174">
        <ele>1339.08</ele>
        <time>2021-07-31T17:41:04Z</time>
      </trkpt>
      <trkpt lat="42.22041" lon="1.46203">
        <ele>1340.66</ele>
        <time>2021-07-31T17:41:07Z</time>
      </trkpt>
      <trkpt lat="42.22035" lon="1.46243">
        <ele>1342.76</ele>
        <time>2021-07-31T17:41:11Z</time>
      </trkpt>
      <trkpt lat="42.22018" lon="1.46291">
        <ele>1346.07</ele>
        <time>2021-07-31T17:41:16Z</time>
      </trkpt>
      <trkpt lat="42.22004" lon="1.46312">
        <ele>1348.04</ele>
        <time>2021-07-31T17:41:19Z</time>
      </trkpt>
      <trkpt lat="42.21991" lon="1.46328">
        <ele>1350.16</ele>
        <time>2021-07-31T17:41:22Z</time>
      </trkpt>
      <trkpt lat="42.21967" lon="1.46345">
        <ele>1352.41</ele>
        <time>2021-07-31T17:41:26Z</time>
      </trkpt>
      <trkpt lat="42.21947" lon="1.46377">
        <ele>1355.05</ele>
        <time>2021-07-31T17:41:30Z</time>
      </trkpt>
      <trkpt lat="42.21921" lon="1.46428">
        <ele>1359.38</ele>
        <time>2021-07-31T17:41:36Z</time>
      </trkpt>
      <trkpt lat="42.21912" lon="1.46445">
        <ele>1361.24</ele>
        <time>2021-07-31T17:41:39Z</time>
      </trkpt>
      <trkpt lat="42.21897" lon="1.4643">
        <ele>1364.44</ele>
        <time>2021-07-31T17:41:45Z</time>
      </trkpt>
      <trkpt lat="42.21904" lon="1.46418">
        <ele>1365.58</ele>
        <time>2021-07-31T17:41:47Z</time>
      </trkpt>
      <trkpt lat="42.21917" lon="1.46375">
        <ele>1370.03</ele>
        <time>2021-07-31T17:41:57Z</time>
      </trkpt>
      <trkpt lat="42.21932" lon="1.46333">
        <ele>1371.68</ele>
        <time>2021-07-31T17:42:13Z</time>
      </trkpt>
      <trkpt lat="42.21953" lon="1.46273">
        <ele>1373.73</ele>
        <time>2021-07-31T17:42:20Z</time>
      </trkpt>
      <trkpt lat="42.21956" lon="1.46233">
        <ele>1375.92</ele>
        <time>2021-07-31T17:42:24Z</time>
      </trkpt>
      <trkpt lat="42.2195" lon="1.46202">
        <ele>1377.68</ele>
        <time>2021-07-31T17:42:28Z</time>
      </trkpt>
      <trkpt lat="42.21944" lon="1.46185">
        <ele>1378.51</ele>
        <time>2021-07-31T17:42:30Z</time>
      </trkpt>
      <trkpt lat="42.21914" lon="1.46128">
        <ele>1382.02</ele>
        <time>2021-07-31T17:42:37Z</time>
      </trkpt>
      <trkpt lat="42.21887" lon="1.46088">
        <ele>1385.43</ele>
        <time>2021-07-31T17:42:42Z</time>
      </trkpt>
      <trkpt lat="42.21868" lon="1.46063">
        <ele>1388.53</ele>
        <time>2021-07-31T17:42:46Z</time>
      </trkpt>
      <trkpt lat="42.21841" lon="1.46036">
        <ele>1392.14</ele>
        <time>2021-07-31T17:42:52Z</time>
      </trkpt>
      <trkpt lat="42.21825" lon="1.46017">
        <ele>1395.12</ele>
        <time>2021-07-31T17:42:56Z</time>
      </trkpt>
      <trkpt lat="42.21793" lon="1.4598">
        <ele>1399.34</ele>
        <time>2021-07-31T17:43:02Z</time>
      </trkpt>
      <trkpt lat="42.21776" lon="1.45967">
        <ele>1401.93</ele>
        <time>2021-07-31T17:43:05Z</time>
      </trkpt>
      <trkpt lat="42.21742" lon="1.45952">
        <ele>1405.46</ele>
        <time>2021-07-31T17:43:10Z</time>
      </trkpt>
      <trkpt lat="42.21699" lon="1.45943">
        <ele>1409.78</ele>
        <time>2021-07-31T17:43:16Z</time>
      </trkpt>
      <trkpt lat="42.21684" lon="1.45937">
        <ele>1411.4</ele>
        <time>2021-07-31T17:43:18Z</time>
      </trkpt>
      <trkpt lat="42.21656" lon="1.45918">
        <ele>1414.01</ele>
        <time>2021-07-31T17:43:22Z</time>
      </trkpt>
      <trkpt lat="42.21623" lon="1.45917">
        <ele>1416.85</ele>
        <time>2021-07-31T17:43:26Z</time>
      </trkpt>
      <trkpt lat="42.21596" lon="1.45924">
        <ele>1418.84</ele>
        <time>2021-07-31T17:43:29Z</time>
      </trkpt>
      <trkpt lat="42.21598" lon="1.45945">
        <ele>1421.29</ele>
        <time>2021-07-31T17:43:33Z</time>
      </trkpt>
      <trkpt lat="42.21604" lon="1.45946">
        <ele>1421.87</ele>
        <time>2021-07-31T17:43:34Z</time>
      </trkpt>
      <trkpt lat="42.21668" lon="1.45985">
        <ele>1426.08</ele>
        <time>2021-07-31T17:43:42Z</time>
      </trkpt>
      <trkpt lat="42.21696" lon="1.46014">
        <ele>1428.45</ele>
        <time>2021-07-31T17:43:48Z</time>
      </trkpt>
      <trkpt lat="42.21676" lon="1.46014">
        <ele>1429.41</ele>
        <time>2021-07-31T17:43:52Z</time>
      </trkpt>
      <trkpt lat="42.21654" lon="1.46009">
        <ele>1430.88</ele>
        <time>2021-07-31T17:43:55Z</time>
      </trkpt>
      <trkpt lat="42.21605" lon="1.46023">
        <ele>1434.52</ele>
        <time>2021-07-31T17:44:00Z</time>
      </trkpt>
      <trkpt lat="42.21583" lon="1.46045">
        <ele>1436.93</ele>
        <time>2021-07-31T17:44:03Z</time>
      </trkpt>
      <trkpt lat="42.2156" lon="1.46091">
        <ele>1439.54</ele>
        <time>2021-07-31T17:44:07Z</time>
      </trkpt>
      <trkpt lat="42.21515" lon="1.46123">
        <ele>1443.45</ele>
        <time>2021-07-31T17:44:14Z</time>
      </trkpt>
      <trkpt lat="42.21503" lon="1.46108">
        <ele>1444.29</ele>
        <time>2021-07-31T17:44:16Z</time>
      </trkpt>
      <trkpt lat="42.2149" lon="1.46092">
        <ele>1445.44</ele>
        <time>2021-07-31T17:44:18Z</time>
      </trkpt>
      <trkpt lat="42.21479" lon="1.46073">
        <ele>1447</ele>
        <time>2021-07-31T17:44:20Z</time>
      </trkpt>
      <trkpt lat="42.21455" lon="1.46085">
        <ele>1450.91</ele>
        <time>2021-07-31T17:44:26Z</time>
      </trkpt>
      <trkpt lat="42.21447" lon="1.461">
        <ele>1451.58</ele>
        <time>2021-07-31T17:44:28Z</time>
      </trkpt>
      <trkpt lat="42.21424" lon="1.46109">
        <ele>1452.74</ele>
        <time>2021-07-31T17:44:31Z</time>
      </trkpt>
      <trkpt lat="42.21401" lon="1.46117">
        <ele>1454.63</ele>
        <time>2021-07-31T17:44:34Z</time>
      </trkpt>
      <trkpt lat="42.21382" lon="1.46133">
        <ele>1456.74</ele>
        <time>2021-07-31T17:44:37Z</time>
      </trkpt>
      <trkpt lat="42.21362" lon="1.4612">
        <ele>1460.83</ele>
        <time>2021-07-31T17:44:43Z</time>
      </trkpt>
      <trkpt lat="42.21364" lon="1.46086">
        <ele>1464.26</ele>
        <time>2021-07-31T17:44:47Z</time>
      </trkpt>
      <trkpt lat="42.21357" lon="1.46068">
        <ele>1466.2</ele>
        <time>2021-07-31T17:44:49Z</time>
      </trkpt>
      <trkpt lat="42.21342" lon="1.46034">
        <ele>1469.55</ele>
        <time>2021-07-31T17:44:53Z</time>
      </trkpt>
      <trkpt lat="42.21307" lon="1.46004">
        <ele>1474.02</ele>
        <time>2021-07-31T17:44:58Z</time>
      </trkpt>
      <trkpt lat="42.2129" lon="1.46004">
        <ele>1476.13</ele>
        <time>2021-07-31T17:45:00Z</time>
      </trkpt>
      <trkpt lat="42.21242" lon="1.46009">
        <ele>1480.42</ele>
        <time>2021-07-31T17:45:05Z</time>
      </trkpt>
      <trkpt lat="42.21223" lon="1.46011">
        <ele>1482.25</ele>
        <time>2021-07-31T17:45:07Z</time>
      </trkpt>
      <trkpt lat="42.21173" lon="1.45988">
        <ele>1486.84</ele>
        <time>2021-07-31T17:45:13Z</time>
      </trkpt>
      <trkpt lat="42.21149" lon="1.4596">
        <ele>1490.88</ele>
        <time>2021-07-31T17:45:17Z</time>
      </trkpt>
      <trkpt lat="42.21144" lon="1.45952">
        <ele>1491.66</ele>
        <time>2021-07-31T17:45:18Z</time>
      </trkpt>
      <trkpt lat="42.21115" lon="1.45913">
        <ele>1496.16</ele>
        <time>2021-07-31T17:45:23Z</time>
      </trkpt>
      <trkpt lat="42.21076" lon="1.45892">
        <ele>1500.34</ele>
        <time>2021-07-31T17:45:28Z</time>
      </trkpt>
      <trkpt lat="42.21063" lon="1.45883">
        <ele>1502.12</ele>
        <time>2021-07-31T17:45:30Z</time>
      </trkpt>
      <trkpt lat="42.21053" lon="1.45871">
        <ele>1503.78</ele>
        <time>2021-07-31T17:45:32Z</time>
      </trkpt>
      <trkpt lat="42.21039" lon="1.45882">
        <ele>1507.61</ele>
        <time>2021-07-31T17:45:37Z</time>
      </trkpt>
      <trkpt lat="42.21035" lon="1.45909">
        <ele>1509.69</ele>
        <time>2021-07-31T17:45:41Z</time>
      </trkpt>
      <trkpt lat="42.21015" lon="1.45908">
        <ele>1510.72</ele>
        <time>2021-07-31T17:45:44Z</time>
      </trkpt>
      <trkpt lat="42.20973" lon="1.45897">
        <ele>1515.02</ele>
        <time>2021-07-31T17:45:50Z</time>
      </trkpt>
      <trkpt lat="42.20934" lon="1.45881">
        <ele>1518.13</ele>
        <time>2021-07-31T17:45:55Z</time>
      </trkpt>
      <trkpt lat="42.20893" lon="1.45873">
        <ele>1521.21</ele>
        <time>2021-07-31T17:45:59Z</time>
      </trkpt>
      <trkpt lat="42.20843" lon="1.45868">
        <ele>1524.6</ele>
        <time>2021-07-31T17:46:04Z</time>
      </trkpt>
      <trkpt lat="42.20798" lon="1.45857">
        <ele>1527.92</ele>
        <time>2021-07-31T17:46:09Z</time>
      </trkpt>
      <trkpt lat="42.20757" lon="1.45851">
        <ele>1531.08</ele>
        <time>2021-07-31T17:46:14Z</time>
      </trkpt>
      <trkpt lat="42.20717" lon="1.45846">
        <ele>1534.71</ele>
        <time>2021-07-31T17:46:19Z</time>
      </trkpt>
      <trkpt lat="42.20713" lon="1.45877">
        <ele>1538.29</ele>
        <time>2021-07-31T17:46:24Z</time>
      </trkpt>
      <trkpt lat="42.20717" lon="1.45885">
        <ele>1538.83</ele>
        <time>2021-07-31T17:46:25Z</time>
      </trkpt>
      <trkpt lat="42.20734" lon="1.45921">
        <ele>1540.77</ele>
        <time>2021-07-31T17:46:29Z</time>
      </trkpt>
      <trkpt lat="42.20749" lon="1.46003">
        <ele>1544.73</ele>
        <time>2021-07-31T17:46:37Z</time>
      </trkpt>
      <trkpt lat="42.2075" lon="1.46012">
        <ele>1545.33</ele>
        <time>2021-07-31T17:46:38Z</time>
      </trkpt>
      <trkpt lat="42.20753" lon="1.46068">
        <ele>1549.22</ele>
        <time>2021-07-31T17:46:44Z</time>
      </trkpt>
      <trkpt lat="42.20746" lon="1.46094">
        <ele>1553.14</ele>
        <time>2021-07-31T17:46:51Z</time>
      </trkpt>
      <trkpt lat="42.20745" lon="1.46087">
        <ele>1553.51</ele>
        <time>2021-07-31T17:46:52Z</time>
      </trkpt>
      <trkpt lat="42.20736" lon="1.46056">
        <ele>1556.11</ele>
        <time>2021-07-31T17:46:56Z</time>
      </trkpt>
      <trkpt lat="42.20722" lon="1.45989">
        <ele>1560.59</ele>
        <time>2021-07-31T17:47:02Z</time>
      </trkpt>
      <trkpt lat="42.20719" lon="1.45977">
        <ele>1561.45</ele>
        <time>2021-07-31T17:47:03Z</time>
      </trkpt>
      <trkpt lat="42.20694" lon="1.45923">
        <ele>1565.89</ele>
        <time>2021-07-31T17:47:08Z</time>
      </trkpt>
      <trkpt lat="42.20683" lon="1.45905">
        <ele>1567.42</ele>
        <time>2021-07-31T17:47:10Z</time>
      </trkpt>
      <trkpt lat="42.20677" lon="1.45887">
        <ele>1568.69</ele>
        <time>2021-07-31T17:47:12Z</time>
      </trkpt>
      <trkpt lat="42.20666" lon="1.45893">
        <ele>1572.76</ele>
        <time>2021-07-31T17:47:18Z</time>
      </trkpt>
      <trkpt lat="42.20672" lon="1.45913">
        <ele>1574.25</ele>
        <time>2021-07-31T17:47:20Z</time>
      </trkpt>
      <trkpt lat="42.20682" lon="1.45982">
        <ele>1578.25</ele>
        <time>2021-07-31T17:47:26Z</time>
      </trkpt>
      <trkpt lat="42.20681" lon="1.46044">
        <ele>1581.52</ele>
        <time>2021-07-31T17:47:31Z</time>
      </trkpt>
      <trkpt lat="42.20669" lon="1.46042">
        <ele>1584.28</ele>
        <time>2021-07-31T17:47:37Z</time>
      </trkpt>
      <trkpt lat="42.20668" lon="1.46038">
        <ele>1584.58</ele>
        <time>2021-07-31T17:47:38Z</time>
      </trkpt>
      <trkpt lat="42.20664" lon="1.46011">
        <ele>1586.25</ele>
        <time>2021-07-31T17:47:42Z</time>
      </trkpt>
      <trkpt lat="42.20642" lon="1.45944">
        <ele>1590.08</ele>
        <time>2021-07-31T17:47:49Z</time>
      </trkpt>
      <trkpt lat="42.20629" lon="1.45903">
        <ele>1593.01</ele>
        <time>2021-07-31T17:47:53Z</time>
      </trkpt>
      <trkpt lat="42.20615" lon="1.45864">
        <ele>1596.89</ele>
        <time>2021-07-31T17:47:58Z</time>
      </trkpt>
      <trkpt lat="42.20613" lon="1.45846">
        <ele>1598.26</ele>
        <time>2021-07-31T17:48:00Z</time>
      </trkpt>
      <trkpt lat="42.20599" lon="1.45779">
        <ele>1602.84</ele>
        <time>2021-07-31T17:48:06Z</time>
      </trkpt>
      <trkpt lat="42.20589" lon="1.45739">
        <ele>1606.37</ele>
        <time>2021-07-31T17:48:10Z</time>
      </trkpt>
      <trkpt lat="42.20578" lon="1.45697">
        <ele>1609.64</ele>
        <time>2021-07-31T17:48:14Z</time>
      </trkpt>
      <trkpt lat="42.20568" lon="1.45666">
        <ele>1612.41</ele>
        <time>2021-07-31T17:48:17Z</time>
      </trkpt>
      <trkpt lat="42.2054" lon="1.45621">
        <ele>1616.44</ele>
        <time>2021-07-31T17:48:22Z</time>
      </trkpt>
      <trkpt lat="42.20508" lon="1.45575">
        <ele>1620.62</ele>
        <time>2021-07-31T17:48:27Z</time>
      </trkpt>
      <trkpt lat="42.20478" lon="1.45534">
        <ele>1624.28</ele>
        <time>2021-07-31T17:48:31Z</time>
      </trkpt>
      <trkpt lat="42.20459" lon="1.45497">
        <ele>1627.29</ele>
        <time>2021-07-31T17:48:34Z</time>
      </trkpt>
      <trkpt lat="42.20447" lon="1.4546">
        <ele>1630.86</ele>
        <time>2021-07-31T17:48:37Z</time>
      </trkpt>
      <trkpt lat="42.20438" lon="1.45439">
        <ele>1632.89</ele>
        <time>2021-07-31T17:48:39Z</time>
      </trkpt>
      <trkpt lat="42.20394" lon="1.45404">
        <ele>1637.11</ele>
        <time>2021-07-31T17:48:45Z</time>
      </trkpt>
      <trkpt lat="42.20381" lon="1.45395">
        <ele>1637.41</ele>
        <time>2021-07-31T17:48:47Z</time>
      </trkpt>
      <trkpt lat="42.20335" lon="1.45371">
        <ele>1633.92</ele>
        <time>2021-07-31T17:48:56Z</time>
      </trkpt>
      <trkpt lat="42.20318" lon="1.45368">
        <ele>1630.53</ele>
        <time>2021-07-31T17:49:02Z</time>
      </trkpt>
      <trkpt lat="42.20297" lon="1.45393">
        <ele>1627.15</ele>
        <time>2021-07-31T17:49:10Z</time>
      </trkpt>
      <trkpt lat="42.20282" lon="1.45423">
        <ele>1623.75</ele>
        <time>2021-07-31T17:49:17Z</time>
      </trkpt>
      <trkpt lat="42.20262" lon="1.45454">
        <ele>1620.48</ele>
        <time>2021-07-31T17:49:24Z</time>
      </trkpt>
      <trkpt lat="42.2024" lon="1.45486">
        <ele>1617.41</ele>
        <time>2021-07-31T17:49:30Z</time>
      </trkpt>
      <trkpt lat="42.20223" lon="1.45512">
        <ele>1614.08</ele>
        <time>2021-07-31T17:49:36Z</time>
      </trkpt>
      <trkpt lat="42.202" lon="1.45542">
        <ele>1610.84</ele>
        <time>2021-07-31T17:49:43Z</time>
      </trkpt>
      <trkpt lat="42.20187" lon="1.45558">
        <ele>1609.37</ele>
        <time>2021-07-31T17:49:46Z</time>
      </trkpt>
      <trkpt lat="42.20161" lon="1.45575">
        <ele>1606.66</ele>
        <time>2021-07-31T17:49:52Z</time>
      </trkpt>
      <trkpt lat="42.20163" lon="1.45565">
        <ele>1603.67</ele>
        <time>2021-07-31T17:49:58Z</time>
      </trkpt>
      <trkpt lat="42.20176" lon="1.45536">
        <ele>1601.77</ele>
        <time>2021-07-31T17:50:04Z</time>
      </trkpt>
      <trkpt lat="42.20184" lon="1.45508">
        <ele>1601.34</ele>
        <time>2021-07-31T17:50:07Z</time>
      </trkpt>
      <trkpt lat="42.2021" lon="1.45438">
        <ele>1598.09</ele>
        <time>2021-07-31T17:50:15Z</time>
      </trkpt>
      <trkpt lat="42.20213" lon="1.45431">
        <ele>1597.46</ele>
        <time>2021-07-31T17:50:16Z</time>
      </trkpt>
      <trkpt lat="42.20239" lon="1.4537">
        <ele>1593.44</ele>
        <time>2021-07-31T17:50:25Z</time>
      </trkpt>
      <trkpt lat="42.20241" lon="1.45362">
        <ele>1592.73</ele>
        <time>2021-07-31T17:50:27Z</time>
      </trkpt>
      <trkpt lat="42.20254" lon="1.4533">
        <ele>1591.35</ele>
        <time>2021-07-31T17:50:34Z</time>
      </trkpt>
      <trkpt lat="42.20268" lon="1.45298">
        <ele>1590.36</ele>
        <time>2021-07-31T17:50:41Z</time>
      </trkpt>
      <trkpt lat="42.20265" lon="1.4528">
        <ele>1589.86</ele>
        <time>2021-07-31T17:50:45Z</time>
      </trkpt>
      <trkpt lat="42.20255" lon="1.45248">
        <ele>1589.57</ele>
        <time>2021-07-31T17:50:52Z</time>
      </trkpt>
      <trkpt lat="42.20219" lon="1.45172">
        <ele>1586.76</ele>
        <time>2021-07-31T17:51:05Z</time>
      </trkpt>
      <trkpt lat="42.20204" lon="1.45158">
        <ele>1583.68</ele>
        <time>2021-07-31T17:51:11Z</time>
      </trkpt>
      <trkpt lat="42.20185" lon="1.45129">
        <ele>1580.31</ele>
        <time>2021-07-31T17:51:19Z</time>
      </trkpt>
      <trkpt lat="42.2017" lon="1.45099">
        <ele>1577.07</ele>
        <time>2021-07-31T17:51:27Z</time>
      </trkpt>
      <trkpt lat="42.20155" lon="1.45067">
        <ele>1573.66</ele>
        <time>2021-07-31T17:51:35Z</time>
      </trkpt>
      <trkpt lat="42.20135" lon="1.45029">
        <ele>1570.66</ele>
        <time>2021-07-31T17:51:44Z</time>
      </trkpt>
      <trkpt lat="42.2013" lon="1.45017">
        <ele>1570.15</ele>
        <time>2021-07-31T17:51:46Z</time>
      </trkpt>
      <trkpt lat="42.20102" lon="1.44976">
        <ele>1569.53</ele>
        <time>2021-07-31T17:51:55Z</time>
      </trkpt>
      <trkpt lat="42.20079" lon="1.44921">
        <ele>1571.27</ele>
        <time>2021-07-31T17:52:06Z</time>
      </trkpt>
      <trkpt lat="42.20061" lon="1.44867">
        <ele>1572.04</ele>
        <time>2021-07-31T17:52:18Z</time>
      </trkpt>
      <trkpt lat="42.2005" lon="1.44825">
        <ele>1571.12</ele>
        <time>2021-07-31T17:52:29Z</time>
      </trkpt>
      <trkpt lat="42.20057" lon="1.44761">
        <ele>1567.98</ele>
        <time>2021-07-31T17:52:40Z</time>
      </trkpt>
      <trkpt lat="42.20067" lon="1.44703">
        <ele>1564.58</ele>
        <time>2021-07-31T17:52:46Z</time>
      </trkpt>
      <trkpt lat="42.20076" lon="1.44664">
        <ele>1560.97</ele>
        <time>2021-07-31T17:52:50Z</time>
      </trkpt>
      <trkpt lat="42.20085" lon="1.44626">
        <ele>1557.47</ele>
        <time>2021-07-31T17:52:54Z</time>
      </trkpt>
      <trkpt lat="42.20091" lon="1.44576">
        <ele>1553.98</ele>
        <time>2021-07-31T17:52:59Z</time>
      </trkpt>
      <trkpt lat="42.20089" lon="1.44512">
        <ele>1550.83</ele>
        <time>2021-07-31T17:53:05Z</time>
      </trkpt>
      <trkpt lat="42.20084" lon="1.44461">
        <ele>1547.73</ele>
        <time>2021-07-31T17:53:10Z</time>
      </trkpt>
      <trkpt lat="42.2008" lon="1.44409">
        <ele>1544.45</ele>
        <time>2021-07-31T17:53:15Z</time>
      </trkpt>
      <trkpt lat="42.20078" lon="1.44359">
        <ele>1541.22</ele>
        <time>2021-07-31T17:53:20Z</time>
      </trkpt>
      <trkpt lat="42.20077" lon="1.44339">
        <ele>1539.85</ele>
        <time>2021-07-31T17:53:22Z</time>
      </trkpt>
      <trkpt lat="42.20066" lon="1.443">
        <ele>1537.61</ele>
        <time>2021-07-31T17:53:26Z</time>
      </trkpt>
      <trkpt lat="42.20055" lon="1.44238">
        <ele>1533.83</ele>
        <time>2021-07-31T17:53:32Z</time>
      </trkpt>
      <trkpt lat="42.20044" lon="1.44185">
        <ele>1530.6</ele>
        <time>2021-07-31T17:53:37Z</time>
      </trkpt>
      <trkpt lat="42.2003" lon="1.44118">
        <ele>1527.78</ele>
        <time>2021-07-31T17:53:43Z</time>
      </trkpt>
      <trkpt lat="42.20014" lon="1.44081">
        <ele>1525.91</ele>
        <time>2021-07-31T17:53:47Z</time>
      </trkpt>
      <trkpt lat="42.1999" lon="1.44012">
        <ele>1521.98</ele>
        <time>2021-07-31T17:53:54Z</time>
      </trkpt>
      <trkpt lat="42.19964" lon="1.43965">
        <ele>1518.47</ele>
        <time>2021-07-31T17:53:59Z</time>
      </trkpt>
      <trkpt lat="42.19934" lon="1.43929">
        <ele>1514.84</ele>
        <time>2021-07-31T17:54:04Z</time>
      </trkpt>
      <trkpt lat="42.19917" lon="1.43907">
        <ele>1512.06</ele>
        <time>2021-07-31T17:54:08Z</time>
      </trkpt>
      <trkpt lat="42.19907" lon="1.43888">
        <ele>1509.72</ele>
        <time>2021-07-31T17:54:12Z</time>
      </trkpt>
      <trkpt lat="42.19887" lon="1.43902">
        <ele>1505.7</ele>
        <time>2021-07-31T17:54:19Z</time>
      </trkpt>
      <trkpt lat="42.19889" lon="1.43967">
        <ele>1502.37</ele>
        <time>2021-07-31T17:54:26Z</time>
      </trkpt>
      <trkpt lat="42.19891" lon="1.43998">
        <ele>1500.97</ele>
        <time>2021-07-31T17:54:30Z</time>
      </trkpt>
      <trkpt lat="42.19898" lon="1.44023">
        <ele>1499.94</ele>
        <time>2021-07-31T17:54:34Z</time>
      </trkpt>
      <trkpt lat="42.199" lon="1.44047">
        <ele>1499.23</ele>
        <time>2021-07-31T17:54:37Z</time>
      </trkpt>
      <trkpt lat="42.19907" lon="1.44126">
        <ele>1495.16</ele>
        <time>2021-07-31T17:54:45Z</time>
      </trkpt>
      <trkpt lat="42.19909" lon="1.44168">
        <ele>1491.87</ele>
        <time>2021-07-31T17:54:49Z</time>
      </trkpt>
      <trkpt lat="42.19911" lon="1.44187">
        <ele>1490.24</ele>
        <time>2021-07-31T17:54:51Z</time>
      </trkpt>
      <trkpt lat="42.19911" lon="1.44232">
        <ele>1486</ele>
        <time>2021-07-31T17:54:56Z</time>
      </trkpt>
      <trkpt lat="42.19913" lon="1.44275">
        <ele>1482.2</ele>
        <time>2021-07-31T17:55:00Z</time>
      </trkpt>
      <trkpt lat="42.19916" lon="1.44318">
        <ele>1478.89</ele>
        <time>2021-07-31T17:55:04Z</time>
      </trkpt>
      <trkpt lat="42.19914" lon="1.44361">
        <ele>1475.69</ele>
        <time>2021-07-31T17:55:08Z</time>
      </trkpt>
      <trkpt lat="42.19909" lon="1.44401">
        <ele>1471.64</ele>
        <time>2021-07-31T17:55:12Z</time>
      </trkpt>
      <trkpt lat="42.19907" lon="1.44411">
        <ele>1470.86</ele>
        <time>2021-07-31T17:55:13Z</time>
      </trkpt>
      <trkpt lat="42.19897" lon="1.44459">
        <ele>1466.93</ele>
        <time>2021-07-31T17:55:18Z</time>
      </trkpt>
      <trkpt lat="42.19891" lon="1.44484">
        <ele>1462.97</ele>
        <time>2021-07-31T17:55:22Z</time>
      </trkpt>
      <trkpt lat="42.19886" lon="1.44496">
        <ele>1461</ele>
        <time>2021-07-31T17:55:24Z</time>
      </trkpt>
      <trkpt lat="42.19858" lon="1.44516">
        <ele>1456.6</ele>
        <time>2021-07-31T17:55:29Z</time>
      </trkpt>
      <trkpt lat="42.1983" lon="1.44522">
        <ele>1452.35</ele>
        <time>2021-07-31T17:55:34Z</time>
      </trkpt>
      <trkpt lat="42.19824" lon="1.44527">
        <ele>1449.14</ele>
        <time>2021-07-31T17:55:38Z</time>
      </trkpt>
      <trkpt lat="42.19825" lon="1.44526">
        <ele>1446.02</ele>
        <time>2021-07-31T17:55:43Z</time>
      </trkpt>
      <trkpt lat="42.19823" lon="1.44528">
        <ele>1443.66</ele>
        <time>2021-07-31T17:55:59Z</time>
      </trkpt>
      <trkpt lat="42.1982" lon="1.44527">
        <ele>1442.47</ele>
        <time>2021-07-31T17:56:11Z</time>
      </trkpt>
      <trkpt lat="42.19821" lon="1.44522">
        <ele>1442.38</ele>
        <time>2021-07-31T17:56:15Z</time>
      </trkpt>
      <trkpt lat="42.19829" lon="1.44512">
        <ele>1442.38</ele>
        <time>2021-07-31T17:56:19Z</time>
      </trkpt>
      <trkpt lat="42.19847" lon="1.44496">
        <ele>1442.38</ele>
        <time>2021-07-31T17:56:22Z</time>
      </trkpt>
      <trkpt lat="42.19863" lon="1.44436">
        <ele>1441.43</ele>
        <time>2021-07-31T17:56:28Z</time>
      </trkpt>
      <trkpt lat="42.19862" lon="1.44414">
        <ele>1440.92</ele>
        <time>2021-07-31T17:56:30Z</time>
      </trkpt>
      <trkpt lat="42.19865" lon="1.44369">
        <ele>1440.32</ele>
        <time>2021-07-31T17:56:34Z</time>
      </trkpt>
      <trkpt lat="42.19859" lon="1.44326">
        <ele>1439.82</ele>
        <time>2021-07-31T17:56:38Z</time>
      </trkpt>
      <trkpt lat="42.19818" lon="1.44242">
        <ele>1438.09</ele>
        <time>2021-07-31T17:56:48Z</time>
      </trkpt>
      <trkpt lat="42.19814" lon="1.44234">
        <ele>1437.9</ele>
        <time>2021-07-31T17:56:49Z</time>
      </trkpt>
      <trkpt lat="42.19779" lon="1.4413">
        <ele>1437.94</ele>
        <time>2021-07-31T17:57:00Z</time>
      </trkpt>
      <trkpt lat="42.19745" lon="1.44014">
        <ele>1438.41</ele>
        <time>2021-07-31T17:57:13Z</time>
      </trkpt>
      <trkpt lat="42.19727" lon="1.4393">
        <ele>1437.32</ele>
        <time>2021-07-31T17:57:23Z</time>
      </trkpt>
      <trkpt lat="42.19726" lon="1.43861">
        <ele>1433.66</ele>
        <time>2021-07-31T17:57:30Z</time>
      </trkpt>
      <trkpt lat="42.19737" lon="1.43815">
        <ele>1430.21</ele>
        <time>2021-07-31T17:57:35Z</time>
      </trkpt>
      <trkpt lat="42.19743" lon="1.43759">
        <ele>1425.86</ele>
        <time>2021-07-31T17:57:41Z</time>
      </trkpt>
      <trkpt lat="42.19742" lon="1.43733">
        <ele>1423.73</ele>
        <time>2021-07-31T17:57:44Z</time>
      </trkpt>
      <trkpt lat="42.19745" lon="1.43702">
        <ele>1420.46</ele>
        <time>2021-07-31T17:57:48Z</time>
      </trkpt>
      <trkpt lat="42.19744" lon="1.43664">
        <ele>1417.8</ele>
        <time>2021-07-31T17:57:52Z</time>
      </trkpt>
      <trkpt lat="42.19737" lon="1.43634">
        <ele>1413.73</ele>
        <time>2021-07-31T17:57:57Z</time>
      </trkpt>
      <trkpt lat="42.19732" lon="1.43598">
        <ele>1410.14</ele>
        <time>2021-07-31T17:58:02Z</time>
      </trkpt>
      <trkpt lat="42.19726" lon="1.43557">
        <ele>1406.59</ele>
        <time>2021-07-31T17:58:07Z</time>
      </trkpt>
      <trkpt lat="42.1972" lon="1.43527">
        <ele>1403.51</ele>
        <time>2021-07-31T17:58:11Z</time>
      </trkpt>
      <trkpt lat="42.19711" lon="1.4349">
        <ele>1400.36</ele>
        <time>2021-07-31T17:58:15Z</time>
      </trkpt>
      <trkpt lat="42.19709" lon="1.4348">
        <ele>1399.57</ele>
        <time>2021-07-31T17:58:16Z</time>
      </trkpt>
      <trkpt lat="42.19686" lon="1.43435">
        <ele>1395.5</ele>
        <time>2021-07-31T17:58:21Z</time>
      </trkpt>
      <trkpt lat="42.19645" lon="1.434">
        <ele>1391.23</ele>
        <time>2021-07-31T17:58:28Z</time>
      </trkpt>
      <trkpt lat="42.1957" lon="1.43345">
        <ele>1389.28</ele>
        <time>2021-07-31T17:58:40Z</time>
      </trkpt>
      <trkpt lat="42.19525" lon="1.43323">
        <ele>1388.15</ele>
        <time>2021-07-31T17:58:46Z</time>
      </trkpt>
      <trkpt lat="42.19474" lon="1.43334">
        <ele>1385</ele>
        <time>2021-07-31T17:58:56Z</time>
      </trkpt>
      <trkpt lat="42.19468" lon="1.43315">
        <ele>1384.18</ele>
        <time>2021-07-31T17:58:59Z</time>
      </trkpt>
      <trkpt lat="42.19465" lon="1.43236">
        <ele>1380.49</ele>
        <time>2021-07-31T17:59:07Z</time>
      </trkpt>
      <trkpt lat="42.19463" lon="1.43198">
        <ele>1377.81</ele>
        <time>2021-07-31T17:59:11Z</time>
      </trkpt>
      <trkpt lat="42.19461" lon="1.43185">
        <ele>1376.14</ele>
        <time>2021-07-31T17:59:13Z</time>
      </trkpt>
      <trkpt lat="42.19463" lon="1.43156">
        <ele>1372.95</ele>
        <time>2021-07-31T17:59:17Z</time>
      </trkpt>
      <trkpt lat="42.19466" lon="1.43098">
        <ele>1368.09</ele>
        <time>2021-07-31T17:59:24Z</time>
      </trkpt>
      <trkpt lat="42.19455" lon="1.4305">
        <ele>1363.61</ele>
        <time>2021-07-31T17:59:30Z</time>
      </trkpt>
      <trkpt lat="42.19451" lon="1.43036">
        <ele>1362.04</ele>
        <time>2021-07-31T17:59:32Z</time>
      </trkpt>
      <trkpt lat="42.19448" lon="1.42984">
        <ele>1357.99</ele>
        <time>2021-07-31T17:59:38Z</time>
      </trkpt>
      <trkpt lat="42.19443" lon="1.42935">
        <ele>1354.62</ele>
        <time>2021-07-31T17:59:43Z</time>
      </trkpt>
      <trkpt lat="42.19443" lon="1.42832">
        <ele>1351.77</ele>
        <time>2021-07-31T17:59:54Z</time>
      </trkpt>
      <trkpt lat="42.19417" lon="1.42735">
        <ele>1353.34</ele>
        <time>2021-07-31T18:00:03Z</time>
      </trkpt>
      <trkpt lat="42.19411" lon="1.42723">
        <ele>1354.18</ele>
        <time>2021-07-31T18:00:05Z</time>
      </trkpt>
      <trkpt lat="42.19395" lon="1.42701">
        <ele>1357.34</ele>
        <time>2021-07-31T18:00:09Z</time>
      </trkpt>
      <trkpt lat="42.19379" lon="1.42684">
        <ele>1360.12</ele>
        <time>2021-07-31T18:00:13Z</time>
      </trkpt>
      <trkpt lat="42.19371" lon="1.42652">
        <ele>1364.05</ele>
        <time>2021-07-31T18:00:18Z</time>
      </trkpt>
      <trkpt lat="42.19375" lon="1.42621">
        <ele>1367.16</ele>
        <time>2021-07-31T18:00:22Z</time>
      </trkpt>
      <trkpt lat="42.19377" lon="1.42614">
        <ele>1367.81</ele>
        <time>2021-07-31T18:00:23Z</time>
      </trkpt>
      <trkpt lat="42.19393" lon="1.42577">
        <ele>1370.82</ele>
        <time>2021-07-31T18:00:29Z</time>
      </trkpt>
      <trkpt lat="42.19396" lon="1.42571">
        <ele>1371.07</ele>
        <time>2021-07-31T18:00:30Z</time>
      </trkpt>
      <trkpt lat="42.19408" lon="1.42556">
        <ele>1371.28</ele>
        <time>2021-07-31T18:00:34Z</time>
      </trkpt>
      <trkpt lat="42.19423" lon="1.42544">
        <ele>1369.24</ele>
        <time>2021-07-31T18:00:49Z</time>
      </trkpt>
      <trkpt lat="42.19445" lon="1.42522">
        <ele>1369.27</ele>
        <time>2021-07-31T18:02:51Z</time>
      </trkpt>
      <trkpt lat="42.19468" lon="1.42489">
        <ele>1369.25</ele>
        <time>2021-07-31T18:02:57Z</time>
      </trkpt>
      <trkpt lat="42.19513" lon="1.42447">
        <ele>1368.22</ele>
        <time>2021-07-31T18:03:04Z</time>
      </trkpt>
      <trkpt lat="42.19537" lon="1.42408">
        <ele>1367.17</ele>
        <time>2021-07-31T18:03:08Z</time>
      </trkpt>
      <trkpt lat="42.19574" lon="1.42322">
        <ele>1363.71</ele>
        <time>2021-07-31T18:03:16Z</time>
      </trkpt>
      <trkpt lat="42.19599" lon="1.42248">
        <ele>1360.48</ele>
        <time>2021-07-31T18:03:24Z</time>
      </trkpt>
      <trkpt lat="42.19607" lon="1.42232">
        <ele>1359.15</ele>
        <time>2021-07-31T18:03:26Z</time>
      </trkpt>
      <trkpt lat="42.19628" lon="1.42207">
        <ele>1357.54</ele>
        <time>2021-07-31T18:03:30Z</time>
      </trkpt>
      <trkpt lat="42.19651" lon="1.42185">
        <ele>1355.62</ele>
        <time>2021-07-31T18:03:34Z</time>
      </trkpt>
      <trkpt lat="42.19677" lon="1.42127">
        <ele>1351.98</ele>
        <time>2021-07-31T18:03:41Z</time>
      </trkpt>
      <trkpt lat="42.19696" lon="1.42067">
        <ele>1350.3</ele>
        <time>2021-07-31T18:03:49Z</time>
      </trkpt>
      <trkpt lat="42.19699" lon="1.42053">
        <ele>1350.36</ele>
        <time>2021-07-31T18:03:51Z</time>
      </trkpt>
      <trkpt lat="42.19701" lon="1.42046">
        <ele>1350.56</ele>
        <time>2021-07-31T18:03:52Z</time>
      </trkpt>
      <trkpt lat="42.19704" lon="1.4204">
        <ele>1350.92</ele>
        <time>2021-07-31T18:03:53Z</time>
      </trkpt>
      <trkpt lat="42.19708" lon="1.42035">
        <ele>1351.3</ele>
        <time>2021-07-31T18:03:54Z</time>
      </trkpt>
      <trkpt lat="42.19711" lon="1.42029">
        <ele>1351.67</ele>
        <time>2021-07-31T18:03:55Z</time>
      </trkpt>
      <trkpt lat="42.19724" lon="1.42001">
        <ele>1353.61</ele>
        <time>2021-07-31T18:03:59Z</time>
      </trkpt>
      <trkpt lat="42.19738" lon="1.41982">
        <ele>1355.22</ele>
        <time>2021-07-31T18:04:04Z</time>
      </trkpt>
      <trkpt lat="42.19738" lon="1.41983">
        <ele>1356.96</ele>
        <time>2021-07-31T18:04:23Z</time>
      </trkpt>
      <trkpt lat="42.19756" lon="1.41959">
        <ele>1357.31</ele>
        <time>2021-07-31T18:05:29Z</time>
      </trkpt>
      <trkpt lat="42.1981" lon="1.41905">
        <ele>1358.23</ele>
        <time>2021-07-31T18:05:37Z</time>
      </trkpt>
      <trkpt lat="42.19841" lon="1.41844">
        <ele>1359.28</ele>
        <time>2021-07-31T18:05:45Z</time>
      </trkpt>
      <trkpt lat="42.19872" lon="1.41791">
        <ele>1362.32</ele>
        <time>2021-07-31T18:05:54Z</time>
      </trkpt>
      <trkpt lat="42.19904" lon="1.41721">
        <ele>1366.01</ele>
        <time>2021-07-31T18:06:03Z</time>
      </trkpt>
      <trkpt lat="42.19926" lon="1.41651">
        <ele>1369.59</ele>
        <time>2021-07-31T18:06:11Z</time>
      </trkpt>
      <trkpt lat="42.19939" lon="1.41608">
        <ele>1372.86</ele>
        <time>2021-07-31T18:06:16Z</time>
      </trkpt>
      <trkpt lat="42.19953" lon="1.41566">
        <ele>1375.94</ele>
        <time>2021-07-31T18:06:21Z</time>
      </trkpt>
      <trkpt lat="42.19965" lon="1.41529">
        <ele>1379.3</ele>
        <time>2021-07-31T18:06:26Z</time>
      </trkpt>
      <trkpt lat="42.1998" lon="1.41487">
        <ele>1382.35</ele>
        <time>2021-07-31T18:06:31Z</time>
      </trkpt>
      <trkpt lat="42.19998" lon="1.41436">
        <ele>1385.92</ele>
        <time>2021-07-31T18:06:36Z</time>
      </trkpt>
      <trkpt lat="42.20013" lon="1.41399">
        <ele>1389</ele>
        <time>2021-07-31T18:06:40Z</time>
      </trkpt>
      <trkpt lat="42.20025" lon="1.41364">
        <ele>1392.29</ele>
        <time>2021-07-31T18:06:44Z</time>
      </trkpt>
      <trkpt lat="42.20035" lon="1.41336">
        <ele>1396.11</ele>
        <time>2021-07-31T18:06:47Z</time>
      </trkpt>
      <trkpt lat="42.20046" lon="1.41295">
        <ele>1399.36</ele>
        <time>2021-07-31T18:06:51Z</time>
      </trkpt>
      <trkpt lat="42.20054" lon="1.41256">
        <ele>1402.92</ele>
        <time>2021-07-31T18:06:55Z</time>
      </trkpt>
      <trkpt lat="42.20059" lon="1.41221">
        <ele>1406.61</ele>
        <time>2021-07-31T18:06:59Z</time>
      </trkpt>
      <trkpt lat="42.20066" lon="1.41191">
        <ele>1410.07</ele>
        <time>2021-07-31T18:07:03Z</time>
      </trkpt>
      <trkpt lat="42.20072" lon="1.4116">
        <ele>1413.72</ele>
        <time>2021-07-31T18:07:07Z</time>
      </trkpt>
      <trkpt lat="42.20077" lon="1.4113">
        <ele>1417.68</ele>
        <time>2021-07-31T18:07:11Z</time>
      </trkpt>
      <trkpt lat="42.20081" lon="1.41109">
        <ele>1420.84</ele>
        <time>2021-07-31T18:07:14Z</time>
      </trkpt>
      <trkpt lat="42.20086" lon="1.41067">
        <ele>1425.03</ele>
        <time>2021-07-31T18:07:19Z</time>
      </trkpt>
      <trkpt lat="42.20088" lon="1.41056">
        <ele>1425.86</ele>
        <time>2021-07-31T18:07:20Z</time>
      </trkpt>
      <trkpt lat="42.20104" lon="1.40995">
        <ele>1430.04</ele>
        <time>2021-07-31T18:07:25Z</time>
      </trkpt>
      <trkpt lat="42.2011" lon="1.40971">
        <ele>1431.36</ele>
        <time>2021-07-31T18:07:27Z</time>
      </trkpt>
      <trkpt lat="42.20125" lon="1.40939">
        <ele>1433.79</ele>
        <time>2021-07-31T18:07:31Z</time>
      </trkpt>
      <trkpt lat="42.20144" lon="1.40913">
        <ele>1436.4</ele>
        <time>2021-07-31T18:07:35Z</time>
      </trkpt>
      <trkpt lat="42.20151" lon="1.40899">
        <ele>1437.75</ele>
        <time>2021-07-31T18:07:37Z</time>
      </trkpt>
      <trkpt lat="42.20155" lon="1.40869">
        <ele>1441.69</ele>
        <time>2021-07-31T18:07:42Z</time>
      </trkpt>
      <trkpt lat="42.20153" lon="1.40862">
        <ele>1442.46</ele>
        <time>2021-07-31T18:07:43Z</time>
      </trkpt>
      <trkpt lat="42.20127" lon="1.40792">
        <ele>1446.39</ele>
        <time>2021-07-31T18:07:50Z</time>
      </trkpt>
      <trkpt lat="42.20114" lon="1.40743">
        <ele>1447.2</ele>
        <time>2021-07-31T18:07:55Z</time>
      </trkpt>
      <trkpt lat="42.20107" lon="1.40626">
        <ele>1446.02</ele>
        <time>2021-07-31T18:08:04Z</time>
      </trkpt>
      <trkpt lat="42.20073" lon="1.40498">
        <ele>1442.62</ele>
        <time>2021-07-31T18:08:17Z</time>
      </trkpt>
      <trkpt lat="42.20064" lon="1.40478">
        <ele>1441.91</ele>
        <time>2021-07-31T18:08:20Z</time>
      </trkpt>
      <trkpt lat="42.20058" lon="1.40447">
        <ele>1440.5</ele>
        <time>2021-07-31T18:08:24Z</time>
      </trkpt>
      <trkpt lat="42.20058" lon="1.40411">
        <ele>1440.13</ele>
        <time>2021-07-31T18:08:27Z</time>
      </trkpt>
      <trkpt lat="42.20043" lon="1.40289">
        <ele>1443.56</ele>
        <time>2021-07-31T18:08:36Z</time>
      </trkpt>
      <trkpt lat="42.20044" lon="1.40209">
        <ele>1445.81</ele>
        <time>2021-07-31T18:08:41Z</time>
      </trkpt>
      <trkpt lat="42.20027" lon="1.4012">
        <ele>1449.66</ele>
        <time>2021-07-31T18:08:48Z</time>
      </trkpt>
      <trkpt lat="42.20029" lon="1.4005">
        <ele>1453.1</ele>
        <time>2021-07-31T18:08:53Z</time>
      </trkpt>
      <trkpt lat="42.20054" lon="1.39996">
        <ele>1456.49</ele>
        <time>2021-07-31T18:08:58Z</time>
      </trkpt>
      <trkpt lat="42.20062" lon="1.39988">
        <ele>1457.15</ele>
        <time>2021-07-31T18:08:59Z</time>
      </trkpt>
      <trkpt lat="42.2007" lon="1.39981">
        <ele>1457.77</ele>
        <time>2021-07-31T18:09:00Z</time>
      </trkpt>
      <trkpt lat="42.20095" lon="1.39964">
        <ele>1459.59</ele>
        <time>2021-07-31T18:09:03Z</time>
      </trkpt>
      <trkpt lat="42.20104" lon="1.39964">
        <ele>1460.24</ele>
        <time>2021-07-31T18:09:04Z</time>
      </trkpt>
      <trkpt lat="42.20113" lon="1.39965">
        <ele>1460.81</ele>
        <time>2021-07-31T18:09:05Z</time>
      </trkpt>
      <trkpt lat="42.20131" lon="1.39973">
        <ele>1461.92</ele>
        <time>2021-07-31T18:09:07Z</time>
      </trkpt>
      <trkpt lat="42.2016" lon="1.39982">
        <ele>1463.41</ele>
        <time>2021-07-31T18:09:10Z</time>
      </trkpt>
      <trkpt lat="42.20227" lon="1.3998">
        <ele>1466.3</ele>
        <time>2021-07-31T18:09:17Z</time>
      </trkpt>
      <trkpt lat="42.20257" lon="1.39938">
        <ele>1467.1</ele>
        <time>2021-07-31T18:09:24Z</time>
      </trkpt>
      <trkpt lat="42.20237" lon="1.39878">
        <ele>1467.6</ele>
        <time>2021-07-31T18:09:30Z</time>
      </trkpt>
      <trkpt lat="42.20188" lon="1.39784">
        <ele>1464.29</ele>
        <time>2021-07-31T18:09:40Z</time>
      </trkpt>
      <trkpt lat="42.20162" lon="1.39736">
        <ele>1460.95</ele>
        <time>2021-07-31T18:09:45Z</time>
      </trkpt>
      <trkpt lat="42.20135" lon="1.39696">
        <ele>1457.69</ele>
        <time>2021-07-31T18:09:50Z</time>
      </trkpt>
      <trkpt lat="42.20125" lon="1.39679">
        <ele>1456.53</ele>
        <time>2021-07-31T18:09:52Z</time>
      </trkpt>
      <trkpt lat="42.20105" lon="1.39609">
        <ele>1452.81</ele>
        <time>2021-07-31T18:09:58Z</time>
      </trkpt>
      <trkpt lat="42.20098" lon="1.3957">
        <ele>1449.64</ele>
        <time>2021-07-31T18:10:01Z</time>
      </trkpt>
      <trkpt lat="42.20091" lon="1.39517">
        <ele>1446.21</ele>
        <time>2021-07-31T18:10:05Z</time>
      </trkpt>
      <trkpt lat="42.20091" lon="1.3946">
        <ele>1442.91</ele>
        <time>2021-07-31T18:10:10Z</time>
      </trkpt>
      <trkpt lat="42.20091" lon="1.39414">
        <ele>1439.52</ele>
        <time>2021-07-31T18:10:15Z</time>
      </trkpt>
      <trkpt lat="42.20092" lon="1.39378">
        <ele>1436.22</ele>
        <time>2021-07-31T18:10:19Z</time>
      </trkpt>
      <trkpt lat="42.20092" lon="1.39349">
        <ele>1433.21</ele>
        <time>2021-07-31T18:10:22Z</time>
      </trkpt>
      <trkpt lat="42.20093" lon="1.39312">
        <ele>1429.48</ele>
        <time>2021-07-31T18:10:26Z</time>
      </trkpt>
      <trkpt lat="42.20097" lon="1.39294">
        <ele>1427.52</ele>
        <time>2021-07-31T18:10:28Z</time>
      </trkpt>
      <trkpt lat="42.20119" lon="1.3925">
        <ele>1423.2</ele>
        <time>2021-07-31T18:10:33Z</time>
      </trkpt>
      <trkpt lat="42.20154" lon="1.39221">
        <ele>1420.35</ele>
        <time>2021-07-31T18:10:37Z</time>
      </trkpt>
      <trkpt lat="42.20217" lon="1.39196">
        <ele>1416.42</ele>
        <time>2021-07-31T18:10:44Z</time>
      </trkpt>
      <trkpt lat="42.20233" lon="1.39194">
        <ele>1415.74</ele>
        <time>2021-07-31T18:10:46Z</time>
      </trkpt>
      <trkpt lat="42.20279" lon="1.39161">
        <ele>1413.29</ele>
        <time>2021-07-31T18:10:53Z</time>
      </trkpt>
      <trkpt lat="42.2029" lon="1.39145">
        <ele>1412.5</ele>
        <time>2021-07-31T18:10:55Z</time>
      </trkpt>
      <trkpt lat="42.20317" lon="1.39091">
        <ele>1408.62</ele>
        <time>2021-07-31T18:11:02Z</time>
      </trkpt>
      <trkpt lat="42.20329" lon="1.39073">
        <ele>1406.34</ele>
        <time>2021-07-31T18:11:05Z</time>
      </trkpt>
      <trkpt lat="42.20336" lon="1.3906">
        <ele>1405.18</ele>
        <time>2021-07-31T18:11:07Z</time>
      </trkpt>
      <trkpt lat="42.20356" lon="1.39037">
        <ele>1402.64</ele>
        <time>2021-07-31T18:11:11Z</time>
      </trkpt>
      <trkpt lat="42.20398" lon="1.39004">
        <ele>1398.58</ele>
        <time>2021-07-31T18:11:18Z</time>
      </trkpt>
      <trkpt lat="42.20416" lon="1.38988">
        <ele>1396.38</ele>
        <time>2021-07-31T18:11:21Z</time>
      </trkpt>
      <trkpt lat="42.20458" lon="1.3898">
        <ele>1392.58</ele>
        <time>2021-07-31T18:11:27Z</time>
      </trkpt>
      <trkpt lat="42.20497" lon="1.38978">
        <ele>1389.06</ele>
        <time>2021-07-31T18:11:33Z</time>
      </trkpt>
      <trkpt lat="42.20523" lon="1.38968">
        <ele>1386.81</ele>
        <time>2021-07-31T18:11:37Z</time>
      </trkpt>
      <trkpt lat="42.20567" lon="1.38999">
        <ele>1383.18</ele>
        <time>2021-07-31T18:11:45Z</time>
      </trkpt>
      <trkpt lat="42.20568" lon="1.39008">
        <ele>1382.78</ele>
        <time>2021-07-31T18:11:46Z</time>
      </trkpt>
      <trkpt lat="42.20581" lon="1.39066">
        <ele>1380.89</ele>
        <time>2021-07-31T18:11:52Z</time>
      </trkpt>
      <trkpt lat="42.20597" lon="1.39097">
        <ele>1380.32</ele>
        <time>2021-07-31T18:11:56Z</time>
      </trkpt>
      <trkpt lat="42.20643" lon="1.39119">
        <ele>1379.03</ele>
        <time>2021-07-31T18:12:03Z</time>
      </trkpt>
      <trkpt lat="42.20685" lon="1.39113">
        <ele>1376.04</ele>
        <time>2021-07-31T18:12:09Z</time>
      </trkpt>
      <trkpt lat="42.20709" lon="1.39114">
        <ele>1373.72</ele>
        <time>2021-07-31T18:12:12Z</time>
      </trkpt>
      <trkpt lat="42.20739" lon="1.39133">
        <ele>1370.65</ele>
        <time>2021-07-31T18:12:16Z</time>
      </trkpt>
      <trkpt lat="42.20775" lon="1.3918">
        <ele>1366.84</ele>
        <time>2021-07-31T18:12:22Z</time>
      </trkpt>
      <trkpt lat="42.20785" lon="1.39192">
        <ele>1365.91</ele>
        <time>2021-07-31T18:12:24Z</time>
      </trkpt>
      <trkpt lat="42.20821" lon="1.39193">
        <ele>1361.92</ele>
        <time>2021-07-31T18:12:31Z</time>
      </trkpt>
      <trkpt lat="42.20824" lon="1.3917">
        <ele>1360.59</ele>
        <time>2021-07-31T18:12:34Z</time>
      </trkpt>
      <trkpt lat="42.20814" lon="1.39105">
        <ele>1357.03</ele>
        <time>2021-07-31T18:12:42Z</time>
      </trkpt>
      <trkpt lat="42.20814" lon="1.39058">
        <ele>1354.85</ele>
        <time>2021-07-31T18:12:47Z</time>
      </trkpt>
      <trkpt lat="42.20826" lon="1.39026">
        <ele>1353.72</ele>
        <time>2021-07-31T18:12:51Z</time>
      </trkpt>
      <trkpt lat="42.2083" lon="1.38971">
        <ele>1350.98</ele>
        <time>2021-07-31T18:12:59Z</time>
      </trkpt>
      <trkpt lat="42.20825" lon="1.38966">
        <ele>1350.59</ele>
        <time>2021-07-31T18:13:00Z</time>
      </trkpt>
      <trkpt lat="42.2081" lon="1.38943">
        <ele>1349.14</ele>
        <time>2021-07-31T18:13:04Z</time>
      </trkpt>
      <trkpt lat="42.2079" lon="1.38923">
        <ele>1347.22</ele>
        <time>2021-07-31T18:13:08Z</time>
      </trkpt>
      <trkpt lat="42.2077" lon="1.38904">
        <ele>1345.06</ele>
        <time>2021-07-31T18:13:12Z</time>
      </trkpt>
      <trkpt lat="42.20758" lon="1.38872">
        <ele>1342.45</ele>
        <time>2021-07-31T18:13:16Z</time>
      </trkpt>
      <trkpt lat="42.2075" lon="1.38843">
        <ele>1340.93</ele>
        <time>2021-07-31T18:13:19Z</time>
      </trkpt>
      <trkpt lat="42.20748" lon="1.38807">
        <ele>1339.07</ele>
        <time>2021-07-31T18:13:23Z</time>
      </trkpt>
      <trkpt lat="42.20749" lon="1.38798">
        <ele>1338.83</ele>
        <time>2021-07-31T18:13:24Z</time>
      </trkpt>
      <trkpt lat="42.20768" lon="1.38762">
        <ele>1336.97</ele>
        <time>2021-07-31T18:13:29Z</time>
      </trkpt>
      <trkpt lat="42.20776" lon="1.38747">
        <ele>1336.14</ele>
        <time>2021-07-31T18:13:31Z</time>
      </trkpt>
      <trkpt lat="42.20808" lon="1.38712">
        <ele>1332.98</ele>
        <time>2021-07-31T18:13:37Z</time>
      </trkpt>
      <trkpt lat="42.20822" lon="1.38704">
        <ele>1331.09</ele>
        <time>2021-07-31T18:13:40Z</time>
      </trkpt>
      <trkpt lat="42.20838" lon="1.38688">
        <ele>1328.98</ele>
        <time>2021-07-31T18:13:44Z</time>
      </trkpt>
      <trkpt lat="42.20897" lon="1.38664">
        <ele>1327.62</ele>
        <time>2021-07-31T18:13:53Z</time>
      </trkpt>
      <trkpt lat="42.20914" lon="1.38672">
        <ele>1327.51</ele>
        <time>2021-07-31T18:13:56Z</time>
      </trkpt>
      <trkpt lat="42.20953" lon="1.38662">
        <ele>1327.3</ele>
        <time>2021-07-31T18:14:04Z</time>
      </trkpt>
      <trkpt lat="42.20998" lon="1.38608">
        <ele>1325.35</ele>
        <time>2021-07-31T18:14:14Z</time>
      </trkpt>
      <trkpt lat="42.21039" lon="1.38535">
        <ele>1322.5</ele>
        <time>2021-07-31T18:14:25Z</time>
      </trkpt>
      <trkpt lat="42.21084" lon="1.38463">
        <ele>1323.4</ele>
        <time>2021-07-31T18:14:33Z</time>
      </trkpt>
      <trkpt lat="42.21124" lon="1.38339">
        <ele>1322.22</ele>
        <time>2021-07-31T18:14:45Z</time>
      </trkpt>
      <trkpt lat="42.21159" lon="1.38255">
        <ele>1323.13</ele>
        <time>2021-07-31T18:14:53Z</time>
      </trkpt>
      <trkpt lat="42.21235" lon="1.38196">
        <ele>1323.49</ele>
        <time>2021-07-31T18:15:03Z</time>
      </trkpt>
      <trkpt lat="42.21267" lon="1.38178">
        <ele>1323.3</ele>
        <time>2021-07-31T18:15:07Z</time>
      </trkpt>
      <trkpt lat="42.21318" lon="1.38151">
        <ele>1320.93</ele>
        <time>2021-07-31T18:15:15Z</time>
      </trkpt>
      <trkpt lat="42.21306" lon="1.38112">
        <ele>1319.03</ele>
        <time>2021-07-31T18:15:20Z</time>
      </trkpt>
      <trkpt lat="42.21286" lon="1.38089">
        <ele>1316.93</ele>
        <time>2021-07-31T18:15:24Z</time>
      </trkpt>
      <trkpt lat="42.21274" lon="1.38073">
        <ele>1315.3</ele>
        <time>2021-07-31T18:15:27Z</time>
      </trkpt>
      <trkpt lat="42.21286" lon="1.38035">
        <ele>1311.49</ele>
        <time>2021-07-31T18:15:33Z</time>
      </trkpt>
      <trkpt lat="42.21314" lon="1.37998">
        <ele>1309.35</ele>
        <time>2021-07-31T18:15:40Z</time>
      </trkpt>
      <trkpt lat="42.2134" lon="1.37966">
        <ele>1307.84</ele>
        <time>2021-07-31T18:15:47Z</time>
      </trkpt>
      <trkpt lat="42.2137" lon="1.37958">
        <ele>1307.48</ele>
        <time>2021-07-31T18:15:52Z</time>
      </trkpt>
      <trkpt lat="42.21433" lon="1.37885">
        <ele>1309.64</ele>
        <time>2021-07-31T18:16:02Z</time>
      </trkpt>
      <trkpt lat="42.2147" lon="1.37843">
        <ele>1310.29</ele>
        <time>2021-07-31T18:16:07Z</time>
      </trkpt>
      <trkpt lat="42.21486" lon="1.37831">
        <ele>1310.2</ele>
        <time>2021-07-31T18:16:09Z</time>
      </trkpt>
      <trkpt lat="42.2153" lon="1.3778">
        <ele>1307.83</ele>
        <time>2021-07-31T18:16:15Z</time>
      </trkpt>
      <trkpt lat="42.21561" lon="1.37765">
        <ele>1306.3</ele>
        <time>2021-07-31T18:16:19Z</time>
      </trkpt>
      <trkpt lat="42.21584" lon="1.37739">
        <ele>1305.81</ele>
        <time>2021-07-31T18:16:23Z</time>
      </trkpt>
      <trkpt lat="42.21593" lon="1.37722">
        <ele>1305.66</ele>
        <time>2021-07-31T18:16:25Z</time>
      </trkpt>
      <trkpt lat="42.21602" lon="1.37681">
        <ele>1305.13</ele>
        <time>2021-07-31T18:16:29Z</time>
      </trkpt>
      <trkpt lat="42.21632" lon="1.37665">
        <ele>1302.49</ele>
        <time>2021-07-31T18:16:34Z</time>
      </trkpt>
      <trkpt lat="42.2166" lon="1.37675">
        <ele>1300.68</ele>
        <time>2021-07-31T18:16:37Z</time>
      </trkpt>
      <trkpt lat="42.21687" lon="1.3768">
        <ele>1299.73</ele>
        <time>2021-07-31T18:16:40Z</time>
      </trkpt>
      <trkpt lat="42.2173" lon="1.37711">
        <ele>1296.91</ele>
        <time>2021-07-31T18:16:47Z</time>
      </trkpt>
      <trkpt lat="42.21737" lon="1.3771">
        <ele>1296.29</ele>
        <time>2021-07-31T18:16:48Z</time>
      </trkpt>
      <trkpt lat="42.21757" lon="1.37707">
        <ele>1294.34</ele>
        <time>2021-07-31T18:16:51Z</time>
      </trkpt>
      <trkpt lat="42.21789" lon="1.37693">
        <ele>1290.65</ele>
        <time>2021-07-31T18:16:56Z</time>
      </trkpt>
      <trkpt lat="42.21805" lon="1.37681">
        <ele>1287.1</ele>
        <time>2021-07-31T18:17:00Z</time>
      </trkpt>
      <trkpt lat="42.21814" lon="1.37674">
        <ele>1285.4</ele>
        <time>2021-07-31T18:17:02Z</time>
      </trkpt>
      <trkpt lat="42.21835" lon="1.37681">
        <ele>1281.11</ele>
        <time>2021-07-31T18:17:07Z</time>
      </trkpt>
      <trkpt lat="42.21846" lon="1.37694">
        <ele>1279.54</ele>
        <time>2021-07-31T18:17:09Z</time>
      </trkpt>
      <trkpt lat="42.21861" lon="1.37691">
        <ele>1276.2</ele>
        <time>2021-07-31T18:17:13Z</time>
      </trkpt>
      <trkpt lat="42.21861" lon="1.37659">
        <ele>1273.73</ele>
        <time>2021-07-31T18:17:16Z</time>
      </trkpt>
      <trkpt lat="42.21867" lon="1.37586">
        <ele>1269.91</ele>
        <time>2021-07-31T18:17:23Z</time>
      </trkpt>
      <trkpt lat="42.21868" lon="1.37574">
        <ele>1269.48</ele>
        <time>2021-07-31T18:17:24Z</time>
      </trkpt>
      <trkpt lat="42.2189" lon="1.37522">
        <ele>1267.87</ele>
        <time>2021-07-31T18:17:28Z</time>
      </trkpt>
      <trkpt lat="42.21916" lon="1.37482">
        <ele>1266.5</ele>
        <time>2021-07-31T18:17:32Z</time>
      </trkpt>
      <trkpt lat="42.21949" lon="1.3745">
        <ele>1265.43</ele>
        <time>2021-07-31T18:17:36Z</time>
      </trkpt>
      <trkpt lat="42.21982" lon="1.37407">
        <ele>1264.85</ele>
        <time>2021-07-31T18:17:40Z</time>
      </trkpt>
      <trkpt lat="42.22024" lon="1.37349">
        <ele>1261.86</ele>
        <time>2021-07-31T18:17:48Z</time>
      </trkpt>
      <trkpt lat="42.22027" lon="1.37347">
        <ele>1261.31</ele>
        <time>2021-07-31T18:17:49Z</time>
      </trkpt>
      <trkpt lat="42.22055" lon="1.37359">
        <ele>1257.8</ele>
        <time>2021-07-31T18:17:58Z</time>
      </trkpt>
      <trkpt lat="42.22075" lon="1.37376">
        <ele>1256.49</ele>
        <time>2021-07-31T18:18:07Z</time>
      </trkpt>
      <trkpt lat="42.22086" lon="1.37385">
        <ele>1255.78</ele>
        <time>2021-07-31T18:18:10Z</time>
      </trkpt>
      <trkpt lat="42.22126" lon="1.37398">
        <ele>1253.53</ele>
        <time>2021-07-31T18:18:16Z</time>
      </trkpt>
      <trkpt lat="42.2214" lon="1.37385">
        <ele>1249.63</ele>
        <time>2021-07-31T18:18:21Z</time>
      </trkpt>
      <trkpt lat="42.2213" lon="1.37372">
        <ele>1248.02</ele>
        <time>2021-07-31T18:18:23Z</time>
      </trkpt>
      <trkpt lat="42.22117" lon="1.3736">
        <ele>1246.45</ele>
        <time>2021-07-31T18:18:25Z</time>
      </trkpt>
      <trkpt lat="42.22076" lon="1.37332">
        <ele>1241.98</ele>
        <time>2021-07-31T18:18:31Z</time>
      </trkpt>
      <trkpt lat="42.22059" lon="1.37316">
        <ele>1238.93</ele>
        <time>2021-07-31T18:18:34Z</time>
      </trkpt>
      <trkpt lat="42.22041" lon="1.37296">
        <ele>1235.9</ele>
        <time>2021-07-31T18:18:37Z</time>
      </trkpt>
      <trkpt lat="42.22023" lon="1.37284">
        <ele>1232.9</ele>
        <time>2021-07-31T18:18:40Z</time>
      </trkpt>
      <trkpt lat="42.22011" lon="1.37282">
        <ele>1230.88</ele>
        <time>2021-07-31T18:18:42Z</time>
      </trkpt>
      <trkpt lat="42.21985" lon="1.37282">
        <ele>1226.98</ele>
        <time>2021-07-31T18:18:46Z</time>
      </trkpt>
      <trkpt lat="42.21968" lon="1.3726">
        <ele>1222.82</ele>
        <time>2021-07-31T18:18:50Z</time>
      </trkpt>
      <trkpt lat="42.21966" lon="1.37251">
        <ele>1221.86</ele>
        <time>2021-07-31T18:18:51Z</time>
      </trkpt>
      <trkpt lat="42.21961" lon="1.37188">
        <ele>1217.17</ele>
        <time>2021-07-31T18:18:58Z</time>
      </trkpt>
      <trkpt lat="42.21962" lon="1.37136">
        <ele>1213.84</ele>
        <time>2021-07-31T18:19:03Z</time>
      </trkpt>
      <trkpt lat="42.21969" lon="1.37092">
        <ele>1210.7</ele>
        <time>2021-07-31T18:19:07Z</time>
      </trkpt>
      <trkpt lat="42.21981" lon="1.37044">
        <ele>1207.52</ele>
        <time>2021-07-31T18:19:11Z</time>
      </trkpt>
      <trkpt lat="42.21984" lon="1.37033">
        <ele>1206.71</ele>
        <time>2021-07-31T18:19:12Z</time>
      </trkpt>
      <trkpt lat="42.2201" lon="1.36984">
        <ele>1202.43</ele>
        <time>2021-07-31T18:19:17Z</time>
      </trkpt>
      <trkpt lat="42.22028" lon="1.36949">
        <ele>1199.35</ele>
        <time>2021-07-31T18:19:20Z</time>
      </trkpt>
      <trkpt lat="42.22041" lon="1.36917">
        <ele>1196.34</ele>
        <time>2021-07-31T18:19:23Z</time>
      </trkpt>
      <trkpt lat="42.22066" lon="1.36889">
        <ele>1191.99</ele>
        <time>2021-07-31T18:19:27Z</time>
      </trkpt>
      <trkpt lat="42.22072" lon="1.36884">
        <ele>1191.18</ele>
        <time>2021-07-31T18:19:28Z</time>
      </trkpt>
      <trkpt lat="42.22097" lon="1.36837">
        <ele>1186.8</ele>
        <time>2021-07-31T18:19:33Z</time>
      </trkpt>
      <trkpt lat="42.2212" lon="1.36789">
        <ele>1183.65</ele>
        <time>2021-07-31T18:19:37Z</time>
      </trkpt>
      <trkpt lat="42.22122" lon="1.36777">
        <ele>1182.89</ele>
        <time>2021-07-31T18:19:38Z</time>
      </trkpt>
      <trkpt lat="42.22141" lon="1.36727">
        <ele>1179.06</ele>
        <time>2021-07-31T18:19:43Z</time>
      </trkpt>
      <trkpt lat="42.22154" lon="1.36667">
        <ele>1175.01</ele>
        <time>2021-07-31T18:19:48Z</time>
      </trkpt>
      <trkpt lat="42.22158" lon="1.36646">
        <ele>1172.98</ele>
        <time>2021-07-31T18:19:50Z</time>
      </trkpt>
      <trkpt lat="42.22158" lon="1.366">
        <ele>1168.92</ele>
        <time>2021-07-31T18:19:54Z</time>
      </trkpt>
      <trkpt lat="42.22158" lon="1.36575">
        <ele>1166.43</ele>
        <time>2021-07-31T18:19:57Z</time>
      </trkpt>
      <trkpt lat="42.22151" lon="1.36546">
        <ele>1162.55</ele>
        <time>2021-07-31T18:20:01Z</time>
      </trkpt>
      <trkpt lat="42.22146" lon="1.36506">
        <ele>1159.27</ele>
        <time>2021-07-31T18:20:05Z</time>
      </trkpt>
      <trkpt lat="42.22142" lon="1.36437">
        <ele>1154.96</ele>
        <time>2021-07-31T18:20:11Z</time>
      </trkpt>
      <trkpt lat="42.22128" lon="1.36391">
        <ele>1151.38</ele>
        <time>2021-07-31T18:20:15Z</time>
      </trkpt>
      <trkpt lat="42.22125" lon="1.3638">
        <ele>1150.58</ele>
        <time>2021-07-31T18:20:16Z</time>
      </trkpt>
      <trkpt lat="42.22121" lon="1.36361">
        <ele>1149.04</ele>
        <time>2021-07-31T18:20:18Z</time>
      </trkpt>
      <trkpt lat="42.22102" lon="1.36335">
        <ele>1145.89</ele>
        <time>2021-07-31T18:20:22Z</time>
      </trkpt>
      <trkpt lat="42.22059" lon="1.36295">
        <ele>1141.88</ele>
        <time>2021-07-31T18:20:29Z</time>
      </trkpt>
      <trkpt lat="42.22037" lon="1.3627">
        <ele>1140.63</ele>
        <time>2021-07-31T18:20:32Z</time>
      </trkpt>
      <trkpt lat="42.21988" lon="1.36175">
        <ele>1137.03</ele>
        <time>2021-07-31T18:20:43Z</time>
      </trkpt>
      <trkpt lat="42.21971" lon="1.36159">
        <ele>1135.75</ele>
        <time>2021-07-31T18:20:52Z</time>
      </trkpt>
      <trkpt lat="42.21961" lon="1.3615">
        <ele>1134.81</ele>
        <time>2021-07-31T18:20:57Z</time>
      </trkpt>
      <trkpt lat="42.21948" lon="1.36136">
        <ele>1133.9</ele>
        <time>2021-07-31T18:21:00Z</time>
      </trkpt>
      <trkpt lat="42.21896" lon="1.36115">
        <ele>1130.53</ele>
        <time>2021-07-31T18:21:07Z</time>
      </trkpt>
      <trkpt lat="42.21887" lon="1.36111">
        <ele>1129.65</ele>
        <time>2021-07-31T18:21:08Z</time>
      </trkpt>
      <trkpt lat="42.21856" lon="1.36068">
        <ele>1125</ele>
        <time>2021-07-31T18:21:13Z</time>
      </trkpt>
      <trkpt lat="42.21853" lon="1.36045">
        <ele>1123.47</ele>
        <time>2021-07-31T18:21:15Z</time>
      </trkpt>
      <trkpt lat="42.21836" lon="1.35967">
        <ele>1119.01</ele>
        <time>2021-07-31T18:21:21Z</time>
      </trkpt>
      <trkpt lat="42.21834" lon="1.35916">
        <ele>1116.49</ele>
        <time>2021-07-31T18:21:25Z</time>
      </trkpt>
      <trkpt lat="42.21846" lon="1.35846">
        <ele>1112.27</ele>
        <time>2021-07-31T18:21:31Z</time>
      </trkpt>
      <trkpt lat="42.21849" lon="1.35805">
        <ele>1107.41</ele>
        <time>2021-07-31T18:21:36Z</time>
      </trkpt>
      <trkpt lat="42.21857" lon="1.35805">
        <ele>1103.88</ele>
        <time>2021-07-31T18:21:38Z</time>
      </trkpt>
      <trkpt lat="42.21865" lon="1.35817">
        <ele>1101.52</ele>
        <time>2021-07-31T18:21:40Z</time>
      </trkpt>
      <trkpt lat="42.21884" lon="1.35844">
        <ele>1097.21</ele>
        <time>2021-07-31T18:21:44Z</time>
      </trkpt>
      <trkpt lat="42.21891" lon="1.35854">
        <ele>1095.24</ele>
        <time>2021-07-31T18:21:46Z</time>
      </trkpt>
      <trkpt lat="42.21899" lon="1.35863">
        <ele>1093.26</ele>
        <time>2021-07-31T18:21:48Z</time>
      </trkpt>
      <trkpt lat="42.21916" lon="1.35856">
        <ele>1088.59</ele>
        <time>2021-07-31T18:21:53Z</time>
      </trkpt>
      <trkpt lat="42.21916" lon="1.35849">
        <ele>1087.79</ele>
        <time>2021-07-31T18:21:54Z</time>
      </trkpt>
      <trkpt lat="42.21913" lon="1.35819">
        <ele>1082.9</ele>
        <time>2021-07-31T18:21:59Z</time>
      </trkpt>
      <trkpt lat="42.21911" lon="1.35809">
        <ele>1080.91</ele>
        <time>2021-07-31T18:22:01Z</time>
      </trkpt>
      <trkpt lat="42.21903" lon="1.35785">
        <ele>1077.49</ele>
        <time>2021-07-31T18:22:05Z</time>
      </trkpt>
      <trkpt lat="42.21894" lon="1.35743">
        <ele>1073.63</ele>
        <time>2021-07-31T18:22:10Z</time>
      </trkpt>
      <trkpt lat="42.21891" lon="1.35736">
        <ele>1072.74</ele>
        <time>2021-07-31T18:22:11Z</time>
      </trkpt>
      <trkpt lat="42.21873" lon="1.35677">
        <ele>1068.02</ele>
        <time>2021-07-31T18:22:17Z</time>
      </trkpt>
      <trkpt lat="42.21863" lon="1.3564">
        <ele>1064.87</ele>
        <time>2021-07-31T18:22:20Z</time>
      </trkpt>
      <trkpt lat="42.21855" lon="1.35592">
        <ele>1061.18</ele>
        <time>2021-07-31T18:22:24Z</time>
      </trkpt>
      <trkpt lat="42.21853" lon="1.35566">
        <ele>1058.49</ele>
        <time>2021-07-31T18:22:27Z</time>
      </trkpt>
      <trkpt lat="42.21844" lon="1.3553">
        <ele>1055.9</ele>
        <time>2021-07-31T18:22:31Z</time>
      </trkpt>
      <trkpt lat="42.21815" lon="1.35451">
        <ele>1051.85</ele>
        <time>2021-07-31T18:22:38Z</time>
      </trkpt>
      <trkpt lat="42.21802" lon="1.35407">
        <ele>1048.18</ele>
        <time>2021-07-31T18:22:42Z</time>
      </trkpt>
      <trkpt lat="42.21791" lon="1.35367">
        <ele>1044.1</ele>
        <time>2021-07-31T18:22:46Z</time>
      </trkpt>
      <trkpt lat="42.21781" lon="1.35338">
        <ele>1040.75</ele>
        <time>2021-07-31T18:22:49Z</time>
      </trkpt>
      <trkpt lat="42.2177" lon="1.35308">
        <ele>1037.4</ele>
        <time>2021-07-31T18:22:52Z</time>
      </trkpt>
      <trkpt lat="42.21757" lon="1.35282">
        <ele>1034.17</ele>
        <time>2021-07-31T18:22:55Z</time>
      </trkpt>
      <trkpt lat="42.21748" lon="1.35264">
        <ele>1030.84</ele>
        <time>2021-07-31T18:22:58Z</time>
      </trkpt>
      <trkpt lat="42.21742" lon="1.35251">
        <ele>1028.6</ele>
        <time>2021-07-31T18:23:00Z</time>
      </trkpt>
      <trkpt lat="42.21737" lon="1.35236">
        <ele>1026.5</ele>
        <time>2021-07-31T18:23:02Z</time>
      </trkpt>
      <trkpt lat="42.21723" lon="1.35213">
        <ele>1022.53</ele>
        <time>2021-07-31T18:23:06Z</time>
      </trkpt>
      <trkpt lat="42.21706" lon="1.35194">
        <ele>1018.8</ele>
        <time>2021-07-31T18:23:11Z</time>
      </trkpt>
      <trkpt lat="42.2168" lon="1.35183">
        <ele>1015.1</ele>
        <time>2021-07-31T18:23:16Z</time>
      </trkpt>
      <trkpt lat="42.21662" lon="1.35175">
        <ele>1011.13</ele>
        <time>2021-07-31T18:23:20Z</time>
      </trkpt>
      <trkpt lat="42.21652" lon="1.3517">
        <ele>1009.47</ele>
        <time>2021-07-31T18:23:22Z</time>
      </trkpt>
      <trkpt lat="42.21637" lon="1.35158">
        <ele>1006.79</ele>
        <time>2021-07-31T18:23:25Z</time>
      </trkpt>
      <trkpt lat="42.21614" lon="1.35128">
        <ele>1002.48</ele>
        <time>2021-07-31T18:23:30Z</time>
      </trkpt>
      <trkpt lat="42.216" lon="1.35105">
        <ele>999.41</ele>
        <time>2021-07-31T18:23:33Z</time>
      </trkpt>
      <trkpt lat="42.21587" lon="1.35071">
        <ele>994.98</ele>
        <time>2021-07-31T18:23:37Z</time>
      </trkpt>
      <trkpt lat="42.21576" lon="1.3503">
        <ele>990.35</ele>
        <time>2021-07-31T18:23:42Z</time>
      </trkpt>
      <trkpt lat="42.21565" lon="1.35002">
        <ele>986.76</ele>
        <time>2021-07-31T18:23:46Z</time>
      </trkpt>
      <trkpt lat="42.21563" lon="1.34997">
        <ele>985.9</ele>
        <time>2021-07-31T18:23:47Z</time>
      </trkpt>
      <trkpt lat="42.21548" lon="1.34981">
        <ele>981.26</ele>
        <time>2021-07-31T18:23:52Z</time>
      </trkpt>
      <trkpt lat="42.21536" lon="1.34969">
        <ele>979.06</ele>
        <time>2021-07-31T18:23:55Z</time>
      </trkpt>
      <trkpt lat="42.2151" lon="1.34955">
        <ele>974.91</ele>
        <time>2021-07-31T18:24:00Z</time>
      </trkpt>
      <trkpt lat="42.21477" lon="1.34939">
        <ele>971.41</ele>
        <time>2021-07-31T18:24:05Z</time>
      </trkpt>
      <trkpt lat="42.2145" lon="1.34931">
        <ele>968.21</ele>
        <time>2021-07-31T18:24:09Z</time>
      </trkpt>
      <trkpt lat="42.21425" lon="1.34927">
        <ele>965.1</ele>
        <time>2021-07-31T18:24:13Z</time>
      </trkpt>
      <trkpt lat="42.21398" lon="1.3494">
        <ele>961.13</ele>
        <time>2021-07-31T18:24:18Z</time>
      </trkpt>
      <trkpt lat="42.21384" lon="1.34954">
        <ele>959</ele>
        <time>2021-07-31T18:24:21Z</time>
      </trkpt>
      <trkpt lat="42.21356" lon="1.34972">
        <ele>955.24</ele>
        <time>2021-07-31T18:24:26Z</time>
      </trkpt>
      <trkpt lat="42.21336" lon="1.34983">
        <ele>952.13</ele>
        <time>2021-07-31T18:24:30Z</time>
      </trkpt>
      <trkpt lat="42.21328" lon="1.34989">
        <ele>950.26</ele>
        <time>2021-07-31T18:24:33Z</time>
      </trkpt>
      <trkpt lat="42.21328" lon="1.34968">
        <ele>947.23</ele>
        <time>2021-07-31T18:24:38Z</time>
      </trkpt>
      <trkpt lat="42.21359" lon="1.34915">
        <ele>943.32</ele>
        <time>2021-07-31T18:24:45Z</time>
      </trkpt>
      <trkpt lat="42.21362" lon="1.34907">
        <ele>942.7</ele>
        <time>2021-07-31T18:24:46Z</time>
      </trkpt>
      <trkpt lat="42.21372" lon="1.34879">
        <ele>940.35</ele>
        <time>2021-07-31T18:24:50Z</time>
      </trkpt>
      <trkpt lat="42.21381" lon="1.34861">
        <ele>938.75</ele>
        <time>2021-07-31T18:24:53Z</time>
      </trkpt>
      <trkpt lat="42.21372" lon="1.34841">
        <ele>935.36</ele>
        <time>2021-07-31T18:25:00Z</time>
      </trkpt>
      <trkpt lat="42.21339" lon="1.3485">
        <ele>931.86</ele>
        <time>2021-07-31T18:25:06Z</time>
      </trkpt>
      <trkpt lat="42.2133" lon="1.34842">
        <ele>930.13</ele>
        <time>2021-07-31T18:25:08Z</time>
      </trkpt>
      <trkpt lat="42.21323" lon="1.34832">
        <ele>927.55</ele>
        <time>2021-07-31T18:25:11Z</time>
      </trkpt>
      <trkpt lat="42.21321" lon="1.34803">
        <ele>924.8</ele>
        <time>2021-07-31T18:25:15Z</time>
      </trkpt>
      <trkpt lat="42.21315" lon="1.34754">
        <ele>921.24</ele>
        <time>2021-07-31T18:25:21Z</time>
      </trkpt>
      <trkpt lat="42.21309" lon="1.34734">
        <ele>919.2</ele>
        <time>2021-07-31T18:25:24Z</time>
      </trkpt>
      <trkpt lat="42.21298" lon="1.3467">
        <ele>915.08</ele>
        <time>2021-07-31T18:25:31Z</time>
      </trkpt>
      <trkpt lat="42.21289" lon="1.34623">
        <ele>911.67</ele>
        <time>2021-07-31T18:25:37Z</time>
      </trkpt>
      <trkpt lat="42.21285" lon="1.34577">
        <ele>908.26</ele>
        <time>2021-07-31T18:25:42Z</time>
      </trkpt>
      <trkpt lat="42.21285" lon="1.3456">
        <ele>906.07</ele>
        <time>2021-07-31T18:25:45Z</time>
      </trkpt>
      <trkpt lat="42.21303" lon="1.34545">
        <ele>902.67</ele>
        <time>2021-07-31T18:25:50Z</time>
      </trkpt>
      <trkpt lat="42.21319" lon="1.34549">
        <ele>901.25</ele>
        <time>2021-07-31T18:25:52Z</time>
      </trkpt>
      <trkpt lat="42.21342" lon="1.34565">
        <ele>898.43</ele>
        <time>2021-07-31T18:25:56Z</time>
      </trkpt>
      <trkpt lat="42.2136" lon="1.34555">
        <ele>894.54</ele>
        <time>2021-07-31T18:26:02Z</time>
      </trkpt>
      <trkpt lat="42.21347" lon="1.34518">
        <ele>891.51</ele>
        <time>2021-07-31T18:26:07Z</time>
      </trkpt>
      <trkpt lat="42.21338" lon="1.34503">
        <ele>890.42</ele>
        <time>2021-07-31T18:26:09Z</time>
      </trkpt>
      <trkpt lat="42.21321" lon="1.34458">
        <ele>886.77</ele>
        <time>2021-07-31T18:26:16Z</time>
      </trkpt>
      <trkpt lat="42.21313" lon="1.34443">
        <ele>883.58</ele>
        <time>2021-07-31T18:26:22Z</time>
      </trkpt>
      <trkpt lat="42.21312" lon="1.3444">
        <ele>880.5</ele>
        <time>2021-07-31T18:26:35Z</time>
      </trkpt>
      <trkpt lat="42.21311" lon="1.3444">
        <ele>879.35</ele>
        <time>2021-07-31T18:30:00Z</time>
      </trkpt>
      <trkpt lat="42.21294" lon="1.34451">
        <ele>879.34</ele>
        <time>2021-07-31T18:30:06Z</time>
      </trkpt>
      <trkpt lat="42.2126" lon="1.34468">
        <ele>877.11</ele>
        <time>2021-07-31T18:30:13Z</time>
      </trkpt>
      <trkpt lat="42.21241" lon="1.34472">
        <ele>874.51</ele>
        <time>2021-07-31T18:30:17Z</time>
      </trkpt>
      <trkpt lat="42.21217" lon="1.34474">
        <ele>871.36</ele>
        <time>2021-07-31T18:30:22Z</time>
      </trkpt>
      <trkpt lat="42.21186" lon="1.34475">
        <ele>867.59</ele>
        <time>2021-07-31T18:30:27Z</time>
      </trkpt>
      <trkpt lat="42.2116" lon="1.34481">
        <ele>864.5</ele>
        <time>2021-07-31T18:30:31Z</time>
      </trkpt>
      <trkpt lat="42.21141" lon="1.34486">
        <ele>861.93</ele>
        <time>2021-07-31T18:30:34Z</time>
      </trkpt>
      <trkpt lat="42.21113" lon="1.345">
        <ele>857.37</ele>
        <time>2021-07-31T18:30:39Z</time>
      </trkpt>
      <trkpt lat="42.21085" lon="1.34508">
        <ele>853.74</ele>
        <time>2021-07-31T18:30:44Z</time>
      </trkpt>
      <trkpt lat="42.21061" lon="1.34516">
        <ele>850.22</ele>
        <time>2021-07-31T18:30:49Z</time>
      </trkpt>
      <trkpt lat="42.2104" lon="1.34526">
        <ele>847.17</ele>
        <time>2021-07-31T18:30:54Z</time>
      </trkpt>
      <trkpt lat="42.21014" lon="1.34537">
        <ele>844.02</ele>
        <time>2021-07-31T18:30:59Z</time>
      </trkpt>
      <trkpt lat="42.20996" lon="1.34543">
        <ele>842.49</ele>
        <time>2021-07-31T18:31:02Z</time>
      </trkpt>
      <trkpt lat="42.20984" lon="1.3455">
        <ele>841.09</ele>
        <time>2021-07-31T18:31:04Z</time>
      </trkpt>
      <trkpt lat="42.20956" lon="1.3455">
        <ele>837.32</ele>
        <time>2021-07-31T18:31:10Z</time>
      </trkpt>
      <trkpt lat="42.20943" lon="1.3455">
        <ele>834.56</ele>
        <time>2021-07-31T18:31:15Z</time>
      </trkpt>
      <trkpt lat="42.20892" lon="1.34543">
        <ele>830.85</ele>
        <time>2021-07-31T18:31:24Z</time>
      </trkpt>
      <trkpt lat="42.20856" lon="1.34545">
        <ele>827.53</ele>
        <time>2021-07-31T18:31:32Z</time>
      </trkpt>
      <trkpt lat="42.20832" lon="1.34545">
        <ele>824.38</ele>
        <time>2021-07-31T18:31:39Z</time>
      </trkpt>
      <trkpt lat="42.20786" lon="1.34542">
        <ele>821.26</ele>
        <time>2021-07-31T18:31:46Z</time>
      </trkpt>
      <trkpt lat="42.20778" lon="1.34542">
        <ele>820.71</ele>
        <time>2021-07-31T18:31:47Z</time>
      </trkpt>
      <trkpt lat="42.2075" lon="1.34547">
        <ele>818.18</ele>
        <time>2021-07-31T18:31:51Z</time>
      </trkpt>
      <trkpt lat="42.20741" lon="1.34522">
        <ele>813.8</ele>
        <time>2021-07-31T18:31:57Z</time>
      </trkpt>
      <trkpt lat="42.20749" lon="1.3451">
        <ele>812.44</ele>
        <time>2021-07-31T18:31:59Z</time>
      </trkpt>
      <trkpt lat="42.20758" lon="1.34497">
        <ele>811.19</ele>
        <time>2021-07-31T18:32:01Z</time>
      </trkpt>
      <trkpt lat="42.20767" lon="1.34474">
        <ele>809.2</ele>
        <time>2021-07-31T18:32:04Z</time>
      </trkpt>
      <trkpt lat="42.2077" lon="1.34462">
        <ele>807.71</ele>
        <time>2021-07-31T18:32:06Z</time>
      </trkpt>
      <trkpt lat="42.20779" lon="1.34439">
        <ele>805.85</ele>
        <time>2021-07-31T18:32:09Z</time>
      </trkpt>
      <trkpt lat="42.20785" lon="1.34414">
        <ele>803.81</ele>
        <time>2021-07-31T18:32:12Z</time>
      </trkpt>
      <trkpt lat="42.20809" lon="1.34374">
        <ele>799.59</ele>
        <time>2021-07-31T18:32:18Z</time>
      </trkpt>
      <trkpt lat="42.2082" lon="1.34365">
        <ele>797.98</ele>
        <time>2021-07-31T18:32:20Z</time>
      </trkpt>
      <trkpt lat="42.20855" lon="1.34354">
        <ele>794.1</ele>
        <time>2021-07-31T18:32:25Z</time>
      </trkpt>
      <trkpt lat="42.20884" lon="1.34348">
        <ele>790.7</ele>
        <time>2021-07-31T18:32:29Z</time>
      </trkpt>
      <trkpt lat="42.20897" lon="1.34344">
        <ele>789.32</ele>
        <time>2021-07-31T18:32:31Z</time>
      </trkpt>
      <trkpt lat="42.20926" lon="1.34321">
        <ele>785.59</ele>
        <time>2021-07-31T18:32:36Z</time>
      </trkpt>
      <trkpt lat="42.20932" lon="1.34306">
        <ele>782.41</ele>
        <time>2021-07-31T18:32:40Z</time>
      </trkpt>
      <trkpt lat="42.20922" lon="1.34289">
        <ele>779.73</ele>
        <time>2021-07-31T18:32:44Z</time>
      </trkpt>
      <trkpt lat="42.20871" lon="1.34232">
        <ele>775.69</ele>
        <time>2021-07-31T18:32:51Z</time>
      </trkpt>
      <trkpt lat="42.20836" lon="1.34191">
        <ele>771.25</ele>
        <time>2021-07-31T18:32:57Z</time>
      </trkpt>
      <trkpt lat="42.20803" lon="1.34185">
        <ele>766.37</ele>
        <time>2021-07-31T18:33:03Z</time>
      </trkpt>
      <trkpt lat="42.20795" lon="1.34194">
        <ele>765.53</ele>
        <time>2021-07-31T18:33:04Z</time>
      </trkpt>
      <trkpt lat="42.20781" lon="1.3421">
        <ele>764.05</ele>
        <time>2021-07-31T18:33:06Z</time>
      </trkpt>
      <trkpt lat="42.20734" lon="1.3422">
        <ele>759.91</ele>
        <time>2021-07-31T18:33:11Z</time>
      </trkpt>
      <trkpt lat="42.20703" lon="1.34195">
        <ele>756.51</ele>
        <time>2021-07-31T18:33:15Z</time>
      </trkpt>
      <trkpt lat="42.20693" lon="1.34175">
        <ele>754.79</ele>
        <time>2021-07-31T18:33:17Z</time>
      </trkpt>
      <trkpt lat="42.20684" lon="1.34162">
        <ele>752.51</ele>
        <time>2021-07-31T18:33:19Z</time>
      </trkpt>
      <trkpt lat="42.20678" lon="1.34158">
        <ele>751.61</ele>
        <time>2021-07-31T18:33:20Z</time>
      </trkpt>
      <trkpt lat="42.20671" lon="1.3416">
        <ele>750.73</ele>
        <time>2021-07-31T18:33:21Z</time>
      </trkpt>
      <trkpt lat="42.20663" lon="1.34166">
        <ele>749.94</ele>
        <time>2021-07-31T18:33:22Z</time>
      </trkpt>
      <trkpt lat="42.20654" lon="1.34176">
        <ele>749.11</ele>
        <time>2021-07-31T18:33:23Z</time>
      </trkpt>
      <trkpt lat="42.20638" lon="1.34202">
        <ele>747.48</ele>
        <time>2021-07-31T18:33:25Z</time>
      </trkpt>
      <trkpt lat="42.20605" lon="1.3425">
        <ele>743.6</ele>
        <time>2021-07-31T18:33:29Z</time>
      </trkpt>
      <trkpt lat="42.2059" lon="1.34267">
        <ele>740.9</ele>
        <time>2021-07-31T18:33:31Z</time>
      </trkpt>
      <trkpt lat="42.20582" lon="1.34272">
        <ele>739.5</ele>
        <time>2021-07-31T18:33:32Z</time>
      </trkpt>
      <trkpt lat="42.20561" lon="1.34276">
        <ele>736.74</ele>
        <time>2021-07-31T18:33:34Z</time>
      </trkpt>
      <trkpt lat="42.20508" lon="1.34275">
        <ele>730.86</ele>
        <time>2021-07-31T18:33:38Z</time>
      </trkpt>
      <trkpt lat="42.20484" lon="1.34273">
        <ele>727.72</ele>
        <time>2021-07-31T18:33:40Z</time>
      </trkpt>
      <trkpt lat="42.20472" lon="1.34271">
        <ele>726.11</ele>
        <time>2021-07-31T18:33:41Z</time>
      </trkpt>
      <trkpt lat="42.20452" lon="1.34264">
        <ele>722.7</ele>
        <time>2021-07-31T18:33:43Z</time>
      </trkpt>
      <trkpt lat="42.20432" lon="1.34264">
        <ele>717.61</ele>
        <time>2021-07-31T18:33:46Z</time>
      </trkpt>
      <trkpt lat="42.20422" lon="1.34264">
        <ele>714.35</ele>
        <time>2021-07-31T18:33:48Z</time>
      </trkpt>
      <trkpt lat="42.20417" lon="1.34241">
        <ele>710.12</ele>
        <time>2021-07-31T18:33:51Z</time>
      </trkpt>
      <trkpt lat="42.20426" lon="1.34211">
        <ele>706.79</ele>
        <time>2021-07-31T18:33:54Z</time>
      </trkpt>
      <trkpt lat="42.2043" lon="1.34203">
        <ele>705.69</ele>
        <time>2021-07-31T18:33:55Z</time>
      </trkpt>
      <trkpt lat="42.20432" lon="1.34197">
        <ele>704.65</ele>
        <time>2021-07-31T18:33:56Z</time>
      </trkpt>
      <trkpt lat="42.20431" lon="1.34191">
        <ele>703.62</ele>
        <time>2021-07-31T18:33:57Z</time>
      </trkpt>
      <trkpt lat="42.20423" lon="1.34187">
        <ele>701.6</ele>
        <time>2021-07-31T18:33:59Z</time>
      </trkpt>
      <trkpt lat="42.20417" lon="1.34188">
        <ele>700.66</ele>
        <time>2021-07-31T18:34:00Z</time>
      </trkpt>
      <trkpt lat="42.20411" lon="1.34191">
        <ele>699.79</ele>
        <time>2021-07-31T18:34:01Z</time>
      </trkpt>
      <trkpt lat="42.20405" lon="1.34196">
        <ele>698.99</ele>
        <time>2021-07-31T18:34:02Z</time>
      </trkpt>
      <trkpt lat="42.20395" lon="1.34213">
        <ele>697.38</ele>
        <time>2021-07-31T18:34:04Z</time>
      </trkpt>
      <trkpt lat="42.20385" lon="1.34232">
        <ele>695.5</ele>
        <time>2021-07-31T18:34:06Z</time>
      </trkpt>
      <trkpt lat="42.20358" lon="1.34258">
        <ele>691.46</ele>
        <time>2021-07-31T18:34:10Z</time>
      </trkpt>
      <trkpt lat="42.20345" lon="1.3427">
        <ele>689.67</ele>
        <time>2021-07-31T18:34:12Z</time>
      </trkpt>
      <trkpt lat="42.20315" lon="1.34279">
        <ele>686.12</ele>
        <time>2021-07-31T18:34:16Z</time>
      </trkpt>
      <trkpt lat="42.20293" lon="1.34297">
        <ele>681.15</ele>
        <time>2021-07-31T18:34:21Z</time>
      </trkpt>
      <trkpt lat="42.20286" lon="1.34307">
        <ele>678</ele>
        <time>2021-07-31T18:34:24Z</time>
      </trkpt>
      <trkpt lat="42.2028" lon="1.3431">
        <ele>675.06</ele>
        <time>2021-07-31T18:34:27Z</time>
      </trkpt>
      <trkpt lat="42.20272" lon="1.34268">
        <ele>670.6</ele>
        <time>2021-07-31T18:34:33Z</time>
      </trkpt>
      <trkpt lat="42.20292" lon="1.34231">
        <ele>667.56</ele>
        <time>2021-07-31T18:34:37Z</time>
      </trkpt>
      <trkpt lat="42.20307" lon="1.34211">
        <ele>665.67</ele>
        <time>2021-07-31T18:34:39Z</time>
      </trkpt>
      <trkpt lat="42.20317" lon="1.34167">
        <ele>660.99</ele>
        <time>2021-07-31T18:34:43Z</time>
      </trkpt>
      <trkpt lat="42.20317" lon="1.34149">
        <ele>658.25</ele>
        <time>2021-07-31T18:34:45Z</time>
      </trkpt>
      <trkpt lat="42.20311" lon="1.34118">
        <ele>651.66</ele>
        <time>2021-07-31T18:34:50Z</time>
      </trkpt>
      <trkpt lat="42.20305" lon="1.34103">
        <ele>648.53</ele>
        <time>2021-07-31T18:34:53Z</time>
      </trkpt>
      <trkpt lat="42.20298" lon="1.34097">
        <ele>644.77</ele>
        <time>2021-07-31T18:34:57Z</time>
      </trkpt>
      <trkpt lat="42.20293" lon="1.34085">
        <ele>641.6</ele>
        <time>2021-07-31T18:35:01Z</time>
      </trkpt>
      <trkpt lat="42.20292" lon="1.34075">
        <ele>640.63</ele>
        <time>2021-07-31T18:35:03Z</time>
      </trkpt>
      <trkpt lat="42.20297" lon="1.34063">
        <ele>639.35</ele>
        <time>2021-07-31T18:35:06Z</time>
      </trkpt>
      <trkpt lat="42.20311" lon="1.34039">
        <ele>638.35</ele>
        <time>2021-07-31T18:35:11Z</time>
      </trkpt>
      <trkpt lat="42.20316" lon="1.33995">
        <ele>636.03</ele>
        <time>2021-07-31T18:35:17Z</time>
      </trkpt>
      <trkpt lat="42.20342" lon="1.33945">
        <ele>632.86</ele>
        <time>2021-07-31T18:35:22Z</time>
      </trkpt>
      <trkpt lat="42.20382" lon="1.3391">
        <ele>628.73</ele>
        <time>2021-07-31T18:35:27Z</time>
      </trkpt>
      <trkpt lat="42.20396" lon="1.33899">
        <ele>627.28</ele>
        <time>2021-07-31T18:35:29Z</time>
      </trkpt>
      <trkpt lat="42.20404" lon="1.33882">
        <ele>623.37</ele>
        <time>2021-07-31T18:35:34Z</time>
      </trkpt>
      <trkpt lat="42.20404" lon="1.33872">
        <ele>621.61</ele>
        <time>2021-07-31T18:35:37Z</time>
      </trkpt>
      <trkpt lat="42.20427" lon="1.33805">
        <ele>619.72</ele>
        <time>2021-07-31T18:35:44Z</time>
      </trkpt>
      <trkpt lat="42.20438" lon="1.33748">
        <ele>619.11</ele>
        <time>2021-07-31T18:35:48Z</time>
      </trkpt>
      <trkpt lat="42.20437" lon="1.33627">
        <ele>616.81</ele>
        <time>2021-07-31T18:35:55Z</time>
      </trkpt>
      <trkpt lat="42.20473" lon="1.33506">
        <ele>612.85</ele>
        <time>2021-07-31T18:36:02Z</time>
      </trkpt>
      <trkpt lat="42.2048" lon="1.33492">
        <ele>612.14</ele>
        <time>2021-07-31T18:36:03Z</time>
      </trkpt>
      <trkpt lat="42.20489" lon="1.33479">
        <ele>611.44</ele>
        <time>2021-07-31T18:36:04Z</time>
      </trkpt>
      <trkpt lat="42.20522" lon="1.33433">
        <ele>608.09</ele>
        <time>2021-07-31T18:36:08Z</time>
      </trkpt>
      <trkpt lat="42.20553" lon="1.33402">
        <ele>605.58</ele>
        <time>2021-07-31T18:36:11Z</time>
      </trkpt>
      <trkpt lat="42.20616" lon="1.33373">
        <ele>601.19</ele>
        <time>2021-07-31T18:36:16Z</time>
      </trkpt>
      <trkpt lat="42.20668" lon="1.3335">
        <ele>597.63</ele>
        <time>2021-07-31T18:36:20Z</time>
      </trkpt>
      <trkpt lat="42.20712" lon="1.3334">
        <ele>594.59</ele>
        <time>2021-07-31T18:36:23Z</time>
      </trkpt>
      <trkpt lat="42.20776" lon="1.33358">
        <ele>589.53</ele>
        <time>2021-07-31T18:36:28Z</time>
      </trkpt>
      <trkpt lat="42.20826" lon="1.33369">
        <ele>584.3</ele>
        <time>2021-07-31T18:36:33Z</time>
      </trkpt>
      <trkpt lat="42.20874" lon="1.33355">
        <ele>580.54</ele>
        <time>2021-07-31T18:36:37Z</time>
      </trkpt>
      <trkpt lat="42.20923" lon="1.33367">
        <ele>575.74</ele>
        <time>2021-07-31T18:36:41Z</time>
      </trkpt>
      <trkpt lat="42.20933" lon="1.33374">
        <ele>574.75</ele>
        <time>2021-07-31T18:36:42Z</time>
      </trkpt>
      <trkpt lat="42.20997" lon="1.33377">
        <ele>569.25</ele>
        <time>2021-07-31T18:36:48Z</time>
      </trkpt>
      <trkpt lat="42.21046" lon="1.33388">
        <ele>565.7</ele>
        <time>2021-07-31T18:36:52Z</time>
      </trkpt>
      <trkpt lat="42.21083" lon="1.33415">
        <ele>562.78</ele>
        <time>2021-07-31T18:36:56Z</time>
      </trkpt>
      <trkpt lat="42.21109" lon="1.33399">
        <ele>559.42</ele>
        <time>2021-07-31T18:37:02Z</time>
      </trkpt>
      <trkpt lat="42.21144" lon="1.33278">
        <ele>557.12</ele>
        <time>2021-07-31T18:37:14Z</time>
      </trkpt>
      <trkpt lat="42.21169" lon="1.33159">
        <ele>554.46</ele>
        <time>2021-07-31T18:37:24Z</time>
      </trkpt>
      <trkpt lat="42.2119" lon="1.33112">
        <ele>554.46</ele>
        <time>2021-07-31T18:37:29Z</time>
      </trkpt>
      <trkpt lat="42.21199" lon="1.33036">
        <ele>556.9</ele>
        <time>2021-07-31T18:37:36Z</time>
      </trkpt>
      <trkpt lat="42.21186" lon="1.3301">
        <ele>558.24</ele>
        <time>2021-07-31T18:37:38Z</time>
      </trkpt>
      <trkpt lat="42.21155" lon="1.32957">
        <ele>562.16</ele>
        <time>2021-07-31T18:37:43Z</time>
      </trkpt>
      <trkpt lat="42.21133" lon="1.32925">
        <ele>565.33</ele>
        <time>2021-07-31T18:37:47Z</time>
      </trkpt>
      <trkpt lat="42.21128" lon="1.32917">
        <ele>565.98</ele>
        <time>2021-07-31T18:37:48Z</time>
      </trkpt>
      <trkpt lat="42.21103" lon="1.32896">
        <ele>568.39</ele>
        <time>2021-07-31T18:37:54Z</time>
      </trkpt>
      <trkpt lat="42.21108" lon="1.32889">
        <ele>570.49</ele>
        <time>2021-07-31T18:38:00Z</time>
      </trkpt>
      <trkpt lat="42.21144" lon="1.32899">
        <ele>574.02</ele>
        <time>2021-07-31T18:38:10Z</time>
      </trkpt>
      <trkpt lat="42.21141" lon="1.32915">
        <ele>575.28</ele>
        <time>2021-07-31T18:38:14Z</time>
      </trkpt>
      <trkpt lat="42.21144" lon="1.32892">
        <ele>576.29</ele>
        <time>2021-07-31T18:38:19Z</time>
      </trkpt>
      <trkpt lat="42.21151" lon="1.32827">
        <ele>578</ele>
        <time>2021-07-31T18:38:28Z</time>
      </trkpt>
      <trkpt lat="42.2115" lon="1.32819">
        <ele>578.26</ele>
        <time>2021-07-31T18:38:29Z</time>
      </trkpt>
      <trkpt lat="42.21147" lon="1.32811">
        <ele>578.55</ele>
        <time>2021-07-31T18:38:30Z</time>
      </trkpt>
      <trkpt lat="42.21144" lon="1.32803">
        <ele>578.81</ele>
        <time>2021-07-31T18:38:31Z</time>
      </trkpt>
      <trkpt lat="42.2113" lon="1.32787">
        <ele>579.32</ele>
        <time>2021-07-31T18:38:34Z</time>
      </trkpt>
      <trkpt lat="42.21063" lon="1.32725">
        <ele>579.5</ele>
        <time>2021-07-31T18:38:45Z</time>
      </trkpt>
      <trkpt lat="42.20999" lon="1.32637">
        <ele>578.1</ele>
        <time>2021-07-31T18:38:55Z</time>
      </trkpt>
      <trkpt lat="42.2093" lon="1.32612">
        <ele>577.83</ele>
        <time>2021-07-31T18:39:01Z</time>
      </trkpt>
      <trkpt lat="42.20905" lon="1.32624">
        <ele>577.99</ele>
        <time>2021-07-31T18:39:03Z</time>
      </trkpt>
      <trkpt lat="42.20814" lon="1.32684">
        <ele>578.44</ele>
        <time>2021-07-31T18:39:10Z</time>
      </trkpt>
      <trkpt lat="42.20731" lon="1.32691">
        <ele>576.68</ele>
        <time>2021-07-31T18:39:16Z</time>
      </trkpt>
      <trkpt lat="42.20678" lon="1.32716">
        <ele>574.96</ele>
        <time>2021-07-31T18:39:20Z</time>
      </trkpt>
      <trkpt lat="42.2064" lon="1.32753">
        <ele>573.54</ele>
        <time>2021-07-31T18:39:23Z</time>
      </trkpt>
      <trkpt lat="42.20546" lon="1.32784">
        <ele>570.03</ele>
        <time>2021-07-31T18:39:29Z</time>
      </trkpt>
      <trkpt lat="42.20401" lon="1.32763">
        <ele>566.18</ele>
        <time>2021-07-31T18:39:37Z</time>
      </trkpt>
      <trkpt lat="42.2023" lon="1.32741">
        <ele>563.1</ele>
        <time>2021-07-31T18:39:46Z</time>
      </trkpt>
      <trkpt lat="42.20028" lon="1.32724">
        <ele>559.88</ele>
        <time>2021-07-31T18:39:56Z</time>
      </trkpt>
      <trkpt lat="42.19902" lon="1.32728">
        <ele>557.55</ele>
        <time>2021-07-31T18:40:02Z</time>
      </trkpt>
      <trkpt lat="42.19696" lon="1.32791">
        <ele>554.49</ele>
        <time>2021-07-31T18:40:12Z</time>
      </trkpt>
      <trkpt lat="42.19493" lon="1.3292">
        <ele>554.14</ele>
        <time>2021-07-31T18:40:23Z</time>
      </trkpt>
      <trkpt lat="42.1933" lon="1.33029">
        <ele>556.4</ele>
        <time>2021-07-31T18:40:33Z</time>
      </trkpt>
      <trkpt lat="42.19284" lon="1.33056">
        <ele>557.45</ele>
        <time>2021-07-31T18:40:36Z</time>
      </trkpt>
      <trkpt lat="42.19189" lon="1.3305">
        <ele>558.81</ele>
        <time>2021-07-31T18:40:42Z</time>
      </trkpt>
      <trkpt lat="42.19157" lon="1.33028">
        <ele>559.23</ele>
        <time>2021-07-31T18:40:44Z</time>
      </trkpt>
      <trkpt lat="42.19112" lon="1.32996">
        <ele>560.27</ele>
        <time>2021-07-31T18:40:47Z</time>
      </trkpt>
      <trkpt lat="42.19023" lon="1.32994">
        <ele>562.12</ele>
        <time>2021-07-31T18:40:53Z</time>
      </trkpt>
      <trkpt lat="42.18982" lon="1.33028">
        <ele>562.41</ele>
        <time>2021-07-31T18:40:56Z</time>
      </trkpt>
      <trkpt lat="42.18919" lon="1.33102">
        <ele>561.81</ele>
        <time>2021-07-31T18:41:01Z</time>
      </trkpt>
      <trkpt lat="42.18827" lon="1.33133">
        <ele>558.91</ele>
        <time>2021-07-31T18:41:07Z</time>
      </trkpt>
      <trkpt lat="42.18796" lon="1.33125">
        <ele>557.91</ele>
        <time>2021-07-31T18:41:09Z</time>
      </trkpt>
      <trkpt lat="42.18686" lon="1.3308">
        <ele>555.97</ele>
        <time>2021-07-31T18:41:17Z</time>
      </trkpt>
      <trkpt lat="42.18568" lon="1.32982">
        <ele>555.14</ele>
        <time>2021-07-31T18:41:26Z</time>
      </trkpt>
      <trkpt lat="42.18438" lon="1.32833">
        <ele>554.54</ele>
        <time>2021-07-31T18:41:35Z</time>
      </trkpt>
      <trkpt lat="42.18281" lon="1.32692">
        <ele>554.66</ele>
        <time>2021-07-31T18:41:45Z</time>
      </trkpt>
      <trkpt lat="42.18206" lon="1.32614">
        <ele>554.4</ele>
        <time>2021-07-31T18:41:50Z</time>
      </trkpt>
      <trkpt lat="42.18115" lon="1.32421">
        <ele>553.51</ele>
        <time>2021-07-31T18:41:59Z</time>
      </trkpt>
      <trkpt lat="42.1807" lon="1.32218">
        <ele>552.98</ele>
        <time>2021-07-31T18:42:07Z</time>
      </trkpt>
      <trkpt lat="42.17987" lon="1.31932">
        <ele>553.21</ele>
        <time>2021-07-31T18:42:19Z</time>
      </trkpt>
      <trkpt lat="42.17896" lon="1.31703">
        <ele>552.29</ele>
        <time>2021-07-31T18:42:30Z</time>
      </trkpt>
      <trkpt lat="42.17811" lon="1.31651">
        <ele>550.74</ele>
        <time>2021-07-31T18:42:36Z</time>
      </trkpt>
      <trkpt lat="42.17748" lon="1.31666">
        <ele>550.44</ele>
        <time>2021-07-31T18:42:40Z</time>
      </trkpt>
      <trkpt lat="42.17601" lon="1.3175">
        <ele>550.85</ele>
        <time>2021-07-31T18:42:51Z</time>
      </trkpt>
      <trkpt lat="42.1759" lon="1.3176">
        <ele>550.85</ele>
        <time>2021-07-31T18:42:52Z</time>
      </trkpt>
      <trkpt lat="42.1756" lon="1.31818">
        <ele>550.77</ele>
        <time>2021-07-31T18:42:56Z</time>
      </trkpt>
      <trkpt lat="42.17544" lon="1.31938">
        <ele>550.65</ele>
        <time>2021-07-31T18:43:03Z</time>
      </trkpt>
      <trkpt lat="42.17493" lon="1.32029">
        <ele>549.91</ele>
        <time>2021-07-31T18:43:11Z</time>
      </trkpt>
      <trkpt lat="42.17469" lon="1.32039">
        <ele>549.87</ele>
        <time>2021-07-31T18:43:13Z</time>
      </trkpt>
      <trkpt lat="42.17332" lon="1.32067">
        <ele>551.05</ele>
        <time>2021-07-31T18:43:25Z</time>
      </trkpt>
      <trkpt lat="42.17314" lon="1.32069">
        <ele>551.17</ele>
        <time>2021-07-31T18:43:27Z</time>
      </trkpt>
      <trkpt lat="42.17288" lon="1.32063">
        <ele>551.42</ele>
        <time>2021-07-31T18:43:35Z</time>
      </trkpt>
      <trkpt lat="42.17286" lon="1.32062">
        <ele>551.49</ele>
        <time>2021-07-31T18:43:37Z</time>
      </trkpt>
      <trkpt lat="42.17257" lon="1.32052">
        <ele>552.34</ele>
        <time>2021-07-31T18:43:56Z</time>
      </trkpt>
      <trkpt lat="42.17248" lon="1.32047">
        <ele>552.29</ele>
        <time>2021-07-31T18:44:13Z</time>
      </trkpt>
      <trkpt lat="42.1724" lon="1.32038">
        <ele>552.36</ele>
        <time>2021-07-31T18:44:17Z</time>
      </trkpt>
      <trkpt lat="42.17239" lon="1.32006">
        <ele>552.9</ele>
        <time>2021-07-31T18:44:24Z</time>
      </trkpt>
      <trkpt lat="42.17278" lon="1.31938">
        <ele>555.32</ele>
        <time>2021-07-31T18:44:34Z</time>
      </trkpt>
      <trkpt lat="42.17309" lon="1.31888">
        <ele>558.53</ele>
        <time>2021-07-31T18:44:42Z</time>
      </trkpt>
      <trkpt lat="42.17312" lon="1.31885">
        <ele>558.89</ele>
        <time>2021-07-31T18:44:43Z</time>
      </trkpt>
      <trkpt lat="42.17312" lon="1.31878">
        <ele>560.03</ele>
        <time>2021-07-31T18:44:46Z</time>
      </trkpt>
      <trkpt lat="42.17311" lon="1.31888">
        <ele>561.37</ele>
        <time>2021-07-31T18:44:52Z</time>
      </trkpt>
      <trkpt lat="42.17292" lon="1.31909">
        <ele>561.82</ele>
        <time>2021-07-31T18:44:56Z</time>
      </trkpt>
      <trkpt lat="42.17231" lon="1.32011">
        <ele>558.69</ele>
        <time>2021-07-31T18:45:07Z</time>
      </trkpt>
      <trkpt lat="42.17227" lon="1.32018">
        <ele>555.82</ele>
        <time>2021-07-31T18:45:12Z</time>
      </trkpt>
      <trkpt lat="42.17227" lon="1.32019">
        <ele>552.77</ele>
        <time>2021-07-31T18:45:27Z</time>
      </trkpt>
      <trkpt lat="42.17228" lon="1.32022">
        <ele>552.67</ele>
        <time>2021-07-31T18:45:30Z</time>
      </trkpt>
      <trkpt lat="42.17231" lon="1.32025">
        <ele>552.62</ele>
        <time>2021-07-31T18:45:31Z</time>
      </trkpt>
      <trkpt lat="42.17242" lon="1.32036">
        <ele>552.52</ele>
        <time>2021-07-31T18:45:34Z</time>
      </trkpt>
      <trkpt lat="42.17272" lon="1.32058">
        <ele>552.15</ele>
        <time>2021-07-31T18:45:40Z</time>
      </trkpt>
      <trkpt lat="42.17289" lon="1.3205">
        <ele>551.45</ele>
        <time>2021-07-31T18:45:46Z</time>
      </trkpt>
      <trkpt lat="42.17269" lon="1.32047">
        <ele>551.42</ele>
        <time>2021-07-31T18:45:55Z</time>
      </trkpt>
      <trkpt lat="42.17243" lon="1.32042">
        <ele>551.48</ele>
        <time>2021-07-31T18:46:07Z</time>
      </trkpt>
      <trkpt lat="42.1724" lon="1.32039">
        <ele>551.49</ele>
        <time>2021-07-31T18:46:13Z</time>
      </trkpt>
      <trkpt lat="42.17224" lon="1.3202">
        <ele>551.61</ele>
        <time>2021-07-31T18:46:24Z</time>
      </trkpt>
      <trkpt lat="42.17222" lon="1.3202">
        <ele>551.63</ele>
        <time>2021-07-31T18:46:35Z</time>
      </trkpt>
      <trkpt lat="42.17225" lon="1.32028">
        <ele>551.49</ele>
        <time>2021-07-31T18:46:38Z</time>
      </trkpt>
      <trkpt lat="42.17242" lon="1.32038">
        <ele>551.25</ele>
        <time>2021-07-31T18:46:43Z</time>
      </trkpt>
      <trkpt lat="42.17242" lon="1.32038">
        <ele>551.13</ele>
        <time>2021-07-31T18:46:59Z</time>
      </trkpt>
      <trkpt lat="42.17242" lon="1.32038">
        <ele>551.09</ele>
        <time>2021-07-31T18:47:01Z</time>
      </trkpt>
    </trkseg>
  </trk>
</gpx>